<?xml version="1.0" encoding="UTF-8" standalone="no" ?>
<gpx xmlns="http://www.topografix.com/GPX/1/1" xmlns:xsi="http://www.w3.org/2001/XMLSchema-instance" xsi:schemaLocation="http://www.topografix.com/GPX/1/1 http://www.topografix.com/GPX/1/1/gpx.xsd" version="1.1" creator="VisuGPX - https://www.visugpx.com">
  <metadata>
    <name>Daumazan-sur-Arize, Montbrun-B., Camarade, Campagne-sur-Arize . Boucle</name>
    <desc><![CDATA[Boucle VTT avec Patrick]]></desc>
  </metadata>
  <trk>
    <name><![CDATA[Daumazan-sur-Arize, Montbrun-B., Montfa, Campagne/A. Boucle]]></name>
    <desc><![CDATA[Boucle VTT avec Patrick]]></desc>
    <extensions>
      <line xmlns="http://www.topografix.com/GPX/gpx_style/0/2">
        <color>ff0000</color>
        <width>4</width>
      </line>
    </extensions>
    <trkseg>
      <trkpt lat="43.14084" lon="1.30416">
        <ele>264.39999389648</ele>
        <time>2020-10-12T11:36:37.000Z</time>
      </trkpt>
      <trkpt lat="43.14076" lon="1.30421">
        <ele>264.39999389648</ele>
        <time>2020-10-12T11:36:41.000Z</time>
      </trkpt>
      <trkpt lat="43.14075" lon="1.30425">
        <ele>263.79998779297</ele>
        <time>2020-10-12T11:36:42.000Z</time>
      </trkpt>
      <trkpt lat="43.14071" lon="1.3044">
        <ele>263.79998779297</ele>
        <time>2020-10-12T11:36:47.000Z</time>
      </trkpt>
      <trkpt lat="43.14058" lon="1.30454">
        <ele>263.79998779297</ele>
        <time>2020-10-12T11:36:53.000Z</time>
      </trkpt>
      <trkpt lat="43.14033" lon="1.30481">
        <ele>263.79998779297</ele>
        <time>2020-10-12T11:37:04.000Z</time>
      </trkpt>
      <trkpt lat="43.14013" lon="1.30504">
        <ele>263.79998779297</ele>
        <time>2020-10-12T11:37:12.000Z</time>
      </trkpt>
      <trkpt lat="43.13995" lon="1.30517">
        <ele>263.79998779297</ele>
        <time>2020-10-12T11:37:19.000Z</time>
      </trkpt>
      <trkpt lat="43.13987" lon="1.3052">
        <ele>263.39999389648</ele>
        <time>2020-10-12T11:37:23.000Z</time>
      </trkpt>
      <trkpt lat="43.13985" lon="1.30521">
        <ele>263</ele>
        <time>2020-10-12T11:37:24.000Z</time>
      </trkpt>
      <trkpt lat="43.13984" lon="1.30522">
        <ele>262.60000610352</ele>
        <time>2020-10-12T11:37:25.000Z</time>
      </trkpt>
      <trkpt lat="43.13983" lon="1.30523">
        <ele>262.20001220703</ele>
        <time>2020-10-12T11:37:26.000Z</time>
      </trkpt>
      <trkpt lat="43.13981" lon="1.30523">
        <ele>261.79998779297</ele>
        <time>2020-10-12T11:37:27.000Z</time>
      </trkpt>
      <trkpt lat="43.13979" lon="1.30524">
        <ele>261.79998779297</ele>
        <time>2020-10-12T11:37:29.000Z</time>
      </trkpt>
      <trkpt lat="43.13979" lon="1.30524">
        <ele>261.79998779297</ele>
        <time>2020-10-12T11:37:31.000Z</time>
      </trkpt>
      <trkpt lat="43.13979" lon="1.30525">
        <ele>261.79998779297</ele>
        <time>2020-10-12T11:37:37.000Z</time>
      </trkpt>
      <trkpt lat="43.13979" lon="1.30525">
        <ele>261.79998779297</ele>
        <time>2020-10-12T11:37:38.000Z</time>
      </trkpt>
      <trkpt lat="43.13978" lon="1.30525">
        <ele>261.79998779297</ele>
        <time>2020-10-12T11:37:42.000Z</time>
      </trkpt>
      <trkpt lat="43.13978" lon="1.30525">
        <ele>261.79998779297</ele>
        <time>2020-10-12T11:37:43.000Z</time>
      </trkpt>
      <trkpt lat="43.13977" lon="1.30526">
        <ele>261.79998779297</ele>
        <time>2020-10-12T11:38:05.000Z</time>
      </trkpt>
      <trkpt lat="43.13977" lon="1.30527">
        <ele>261.79998779297</ele>
        <time>2020-10-12T11:38:06.000Z</time>
      </trkpt>
      <trkpt lat="43.13975" lon="1.3053">
        <ele>261.79998779297</ele>
        <time>2020-10-12T11:38:09.000Z</time>
      </trkpt>
      <trkpt lat="43.13971" lon="1.30533">
        <ele>261.79998779297</ele>
        <time>2020-10-12T11:38:11.000Z</time>
      </trkpt>
      <trkpt lat="43.13955" lon="1.30542">
        <ele>261.39999389648</ele>
        <time>2020-10-12T11:38:17.000Z</time>
      </trkpt>
      <trkpt lat="43.13952" lon="1.30543">
        <ele>261</ele>
        <time>2020-10-12T11:38:18.000Z</time>
      </trkpt>
      <trkpt lat="43.1395" lon="1.30544">
        <ele>260.60000610352</ele>
        <time>2020-10-12T11:38:19.000Z</time>
      </trkpt>
      <trkpt lat="43.13947" lon="1.30546">
        <ele>260</ele>
        <time>2020-10-12T11:38:20.000Z</time>
      </trkpt>
      <trkpt lat="43.13945" lon="1.30548">
        <ele>259.60000610352</ele>
        <time>2020-10-12T11:38:21.000Z</time>
      </trkpt>
      <trkpt lat="43.13942" lon="1.30551">
        <ele>259.60000610352</ele>
        <time>2020-10-12T11:38:23.000Z</time>
      </trkpt>
      <trkpt lat="43.13938" lon="1.30553">
        <ele>259.20001220703</ele>
        <time>2020-10-12T11:38:26.000Z</time>
      </trkpt>
      <trkpt lat="43.13936" lon="1.30554">
        <ele>258.79998779297</ele>
        <time>2020-10-12T11:38:27.000Z</time>
      </trkpt>
      <trkpt lat="43.13935" lon="1.30555">
        <ele>258.39999389648</ele>
        <time>2020-10-12T11:38:28.000Z</time>
      </trkpt>
      <trkpt lat="43.13934" lon="1.30555">
        <ele>258</ele>
        <time>2020-10-12T11:38:29.000Z</time>
      </trkpt>
      <trkpt lat="43.13933" lon="1.30556">
        <ele>257.60000610352</ele>
        <time>2020-10-12T11:38:30.000Z</time>
      </trkpt>
      <trkpt lat="43.1393" lon="1.30556">
        <ele>257.60000610352</ele>
        <time>2020-10-12T11:38:32.000Z</time>
      </trkpt>
      <trkpt lat="43.13927" lon="1.30555">
        <ele>257.60000610352</ele>
        <time>2020-10-12T11:38:34.000Z</time>
      </trkpt>
      <trkpt lat="43.13924" lon="1.30557">
        <ele>257.60000610352</ele>
        <time>2020-10-12T11:38:38.000Z</time>
      </trkpt>
      <trkpt lat="43.13923" lon="1.30558">
        <ele>257.60000610352</ele>
        <time>2020-10-12T11:38:42.000Z</time>
      </trkpt>
      <trkpt lat="43.13922" lon="1.30559">
        <ele>257.60000610352</ele>
        <time>2020-10-12T11:38:43.000Z</time>
      </trkpt>
      <trkpt lat="43.13916" lon="1.30566">
        <ele>257.60000610352</ele>
        <time>2020-10-12T11:38:47.000Z</time>
      </trkpt>
      <trkpt lat="43.13915" lon="1.30568">
        <ele>258</ele>
        <time>2020-10-12T11:38:48.000Z</time>
      </trkpt>
      <trkpt lat="43.13913" lon="1.30569">
        <ele>258.39999389648</ele>
        <time>2020-10-12T11:38:49.000Z</time>
      </trkpt>
      <trkpt lat="43.13912" lon="1.30571">
        <ele>258.79998779297</ele>
        <time>2020-10-12T11:38:50.000Z</time>
      </trkpt>
      <trkpt lat="43.13911" lon="1.30572">
        <ele>259.20001220703</ele>
        <time>2020-10-12T11:38:51.000Z</time>
      </trkpt>
      <trkpt lat="43.1391" lon="1.30574">
        <ele>259.60000610352</ele>
        <time>2020-10-12T11:38:52.000Z</time>
      </trkpt>
      <trkpt lat="43.13905" lon="1.30582">
        <ele>259.60000610352</ele>
        <time>2020-10-12T11:38:55.000Z</time>
      </trkpt>
      <trkpt lat="43.13894" lon="1.30597">
        <ele>259.60000610352</ele>
        <time>2020-10-12T11:39:01.000Z</time>
      </trkpt>
      <trkpt lat="43.13884" lon="1.30612">
        <ele>260</ele>
        <time>2020-10-12T11:39:06.000Z</time>
      </trkpt>
      <trkpt lat="43.13882" lon="1.30615">
        <ele>260.39999389648</ele>
        <time>2020-10-12T11:39:07.000Z</time>
      </trkpt>
      <trkpt lat="43.1388" lon="1.30617">
        <ele>260.79998779297</ele>
        <time>2020-10-12T11:39:08.000Z</time>
      </trkpt>
      <trkpt lat="43.13878" lon="1.3062">
        <ele>261.20001220703</ele>
        <time>2020-10-12T11:39:09.000Z</time>
      </trkpt>
      <trkpt lat="43.13876" lon="1.30623">
        <ele>261.60000610352</ele>
        <time>2020-10-12T11:39:10.000Z</time>
      </trkpt>
      <trkpt lat="43.13867" lon="1.30631">
        <ele>261.60000610352</ele>
        <time>2020-10-12T11:39:15.000Z</time>
      </trkpt>
      <trkpt lat="43.13859" lon="1.3062">
        <ele>261.60000610352</ele>
        <time>2020-10-12T11:39:19.000Z</time>
      </trkpt>
      <trkpt lat="43.13847" lon="1.306">
        <ele>261.60000610352</ele>
        <time>2020-10-12T11:39:25.000Z</time>
      </trkpt>
      <trkpt lat="43.13829" lon="1.30579">
        <ele>261.60000610352</ele>
        <time>2020-10-12T11:39:32.000Z</time>
      </trkpt>
      <trkpt lat="43.13822" lon="1.30572">
        <ele>262</ele>
        <time>2020-10-12T11:39:35.000Z</time>
      </trkpt>
      <trkpt lat="43.13819" lon="1.30569">
        <ele>262.60000610352</ele>
        <time>2020-10-12T11:39:36.000Z</time>
      </trkpt>
      <trkpt lat="43.13817" lon="1.30567">
        <ele>263</ele>
        <time>2020-10-12T11:39:37.000Z</time>
      </trkpt>
      <trkpt lat="43.13813" lon="1.30564">
        <ele>263.79998779297</ele>
        <time>2020-10-12T11:39:38.000Z</time>
      </trkpt>
      <trkpt lat="43.13804" lon="1.30557">
        <ele>263.79998779297</ele>
        <time>2020-10-12T11:39:41.000Z</time>
      </trkpt>
      <trkpt lat="43.13776" lon="1.30538">
        <ele>263.79998779297</ele>
        <time>2020-10-12T11:39:50.000Z</time>
      </trkpt>
      <trkpt lat="43.13756" lon="1.30526">
        <ele>264.20001220703</ele>
        <time>2020-10-12T11:39:56.000Z</time>
      </trkpt>
      <trkpt lat="43.13753" lon="1.30524">
        <ele>264.60000610352</ele>
        <time>2020-10-12T11:39:57.000Z</time>
      </trkpt>
      <trkpt lat="43.13749" lon="1.30521">
        <ele>265.20001220703</ele>
        <time>2020-10-12T11:39:58.000Z</time>
      </trkpt>
      <trkpt lat="43.13746" lon="1.30518">
        <ele>265.60000610352</ele>
        <time>2020-10-12T11:39:59.000Z</time>
      </trkpt>
      <trkpt lat="43.13743" lon="1.30516">
        <ele>266</ele>
        <time>2020-10-12T11:40:00.000Z</time>
      </trkpt>
      <trkpt lat="43.13721" lon="1.30498">
        <ele>266</ele>
        <time>2020-10-12T11:40:07.000Z</time>
      </trkpt>
      <trkpt lat="43.13706" lon="1.30485">
        <ele>266.39999389648</ele>
        <time>2020-10-12T11:40:12.000Z</time>
      </trkpt>
      <trkpt lat="43.13703" lon="1.30481">
        <ele>266.79998779297</ele>
        <time>2020-10-12T11:40:13.000Z</time>
      </trkpt>
      <trkpt lat="43.137" lon="1.30478">
        <ele>267.20001220703</ele>
        <time>2020-10-12T11:40:14.000Z</time>
      </trkpt>
      <trkpt lat="43.13697" lon="1.30475">
        <ele>267.60000610352</ele>
        <time>2020-10-12T11:40:15.000Z</time>
      </trkpt>
      <trkpt lat="43.13695" lon="1.30473">
        <ele>268</ele>
        <time>2020-10-12T11:40:16.000Z</time>
      </trkpt>
      <trkpt lat="43.13672" lon="1.30449">
        <ele>268</ele>
        <time>2020-10-12T11:40:24.000Z</time>
      </trkpt>
      <trkpt lat="43.13647" lon="1.30421">
        <ele>268.39999389648</ele>
        <time>2020-10-12T11:40:33.000Z</time>
      </trkpt>
      <trkpt lat="43.13645" lon="1.30418">
        <ele>268.79998779297</ele>
        <time>2020-10-12T11:40:34.000Z</time>
      </trkpt>
      <trkpt lat="43.13642" lon="1.30415">
        <ele>269.20001220703</ele>
        <time>2020-10-12T11:40:35.000Z</time>
      </trkpt>
      <trkpt lat="43.1364" lon="1.30412">
        <ele>269.60000610352</ele>
        <time>2020-10-12T11:40:36.000Z</time>
      </trkpt>
      <trkpt lat="43.13637" lon="1.30409">
        <ele>270</ele>
        <time>2020-10-12T11:40:37.000Z</time>
      </trkpt>
      <trkpt lat="43.13627" lon="1.30397">
        <ele>270.60000610352</ele>
        <time>2020-10-12T11:40:41.000Z</time>
      </trkpt>
      <trkpt lat="43.13624" lon="1.30394">
        <ele>271</ele>
        <time>2020-10-12T11:40:42.000Z</time>
      </trkpt>
      <trkpt lat="43.13622" lon="1.3039">
        <ele>271.39999389648</ele>
        <time>2020-10-12T11:40:43.000Z</time>
      </trkpt>
      <trkpt lat="43.13621" lon="1.30387">
        <ele>272</ele>
        <time>2020-10-12T11:40:44.000Z</time>
      </trkpt>
      <trkpt lat="43.1362" lon="1.30384">
        <ele>272.39999389648</ele>
        <time>2020-10-12T11:40:45.000Z</time>
      </trkpt>
      <trkpt lat="43.1362" lon="1.3038">
        <ele>272.79998779297</ele>
        <time>2020-10-12T11:40:46.000Z</time>
      </trkpt>
      <trkpt lat="43.13621" lon="1.30376">
        <ele>273.20001220703</ele>
        <time>2020-10-12T11:40:47.000Z</time>
      </trkpt>
      <trkpt lat="43.13621" lon="1.30372">
        <ele>273.60000610352</ele>
        <time>2020-10-12T11:40:48.000Z</time>
      </trkpt>
      <trkpt lat="43.13621" lon="1.30369">
        <ele>274</ele>
        <time>2020-10-12T11:40:49.000Z</time>
      </trkpt>
      <trkpt lat="43.13621" lon="1.30366">
        <ele>274.60000610352</ele>
        <time>2020-10-12T11:40:50.000Z</time>
      </trkpt>
      <trkpt lat="43.13621" lon="1.30362">
        <ele>274.60000610352</ele>
        <time>2020-10-12T11:40:51.000Z</time>
      </trkpt>
      <trkpt lat="43.13621" lon="1.30356">
        <ele>274.60000610352</ele>
        <time>2020-10-12T11:40:53.000Z</time>
      </trkpt>
      <trkpt lat="43.13621" lon="1.30352">
        <ele>275</ele>
        <time>2020-10-12T11:40:54.000Z</time>
      </trkpt>
      <trkpt lat="43.1362" lon="1.30349">
        <ele>275.39999389648</ele>
        <time>2020-10-12T11:40:55.000Z</time>
      </trkpt>
      <trkpt lat="43.13619" lon="1.30345">
        <ele>275.79998779297</ele>
        <time>2020-10-12T11:40:56.000Z</time>
      </trkpt>
      <trkpt lat="43.13619" lon="1.30341">
        <ele>276.20001220703</ele>
        <time>2020-10-12T11:40:57.000Z</time>
      </trkpt>
      <trkpt lat="43.13618" lon="1.30338">
        <ele>276.60000610352</ele>
        <time>2020-10-12T11:40:58.000Z</time>
      </trkpt>
      <trkpt lat="43.13617" lon="1.30335">
        <ele>277</ele>
        <time>2020-10-12T11:40:59.000Z</time>
      </trkpt>
      <trkpt lat="43.13616" lon="1.30331">
        <ele>277.39999389648</ele>
        <time>2020-10-12T11:41:00.000Z</time>
      </trkpt>
      <trkpt lat="43.13615" lon="1.30328">
        <ele>277.79998779297</ele>
        <time>2020-10-12T11:41:01.000Z</time>
      </trkpt>
      <trkpt lat="43.13615" lon="1.30325">
        <ele>278.20001220703</ele>
        <time>2020-10-12T11:41:02.000Z</time>
      </trkpt>
      <trkpt lat="43.13614" lon="1.30321">
        <ele>278.60000610352</ele>
        <time>2020-10-12T11:41:03.000Z</time>
      </trkpt>
      <trkpt lat="43.13608" lon="1.30307">
        <ele>278.60000610352</ele>
        <time>2020-10-12T11:41:08.000Z</time>
      </trkpt>
      <trkpt lat="43.136" lon="1.30287">
        <ele>278.60000610352</ele>
        <time>2020-10-12T11:41:14.000Z</time>
      </trkpt>
      <trkpt lat="43.13598" lon="1.30277">
        <ele>279</ele>
        <time>2020-10-12T11:41:17.000Z</time>
      </trkpt>
      <trkpt lat="43.13597" lon="1.30273">
        <ele>279.60000610352</ele>
        <time>2020-10-12T11:41:18.000Z</time>
      </trkpt>
      <trkpt lat="43.13596" lon="1.30268">
        <ele>280</ele>
        <time>2020-10-12T11:41:19.000Z</time>
      </trkpt>
      <trkpt lat="43.13595" lon="1.30264">
        <ele>280.39999389648</ele>
        <time>2020-10-12T11:41:20.000Z</time>
      </trkpt>
      <trkpt lat="43.13595" lon="1.30259">
        <ele>280.79998779297</ele>
        <time>2020-10-12T11:41:21.000Z</time>
      </trkpt>
      <trkpt lat="43.13596" lon="1.30255">
        <ele>280.79998779297</ele>
        <time>2020-10-12T11:41:22.000Z</time>
      </trkpt>
      <trkpt lat="43.13596" lon="1.30249">
        <ele>280.79998779297</ele>
        <time>2020-10-12T11:41:23.000Z</time>
      </trkpt>
      <trkpt lat="43.13594" lon="1.3023">
        <ele>280.79998779297</ele>
        <time>2020-10-12T11:41:26.000Z</time>
      </trkpt>
      <trkpt lat="43.13593" lon="1.30225">
        <ele>280.79998779297</ele>
        <time>2020-10-12T11:41:27.000Z</time>
      </trkpt>
      <trkpt lat="43.13593" lon="1.3021">
        <ele>280.79998779297</ele>
        <time>2020-10-12T11:41:31.000Z</time>
      </trkpt>
      <trkpt lat="43.13593" lon="1.30187">
        <ele>280.79998779297</ele>
        <time>2020-10-12T11:41:36.000Z</time>
      </trkpt>
      <trkpt lat="43.13588" lon="1.30162">
        <ele>280.79998779297</ele>
        <time>2020-10-12T11:41:41.000Z</time>
      </trkpt>
      <trkpt lat="43.13581" lon="1.3013">
        <ele>280.79998779297</ele>
        <time>2020-10-12T11:41:47.000Z</time>
      </trkpt>
      <trkpt lat="43.1357" lon="1.30104">
        <ele>280.79998779297</ele>
        <time>2020-10-12T11:41:52.000Z</time>
      </trkpt>
      <trkpt lat="43.13561" lon="1.3008">
        <ele>280.79998779297</ele>
        <time>2020-10-12T11:41:57.000Z</time>
      </trkpt>
      <trkpt lat="43.13557" lon="1.3007">
        <ele>280.39999389648</ele>
        <time>2020-10-12T11:41:59.000Z</time>
      </trkpt>
      <trkpt lat="43.13554" lon="1.30064">
        <ele>280</ele>
        <time>2020-10-12T11:42:00.000Z</time>
      </trkpt>
      <trkpt lat="43.13552" lon="1.30058">
        <ele>279.60000610352</ele>
        <time>2020-10-12T11:42:01.000Z</time>
      </trkpt>
      <trkpt lat="43.13549" lon="1.30053">
        <ele>279.20001220703</ele>
        <time>2020-10-12T11:42:02.000Z</time>
      </trkpt>
      <trkpt lat="43.13547" lon="1.30049">
        <ele>278.79998779297</ele>
        <time>2020-10-12T11:42:03.000Z</time>
      </trkpt>
      <trkpt lat="43.1354" lon="1.3003">
        <ele>278.79998779297</ele>
        <time>2020-10-12T11:42:07.000Z</time>
      </trkpt>
      <trkpt lat="43.1353" lon="1.30016">
        <ele>278.79998779297</ele>
        <time>2020-10-12T11:42:11.000Z</time>
      </trkpt>
      <trkpt lat="43.13525" lon="1.30011">
        <ele>279.20001220703</ele>
        <time>2020-10-12T11:42:14.000Z</time>
      </trkpt>
      <trkpt lat="43.13524" lon="1.30009">
        <ele>279.79998779297</ele>
        <time>2020-10-12T11:42:15.000Z</time>
      </trkpt>
      <trkpt lat="43.13523" lon="1.30007">
        <ele>280.39999389648</ele>
        <time>2020-10-12T11:42:16.000Z</time>
      </trkpt>
      <trkpt lat="43.13522" lon="1.30005">
        <ele>280.79998779297</ele>
        <time>2020-10-12T11:42:17.000Z</time>
      </trkpt>
      <trkpt lat="43.13521" lon="1.30003">
        <ele>281.39999389648</ele>
        <time>2020-10-12T11:42:18.000Z</time>
      </trkpt>
      <trkpt lat="43.13521" lon="1.30001">
        <ele>282</ele>
        <time>2020-10-12T11:42:19.000Z</time>
      </trkpt>
      <trkpt lat="43.1352" lon="1.29998">
        <ele>282.39999389648</ele>
        <time>2020-10-12T11:42:20.000Z</time>
      </trkpt>
      <trkpt lat="43.1352" lon="1.29996">
        <ele>283</ele>
        <time>2020-10-12T11:42:21.000Z</time>
      </trkpt>
      <trkpt lat="43.1352" lon="1.29993">
        <ele>283.39999389648</ele>
        <time>2020-10-12T11:42:22.000Z</time>
      </trkpt>
      <trkpt lat="43.13519" lon="1.2999">
        <ele>284</ele>
        <time>2020-10-12T11:42:23.000Z</time>
      </trkpt>
      <trkpt lat="43.13518" lon="1.29987">
        <ele>284.39999389648</ele>
        <time>2020-10-12T11:42:24.000Z</time>
      </trkpt>
      <trkpt lat="43.13516" lon="1.29985">
        <ele>285</ele>
        <time>2020-10-12T11:42:25.000Z</time>
      </trkpt>
      <trkpt lat="43.13515" lon="1.29983">
        <ele>285.39999389648</ele>
        <time>2020-10-12T11:42:26.000Z</time>
      </trkpt>
      <trkpt lat="43.13514" lon="1.29982">
        <ele>286</ele>
        <time>2020-10-12T11:42:27.000Z</time>
      </trkpt>
      <trkpt lat="43.13512" lon="1.2998">
        <ele>286.39999389648</ele>
        <time>2020-10-12T11:42:28.000Z</time>
      </trkpt>
      <trkpt lat="43.13511" lon="1.29978">
        <ele>286.79998779297</ele>
        <time>2020-10-12T11:42:29.000Z</time>
      </trkpt>
      <trkpt lat="43.1351" lon="1.29977">
        <ele>287.20001220703</ele>
        <time>2020-10-12T11:42:30.000Z</time>
      </trkpt>
      <trkpt lat="43.1351" lon="1.29975">
        <ele>288</ele>
        <time>2020-10-12T11:42:31.000Z</time>
      </trkpt>
      <trkpt lat="43.1351" lon="1.29974">
        <ele>288.39999389648</ele>
        <time>2020-10-12T11:42:32.000Z</time>
      </trkpt>
      <trkpt lat="43.1351" lon="1.29974">
        <ele>289</ele>
        <time>2020-10-12T11:42:33.000Z</time>
      </trkpt>
      <trkpt lat="43.1351" lon="1.29973">
        <ele>289.79998779297</ele>
        <time>2020-10-12T11:42:45.000Z</time>
      </trkpt>
      <trkpt lat="43.1351" lon="1.29965">
        <ele>290.20001220703</ele>
        <time>2020-10-12T11:42:49.000Z</time>
      </trkpt>
      <trkpt lat="43.13509" lon="1.29964">
        <ele>290.60000610352</ele>
        <time>2020-10-12T11:42:50.000Z</time>
      </trkpt>
      <trkpt lat="43.13508" lon="1.29961">
        <ele>291</ele>
        <time>2020-10-12T11:42:51.000Z</time>
      </trkpt>
      <trkpt lat="43.13507" lon="1.29959">
        <ele>291.39999389648</ele>
        <time>2020-10-12T11:42:52.000Z</time>
      </trkpt>
      <trkpt lat="43.13506" lon="1.29958">
        <ele>291.79998779297</ele>
        <time>2020-10-12T11:42:53.000Z</time>
      </trkpt>
      <trkpt lat="43.13502" lon="1.29951">
        <ele>292.79998779297</ele>
        <time>2020-10-12T11:42:56.000Z</time>
      </trkpt>
      <trkpt lat="43.13502" lon="1.29949">
        <ele>293.20001220703</ele>
        <time>2020-10-12T11:42:57.000Z</time>
      </trkpt>
      <trkpt lat="43.135" lon="1.29947">
        <ele>293.60000610352</ele>
        <time>2020-10-12T11:42:58.000Z</time>
      </trkpt>
      <trkpt lat="43.13498" lon="1.29946">
        <ele>294</ele>
        <time>2020-10-12T11:42:59.000Z</time>
      </trkpt>
      <trkpt lat="43.13496" lon="1.29942">
        <ele>294</ele>
        <time>2020-10-12T11:43:01.000Z</time>
      </trkpt>
      <trkpt lat="43.13496" lon="1.29937">
        <ele>294</ele>
        <time>2020-10-12T11:43:03.000Z</time>
      </trkpt>
      <trkpt lat="43.13494" lon="1.29932">
        <ele>294.39999389648</ele>
        <time>2020-10-12T11:43:05.000Z</time>
      </trkpt>
      <trkpt lat="43.13493" lon="1.29929">
        <ele>294.79998779297</ele>
        <time>2020-10-12T11:43:06.000Z</time>
      </trkpt>
      <trkpt lat="43.13491" lon="1.29927">
        <ele>295.20001220703</ele>
        <time>2020-10-12T11:43:07.000Z</time>
      </trkpt>
      <trkpt lat="43.1349" lon="1.29924">
        <ele>295.60000610352</ele>
        <time>2020-10-12T11:43:08.000Z</time>
      </trkpt>
      <trkpt lat="43.13489" lon="1.29922">
        <ele>296</ele>
        <time>2020-10-12T11:43:09.000Z</time>
      </trkpt>
      <trkpt lat="43.13483" lon="1.29911">
        <ele>296.39999389648</ele>
        <time>2020-10-12T11:43:14.000Z</time>
      </trkpt>
      <trkpt lat="43.13482" lon="1.29909">
        <ele>296.79998779297</ele>
        <time>2020-10-12T11:43:15.000Z</time>
      </trkpt>
      <trkpt lat="43.13481" lon="1.29907">
        <ele>297.39999389648</ele>
        <time>2020-10-12T11:43:16.000Z</time>
      </trkpt>
      <trkpt lat="43.1348" lon="1.29905">
        <ele>297.79998779297</ele>
        <time>2020-10-12T11:43:17.000Z</time>
      </trkpt>
      <trkpt lat="43.13479" lon="1.29903">
        <ele>298.20001220703</ele>
        <time>2020-10-12T11:43:18.000Z</time>
      </trkpt>
      <trkpt lat="43.13476" lon="1.29899">
        <ele>298.20001220703</ele>
        <time>2020-10-12T11:43:20.000Z</time>
      </trkpt>
      <trkpt lat="43.13473" lon="1.29894">
        <ele>298.60000610352</ele>
        <time>2020-10-12T11:43:23.000Z</time>
      </trkpt>
      <trkpt lat="43.13471" lon="1.29893">
        <ele>299.20001220703</ele>
        <time>2020-10-12T11:43:24.000Z</time>
      </trkpt>
      <trkpt lat="43.1347" lon="1.29891">
        <ele>299.60000610352</ele>
        <time>2020-10-12T11:43:25.000Z</time>
      </trkpt>
      <trkpt lat="43.13469" lon="1.29889">
        <ele>300</ele>
        <time>2020-10-12T11:43:26.000Z</time>
      </trkpt>
      <trkpt lat="43.13468" lon="1.29888">
        <ele>300.60000610352</ele>
        <time>2020-10-12T11:43:27.000Z</time>
      </trkpt>
      <trkpt lat="43.13461" lon="1.29881">
        <ele>301</ele>
        <time>2020-10-12T11:43:32.000Z</time>
      </trkpt>
      <trkpt lat="43.13459" lon="1.2988">
        <ele>301.39999389648</ele>
        <time>2020-10-12T11:43:33.000Z</time>
      </trkpt>
      <trkpt lat="43.13458" lon="1.29879">
        <ele>301.79998779297</ele>
        <time>2020-10-12T11:43:34.000Z</time>
      </trkpt>
      <trkpt lat="43.13456" lon="1.29878">
        <ele>302.20001220703</ele>
        <time>2020-10-12T11:43:35.000Z</time>
      </trkpt>
      <trkpt lat="43.13454" lon="1.29877">
        <ele>302.60000610352</ele>
        <time>2020-10-12T11:43:36.000Z</time>
      </trkpt>
      <trkpt lat="43.13451" lon="1.29876">
        <ele>302.60000610352</ele>
        <time>2020-10-12T11:43:38.000Z</time>
      </trkpt>
      <trkpt lat="43.13448" lon="1.29873">
        <ele>303</ele>
        <time>2020-10-12T11:43:41.000Z</time>
      </trkpt>
      <trkpt lat="43.13446" lon="1.29871">
        <ele>303.39999389648</ele>
        <time>2020-10-12T11:43:42.000Z</time>
      </trkpt>
      <trkpt lat="43.13444" lon="1.2987">
        <ele>303.79998779297</ele>
        <time>2020-10-12T11:43:43.000Z</time>
      </trkpt>
      <trkpt lat="43.13442" lon="1.29869">
        <ele>304.20001220703</ele>
        <time>2020-10-12T11:43:44.000Z</time>
      </trkpt>
      <trkpt lat="43.13441" lon="1.29868">
        <ele>304.60000610352</ele>
        <time>2020-10-12T11:43:45.000Z</time>
      </trkpt>
      <trkpt lat="43.13438" lon="1.29866">
        <ele>305</ele>
        <time>2020-10-12T11:43:47.000Z</time>
      </trkpt>
      <trkpt lat="43.13436" lon="1.29865">
        <ele>305.60000610352</ele>
        <time>2020-10-12T11:43:48.000Z</time>
      </trkpt>
      <trkpt lat="43.13435" lon="1.29864">
        <ele>306</ele>
        <time>2020-10-12T11:43:49.000Z</time>
      </trkpt>
      <trkpt lat="43.13433" lon="1.29864">
        <ele>306.39999389648</ele>
        <time>2020-10-12T11:43:50.000Z</time>
      </trkpt>
      <trkpt lat="43.13431" lon="1.29863">
        <ele>306.79998779297</ele>
        <time>2020-10-12T11:43:51.000Z</time>
      </trkpt>
      <trkpt lat="43.13425" lon="1.29859">
        <ele>306.79998779297</ele>
        <time>2020-10-12T11:43:55.000Z</time>
      </trkpt>
      <trkpt lat="43.13419" lon="1.29857">
        <ele>307.20001220703</ele>
        <time>2020-10-12T11:43:58.000Z</time>
      </trkpt>
      <trkpt lat="43.13418" lon="1.29856">
        <ele>307.60000610352</ele>
        <time>2020-10-12T11:43:59.000Z</time>
      </trkpt>
      <trkpt lat="43.13417" lon="1.29855">
        <ele>308</ele>
        <time>2020-10-12T11:44:00.000Z</time>
      </trkpt>
      <trkpt lat="43.13415" lon="1.29854">
        <ele>308.60000610352</ele>
        <time>2020-10-12T11:44:01.000Z</time>
      </trkpt>
      <trkpt lat="43.13414" lon="1.29852">
        <ele>309</ele>
        <time>2020-10-12T11:44:02.000Z</time>
      </trkpt>
      <trkpt lat="43.13409" lon="1.29845">
        <ele>309</ele>
        <time>2020-10-12T11:44:07.000Z</time>
      </trkpt>
      <trkpt lat="43.13408" lon="1.29845">
        <ele>309</ele>
        <time>2020-10-12T11:44:09.000Z</time>
      </trkpt>
      <trkpt lat="43.13407" lon="1.29843">
        <ele>309</ele>
        <time>2020-10-12T11:45:10.000Z</time>
      </trkpt>
      <trkpt lat="43.13407" lon="1.29843">
        <ele>309</ele>
        <time>2020-10-12T11:45:11.000Z</time>
      </trkpt>
      <trkpt lat="43.13407" lon="1.29843">
        <ele>309</ele>
        <time>2020-10-12T11:45:20.000Z</time>
      </trkpt>
      <trkpt lat="43.13403" lon="1.29839">
        <ele>309</ele>
        <time>2020-10-12T11:45:22.000Z</time>
      </trkpt>
      <trkpt lat="43.13398" lon="1.29836">
        <ele>309</ele>
        <time>2020-10-12T11:45:24.000Z</time>
      </trkpt>
      <trkpt lat="43.13392" lon="1.2983">
        <ele>309.39999389648</ele>
        <time>2020-10-12T11:45:27.000Z</time>
      </trkpt>
      <trkpt lat="43.1339" lon="1.29828">
        <ele>309.79998779297</ele>
        <time>2020-10-12T11:45:28.000Z</time>
      </trkpt>
      <trkpt lat="43.13387" lon="1.29827">
        <ele>310.20001220703</ele>
        <time>2020-10-12T11:45:29.000Z</time>
      </trkpt>
      <trkpt lat="43.13386" lon="1.29826">
        <ele>310.79998779297</ele>
        <time>2020-10-12T11:45:30.000Z</time>
      </trkpt>
      <trkpt lat="43.13384" lon="1.29824">
        <ele>311.20001220703</ele>
        <time>2020-10-12T11:45:31.000Z</time>
      </trkpt>
      <trkpt lat="43.13378" lon="1.2982">
        <ele>311.20001220703</ele>
        <time>2020-10-12T11:45:34.000Z</time>
      </trkpt>
      <trkpt lat="43.13367" lon="1.29809">
        <ele>311.20001220703</ele>
        <time>2020-10-12T11:45:40.000Z</time>
      </trkpt>
      <trkpt lat="43.13354" lon="1.29793">
        <ele>311.20001220703</ele>
        <time>2020-10-12T11:45:47.000Z</time>
      </trkpt>
      <trkpt lat="43.13337" lon="1.29778">
        <ele>311.20001220703</ele>
        <time>2020-10-12T11:45:53.000Z</time>
      </trkpt>
      <trkpt lat="43.1333" lon="1.29769">
        <ele>311.20001220703</ele>
        <time>2020-10-12T11:45:57.000Z</time>
      </trkpt>
      <trkpt lat="43.13326" lon="1.29766">
        <ele>311.20001220703</ele>
        <time>2020-10-12T11:46:01.000Z</time>
      </trkpt>
      <trkpt lat="43.13326" lon="1.29765">
        <ele>311.20001220703</ele>
        <time>2020-10-12T11:46:03.000Z</time>
      </trkpt>
      <trkpt lat="43.13326" lon="1.29765">
        <ele>311.20001220703</ele>
        <time>2020-10-12T11:46:04.000Z</time>
      </trkpt>
      <trkpt lat="43.13324" lon="1.29763">
        <ele>311.20001220703</ele>
        <time>2020-10-12T11:46:09.000Z</time>
      </trkpt>
      <trkpt lat="43.1332" lon="1.29759">
        <ele>311.20001220703</ele>
        <time>2020-10-12T11:46:11.000Z</time>
      </trkpt>
      <trkpt lat="43.13309" lon="1.29743">
        <ele>310.79998779297</ele>
        <time>2020-10-12T11:46:15.000Z</time>
      </trkpt>
      <trkpt lat="43.13306" lon="1.29739">
        <ele>310.20001220703</ele>
        <time>2020-10-12T11:46:16.000Z</time>
      </trkpt>
      <trkpt lat="43.13303" lon="1.29737">
        <ele>309.79998779297</ele>
        <time>2020-10-12T11:46:17.000Z</time>
      </trkpt>
      <trkpt lat="43.133" lon="1.29734">
        <ele>309.39999389648</ele>
        <time>2020-10-12T11:46:18.000Z</time>
      </trkpt>
      <trkpt lat="43.13297" lon="1.2973">
        <ele>308.79998779297</ele>
        <time>2020-10-12T11:46:19.000Z</time>
      </trkpt>
      <trkpt lat="43.13294" lon="1.29727">
        <ele>308.79998779297</ele>
        <time>2020-10-12T11:46:20.000Z</time>
      </trkpt>
      <trkpt lat="43.13288" lon="1.29718">
        <ele>309.39999389648</ele>
        <time>2020-10-12T11:46:22.000Z</time>
      </trkpt>
      <trkpt lat="43.13286" lon="1.29715">
        <ele>309.79998779297</ele>
        <time>2020-10-12T11:46:23.000Z</time>
      </trkpt>
      <trkpt lat="43.13284" lon="1.29712">
        <ele>310.20001220703</ele>
        <time>2020-10-12T11:46:24.000Z</time>
      </trkpt>
      <trkpt lat="43.13282" lon="1.2971">
        <ele>310.60000610352</ele>
        <time>2020-10-12T11:46:25.000Z</time>
      </trkpt>
      <trkpt lat="43.13281" lon="1.29708">
        <ele>311.20001220703</ele>
        <time>2020-10-12T11:46:26.000Z</time>
      </trkpt>
      <trkpt lat="43.13273" lon="1.29694">
        <ele>311.20001220703</ele>
        <time>2020-10-12T11:46:30.000Z</time>
      </trkpt>
      <trkpt lat="43.13262" lon="1.29677">
        <ele>311.20001220703</ele>
        <time>2020-10-12T11:46:36.000Z</time>
      </trkpt>
      <trkpt lat="43.13254" lon="1.29666">
        <ele>311.60000610352</ele>
        <time>2020-10-12T11:46:40.000Z</time>
      </trkpt>
      <trkpt lat="43.13252" lon="1.29663">
        <ele>312</ele>
        <time>2020-10-12T11:46:41.000Z</time>
      </trkpt>
      <trkpt lat="43.13251" lon="1.2966">
        <ele>312.39999389648</ele>
        <time>2020-10-12T11:46:42.000Z</time>
      </trkpt>
      <trkpt lat="43.13249" lon="1.29657">
        <ele>312.79998779297</ele>
        <time>2020-10-12T11:46:43.000Z</time>
      </trkpt>
      <trkpt lat="43.13247" lon="1.29653">
        <ele>313.20001220703</ele>
        <time>2020-10-12T11:46:44.000Z</time>
      </trkpt>
      <trkpt lat="43.13241" lon="1.29644">
        <ele>313.20001220703</ele>
        <time>2020-10-12T11:46:47.000Z</time>
      </trkpt>
      <trkpt lat="43.13227" lon="1.29621">
        <ele>313.20001220703</ele>
        <time>2020-10-12T11:46:55.000Z</time>
      </trkpt>
      <trkpt lat="43.13225" lon="1.29615">
        <ele>313.60000610352</ele>
        <time>2020-10-12T11:46:57.000Z</time>
      </trkpt>
      <trkpt lat="43.13223" lon="1.29613">
        <ele>314</ele>
        <time>2020-10-12T11:46:58.000Z</time>
      </trkpt>
      <trkpt lat="43.13221" lon="1.29609">
        <ele>314.39999389648</ele>
        <time>2020-10-12T11:46:59.000Z</time>
      </trkpt>
      <trkpt lat="43.1322" lon="1.29607">
        <ele>314.79998779297</ele>
        <time>2020-10-12T11:47:00.000Z</time>
      </trkpt>
      <trkpt lat="43.13218" lon="1.29604">
        <ele>315.20001220703</ele>
        <time>2020-10-12T11:47:01.000Z</time>
      </trkpt>
      <trkpt lat="43.13215" lon="1.29598">
        <ele>315.20001220703</ele>
        <time>2020-10-12T11:47:03.000Z</time>
      </trkpt>
      <trkpt lat="43.13209" lon="1.29578">
        <ele>315.20001220703</ele>
        <time>2020-10-12T11:47:09.000Z</time>
      </trkpt>
      <trkpt lat="43.13203" lon="1.29556">
        <ele>315.20001220703</ele>
        <time>2020-10-12T11:47:15.000Z</time>
      </trkpt>
      <trkpt lat="43.132" lon="1.29539">
        <ele>315.60000610352</ele>
        <time>2020-10-12T11:47:20.000Z</time>
      </trkpt>
      <trkpt lat="43.13199" lon="1.29536">
        <ele>316</ele>
        <time>2020-10-12T11:47:21.000Z</time>
      </trkpt>
      <trkpt lat="43.13199" lon="1.29532">
        <ele>316.60000610352</ele>
        <time>2020-10-12T11:47:22.000Z</time>
      </trkpt>
      <trkpt lat="43.13198" lon="1.29529">
        <ele>317</ele>
        <time>2020-10-12T11:47:23.000Z</time>
      </trkpt>
      <trkpt lat="43.13197" lon="1.29525">
        <ele>317.39999389648</ele>
        <time>2020-10-12T11:47:24.000Z</time>
      </trkpt>
      <trkpt lat="43.1319" lon="1.2951">
        <ele>317.39999389648</ele>
        <time>2020-10-12T11:47:29.000Z</time>
      </trkpt>
      <trkpt lat="43.13181" lon="1.29493">
        <ele>317.79998779297</ele>
        <time>2020-10-12T11:47:35.000Z</time>
      </trkpt>
      <trkpt lat="43.13179" lon="1.29491">
        <ele>318.20001220703</ele>
        <time>2020-10-12T11:47:36.000Z</time>
      </trkpt>
      <trkpt lat="43.13177" lon="1.29489">
        <ele>318.60000610352</ele>
        <time>2020-10-12T11:47:37.000Z</time>
      </trkpt>
      <trkpt lat="43.13175" lon="1.29487">
        <ele>319.20001220703</ele>
        <time>2020-10-12T11:47:38.000Z</time>
      </trkpt>
      <trkpt lat="43.13173" lon="1.29484">
        <ele>319.60000610352</ele>
        <time>2020-10-12T11:47:39.000Z</time>
      </trkpt>
      <trkpt lat="43.13165" lon="1.29476">
        <ele>319.60000610352</ele>
        <time>2020-10-12T11:47:43.000Z</time>
      </trkpt>
      <trkpt lat="43.13163" lon="1.29474">
        <ele>320</ele>
        <time>2020-10-12T11:47:44.000Z</time>
      </trkpt>
      <trkpt lat="43.1316" lon="1.29472">
        <ele>320.39999389648</ele>
        <time>2020-10-12T11:47:45.000Z</time>
      </trkpt>
      <trkpt lat="43.13158" lon="1.2947">
        <ele>320.79998779297</ele>
        <time>2020-10-12T11:47:46.000Z</time>
      </trkpt>
      <trkpt lat="43.13156" lon="1.29468">
        <ele>321.20001220703</ele>
        <time>2020-10-12T11:47:47.000Z</time>
      </trkpt>
      <trkpt lat="43.13153" lon="1.29467">
        <ele>321.60000610352</ele>
        <time>2020-10-12T11:47:48.000Z</time>
      </trkpt>
      <trkpt lat="43.13148" lon="1.29464">
        <ele>321.60000610352</ele>
        <time>2020-10-12T11:47:50.000Z</time>
      </trkpt>
      <trkpt lat="43.13136" lon="1.29456">
        <ele>322</ele>
        <time>2020-10-12T11:47:55.000Z</time>
      </trkpt>
      <trkpt lat="43.13134" lon="1.29455">
        <ele>322.60000610352</ele>
        <time>2020-10-12T11:47:56.000Z</time>
      </trkpt>
      <trkpt lat="43.13131" lon="1.29454">
        <ele>323</ele>
        <time>2020-10-12T11:47:57.000Z</time>
      </trkpt>
      <trkpt lat="43.13129" lon="1.29453">
        <ele>323.39999389648</ele>
        <time>2020-10-12T11:47:58.000Z</time>
      </trkpt>
      <trkpt lat="43.13126" lon="1.29453">
        <ele>323.79998779297</ele>
        <time>2020-10-12T11:47:59.000Z</time>
      </trkpt>
      <trkpt lat="43.13117" lon="1.2945">
        <ele>324.20001220703</ele>
        <time>2020-10-12T11:48:03.000Z</time>
      </trkpt>
      <trkpt lat="43.13116" lon="1.29451">
        <ele>324.79998779297</ele>
        <time>2020-10-12T11:48:04.000Z</time>
      </trkpt>
      <trkpt lat="43.13114" lon="1.29451">
        <ele>325.20001220703</ele>
        <time>2020-10-12T11:48:05.000Z</time>
      </trkpt>
      <trkpt lat="43.13114" lon="1.29451">
        <ele>325.60000610352</ele>
        <time>2020-10-12T11:48:06.000Z</time>
      </trkpt>
      <trkpt lat="43.13114" lon="1.29451">
        <ele>326</ele>
        <time>2020-10-12T11:48:07.000Z</time>
      </trkpt>
      <trkpt lat="43.13114" lon="1.2945">
        <ele>326</ele>
        <time>2020-10-12T11:48:16.000Z</time>
      </trkpt>
      <trkpt lat="43.13115" lon="1.29449">
        <ele>326</ele>
        <time>2020-10-12T11:48:17.000Z</time>
      </trkpt>
      <trkpt lat="43.13115" lon="1.29449">
        <ele>326</ele>
        <time>2020-10-12T11:48:18.000Z</time>
      </trkpt>
      <trkpt lat="43.13115" lon="1.29448">
        <ele>326</ele>
        <time>2020-10-12T11:48:44.000Z</time>
      </trkpt>
      <trkpt lat="43.13116" lon="1.29446">
        <ele>326</ele>
        <time>2020-10-12T11:48:46.000Z</time>
      </trkpt>
      <trkpt lat="43.13116" lon="1.29445">
        <ele>326</ele>
        <time>2020-10-12T11:48:47.000Z</time>
      </trkpt>
      <trkpt lat="43.13117" lon="1.29443">
        <ele>326</ele>
        <time>2020-10-12T11:48:51.000Z</time>
      </trkpt>
      <trkpt lat="43.13117" lon="1.29441">
        <ele>326</ele>
        <time>2020-10-12T11:48:52.000Z</time>
      </trkpt>
      <trkpt lat="43.13118" lon="1.2944">
        <ele>326</ele>
        <time>2020-10-12T11:48:53.000Z</time>
      </trkpt>
      <trkpt lat="43.13119" lon="1.29432">
        <ele>326</ele>
        <time>2020-10-12T11:49:00.000Z</time>
      </trkpt>
      <trkpt lat="43.13119" lon="1.29428">
        <ele>326</ele>
        <time>2020-10-12T11:49:04.000Z</time>
      </trkpt>
      <trkpt lat="43.13118" lon="1.29426">
        <ele>326</ele>
        <time>2020-10-12T11:49:05.000Z</time>
      </trkpt>
      <trkpt lat="43.13118" lon="1.29425">
        <ele>326</ele>
        <time>2020-10-12T11:49:07.000Z</time>
      </trkpt>
      <trkpt lat="43.13118" lon="1.29425">
        <ele>326</ele>
        <time>2020-10-12T11:49:08.000Z</time>
      </trkpt>
      <trkpt lat="43.13121" lon="1.2942">
        <ele>326</ele>
        <time>2020-10-12T11:49:13.000Z</time>
      </trkpt>
      <trkpt lat="43.13122" lon="1.29415">
        <ele>326</ele>
        <time>2020-10-12T11:49:17.000Z</time>
      </trkpt>
      <trkpt lat="43.13122" lon="1.29414">
        <ele>326</ele>
        <time>2020-10-12T11:49:19.000Z</time>
      </trkpt>
      <trkpt lat="43.13122" lon="1.29413">
        <ele>326</ele>
        <time>2020-10-12T11:49:22.000Z</time>
      </trkpt>
      <trkpt lat="43.13127" lon="1.29401">
        <ele>326</ele>
        <time>2020-10-12T11:49:27.000Z</time>
      </trkpt>
      <trkpt lat="43.13127" lon="1.29383">
        <ele>326</ele>
        <time>2020-10-12T11:49:33.000Z</time>
      </trkpt>
      <trkpt lat="43.13123" lon="1.29376">
        <ele>326</ele>
        <time>2020-10-12T11:49:36.000Z</time>
      </trkpt>
      <trkpt lat="43.13118" lon="1.29374">
        <ele>326</ele>
        <time>2020-10-12T11:49:39.000Z</time>
      </trkpt>
      <trkpt lat="43.13113" lon="1.29374">
        <ele>326</ele>
        <time>2020-10-12T11:49:42.000Z</time>
      </trkpt>
      <trkpt lat="43.1311" lon="1.29374">
        <ele>326.60000610352</ele>
        <time>2020-10-12T11:49:44.000Z</time>
      </trkpt>
      <trkpt lat="43.1311" lon="1.29373">
        <ele>327</ele>
        <time>2020-10-12T11:49:45.000Z</time>
      </trkpt>
      <trkpt lat="43.13108" lon="1.29373">
        <ele>327.39999389648</ele>
        <time>2020-10-12T11:49:46.000Z</time>
      </trkpt>
      <trkpt lat="43.13106" lon="1.29373">
        <ele>327.79998779297</ele>
        <time>2020-10-12T11:49:47.000Z</time>
      </trkpt>
      <trkpt lat="43.13105" lon="1.29372">
        <ele>328.20001220703</ele>
        <time>2020-10-12T11:49:48.000Z</time>
      </trkpt>
      <trkpt lat="43.13098" lon="1.29369">
        <ele>328.60000610352</ele>
        <time>2020-10-12T11:49:53.000Z</time>
      </trkpt>
      <trkpt lat="43.13096" lon="1.29368">
        <ele>329.20001220703</ele>
        <time>2020-10-12T11:49:54.000Z</time>
      </trkpt>
      <trkpt lat="43.13095" lon="1.29366">
        <ele>329.60000610352</ele>
        <time>2020-10-12T11:49:55.000Z</time>
      </trkpt>
      <trkpt lat="43.13094" lon="1.29365">
        <ele>330.39999389648</ele>
        <time>2020-10-12T11:49:56.000Z</time>
      </trkpt>
      <trkpt lat="43.13088" lon="1.29361">
        <ele>330.39999389648</ele>
        <time>2020-10-12T11:50:00.000Z</time>
      </trkpt>
      <trkpt lat="43.13086" lon="1.29361">
        <ele>330.79998779297</ele>
        <time>2020-10-12T11:50:01.000Z</time>
      </trkpt>
      <trkpt lat="43.13085" lon="1.2936">
        <ele>331.20001220703</ele>
        <time>2020-10-12T11:50:02.000Z</time>
      </trkpt>
      <trkpt lat="43.13084" lon="1.29358">
        <ele>331.60000610352</ele>
        <time>2020-10-12T11:50:03.000Z</time>
      </trkpt>
      <trkpt lat="43.13083" lon="1.29358">
        <ele>332</ele>
        <time>2020-10-12T11:50:04.000Z</time>
      </trkpt>
      <trkpt lat="43.13081" lon="1.29357">
        <ele>332.39999389648</ele>
        <time>2020-10-12T11:50:05.000Z</time>
      </trkpt>
      <trkpt lat="43.13079" lon="1.29356">
        <ele>332.39999389648</ele>
        <time>2020-10-12T11:50:06.000Z</time>
      </trkpt>
      <trkpt lat="43.13073" lon="1.29353">
        <ele>333</ele>
        <time>2020-10-12T11:50:10.000Z</time>
      </trkpt>
      <trkpt lat="43.13073" lon="1.29351">
        <ele>333.39999389648</ele>
        <time>2020-10-12T11:50:11.000Z</time>
      </trkpt>
      <trkpt lat="43.13073" lon="1.29351">
        <ele>333.79998779297</ele>
        <time>2020-10-12T11:50:12.000Z</time>
      </trkpt>
      <trkpt lat="43.13072" lon="1.2935">
        <ele>334.20001220703</ele>
        <time>2020-10-12T11:50:13.000Z</time>
      </trkpt>
      <trkpt lat="43.13072" lon="1.2935">
        <ele>334.79998779297</ele>
        <time>2020-10-12T11:50:21.000Z</time>
      </trkpt>
      <trkpt lat="43.13072" lon="1.2935">
        <ele>334.79998779297</ele>
        <time>2020-10-12T11:50:22.000Z</time>
      </trkpt>
      <trkpt lat="43.13072" lon="1.29349">
        <ele>334.79998779297</ele>
        <time>2020-10-12T11:50:25.000Z</time>
      </trkpt>
      <trkpt lat="43.13071" lon="1.29348">
        <ele>334.79998779297</ele>
        <time>2020-10-12T11:50:26.000Z</time>
      </trkpt>
      <trkpt lat="43.1307" lon="1.29347">
        <ele>334.79998779297</ele>
        <time>2020-10-12T11:50:28.000Z</time>
      </trkpt>
      <trkpt lat="43.13071" lon="1.29347">
        <ele>334.79998779297</ele>
        <time>2020-10-12T11:50:44.000Z</time>
      </trkpt>
      <trkpt lat="43.1307" lon="1.29347">
        <ele>334.79998779297</ele>
        <time>2020-10-12T11:50:46.000Z</time>
      </trkpt>
      <trkpt lat="43.13069" lon="1.29346">
        <ele>334.79998779297</ele>
        <time>2020-10-12T11:50:47.000Z</time>
      </trkpt>
      <trkpt lat="43.13069" lon="1.29346">
        <ele>334.79998779297</ele>
        <time>2020-10-12T11:50:48.000Z</time>
      </trkpt>
      <trkpt lat="43.13068" lon="1.29346">
        <ele>335.20001220703</ele>
        <time>2020-10-12T11:50:50.000Z</time>
      </trkpt>
      <trkpt lat="43.13067" lon="1.29346">
        <ele>335.60000610352</ele>
        <time>2020-10-12T11:50:51.000Z</time>
      </trkpt>
      <trkpt lat="43.13067" lon="1.29345">
        <ele>336.79998779297</ele>
        <time>2020-10-12T11:51:03.000Z</time>
      </trkpt>
      <trkpt lat="43.13066" lon="1.29343">
        <ele>336.79998779297</ele>
        <time>2020-10-12T11:51:04.000Z</time>
      </trkpt>
      <trkpt lat="43.13059" lon="1.29337">
        <ele>336.79998779297</ele>
        <time>2020-10-12T11:51:08.000Z</time>
      </trkpt>
      <trkpt lat="43.13056" lon="1.29333">
        <ele>336.79998779297</ele>
        <time>2020-10-12T11:51:10.000Z</time>
      </trkpt>
      <trkpt lat="43.13056" lon="1.29331">
        <ele>336.79998779297</ele>
        <time>2020-10-12T11:51:11.000Z</time>
      </trkpt>
      <trkpt lat="43.13052" lon="1.2932">
        <ele>336.79998779297</ele>
        <time>2020-10-12T11:51:15.000Z</time>
      </trkpt>
      <trkpt lat="43.13048" lon="1.29315">
        <ele>337.20001220703</ele>
        <time>2020-10-12T11:51:17.000Z</time>
      </trkpt>
      <trkpt lat="43.13047" lon="1.29313">
        <ele>337.60000610352</ele>
        <time>2020-10-12T11:51:18.000Z</time>
      </trkpt>
      <trkpt lat="43.13046" lon="1.29311">
        <ele>338</ele>
        <time>2020-10-12T11:51:19.000Z</time>
      </trkpt>
      <trkpt lat="43.13045" lon="1.29308">
        <ele>338.39999389648</ele>
        <time>2020-10-12T11:51:20.000Z</time>
      </trkpt>
      <trkpt lat="43.13044" lon="1.29306">
        <ele>338.79998779297</ele>
        <time>2020-10-12T11:51:21.000Z</time>
      </trkpt>
      <trkpt lat="43.13031" lon="1.29289">
        <ele>338.79998779297</ele>
        <time>2020-10-12T11:51:27.000Z</time>
      </trkpt>
      <trkpt lat="43.13015" lon="1.29275">
        <ele>338.79998779297</ele>
        <time>2020-10-12T11:51:34.000Z</time>
      </trkpt>
      <trkpt lat="43.13003" lon="1.29264">
        <ele>338.79998779297</ele>
        <time>2020-10-12T11:51:40.000Z</time>
      </trkpt>
      <trkpt lat="43.13001" lon="1.29263">
        <ele>339.20001220703</ele>
        <time>2020-10-12T11:51:41.000Z</time>
      </trkpt>
      <trkpt lat="43.12999" lon="1.29262">
        <ele>339.60000610352</ele>
        <time>2020-10-12T11:51:42.000Z</time>
      </trkpt>
      <trkpt lat="43.12998" lon="1.29263">
        <ele>340</ele>
        <time>2020-10-12T11:51:43.000Z</time>
      </trkpt>
      <trkpt lat="43.12998" lon="1.29265">
        <ele>340.39999389648</ele>
        <time>2020-10-12T11:51:44.000Z</time>
      </trkpt>
      <trkpt lat="43.12997" lon="1.29266">
        <ele>340.79998779297</ele>
        <time>2020-10-12T11:51:45.000Z</time>
      </trkpt>
      <trkpt lat="43.12996" lon="1.29267">
        <ele>341.20001220703</ele>
        <time>2020-10-12T11:51:47.000Z</time>
      </trkpt>
      <trkpt lat="43.12996" lon="1.29269">
        <ele>341.60000610352</ele>
        <time>2020-10-12T11:51:48.000Z</time>
      </trkpt>
      <trkpt lat="43.12996" lon="1.29271">
        <ele>342</ele>
        <time>2020-10-12T11:51:49.000Z</time>
      </trkpt>
      <trkpt lat="43.12996" lon="1.29273">
        <ele>342.60000610352</ele>
        <time>2020-10-12T11:51:50.000Z</time>
      </trkpt>
      <trkpt lat="43.12996" lon="1.29276">
        <ele>343</ele>
        <time>2020-10-12T11:51:51.000Z</time>
      </trkpt>
      <trkpt lat="43.12995" lon="1.29284">
        <ele>343</ele>
        <time>2020-10-12T11:51:55.000Z</time>
      </trkpt>
      <trkpt lat="43.12995" lon="1.29288">
        <ele>343.39999389648</ele>
        <time>2020-10-12T11:51:57.000Z</time>
      </trkpt>
      <trkpt lat="43.12996" lon="1.2929">
        <ele>343.79998779297</ele>
        <time>2020-10-12T11:51:58.000Z</time>
      </trkpt>
      <trkpt lat="43.12996" lon="1.29292">
        <ele>344.60000610352</ele>
        <time>2020-10-12T11:51:59.000Z</time>
      </trkpt>
      <trkpt lat="43.12996" lon="1.29295">
        <ele>345</ele>
        <time>2020-10-12T11:52:00.000Z</time>
      </trkpt>
      <trkpt lat="43.12998" lon="1.29307">
        <ele>345</ele>
        <time>2020-10-12T11:52:06.000Z</time>
      </trkpt>
      <trkpt lat="43.12998" lon="1.29307">
        <ele>345</ele>
        <time>2020-10-12T11:52:07.000Z</time>
      </trkpt>
      <trkpt lat="43.12998" lon="1.29307">
        <ele>345</ele>
        <time>2020-10-12T11:52:14.000Z</time>
      </trkpt>
      <trkpt lat="43.12998" lon="1.29307">
        <ele>345</ele>
        <time>2020-10-12T11:52:15.000Z</time>
      </trkpt>
      <trkpt lat="43.12997" lon="1.29308">
        <ele>345</ele>
        <time>2020-10-12T11:52:23.000Z</time>
      </trkpt>
      <trkpt lat="43.12996" lon="1.29308">
        <ele>345</ele>
        <time>2020-10-12T11:52:25.000Z</time>
      </trkpt>
      <trkpt lat="43.12995" lon="1.29308">
        <ele>345</ele>
        <time>2020-10-12T11:52:29.000Z</time>
      </trkpt>
      <trkpt lat="43.12995" lon="1.29308">
        <ele>345</ele>
        <time>2020-10-12T11:52:31.000Z</time>
      </trkpt>
      <trkpt lat="43.12994" lon="1.29304">
        <ele>345</ele>
        <time>2020-10-12T11:52:55.000Z</time>
      </trkpt>
      <trkpt lat="43.12992" lon="1.29299">
        <ele>345</ele>
        <time>2020-10-12T11:52:58.000Z</time>
      </trkpt>
      <trkpt lat="43.1299" lon="1.29293">
        <ele>345</ele>
        <time>2020-10-12T11:53:03.000Z</time>
      </trkpt>
      <trkpt lat="43.1299" lon="1.2929">
        <ele>345</ele>
        <time>2020-10-12T11:53:05.000Z</time>
      </trkpt>
      <trkpt lat="43.12989" lon="1.29288">
        <ele>345</ele>
        <time>2020-10-12T11:53:07.000Z</time>
      </trkpt>
      <trkpt lat="43.12989" lon="1.29287">
        <ele>345</ele>
        <time>2020-10-12T11:53:08.000Z</time>
      </trkpt>
      <trkpt lat="43.12987" lon="1.29283">
        <ele>345</ele>
        <time>2020-10-12T11:53:11.000Z</time>
      </trkpt>
      <trkpt lat="43.12984" lon="1.29285">
        <ele>345</ele>
        <time>2020-10-12T11:53:15.000Z</time>
      </trkpt>
      <trkpt lat="43.1298" lon="1.29285">
        <ele>345</ele>
        <time>2020-10-12T11:53:21.000Z</time>
      </trkpt>
      <trkpt lat="43.1298" lon="1.29285">
        <ele>345</ele>
        <time>2020-10-12T11:53:22.000Z</time>
      </trkpt>
      <trkpt lat="43.12979" lon="1.29285">
        <ele>345</ele>
        <time>2020-10-12T11:53:27.000Z</time>
      </trkpt>
      <trkpt lat="43.12977" lon="1.29286">
        <ele>345</ele>
        <time>2020-10-12T11:53:28.000Z</time>
      </trkpt>
      <trkpt lat="43.12975" lon="1.29288">
        <ele>345</ele>
        <time>2020-10-12T11:53:29.000Z</time>
      </trkpt>
      <trkpt lat="43.12968" lon="1.29295">
        <ele>345</ele>
        <time>2020-10-12T11:53:32.000Z</time>
      </trkpt>
      <trkpt lat="43.12964" lon="1.29298">
        <ele>345</ele>
        <time>2020-10-12T11:53:34.000Z</time>
      </trkpt>
      <trkpt lat="43.12951" lon="1.29304">
        <ele>345</ele>
        <time>2020-10-12T11:53:40.000Z</time>
      </trkpt>
      <trkpt lat="43.12941" lon="1.293">
        <ele>345</ele>
        <time>2020-10-12T11:53:45.000Z</time>
      </trkpt>
      <trkpt lat="43.12941" lon="1.293">
        <ele>345.39999389648</ele>
        <time>2020-10-12T11:53:47.000Z</time>
      </trkpt>
      <trkpt lat="43.12941" lon="1.293">
        <ele>347</ele>
        <time>2020-10-12T11:53:54.000Z</time>
      </trkpt>
      <trkpt lat="43.1294" lon="1.29301">
        <ele>347</ele>
        <time>2020-10-12T11:53:55.000Z</time>
      </trkpt>
      <trkpt lat="43.12939" lon="1.29301">
        <ele>347</ele>
        <time>2020-10-12T11:53:56.000Z</time>
      </trkpt>
      <trkpt lat="43.12938" lon="1.293">
        <ele>347</ele>
        <time>2020-10-12T11:53:58.000Z</time>
      </trkpt>
      <trkpt lat="43.12938" lon="1.293">
        <ele>347</ele>
        <time>2020-10-12T11:54:22.000Z</time>
      </trkpt>
      <trkpt lat="43.12938" lon="1.293">
        <ele>347</ele>
        <time>2020-10-12T11:54:23.000Z</time>
      </trkpt>
      <trkpt lat="43.12937" lon="1.29299">
        <ele>347</ele>
        <time>2020-10-12T11:54:49.000Z</time>
      </trkpt>
      <trkpt lat="43.12936" lon="1.29297">
        <ele>347</ele>
        <time>2020-10-12T11:54:51.000Z</time>
      </trkpt>
      <trkpt lat="43.12934" lon="1.29295">
        <ele>347</ele>
        <time>2020-10-12T11:54:52.000Z</time>
      </trkpt>
      <trkpt lat="43.12929" lon="1.29289">
        <ele>347</ele>
        <time>2020-10-12T11:54:55.000Z</time>
      </trkpt>
      <trkpt lat="43.12924" lon="1.29285">
        <ele>347</ele>
        <time>2020-10-12T11:54:58.000Z</time>
      </trkpt>
      <trkpt lat="43.12925" lon="1.29281">
        <ele>347</ele>
        <time>2020-10-12T11:55:00.000Z</time>
      </trkpt>
      <trkpt lat="43.12928" lon="1.29272">
        <ele>347</ele>
        <time>2020-10-12T11:55:03.000Z</time>
      </trkpt>
      <trkpt lat="43.1293" lon="1.29255">
        <ele>347</ele>
        <time>2020-10-12T11:55:07.000Z</time>
      </trkpt>
      <trkpt lat="43.12926" lon="1.29248">
        <ele>347</ele>
        <time>2020-10-12T11:55:09.000Z</time>
      </trkpt>
      <trkpt lat="43.12921" lon="1.29235">
        <ele>347</ele>
        <time>2020-10-12T11:55:13.000Z</time>
      </trkpt>
      <trkpt lat="43.12916" lon="1.29223">
        <ele>347.60000610352</ele>
        <time>2020-10-12T11:55:17.000Z</time>
      </trkpt>
      <trkpt lat="43.12915" lon="1.2922">
        <ele>348.39999389648</ele>
        <time>2020-10-12T11:55:18.000Z</time>
      </trkpt>
      <trkpt lat="43.12914" lon="1.29217">
        <ele>348.79998779297</ele>
        <time>2020-10-12T11:55:19.000Z</time>
      </trkpt>
      <trkpt lat="43.12913" lon="1.29215">
        <ele>349.20001220703</ele>
        <time>2020-10-12T11:55:20.000Z</time>
      </trkpt>
      <trkpt lat="43.12911" lon="1.29209">
        <ele>349.79998779297</ele>
        <time>2020-10-12T11:55:22.000Z</time>
      </trkpt>
      <trkpt lat="43.1291" lon="1.29205">
        <ele>350.20001220703</ele>
        <time>2020-10-12T11:55:23.000Z</time>
      </trkpt>
      <trkpt lat="43.12909" lon="1.29202">
        <ele>350.79998779297</ele>
        <time>2020-10-12T11:55:24.000Z</time>
      </trkpt>
      <trkpt lat="43.12908" lon="1.29199">
        <ele>351.20001220703</ele>
        <time>2020-10-12T11:55:25.000Z</time>
      </trkpt>
      <trkpt lat="43.12906" lon="1.29196">
        <ele>351.60000610352</ele>
        <time>2020-10-12T11:55:26.000Z</time>
      </trkpt>
      <trkpt lat="43.12903" lon="1.29186">
        <ele>352.20001220703</ele>
        <time>2020-10-12T11:55:29.000Z</time>
      </trkpt>
      <trkpt lat="43.12902" lon="1.29182">
        <ele>352.60000610352</ele>
        <time>2020-10-12T11:55:30.000Z</time>
      </trkpt>
      <trkpt lat="43.12901" lon="1.29178">
        <ele>353</ele>
        <time>2020-10-12T11:55:31.000Z</time>
      </trkpt>
      <trkpt lat="43.12899" lon="1.29175">
        <ele>353.60000610352</ele>
        <time>2020-10-12T11:55:32.000Z</time>
      </trkpt>
      <trkpt lat="43.12897" lon="1.29172">
        <ele>354</ele>
        <time>2020-10-12T11:55:33.000Z</time>
      </trkpt>
      <trkpt lat="43.12894" lon="1.29165">
        <ele>354.39999389648</ele>
        <time>2020-10-12T11:55:35.000Z</time>
      </trkpt>
      <trkpt lat="43.12892" lon="1.29163">
        <ele>355</ele>
        <time>2020-10-12T11:55:36.000Z</time>
      </trkpt>
      <trkpt lat="43.1289" lon="1.29162">
        <ele>355.39999389648</ele>
        <time>2020-10-12T11:55:37.000Z</time>
      </trkpt>
      <trkpt lat="43.12888" lon="1.2916">
        <ele>355.79998779297</ele>
        <time>2020-10-12T11:55:38.000Z</time>
      </trkpt>
      <trkpt lat="43.12886" lon="1.29159">
        <ele>356.20001220703</ele>
        <time>2020-10-12T11:55:39.000Z</time>
      </trkpt>
      <trkpt lat="43.1288" lon="1.29157">
        <ele>356.20001220703</ele>
        <time>2020-10-12T11:55:41.000Z</time>
      </trkpt>
      <trkpt lat="43.12864" lon="1.29149">
        <ele>356.20001220703</ele>
        <time>2020-10-12T11:55:47.000Z</time>
      </trkpt>
      <trkpt lat="43.1286" lon="1.29153">
        <ele>318.20001220703</ele>
        <time>2019-07-14T08:01:43.000Z</time>
      </trkpt>
      <trkpt lat="43.12859" lon="1.29151">
        <ele>318.20001220703</ele>
        <time>2019-07-14T08:01:44.000Z</time>
      </trkpt>
      <trkpt lat="43.12855" lon="1.29145">
        <ele>318.20001220703</ele>
        <time>2019-07-14T08:01:47.000Z</time>
      </trkpt>
      <trkpt lat="43.12854" lon="1.29144">
        <ele>318.20001220703</ele>
        <time>2019-07-14T08:01:48.000Z</time>
      </trkpt>
      <trkpt lat="43.12852" lon="1.29138">
        <ele>318.20001220703</ele>
        <time>2019-07-14T08:01:51.000Z</time>
      </trkpt>
      <trkpt lat="43.12852" lon="1.29137">
        <ele>318.20001220703</ele>
        <time>2019-07-14T08:01:52.000Z</time>
      </trkpt>
      <trkpt lat="43.12852" lon="1.29137">
        <ele>318.20001220703</ele>
        <time>2019-07-14T08:01:55.000Z</time>
      </trkpt>
      <trkpt lat="43.12853" lon="1.29133">
        <ele>318.20001220703</ele>
        <time>2019-07-14T08:01:56.000Z</time>
      </trkpt>
      <trkpt lat="43.12859" lon="1.29106">
        <ele>318.20001220703</ele>
        <time>2019-07-14T08:02:00.000Z</time>
      </trkpt>
      <trkpt lat="43.12861" lon="1.29098">
        <ele>317.79998779297</ele>
        <time>2019-07-14T08:02:01.000Z</time>
      </trkpt>
      <trkpt lat="43.12863" lon="1.2909">
        <ele>317.39999389648</ele>
        <time>2019-07-14T08:02:02.000Z</time>
      </trkpt>
      <trkpt lat="43.12865" lon="1.29081">
        <ele>317</ele>
        <time>2019-07-14T08:02:03.000Z</time>
      </trkpt>
      <trkpt lat="43.12866" lon="1.29073">
        <ele>316.60000610352</ele>
        <time>2019-07-14T08:02:04.000Z</time>
      </trkpt>
      <trkpt lat="43.12868" lon="1.29064">
        <ele>316.20001220703</ele>
        <time>2019-07-14T08:02:05.000Z</time>
      </trkpt>
      <trkpt lat="43.12871" lon="1.29046">
        <ele>315.60000610352</ele>
        <time>2019-07-14T08:02:07.000Z</time>
      </trkpt>
      <trkpt lat="43.12873" lon="1.29038">
        <ele>315.20001220703</ele>
        <time>2019-07-14T08:02:08.000Z</time>
      </trkpt>
      <trkpt lat="43.12875" lon="1.2903">
        <ele>314.79998779297</ele>
        <time>2019-07-14T08:02:09.000Z</time>
      </trkpt>
      <trkpt lat="43.12876" lon="1.29022">
        <ele>314</ele>
        <time>2019-07-14T08:02:10.000Z</time>
      </trkpt>
      <trkpt lat="43.12879" lon="1.28999">
        <ele>314</ele>
        <time>2019-07-14T08:02:13.000Z</time>
      </trkpt>
      <trkpt lat="43.12881" lon="1.28992">
        <ele>314</ele>
        <time>2019-07-14T08:02:14.000Z</time>
      </trkpt>
      <trkpt lat="43.12884" lon="1.28978">
        <ele>314</ele>
        <time>2019-07-14T08:02:16.000Z</time>
      </trkpt>
      <trkpt lat="43.12882" lon="1.28966">
        <ele>314</ele>
        <time>2019-07-14T08:02:18.000Z</time>
      </trkpt>
      <trkpt lat="43.12877" lon="1.28954">
        <ele>314</ele>
        <time>2019-07-14T08:02:20.000Z</time>
      </trkpt>
      <trkpt lat="43.12871" lon="1.28939">
        <ele>314</ele>
        <time>2019-07-14T08:02:22.000Z</time>
      </trkpt>
      <trkpt lat="43.12869" lon="1.2893">
        <ele>314</ele>
        <time>2019-07-14T08:02:23.000Z</time>
      </trkpt>
      <trkpt lat="43.12865" lon="1.28909">
        <ele>313.60000610352</ele>
        <time>2019-07-14T08:02:25.000Z</time>
      </trkpt>
      <trkpt lat="43.12862" lon="1.28899">
        <ele>313.20001220703</ele>
        <time>2019-07-14T08:02:26.000Z</time>
      </trkpt>
      <trkpt lat="43.1286" lon="1.28888">
        <ele>312.79998779297</ele>
        <time>2019-07-14T08:02:27.000Z</time>
      </trkpt>
      <trkpt lat="43.12858" lon="1.28878">
        <ele>312.20001220703</ele>
        <time>2019-07-14T08:02:28.000Z</time>
      </trkpt>
      <trkpt lat="43.12855" lon="1.28869">
        <ele>311.79998779297</ele>
        <time>2019-07-14T08:02:29.000Z</time>
      </trkpt>
      <trkpt lat="43.12852" lon="1.28863">
        <ele>311.39999389648</ele>
        <time>2019-07-14T08:02:30.000Z</time>
      </trkpt>
      <trkpt lat="43.12849" lon="1.28857">
        <ele>311</ele>
        <time>2019-07-14T08:02:31.000Z</time>
      </trkpt>
      <trkpt lat="43.12845" lon="1.28852">
        <ele>310.60000610352</ele>
        <time>2019-07-14T08:02:32.000Z</time>
      </trkpt>
      <trkpt lat="43.12842" lon="1.28847">
        <ele>310.20001220703</ele>
        <time>2019-07-14T08:02:33.000Z</time>
      </trkpt>
      <trkpt lat="43.12839" lon="1.28842">
        <ele>309.79998779297</ele>
        <time>2019-07-14T08:02:34.000Z</time>
      </trkpt>
      <trkpt lat="43.12838" lon="1.28836">
        <ele>309.79998779297</ele>
        <time>2019-07-14T08:02:35.000Z</time>
      </trkpt>
      <trkpt lat="43.12833" lon="1.28821">
        <ele>309.79998779297</ele>
        <time>2019-07-14T08:02:38.000Z</time>
      </trkpt>
      <trkpt lat="43.12831" lon="1.28816">
        <ele>309.79998779297</ele>
        <time>2019-07-14T08:02:39.000Z</time>
      </trkpt>
      <trkpt lat="43.12827" lon="1.28803">
        <ele>309.79998779297</ele>
        <time>2019-07-14T08:02:41.000Z</time>
      </trkpt>
      <trkpt lat="43.12826" lon="1.28796">
        <ele>309.79998779297</ele>
        <time>2019-07-14T08:02:42.000Z</time>
      </trkpt>
      <trkpt lat="43.12825" lon="1.28789">
        <ele>309.79998779297</ele>
        <time>2019-07-14T08:02:43.000Z</time>
      </trkpt>
      <trkpt lat="43.1282" lon="1.28779">
        <ele>309.79998779297</ele>
        <time>2019-07-14T08:02:45.000Z</time>
      </trkpt>
      <trkpt lat="43.12807" lon="1.28762">
        <ele>309.79998779297</ele>
        <time>2019-07-14T08:02:49.000Z</time>
      </trkpt>
      <trkpt lat="43.12795" lon="1.28747">
        <ele>309.79998779297</ele>
        <time>2019-07-14T08:02:52.000Z</time>
      </trkpt>
      <trkpt lat="43.12792" lon="1.28741">
        <ele>309.79998779297</ele>
        <time>2019-07-14T08:02:53.000Z</time>
      </trkpt>
      <trkpt lat="43.12782" lon="1.28719">
        <ele>309.79998779297</ele>
        <time>2019-07-14T08:02:57.000Z</time>
      </trkpt>
      <trkpt lat="43.12761" lon="1.28705">
        <ele>309.79998779297</ele>
        <time>2019-07-14T08:03:01.000Z</time>
      </trkpt>
      <trkpt lat="43.12748" lon="1.28701">
        <ele>309.79998779297</ele>
        <time>2019-07-14T08:03:03.000Z</time>
      </trkpt>
      <trkpt lat="43.12738" lon="1.287">
        <ele>309.79998779297</ele>
        <time>2019-07-14T08:03:05.000Z</time>
      </trkpt>
      <trkpt lat="43.12728" lon="1.287">
        <ele>309.79998779297</ele>
        <time>2019-07-14T08:03:07.000Z</time>
      </trkpt>
      <trkpt lat="43.12713" lon="1.28698">
        <ele>309.79998779297</ele>
        <time>2019-07-14T08:03:10.000Z</time>
      </trkpt>
      <trkpt lat="43.12702" lon="1.28696">
        <ele>309.79998779297</ele>
        <time>2019-07-14T08:03:13.000Z</time>
      </trkpt>
      <trkpt lat="43.12699" lon="1.28695">
        <ele>309.79998779297</ele>
        <time>2019-07-14T08:03:14.000Z</time>
      </trkpt>
      <trkpt lat="43.12698" lon="1.28692">
        <ele>309.79998779297</ele>
        <time>2019-07-14T08:03:16.000Z</time>
      </trkpt>
      <trkpt lat="43.12699" lon="1.28692">
        <ele>309.79998779297</ele>
        <time>2019-07-14T08:03:17.000Z</time>
      </trkpt>
      <trkpt lat="43.12697" lon="1.28693">
        <ele>309.79998779297</ele>
        <time>2019-07-14T08:03:22.000Z</time>
      </trkpt>
      <trkpt lat="43.12692" lon="1.28695">
        <ele>309.79998779297</ele>
        <time>2019-07-14T08:03:24.000Z</time>
      </trkpt>
      <trkpt lat="43.12681" lon="1.28692">
        <ele>309.79998779297</ele>
        <time>2019-07-14T08:03:29.000Z</time>
      </trkpt>
      <trkpt lat="43.12679" lon="1.28673">
        <ele>309.79998779297</ele>
        <time>2019-07-14T08:03:34.000Z</time>
      </trkpt>
      <trkpt lat="43.12678" lon="1.2865">
        <ele>309.79998779297</ele>
        <time>2019-07-14T08:03:39.000Z</time>
      </trkpt>
      <trkpt lat="43.1268" lon="1.2864">
        <ele>309.79998779297</ele>
        <time>2019-07-14T08:03:41.000Z</time>
      </trkpt>
      <trkpt lat="43.12683" lon="1.28633">
        <ele>309.79998779297</ele>
        <time>2019-07-14T08:03:43.000Z</time>
      </trkpt>
      <trkpt lat="43.12688" lon="1.28618">
        <ele>309.79998779297</ele>
        <time>2019-07-14T08:03:47.000Z</time>
      </trkpt>
      <trkpt lat="43.1269" lon="1.28592">
        <ele>309.79998779297</ele>
        <time>2019-07-14T08:03:52.000Z</time>
      </trkpt>
      <trkpt lat="43.12689" lon="1.28586">
        <ele>309.79998779297</ele>
        <time>2019-07-14T08:03:53.000Z</time>
      </trkpt>
      <trkpt lat="43.12686" lon="1.28558">
        <ele>309.79998779297</ele>
        <time>2019-07-14T08:03:57.000Z</time>
      </trkpt>
      <trkpt lat="43.1268" lon="1.28498">
        <ele>309.39999389648</ele>
        <time>2019-07-14T08:04:04.000Z</time>
      </trkpt>
      <trkpt lat="43.1268" lon="1.28488">
        <ele>309</ele>
        <time>2019-07-14T08:04:05.000Z</time>
      </trkpt>
      <trkpt lat="43.12679" lon="1.28477">
        <ele>308.39999389648</ele>
        <time>2019-07-14T08:04:06.000Z</time>
      </trkpt>
      <trkpt lat="43.12679" lon="1.28467">
        <ele>308</ele>
        <time>2019-07-14T08:04:07.000Z</time>
      </trkpt>
      <trkpt lat="43.12679" lon="1.28457">
        <ele>307.39999389648</ele>
        <time>2019-07-14T08:04:08.000Z</time>
      </trkpt>
      <trkpt lat="43.12678" lon="1.28447">
        <ele>306.79998779297</ele>
        <time>2019-07-14T08:04:09.000Z</time>
      </trkpt>
      <trkpt lat="43.12676" lon="1.28438">
        <ele>306.20001220703</ele>
        <time>2019-07-14T08:04:10.000Z</time>
      </trkpt>
      <trkpt lat="43.12674" lon="1.28428">
        <ele>305.60000610352</ele>
        <time>2019-07-14T08:04:11.000Z</time>
      </trkpt>
      <trkpt lat="43.12671" lon="1.28419">
        <ele>305</ele>
        <time>2019-07-14T08:04:12.000Z</time>
      </trkpt>
      <trkpt lat="43.12669" lon="1.2841">
        <ele>304.39999389648</ele>
        <time>2019-07-14T08:04:13.000Z</time>
      </trkpt>
      <trkpt lat="43.12666" lon="1.28403">
        <ele>303.20001220703</ele>
        <time>2019-07-14T08:04:14.000Z</time>
      </trkpt>
      <trkpt lat="43.12662" lon="1.28396">
        <ele>302.39999389648</ele>
        <time>2019-07-14T08:04:15.000Z</time>
      </trkpt>
      <trkpt lat="43.12659" lon="1.28389">
        <ele>301.60000610352</ele>
        <time>2019-07-14T08:04:16.000Z</time>
      </trkpt>
      <trkpt lat="43.12656" lon="1.28381">
        <ele>300.79998779297</ele>
        <time>2019-07-14T08:04:17.000Z</time>
      </trkpt>
      <trkpt lat="43.12653" lon="1.28374">
        <ele>299.79998779297</ele>
        <time>2019-07-14T08:04:18.000Z</time>
      </trkpt>
      <trkpt lat="43.12651" lon="1.28367">
        <ele>298.79998779297</ele>
        <time>2019-07-14T08:04:19.000Z</time>
      </trkpt>
      <trkpt lat="43.12649" lon="1.28361">
        <ele>297.60000610352</ele>
        <time>2019-07-14T08:04:20.000Z</time>
      </trkpt>
      <trkpt lat="43.12646" lon="1.28356">
        <ele>296.39999389648</ele>
        <time>2019-07-14T08:04:21.000Z</time>
      </trkpt>
      <trkpt lat="43.12644" lon="1.28351">
        <ele>295.39999389648</ele>
        <time>2019-07-14T08:04:22.000Z</time>
      </trkpt>
      <trkpt lat="43.12643" lon="1.28347">
        <ele>294.20001220703</ele>
        <time>2019-07-14T08:04:23.000Z</time>
      </trkpt>
      <trkpt lat="43.12641" lon="1.28343">
        <ele>293.20001220703</ele>
        <time>2019-07-14T08:04:24.000Z</time>
      </trkpt>
      <trkpt lat="43.12639" lon="1.28339">
        <ele>292.20001220703</ele>
        <time>2019-07-14T08:04:25.000Z</time>
      </trkpt>
      <trkpt lat="43.12637" lon="1.28335">
        <ele>291</ele>
        <time>2019-07-14T08:04:26.000Z</time>
      </trkpt>
      <trkpt lat="43.12634" lon="1.28331">
        <ele>289.79998779297</ele>
        <time>2019-07-14T08:04:27.000Z</time>
      </trkpt>
      <trkpt lat="43.12631" lon="1.28327">
        <ele>288.39999389648</ele>
        <time>2019-07-14T08:04:28.000Z</time>
      </trkpt>
      <trkpt lat="43.12628" lon="1.28323">
        <ele>287</ele>
        <time>2019-07-14T08:04:29.000Z</time>
      </trkpt>
      <trkpt lat="43.12625" lon="1.28319">
        <ele>285.79998779297</ele>
        <time>2019-07-14T08:04:30.000Z</time>
      </trkpt>
      <trkpt lat="43.12623" lon="1.28314">
        <ele>284.39999389648</ele>
        <time>2019-07-14T08:04:31.000Z</time>
      </trkpt>
      <trkpt lat="43.12619" lon="1.28309">
        <ele>283</ele>
        <time>2019-07-14T08:04:32.000Z</time>
      </trkpt>
      <trkpt lat="43.12616" lon="1.28304">
        <ele>281.60000610352</ele>
        <time>2019-07-14T08:04:33.000Z</time>
      </trkpt>
      <trkpt lat="43.12612" lon="1.283">
        <ele>280.39999389648</ele>
        <time>2019-07-14T08:04:34.000Z</time>
      </trkpt>
      <trkpt lat="43.12608" lon="1.28296">
        <ele>279</ele>
        <time>2019-07-14T08:04:35.000Z</time>
      </trkpt>
      <trkpt lat="43.12603" lon="1.28291">
        <ele>277.79998779297</ele>
        <time>2019-07-14T08:04:36.000Z</time>
      </trkpt>
      <trkpt lat="43.12598" lon="1.28286">
        <ele>276.60000610352</ele>
        <time>2019-07-14T08:04:37.000Z</time>
      </trkpt>
      <trkpt lat="43.12594" lon="1.2828">
        <ele>274</ele>
        <time>2019-07-14T08:04:38.000Z</time>
      </trkpt>
      <trkpt lat="43.1259" lon="1.28276">
        <ele>272.60000610352</ele>
        <time>2019-07-14T08:04:39.000Z</time>
      </trkpt>
      <trkpt lat="43.12587" lon="1.28273">
        <ele>271.39999389648</ele>
        <time>2019-07-14T08:04:40.000Z</time>
      </trkpt>
      <trkpt lat="43.12585" lon="1.2827">
        <ele>270</ele>
        <time>2019-07-14T08:04:41.000Z</time>
      </trkpt>
      <trkpt lat="43.12582" lon="1.28267">
        <ele>268.60000610352</ele>
        <time>2019-07-14T08:04:42.000Z</time>
      </trkpt>
      <trkpt lat="43.12579" lon="1.28265">
        <ele>267.39999389648</ele>
        <time>2019-07-14T08:04:43.000Z</time>
      </trkpt>
      <trkpt lat="43.12576" lon="1.28263">
        <ele>266.39999389648</ele>
        <time>2019-07-14T08:04:44.000Z</time>
      </trkpt>
      <trkpt lat="43.12572" lon="1.28259">
        <ele>265.39999389648</ele>
        <time>2019-07-14T08:04:45.000Z</time>
      </trkpt>
      <trkpt lat="43.12568" lon="1.28256">
        <ele>264.39999389648</ele>
        <time>2019-07-14T08:04:46.000Z</time>
      </trkpt>
      <trkpt lat="43.12563" lon="1.28253">
        <ele>263.39999389648</ele>
        <time>2019-07-14T08:04:47.000Z</time>
      </trkpt>
      <trkpt lat="43.12559" lon="1.28249">
        <ele>262.39999389648</ele>
        <time>2019-07-14T08:04:48.000Z</time>
      </trkpt>
      <trkpt lat="43.12555" lon="1.28246">
        <ele>261.20001220703</ele>
        <time>2019-07-14T08:04:49.000Z</time>
      </trkpt>
      <trkpt lat="43.12551" lon="1.28243">
        <ele>260</ele>
        <time>2019-07-14T08:04:50.000Z</time>
      </trkpt>
      <trkpt lat="43.12548" lon="1.2824">
        <ele>259</ele>
        <time>2019-07-14T08:04:51.000Z</time>
      </trkpt>
      <trkpt lat="43.12546" lon="1.28238">
        <ele>257.79998779297</ele>
        <time>2019-07-14T08:04:52.000Z</time>
      </trkpt>
      <trkpt lat="43.12545" lon="1.28235">
        <ele>256.79998779297</ele>
        <time>2019-07-14T08:04:53.000Z</time>
      </trkpt>
      <trkpt lat="43.12546" lon="1.2823">
        <ele>255.80000305176</ele>
        <time>2019-07-14T08:04:54.000Z</time>
      </trkpt>
      <trkpt lat="43.12548" lon="1.28226">
        <ele>254.80000305176</ele>
        <time>2019-07-14T08:04:55.000Z</time>
      </trkpt>
      <trkpt lat="43.1255" lon="1.28222">
        <ele>254</ele>
        <time>2019-07-14T08:04:56.000Z</time>
      </trkpt>
      <trkpt lat="43.12552" lon="1.28217">
        <ele>253</ele>
        <time>2019-07-14T08:04:57.000Z</time>
      </trkpt>
      <trkpt lat="43.12555" lon="1.28213">
        <ele>252</ele>
        <time>2019-07-14T08:04:58.000Z</time>
      </trkpt>
      <trkpt lat="43.12559" lon="1.28209">
        <ele>252</ele>
        <time>2019-07-14T08:04:59.000Z</time>
      </trkpt>
      <trkpt lat="43.12562" lon="1.28203">
        <ele>252</ele>
        <time>2019-07-14T08:05:00.000Z</time>
      </trkpt>
      <trkpt lat="43.12572" lon="1.28186">
        <ele>251.60000610352</ele>
        <time>2019-07-14T08:05:03.000Z</time>
      </trkpt>
      <trkpt lat="43.12576" lon="1.28179">
        <ele>251.19999694824</ele>
        <time>2019-07-14T08:05:04.000Z</time>
      </trkpt>
      <trkpt lat="43.1258" lon="1.28174">
        <ele>250.80000305176</ele>
        <time>2019-07-14T08:05:05.000Z</time>
      </trkpt>
      <trkpt lat="43.12585" lon="1.28169">
        <ele>250.39999389648</ele>
        <time>2019-07-14T08:05:06.000Z</time>
      </trkpt>
      <trkpt lat="43.1259" lon="1.28165">
        <ele>250</ele>
        <time>2019-07-14T08:05:07.000Z</time>
      </trkpt>
      <trkpt lat="43.12595" lon="1.28162">
        <ele>250</ele>
        <time>2019-07-14T08:05:08.000Z</time>
      </trkpt>
      <trkpt lat="43.12605" lon="1.28157">
        <ele>250</ele>
        <time>2019-07-14T08:05:10.000Z</time>
      </trkpt>
      <trkpt lat="43.12626" lon="1.28149">
        <ele>250</ele>
        <time>2019-07-14T08:05:14.000Z</time>
      </trkpt>
      <trkpt lat="43.12647" lon="1.28139">
        <ele>250</ele>
        <time>2019-07-14T08:05:18.000Z</time>
      </trkpt>
      <trkpt lat="43.12652" lon="1.28134">
        <ele>250</ele>
        <time>2019-07-14T08:05:19.000Z</time>
      </trkpt>
      <trkpt lat="43.1266" lon="1.28122">
        <ele>250</ele>
        <time>2019-07-14T08:05:21.000Z</time>
      </trkpt>
      <trkpt lat="43.12667" lon="1.28106">
        <ele>250</ele>
        <time>2019-07-14T08:05:23.000Z</time>
      </trkpt>
      <trkpt lat="43.1267" lon="1.28098">
        <ele>250</ele>
        <time>2019-07-14T08:05:24.000Z</time>
      </trkpt>
      <trkpt lat="43.12683" lon="1.2806">
        <ele>249.39999389648</ele>
        <time>2019-07-14T08:05:28.000Z</time>
      </trkpt>
      <trkpt lat="43.12686" lon="1.2805">
        <ele>249</ele>
        <time>2019-07-14T08:05:29.000Z</time>
      </trkpt>
      <trkpt lat="43.12688" lon="1.2804">
        <ele>248.60000610352</ele>
        <time>2019-07-14T08:05:30.000Z</time>
      </trkpt>
      <trkpt lat="43.12691" lon="1.2803">
        <ele>248.19999694824</ele>
        <time>2019-07-14T08:05:31.000Z</time>
      </trkpt>
      <trkpt lat="43.12693" lon="1.28021">
        <ele>247.60000610352</ele>
        <time>2019-07-14T08:05:32.000Z</time>
      </trkpt>
      <trkpt lat="43.12699" lon="1.27991">
        <ele>247.60000610352</ele>
        <time>2019-07-14T08:05:35.000Z</time>
      </trkpt>
      <trkpt lat="43.12701" lon="1.27981">
        <ele>247.19999694824</ele>
        <time>2019-07-14T08:05:36.000Z</time>
      </trkpt>
      <trkpt lat="43.12702" lon="1.27972">
        <ele>246.80000305176</ele>
        <time>2019-07-14T08:05:37.000Z</time>
      </trkpt>
      <trkpt lat="43.12704" lon="1.27962">
        <ele>246.39999389648</ele>
        <time>2019-07-14T08:05:38.000Z</time>
      </trkpt>
      <trkpt lat="43.12706" lon="1.27953">
        <ele>246</ele>
        <time>2019-07-14T08:05:39.000Z</time>
      </trkpt>
      <trkpt lat="43.12707" lon="1.27944">
        <ele>245.60000610352</ele>
        <time>2019-07-14T08:05:40.000Z</time>
      </trkpt>
      <trkpt lat="43.12711" lon="1.27927">
        <ele>245.60000610352</ele>
        <time>2019-07-14T08:05:42.000Z</time>
      </trkpt>
      <trkpt lat="43.12715" lon="1.27911">
        <ele>245.60000610352</ele>
        <time>2019-07-14T08:05:44.000Z</time>
      </trkpt>
      <trkpt lat="43.12719" lon="1.27887">
        <ele>245.60000610352</ele>
        <time>2019-07-14T08:05:47.000Z</time>
      </trkpt>
      <trkpt lat="43.1272" lon="1.27879">
        <ele>245.60000610352</ele>
        <time>2019-07-14T08:05:48.000Z</time>
      </trkpt>
      <trkpt lat="43.1272" lon="1.27846">
        <ele>245.60000610352</ele>
        <time>2019-07-14T08:05:52.000Z</time>
      </trkpt>
      <trkpt lat="43.12721" lon="1.27838">
        <ele>245.60000610352</ele>
        <time>2019-07-14T08:05:53.000Z</time>
      </trkpt>
      <trkpt lat="43.12728" lon="1.27807">
        <ele>245.60000610352</ele>
        <time>2019-07-14T08:05:57.000Z</time>
      </trkpt>
      <trkpt lat="43.12738" lon="1.27779">
        <ele>245.60000610352</ele>
        <time>2019-07-14T08:06:01.000Z</time>
      </trkpt>
      <trkpt lat="43.12741" lon="1.27772">
        <ele>245.60000610352</ele>
        <time>2019-07-14T08:06:02.000Z</time>
      </trkpt>
      <trkpt lat="43.12745" lon="1.27766">
        <ele>246</ele>
        <time>2019-07-14T08:06:03.000Z</time>
      </trkpt>
      <trkpt lat="43.12748" lon="1.2776">
        <ele>246.60000610352</ele>
        <time>2019-07-14T08:06:04.000Z</time>
      </trkpt>
      <trkpt lat="43.12752" lon="1.27753">
        <ele>247</ele>
        <time>2019-07-14T08:06:05.000Z</time>
      </trkpt>
      <trkpt lat="43.12756" lon="1.27747">
        <ele>247.39999389648</ele>
        <time>2019-07-14T08:06:06.000Z</time>
      </trkpt>
      <trkpt lat="43.1276" lon="1.2774">
        <ele>247.80000305176</ele>
        <time>2019-07-14T08:06:07.000Z</time>
      </trkpt>
      <trkpt lat="43.12763" lon="1.27734">
        <ele>247.80000305176</ele>
        <time>2019-07-14T08:06:08.000Z</time>
      </trkpt>
      <trkpt lat="43.12765" lon="1.27709">
        <ele>248.19999694824</ele>
        <time>2019-07-14T08:06:12.000Z</time>
      </trkpt>
      <trkpt lat="43.12765" lon="1.27703">
        <ele>248.60000610352</ele>
        <time>2019-07-14T08:06:13.000Z</time>
      </trkpt>
      <trkpt lat="43.12766" lon="1.27698">
        <ele>249</ele>
        <time>2019-07-14T08:06:14.000Z</time>
      </trkpt>
      <trkpt lat="43.12766" lon="1.27693">
        <ele>249.39999389648</ele>
        <time>2019-07-14T08:06:15.000Z</time>
      </trkpt>
      <trkpt lat="43.12767" lon="1.27688">
        <ele>249.80000305176</ele>
        <time>2019-07-14T08:06:16.000Z</time>
      </trkpt>
      <trkpt lat="43.12768" lon="1.27684">
        <ele>249.80000305176</ele>
        <time>2019-07-14T08:06:17.000Z</time>
      </trkpt>
      <trkpt lat="43.12777" lon="1.27654">
        <ele>249.80000305176</ele>
        <time>2019-07-14T08:06:22.000Z</time>
      </trkpt>
      <trkpt lat="43.12792" lon="1.27617">
        <ele>249.39999389648</ele>
        <time>2019-07-14T08:06:27.000Z</time>
      </trkpt>
      <trkpt lat="43.12796" lon="1.2761">
        <ele>249</ele>
        <time>2019-07-14T08:06:28.000Z</time>
      </trkpt>
      <trkpt lat="43.12799" lon="1.27604">
        <ele>248.39999389648</ele>
        <time>2019-07-14T08:06:29.000Z</time>
      </trkpt>
      <trkpt lat="43.12802" lon="1.276">
        <ele>248</ele>
        <time>2019-07-14T08:06:30.000Z</time>
      </trkpt>
      <trkpt lat="43.12804" lon="1.27596">
        <ele>247.60000610352</ele>
        <time>2019-07-14T08:06:31.000Z</time>
      </trkpt>
      <trkpt lat="43.12811" lon="1.27583">
        <ele>247.60000610352</ele>
        <time>2019-07-14T08:06:34.000Z</time>
      </trkpt>
      <trkpt lat="43.12812" lon="1.27579">
        <ele>247.60000610352</ele>
        <time>2019-07-14T08:06:35.000Z</time>
      </trkpt>
      <trkpt lat="43.12818" lon="1.27563">
        <ele>247.60000610352</ele>
        <time>2019-07-14T08:06:39.000Z</time>
      </trkpt>
      <trkpt lat="43.12818" lon="1.27559">
        <ele>247.60000610352</ele>
        <time>2019-07-14T08:06:41.000Z</time>
      </trkpt>
      <trkpt lat="43.12817" lon="1.27556">
        <ele>247.60000610352</ele>
        <time>2019-07-14T08:06:42.000Z</time>
      </trkpt>
      <trkpt lat="43.12814" lon="1.27542">
        <ele>248</ele>
        <time>2019-07-14T08:06:46.000Z</time>
      </trkpt>
      <trkpt lat="43.12813" lon="1.27538">
        <ele>248.60000610352</ele>
        <time>2019-07-14T08:06:47.000Z</time>
      </trkpt>
      <trkpt lat="43.12812" lon="1.27535">
        <ele>249</ele>
        <time>2019-07-14T08:06:48.000Z</time>
      </trkpt>
      <trkpt lat="43.12811" lon="1.27532">
        <ele>249.39999389648</ele>
        <time>2019-07-14T08:06:49.000Z</time>
      </trkpt>
      <trkpt lat="43.1281" lon="1.27529">
        <ele>250</ele>
        <time>2019-07-14T08:06:50.000Z</time>
      </trkpt>
      <trkpt lat="43.12809" lon="1.27519">
        <ele>250</ele>
        <time>2019-07-14T08:06:53.000Z</time>
      </trkpt>
      <trkpt lat="43.12803" lon="1.27512">
        <ele>250</ele>
        <time>2019-07-14T08:06:56.000Z</time>
      </trkpt>
      <trkpt lat="43.12802" lon="1.27509">
        <ele>250.39999389648</ele>
        <time>2019-07-14T08:06:57.000Z</time>
      </trkpt>
      <trkpt lat="43.128" lon="1.27506">
        <ele>250.80000305176</ele>
        <time>2019-07-14T08:06:58.000Z</time>
      </trkpt>
      <trkpt lat="43.12797" lon="1.27503">
        <ele>251.19999694824</ele>
        <time>2019-07-14T08:06:59.000Z</time>
      </trkpt>
      <trkpt lat="43.12795" lon="1.275">
        <ele>251.60000610352</ele>
        <time>2019-07-14T08:07:00.000Z</time>
      </trkpt>
      <trkpt lat="43.12792" lon="1.27498">
        <ele>252.19999694824</ele>
        <time>2019-07-14T08:07:01.000Z</time>
      </trkpt>
      <trkpt lat="43.1279" lon="1.27495">
        <ele>252.19999694824</ele>
        <time>2019-07-14T08:07:02.000Z</time>
      </trkpt>
      <trkpt lat="43.12789" lon="1.27491">
        <ele>252.60000610352</ele>
        <time>2019-07-14T08:07:03.000Z</time>
      </trkpt>
      <trkpt lat="43.12787" lon="1.27489">
        <ele>253</ele>
        <time>2019-07-14T08:07:04.000Z</time>
      </trkpt>
      <trkpt lat="43.12785" lon="1.27487">
        <ele>253.39999389648</ele>
        <time>2019-07-14T08:07:05.000Z</time>
      </trkpt>
      <trkpt lat="43.12783" lon="1.27485">
        <ele>253.80000305176</ele>
        <time>2019-07-14T08:07:06.000Z</time>
      </trkpt>
      <trkpt lat="43.12781" lon="1.27482">
        <ele>254.19999694824</ele>
        <time>2019-07-14T08:07:07.000Z</time>
      </trkpt>
      <trkpt lat="43.12778" lon="1.27475">
        <ele>254.80000305176</ele>
        <time>2019-07-14T08:07:09.000Z</time>
      </trkpt>
      <trkpt lat="43.12777" lon="1.27472">
        <ele>255.19999694824</ele>
        <time>2019-07-14T08:07:10.000Z</time>
      </trkpt>
      <trkpt lat="43.12776" lon="1.27469">
        <ele>255.60000610352</ele>
        <time>2019-07-14T08:07:11.000Z</time>
      </trkpt>
      <trkpt lat="43.12777" lon="1.27467">
        <ele>256.20001220703</ele>
        <time>2019-07-14T08:07:12.000Z</time>
      </trkpt>
      <trkpt lat="43.12777" lon="1.27465">
        <ele>256.60000610352</ele>
        <time>2019-07-14T08:07:13.000Z</time>
      </trkpt>
      <trkpt lat="43.12777" lon="1.27464">
        <ele>257</ele>
        <time>2019-07-14T08:07:14.000Z</time>
      </trkpt>
      <trkpt lat="43.12776" lon="1.27462">
        <ele>257.39999389648</ele>
        <time>2019-07-14T08:07:15.000Z</time>
      </trkpt>
      <trkpt lat="43.12776" lon="1.2746">
        <ele>257.79998779297</ele>
        <time>2019-07-14T08:07:16.000Z</time>
      </trkpt>
      <trkpt lat="43.12774" lon="1.27457">
        <ele>258.20001220703</ele>
        <time>2019-07-14T08:07:17.000Z</time>
      </trkpt>
      <trkpt lat="43.12773" lon="1.27454">
        <ele>258.60000610352</ele>
        <time>2019-07-14T08:07:18.000Z</time>
      </trkpt>
      <trkpt lat="43.12772" lon="1.27451">
        <ele>259</ele>
        <time>2019-07-14T08:07:19.000Z</time>
      </trkpt>
      <trkpt lat="43.12771" lon="1.27448">
        <ele>259.39999389648</ele>
        <time>2019-07-14T08:07:20.000Z</time>
      </trkpt>
      <trkpt lat="43.1277" lon="1.27445">
        <ele>259.79998779297</ele>
        <time>2019-07-14T08:07:21.000Z</time>
      </trkpt>
      <trkpt lat="43.1277" lon="1.27442">
        <ele>260.20001220703</ele>
        <time>2019-07-14T08:07:22.000Z</time>
      </trkpt>
      <trkpt lat="43.1277" lon="1.2744">
        <ele>260.79998779297</ele>
        <time>2019-07-14T08:07:23.000Z</time>
      </trkpt>
      <trkpt lat="43.1277" lon="1.27438">
        <ele>261.20001220703</ele>
        <time>2019-07-14T08:07:24.000Z</time>
      </trkpt>
      <trkpt lat="43.12769" lon="1.27435">
        <ele>261.60000610352</ele>
        <time>2019-07-14T08:07:25.000Z</time>
      </trkpt>
      <trkpt lat="43.12769" lon="1.27432">
        <ele>262</ele>
        <time>2019-07-14T08:07:26.000Z</time>
      </trkpt>
      <trkpt lat="43.12768" lon="1.2743">
        <ele>262.39999389648</ele>
        <time>2019-07-14T08:07:27.000Z</time>
      </trkpt>
      <trkpt lat="43.12767" lon="1.27428">
        <ele>263</ele>
        <time>2019-07-14T08:07:28.000Z</time>
      </trkpt>
      <trkpt lat="43.12766" lon="1.27425">
        <ele>263.39999389648</ele>
        <time>2019-07-14T08:07:29.000Z</time>
      </trkpt>
      <trkpt lat="43.12766" lon="1.27423">
        <ele>264</ele>
        <time>2019-07-14T08:07:30.000Z</time>
      </trkpt>
      <trkpt lat="43.12767" lon="1.2742">
        <ele>264.79998779297</ele>
        <time>2019-07-14T08:07:31.000Z</time>
      </trkpt>
      <trkpt lat="43.12768" lon="1.27419">
        <ele>265.39999389648</ele>
        <time>2019-07-14T08:07:32.000Z</time>
      </trkpt>
      <trkpt lat="43.12768" lon="1.27416">
        <ele>265.79998779297</ele>
        <time>2019-07-14T08:07:33.000Z</time>
      </trkpt>
      <trkpt lat="43.12769" lon="1.27415">
        <ele>266.20001220703</ele>
        <time>2019-07-14T08:07:34.000Z</time>
      </trkpt>
      <trkpt lat="43.1277" lon="1.27413">
        <ele>266.79998779297</ele>
        <time>2019-07-14T08:07:35.000Z</time>
      </trkpt>
      <trkpt lat="43.12772" lon="1.27411">
        <ele>268.20001220703</ele>
        <time>2019-07-14T08:07:38.000Z</time>
      </trkpt>
      <trkpt lat="43.12773" lon="1.27407">
        <ele>268.60000610352</ele>
        <time>2019-07-14T08:07:39.000Z</time>
      </trkpt>
      <trkpt lat="43.12775" lon="1.27404">
        <ele>269</ele>
        <time>2019-07-14T08:07:40.000Z</time>
      </trkpt>
      <trkpt lat="43.12774" lon="1.27398">
        <ele>269.60000610352</ele>
        <time>2019-07-14T08:07:41.000Z</time>
      </trkpt>
      <trkpt lat="43.12775" lon="1.27393">
        <ele>270</ele>
        <time>2019-07-14T08:07:42.000Z</time>
      </trkpt>
      <trkpt lat="43.12775" lon="1.27389">
        <ele>270.39999389648</ele>
        <time>2019-07-14T08:07:43.000Z</time>
      </trkpt>
      <trkpt lat="43.12777" lon="1.27386">
        <ele>271</ele>
        <time>2019-07-14T08:07:44.000Z</time>
      </trkpt>
      <trkpt lat="43.12778" lon="1.27382">
        <ele>271.39999389648</ele>
        <time>2019-07-14T08:07:45.000Z</time>
      </trkpt>
      <trkpt lat="43.12778" lon="1.27379">
        <ele>272</ele>
        <time>2019-07-14T08:07:46.000Z</time>
      </trkpt>
      <trkpt lat="43.12778" lon="1.27375">
        <ele>272.39999389648</ele>
        <time>2019-07-14T08:07:47.000Z</time>
      </trkpt>
      <trkpt lat="43.12779" lon="1.27372">
        <ele>272.39999389648</ele>
        <time>2019-07-14T08:07:48.000Z</time>
      </trkpt>
      <trkpt lat="43.12779" lon="1.2737">
        <ele>272.39999389648</ele>
        <time>2019-07-14T08:07:49.000Z</time>
      </trkpt>
      <trkpt lat="43.12778" lon="1.27367">
        <ele>272.79998779297</ele>
        <time>2019-07-14T08:07:50.000Z</time>
      </trkpt>
      <trkpt lat="43.12777" lon="1.27364">
        <ele>273.39999389648</ele>
        <time>2019-07-14T08:07:51.000Z</time>
      </trkpt>
      <trkpt lat="43.12776" lon="1.27361">
        <ele>273.79998779297</ele>
        <time>2019-07-14T08:07:52.000Z</time>
      </trkpt>
      <trkpt lat="43.12775" lon="1.27357">
        <ele>274.20001220703</ele>
        <time>2019-07-14T08:07:53.000Z</time>
      </trkpt>
      <trkpt lat="43.12776" lon="1.27354">
        <ele>274.60000610352</ele>
        <time>2019-07-14T08:07:54.000Z</time>
      </trkpt>
      <trkpt lat="43.12778" lon="1.27347">
        <ele>275.60000610352</ele>
        <time>2019-07-14T08:07:56.000Z</time>
      </trkpt>
      <trkpt lat="43.12778" lon="1.27344">
        <ele>276</ele>
        <time>2019-07-14T08:07:57.000Z</time>
      </trkpt>
      <trkpt lat="43.12778" lon="1.27341">
        <ele>276.39999389648</ele>
        <time>2019-07-14T08:07:58.000Z</time>
      </trkpt>
      <trkpt lat="43.12779" lon="1.27338">
        <ele>276.79998779297</ele>
        <time>2019-07-14T08:07:59.000Z</time>
      </trkpt>
      <trkpt lat="43.1278" lon="1.27332">
        <ele>276.79998779297</ele>
        <time>2019-07-14T08:08:01.000Z</time>
      </trkpt>
      <trkpt lat="43.1278" lon="1.27322">
        <ele>277.20001220703</ele>
        <time>2019-07-14T08:08:04.000Z</time>
      </trkpt>
      <trkpt lat="43.1278" lon="1.27319">
        <ele>277.60000610352</ele>
        <time>2019-07-14T08:08:05.000Z</time>
      </trkpt>
      <trkpt lat="43.12781" lon="1.27316">
        <ele>278</ele>
        <time>2019-07-14T08:08:06.000Z</time>
      </trkpt>
      <trkpt lat="43.12781" lon="1.27312">
        <ele>278.39999389648</ele>
        <time>2019-07-14T08:08:07.000Z</time>
      </trkpt>
      <trkpt lat="43.12782" lon="1.27308">
        <ele>278.79998779297</ele>
        <time>2019-07-14T08:08:08.000Z</time>
      </trkpt>
      <trkpt lat="43.12782" lon="1.27301">
        <ele>278.79998779297</ele>
        <time>2019-07-14T08:08:10.000Z</time>
      </trkpt>
      <trkpt lat="43.12785" lon="1.27285">
        <ele>278.79998779297</ele>
        <time>2019-07-14T08:08:15.000Z</time>
      </trkpt>
      <trkpt lat="43.12786" lon="1.2728">
        <ele>278.79998779297</ele>
        <time>2019-07-14T08:08:16.000Z</time>
      </trkpt>
      <trkpt lat="43.12789" lon="1.27265">
        <ele>278.79998779297</ele>
        <time>2019-07-14T08:08:18.000Z</time>
      </trkpt>
      <trkpt lat="43.12795" lon="1.2725">
        <ele>278.79998779297</ele>
        <time>2019-07-14T08:08:20.000Z</time>
      </trkpt>
      <trkpt lat="43.12798" lon="1.27244">
        <ele>278.20001220703</ele>
        <time>2019-07-14T08:08:21.000Z</time>
      </trkpt>
      <trkpt lat="43.128" lon="1.27237">
        <ele>277.60000610352</ele>
        <time>2019-07-14T08:08:22.000Z</time>
      </trkpt>
      <trkpt lat="43.12803" lon="1.2723">
        <ele>277</ele>
        <time>2019-07-14T08:08:23.000Z</time>
      </trkpt>
      <trkpt lat="43.12805" lon="1.27224">
        <ele>276.39999389648</ele>
        <time>2019-07-14T08:08:24.000Z</time>
      </trkpt>
      <trkpt lat="43.12807" lon="1.27218">
        <ele>275.60000610352</ele>
        <time>2019-07-14T08:08:25.000Z</time>
      </trkpt>
      <trkpt lat="43.12809" lon="1.27211">
        <ele>275</ele>
        <time>2019-07-14T08:08:26.000Z</time>
      </trkpt>
      <trkpt lat="43.12809" lon="1.27204">
        <ele>274.20001220703</ele>
        <time>2019-07-14T08:08:27.000Z</time>
      </trkpt>
      <trkpt lat="43.12808" lon="1.272">
        <ele>273.60000610352</ele>
        <time>2019-07-14T08:08:28.000Z</time>
      </trkpt>
      <trkpt lat="43.12807" lon="1.27193">
        <ele>273</ele>
        <time>2019-07-14T08:08:29.000Z</time>
      </trkpt>
      <trkpt lat="43.12805" lon="1.27189">
        <ele>272.60000610352</ele>
        <time>2019-07-14T08:08:30.000Z</time>
      </trkpt>
      <trkpt lat="43.12803" lon="1.27186">
        <ele>272</ele>
        <time>2019-07-14T08:08:31.000Z</time>
      </trkpt>
      <trkpt lat="43.12802" lon="1.27184">
        <ele>271.39999389648</ele>
        <time>2019-07-14T08:08:32.000Z</time>
      </trkpt>
      <trkpt lat="43.12798" lon="1.27179">
        <ele>271.79998779297</ele>
        <time>2019-07-14T08:08:35.000Z</time>
      </trkpt>
      <trkpt lat="43.12797" lon="1.27178">
        <ele>272.20001220703</ele>
        <time>2019-07-14T08:08:36.000Z</time>
      </trkpt>
      <trkpt lat="43.12796" lon="1.27177">
        <ele>272.60000610352</ele>
        <time>2019-07-14T08:08:37.000Z</time>
      </trkpt>
      <trkpt lat="43.12794" lon="1.27176">
        <ele>273</ele>
        <time>2019-07-14T08:08:38.000Z</time>
      </trkpt>
      <trkpt lat="43.12793" lon="1.27175">
        <ele>273.39999389648</ele>
        <time>2019-07-14T08:08:39.000Z</time>
      </trkpt>
      <trkpt lat="43.12791" lon="1.27174">
        <ele>274</ele>
        <time>2019-07-14T08:08:40.000Z</time>
      </trkpt>
      <trkpt lat="43.12789" lon="1.27173">
        <ele>274.39999389648</ele>
        <time>2019-07-14T08:08:41.000Z</time>
      </trkpt>
      <trkpt lat="43.12788" lon="1.27171">
        <ele>275</ele>
        <time>2019-07-14T08:08:42.000Z</time>
      </trkpt>
      <trkpt lat="43.12787" lon="1.27171">
        <ele>275.39999389648</ele>
        <time>2019-07-14T08:08:43.000Z</time>
      </trkpt>
      <trkpt lat="43.12785" lon="1.27169">
        <ele>276</ele>
        <time>2019-07-14T08:08:44.000Z</time>
      </trkpt>
      <trkpt lat="43.12782" lon="1.27168">
        <ele>276.39999389648</ele>
        <time>2019-07-14T08:08:45.000Z</time>
      </trkpt>
      <trkpt lat="43.1278" lon="1.27166">
        <ele>277.20001220703</ele>
        <time>2019-07-14T08:08:46.000Z</time>
      </trkpt>
      <trkpt lat="43.12778" lon="1.27165">
        <ele>277.60000610352</ele>
        <time>2019-07-14T08:08:47.000Z</time>
      </trkpt>
      <trkpt lat="43.12776" lon="1.27165">
        <ele>278</ele>
        <time>2019-07-14T08:08:48.000Z</time>
      </trkpt>
      <trkpt lat="43.12774" lon="1.27166">
        <ele>278.39999389648</ele>
        <time>2019-07-14T08:08:49.000Z</time>
      </trkpt>
      <trkpt lat="43.12772" lon="1.27166">
        <ele>278.79998779297</ele>
        <time>2019-07-14T08:08:50.000Z</time>
      </trkpt>
      <trkpt lat="43.12771" lon="1.27166">
        <ele>279.20001220703</ele>
        <time>2019-07-14T08:08:51.000Z</time>
      </trkpt>
      <trkpt lat="43.12769" lon="1.27165">
        <ele>279.79998779297</ele>
        <time>2019-07-14T08:08:52.000Z</time>
      </trkpt>
      <trkpt lat="43.12767" lon="1.27165">
        <ele>280.20001220703</ele>
        <time>2019-07-14T08:08:53.000Z</time>
      </trkpt>
      <trkpt lat="43.12766" lon="1.27165">
        <ele>280.60000610352</ele>
        <time>2019-07-14T08:08:54.000Z</time>
      </trkpt>
      <trkpt lat="43.12764" lon="1.27165">
        <ele>281</ele>
        <time>2019-07-14T08:08:55.000Z</time>
      </trkpt>
      <trkpt lat="43.12763" lon="1.27164">
        <ele>281.39999389648</ele>
        <time>2019-07-14T08:08:56.000Z</time>
      </trkpt>
      <trkpt lat="43.12761" lon="1.27163">
        <ele>282</ele>
        <time>2019-07-14T08:08:57.000Z</time>
      </trkpt>
      <trkpt lat="43.12759" lon="1.27164">
        <ele>282.39999389648</ele>
        <time>2019-07-14T08:08:58.000Z</time>
      </trkpt>
      <trkpt lat="43.12756" lon="1.27163">
        <ele>282.79998779297</ele>
        <time>2019-07-14T08:09:00.000Z</time>
      </trkpt>
      <trkpt lat="43.12754" lon="1.27163">
        <ele>283.39999389648</ele>
        <time>2019-07-14T08:09:01.000Z</time>
      </trkpt>
      <trkpt lat="43.12752" lon="1.27162">
        <ele>283.79998779297</ele>
        <time>2019-07-14T08:09:02.000Z</time>
      </trkpt>
      <trkpt lat="43.1275" lon="1.27162">
        <ele>284.20001220703</ele>
        <time>2019-07-14T08:09:03.000Z</time>
      </trkpt>
      <trkpt lat="43.12749" lon="1.27162">
        <ele>284.60000610352</ele>
        <time>2019-07-14T08:09:04.000Z</time>
      </trkpt>
      <trkpt lat="43.12745" lon="1.27161">
        <ele>285.20001220703</ele>
        <time>2019-07-14T08:09:06.000Z</time>
      </trkpt>
      <trkpt lat="43.12743" lon="1.2716">
        <ele>285.60000610352</ele>
        <time>2019-07-14T08:09:07.000Z</time>
      </trkpt>
      <trkpt lat="43.12742" lon="1.27159">
        <ele>286</ele>
        <time>2019-07-14T08:09:08.000Z</time>
      </trkpt>
      <trkpt lat="43.1274" lon="1.27158">
        <ele>286.60000610352</ele>
        <time>2019-07-14T08:09:09.000Z</time>
      </trkpt>
      <trkpt lat="43.12738" lon="1.27157">
        <ele>287</ele>
        <time>2019-07-14T08:09:10.000Z</time>
      </trkpt>
      <trkpt lat="43.12735" lon="1.27155">
        <ele>287.39999389648</ele>
        <time>2019-07-14T08:09:12.000Z</time>
      </trkpt>
      <trkpt lat="43.12733" lon="1.27154">
        <ele>287.79998779297</ele>
        <time>2019-07-14T08:09:13.000Z</time>
      </trkpt>
      <trkpt lat="43.12731" lon="1.27153">
        <ele>288.20001220703</ele>
        <time>2019-07-14T08:09:14.000Z</time>
      </trkpt>
      <trkpt lat="43.12729" lon="1.27151">
        <ele>288.60000610352</ele>
        <time>2019-07-14T08:09:15.000Z</time>
      </trkpt>
      <trkpt lat="43.12728" lon="1.2715">
        <ele>289</ele>
        <time>2019-07-14T08:09:16.000Z</time>
      </trkpt>
      <trkpt lat="43.12726" lon="1.27149">
        <ele>289</ele>
        <time>2019-07-14T08:09:17.000Z</time>
      </trkpt>
      <trkpt lat="43.12724" lon="1.27147">
        <ele>289.60000610352</ele>
        <time>2019-07-14T08:09:18.000Z</time>
      </trkpt>
      <trkpt lat="43.12722" lon="1.27146">
        <ele>290</ele>
        <time>2019-07-14T08:09:19.000Z</time>
      </trkpt>
      <trkpt lat="43.1272" lon="1.27144">
        <ele>290.39999389648</ele>
        <time>2019-07-14T08:09:20.000Z</time>
      </trkpt>
      <trkpt lat="43.12718" lon="1.27142">
        <ele>290.79998779297</ele>
        <time>2019-07-14T08:09:21.000Z</time>
      </trkpt>
      <trkpt lat="43.12716" lon="1.27141">
        <ele>291.20001220703</ele>
        <time>2019-07-14T08:09:22.000Z</time>
      </trkpt>
      <trkpt lat="43.12709" lon="1.27138">
        <ele>291.20001220703</ele>
        <time>2019-07-14T08:09:25.000Z</time>
      </trkpt>
      <trkpt lat="43.12706" lon="1.27137">
        <ele>291.20001220703</ele>
        <time>2019-07-14T08:09:26.000Z</time>
      </trkpt>
      <trkpt lat="43.12693" lon="1.27133">
        <ele>291.20001220703</ele>
        <time>2019-07-14T08:09:29.000Z</time>
      </trkpt>
      <trkpt lat="43.12673" lon="1.27128">
        <ele>292</ele>
        <time>2019-07-14T08:09:35.000Z</time>
      </trkpt>
      <trkpt lat="43.12671" lon="1.27127">
        <ele>292.39999389648</ele>
        <time>2019-07-14T08:09:36.000Z</time>
      </trkpt>
      <trkpt lat="43.12669" lon="1.27127">
        <ele>292.79998779297</ele>
        <time>2019-07-14T08:09:37.000Z</time>
      </trkpt>
      <trkpt lat="43.12668" lon="1.27127">
        <ele>293.39999389648</ele>
        <time>2019-07-14T08:09:38.000Z</time>
      </trkpt>
      <trkpt lat="43.12667" lon="1.27126">
        <ele>293.79998779297</ele>
        <time>2019-07-14T08:09:39.000Z</time>
      </trkpt>
      <trkpt lat="43.12665" lon="1.27126">
        <ele>294.20001220703</ele>
        <time>2019-07-14T08:09:40.000Z</time>
      </trkpt>
      <trkpt lat="43.12664" lon="1.27126">
        <ele>294.60000610352</ele>
        <time>2019-07-14T08:09:41.000Z</time>
      </trkpt>
      <trkpt lat="43.12662" lon="1.27126">
        <ele>295.20001220703</ele>
        <time>2019-07-14T08:09:42.000Z</time>
      </trkpt>
      <trkpt lat="43.1266" lon="1.27125">
        <ele>295.60000610352</ele>
        <time>2019-07-14T08:09:43.000Z</time>
      </trkpt>
      <trkpt lat="43.12655" lon="1.27125">
        <ele>296</ele>
        <time>2019-07-14T08:09:45.000Z</time>
      </trkpt>
      <trkpt lat="43.12653" lon="1.27126">
        <ele>296.39999389648</ele>
        <time>2019-07-14T08:09:46.000Z</time>
      </trkpt>
      <trkpt lat="43.12651" lon="1.27126">
        <ele>296.79998779297</ele>
        <time>2019-07-14T08:09:47.000Z</time>
      </trkpt>
      <trkpt lat="43.12649" lon="1.27126">
        <ele>297.20001220703</ele>
        <time>2019-07-14T08:09:48.000Z</time>
      </trkpt>
      <trkpt lat="43.12647" lon="1.27126">
        <ele>297.60000610352</ele>
        <time>2019-07-14T08:09:49.000Z</time>
      </trkpt>
      <trkpt lat="43.12638" lon="1.27128">
        <ele>297.60000610352</ele>
        <time>2019-07-14T08:09:53.000Z</time>
      </trkpt>
      <trkpt lat="43.12636" lon="1.27129">
        <ele>298.20001220703</ele>
        <time>2019-07-14T08:09:54.000Z</time>
      </trkpt>
      <trkpt lat="43.12634" lon="1.27129">
        <ele>298.60000610352</ele>
        <time>2019-07-14T08:09:55.000Z</time>
      </trkpt>
      <trkpt lat="43.12632" lon="1.27129">
        <ele>299</ele>
        <time>2019-07-14T08:09:56.000Z</time>
      </trkpt>
      <trkpt lat="43.1263" lon="1.27129">
        <ele>299.39999389648</ele>
        <time>2019-07-14T08:09:57.000Z</time>
      </trkpt>
      <trkpt lat="43.12627" lon="1.27131">
        <ele>300</ele>
        <time>2019-07-14T08:09:58.000Z</time>
      </trkpt>
      <trkpt lat="43.12624" lon="1.27132">
        <ele>300</ele>
        <time>2019-07-14T08:09:59.000Z</time>
      </trkpt>
      <trkpt lat="43.12614" lon="1.27142">
        <ele>300.39999389648</ele>
        <time>2019-07-14T08:10:03.000Z</time>
      </trkpt>
      <trkpt lat="43.12612" lon="1.27146">
        <ele>300.79998779297</ele>
        <time>2019-07-14T08:10:04.000Z</time>
      </trkpt>
      <trkpt lat="43.1261" lon="1.27149">
        <ele>301.20001220703</ele>
        <time>2019-07-14T08:10:05.000Z</time>
      </trkpt>
      <trkpt lat="43.12607" lon="1.27153">
        <ele>301.60000610352</ele>
        <time>2019-07-14T08:10:06.000Z</time>
      </trkpt>
      <trkpt lat="43.12604" lon="1.27158">
        <ele>302</ele>
        <time>2019-07-14T08:10:07.000Z</time>
      </trkpt>
      <trkpt lat="43.126" lon="1.27163">
        <ele>302</ele>
        <time>2019-07-14T08:10:08.000Z</time>
      </trkpt>
      <trkpt lat="43.12592" lon="1.27173">
        <ele>301.60000610352</ele>
        <time>2019-07-14T08:10:10.000Z</time>
      </trkpt>
      <trkpt lat="43.12588" lon="1.27177">
        <ele>301</ele>
        <time>2019-07-14T08:10:11.000Z</time>
      </trkpt>
      <trkpt lat="43.12583" lon="1.27181">
        <ele>300.60000610352</ele>
        <time>2019-07-14T08:10:12.000Z</time>
      </trkpt>
      <trkpt lat="43.12578" lon="1.27184">
        <ele>300</ele>
        <time>2019-07-14T08:10:13.000Z</time>
      </trkpt>
      <trkpt lat="43.12571" lon="1.27186">
        <ele>299.39999389648</ele>
        <time>2019-07-14T08:10:14.000Z</time>
      </trkpt>
      <trkpt lat="43.12565" lon="1.27189">
        <ele>298.60000610352</ele>
        <time>2019-07-14T08:10:15.000Z</time>
      </trkpt>
      <trkpt lat="43.12559" lon="1.27193">
        <ele>298</ele>
        <time>2019-07-14T08:10:16.000Z</time>
      </trkpt>
      <trkpt lat="43.12553" lon="1.27197">
        <ele>297.39999389648</ele>
        <time>2019-07-14T08:10:17.000Z</time>
      </trkpt>
      <trkpt lat="43.12544" lon="1.27204">
        <ele>297.39999389648</ele>
        <time>2019-07-14T08:10:19.000Z</time>
      </trkpt>
      <trkpt lat="43.12534" lon="1.27204">
        <ele>297.39999389648</ele>
        <time>2019-07-14T08:10:21.000Z</time>
      </trkpt>
      <trkpt lat="43.12511" lon="1.27195">
        <ele>297.39999389648</ele>
        <time>2019-07-14T08:10:25.000Z</time>
      </trkpt>
      <trkpt lat="43.12505" lon="1.27191">
        <ele>297.39999389648</ele>
        <time>2019-07-14T08:10:26.000Z</time>
      </trkpt>
      <trkpt lat="43.12493" lon="1.27182">
        <ele>296.79998779297</ele>
        <time>2019-07-14T08:10:28.000Z</time>
      </trkpt>
      <trkpt lat="43.12488" lon="1.27177">
        <ele>296.39999389648</ele>
        <time>2019-07-14T08:10:29.000Z</time>
      </trkpt>
      <trkpt lat="43.12483" lon="1.27173">
        <ele>296</ele>
        <time>2019-07-14T08:10:30.000Z</time>
      </trkpt>
      <trkpt lat="43.12477" lon="1.27169">
        <ele>295.60000610352</ele>
        <time>2019-07-14T08:10:31.000Z</time>
      </trkpt>
      <trkpt lat="43.12472" lon="1.27166">
        <ele>295.20001220703</ele>
        <time>2019-07-14T08:10:32.000Z</time>
      </trkpt>
      <trkpt lat="43.12458" lon="1.2716">
        <ele>294.79998779297</ele>
        <time>2019-07-14T08:10:34.000Z</time>
      </trkpt>
      <trkpt lat="43.12449" lon="1.27157">
        <ele>294.20001220703</ele>
        <time>2019-07-14T08:10:35.000Z</time>
      </trkpt>
      <trkpt lat="43.12439" lon="1.27155">
        <ele>293.79998779297</ele>
        <time>2019-07-14T08:10:36.000Z</time>
      </trkpt>
      <trkpt lat="43.12429" lon="1.27155">
        <ele>293.39999389648</ele>
        <time>2019-07-14T08:10:37.000Z</time>
      </trkpt>
      <trkpt lat="43.12419" lon="1.27155">
        <ele>292.79998779297</ele>
        <time>2019-07-14T08:10:38.000Z</time>
      </trkpt>
      <trkpt lat="43.12412" lon="1.27156">
        <ele>292.39999389648</ele>
        <time>2019-07-14T08:10:39.000Z</time>
      </trkpt>
      <trkpt lat="43.12404" lon="1.27157">
        <ele>291.79998779297</ele>
        <time>2019-07-14T08:10:40.000Z</time>
      </trkpt>
      <trkpt lat="43.12397" lon="1.2716">
        <ele>291.39999389648</ele>
        <time>2019-07-14T08:10:41.000Z</time>
      </trkpt>
      <trkpt lat="43.1239" lon="1.27162">
        <ele>290.79998779297</ele>
        <time>2019-07-14T08:10:42.000Z</time>
      </trkpt>
      <trkpt lat="43.12384" lon="1.27165">
        <ele>290.79998779297</ele>
        <time>2019-07-14T08:10:43.000Z</time>
      </trkpt>
      <trkpt lat="43.12372" lon="1.27172">
        <ele>290.79998779297</ele>
        <time>2019-07-14T08:10:45.000Z</time>
      </trkpt>
      <trkpt lat="43.12363" lon="1.27181">
        <ele>290.79998779297</ele>
        <time>2019-07-14T08:10:47.000Z</time>
      </trkpt>
      <trkpt lat="43.12351" lon="1.27184">
        <ele>290.79998779297</ele>
        <time>2019-07-14T08:10:50.000Z</time>
      </trkpt>
      <trkpt lat="43.12348" lon="1.27185">
        <ele>290.79998779297</ele>
        <time>2019-07-14T08:10:51.000Z</time>
      </trkpt>
      <trkpt lat="43.1234" lon="1.27187">
        <ele>291.39999389648</ele>
        <time>2019-07-14T08:10:53.000Z</time>
      </trkpt>
      <trkpt lat="43.12337" lon="1.27188">
        <ele>291.79998779297</ele>
        <time>2019-07-14T08:10:54.000Z</time>
      </trkpt>
      <trkpt lat="43.12334" lon="1.27189">
        <ele>292.20001220703</ele>
        <time>2019-07-14T08:10:55.000Z</time>
      </trkpt>
      <trkpt lat="43.12332" lon="1.2719">
        <ele>292.79998779297</ele>
        <time>2019-07-14T08:10:56.000Z</time>
      </trkpt>
      <trkpt lat="43.12329" lon="1.27192">
        <ele>293.20001220703</ele>
        <time>2019-07-14T08:10:57.000Z</time>
      </trkpt>
      <trkpt lat="43.12327" lon="1.27192">
        <ele>293.20001220703</ele>
        <time>2019-07-14T08:10:58.000Z</time>
      </trkpt>
      <trkpt lat="43.12319" lon="1.27193">
        <ele>293.20001220703</ele>
        <time>2019-07-14T08:11:01.000Z</time>
      </trkpt>
      <trkpt lat="43.12317" lon="1.27193">
        <ele>293.60000610352</ele>
        <time>2019-07-14T08:11:02.000Z</time>
      </trkpt>
      <trkpt lat="43.12316" lon="1.27193">
        <ele>294</ele>
        <time>2019-07-14T08:11:03.000Z</time>
      </trkpt>
      <trkpt lat="43.12314" lon="1.27193">
        <ele>294.39999389648</ele>
        <time>2019-07-14T08:11:04.000Z</time>
      </trkpt>
      <trkpt lat="43.12312" lon="1.27193">
        <ele>294.79998779297</ele>
        <time>2019-07-14T08:11:05.000Z</time>
      </trkpt>
      <trkpt lat="43.1231" lon="1.27194">
        <ele>295.20001220703</ele>
        <time>2019-07-14T08:11:06.000Z</time>
      </trkpt>
      <trkpt lat="43.12308" lon="1.27194">
        <ele>295.60000610352</ele>
        <time>2019-07-14T08:11:07.000Z</time>
      </trkpt>
      <trkpt lat="43.12306" lon="1.27193">
        <ele>296.20001220703</ele>
        <time>2019-07-14T08:11:08.000Z</time>
      </trkpt>
      <trkpt lat="43.12303" lon="1.27193">
        <ele>296.60000610352</ele>
        <time>2019-07-14T08:11:09.000Z</time>
      </trkpt>
      <trkpt lat="43.12301" lon="1.27193">
        <ele>297</ele>
        <time>2019-07-14T08:11:10.000Z</time>
      </trkpt>
      <trkpt lat="43.12299" lon="1.27193">
        <ele>297.39999389648</ele>
        <time>2019-07-14T08:11:11.000Z</time>
      </trkpt>
      <trkpt lat="43.12296" lon="1.27193">
        <ele>298</ele>
        <time>2019-07-14T08:11:12.000Z</time>
      </trkpt>
      <trkpt lat="43.12294" lon="1.27193">
        <ele>298.39999389648</ele>
        <time>2019-07-14T08:11:13.000Z</time>
      </trkpt>
      <trkpt lat="43.12292" lon="1.27192">
        <ele>299.39999389648</ele>
        <time>2019-07-14T08:11:14.000Z</time>
      </trkpt>
      <trkpt lat="43.1229" lon="1.27192">
        <ele>300</ele>
        <time>2019-07-14T08:11:15.000Z</time>
      </trkpt>
      <trkpt lat="43.12288" lon="1.27192">
        <ele>300.39999389648</ele>
        <time>2019-07-14T08:11:16.000Z</time>
      </trkpt>
      <trkpt lat="43.12286" lon="1.27191">
        <ele>300.79998779297</ele>
        <time>2019-07-14T08:11:17.000Z</time>
      </trkpt>
      <trkpt lat="43.12283" lon="1.27192">
        <ele>301.39999389648</ele>
        <time>2019-07-14T08:11:18.000Z</time>
      </trkpt>
      <trkpt lat="43.12281" lon="1.27191">
        <ele>301.79998779297</ele>
        <time>2019-07-14T08:11:19.000Z</time>
      </trkpt>
      <trkpt lat="43.1228" lon="1.27191">
        <ele>302.20001220703</ele>
        <time>2019-07-14T08:11:20.000Z</time>
      </trkpt>
      <trkpt lat="43.12278" lon="1.27189">
        <ele>302.60000610352</ele>
        <time>2019-07-14T08:11:21.000Z</time>
      </trkpt>
      <trkpt lat="43.12276" lon="1.27189">
        <ele>303.20001220703</ele>
        <time>2019-07-14T08:11:22.000Z</time>
      </trkpt>
      <trkpt lat="43.12274" lon="1.27189">
        <ele>303.60000610352</ele>
        <time>2019-07-14T08:11:23.000Z</time>
      </trkpt>
      <trkpt lat="43.12272" lon="1.27188">
        <ele>304</ele>
        <time>2019-07-14T08:11:24.000Z</time>
      </trkpt>
      <trkpt lat="43.12267" lon="1.27187">
        <ele>304.60000610352</ele>
        <time>2019-07-14T08:11:26.000Z</time>
      </trkpt>
      <trkpt lat="43.12266" lon="1.27187">
        <ele>305</ele>
        <time>2019-07-14T08:11:27.000Z</time>
      </trkpt>
      <trkpt lat="43.12264" lon="1.27187">
        <ele>305.39999389648</ele>
        <time>2019-07-14T08:11:28.000Z</time>
      </trkpt>
      <trkpt lat="43.12262" lon="1.27186">
        <ele>305.79998779297</ele>
        <time>2019-07-14T08:11:29.000Z</time>
      </trkpt>
      <trkpt lat="43.1226" lon="1.27184">
        <ele>306.39999389648</ele>
        <time>2019-07-14T08:11:30.000Z</time>
      </trkpt>
      <trkpt lat="43.12256" lon="1.27183">
        <ele>306.79998779297</ele>
        <time>2019-07-14T08:11:32.000Z</time>
      </trkpt>
      <trkpt lat="43.12254" lon="1.27182">
        <ele>307.20001220703</ele>
        <time>2019-07-14T08:11:33.000Z</time>
      </trkpt>
      <trkpt lat="43.12252" lon="1.27182">
        <ele>307.79998779297</ele>
        <time>2019-07-14T08:11:34.000Z</time>
      </trkpt>
      <trkpt lat="43.1225" lon="1.27181">
        <ele>308.20001220703</ele>
        <time>2019-07-14T08:11:35.000Z</time>
      </trkpt>
      <trkpt lat="43.12249" lon="1.2718">
        <ele>308.60000610352</ele>
        <time>2019-07-14T08:11:36.000Z</time>
      </trkpt>
      <trkpt lat="43.12247" lon="1.27179">
        <ele>309</ele>
        <time>2019-07-14T08:11:37.000Z</time>
      </trkpt>
      <trkpt lat="43.12245" lon="1.27179">
        <ele>309.60000610352</ele>
        <time>2019-07-14T08:11:38.000Z</time>
      </trkpt>
      <trkpt lat="43.12244" lon="1.27178">
        <ele>310.39999389648</ele>
        <time>2019-07-14T08:11:39.000Z</time>
      </trkpt>
      <trkpt lat="43.12242" lon="1.27178">
        <ele>310.79998779297</ele>
        <time>2019-07-14T08:11:40.000Z</time>
      </trkpt>
      <trkpt lat="43.1224" lon="1.27178">
        <ele>311.20001220703</ele>
        <time>2019-07-14T08:11:41.000Z</time>
      </trkpt>
      <trkpt lat="43.12238" lon="1.27177">
        <ele>311.60000610352</ele>
        <time>2019-07-14T08:11:42.000Z</time>
      </trkpt>
      <trkpt lat="43.12236" lon="1.27176">
        <ele>312.20001220703</ele>
        <time>2019-07-14T08:11:43.000Z</time>
      </trkpt>
      <trkpt lat="43.12235" lon="1.27175">
        <ele>312.60000610352</ele>
        <time>2019-07-14T08:11:44.000Z</time>
      </trkpt>
      <trkpt lat="43.12233" lon="1.27174">
        <ele>313</ele>
        <time>2019-07-14T08:11:45.000Z</time>
      </trkpt>
      <trkpt lat="43.12229" lon="1.27172">
        <ele>313.39999389648</ele>
        <time>2019-07-14T08:11:47.000Z</time>
      </trkpt>
      <trkpt lat="43.12227" lon="1.27171">
        <ele>313.79998779297</ele>
        <time>2019-07-14T08:11:48.000Z</time>
      </trkpt>
      <trkpt lat="43.12224" lon="1.2717">
        <ele>314.39999389648</ele>
        <time>2019-07-14T08:11:49.000Z</time>
      </trkpt>
      <trkpt lat="43.12223" lon="1.27169">
        <ele>314.79998779297</ele>
        <time>2019-07-14T08:11:50.000Z</time>
      </trkpt>
      <trkpt lat="43.12221" lon="1.27169">
        <ele>315.20001220703</ele>
        <time>2019-07-14T08:11:51.000Z</time>
      </trkpt>
      <trkpt lat="43.12217" lon="1.27167">
        <ele>315.60000610352</ele>
        <time>2019-07-14T08:11:53.000Z</time>
      </trkpt>
      <trkpt lat="43.12215" lon="1.27166">
        <ele>316.20001220703</ele>
        <time>2019-07-14T08:11:54.000Z</time>
      </trkpt>
      <trkpt lat="43.12214" lon="1.27166">
        <ele>316.60000610352</ele>
        <time>2019-07-14T08:11:55.000Z</time>
      </trkpt>
      <trkpt lat="43.12212" lon="1.27165">
        <ele>317</ele>
        <time>2019-07-14T08:11:56.000Z</time>
      </trkpt>
      <trkpt lat="43.1221" lon="1.27165">
        <ele>317.39999389648</ele>
        <time>2019-07-14T08:11:57.000Z</time>
      </trkpt>
      <trkpt lat="43.12208" lon="1.27164">
        <ele>317.39999389648</ele>
        <time>2019-07-14T08:11:58.000Z</time>
      </trkpt>
      <trkpt lat="43.12203" lon="1.27163">
        <ele>317.79998779297</ele>
        <time>2019-07-14T08:12:01.000Z</time>
      </trkpt>
      <trkpt lat="43.12201" lon="1.27163">
        <ele>318.20001220703</ele>
        <time>2019-07-14T08:12:02.000Z</time>
      </trkpt>
      <trkpt lat="43.12199" lon="1.27162">
        <ele>318.79998779297</ele>
        <time>2019-07-14T08:12:03.000Z</time>
      </trkpt>
      <trkpt lat="43.12198" lon="1.27162">
        <ele>319.60000610352</ele>
        <time>2019-07-14T08:12:04.000Z</time>
      </trkpt>
      <trkpt lat="43.12191" lon="1.27161">
        <ele>320</ele>
        <time>2019-07-14T08:12:08.000Z</time>
      </trkpt>
      <trkpt lat="43.12189" lon="1.27161">
        <ele>320.39999389648</ele>
        <time>2019-07-14T08:12:09.000Z</time>
      </trkpt>
      <trkpt lat="43.12188" lon="1.27161">
        <ele>321</ele>
        <time>2019-07-14T08:12:10.000Z</time>
      </trkpt>
      <trkpt lat="43.12186" lon="1.27161">
        <ele>321.39999389648</ele>
        <time>2019-07-14T08:12:11.000Z</time>
      </trkpt>
      <trkpt lat="43.12185" lon="1.2716">
        <ele>321.79998779297</ele>
        <time>2019-07-14T08:12:12.000Z</time>
      </trkpt>
      <trkpt lat="43.12181" lon="1.2716">
        <ele>322.20001220703</ele>
        <time>2019-07-14T08:12:14.000Z</time>
      </trkpt>
      <trkpt lat="43.12179" lon="1.27161">
        <ele>322.60000610352</ele>
        <time>2019-07-14T08:12:15.000Z</time>
      </trkpt>
      <trkpt lat="43.12177" lon="1.27161">
        <ele>323</ele>
        <time>2019-07-14T08:12:16.000Z</time>
      </trkpt>
      <trkpt lat="43.12176" lon="1.27161">
        <ele>323.39999389648</ele>
        <time>2019-07-14T08:12:17.000Z</time>
      </trkpt>
      <trkpt lat="43.12174" lon="1.27162">
        <ele>323.79998779297</ele>
        <time>2019-07-14T08:12:18.000Z</time>
      </trkpt>
      <trkpt lat="43.12172" lon="1.27163">
        <ele>323.79998779297</ele>
        <time>2019-07-14T08:12:19.000Z</time>
      </trkpt>
      <trkpt lat="43.12171" lon="1.27164">
        <ele>324.39999389648</ele>
        <time>2019-07-14T08:12:20.000Z</time>
      </trkpt>
      <trkpt lat="43.12169" lon="1.27165">
        <ele>324.79998779297</ele>
        <time>2019-07-14T08:12:21.000Z</time>
      </trkpt>
      <trkpt lat="43.12167" lon="1.27165">
        <ele>325.20001220703</ele>
        <time>2019-07-14T08:12:22.000Z</time>
      </trkpt>
      <trkpt lat="43.12166" lon="1.27166">
        <ele>325.79998779297</ele>
        <time>2019-07-14T08:12:23.000Z</time>
      </trkpt>
      <trkpt lat="43.12164" lon="1.27167">
        <ele>326.20001220703</ele>
        <time>2019-07-14T08:12:24.000Z</time>
      </trkpt>
      <trkpt lat="43.12163" lon="1.27168">
        <ele>326.20001220703</ele>
        <time>2019-07-14T08:12:25.000Z</time>
      </trkpt>
      <trkpt lat="43.12162" lon="1.27169">
        <ele>326.79998779297</ele>
        <time>2019-07-14T08:12:26.000Z</time>
      </trkpt>
      <trkpt lat="43.12161" lon="1.2717">
        <ele>327.20001220703</ele>
        <time>2019-07-14T08:12:27.000Z</time>
      </trkpt>
      <trkpt lat="43.1216" lon="1.2717">
        <ele>328</ele>
        <time>2019-07-14T08:12:28.000Z</time>
      </trkpt>
      <trkpt lat="43.12159" lon="1.27169">
        <ele>328.39999389648</ele>
        <time>2019-07-14T08:12:29.000Z</time>
      </trkpt>
      <trkpt lat="43.12159" lon="1.27169">
        <ele>328.39999389648</ele>
        <time>2019-07-14T08:12:30.000Z</time>
      </trkpt>
      <trkpt lat="43.12152" lon="1.27173">
        <ele>332.60000610352</ele>
        <time>2019-07-14T08:14:44.000Z</time>
      </trkpt>
      <trkpt lat="43.12151" lon="1.27174">
        <ele>333</ele>
        <time>2019-07-14T08:14:45.000Z</time>
      </trkpt>
      <trkpt lat="43.12151" lon="1.27176">
        <ele>333.39999389648</ele>
        <time>2019-07-14T08:14:46.000Z</time>
      </trkpt>
      <trkpt lat="43.1215" lon="1.27178">
        <ele>333.79998779297</ele>
        <time>2019-07-14T08:14:47.000Z</time>
      </trkpt>
      <trkpt lat="43.12149" lon="1.27179">
        <ele>334.39999389648</ele>
        <time>2019-07-14T08:14:48.000Z</time>
      </trkpt>
      <trkpt lat="43.12149" lon="1.27181">
        <ele>334.79998779297</ele>
        <time>2019-07-14T08:14:49.000Z</time>
      </trkpt>
      <trkpt lat="43.12148" lon="1.27181">
        <ele>334.79998779297</ele>
        <time>2019-07-14T08:14:50.000Z</time>
      </trkpt>
      <trkpt lat="43.12147" lon="1.27184">
        <ele>334.79998779297</ele>
        <time>2019-07-14T08:14:55.000Z</time>
      </trkpt>
      <trkpt lat="43.12146" lon="1.27187">
        <ele>335.60000610352</ele>
        <time>2019-07-14T08:14:56.000Z</time>
      </trkpt>
      <trkpt lat="43.12144" lon="1.27189">
        <ele>336</ele>
        <time>2019-07-14T08:14:57.000Z</time>
      </trkpt>
      <trkpt lat="43.12142" lon="1.27191">
        <ele>336.39999389648</ele>
        <time>2019-07-14T08:14:58.000Z</time>
      </trkpt>
      <trkpt lat="43.1214" lon="1.27193">
        <ele>336.79998779297</ele>
        <time>2019-07-14T08:14:59.000Z</time>
      </trkpt>
      <trkpt lat="43.12138" lon="1.27197">
        <ele>337.20001220703</ele>
        <time>2019-07-14T08:15:01.000Z</time>
      </trkpt>
      <trkpt lat="43.12137" lon="1.27198">
        <ele>337.60000610352</ele>
        <time>2019-07-14T08:15:02.000Z</time>
      </trkpt>
      <trkpt lat="43.12135" lon="1.27199">
        <ele>338</ele>
        <time>2019-07-14T08:15:03.000Z</time>
      </trkpt>
      <trkpt lat="43.12133" lon="1.27201">
        <ele>338.39999389648</ele>
        <time>2019-07-14T08:15:04.000Z</time>
      </trkpt>
      <trkpt lat="43.12131" lon="1.27203">
        <ele>338.79998779297</ele>
        <time>2019-07-14T08:15:05.000Z</time>
      </trkpt>
      <trkpt lat="43.12129" lon="1.27204">
        <ele>338.79998779297</ele>
        <time>2019-07-14T08:15:06.000Z</time>
      </trkpt>
      <trkpt lat="43.12128" lon="1.27206">
        <ele>339.20001220703</ele>
        <time>2019-07-14T08:15:07.000Z</time>
      </trkpt>
      <trkpt lat="43.12127" lon="1.27208">
        <ele>339.60000610352</ele>
        <time>2019-07-14T08:15:08.000Z</time>
      </trkpt>
      <trkpt lat="43.12125" lon="1.2721">
        <ele>340.20001220703</ele>
        <time>2019-07-14T08:15:09.000Z</time>
      </trkpt>
      <trkpt lat="43.12124" lon="1.27212">
        <ele>340.60000610352</ele>
        <time>2019-07-14T08:15:10.000Z</time>
      </trkpt>
      <trkpt lat="43.12123" lon="1.27213">
        <ele>341</ele>
        <time>2019-07-14T08:15:11.000Z</time>
      </trkpt>
      <trkpt lat="43.12122" lon="1.27215">
        <ele>341</ele>
        <time>2019-07-14T08:15:12.000Z</time>
      </trkpt>
      <trkpt lat="43.12119" lon="1.27219">
        <ele>341.39999389648</ele>
        <time>2019-07-14T08:15:14.000Z</time>
      </trkpt>
      <trkpt lat="43.12118" lon="1.2722">
        <ele>341.79998779297</ele>
        <time>2019-07-14T08:15:15.000Z</time>
      </trkpt>
      <trkpt lat="43.12117" lon="1.27222">
        <ele>342.20001220703</ele>
        <time>2019-07-14T08:15:16.000Z</time>
      </trkpt>
      <trkpt lat="43.12116" lon="1.27223">
        <ele>342.79998779297</ele>
        <time>2019-07-14T08:15:17.000Z</time>
      </trkpt>
      <trkpt lat="43.12115" lon="1.27225">
        <ele>343.20001220703</ele>
        <time>2019-07-14T08:15:18.000Z</time>
      </trkpt>
      <trkpt lat="43.12113" lon="1.27227">
        <ele>343.20001220703</ele>
        <time>2019-07-14T08:15:19.000Z</time>
      </trkpt>
      <trkpt lat="43.1211" lon="1.27229">
        <ele>344</ele>
        <time>2019-07-14T08:15:21.000Z</time>
      </trkpt>
      <trkpt lat="43.12109" lon="1.2723">
        <ele>344.60000610352</ele>
        <time>2019-07-14T08:15:22.000Z</time>
      </trkpt>
      <trkpt lat="43.12109" lon="1.27231">
        <ele>345</ele>
        <time>2019-07-14T08:15:23.000Z</time>
      </trkpt>
      <trkpt lat="43.12108" lon="1.27232">
        <ele>345.39999389648</ele>
        <time>2019-07-14T08:15:24.000Z</time>
      </trkpt>
      <trkpt lat="43.12105" lon="1.27234">
        <ele>345.79998779297</ele>
        <time>2019-07-14T08:15:27.000Z</time>
      </trkpt>
      <trkpt lat="43.12105" lon="1.27235">
        <ele>346.20001220703</ele>
        <time>2019-07-14T08:15:28.000Z</time>
      </trkpt>
      <trkpt lat="43.12104" lon="1.27237">
        <ele>346.60000610352</ele>
        <time>2019-07-14T08:15:29.000Z</time>
      </trkpt>
      <trkpt lat="43.12103" lon="1.27238">
        <ele>347.20001220703</ele>
        <time>2019-07-14T08:15:30.000Z</time>
      </trkpt>
      <trkpt lat="43.12102" lon="1.2724">
        <ele>347.60000610352</ele>
        <time>2019-07-14T08:15:31.000Z</time>
      </trkpt>
      <trkpt lat="43.12102" lon="1.27242">
        <ele>347.60000610352</ele>
        <time>2019-07-14T08:15:32.000Z</time>
      </trkpt>
      <trkpt lat="43.12101" lon="1.27244">
        <ele>348</ele>
        <time>2019-07-14T08:15:33.000Z</time>
      </trkpt>
      <trkpt lat="43.121" lon="1.27246">
        <ele>348.39999389648</ele>
        <time>2019-07-14T08:15:34.000Z</time>
      </trkpt>
      <trkpt lat="43.12099" lon="1.27247">
        <ele>348.79998779297</ele>
        <time>2019-07-14T08:15:35.000Z</time>
      </trkpt>
      <trkpt lat="43.12098" lon="1.27248">
        <ele>349.20001220703</ele>
        <time>2019-07-14T08:15:36.000Z</time>
      </trkpt>
      <trkpt lat="43.12097" lon="1.2725">
        <ele>349.60000610352</ele>
        <time>2019-07-14T08:15:37.000Z</time>
      </trkpt>
      <trkpt lat="43.12097" lon="1.27253">
        <ele>349.60000610352</ele>
        <time>2019-07-14T08:15:38.000Z</time>
      </trkpt>
      <trkpt lat="43.12093" lon="1.27259">
        <ele>350</ele>
        <time>2019-07-14T08:15:41.000Z</time>
      </trkpt>
      <trkpt lat="43.12092" lon="1.2726">
        <ele>350.60000610352</ele>
        <time>2019-07-14T08:15:42.000Z</time>
      </trkpt>
      <trkpt lat="43.1209" lon="1.27263">
        <ele>351</ele>
        <time>2019-07-14T08:15:43.000Z</time>
      </trkpt>
      <trkpt lat="43.12089" lon="1.27265">
        <ele>351.39999389648</ele>
        <time>2019-07-14T08:15:44.000Z</time>
      </trkpt>
      <trkpt lat="43.12088" lon="1.27267">
        <ele>351.79998779297</ele>
        <time>2019-07-14T08:15:45.000Z</time>
      </trkpt>
      <trkpt lat="43.12085" lon="1.27271">
        <ele>352.20001220703</ele>
        <time>2019-07-14T08:15:47.000Z</time>
      </trkpt>
      <trkpt lat="43.12084" lon="1.27273">
        <ele>352.79998779297</ele>
        <time>2019-07-14T08:15:48.000Z</time>
      </trkpt>
      <trkpt lat="43.12084" lon="1.27275">
        <ele>353.20001220703</ele>
        <time>2019-07-14T08:15:49.000Z</time>
      </trkpt>
      <trkpt lat="43.12083" lon="1.27276">
        <ele>353.60000610352</ele>
        <time>2019-07-14T08:15:50.000Z</time>
      </trkpt>
      <trkpt lat="43.12082" lon="1.27278">
        <ele>354</ele>
        <time>2019-07-14T08:15:51.000Z</time>
      </trkpt>
      <trkpt lat="43.12077" lon="1.27283">
        <ele>354</ele>
        <time>2019-07-14T08:15:54.000Z</time>
      </trkpt>
      <trkpt lat="43.12076" lon="1.27284">
        <ele>354.39999389648</ele>
        <time>2019-07-14T08:15:55.000Z</time>
      </trkpt>
      <trkpt lat="43.12074" lon="1.27286">
        <ele>354.79998779297</ele>
        <time>2019-07-14T08:15:56.000Z</time>
      </trkpt>
      <trkpt lat="43.12073" lon="1.27288">
        <ele>355.20001220703</ele>
        <time>2019-07-14T08:15:57.000Z</time>
      </trkpt>
      <trkpt lat="43.12072" lon="1.2729">
        <ele>355.60000610352</ele>
        <time>2019-07-14T08:15:58.000Z</time>
      </trkpt>
      <trkpt lat="43.12071" lon="1.27292">
        <ele>356</ele>
        <time>2019-07-14T08:15:59.000Z</time>
      </trkpt>
      <trkpt lat="43.1207" lon="1.27296">
        <ele>356</ele>
        <time>2019-07-14T08:16:01.000Z</time>
      </trkpt>
      <trkpt lat="43.12069" lon="1.27298">
        <ele>356.39999389648</ele>
        <time>2019-07-14T08:16:02.000Z</time>
      </trkpt>
      <trkpt lat="43.12068" lon="1.273">
        <ele>357</ele>
        <time>2019-07-14T08:16:03.000Z</time>
      </trkpt>
      <trkpt lat="43.12068" lon="1.27303">
        <ele>357.39999389648</ele>
        <time>2019-07-14T08:16:04.000Z</time>
      </trkpt>
      <trkpt lat="43.12066" lon="1.27305">
        <ele>357.79998779297</ele>
        <time>2019-07-14T08:16:05.000Z</time>
      </trkpt>
      <trkpt lat="43.12065" lon="1.27308">
        <ele>358.20001220703</ele>
        <time>2019-07-14T08:16:06.000Z</time>
      </trkpt>
      <trkpt lat="43.12062" lon="1.27316">
        <ele>358.20001220703</ele>
        <time>2019-07-14T08:16:09.000Z</time>
      </trkpt>
      <trkpt lat="43.1206" lon="1.27319">
        <ele>358.79998779297</ele>
        <time>2019-07-14T08:16:10.000Z</time>
      </trkpt>
      <trkpt lat="43.12059" lon="1.27321">
        <ele>359.60000610352</ele>
        <time>2019-07-14T08:16:11.000Z</time>
      </trkpt>
      <trkpt lat="43.12058" lon="1.27323">
        <ele>360</ele>
        <time>2019-07-14T08:16:12.000Z</time>
      </trkpt>
      <trkpt lat="43.12057" lon="1.27326">
        <ele>360.39999389648</ele>
        <time>2019-07-14T08:16:13.000Z</time>
      </trkpt>
      <trkpt lat="43.12055" lon="1.27329">
        <ele>360.39999389648</ele>
        <time>2019-07-14T08:16:14.000Z</time>
      </trkpt>
      <trkpt lat="43.12052" lon="1.27336">
        <ele>360.79998779297</ele>
        <time>2019-07-14T08:16:17.000Z</time>
      </trkpt>
      <trkpt lat="43.1205" lon="1.2734">
        <ele>361.20001220703</ele>
        <time>2019-07-14T08:16:18.000Z</time>
      </trkpt>
      <trkpt lat="43.1205" lon="1.27342">
        <ele>361.60000610352</ele>
        <time>2019-07-14T08:16:19.000Z</time>
      </trkpt>
      <trkpt lat="43.12049" lon="1.27346">
        <ele>362</ele>
        <time>2019-07-14T08:16:20.000Z</time>
      </trkpt>
      <trkpt lat="43.12048" lon="1.27349">
        <ele>362.39999389648</ele>
        <time>2019-07-14T08:16:21.000Z</time>
      </trkpt>
      <trkpt lat="43.12043" lon="1.27361">
        <ele>362.79998779297</ele>
        <time>2019-07-14T08:16:25.000Z</time>
      </trkpt>
      <trkpt lat="43.12043" lon="1.27363">
        <ele>363.39999389648</ele>
        <time>2019-07-14T08:16:26.000Z</time>
      </trkpt>
      <trkpt lat="43.12042" lon="1.27366">
        <ele>363.79998779297</ele>
        <time>2019-07-14T08:16:27.000Z</time>
      </trkpt>
      <trkpt lat="43.1204" lon="1.27368">
        <ele>364.20001220703</ele>
        <time>2019-07-14T08:16:28.000Z</time>
      </trkpt>
      <trkpt lat="43.12039" lon="1.27371">
        <ele>364.60000610352</ele>
        <time>2019-07-14T08:16:29.000Z</time>
      </trkpt>
      <trkpt lat="43.12037" lon="1.27377">
        <ele>364.60000610352</ele>
        <time>2019-07-14T08:16:31.000Z</time>
      </trkpt>
      <trkpt lat="43.12031" lon="1.27386">
        <ele>365</ele>
        <time>2019-07-14T08:16:34.000Z</time>
      </trkpt>
      <trkpt lat="43.1203" lon="1.27388">
        <ele>366</ele>
        <time>2019-07-14T08:16:35.000Z</time>
      </trkpt>
      <trkpt lat="43.12028" lon="1.27391">
        <ele>366.39999389648</ele>
        <time>2019-07-14T08:16:36.000Z</time>
      </trkpt>
      <trkpt lat="43.12027" lon="1.27393">
        <ele>367</ele>
        <time>2019-07-14T08:16:37.000Z</time>
      </trkpt>
      <trkpt lat="43.12023" lon="1.27401">
        <ele>367.39999389648</ele>
        <time>2019-07-14T08:16:40.000Z</time>
      </trkpt>
      <trkpt lat="43.12023" lon="1.27404">
        <ele>367.79998779297</ele>
        <time>2019-07-14T08:16:41.000Z</time>
      </trkpt>
      <trkpt lat="43.12022" lon="1.27406">
        <ele>368.20001220703</ele>
        <time>2019-07-14T08:16:42.000Z</time>
      </trkpt>
      <trkpt lat="43.12021" lon="1.27409">
        <ele>368.60000610352</ele>
        <time>2019-07-14T08:16:43.000Z</time>
      </trkpt>
      <trkpt lat="43.1202" lon="1.27412">
        <ele>369</ele>
        <time>2019-07-14T08:16:44.000Z</time>
      </trkpt>
      <trkpt lat="43.12019" lon="1.27421">
        <ele>369</ele>
        <time>2019-07-14T08:16:48.000Z</time>
      </trkpt>
      <trkpt lat="43.12016" lon="1.27429">
        <ele>369.39999389648</ele>
        <time>2019-07-14T08:16:51.000Z</time>
      </trkpt>
      <trkpt lat="43.12016" lon="1.27431">
        <ele>369.79998779297</ele>
        <time>2019-07-14T08:16:52.000Z</time>
      </trkpt>
      <trkpt lat="43.12017" lon="1.27433">
        <ele>370.39999389648</ele>
        <time>2019-07-14T08:16:53.000Z</time>
      </trkpt>
      <trkpt lat="43.12016" lon="1.27435">
        <ele>370.79998779297</ele>
        <time>2019-07-14T08:16:54.000Z</time>
      </trkpt>
      <trkpt lat="43.12015" lon="1.27437">
        <ele>371.20001220703</ele>
        <time>2019-07-14T08:16:55.000Z</time>
      </trkpt>
      <trkpt lat="43.12014" lon="1.27439">
        <ele>371.20001220703</ele>
        <time>2019-07-14T08:16:56.000Z</time>
      </trkpt>
      <trkpt lat="43.12008" lon="1.27449">
        <ele>371.20001220703</ele>
        <time>2019-07-14T08:17:01.000Z</time>
      </trkpt>
      <trkpt lat="43.12007" lon="1.27451">
        <ele>371.20001220703</ele>
        <time>2019-07-14T08:17:02.000Z</time>
      </trkpt>
      <trkpt lat="43.12006" lon="1.27453">
        <ele>371.60000610352</ele>
        <time>2019-07-14T08:17:03.000Z</time>
      </trkpt>
      <trkpt lat="43.12006" lon="1.27455">
        <ele>372</ele>
        <time>2019-07-14T08:17:04.000Z</time>
      </trkpt>
      <trkpt lat="43.12005" lon="1.27458">
        <ele>372.39999389648</ele>
        <time>2019-07-14T08:17:05.000Z</time>
      </trkpt>
      <trkpt lat="43.12005" lon="1.2746">
        <ele>372.79998779297</ele>
        <time>2019-07-14T08:17:06.000Z</time>
      </trkpt>
      <trkpt lat="43.12005" lon="1.27462">
        <ele>373.20001220703</ele>
        <time>2019-07-14T08:17:07.000Z</time>
      </trkpt>
      <trkpt lat="43.12003" lon="1.27466">
        <ele>373.20001220703</ele>
        <time>2019-07-14T08:17:09.000Z</time>
      </trkpt>
      <trkpt lat="43.11999" lon="1.27473">
        <ele>373.20001220703</ele>
        <time>2019-07-14T08:17:13.000Z</time>
      </trkpt>
      <trkpt lat="43.11995" lon="1.27478">
        <ele>373.20001220703</ele>
        <time>2019-07-14T08:17:16.000Z</time>
      </trkpt>
      <trkpt lat="43.11994" lon="1.2748">
        <ele>373.60000610352</ele>
        <time>2019-07-14T08:17:17.000Z</time>
      </trkpt>
      <trkpt lat="43.11993" lon="1.27482">
        <ele>374</ele>
        <time>2019-07-14T08:17:18.000Z</time>
      </trkpt>
      <trkpt lat="43.11993" lon="1.27484">
        <ele>374.39999389648</ele>
        <time>2019-07-14T08:17:19.000Z</time>
      </trkpt>
      <trkpt lat="43.11992" lon="1.27486">
        <ele>374.79998779297</ele>
        <time>2019-07-14T08:17:20.000Z</time>
      </trkpt>
      <trkpt lat="43.11993" lon="1.27487">
        <ele>375.39999389648</ele>
        <time>2019-07-14T08:17:21.000Z</time>
      </trkpt>
      <trkpt lat="43.11994" lon="1.27492">
        <ele>375.39999389648</ele>
        <time>2019-07-14T08:17:24.000Z</time>
      </trkpt>
      <trkpt lat="43.11994" lon="1.27497">
        <ele>375.39999389648</ele>
        <time>2019-07-14T08:17:26.000Z</time>
      </trkpt>
      <trkpt lat="43.11992" lon="1.27507">
        <ele>375.39999389648</ele>
        <time>2019-07-14T08:17:31.000Z</time>
      </trkpt>
      <trkpt lat="43.11989" lon="1.27509">
        <ele>375.39999389648</ele>
        <time>2019-07-14T08:17:33.000Z</time>
      </trkpt>
      <trkpt lat="43.11981" lon="1.27515">
        <ele>375.39999389648</ele>
        <time>2019-07-14T08:17:37.000Z</time>
      </trkpt>
      <trkpt lat="43.11972" lon="1.27524">
        <ele>375.39999389648</ele>
        <time>2019-07-14T08:17:40.000Z</time>
      </trkpt>
      <trkpt lat="43.11969" lon="1.27528">
        <ele>375.39999389648</ele>
        <time>2019-07-14T08:17:41.000Z</time>
      </trkpt>
      <trkpt lat="43.11962" lon="1.27538">
        <ele>375.39999389648</ele>
        <time>2019-07-14T08:17:43.000Z</time>
      </trkpt>
      <trkpt lat="43.11954" lon="1.2755">
        <ele>375.39999389648</ele>
        <time>2019-07-14T08:17:45.000Z</time>
      </trkpt>
      <trkpt lat="43.11948" lon="1.27553">
        <ele>374.79998779297</ele>
        <time>2019-07-14T08:17:46.000Z</time>
      </trkpt>
      <trkpt lat="43.11942" lon="1.27555">
        <ele>374.39999389648</ele>
        <time>2019-07-14T08:17:47.000Z</time>
      </trkpt>
      <trkpt lat="43.11935" lon="1.27556">
        <ele>373.79998779297</ele>
        <time>2019-07-14T08:17:48.000Z</time>
      </trkpt>
      <trkpt lat="43.11928" lon="1.27557">
        <ele>373.39999389648</ele>
        <time>2019-07-14T08:17:49.000Z</time>
      </trkpt>
      <trkpt lat="43.11923" lon="1.27558">
        <ele>372.20001220703</ele>
        <time>2019-07-14T08:17:50.000Z</time>
      </trkpt>
      <trkpt lat="43.11918" lon="1.27559">
        <ele>371.60000610352</ele>
        <time>2019-07-14T08:17:51.000Z</time>
      </trkpt>
      <trkpt lat="43.11914" lon="1.27559">
        <ele>371</ele>
        <time>2019-07-14T08:17:52.000Z</time>
      </trkpt>
      <trkpt lat="43.11902" lon="1.27565">
        <ele>370.60000610352</ele>
        <time>2019-07-14T08:17:55.000Z</time>
      </trkpt>
      <trkpt lat="43.11899" lon="1.27568">
        <ele>370</ele>
        <time>2019-07-14T08:17:56.000Z</time>
      </trkpt>
      <trkpt lat="43.11895" lon="1.2757">
        <ele>369.60000610352</ele>
        <time>2019-07-14T08:17:57.000Z</time>
      </trkpt>
      <trkpt lat="43.11892" lon="1.27572">
        <ele>369.20001220703</ele>
        <time>2019-07-14T08:17:58.000Z</time>
      </trkpt>
      <trkpt lat="43.1189" lon="1.27573">
        <ele>368.79998779297</ele>
        <time>2019-07-14T08:17:59.000Z</time>
      </trkpt>
      <trkpt lat="43.11887" lon="1.27574">
        <ele>368.79998779297</ele>
        <time>2019-07-14T08:18:00.000Z</time>
      </trkpt>
      <trkpt lat="43.11872" lon="1.27579">
        <ele>368.79998779297</ele>
        <time>2019-07-14T08:18:04.000Z</time>
      </trkpt>
      <trkpt lat="43.11867" lon="1.27581">
        <ele>368.79998779297</ele>
        <time>2019-07-14T08:18:05.000Z</time>
      </trkpt>
      <trkpt lat="43.11862" lon="1.27584">
        <ele>368.20001220703</ele>
        <time>2019-07-14T08:18:06.000Z</time>
      </trkpt>
      <trkpt lat="43.11858" lon="1.27584">
        <ele>367.79998779297</ele>
        <time>2019-07-14T08:18:07.000Z</time>
      </trkpt>
      <trkpt lat="43.11852" lon="1.27585">
        <ele>367.20001220703</ele>
        <time>2019-07-14T08:18:08.000Z</time>
      </trkpt>
      <trkpt lat="43.11847" lon="1.27586">
        <ele>366.39999389648</ele>
        <time>2019-07-14T08:18:09.000Z</time>
      </trkpt>
      <trkpt lat="43.11843" lon="1.27588">
        <ele>365.60000610352</ele>
        <time>2019-07-14T08:18:11.000Z</time>
      </trkpt>
      <trkpt lat="43.11839" lon="1.2759">
        <ele>365</ele>
        <time>2019-07-14T08:18:12.000Z</time>
      </trkpt>
      <trkpt lat="43.11834" lon="1.27593">
        <ele>364.20001220703</ele>
        <time>2019-07-14T08:18:13.000Z</time>
      </trkpt>
      <trkpt lat="43.11831" lon="1.27598">
        <ele>363.39999389648</ele>
        <time>2019-07-14T08:18:14.000Z</time>
      </trkpt>
      <trkpt lat="43.11827" lon="1.27602">
        <ele>362.60000610352</ele>
        <time>2019-07-14T08:18:15.000Z</time>
      </trkpt>
      <trkpt lat="43.11824" lon="1.27605">
        <ele>361</ele>
        <time>2019-07-14T08:18:16.000Z</time>
      </trkpt>
      <trkpt lat="43.1182" lon="1.27609">
        <ele>361</ele>
        <time>2019-07-14T08:18:17.000Z</time>
      </trkpt>
      <trkpt lat="43.11811" lon="1.2762">
        <ele>361</ele>
        <time>2019-07-14T08:18:21.000Z</time>
      </trkpt>
      <trkpt lat="43.11806" lon="1.27627">
        <ele>361.39999389648</ele>
        <time>2019-07-14T08:18:23.000Z</time>
      </trkpt>
      <trkpt lat="43.11804" lon="1.2763">
        <ele>362</ele>
        <time>2019-07-14T08:18:24.000Z</time>
      </trkpt>
      <trkpt lat="43.11802" lon="1.27633">
        <ele>362.39999389648</ele>
        <time>2019-07-14T08:18:25.000Z</time>
      </trkpt>
      <trkpt lat="43.118" lon="1.27636">
        <ele>362.79998779297</ele>
        <time>2019-07-14T08:18:26.000Z</time>
      </trkpt>
      <trkpt lat="43.11797" lon="1.27639">
        <ele>363.20001220703</ele>
        <time>2019-07-14T08:18:27.000Z</time>
      </trkpt>
      <trkpt lat="43.11796" lon="1.27642">
        <ele>363.20001220703</ele>
        <time>2019-07-14T08:18:28.000Z</time>
      </trkpt>
      <trkpt lat="43.11789" lon="1.27653">
        <ele>363.60000610352</ele>
        <time>2019-07-14T08:18:32.000Z</time>
      </trkpt>
      <trkpt lat="43.11787" lon="1.27655">
        <ele>364</ele>
        <time>2019-07-14T08:18:33.000Z</time>
      </trkpt>
      <trkpt lat="43.11784" lon="1.27656">
        <ele>364.39999389648</ele>
        <time>2019-07-14T08:18:34.000Z</time>
      </trkpt>
      <trkpt lat="43.11781" lon="1.27658">
        <ele>364.79998779297</ele>
        <time>2019-07-14T08:18:35.000Z</time>
      </trkpt>
      <trkpt lat="43.11779" lon="1.2766">
        <ele>365.39999389648</ele>
        <time>2019-07-14T08:18:36.000Z</time>
      </trkpt>
      <trkpt lat="43.11772" lon="1.27665">
        <ele>365.39999389648</ele>
        <time>2019-07-14T08:18:39.000Z</time>
      </trkpt>
      <trkpt lat="43.1177" lon="1.27666">
        <ele>366.20001220703</ele>
        <time>2019-07-14T08:18:40.000Z</time>
      </trkpt>
      <trkpt lat="43.11767" lon="1.27668">
        <ele>366.60000610352</ele>
        <time>2019-07-14T08:18:41.000Z</time>
      </trkpt>
      <trkpt lat="43.11764" lon="1.27669">
        <ele>367</ele>
        <time>2019-07-14T08:18:42.000Z</time>
      </trkpt>
      <trkpt lat="43.11762" lon="1.2767">
        <ele>367.39999389648</ele>
        <time>2019-07-14T08:18:43.000Z</time>
      </trkpt>
      <trkpt lat="43.1176" lon="1.27671">
        <ele>367.39999389648</ele>
        <time>2019-07-14T08:18:44.000Z</time>
      </trkpt>
      <trkpt lat="43.11746" lon="1.27677">
        <ele>367.39999389648</ele>
        <time>2019-07-14T08:18:50.000Z</time>
      </trkpt>
      <trkpt lat="43.11741" lon="1.2768">
        <ele>367.79998779297</ele>
        <time>2019-07-14T08:18:53.000Z</time>
      </trkpt>
      <trkpt lat="43.11739" lon="1.27681">
        <ele>368.20001220703</ele>
        <time>2019-07-14T08:18:54.000Z</time>
      </trkpt>
      <trkpt lat="43.11737" lon="1.27683">
        <ele>368.60000610352</ele>
        <time>2019-07-14T08:18:55.000Z</time>
      </trkpt>
      <trkpt lat="43.11735" lon="1.27685">
        <ele>369</ele>
        <time>2019-07-14T08:18:56.000Z</time>
      </trkpt>
      <trkpt lat="43.11732" lon="1.27687">
        <ele>369.39999389648</ele>
        <time>2019-07-14T08:18:57.000Z</time>
      </trkpt>
      <trkpt lat="43.1173" lon="1.27689">
        <ele>369.39999389648</ele>
        <time>2019-07-14T08:18:58.000Z</time>
      </trkpt>
      <trkpt lat="43.11718" lon="1.27696">
        <ele>369.39999389648</ele>
        <time>2019-07-14T08:19:03.000Z</time>
      </trkpt>
      <trkpt lat="43.11706" lon="1.27703">
        <ele>369.39999389648</ele>
        <time>2019-07-14T08:19:08.000Z</time>
      </trkpt>
      <trkpt lat="43.11692" lon="1.27709">
        <ele>369.79998779297</ele>
        <time>2019-07-14T08:19:13.000Z</time>
      </trkpt>
      <trkpt lat="43.11689" lon="1.2771">
        <ele>370.20001220703</ele>
        <time>2019-07-14T08:19:14.000Z</time>
      </trkpt>
      <trkpt lat="43.11686" lon="1.27712">
        <ele>370.60000610352</ele>
        <time>2019-07-14T08:19:15.000Z</time>
      </trkpt>
      <trkpt lat="43.11683" lon="1.27712">
        <ele>371</ele>
        <time>2019-07-14T08:19:16.000Z</time>
      </trkpt>
      <trkpt lat="43.1168" lon="1.27712">
        <ele>371.39999389648</ele>
        <time>2019-07-14T08:19:17.000Z</time>
      </trkpt>
      <trkpt lat="43.11673" lon="1.27713">
        <ele>371.39999389648</ele>
        <time>2019-07-14T08:19:19.000Z</time>
      </trkpt>
      <trkpt lat="43.11655" lon="1.27713">
        <ele>371.39999389648</ele>
        <time>2019-07-14T08:19:24.000Z</time>
      </trkpt>
      <trkpt lat="43.11632" lon="1.27701">
        <ele>371.39999389648</ele>
        <time>2019-07-14T08:19:28.000Z</time>
      </trkpt>
      <trkpt lat="43.11625" lon="1.27697">
        <ele>371</ele>
        <time>2019-07-14T08:19:29.000Z</time>
      </trkpt>
      <trkpt lat="43.11618" lon="1.27694">
        <ele>370</ele>
        <time>2019-07-14T08:19:30.000Z</time>
      </trkpt>
      <trkpt lat="43.11612" lon="1.27691">
        <ele>369.39999389648</ele>
        <time>2019-07-14T08:19:31.000Z</time>
      </trkpt>
      <trkpt lat="43.11605" lon="1.27688">
        <ele>368.60000610352</ele>
        <time>2019-07-14T08:19:32.000Z</time>
      </trkpt>
      <trkpt lat="43.11598" lon="1.27686">
        <ele>368</ele>
        <time>2019-07-14T08:19:33.000Z</time>
      </trkpt>
      <trkpt lat="43.11592" lon="1.27682">
        <ele>367.39999389648</ele>
        <time>2019-07-14T08:19:34.000Z</time>
      </trkpt>
      <trkpt lat="43.11585" lon="1.27678">
        <ele>366.79998779297</ele>
        <time>2019-07-14T08:19:35.000Z</time>
      </trkpt>
      <trkpt lat="43.11579" lon="1.27672">
        <ele>366.20001220703</ele>
        <time>2019-07-14T08:19:36.000Z</time>
      </trkpt>
      <trkpt lat="43.11572" lon="1.27665">
        <ele>365.60000610352</ele>
        <time>2019-07-14T08:19:37.000Z</time>
      </trkpt>
      <trkpt lat="43.11566" lon="1.2766">
        <ele>365</ele>
        <time>2019-07-14T08:19:38.000Z</time>
      </trkpt>
      <trkpt lat="43.11558" lon="1.27656">
        <ele>364.20001220703</ele>
        <time>2019-07-14T08:19:39.000Z</time>
      </trkpt>
      <trkpt lat="43.11553" lon="1.27653">
        <ele>363.60000610352</ele>
        <time>2019-07-14T08:19:40.000Z</time>
      </trkpt>
      <trkpt lat="43.11548" lon="1.27652">
        <ele>363</ele>
        <time>2019-07-14T08:19:41.000Z</time>
      </trkpt>
      <trkpt lat="43.11545" lon="1.27652">
        <ele>362.20001220703</ele>
        <time>2019-07-14T08:19:42.000Z</time>
      </trkpt>
      <trkpt lat="43.11539" lon="1.27651">
        <ele>362.20001220703</ele>
        <time>2019-07-14T08:19:45.000Z</time>
      </trkpt>
      <trkpt lat="43.11528" lon="1.27654">
        <ele>362.20001220703</ele>
        <time>2019-07-14T08:19:49.000Z</time>
      </trkpt>
      <trkpt lat="43.11509" lon="1.27664">
        <ele>362.20001220703</ele>
        <time>2019-07-14T08:19:55.000Z</time>
      </trkpt>
      <trkpt lat="43.11502" lon="1.27675">
        <ele>362.20001220703</ele>
        <time>2019-07-14T08:19:59.000Z</time>
      </trkpt>
      <trkpt lat="43.11499" lon="1.27679">
        <ele>362.20001220703</ele>
        <time>2019-07-14T08:20:01.000Z</time>
      </trkpt>
      <trkpt lat="43.11495" lon="1.27681">
        <ele>362.60000610352</ele>
        <time>2019-07-14T08:20:04.000Z</time>
      </trkpt>
      <trkpt lat="43.11496" lon="1.2768">
        <ele>363.20001220703</ele>
        <time>2019-07-14T08:20:05.000Z</time>
      </trkpt>
      <trkpt lat="43.11496" lon="1.2768">
        <ele>363.60000610352</ele>
        <time>2019-07-14T08:20:06.000Z</time>
      </trkpt>
      <trkpt lat="43.11496" lon="1.27679">
        <ele>364</ele>
        <time>2019-07-14T08:20:07.000Z</time>
      </trkpt>
      <trkpt lat="43.11495" lon="1.27679">
        <ele>364.39999389648</ele>
        <time>2019-07-14T08:20:08.000Z</time>
      </trkpt>
      <trkpt lat="43.11495" lon="1.27678">
        <ele>364.39999389648</ele>
        <time>2019-07-14T08:20:11.000Z</time>
      </trkpt>
      <trkpt lat="43.11492" lon="1.27674">
        <ele>364.39999389648</ele>
        <time>2019-07-14T08:21:46.000Z</time>
      </trkpt>
      <trkpt lat="43.11491" lon="1.27671">
        <ele>364.39999389648</ele>
        <time>2019-07-14T08:21:47.000Z</time>
      </trkpt>
      <trkpt lat="43.11487" lon="1.2765">
        <ele>364.39999389648</ele>
        <time>2019-07-14T08:21:52.000Z</time>
      </trkpt>
      <trkpt lat="43.11485" lon="1.27633">
        <ele>364.79998779297</ele>
        <time>2019-07-14T08:21:56.000Z</time>
      </trkpt>
      <trkpt lat="43.11485" lon="1.27629">
        <ele>365.20001220703</ele>
        <time>2019-07-14T08:21:57.000Z</time>
      </trkpt>
      <trkpt lat="43.11485" lon="1.27624">
        <ele>366.20001220703</ele>
        <time>2019-07-14T08:21:58.000Z</time>
      </trkpt>
      <trkpt lat="43.11485" lon="1.2762">
        <ele>366.60000610352</ele>
        <time>2019-07-14T08:21:59.000Z</time>
      </trkpt>
      <trkpt lat="43.11485" lon="1.27605">
        <ele>367</ele>
        <time>2019-07-14T08:22:03.000Z</time>
      </trkpt>
      <trkpt lat="43.11486" lon="1.27602">
        <ele>367.39999389648</ele>
        <time>2019-07-14T08:22:04.000Z</time>
      </trkpt>
      <trkpt lat="43.11487" lon="1.27598">
        <ele>367.79998779297</ele>
        <time>2019-07-14T08:22:05.000Z</time>
      </trkpt>
      <trkpt lat="43.11487" lon="1.27595">
        <ele>368.20001220703</ele>
        <time>2019-07-14T08:22:06.000Z</time>
      </trkpt>
      <trkpt lat="43.11488" lon="1.27592">
        <ele>368.60000610352</ele>
        <time>2019-07-14T08:22:07.000Z</time>
      </trkpt>
      <trkpt lat="43.11489" lon="1.27578">
        <ele>369</ele>
        <time>2019-07-14T08:22:11.000Z</time>
      </trkpt>
      <trkpt lat="43.11489" lon="1.27575">
        <ele>369.39999389648</ele>
        <time>2019-07-14T08:22:12.000Z</time>
      </trkpt>
      <trkpt lat="43.11489" lon="1.27572">
        <ele>369.79998779297</ele>
        <time>2019-07-14T08:22:13.000Z</time>
      </trkpt>
      <trkpt lat="43.11489" lon="1.27569">
        <ele>370.20001220703</ele>
        <time>2019-07-14T08:22:14.000Z</time>
      </trkpt>
      <trkpt lat="43.11489" lon="1.27566">
        <ele>370.60000610352</ele>
        <time>2019-07-14T08:22:15.000Z</time>
      </trkpt>
      <trkpt lat="43.1149" lon="1.27558">
        <ele>370.60000610352</ele>
        <time>2019-07-14T08:22:18.000Z</time>
      </trkpt>
      <trkpt lat="43.11491" lon="1.2755">
        <ele>371</ele>
        <time>2019-07-14T08:22:20.000Z</time>
      </trkpt>
      <trkpt lat="43.11491" lon="1.27547">
        <ele>371.60000610352</ele>
        <time>2019-07-14T08:22:21.000Z</time>
      </trkpt>
      <trkpt lat="43.11492" lon="1.27543">
        <ele>372</ele>
        <time>2019-07-14T08:22:22.000Z</time>
      </trkpt>
      <trkpt lat="43.11493" lon="1.27539">
        <ele>372.79998779297</ele>
        <time>2019-07-14T08:22:23.000Z</time>
      </trkpt>
      <trkpt lat="43.11495" lon="1.27525">
        <ele>373.20001220703</ele>
        <time>2019-07-14T08:22:27.000Z</time>
      </trkpt>
      <trkpt lat="43.11496" lon="1.27522">
        <ele>373.60000610352</ele>
        <time>2019-07-14T08:22:28.000Z</time>
      </trkpt>
      <trkpt lat="43.11496" lon="1.27518">
        <ele>374</ele>
        <time>2019-07-14T08:22:29.000Z</time>
      </trkpt>
      <trkpt lat="43.11497" lon="1.27515">
        <ele>374.39999389648</ele>
        <time>2019-07-14T08:22:30.000Z</time>
      </trkpt>
      <trkpt lat="43.11497" lon="1.27511">
        <ele>374.79998779297</ele>
        <time>2019-07-14T08:22:31.000Z</time>
      </trkpt>
      <trkpt lat="43.11499" lon="1.2749">
        <ele>375.20001220703</ele>
        <time>2019-07-14T08:22:37.000Z</time>
      </trkpt>
      <trkpt lat="43.11499" lon="1.27487">
        <ele>375.60000610352</ele>
        <time>2019-07-14T08:22:38.000Z</time>
      </trkpt>
      <trkpt lat="43.115" lon="1.27484">
        <ele>376</ele>
        <time>2019-07-14T08:22:39.000Z</time>
      </trkpt>
      <trkpt lat="43.115" lon="1.2748">
        <ele>376.60000610352</ele>
        <time>2019-07-14T08:22:40.000Z</time>
      </trkpt>
      <trkpt lat="43.11501" lon="1.27477">
        <ele>377</ele>
        <time>2019-07-14T08:22:41.000Z</time>
      </trkpt>
      <trkpt lat="43.11502" lon="1.2747">
        <ele>377</ele>
        <time>2019-07-14T08:22:43.000Z</time>
      </trkpt>
      <trkpt lat="43.11504" lon="1.27456">
        <ele>377.79998779297</ele>
        <time>2019-07-14T08:22:47.000Z</time>
      </trkpt>
      <trkpt lat="43.11504" lon="1.27452">
        <ele>378.20001220703</ele>
        <time>2019-07-14T08:22:48.000Z</time>
      </trkpt>
      <trkpt lat="43.11505" lon="1.27449">
        <ele>378.60000610352</ele>
        <time>2019-07-14T08:22:49.000Z</time>
      </trkpt>
      <trkpt lat="43.11506" lon="1.27446">
        <ele>379</ele>
        <time>2019-07-14T08:22:50.000Z</time>
      </trkpt>
      <trkpt lat="43.11508" lon="1.27434">
        <ele>379</ele>
        <time>2019-07-14T08:22:54.000Z</time>
      </trkpt>
      <trkpt lat="43.11508" lon="1.27424">
        <ele>379.60000610352</ele>
        <time>2019-07-14T08:22:57.000Z</time>
      </trkpt>
      <trkpt lat="43.11509" lon="1.2742">
        <ele>380</ele>
        <time>2019-07-14T08:22:58.000Z</time>
      </trkpt>
      <trkpt lat="43.11509" lon="1.27417">
        <ele>380.39999389648</ele>
        <time>2019-07-14T08:22:59.000Z</time>
      </trkpt>
      <trkpt lat="43.1151" lon="1.27414">
        <ele>380.79998779297</ele>
        <time>2019-07-14T08:23:00.000Z</time>
      </trkpt>
      <trkpt lat="43.1151" lon="1.27411">
        <ele>381.20001220703</ele>
        <time>2019-07-14T08:23:01.000Z</time>
      </trkpt>
      <trkpt lat="43.11512" lon="1.27396">
        <ele>381.79998779297</ele>
        <time>2019-07-14T08:23:06.000Z</time>
      </trkpt>
      <trkpt lat="43.11511" lon="1.27393">
        <ele>382.20001220703</ele>
        <time>2019-07-14T08:23:07.000Z</time>
      </trkpt>
      <trkpt lat="43.11511" lon="1.2739">
        <ele>382.60000610352</ele>
        <time>2019-07-14T08:23:08.000Z</time>
      </trkpt>
      <trkpt lat="43.11512" lon="1.27386">
        <ele>383.20001220703</ele>
        <time>2019-07-14T08:23:09.000Z</time>
      </trkpt>
      <trkpt lat="43.11512" lon="1.27383">
        <ele>383.60000610352</ele>
        <time>2019-07-14T08:23:10.000Z</time>
      </trkpt>
      <trkpt lat="43.11513" lon="1.27372">
        <ele>383.60000610352</ele>
        <time>2019-07-14T08:23:14.000Z</time>
      </trkpt>
      <trkpt lat="43.11514" lon="1.27369">
        <ele>384</ele>
        <time>2019-07-14T08:23:15.000Z</time>
      </trkpt>
      <trkpt lat="43.11514" lon="1.27366">
        <ele>384.39999389648</ele>
        <time>2019-07-14T08:23:16.000Z</time>
      </trkpt>
      <trkpt lat="43.11514" lon="1.27363">
        <ele>384.79998779297</ele>
        <time>2019-07-14T08:23:17.000Z</time>
      </trkpt>
      <trkpt lat="43.11515" lon="1.2736">
        <ele>385.20001220703</ele>
        <time>2019-07-14T08:23:18.000Z</time>
      </trkpt>
      <trkpt lat="43.11516" lon="1.27357">
        <ele>385.79998779297</ele>
        <time>2019-07-14T08:23:19.000Z</time>
      </trkpt>
      <trkpt lat="43.11517" lon="1.27351">
        <ele>385.79998779297</ele>
        <time>2019-07-14T08:23:21.000Z</time>
      </trkpt>
      <trkpt lat="43.11519" lon="1.27341">
        <ele>386.20001220703</ele>
        <time>2019-07-14T08:23:24.000Z</time>
      </trkpt>
      <trkpt lat="43.11519" lon="1.27339">
        <ele>386.60000610352</ele>
        <time>2019-07-14T08:23:25.000Z</time>
      </trkpt>
      <trkpt lat="43.11519" lon="1.27336">
        <ele>387</ele>
        <time>2019-07-14T08:23:26.000Z</time>
      </trkpt>
      <trkpt lat="43.1152" lon="1.27332">
        <ele>387.39999389648</ele>
        <time>2019-07-14T08:23:27.000Z</time>
      </trkpt>
      <trkpt lat="43.1152" lon="1.2733">
        <ele>387.79998779297</ele>
        <time>2019-07-14T08:23:28.000Z</time>
      </trkpt>
      <trkpt lat="43.11519" lon="1.2732">
        <ele>388.39999389648</ele>
        <time>2019-07-14T08:23:31.000Z</time>
      </trkpt>
      <trkpt lat="43.11518" lon="1.27317">
        <ele>389.20001220703</ele>
        <time>2019-07-14T08:23:32.000Z</time>
      </trkpt>
      <trkpt lat="43.11517" lon="1.27314">
        <ele>389.79998779297</ele>
        <time>2019-07-14T08:23:33.000Z</time>
      </trkpt>
      <trkpt lat="43.11516" lon="1.27311">
        <ele>390.60000610352</ele>
        <time>2019-07-14T08:23:34.000Z</time>
      </trkpt>
      <trkpt lat="43.11515" lon="1.27308">
        <ele>391.20001220703</ele>
        <time>2019-07-14T08:23:35.000Z</time>
      </trkpt>
      <trkpt lat="43.11511" lon="1.27296">
        <ele>391.20001220703</ele>
        <time>2019-07-14T08:23:39.000Z</time>
      </trkpt>
      <trkpt lat="43.11508" lon="1.27287">
        <ele>391.20001220703</ele>
        <time>2019-07-14T08:23:42.000Z</time>
      </trkpt>
      <trkpt lat="43.11507" lon="1.27285">
        <ele>391.20001220703</ele>
        <time>2019-07-14T08:23:43.000Z</time>
      </trkpt>
      <trkpt lat="43.11506" lon="1.27282">
        <ele>391.20001220703</ele>
        <time>2019-07-14T08:23:44.000Z</time>
      </trkpt>
      <trkpt lat="43.11499" lon="1.2726">
        <ele>391.60000610352</ele>
        <time>2019-07-14T08:23:51.000Z</time>
      </trkpt>
      <trkpt lat="43.11498" lon="1.27257">
        <ele>392</ele>
        <time>2019-07-14T08:23:52.000Z</time>
      </trkpt>
      <trkpt lat="43.11498" lon="1.27254">
        <ele>392.39999389648</ele>
        <time>2019-07-14T08:23:53.000Z</time>
      </trkpt>
      <trkpt lat="43.11497" lon="1.27251">
        <ele>392.79998779297</ele>
        <time>2019-07-14T08:23:54.000Z</time>
      </trkpt>
      <trkpt lat="43.11497" lon="1.27248">
        <ele>393.39999389648</ele>
        <time>2019-07-14T08:23:55.000Z</time>
      </trkpt>
      <trkpt lat="43.11496" lon="1.27242">
        <ele>393.39999389648</ele>
        <time>2019-07-14T08:23:57.000Z</time>
      </trkpt>
      <trkpt lat="43.11495" lon="1.27226">
        <ele>394.20001220703</ele>
        <time>2019-07-14T08:24:02.000Z</time>
      </trkpt>
      <trkpt lat="43.11495" lon="1.27222">
        <ele>394.60000610352</ele>
        <time>2019-07-14T08:24:03.000Z</time>
      </trkpt>
      <trkpt lat="43.11496" lon="1.27218">
        <ele>395.20001220703</ele>
        <time>2019-07-14T08:24:04.000Z</time>
      </trkpt>
      <trkpt lat="43.11496" lon="1.27215">
        <ele>395.60000610352</ele>
        <time>2019-07-14T08:24:05.000Z</time>
      </trkpt>
      <trkpt lat="43.11496" lon="1.27202">
        <ele>396</ele>
        <time>2019-07-14T08:24:09.000Z</time>
      </trkpt>
      <trkpt lat="43.11496" lon="1.27198">
        <ele>396.39999389648</ele>
        <time>2019-07-14T08:24:10.000Z</time>
      </trkpt>
      <trkpt lat="43.11497" lon="1.27195">
        <ele>397</ele>
        <time>2019-07-14T08:24:11.000Z</time>
      </trkpt>
      <trkpt lat="43.11497" lon="1.27192">
        <ele>397.39999389648</ele>
        <time>2019-07-14T08:24:12.000Z</time>
      </trkpt>
      <trkpt lat="43.11497" lon="1.27188">
        <ele>397.79998779297</ele>
        <time>2019-07-14T08:24:13.000Z</time>
      </trkpt>
      <trkpt lat="43.11503" lon="1.2717">
        <ele>397.79998779297</ele>
        <time>2019-07-14T08:24:19.000Z</time>
      </trkpt>
      <trkpt lat="43.11507" lon="1.27155">
        <ele>398.20001220703</ele>
        <time>2019-07-14T08:24:24.000Z</time>
      </trkpt>
      <trkpt lat="43.11509" lon="1.27152">
        <ele>398.60000610352</ele>
        <time>2019-07-14T08:24:25.000Z</time>
      </trkpt>
      <trkpt lat="43.1151" lon="1.27149">
        <ele>399</ele>
        <time>2019-07-14T08:24:26.000Z</time>
      </trkpt>
      <trkpt lat="43.11512" lon="1.27147">
        <ele>400</ele>
        <time>2019-07-14T08:24:27.000Z</time>
      </trkpt>
      <trkpt lat="43.11513" lon="1.27144">
        <ele>400</ele>
        <time>2019-07-14T08:24:28.000Z</time>
      </trkpt>
      <trkpt lat="43.11516" lon="1.27139">
        <ele>400</ele>
        <time>2019-07-14T08:24:30.000Z</time>
      </trkpt>
      <trkpt lat="43.11525" lon="1.27127">
        <ele>400.39999389648</ele>
        <time>2019-07-14T08:24:35.000Z</time>
      </trkpt>
      <trkpt lat="43.11527" lon="1.27125">
        <ele>400.79998779297</ele>
        <time>2019-07-14T08:24:36.000Z</time>
      </trkpt>
      <trkpt lat="43.11528" lon="1.27123">
        <ele>401.20001220703</ele>
        <time>2019-07-14T08:24:37.000Z</time>
      </trkpt>
      <trkpt lat="43.1153" lon="1.27121">
        <ele>401.60000610352</ele>
        <time>2019-07-14T08:24:38.000Z</time>
      </trkpt>
      <trkpt lat="43.11532" lon="1.27118">
        <ele>402</ele>
        <time>2019-07-14T08:24:39.000Z</time>
      </trkpt>
      <trkpt lat="43.11538" lon="1.2711">
        <ele>402</ele>
        <time>2019-07-14T08:24:43.000Z</time>
      </trkpt>
      <trkpt lat="43.11542" lon="1.27106">
        <ele>402.39999389648</ele>
        <time>2019-07-14T08:24:45.000Z</time>
      </trkpt>
      <trkpt lat="43.11544" lon="1.27104">
        <ele>402.79998779297</ele>
        <time>2019-07-14T08:24:46.000Z</time>
      </trkpt>
      <trkpt lat="43.11546" lon="1.27102">
        <ele>403.20001220703</ele>
        <time>2019-07-14T08:24:47.000Z</time>
      </trkpt>
      <trkpt lat="43.11547" lon="1.271">
        <ele>403.60000610352</ele>
        <time>2019-07-14T08:24:48.000Z</time>
      </trkpt>
      <trkpt lat="43.11549" lon="1.27098">
        <ele>404.20001220703</ele>
        <time>2019-07-14T08:24:49.000Z</time>
      </trkpt>
      <trkpt lat="43.11551" lon="1.27096">
        <ele>404.20001220703</ele>
        <time>2019-07-14T08:24:50.000Z</time>
      </trkpt>
      <trkpt lat="43.11558" lon="1.27089">
        <ele>404.60000610352</ele>
        <time>2019-07-14T08:24:55.000Z</time>
      </trkpt>
      <trkpt lat="43.11559" lon="1.27087">
        <ele>405</ele>
        <time>2019-07-14T08:24:56.000Z</time>
      </trkpt>
      <trkpt lat="43.1156" lon="1.27085">
        <ele>405.39999389648</ele>
        <time>2019-07-14T08:24:57.000Z</time>
      </trkpt>
      <trkpt lat="43.11561" lon="1.27083">
        <ele>405.79998779297</ele>
        <time>2019-07-14T08:24:58.000Z</time>
      </trkpt>
      <trkpt lat="43.11561" lon="1.27079">
        <ele>406.20001220703</ele>
        <time>2019-07-14T08:24:59.000Z</time>
      </trkpt>
      <trkpt lat="43.11561" lon="1.27069">
        <ele>406.20001220703</ele>
        <time>2019-07-14T08:25:01.000Z</time>
      </trkpt>
      <trkpt lat="43.11562" lon="1.27058">
        <ele>406.20001220703</ele>
        <time>2019-07-14T08:25:03.000Z</time>
      </trkpt>
      <trkpt lat="43.11565" lon="1.27043">
        <ele>405.79998779297</ele>
        <time>2019-07-14T08:25:05.000Z</time>
      </trkpt>
      <trkpt lat="43.11566" lon="1.27035">
        <ele>405.39999389648</ele>
        <time>2019-07-14T08:25:06.000Z</time>
      </trkpt>
      <trkpt lat="43.11567" lon="1.27028">
        <ele>405</ele>
        <time>2019-07-14T08:25:07.000Z</time>
      </trkpt>
      <trkpt lat="43.11569" lon="1.27023">
        <ele>404.60000610352</ele>
        <time>2019-07-14T08:25:08.000Z</time>
      </trkpt>
      <trkpt lat="43.1157" lon="1.27017">
        <ele>404.20001220703</ele>
        <time>2019-07-14T08:25:09.000Z</time>
      </trkpt>
      <trkpt lat="43.11571" lon="1.27011">
        <ele>404.20001220703</ele>
        <time>2019-07-14T08:25:10.000Z</time>
      </trkpt>
      <trkpt lat="43.11572" lon="1.27005">
        <ele>403.79998779297</ele>
        <time>2019-07-14T08:25:11.000Z</time>
      </trkpt>
      <trkpt lat="43.11573" lon="1.26999">
        <ele>403.39999389648</ele>
        <time>2019-07-14T08:25:12.000Z</time>
      </trkpt>
      <trkpt lat="43.11574" lon="1.26993">
        <ele>403</ele>
        <time>2019-07-14T08:25:13.000Z</time>
      </trkpt>
      <trkpt lat="43.11574" lon="1.26985">
        <ele>402.60000610352</ele>
        <time>2019-07-14T08:25:14.000Z</time>
      </trkpt>
      <trkpt lat="43.11574" lon="1.26977">
        <ele>402.20001220703</ele>
        <time>2019-07-14T08:25:15.000Z</time>
      </trkpt>
      <trkpt lat="43.11574" lon="1.26968">
        <ele>401.39999389648</ele>
        <time>2019-07-14T08:25:16.000Z</time>
      </trkpt>
      <trkpt lat="43.11574" lon="1.26958">
        <ele>400.79998779297</ele>
        <time>2019-07-14T08:25:17.000Z</time>
      </trkpt>
      <trkpt lat="43.11574" lon="1.26949">
        <ele>400.20001220703</ele>
        <time>2019-07-14T08:25:18.000Z</time>
      </trkpt>
      <trkpt lat="43.11575" lon="1.26941">
        <ele>399.79998779297</ele>
        <time>2019-07-14T08:25:19.000Z</time>
      </trkpt>
      <trkpt lat="43.11576" lon="1.26932">
        <ele>399.20001220703</ele>
        <time>2019-07-14T08:25:20.000Z</time>
      </trkpt>
      <trkpt lat="43.11576" lon="1.26923">
        <ele>398.60000610352</ele>
        <time>2019-07-14T08:25:21.000Z</time>
      </trkpt>
      <trkpt lat="43.11577" lon="1.26914">
        <ele>398</ele>
        <time>2019-07-14T08:25:22.000Z</time>
      </trkpt>
      <trkpt lat="43.11578" lon="1.26905">
        <ele>397.39999389648</ele>
        <time>2019-07-14T08:25:23.000Z</time>
      </trkpt>
      <trkpt lat="43.11579" lon="1.26897">
        <ele>396.79998779297</ele>
        <time>2019-07-14T08:25:24.000Z</time>
      </trkpt>
      <trkpt lat="43.11579" lon="1.26888">
        <ele>396.20001220703</ele>
        <time>2019-07-14T08:25:25.000Z</time>
      </trkpt>
      <trkpt lat="43.11581" lon="1.26882">
        <ele>395.60000610352</ele>
        <time>2019-07-14T08:25:26.000Z</time>
      </trkpt>
      <trkpt lat="43.11583" lon="1.26876">
        <ele>395</ele>
        <time>2019-07-14T08:25:27.000Z</time>
      </trkpt>
      <trkpt lat="43.11585" lon="1.26869">
        <ele>394.39999389648</ele>
        <time>2019-07-14T08:25:28.000Z</time>
      </trkpt>
      <trkpt lat="43.11584" lon="1.26863">
        <ele>393.79998779297</ele>
        <time>2019-07-14T08:25:29.000Z</time>
      </trkpt>
      <trkpt lat="43.11585" lon="1.26856">
        <ele>393.20001220703</ele>
        <time>2019-07-14T08:25:30.000Z</time>
      </trkpt>
      <trkpt lat="43.11585" lon="1.26848">
        <ele>392.60000610352</ele>
        <time>2019-07-14T08:25:31.000Z</time>
      </trkpt>
      <trkpt lat="43.11586" lon="1.2684">
        <ele>392</ele>
        <time>2019-07-14T08:25:32.000Z</time>
      </trkpt>
      <trkpt lat="43.11587" lon="1.26831">
        <ele>391.20001220703</ele>
        <time>2019-07-14T08:25:33.000Z</time>
      </trkpt>
      <trkpt lat="43.11591" lon="1.26822">
        <ele>390.39999389648</ele>
        <time>2019-07-14T08:25:34.000Z</time>
      </trkpt>
      <trkpt lat="43.11595" lon="1.26814">
        <ele>389.39999389648</ele>
        <time>2019-07-14T08:25:35.000Z</time>
      </trkpt>
      <trkpt lat="43.116" lon="1.26806">
        <ele>388.60000610352</ele>
        <time>2019-07-14T08:25:36.000Z</time>
      </trkpt>
      <trkpt lat="43.11604" lon="1.268">
        <ele>387.79998779297</ele>
        <time>2019-07-14T08:25:37.000Z</time>
      </trkpt>
      <trkpt lat="43.11607" lon="1.26796">
        <ele>387</ele>
        <time>2019-07-14T08:25:38.000Z</time>
      </trkpt>
      <trkpt lat="43.11608" lon="1.26791">
        <ele>386.20001220703</ele>
        <time>2019-07-14T08:25:39.000Z</time>
      </trkpt>
      <trkpt lat="43.11608" lon="1.26785">
        <ele>385.39999389648</ele>
        <time>2019-07-14T08:25:40.000Z</time>
      </trkpt>
      <trkpt lat="43.11609" lon="1.26781">
        <ele>384.60000610352</ele>
        <time>2019-07-14T08:25:41.000Z</time>
      </trkpt>
      <trkpt lat="43.1161" lon="1.26771">
        <ele>384.60000610352</ele>
        <time>2019-07-14T08:25:43.000Z</time>
      </trkpt>
      <trkpt lat="43.11611" lon="1.26754">
        <ele>384</ele>
        <time>2019-07-14T08:25:46.000Z</time>
      </trkpt>
      <trkpt lat="43.11611" lon="1.26746">
        <ele>383.60000610352</ele>
        <time>2019-07-14T08:25:47.000Z</time>
      </trkpt>
      <trkpt lat="43.11612" lon="1.26739">
        <ele>383.20001220703</ele>
        <time>2019-07-14T08:25:48.000Z</time>
      </trkpt>
      <trkpt lat="43.11612" lon="1.2673">
        <ele>382.60000610352</ele>
        <time>2019-07-14T08:25:49.000Z</time>
      </trkpt>
      <trkpt lat="43.11612" lon="1.26722">
        <ele>382.20001220703</ele>
        <time>2019-07-14T08:25:50.000Z</time>
      </trkpt>
      <trkpt lat="43.11614" lon="1.26693">
        <ele>381.60000610352</ele>
        <time>2019-07-14T08:25:53.000Z</time>
      </trkpt>
      <trkpt lat="43.11616" lon="1.26683">
        <ele>381.20001220703</ele>
        <time>2019-07-14T08:25:54.000Z</time>
      </trkpt>
      <trkpt lat="43.11616" lon="1.26675">
        <ele>380.60000610352</ele>
        <time>2019-07-14T08:25:55.000Z</time>
      </trkpt>
      <trkpt lat="43.11617" lon="1.26667">
        <ele>380.20001220703</ele>
        <time>2019-07-14T08:25:56.000Z</time>
      </trkpt>
      <trkpt lat="43.11618" lon="1.2666">
        <ele>379.60000610352</ele>
        <time>2019-07-14T08:25:57.000Z</time>
      </trkpt>
      <trkpt lat="43.11619" lon="1.26652">
        <ele>379</ele>
        <time>2019-07-14T08:25:58.000Z</time>
      </trkpt>
      <trkpt lat="43.1162" lon="1.26645">
        <ele>378.60000610352</ele>
        <time>2019-07-14T08:25:59.000Z</time>
      </trkpt>
      <trkpt lat="43.11621" lon="1.26637">
        <ele>377.79998779297</ele>
        <time>2019-07-14T08:26:00.000Z</time>
      </trkpt>
      <trkpt lat="43.11622" lon="1.26628">
        <ele>377.20001220703</ele>
        <time>2019-07-14T08:26:01.000Z</time>
      </trkpt>
      <trkpt lat="43.11623" lon="1.2662">
        <ele>376.39999389648</ele>
        <time>2019-07-14T08:26:02.000Z</time>
      </trkpt>
      <trkpt lat="43.11624" lon="1.2661">
        <ele>375.60000610352</ele>
        <time>2019-07-14T08:26:03.000Z</time>
      </trkpt>
      <trkpt lat="43.11625" lon="1.26602">
        <ele>374.79998779297</ele>
        <time>2019-07-14T08:26:04.000Z</time>
      </trkpt>
      <trkpt lat="43.11626" lon="1.26593">
        <ele>373.79998779297</ele>
        <time>2019-07-14T08:26:05.000Z</time>
      </trkpt>
      <trkpt lat="43.11627" lon="1.26585">
        <ele>372.20001220703</ele>
        <time>2019-07-14T08:26:06.000Z</time>
      </trkpt>
      <trkpt lat="43.11628" lon="1.26578">
        <ele>371.20001220703</ele>
        <time>2019-07-14T08:26:07.000Z</time>
      </trkpt>
      <trkpt lat="43.1163" lon="1.2657">
        <ele>370.20001220703</ele>
        <time>2019-07-14T08:26:08.000Z</time>
      </trkpt>
      <trkpt lat="43.11632" lon="1.2656">
        <ele>369.39999389648</ele>
        <time>2019-07-14T08:26:09.000Z</time>
      </trkpt>
      <trkpt lat="43.11633" lon="1.2655">
        <ele>368.60000610352</ele>
        <time>2019-07-14T08:26:10.000Z</time>
      </trkpt>
      <trkpt lat="43.11634" lon="1.26541">
        <ele>367.79998779297</ele>
        <time>2019-07-14T08:26:11.000Z</time>
      </trkpt>
      <trkpt lat="43.11635" lon="1.26532">
        <ele>367</ele>
        <time>2019-07-14T08:26:12.000Z</time>
      </trkpt>
      <trkpt lat="43.11635" lon="1.26523">
        <ele>366</ele>
        <time>2019-07-14T08:26:13.000Z</time>
      </trkpt>
      <trkpt lat="43.11636" lon="1.26515">
        <ele>365.20001220703</ele>
        <time>2019-07-14T08:26:14.000Z</time>
      </trkpt>
      <trkpt lat="43.11637" lon="1.26507">
        <ele>364.39999389648</ele>
        <time>2019-07-14T08:26:15.000Z</time>
      </trkpt>
      <trkpt lat="43.11638" lon="1.26501">
        <ele>363.60000610352</ele>
        <time>2019-07-14T08:26:16.000Z</time>
      </trkpt>
      <trkpt lat="43.11639" lon="1.26494">
        <ele>362.79998779297</ele>
        <time>2019-07-14T08:26:17.000Z</time>
      </trkpt>
      <trkpt lat="43.1164" lon="1.26485">
        <ele>362.20001220703</ele>
        <time>2019-07-14T08:26:18.000Z</time>
      </trkpt>
      <trkpt lat="43.11641" lon="1.26477">
        <ele>361.39999389648</ele>
        <time>2019-07-14T08:26:19.000Z</time>
      </trkpt>
      <trkpt lat="43.11643" lon="1.26469">
        <ele>360.60000610352</ele>
        <time>2019-07-14T08:26:20.000Z</time>
      </trkpt>
      <trkpt lat="43.11643" lon="1.2646">
        <ele>360</ele>
        <time>2019-07-14T08:26:21.000Z</time>
      </trkpt>
      <trkpt lat="43.11644" lon="1.26452">
        <ele>359.20001220703</ele>
        <time>2019-07-14T08:26:22.000Z</time>
      </trkpt>
      <trkpt lat="43.11645" lon="1.26444">
        <ele>358.39999389648</ele>
        <time>2019-07-14T08:26:23.000Z</time>
      </trkpt>
      <trkpt lat="43.11645" lon="1.26436">
        <ele>357.79998779297</ele>
        <time>2019-07-14T08:26:24.000Z</time>
      </trkpt>
      <trkpt lat="43.11646" lon="1.26429">
        <ele>357</ele>
        <time>2019-07-14T08:26:25.000Z</time>
      </trkpt>
      <trkpt lat="43.11647" lon="1.26421">
        <ele>356.20001220703</ele>
        <time>2019-07-14T08:26:26.000Z</time>
      </trkpt>
      <trkpt lat="43.11647" lon="1.26414">
        <ele>355.39999389648</ele>
        <time>2019-07-14T08:26:27.000Z</time>
      </trkpt>
      <trkpt lat="43.11648" lon="1.26406">
        <ele>354.60000610352</ele>
        <time>2019-07-14T08:26:28.000Z</time>
      </trkpt>
      <trkpt lat="43.11648" lon="1.26398">
        <ele>354</ele>
        <time>2019-07-14T08:26:29.000Z</time>
      </trkpt>
      <trkpt lat="43.11649" lon="1.26391">
        <ele>352.79998779297</ele>
        <time>2019-07-14T08:26:30.000Z</time>
      </trkpt>
      <trkpt lat="43.11649" lon="1.26384">
        <ele>352</ele>
        <time>2019-07-14T08:26:31.000Z</time>
      </trkpt>
      <trkpt lat="43.1165" lon="1.26377">
        <ele>351.20001220703</ele>
        <time>2019-07-14T08:26:32.000Z</time>
      </trkpt>
      <trkpt lat="43.11651" lon="1.2637">
        <ele>350.60000610352</ele>
        <time>2019-07-14T08:26:33.000Z</time>
      </trkpt>
      <trkpt lat="43.11652" lon="1.26362">
        <ele>349.79998779297</ele>
        <time>2019-07-14T08:26:34.000Z</time>
      </trkpt>
      <trkpt lat="43.11653" lon="1.26356">
        <ele>349.20001220703</ele>
        <time>2019-07-14T08:26:35.000Z</time>
      </trkpt>
      <trkpt lat="43.11654" lon="1.26348">
        <ele>348.39999389648</ele>
        <time>2019-07-14T08:26:36.000Z</time>
      </trkpt>
      <trkpt lat="43.11654" lon="1.2634">
        <ele>347.79998779297</ele>
        <time>2019-07-14T08:26:37.000Z</time>
      </trkpt>
      <trkpt lat="43.11655" lon="1.26332">
        <ele>347</ele>
        <time>2019-07-14T08:26:38.000Z</time>
      </trkpt>
      <trkpt lat="43.11655" lon="1.26325">
        <ele>346.20001220703</ele>
        <time>2019-07-14T08:26:39.000Z</time>
      </trkpt>
      <trkpt lat="43.11656" lon="1.26317">
        <ele>345.60000610352</ele>
        <time>2019-07-14T08:26:40.000Z</time>
      </trkpt>
      <trkpt lat="43.11657" lon="1.2631">
        <ele>345</ele>
        <time>2019-07-14T08:26:41.000Z</time>
      </trkpt>
      <trkpt lat="43.11657" lon="1.26304">
        <ele>344.39999389648</ele>
        <time>2019-07-14T08:26:42.000Z</time>
      </trkpt>
      <trkpt lat="43.11658" lon="1.26297">
        <ele>343.79998779297</ele>
        <time>2019-07-14T08:26:43.000Z</time>
      </trkpt>
      <trkpt lat="43.1166" lon="1.26289">
        <ele>343.20001220703</ele>
        <time>2019-07-14T08:26:44.000Z</time>
      </trkpt>
      <trkpt lat="43.1166" lon="1.26283">
        <ele>342.60000610352</ele>
        <time>2019-07-14T08:26:45.000Z</time>
      </trkpt>
      <trkpt lat="43.11661" lon="1.26277">
        <ele>342</ele>
        <time>2019-07-14T08:26:46.000Z</time>
      </trkpt>
      <trkpt lat="43.11662" lon="1.2627">
        <ele>341.39999389648</ele>
        <time>2019-07-14T08:26:47.000Z</time>
      </trkpt>
      <trkpt lat="43.11663" lon="1.26261">
        <ele>340.79998779297</ele>
        <time>2019-07-14T08:26:48.000Z</time>
      </trkpt>
      <trkpt lat="43.11663" lon="1.26252">
        <ele>340.20001220703</ele>
        <time>2019-07-14T08:26:49.000Z</time>
      </trkpt>
      <trkpt lat="43.11664" lon="1.26245">
        <ele>339.39999389648</ele>
        <time>2019-07-14T08:26:50.000Z</time>
      </trkpt>
      <trkpt lat="43.11665" lon="1.26237">
        <ele>338.79998779297</ele>
        <time>2019-07-14T08:26:51.000Z</time>
      </trkpt>
      <trkpt lat="43.11666" lon="1.26229">
        <ele>338</ele>
        <time>2019-07-14T08:26:52.000Z</time>
      </trkpt>
      <trkpt lat="43.11666" lon="1.26222">
        <ele>337.20001220703</ele>
        <time>2019-07-14T08:26:53.000Z</time>
      </trkpt>
      <trkpt lat="43.11667" lon="1.26215">
        <ele>336.60000610352</ele>
        <time>2019-07-14T08:26:54.000Z</time>
      </trkpt>
      <trkpt lat="43.11668" lon="1.26207">
        <ele>334.79998779297</ele>
        <time>2019-07-14T08:26:55.000Z</time>
      </trkpt>
      <trkpt lat="43.11669" lon="1.262">
        <ele>334</ele>
        <time>2019-07-14T08:26:56.000Z</time>
      </trkpt>
      <trkpt lat="43.11669" lon="1.26194">
        <ele>333.20001220703</ele>
        <time>2019-07-14T08:26:57.000Z</time>
      </trkpt>
      <trkpt lat="43.1167" lon="1.26187">
        <ele>332.20001220703</ele>
        <time>2019-07-14T08:26:58.000Z</time>
      </trkpt>
      <trkpt lat="43.11671" lon="1.26181">
        <ele>331.39999389648</ele>
        <time>2019-07-14T08:26:59.000Z</time>
      </trkpt>
      <trkpt lat="43.11672" lon="1.26174">
        <ele>330.60000610352</ele>
        <time>2019-07-14T08:27:00.000Z</time>
      </trkpt>
      <trkpt lat="43.11672" lon="1.26168">
        <ele>329.79998779297</ele>
        <time>2019-07-14T08:27:01.000Z</time>
      </trkpt>
      <trkpt lat="43.11673" lon="1.26162">
        <ele>329.20001220703</ele>
        <time>2019-07-14T08:27:02.000Z</time>
      </trkpt>
      <trkpt lat="43.11674" lon="1.26156">
        <ele>328.60000610352</ele>
        <time>2019-07-14T08:27:03.000Z</time>
      </trkpt>
      <trkpt lat="43.11675" lon="1.26149">
        <ele>327.79998779297</ele>
        <time>2019-07-14T08:27:04.000Z</time>
      </trkpt>
      <trkpt lat="43.11676" lon="1.26142">
        <ele>327</ele>
        <time>2019-07-14T08:27:05.000Z</time>
      </trkpt>
      <trkpt lat="43.11677" lon="1.26135">
        <ele>326.39999389648</ele>
        <time>2019-07-14T08:27:06.000Z</time>
      </trkpt>
      <trkpt lat="43.1168" lon="1.26128">
        <ele>325.60000610352</ele>
        <time>2019-07-14T08:27:07.000Z</time>
      </trkpt>
      <trkpt lat="43.11683" lon="1.26122">
        <ele>324.79998779297</ele>
        <time>2019-07-14T08:27:08.000Z</time>
      </trkpt>
      <trkpt lat="43.11687" lon="1.26118">
        <ele>324</ele>
        <time>2019-07-14T08:27:09.000Z</time>
      </trkpt>
      <trkpt lat="43.11691" lon="1.26115">
        <ele>323.20001220703</ele>
        <time>2019-07-14T08:27:10.000Z</time>
      </trkpt>
      <trkpt lat="43.11695" lon="1.26112">
        <ele>322.39999389648</ele>
        <time>2019-07-14T08:27:11.000Z</time>
      </trkpt>
      <trkpt lat="43.11699" lon="1.26108">
        <ele>321.39999389648</ele>
        <time>2019-07-14T08:27:12.000Z</time>
      </trkpt>
      <trkpt lat="43.11703" lon="1.26105">
        <ele>320.60000610352</ele>
        <time>2019-07-14T08:27:13.000Z</time>
      </trkpt>
      <trkpt lat="43.11706" lon="1.26104">
        <ele>319.79998779297</ele>
        <time>2019-07-14T08:27:14.000Z</time>
      </trkpt>
      <trkpt lat="43.1171" lon="1.26104">
        <ele>319.20001220703</ele>
        <time>2019-07-14T08:27:15.000Z</time>
      </trkpt>
      <trkpt lat="43.11713" lon="1.26103">
        <ele>318.39999389648</ele>
        <time>2019-07-14T08:27:16.000Z</time>
      </trkpt>
      <trkpt lat="43.11714" lon="1.261">
        <ele>317.60000610352</ele>
        <time>2019-07-14T08:27:17.000Z</time>
      </trkpt>
      <trkpt lat="43.11711" lon="1.26097">
        <ele>317</ele>
        <time>2019-07-14T08:27:18.000Z</time>
      </trkpt>
      <trkpt lat="43.11708" lon="1.26096">
        <ele>316.60000610352</ele>
        <time>2019-07-14T08:27:19.000Z</time>
      </trkpt>
      <trkpt lat="43.11703" lon="1.26096">
        <ele>315.60000610352</ele>
        <time>2019-07-14T08:27:20.000Z</time>
      </trkpt>
      <trkpt lat="43.11699" lon="1.26097">
        <ele>315</ele>
        <time>2019-07-14T08:27:21.000Z</time>
      </trkpt>
      <trkpt lat="43.11694" lon="1.26097">
        <ele>314.39999389648</ele>
        <time>2019-07-14T08:27:22.000Z</time>
      </trkpt>
      <trkpt lat="43.11688" lon="1.26097">
        <ele>313.79998779297</ele>
        <time>2019-07-14T08:27:23.000Z</time>
      </trkpt>
      <trkpt lat="43.11685" lon="1.26097">
        <ele>313.20001220703</ele>
        <time>2019-07-14T08:27:24.000Z</time>
      </trkpt>
      <trkpt lat="43.11681" lon="1.26097">
        <ele>312.60000610352</ele>
        <time>2019-07-14T08:27:25.000Z</time>
      </trkpt>
      <trkpt lat="43.11678" lon="1.26097">
        <ele>312</ele>
        <time>2019-07-14T08:27:26.000Z</time>
      </trkpt>
      <trkpt lat="43.11675" lon="1.26096">
        <ele>311.39999389648</ele>
        <time>2019-07-14T08:27:27.000Z</time>
      </trkpt>
      <trkpt lat="43.11671" lon="1.26097">
        <ele>310.79998779297</ele>
        <time>2019-07-14T08:27:28.000Z</time>
      </trkpt>
      <trkpt lat="43.11667" lon="1.261">
        <ele>310.20001220703</ele>
        <time>2019-07-14T08:27:29.000Z</time>
      </trkpt>
      <trkpt lat="43.11663" lon="1.26102">
        <ele>309.79998779297</ele>
        <time>2019-07-14T08:27:30.000Z</time>
      </trkpt>
      <trkpt lat="43.11658" lon="1.26105">
        <ele>309.20001220703</ele>
        <time>2019-07-14T08:27:31.000Z</time>
      </trkpt>
      <trkpt lat="43.11654" lon="1.26108">
        <ele>308.39999389648</ele>
        <time>2019-07-14T08:27:32.000Z</time>
      </trkpt>
      <trkpt lat="43.1165" lon="1.26109">
        <ele>307.79998779297</ele>
        <time>2019-07-14T08:27:33.000Z</time>
      </trkpt>
      <trkpt lat="43.11646" lon="1.2611">
        <ele>307.20001220703</ele>
        <time>2019-07-14T08:27:34.000Z</time>
      </trkpt>
      <trkpt lat="43.11642" lon="1.26109">
        <ele>306.39999389648</ele>
        <time>2019-07-14T08:27:35.000Z</time>
      </trkpt>
      <trkpt lat="43.11636" lon="1.26107">
        <ele>305.79998779297</ele>
        <time>2019-07-14T08:27:36.000Z</time>
      </trkpt>
      <trkpt lat="43.11629" lon="1.26104">
        <ele>305.39999389648</ele>
        <time>2019-07-14T08:27:37.000Z</time>
      </trkpt>
      <trkpt lat="43.11624" lon="1.261">
        <ele>304.79998779297</ele>
        <time>2019-07-14T08:27:38.000Z</time>
      </trkpt>
      <trkpt lat="43.11621" lon="1.26097">
        <ele>304.20001220703</ele>
        <time>2019-07-14T08:27:39.000Z</time>
      </trkpt>
      <trkpt lat="43.11617" lon="1.26091">
        <ele>303.60000610352</ele>
        <time>2019-07-14T08:27:40.000Z</time>
      </trkpt>
      <trkpt lat="43.11614" lon="1.2607">
        <ele>303</ele>
        <time>2019-07-14T08:27:43.000Z</time>
      </trkpt>
      <trkpt lat="43.11616" lon="1.26063">
        <ele>302.39999389648</ele>
        <time>2019-07-14T08:27:44.000Z</time>
      </trkpt>
      <trkpt lat="43.11621" lon="1.26057">
        <ele>301.20001220703</ele>
        <time>2019-07-14T08:27:45.000Z</time>
      </trkpt>
      <trkpt lat="43.11625" lon="1.26051">
        <ele>300.60000610352</ele>
        <time>2019-07-14T08:27:46.000Z</time>
      </trkpt>
      <trkpt lat="43.11628" lon="1.26045">
        <ele>299.79998779297</ele>
        <time>2019-07-14T08:27:47.000Z</time>
      </trkpt>
      <trkpt lat="43.1163" lon="1.26043">
        <ele>299.20001220703</ele>
        <time>2019-07-14T08:27:48.000Z</time>
      </trkpt>
      <trkpt lat="43.1163" lon="1.2604">
        <ele>298.60000610352</ele>
        <time>2019-07-14T08:27:49.000Z</time>
      </trkpt>
      <trkpt lat="43.11624" lon="1.2604">
        <ele>298.60000610352</ele>
        <time>2019-07-14T08:27:51.000Z</time>
      </trkpt>
      <trkpt lat="43.11624" lon="1.26042">
        <ele>298.60000610352</ele>
        <time>2019-07-14T08:27:52.000Z</time>
      </trkpt>
      <trkpt lat="43.11608" lon="1.26041">
        <ele>298.60000610352</ele>
        <time>2019-07-14T08:27:57.000Z</time>
      </trkpt>
      <trkpt lat="43.11605" lon="1.2604">
        <ele>298.60000610352</ele>
        <time>2019-07-14T08:27:58.000Z</time>
      </trkpt>
      <trkpt lat="43.1159" lon="1.26037">
        <ele>298.60000610352</ele>
        <time>2019-07-14T08:28:02.000Z</time>
      </trkpt>
      <trkpt lat="43.11574" lon="1.26033">
        <ele>298.60000610352</ele>
        <time>2019-07-14T08:28:07.000Z</time>
      </trkpt>
      <trkpt lat="43.11552" lon="1.26022">
        <ele>298.60000610352</ele>
        <time>2019-07-14T08:28:14.000Z</time>
      </trkpt>
      <trkpt lat="43.11535" lon="1.26013">
        <ele>298.60000610352</ele>
        <time>2019-07-14T08:28:20.000Z</time>
      </trkpt>
      <trkpt lat="43.11526" lon="1.26011">
        <ele>299</ele>
        <time>2019-07-14T08:28:23.000Z</time>
      </trkpt>
      <trkpt lat="43.11523" lon="1.2601">
        <ele>299.39999389648</ele>
        <time>2019-07-14T08:28:24.000Z</time>
      </trkpt>
      <trkpt lat="43.11521" lon="1.2601">
        <ele>299.79998779297</ele>
        <time>2019-07-14T08:28:25.000Z</time>
      </trkpt>
      <trkpt lat="43.11518" lon="1.26009">
        <ele>300.20001220703</ele>
        <time>2019-07-14T08:28:26.000Z</time>
      </trkpt>
      <trkpt lat="43.11514" lon="1.26008">
        <ele>300.60000610352</ele>
        <time>2019-07-14T08:28:27.000Z</time>
      </trkpt>
      <trkpt lat="43.11503" lon="1.26006">
        <ele>300.60000610352</ele>
        <time>2019-07-14T08:28:31.000Z</time>
      </trkpt>
      <trkpt lat="43.115" lon="1.26005">
        <ele>301</ele>
        <time>2019-07-14T08:28:32.000Z</time>
      </trkpt>
      <trkpt lat="43.11496" lon="1.26004">
        <ele>301.39999389648</ele>
        <time>2019-07-14T08:28:33.000Z</time>
      </trkpt>
      <trkpt lat="43.11492" lon="1.26003">
        <ele>301.79998779297</ele>
        <time>2019-07-14T08:28:34.000Z</time>
      </trkpt>
      <trkpt lat="43.11488" lon="1.26003">
        <ele>302.60000610352</ele>
        <time>2019-07-14T08:28:35.000Z</time>
      </trkpt>
      <trkpt lat="43.1148" lon="1.26001">
        <ele>302.60000610352</ele>
        <time>2019-07-14T08:28:37.000Z</time>
      </trkpt>
      <trkpt lat="43.11471" lon="1.25997">
        <ele>302.60000610352</ele>
        <time>2019-07-14T08:28:40.000Z</time>
      </trkpt>
      <trkpt lat="43.11455" lon="1.25993">
        <ele>302.60000610352</ele>
        <time>2019-07-14T08:28:45.000Z</time>
      </trkpt>
      <trkpt lat="43.11437" lon="1.25999">
        <ele>302.60000610352</ele>
        <time>2019-07-14T08:28:50.000Z</time>
      </trkpt>
      <trkpt lat="43.11431" lon="1.26004">
        <ele>303</ele>
        <time>2019-07-14T08:28:52.000Z</time>
      </trkpt>
      <trkpt lat="43.11427" lon="1.26006">
        <ele>303.39999389648</ele>
        <time>2019-07-14T08:28:53.000Z</time>
      </trkpt>
      <trkpt lat="43.11424" lon="1.26009">
        <ele>303.79998779297</ele>
        <time>2019-07-14T08:28:54.000Z</time>
      </trkpt>
      <trkpt lat="43.11423" lon="1.26012">
        <ele>304.20001220703</ele>
        <time>2019-07-14T08:28:55.000Z</time>
      </trkpt>
      <trkpt lat="43.11421" lon="1.26014">
        <ele>304.60000610352</ele>
        <time>2019-07-14T08:28:56.000Z</time>
      </trkpt>
      <trkpt lat="43.11416" lon="1.26022">
        <ele>305.20001220703</ele>
        <time>2019-07-14T08:28:59.000Z</time>
      </trkpt>
      <trkpt lat="43.11413" lon="1.26024">
        <ele>305.60000610352</ele>
        <time>2019-07-14T08:29:00.000Z</time>
      </trkpt>
      <trkpt lat="43.11409" lon="1.26026">
        <ele>306</ele>
        <time>2019-07-14T08:29:01.000Z</time>
      </trkpt>
      <trkpt lat="43.11405" lon="1.26029">
        <ele>306.39999389648</ele>
        <time>2019-07-14T08:29:02.000Z</time>
      </trkpt>
      <trkpt lat="43.114" lon="1.2603">
        <ele>306.79998779297</ele>
        <time>2019-07-14T08:29:03.000Z</time>
      </trkpt>
      <trkpt lat="43.11396" lon="1.26031">
        <ele>306.79998779297</ele>
        <time>2019-07-14T08:29:04.000Z</time>
      </trkpt>
      <trkpt lat="43.11391" lon="1.26033">
        <ele>306.79998779297</ele>
        <time>2019-07-14T08:29:05.000Z</time>
      </trkpt>
      <trkpt lat="43.11376" lon="1.26036">
        <ele>306.39999389648</ele>
        <time>2019-07-14T08:29:08.000Z</time>
      </trkpt>
      <trkpt lat="43.1137" lon="1.26036">
        <ele>306</ele>
        <time>2019-07-14T08:29:09.000Z</time>
      </trkpt>
      <trkpt lat="43.11365" lon="1.26038">
        <ele>305.60000610352</ele>
        <time>2019-07-14T08:29:10.000Z</time>
      </trkpt>
      <trkpt lat="43.11359" lon="1.26038">
        <ele>305.20001220703</ele>
        <time>2019-07-14T08:29:11.000Z</time>
      </trkpt>
      <trkpt lat="43.11354" lon="1.26039">
        <ele>304.79998779297</ele>
        <time>2019-07-14T08:29:12.000Z</time>
      </trkpt>
      <trkpt lat="43.11348" lon="1.26041">
        <ele>304.79998779297</ele>
        <time>2019-07-14T08:29:13.000Z</time>
      </trkpt>
      <trkpt lat="43.11338" lon="1.26041">
        <ele>304.79998779297</ele>
        <time>2019-07-14T08:29:15.000Z</time>
      </trkpt>
      <trkpt lat="43.1133" lon="1.26041">
        <ele>304.79998779297</ele>
        <time>2019-07-14T08:29:17.000Z</time>
      </trkpt>
      <trkpt lat="43.11309" lon="1.26044">
        <ele>304.79998779297</ele>
        <time>2019-07-14T08:29:21.000Z</time>
      </trkpt>
      <trkpt lat="43.11296" lon="1.26044">
        <ele>304.79998779297</ele>
        <time>2019-07-14T08:29:23.000Z</time>
      </trkpt>
      <trkpt lat="43.11291" lon="1.26043">
        <ele>304.79998779297</ele>
        <time>2019-07-14T08:29:24.000Z</time>
      </trkpt>
      <trkpt lat="43.11287" lon="1.2604">
        <ele>304.79998779297</ele>
        <time>2019-07-14T08:29:25.000Z</time>
      </trkpt>
      <trkpt lat="43.11278" lon="1.26028">
        <ele>304.79998779297</ele>
        <time>2019-07-14T08:29:28.000Z</time>
      </trkpt>
      <trkpt lat="43.11276" lon="1.26025">
        <ele>304.39999389648</ele>
        <time>2019-07-14T08:29:29.000Z</time>
      </trkpt>
      <trkpt lat="43.11272" lon="1.26024">
        <ele>304</ele>
        <time>2019-07-14T08:29:30.000Z</time>
      </trkpt>
      <trkpt lat="43.11267" lon="1.26023">
        <ele>303.60000610352</ele>
        <time>2019-07-14T08:29:31.000Z</time>
      </trkpt>
      <trkpt lat="43.11264" lon="1.26021">
        <ele>303</ele>
        <time>2019-07-14T08:29:32.000Z</time>
      </trkpt>
      <trkpt lat="43.11261" lon="1.26019">
        <ele>302.60000610352</ele>
        <time>2019-07-14T08:29:33.000Z</time>
      </trkpt>
      <trkpt lat="43.11254" lon="1.26016">
        <ele>302.60000610352</ele>
        <time>2019-07-14T08:29:35.000Z</time>
      </trkpt>
      <trkpt lat="43.11247" lon="1.26016">
        <ele>302.60000610352</ele>
        <time>2019-07-14T08:29:38.000Z</time>
      </trkpt>
      <trkpt lat="43.11246" lon="1.26016">
        <ele>302.60000610352</ele>
        <time>2019-07-14T08:29:39.000Z</time>
      </trkpt>
      <trkpt lat="43.11244" lon="1.26015">
        <ele>302.60000610352</ele>
        <time>2019-07-14T08:29:40.000Z</time>
      </trkpt>
      <trkpt lat="43.11243" lon="1.26014">
        <ele>302.60000610352</ele>
        <time>2019-07-14T08:29:41.000Z</time>
      </trkpt>
      <trkpt lat="43.11241" lon="1.26012">
        <ele>303</ele>
        <time>2019-07-14T08:29:42.000Z</time>
      </trkpt>
      <trkpt lat="43.1124" lon="1.26011">
        <ele>303.39999389648</ele>
        <time>2019-07-14T08:29:43.000Z</time>
      </trkpt>
      <trkpt lat="43.11237" lon="1.2601">
        <ele>303.79998779297</ele>
        <time>2019-07-14T08:29:44.000Z</time>
      </trkpt>
      <trkpt lat="43.11236" lon="1.26009">
        <ele>304.20001220703</ele>
        <time>2019-07-14T08:29:45.000Z</time>
      </trkpt>
      <trkpt lat="43.11234" lon="1.26008">
        <ele>304.79998779297</ele>
        <time>2019-07-14T08:29:46.000Z</time>
      </trkpt>
      <trkpt lat="43.11229" lon="1.26004">
        <ele>304.79998779297</ele>
        <time>2019-07-14T08:29:49.000Z</time>
      </trkpt>
      <trkpt lat="43.11227" lon="1.26001">
        <ele>305.20001220703</ele>
        <time>2019-07-14T08:29:50.000Z</time>
      </trkpt>
      <trkpt lat="43.11224" lon="1.26">
        <ele>305.60000610352</ele>
        <time>2019-07-14T08:29:51.000Z</time>
      </trkpt>
      <trkpt lat="43.11223" lon="1.25999">
        <ele>306</ele>
        <time>2019-07-14T08:29:52.000Z</time>
      </trkpt>
      <trkpt lat="43.11222" lon="1.25998">
        <ele>306.39999389648</ele>
        <time>2019-07-14T08:29:53.000Z</time>
      </trkpt>
      <trkpt lat="43.1122" lon="1.25997">
        <ele>306.79998779297</ele>
        <time>2019-07-14T08:29:54.000Z</time>
      </trkpt>
      <trkpt lat="43.11219" lon="1.25996">
        <ele>306.79998779297</ele>
        <time>2019-07-14T08:29:55.000Z</time>
      </trkpt>
      <trkpt lat="43.11217" lon="1.25994">
        <ele>306.79998779297</ele>
        <time>2019-07-14T08:29:56.000Z</time>
      </trkpt>
      <trkpt lat="43.11213" lon="1.25989">
        <ele>307.20001220703</ele>
        <time>2019-07-14T08:29:58.000Z</time>
      </trkpt>
      <trkpt lat="43.11211" lon="1.25986">
        <ele>307.79998779297</ele>
        <time>2019-07-14T08:29:59.000Z</time>
      </trkpt>
      <trkpt lat="43.11209" lon="1.25982">
        <ele>308.20001220703</ele>
        <time>2019-07-14T08:30:00.000Z</time>
      </trkpt>
      <trkpt lat="43.11208" lon="1.2598">
        <ele>308.60000610352</ele>
        <time>2019-07-14T08:30:01.000Z</time>
      </trkpt>
      <trkpt lat="43.11206" lon="1.25978">
        <ele>309.20001220703</ele>
        <time>2019-07-14T08:30:02.000Z</time>
      </trkpt>
      <trkpt lat="43.11205" lon="1.25975">
        <ele>309.60000610352</ele>
        <time>2019-07-14T08:30:03.000Z</time>
      </trkpt>
      <trkpt lat="43.11204" lon="1.25973">
        <ele>310</ele>
        <time>2019-07-14T08:30:04.000Z</time>
      </trkpt>
      <trkpt lat="43.11203" lon="1.2597">
        <ele>310.39999389648</ele>
        <time>2019-07-14T08:30:05.000Z</time>
      </trkpt>
      <trkpt lat="43.11202" lon="1.25966">
        <ele>310.79998779297</ele>
        <time>2019-07-14T08:30:06.000Z</time>
      </trkpt>
      <trkpt lat="43.11202" lon="1.25965">
        <ele>311.20001220703</ele>
        <time>2019-07-14T08:30:07.000Z</time>
      </trkpt>
      <trkpt lat="43.11202" lon="1.25962">
        <ele>311.20001220703</ele>
        <time>2019-07-14T08:30:08.000Z</time>
      </trkpt>
      <trkpt lat="43.11202" lon="1.25959">
        <ele>311.79998779297</ele>
        <time>2019-07-14T08:30:09.000Z</time>
      </trkpt>
      <trkpt lat="43.11202" lon="1.25958">
        <ele>312.20001220703</ele>
        <time>2019-07-14T08:30:10.000Z</time>
      </trkpt>
      <trkpt lat="43.11202" lon="1.25954">
        <ele>312.60000610352</ele>
        <time>2019-07-14T08:30:11.000Z</time>
      </trkpt>
      <trkpt lat="43.11201" lon="1.25953">
        <ele>313</ele>
        <time>2019-07-14T08:30:12.000Z</time>
      </trkpt>
      <trkpt lat="43.11201" lon="1.2595">
        <ele>313.39999389648</ele>
        <time>2019-07-14T08:30:13.000Z</time>
      </trkpt>
      <trkpt lat="43.11198" lon="1.25943">
        <ele>313.79998779297</ele>
        <time>2019-07-14T08:30:15.000Z</time>
      </trkpt>
      <trkpt lat="43.11197" lon="1.2594">
        <ele>314.39999389648</ele>
        <time>2019-07-14T08:30:16.000Z</time>
      </trkpt>
      <trkpt lat="43.11197" lon="1.25937">
        <ele>314.79998779297</ele>
        <time>2019-07-14T08:30:17.000Z</time>
      </trkpt>
      <trkpt lat="43.11197" lon="1.25932">
        <ele>315.20001220703</ele>
        <time>2019-07-14T08:30:18.000Z</time>
      </trkpt>
      <trkpt lat="43.11197" lon="1.25928">
        <ele>315.60000610352</ele>
        <time>2019-07-14T08:30:19.000Z</time>
      </trkpt>
      <trkpt lat="43.11196" lon="1.25923">
        <ele>316.20001220703</ele>
        <time>2019-07-14T08:30:21.000Z</time>
      </trkpt>
      <trkpt lat="43.11196" lon="1.2592">
        <ele>316.60000610352</ele>
        <time>2019-07-14T08:30:22.000Z</time>
      </trkpt>
      <trkpt lat="43.11196" lon="1.25916">
        <ele>317</ele>
        <time>2019-07-14T08:30:23.000Z</time>
      </trkpt>
      <trkpt lat="43.11196" lon="1.25914">
        <ele>317.60000610352</ele>
        <time>2019-07-14T08:30:24.000Z</time>
      </trkpt>
      <trkpt lat="43.11195" lon="1.25911">
        <ele>318</ele>
        <time>2019-07-14T08:30:25.000Z</time>
      </trkpt>
      <trkpt lat="43.11196" lon="1.25904">
        <ele>318.39999389648</ele>
        <time>2019-07-14T08:30:27.000Z</time>
      </trkpt>
      <trkpt lat="43.11195" lon="1.25902">
        <ele>318.79998779297</ele>
        <time>2019-07-14T08:30:28.000Z</time>
      </trkpt>
      <trkpt lat="43.11195" lon="1.25901">
        <ele>319.20001220703</ele>
        <time>2019-07-14T08:30:29.000Z</time>
      </trkpt>
      <trkpt lat="43.11193" lon="1.25898">
        <ele>319.60000610352</ele>
        <time>2019-07-14T08:30:30.000Z</time>
      </trkpt>
      <trkpt lat="43.11194" lon="1.25896">
        <ele>320</ele>
        <time>2019-07-14T08:30:31.000Z</time>
      </trkpt>
      <trkpt lat="43.11191" lon="1.25891">
        <ele>320.60000610352</ele>
        <time>2019-07-14T08:30:33.000Z</time>
      </trkpt>
      <trkpt lat="43.1119" lon="1.25889">
        <ele>321</ele>
        <time>2019-07-14T08:30:34.000Z</time>
      </trkpt>
      <trkpt lat="43.11189" lon="1.25886">
        <ele>321.39999389648</ele>
        <time>2019-07-14T08:30:35.000Z</time>
      </trkpt>
      <trkpt lat="43.11186" lon="1.25884">
        <ele>321.79998779297</ele>
        <time>2019-07-14T08:30:36.000Z</time>
      </trkpt>
      <trkpt lat="43.11185" lon="1.25881">
        <ele>322.20001220703</ele>
        <time>2019-07-14T08:30:37.000Z</time>
      </trkpt>
      <trkpt lat="43.11184" lon="1.25878">
        <ele>322.60000610352</ele>
        <time>2019-07-14T08:30:38.000Z</time>
      </trkpt>
      <trkpt lat="43.11184" lon="1.25877">
        <ele>323</ele>
        <time>2019-07-14T08:30:39.000Z</time>
      </trkpt>
      <trkpt lat="43.11181" lon="1.25874">
        <ele>323.39999389648</ele>
        <time>2019-07-14T08:30:40.000Z</time>
      </trkpt>
      <trkpt lat="43.1118" lon="1.25871">
        <ele>323.79998779297</ele>
        <time>2019-07-14T08:30:41.000Z</time>
      </trkpt>
      <trkpt lat="43.11178" lon="1.25869">
        <ele>324.20001220703</ele>
        <time>2019-07-14T08:30:42.000Z</time>
      </trkpt>
      <trkpt lat="43.11176" lon="1.25868">
        <ele>324.20001220703</ele>
        <time>2019-07-14T08:30:43.000Z</time>
      </trkpt>
      <trkpt lat="43.11169" lon="1.25861">
        <ele>324.20001220703</ele>
        <time>2019-07-14T08:30:46.000Z</time>
      </trkpt>
      <trkpt lat="43.11168" lon="1.25859">
        <ele>324.79998779297</ele>
        <time>2019-07-14T08:30:47.000Z</time>
      </trkpt>
      <trkpt lat="43.11165" lon="1.25857">
        <ele>325.20001220703</ele>
        <time>2019-07-14T08:30:48.000Z</time>
      </trkpt>
      <trkpt lat="43.11164" lon="1.25854">
        <ele>325.60000610352</ele>
        <time>2019-07-14T08:30:49.000Z</time>
      </trkpt>
      <trkpt lat="43.11163" lon="1.25853">
        <ele>326</ele>
        <time>2019-07-14T08:30:50.000Z</time>
      </trkpt>
      <trkpt lat="43.11161" lon="1.2585">
        <ele>326.39999389648</ele>
        <time>2019-07-14T08:30:51.000Z</time>
      </trkpt>
      <trkpt lat="43.11157" lon="1.25844">
        <ele>327</ele>
        <time>2019-07-14T08:30:54.000Z</time>
      </trkpt>
      <trkpt lat="43.11157" lon="1.2584">
        <ele>327.39999389648</ele>
        <time>2019-07-14T08:30:55.000Z</time>
      </trkpt>
      <trkpt lat="43.11158" lon="1.25839">
        <ele>327.79998779297</ele>
        <time>2019-07-14T08:30:56.000Z</time>
      </trkpt>
      <trkpt lat="43.11158" lon="1.25835">
        <ele>328.39999389648</ele>
        <time>2019-07-14T08:30:57.000Z</time>
      </trkpt>
      <trkpt lat="43.11158" lon="1.25832">
        <ele>328.79998779297</ele>
        <time>2019-07-14T08:30:58.000Z</time>
      </trkpt>
      <trkpt lat="43.11157" lon="1.25823">
        <ele>329.20001220703</ele>
        <time>2019-07-14T08:31:01.000Z</time>
      </trkpt>
      <trkpt lat="43.11157" lon="1.25821">
        <ele>329.60000610352</ele>
        <time>2019-07-14T08:31:02.000Z</time>
      </trkpt>
      <trkpt lat="43.11156" lon="1.25819">
        <ele>330.39999389648</ele>
        <time>2019-07-14T08:31:03.000Z</time>
      </trkpt>
      <trkpt lat="43.11155" lon="1.25816">
        <ele>330.79998779297</ele>
        <time>2019-07-14T08:31:04.000Z</time>
      </trkpt>
      <trkpt lat="43.11155" lon="1.25812">
        <ele>330.79998779297</ele>
        <time>2019-07-14T08:31:06.000Z</time>
      </trkpt>
      <trkpt lat="43.11153" lon="1.25808">
        <ele>331.20001220703</ele>
        <time>2019-07-14T08:31:08.000Z</time>
      </trkpt>
      <trkpt lat="43.11151" lon="1.25805">
        <ele>331.60000610352</ele>
        <time>2019-07-14T08:31:09.000Z</time>
      </trkpt>
      <trkpt lat="43.11148" lon="1.25803">
        <ele>332.20001220703</ele>
        <time>2019-07-14T08:31:10.000Z</time>
      </trkpt>
      <trkpt lat="43.11147" lon="1.258">
        <ele>332.60000610352</ele>
        <time>2019-07-14T08:31:11.000Z</time>
      </trkpt>
      <trkpt lat="43.11145" lon="1.25798">
        <ele>333</ele>
        <time>2019-07-14T08:31:12.000Z</time>
      </trkpt>
      <trkpt lat="43.11142" lon="1.2579">
        <ele>333</ele>
        <time>2019-07-14T08:31:15.000Z</time>
      </trkpt>
      <trkpt lat="43.11141" lon="1.25784">
        <ele>333.39999389648</ele>
        <time>2019-07-14T08:31:17.000Z</time>
      </trkpt>
      <trkpt lat="43.11142" lon="1.2578">
        <ele>333.79998779297</ele>
        <time>2019-07-14T08:31:18.000Z</time>
      </trkpt>
      <trkpt lat="43.11143" lon="1.25776">
        <ele>334.39999389648</ele>
        <time>2019-07-14T08:31:19.000Z</time>
      </trkpt>
      <trkpt lat="43.11145" lon="1.25775">
        <ele>334.79998779297</ele>
        <time>2019-07-14T08:31:20.000Z</time>
      </trkpt>
      <trkpt lat="43.11147" lon="1.25773">
        <ele>335.20001220703</ele>
        <time>2019-07-14T08:31:21.000Z</time>
      </trkpt>
      <trkpt lat="43.11145" lon="1.2577">
        <ele>335.20001220703</ele>
        <time>2019-07-14T08:31:22.000Z</time>
      </trkpt>
      <trkpt lat="43.11146" lon="1.25768">
        <ele>335.20001220703</ele>
        <time>2019-07-14T08:31:23.000Z</time>
      </trkpt>
      <trkpt lat="43.11146" lon="1.25766">
        <ele>335.79998779297</ele>
        <time>2019-07-14T08:31:24.000Z</time>
      </trkpt>
      <trkpt lat="43.11144" lon="1.25764">
        <ele>336.20001220703</ele>
        <time>2019-07-14T08:31:25.000Z</time>
      </trkpt>
      <trkpt lat="43.11146" lon="1.25761">
        <ele>336.60000610352</ele>
        <time>2019-07-14T08:31:26.000Z</time>
      </trkpt>
      <trkpt lat="43.11147" lon="1.25758">
        <ele>337.60000610352</ele>
        <time>2019-07-14T08:31:27.000Z</time>
      </trkpt>
      <trkpt lat="43.11153" lon="1.25741">
        <ele>337.60000610352</ele>
        <time>2019-07-14T08:31:32.000Z</time>
      </trkpt>
      <trkpt lat="43.11153" lon="1.25739">
        <ele>338</ele>
        <time>2019-07-14T08:31:33.000Z</time>
      </trkpt>
      <trkpt lat="43.11154" lon="1.25737">
        <ele>338.39999389648</ele>
        <time>2019-07-14T08:31:34.000Z</time>
      </trkpt>
      <trkpt lat="43.11155" lon="1.25734">
        <ele>338.79998779297</ele>
        <time>2019-07-14T08:31:35.000Z</time>
      </trkpt>
      <trkpt lat="43.11154" lon="1.25731">
        <ele>339.20001220703</ele>
        <time>2019-07-14T08:31:36.000Z</time>
      </trkpt>
      <trkpt lat="43.11153" lon="1.25729">
        <ele>339.60000610352</ele>
        <time>2019-07-14T08:31:37.000Z</time>
      </trkpt>
      <trkpt lat="43.11151" lon="1.2572">
        <ele>340</ele>
        <time>2019-07-14T08:31:40.000Z</time>
      </trkpt>
      <trkpt lat="43.1115" lon="1.25718">
        <ele>340.39999389648</ele>
        <time>2019-07-14T08:31:41.000Z</time>
      </trkpt>
      <trkpt lat="43.11149" lon="1.25716">
        <ele>341</ele>
        <time>2019-07-14T08:31:42.000Z</time>
      </trkpt>
      <trkpt lat="43.11148" lon="1.25713">
        <ele>341.39999389648</ele>
        <time>2019-07-14T08:31:43.000Z</time>
      </trkpt>
      <trkpt lat="43.11148" lon="1.2571">
        <ele>341.79998779297</ele>
        <time>2019-07-14T08:31:44.000Z</time>
      </trkpt>
      <trkpt lat="43.11148" lon="1.25701">
        <ele>342.39999389648</ele>
        <time>2019-07-14T08:31:48.000Z</time>
      </trkpt>
      <trkpt lat="43.11147" lon="1.25698">
        <ele>342.79998779297</ele>
        <time>2019-07-14T08:31:49.000Z</time>
      </trkpt>
      <trkpt lat="43.11147" lon="1.25696">
        <ele>343.20001220703</ele>
        <time>2019-07-14T08:31:50.000Z</time>
      </trkpt>
      <trkpt lat="43.11146" lon="1.25693">
        <ele>343.60000610352</ele>
        <time>2019-07-14T08:31:51.000Z</time>
      </trkpt>
      <trkpt lat="43.11145" lon="1.2569">
        <ele>344</ele>
        <time>2019-07-14T08:31:52.000Z</time>
      </trkpt>
      <trkpt lat="43.11144" lon="1.25688">
        <ele>344.39999389648</ele>
        <time>2019-07-14T08:31:53.000Z</time>
      </trkpt>
      <trkpt lat="43.11143" lon="1.25686">
        <ele>344.79998779297</ele>
        <time>2019-07-14T08:31:54.000Z</time>
      </trkpt>
      <trkpt lat="43.11141" lon="1.25684">
        <ele>345.20001220703</ele>
        <time>2019-07-14T08:31:55.000Z</time>
      </trkpt>
      <trkpt lat="43.11138" lon="1.25682">
        <ele>345.79998779297</ele>
        <time>2019-07-14T08:31:56.000Z</time>
      </trkpt>
      <trkpt lat="43.11136" lon="1.2568">
        <ele>346.20001220703</ele>
        <time>2019-07-14T08:31:57.000Z</time>
      </trkpt>
      <trkpt lat="43.11135" lon="1.25678">
        <ele>346.20001220703</ele>
        <time>2019-07-14T08:31:58.000Z</time>
      </trkpt>
      <trkpt lat="43.11132" lon="1.25675">
        <ele>346.60000610352</ele>
        <time>2019-07-14T08:32:00.000Z</time>
      </trkpt>
      <trkpt lat="43.1113" lon="1.25673">
        <ele>347</ele>
        <time>2019-07-14T08:32:01.000Z</time>
      </trkpt>
      <trkpt lat="43.11129" lon="1.25669">
        <ele>347.39999389648</ele>
        <time>2019-07-14T08:32:02.000Z</time>
      </trkpt>
      <trkpt lat="43.11128" lon="1.25666">
        <ele>347.79998779297</ele>
        <time>2019-07-14T08:32:03.000Z</time>
      </trkpt>
      <trkpt lat="43.11129" lon="1.25664">
        <ele>348.20001220703</ele>
        <time>2019-07-14T08:32:04.000Z</time>
      </trkpt>
      <trkpt lat="43.1113" lon="1.25657">
        <ele>348.60000610352</ele>
        <time>2019-07-14T08:32:06.000Z</time>
      </trkpt>
      <trkpt lat="43.11132" lon="1.25654">
        <ele>349</ele>
        <time>2019-07-14T08:32:07.000Z</time>
      </trkpt>
      <trkpt lat="43.11132" lon="1.2565">
        <ele>349.60000610352</ele>
        <time>2019-07-14T08:32:08.000Z</time>
      </trkpt>
      <trkpt lat="43.11133" lon="1.25648">
        <ele>350</ele>
        <time>2019-07-14T08:32:09.000Z</time>
      </trkpt>
      <trkpt lat="43.11131" lon="1.25645">
        <ele>350.39999389648</ele>
        <time>2019-07-14T08:32:10.000Z</time>
      </trkpt>
      <trkpt lat="43.11129" lon="1.25642">
        <ele>350.39999389648</ele>
        <time>2019-07-14T08:32:11.000Z</time>
      </trkpt>
      <trkpt lat="43.11129" lon="1.25637">
        <ele>350.39999389648</ele>
        <time>2019-07-14T08:32:13.000Z</time>
      </trkpt>
      <trkpt lat="43.11127" lon="1.2563">
        <ele>350.39999389648</ele>
        <time>2019-07-14T08:32:16.000Z</time>
      </trkpt>
      <trkpt lat="43.11124" lon="1.25615">
        <ele>350.79998779297</ele>
        <time>2019-07-14T08:32:21.000Z</time>
      </trkpt>
      <trkpt lat="43.11123" lon="1.25612">
        <ele>351.20001220703</ele>
        <time>2019-07-14T08:32:22.000Z</time>
      </trkpt>
      <trkpt lat="43.11122" lon="1.2561">
        <ele>351.60000610352</ele>
        <time>2019-07-14T08:32:23.000Z</time>
      </trkpt>
      <trkpt lat="43.1112" lon="1.25608">
        <ele>352.20001220703</ele>
        <time>2019-07-14T08:32:24.000Z</time>
      </trkpt>
      <trkpt lat="43.11118" lon="1.25605">
        <ele>352.60000610352</ele>
        <time>2019-07-14T08:32:25.000Z</time>
      </trkpt>
      <trkpt lat="43.11116" lon="1.25602">
        <ele>353</ele>
        <time>2019-07-14T08:32:26.000Z</time>
      </trkpt>
      <trkpt lat="43.11115" lon="1.256">
        <ele>353.39999389648</ele>
        <time>2019-07-14T08:32:27.000Z</time>
      </trkpt>
      <trkpt lat="43.11113" lon="1.25599">
        <ele>353.79998779297</ele>
        <time>2019-07-14T08:32:28.000Z</time>
      </trkpt>
      <trkpt lat="43.11114" lon="1.25596">
        <ele>354.20001220703</ele>
        <time>2019-07-14T08:32:29.000Z</time>
      </trkpt>
      <trkpt lat="43.11114" lon="1.25593">
        <ele>354.60000610352</ele>
        <time>2019-07-14T08:32:30.000Z</time>
      </trkpt>
      <trkpt lat="43.11113" lon="1.2559">
        <ele>354.60000610352</ele>
        <time>2019-07-14T08:32:31.000Z</time>
      </trkpt>
      <trkpt lat="43.11113" lon="1.25588">
        <ele>355.20001220703</ele>
        <time>2019-07-14T08:32:32.000Z</time>
      </trkpt>
      <trkpt lat="43.11113" lon="1.25586">
        <ele>355.60000610352</ele>
        <time>2019-07-14T08:32:33.000Z</time>
      </trkpt>
      <trkpt lat="43.11113" lon="1.25584">
        <ele>356</ele>
        <time>2019-07-14T08:32:34.000Z</time>
      </trkpt>
      <trkpt lat="43.11111" lon="1.25583">
        <ele>356.39999389648</ele>
        <time>2019-07-14T08:32:35.000Z</time>
      </trkpt>
      <trkpt lat="43.11109" lon="1.25581">
        <ele>356.79998779297</ele>
        <time>2019-07-14T08:32:36.000Z</time>
      </trkpt>
      <trkpt lat="43.11106" lon="1.25579">
        <ele>357.20001220703</ele>
        <time>2019-07-14T08:32:39.000Z</time>
      </trkpt>
      <trkpt lat="43.11104" lon="1.2558">
        <ele>357.60000610352</ele>
        <time>2019-07-14T08:32:40.000Z</time>
      </trkpt>
      <trkpt lat="43.11103" lon="1.2558">
        <ele>358.39999389648</ele>
        <time>2019-07-14T08:32:41.000Z</time>
      </trkpt>
      <trkpt lat="43.11101" lon="1.25581">
        <ele>359</ele>
        <time>2019-07-14T08:32:42.000Z</time>
      </trkpt>
      <trkpt lat="43.11098" lon="1.25586">
        <ele>359</ele>
        <time>2019-07-14T08:32:45.000Z</time>
      </trkpt>
      <trkpt lat="43.11098" lon="1.25587">
        <ele>359.39999389648</ele>
        <time>2019-07-14T08:32:46.000Z</time>
      </trkpt>
      <trkpt lat="43.11099" lon="1.25587">
        <ele>359.79998779297</ele>
        <time>2019-07-14T08:32:47.000Z</time>
      </trkpt>
      <trkpt lat="43.111" lon="1.25588">
        <ele>360.20001220703</ele>
        <time>2019-07-14T08:32:48.000Z</time>
      </trkpt>
      <trkpt lat="43.111" lon="1.2559">
        <ele>360.60000610352</ele>
        <time>2019-07-14T08:32:49.000Z</time>
      </trkpt>
      <trkpt lat="43.11101" lon="1.25592">
        <ele>361</ele>
        <time>2019-07-14T08:32:50.000Z</time>
      </trkpt>
      <trkpt lat="43.11102" lon="1.25597">
        <ele>361.39999389648</ele>
        <time>2019-07-14T08:32:53.000Z</time>
      </trkpt>
      <trkpt lat="43.11102" lon="1.25599">
        <ele>361.79998779297</ele>
        <time>2019-07-14T08:32:54.000Z</time>
      </trkpt>
      <trkpt lat="43.11101" lon="1.25599">
        <ele>362.39999389648</ele>
        <time>2019-07-14T08:32:55.000Z</time>
      </trkpt>
      <trkpt lat="43.11101" lon="1.25601">
        <ele>362.79998779297</ele>
        <time>2019-07-14T08:32:56.000Z</time>
      </trkpt>
      <trkpt lat="43.11101" lon="1.25602">
        <ele>363.20001220703</ele>
        <time>2019-07-14T08:32:57.000Z</time>
      </trkpt>
      <trkpt lat="43.11099" lon="1.25605">
        <ele>363.60000610352</ele>
        <time>2019-07-14T08:33:00.000Z</time>
      </trkpt>
      <trkpt lat="43.11098" lon="1.25607">
        <ele>364</ele>
        <time>2019-07-14T08:33:01.000Z</time>
      </trkpt>
      <trkpt lat="43.11097" lon="1.25608">
        <ele>364.39999389648</ele>
        <time>2019-07-14T08:33:02.000Z</time>
      </trkpt>
      <trkpt lat="43.11096" lon="1.2561">
        <ele>365</ele>
        <time>2019-07-14T08:33:03.000Z</time>
      </trkpt>
      <trkpt lat="43.11096" lon="1.25611">
        <ele>365.39999389648</ele>
        <time>2019-07-14T08:33:04.000Z</time>
      </trkpt>
      <trkpt lat="43.11095" lon="1.25613">
        <ele>365.39999389648</ele>
        <time>2019-07-14T08:33:05.000Z</time>
      </trkpt>
      <trkpt lat="43.11095" lon="1.25614">
        <ele>365.79998779297</ele>
        <time>2019-07-14T08:33:06.000Z</time>
      </trkpt>
      <trkpt lat="43.11094" lon="1.25616">
        <ele>366.20001220703</ele>
        <time>2019-07-14T08:33:07.000Z</time>
      </trkpt>
      <trkpt lat="43.11093" lon="1.25617">
        <ele>366.60000610352</ele>
        <time>2019-07-14T08:33:08.000Z</time>
      </trkpt>
      <trkpt lat="43.11092" lon="1.25618">
        <ele>367.20001220703</ele>
        <time>2019-07-14T08:33:09.000Z</time>
      </trkpt>
      <trkpt lat="43.1109" lon="1.2562">
        <ele>367.60000610352</ele>
        <time>2019-07-14T08:33:10.000Z</time>
      </trkpt>
      <trkpt lat="43.11088" lon="1.25621">
        <ele>367.60000610352</ele>
        <time>2019-07-14T08:33:11.000Z</time>
      </trkpt>
      <trkpt lat="43.11087" lon="1.2562">
        <ele>367.60000610352</ele>
        <time>2019-07-14T08:33:12.000Z</time>
      </trkpt>
      <trkpt lat="43.11085" lon="1.25619">
        <ele>368</ele>
        <time>2019-07-14T08:33:13.000Z</time>
      </trkpt>
      <trkpt lat="43.11084" lon="1.25616">
        <ele>368.39999389648</ele>
        <time>2019-07-14T08:33:14.000Z</time>
      </trkpt>
      <trkpt lat="43.11083" lon="1.25614">
        <ele>368.79998779297</ele>
        <time>2019-07-14T08:33:15.000Z</time>
      </trkpt>
      <trkpt lat="43.11082" lon="1.25612">
        <ele>369.20001220703</ele>
        <time>2019-07-14T08:33:16.000Z</time>
      </trkpt>
      <trkpt lat="43.1108" lon="1.25609">
        <ele>369.79998779297</ele>
        <time>2019-07-14T08:33:17.000Z</time>
      </trkpt>
      <trkpt lat="43.11073" lon="1.25601">
        <ele>369.79998779297</ele>
        <time>2019-07-14T08:33:21.000Z</time>
      </trkpt>
      <trkpt lat="43.11073" lon="1.25593">
        <ele>370.20001220703</ele>
        <time>2019-07-14T08:33:24.000Z</time>
      </trkpt>
      <trkpt lat="43.11074" lon="1.2559">
        <ele>370.60000610352</ele>
        <time>2019-07-14T08:33:25.000Z</time>
      </trkpt>
      <trkpt lat="43.11074" lon="1.25588">
        <ele>371</ele>
        <time>2019-07-14T08:33:26.000Z</time>
      </trkpt>
      <trkpt lat="43.11075" lon="1.25585">
        <ele>371.39999389648</ele>
        <time>2019-07-14T08:33:27.000Z</time>
      </trkpt>
      <trkpt lat="43.11075" lon="1.25582">
        <ele>371.79998779297</ele>
        <time>2019-07-14T08:33:28.000Z</time>
      </trkpt>
      <trkpt lat="43.11076" lon="1.25577">
        <ele>371.79998779297</ele>
        <time>2019-07-14T08:33:30.000Z</time>
      </trkpt>
      <trkpt lat="43.11076" lon="1.25574">
        <ele>371.79998779297</ele>
        <time>2019-07-14T08:33:31.000Z</time>
      </trkpt>
      <trkpt lat="43.11076" lon="1.25573">
        <ele>372.20001220703</ele>
        <time>2019-07-14T08:33:32.000Z</time>
      </trkpt>
      <trkpt lat="43.11075" lon="1.2557">
        <ele>372.60000610352</ele>
        <time>2019-07-14T08:33:33.000Z</time>
      </trkpt>
      <trkpt lat="43.11075" lon="1.25567">
        <ele>373.20001220703</ele>
        <time>2019-07-14T08:33:34.000Z</time>
      </trkpt>
      <trkpt lat="43.11074" lon="1.25563">
        <ele>373.60000610352</ele>
        <time>2019-07-14T08:33:35.000Z</time>
      </trkpt>
      <trkpt lat="43.11073" lon="1.2556">
        <ele>374</ele>
        <time>2019-07-14T08:33:36.000Z</time>
      </trkpt>
      <trkpt lat="43.11073" lon="1.25556">
        <ele>374</ele>
        <time>2019-07-14T08:33:37.000Z</time>
      </trkpt>
      <trkpt lat="43.11068" lon="1.25538">
        <ele>374</ele>
        <time>2019-07-14T08:33:42.000Z</time>
      </trkpt>
      <trkpt lat="43.11063" lon="1.25514">
        <ele>374</ele>
        <time>2019-07-14T08:33:48.000Z</time>
      </trkpt>
      <trkpt lat="43.11059" lon="1.25497">
        <ele>374</ele>
        <time>2019-07-14T08:33:53.000Z</time>
      </trkpt>
      <trkpt lat="43.11054" lon="1.25482">
        <ele>374</ele>
        <time>2019-07-14T08:33:58.000Z</time>
      </trkpt>
      <trkpt lat="43.11045" lon="1.25466">
        <ele>374</ele>
        <time>2019-07-14T08:34:02.000Z</time>
      </trkpt>
      <trkpt lat="43.11031" lon="1.25455">
        <ele>374</ele>
        <time>2019-07-14T08:34:06.000Z</time>
      </trkpt>
      <trkpt lat="43.11025" lon="1.25451">
        <ele>374</ele>
        <time>2019-07-14T08:34:08.000Z</time>
      </trkpt>
      <trkpt lat="43.11018" lon="1.2545">
        <ele>374</ele>
        <time>2019-07-14T08:34:11.000Z</time>
      </trkpt>
      <trkpt lat="43.11011" lon="1.25449">
        <ele>374</ele>
        <time>2019-07-14T08:34:14.000Z</time>
      </trkpt>
      <trkpt lat="43.11006" lon="1.25447">
        <ele>374</ele>
        <time>2019-07-14T08:34:16.000Z</time>
      </trkpt>
      <trkpt lat="43.11003" lon="1.25444">
        <ele>374.39999389648</ele>
        <time>2019-07-14T08:34:18.000Z</time>
      </trkpt>
      <trkpt lat="43.11002" lon="1.25442">
        <ele>374.79998779297</ele>
        <time>2019-07-14T08:34:19.000Z</time>
      </trkpt>
      <trkpt lat="43.11001" lon="1.25438">
        <ele>375.79998779297</ele>
        <time>2019-07-14T08:34:20.000Z</time>
      </trkpt>
      <trkpt lat="43.10999" lon="1.25435">
        <ele>376.20001220703</ele>
        <time>2019-07-14T08:34:21.000Z</time>
      </trkpt>
      <trkpt lat="43.10988" lon="1.25424">
        <ele>376.20001220703</ele>
        <time>2019-07-14T08:34:25.000Z</time>
      </trkpt>
      <trkpt lat="43.10985" lon="1.25418">
        <ele>376.20001220703</ele>
        <time>2019-07-14T08:34:27.000Z</time>
      </trkpt>
      <trkpt lat="43.10982" lon="1.25416">
        <ele>376.20001220703</ele>
        <time>2019-07-14T08:34:28.000Z</time>
      </trkpt>
      <trkpt lat="43.1097" lon="1.25408">
        <ele>376.20001220703</ele>
        <time>2019-07-14T08:34:32.000Z</time>
      </trkpt>
      <trkpt lat="43.10967" lon="1.25406">
        <ele>376.20001220703</ele>
        <time>2019-07-14T08:34:33.000Z</time>
      </trkpt>
      <trkpt lat="43.10957" lon="1.25399">
        <ele>376.20001220703</ele>
        <time>2019-07-14T08:34:35.000Z</time>
      </trkpt>
      <trkpt lat="43.10941" lon="1.25383">
        <ele>376.20001220703</ele>
        <time>2019-07-14T08:34:39.000Z</time>
      </trkpt>
      <trkpt lat="43.10938" lon="1.25379">
        <ele>375.79998779297</ele>
        <time>2019-07-14T08:34:40.000Z</time>
      </trkpt>
      <trkpt lat="43.10934" lon="1.25376">
        <ele>375.20001220703</ele>
        <time>2019-07-14T08:34:41.000Z</time>
      </trkpt>
      <trkpt lat="43.1093" lon="1.25372">
        <ele>374.79998779297</ele>
        <time>2019-07-14T08:34:42.000Z</time>
      </trkpt>
      <trkpt lat="43.10927" lon="1.25368">
        <ele>374.39999389648</ele>
        <time>2019-07-14T08:34:43.000Z</time>
      </trkpt>
      <trkpt lat="43.10924" lon="1.25364">
        <ele>374</ele>
        <time>2019-07-14T08:34:44.000Z</time>
      </trkpt>
      <trkpt lat="43.10919" lon="1.25361">
        <ele>374</ele>
        <time>2019-07-14T08:34:46.000Z</time>
      </trkpt>
      <trkpt lat="43.10907" lon="1.2536">
        <ele>374</ele>
        <time>2019-07-14T08:34:50.000Z</time>
      </trkpt>
      <trkpt lat="43.10892" lon="1.25365">
        <ele>374</ele>
        <time>2019-07-14T08:34:54.000Z</time>
      </trkpt>
      <trkpt lat="43.1087" lon="1.25375">
        <ele>374</ele>
        <time>2019-07-14T08:35:00.000Z</time>
      </trkpt>
      <trkpt lat="43.10853" lon="1.25386">
        <ele>374</ele>
        <time>2019-07-14T08:35:05.000Z</time>
      </trkpt>
      <trkpt lat="43.10846" lon="1.25405">
        <ele>374</ele>
        <time>2019-07-14T08:35:09.000Z</time>
      </trkpt>
      <trkpt lat="43.10839" lon="1.25419">
        <ele>374</ele>
        <time>2019-07-14T08:35:13.000Z</time>
      </trkpt>
      <trkpt lat="43.10836" lon="1.25421">
        <ele>374</ele>
        <time>2019-07-14T08:35:14.000Z</time>
      </trkpt>
      <trkpt lat="43.10824" lon="1.25427">
        <ele>374</ele>
        <time>2019-07-14T08:35:17.000Z</time>
      </trkpt>
      <trkpt lat="43.10813" lon="1.25433">
        <ele>374</ele>
        <time>2019-07-14T08:35:19.000Z</time>
      </trkpt>
      <trkpt lat="43.10807" lon="1.25438">
        <ele>373.39999389648</ele>
        <time>2019-07-14T08:35:20.000Z</time>
      </trkpt>
      <trkpt lat="43.108" lon="1.25443">
        <ele>373</ele>
        <time>2019-07-14T08:35:21.000Z</time>
      </trkpt>
      <trkpt lat="43.10794" lon="1.25448">
        <ele>372.20001220703</ele>
        <time>2019-07-14T08:35:22.000Z</time>
      </trkpt>
      <trkpt lat="43.10787" lon="1.25453">
        <ele>371.39999389648</ele>
        <time>2019-07-14T08:35:23.000Z</time>
      </trkpt>
      <trkpt lat="43.10781" lon="1.25458">
        <ele>370.60000610352</ele>
        <time>2019-07-14T08:35:24.000Z</time>
      </trkpt>
      <trkpt lat="43.10775" lon="1.25462">
        <ele>369.79998779297</ele>
        <time>2019-07-14T08:35:25.000Z</time>
      </trkpt>
      <trkpt lat="43.10768" lon="1.25466">
        <ele>369</ele>
        <time>2019-07-14T08:35:26.000Z</time>
      </trkpt>
      <trkpt lat="43.10762" lon="1.25468">
        <ele>368.20001220703</ele>
        <time>2019-07-14T08:35:27.000Z</time>
      </trkpt>
      <trkpt lat="43.10756" lon="1.25471">
        <ele>367.20001220703</ele>
        <time>2019-07-14T08:35:28.000Z</time>
      </trkpt>
      <trkpt lat="43.1075" lon="1.25473">
        <ele>366.39999389648</ele>
        <time>2019-07-14T08:35:29.000Z</time>
      </trkpt>
      <trkpt lat="43.10743" lon="1.25477">
        <ele>366</ele>
        <time>2019-07-14T08:35:30.000Z</time>
      </trkpt>
      <trkpt lat="43.10736" lon="1.2548">
        <ele>365.39999389648</ele>
        <time>2019-07-14T08:35:31.000Z</time>
      </trkpt>
      <trkpt lat="43.10729" lon="1.25485">
        <ele>365</ele>
        <time>2019-07-14T08:35:32.000Z</time>
      </trkpt>
      <trkpt lat="43.10721" lon="1.25489">
        <ele>364.39999389648</ele>
        <time>2019-07-14T08:35:33.000Z</time>
      </trkpt>
      <trkpt lat="43.10713" lon="1.25495">
        <ele>363.79998779297</ele>
        <time>2019-07-14T08:35:34.000Z</time>
      </trkpt>
      <trkpt lat="43.10704" lon="1.25501">
        <ele>362.20001220703</ele>
        <time>2019-07-14T08:35:35.000Z</time>
      </trkpt>
      <trkpt lat="43.10696" lon="1.25507">
        <ele>361.39999389648</ele>
        <time>2019-07-14T08:35:36.000Z</time>
      </trkpt>
      <trkpt lat="43.10688" lon="1.25514">
        <ele>360.20001220703</ele>
        <time>2019-07-14T08:35:37.000Z</time>
      </trkpt>
      <trkpt lat="43.10681" lon="1.25524">
        <ele>359.20001220703</ele>
        <time>2019-07-14T08:35:38.000Z</time>
      </trkpt>
      <trkpt lat="43.10673" lon="1.25533">
        <ele>358.20001220703</ele>
        <time>2019-07-14T08:35:39.000Z</time>
      </trkpt>
      <trkpt lat="43.10666" lon="1.25542">
        <ele>357.20001220703</ele>
        <time>2019-07-14T08:35:40.000Z</time>
      </trkpt>
      <trkpt lat="43.10658" lon="1.25551">
        <ele>356</ele>
        <time>2019-07-14T08:35:41.000Z</time>
      </trkpt>
      <trkpt lat="43.1065" lon="1.25559">
        <ele>355</ele>
        <time>2019-07-14T08:35:42.000Z</time>
      </trkpt>
      <trkpt lat="43.10641" lon="1.25569">
        <ele>354</ele>
        <time>2019-07-14T08:35:43.000Z</time>
      </trkpt>
      <trkpt lat="43.10632" lon="1.25577">
        <ele>353</ele>
        <time>2019-07-14T08:35:44.000Z</time>
      </trkpt>
      <trkpt lat="43.10623" lon="1.25584">
        <ele>351.79998779297</ele>
        <time>2019-07-14T08:35:45.000Z</time>
      </trkpt>
      <trkpt lat="43.10613" lon="1.2559">
        <ele>350.79998779297</ele>
        <time>2019-07-14T08:35:46.000Z</time>
      </trkpt>
      <trkpt lat="43.10603" lon="1.25596">
        <ele>349.79998779297</ele>
        <time>2019-07-14T08:35:47.000Z</time>
      </trkpt>
      <trkpt lat="43.10595" lon="1.25603">
        <ele>348.79998779297</ele>
        <time>2019-07-14T08:35:48.000Z</time>
      </trkpt>
      <trkpt lat="43.10586" lon="1.25611">
        <ele>347.39999389648</ele>
        <time>2019-07-14T08:35:49.000Z</time>
      </trkpt>
      <trkpt lat="43.10578" lon="1.25623">
        <ele>346.20001220703</ele>
        <time>2019-07-14T08:35:50.000Z</time>
      </trkpt>
      <trkpt lat="43.10571" lon="1.25633">
        <ele>344.79998779297</ele>
        <time>2019-07-14T08:35:51.000Z</time>
      </trkpt>
      <trkpt lat="43.10567" lon="1.25646">
        <ele>343.60000610352</ele>
        <time>2019-07-14T08:35:52.000Z</time>
      </trkpt>
      <trkpt lat="43.10565" lon="1.25654">
        <ele>342.20001220703</ele>
        <time>2019-07-14T08:35:53.000Z</time>
      </trkpt>
      <trkpt lat="43.10561" lon="1.2566">
        <ele>340.60000610352</ele>
        <time>2019-07-14T08:35:54.000Z</time>
      </trkpt>
      <trkpt lat="43.10557" lon="1.25663">
        <ele>339.20001220703</ele>
        <time>2019-07-14T08:35:55.000Z</time>
      </trkpt>
      <trkpt lat="43.1055" lon="1.25661">
        <ele>337.79998779297</ele>
        <time>2019-07-14T08:35:56.000Z</time>
      </trkpt>
      <trkpt lat="43.10545" lon="1.25656">
        <ele>337.20001220703</ele>
        <time>2019-07-14T08:35:57.000Z</time>
      </trkpt>
      <trkpt lat="43.10541" lon="1.25649">
        <ele>336.60000610352</ele>
        <time>2019-07-14T08:35:58.000Z</time>
      </trkpt>
      <trkpt lat="43.10537" lon="1.25642">
        <ele>335.79998779297</ele>
        <time>2019-07-14T08:35:59.000Z</time>
      </trkpt>
      <trkpt lat="43.10534" lon="1.25636">
        <ele>334.39999389648</ele>
        <time>2019-07-14T08:36:00.000Z</time>
      </trkpt>
      <trkpt lat="43.10528" lon="1.25632">
        <ele>334</ele>
        <time>2019-07-14T08:36:01.000Z</time>
      </trkpt>
      <trkpt lat="43.10522" lon="1.25633">
        <ele>333.60000610352</ele>
        <time>2019-07-14T08:36:02.000Z</time>
      </trkpt>
      <trkpt lat="43.10518" lon="1.25635">
        <ele>333.20001220703</ele>
        <time>2019-07-14T08:36:03.000Z</time>
      </trkpt>
      <trkpt lat="43.10514" lon="1.25635">
        <ele>332.60000610352</ele>
        <time>2019-07-14T08:36:04.000Z</time>
      </trkpt>
      <trkpt lat="43.10511" lon="1.25634">
        <ele>332.20001220703</ele>
        <time>2019-07-14T08:36:05.000Z</time>
      </trkpt>
      <trkpt lat="43.1049" lon="1.25635">
        <ele>332.20001220703</ele>
        <time>2019-07-14T08:36:10.000Z</time>
      </trkpt>
      <trkpt lat="43.10466" lon="1.25635">
        <ele>332.20001220703</ele>
        <time>2019-07-14T08:36:16.000Z</time>
      </trkpt>
      <trkpt lat="43.10455" lon="1.25636">
        <ele>332.20001220703</ele>
        <time>2019-07-14T08:36:19.000Z</time>
      </trkpt>
      <trkpt lat="43.10451" lon="1.25639">
        <ele>332.20001220703</ele>
        <time>2019-07-14T08:36:20.000Z</time>
      </trkpt>
      <trkpt lat="43.10447" lon="1.25638">
        <ele>332.20001220703</ele>
        <time>2019-07-14T08:36:22.000Z</time>
      </trkpt>
      <trkpt lat="43.1044" lon="1.25637">
        <ele>332.20001220703</ele>
        <time>2019-07-14T08:36:27.000Z</time>
      </trkpt>
      <trkpt lat="43.10438" lon="1.25636">
        <ele>332.20001220703</ele>
        <time>2019-07-14T08:36:28.000Z</time>
      </trkpt>
      <trkpt lat="43.10436" lon="1.25636">
        <ele>332.60000610352</ele>
        <time>2019-07-14T08:36:30.000Z</time>
      </trkpt>
      <trkpt lat="43.10434" lon="1.25636">
        <ele>333.20001220703</ele>
        <time>2019-07-14T08:36:31.000Z</time>
      </trkpt>
      <trkpt lat="43.10431" lon="1.25636">
        <ele>333.60000610352</ele>
        <time>2019-07-14T08:36:32.000Z</time>
      </trkpt>
      <trkpt lat="43.10429" lon="1.25635">
        <ele>334</ele>
        <time>2019-07-14T08:36:33.000Z</time>
      </trkpt>
      <trkpt lat="43.10428" lon="1.25635">
        <ele>334.39999389648</ele>
        <time>2019-07-14T08:36:34.000Z</time>
      </trkpt>
      <trkpt lat="43.10425" lon="1.25635">
        <ele>335</ele>
        <time>2019-07-14T08:36:36.000Z</time>
      </trkpt>
      <trkpt lat="43.10422" lon="1.25635">
        <ele>335.39999389648</ele>
        <time>2019-07-14T08:36:37.000Z</time>
      </trkpt>
      <trkpt lat="43.1042" lon="1.25636">
        <ele>336</ele>
        <time>2019-07-14T08:36:38.000Z</time>
      </trkpt>
      <trkpt lat="43.10418" lon="1.25635">
        <ele>336.39999389648</ele>
        <time>2019-07-14T08:36:39.000Z</time>
      </trkpt>
      <trkpt lat="43.10415" lon="1.25636">
        <ele>337</ele>
        <time>2019-07-14T08:36:40.000Z</time>
      </trkpt>
      <trkpt lat="43.1041" lon="1.25635">
        <ele>337.39999389648</ele>
        <time>2019-07-14T08:36:43.000Z</time>
      </trkpt>
      <trkpt lat="43.10407" lon="1.25634">
        <ele>337.79998779297</ele>
        <time>2019-07-14T08:36:44.000Z</time>
      </trkpt>
      <trkpt lat="43.10406" lon="1.25634">
        <ele>338.39999389648</ele>
        <time>2019-07-14T08:36:45.000Z</time>
      </trkpt>
      <trkpt lat="43.10404" lon="1.25634">
        <ele>338.79998779297</ele>
        <time>2019-07-14T08:36:46.000Z</time>
      </trkpt>
      <trkpt lat="43.10402" lon="1.25634">
        <ele>339.20001220703</ele>
        <time>2019-07-14T08:36:47.000Z</time>
      </trkpt>
      <trkpt lat="43.104" lon="1.25636">
        <ele>339.79998779297</ele>
        <time>2019-07-14T08:36:48.000Z</time>
      </trkpt>
      <trkpt lat="43.10398" lon="1.25637">
        <ele>340.20001220703</ele>
        <time>2019-07-14T08:36:49.000Z</time>
      </trkpt>
      <trkpt lat="43.10396" lon="1.25637">
        <ele>340.60000610352</ele>
        <time>2019-07-14T08:36:50.000Z</time>
      </trkpt>
      <trkpt lat="43.10395" lon="1.25637">
        <ele>341</ele>
        <time>2019-07-14T08:36:51.000Z</time>
      </trkpt>
      <trkpt lat="43.10394" lon="1.25639">
        <ele>341.39999389648</ele>
        <time>2019-07-14T08:36:52.000Z</time>
      </trkpt>
      <trkpt lat="43.10393" lon="1.25639">
        <ele>341.39999389648</ele>
        <time>2019-07-14T08:36:53.000Z</time>
      </trkpt>
      <trkpt lat="43.10389" lon="1.2564">
        <ele>341.79998779297</ele>
        <time>2019-07-14T08:36:57.000Z</time>
      </trkpt>
      <trkpt lat="43.10387" lon="1.2564">
        <ele>342.20001220703</ele>
        <time>2019-07-14T08:36:58.000Z</time>
      </trkpt>
      <trkpt lat="43.10385" lon="1.25639">
        <ele>342.60000610352</ele>
        <time>2019-07-14T08:36:59.000Z</time>
      </trkpt>
      <trkpt lat="43.10383" lon="1.2564">
        <ele>343.20001220703</ele>
        <time>2019-07-14T08:37:00.000Z</time>
      </trkpt>
      <trkpt lat="43.10381" lon="1.25642">
        <ele>343.60000610352</ele>
        <time>2019-07-14T08:37:01.000Z</time>
      </trkpt>
      <trkpt lat="43.10379" lon="1.25642">
        <ele>344</ele>
        <time>2019-07-14T08:37:03.000Z</time>
      </trkpt>
      <trkpt lat="43.10378" lon="1.25644">
        <ele>344.39999389648</ele>
        <time>2019-07-14T08:37:04.000Z</time>
      </trkpt>
      <trkpt lat="43.10372" lon="1.25644">
        <ele>345.79998779297</ele>
        <time>2019-07-14T08:37:08.000Z</time>
      </trkpt>
      <trkpt lat="43.10369" lon="1.25643">
        <ele>345.79998779297</ele>
        <time>2019-07-14T08:37:10.000Z</time>
      </trkpt>
      <trkpt lat="43.10366" lon="1.25643">
        <ele>346.20001220703</ele>
        <time>2019-07-14T08:37:12.000Z</time>
      </trkpt>
      <trkpt lat="43.10364" lon="1.25642">
        <ele>347</ele>
        <time>2019-07-14T08:37:13.000Z</time>
      </trkpt>
      <trkpt lat="43.10363" lon="1.25641">
        <ele>347.39999389648</ele>
        <time>2019-07-14T08:37:14.000Z</time>
      </trkpt>
      <trkpt lat="43.10362" lon="1.2564">
        <ele>347.79998779297</ele>
        <time>2019-07-14T08:37:15.000Z</time>
      </trkpt>
      <trkpt lat="43.10361" lon="1.25639">
        <ele>347.79998779297</ele>
        <time>2019-07-14T08:37:16.000Z</time>
      </trkpt>
      <trkpt lat="43.10355" lon="1.25638">
        <ele>348.20001220703</ele>
        <time>2019-07-14T08:37:19.000Z</time>
      </trkpt>
      <trkpt lat="43.10354" lon="1.25638">
        <ele>348.60000610352</ele>
        <time>2019-07-14T08:37:20.000Z</time>
      </trkpt>
      <trkpt lat="43.10352" lon="1.25639">
        <ele>349</ele>
        <time>2019-07-14T08:37:21.000Z</time>
      </trkpt>
      <trkpt lat="43.10349" lon="1.25641">
        <ele>349.39999389648</ele>
        <time>2019-07-14T08:37:22.000Z</time>
      </trkpt>
      <trkpt lat="43.10347" lon="1.25641">
        <ele>349.79998779297</ele>
        <time>2019-07-14T08:37:23.000Z</time>
      </trkpt>
      <trkpt lat="43.1034" lon="1.2564">
        <ele>350.39999389648</ele>
        <time>2019-07-14T08:37:27.000Z</time>
      </trkpt>
      <trkpt lat="43.10339" lon="1.25639">
        <ele>350.79998779297</ele>
        <time>2019-07-14T08:37:28.000Z</time>
      </trkpt>
      <trkpt lat="43.10339" lon="1.25639">
        <ele>351.20001220703</ele>
        <time>2019-07-14T08:37:29.000Z</time>
      </trkpt>
      <trkpt lat="43.10337" lon="1.25639">
        <ele>351.60000610352</ele>
        <time>2019-07-14T08:37:30.000Z</time>
      </trkpt>
      <trkpt lat="43.10334" lon="1.25639">
        <ele>352</ele>
        <time>2019-07-14T08:37:31.000Z</time>
      </trkpt>
      <trkpt lat="43.1033" lon="1.25638">
        <ele>352</ele>
        <time>2019-07-14T08:37:33.000Z</time>
      </trkpt>
      <trkpt lat="43.10329" lon="1.25638">
        <ele>352.39999389648</ele>
        <time>2019-07-14T08:37:34.000Z</time>
      </trkpt>
      <trkpt lat="43.10327" lon="1.25638">
        <ele>352.79998779297</ele>
        <time>2019-07-14T08:37:35.000Z</time>
      </trkpt>
      <trkpt lat="43.10325" lon="1.25637">
        <ele>353.20001220703</ele>
        <time>2019-07-14T08:37:36.000Z</time>
      </trkpt>
      <trkpt lat="43.10324" lon="1.25636">
        <ele>353.60000610352</ele>
        <time>2019-07-14T08:37:37.000Z</time>
      </trkpt>
      <trkpt lat="43.10319" lon="1.25635">
        <ele>354</ele>
        <time>2019-07-14T08:37:38.000Z</time>
      </trkpt>
      <trkpt lat="43.10317" lon="1.25635">
        <ele>354.60000610352</ele>
        <time>2019-07-14T08:37:40.000Z</time>
      </trkpt>
      <trkpt lat="43.10316" lon="1.25635">
        <ele>355</ele>
        <time>2019-07-14T08:37:41.000Z</time>
      </trkpt>
      <trkpt lat="43.10314" lon="1.25636">
        <ele>355.39999389648</ele>
        <time>2019-07-14T08:37:42.000Z</time>
      </trkpt>
      <trkpt lat="43.10312" lon="1.25636">
        <ele>355.79998779297</ele>
        <time>2019-07-14T08:37:43.000Z</time>
      </trkpt>
      <trkpt lat="43.10311" lon="1.25637">
        <ele>356.39999389648</ele>
        <time>2019-07-14T08:37:44.000Z</time>
      </trkpt>
      <trkpt lat="43.10309" lon="1.25636">
        <ele>356.79998779297</ele>
        <time>2019-07-14T08:37:45.000Z</time>
      </trkpt>
      <trkpt lat="43.10308" lon="1.25636">
        <ele>357.20001220703</ele>
        <time>2019-07-14T08:37:46.000Z</time>
      </trkpt>
      <trkpt lat="43.10307" lon="1.25635">
        <ele>357.60000610352</ele>
        <time>2019-07-14T08:37:47.000Z</time>
      </trkpt>
      <trkpt lat="43.10305" lon="1.25634">
        <ele>358</ele>
        <time>2019-07-14T08:37:48.000Z</time>
      </trkpt>
      <trkpt lat="43.10304" lon="1.25634">
        <ele>358.39999389648</ele>
        <time>2019-07-14T08:37:49.000Z</time>
      </trkpt>
      <trkpt lat="43.103" lon="1.25633">
        <ele>358.39999389648</ele>
        <time>2019-07-14T08:37:51.000Z</time>
      </trkpt>
      <trkpt lat="43.10288" lon="1.25631">
        <ele>358.39999389648</ele>
        <time>2019-07-14T08:37:57.000Z</time>
      </trkpt>
      <trkpt lat="43.10278" lon="1.2563">
        <ele>359</ele>
        <time>2019-07-14T08:38:01.000Z</time>
      </trkpt>
      <trkpt lat="43.10276" lon="1.25629">
        <ele>359.39999389648</ele>
        <time>2019-07-14T08:38:02.000Z</time>
      </trkpt>
      <trkpt lat="43.10274" lon="1.25628">
        <ele>360.20001220703</ele>
        <time>2019-07-14T08:38:03.000Z</time>
      </trkpt>
      <trkpt lat="43.10272" lon="1.25627">
        <ele>360.60000610352</ele>
        <time>2019-07-14T08:38:04.000Z</time>
      </trkpt>
      <trkpt lat="43.10265" lon="1.25622">
        <ele>360.60000610352</ele>
        <time>2019-07-14T08:38:08.000Z</time>
      </trkpt>
      <trkpt lat="43.10264" lon="1.25621">
        <ele>360.60000610352</ele>
        <time>2019-07-14T08:38:09.000Z</time>
      </trkpt>
      <trkpt lat="43.10261" lon="1.25622">
        <ele>360.60000610352</ele>
        <time>2019-07-14T08:38:10.000Z</time>
      </trkpt>
      <trkpt lat="43.1026" lon="1.25623">
        <ele>360.60000610352</ele>
        <time>2019-07-14T08:38:11.000Z</time>
      </trkpt>
      <trkpt lat="43.10256" lon="1.25626">
        <ele>361.39999389648</ele>
        <time>2019-07-14T08:38:16.000Z</time>
      </trkpt>
      <trkpt lat="43.10254" lon="1.25627">
        <ele>362</ele>
        <time>2019-07-14T08:38:17.000Z</time>
      </trkpt>
      <trkpt lat="43.10252" lon="1.25628">
        <ele>362.39999389648</ele>
        <time>2019-07-14T08:38:18.000Z</time>
      </trkpt>
      <trkpt lat="43.1025" lon="1.25629">
        <ele>362.79998779297</ele>
        <time>2019-07-14T08:38:19.000Z</time>
      </trkpt>
      <trkpt lat="43.10246" lon="1.2563">
        <ele>362.79998779297</ele>
        <time>2019-07-14T08:38:21.000Z</time>
      </trkpt>
      <trkpt lat="43.1024" lon="1.25631">
        <ele>363.20001220703</ele>
        <time>2019-07-14T08:38:24.000Z</time>
      </trkpt>
      <trkpt lat="43.10239" lon="1.25632">
        <ele>363.79998779297</ele>
        <time>2019-07-14T08:38:25.000Z</time>
      </trkpt>
      <trkpt lat="43.10237" lon="1.25632">
        <ele>364.20001220703</ele>
        <time>2019-07-14T08:38:26.000Z</time>
      </trkpt>
      <trkpt lat="43.10236" lon="1.25632">
        <ele>364.60000610352</ele>
        <time>2019-07-14T08:38:27.000Z</time>
      </trkpt>
      <trkpt lat="43.10234" lon="1.25632">
        <ele>365</ele>
        <time>2019-07-14T08:38:28.000Z</time>
      </trkpt>
      <trkpt lat="43.10232" lon="1.25633">
        <ele>365.39999389648</ele>
        <time>2019-07-14T08:38:29.000Z</time>
      </trkpt>
      <trkpt lat="43.1023" lon="1.25634">
        <ele>366</ele>
        <time>2019-07-14T08:38:30.000Z</time>
      </trkpt>
      <trkpt lat="43.10227" lon="1.25635">
        <ele>366.39999389648</ele>
        <time>2019-07-14T08:38:31.000Z</time>
      </trkpt>
      <trkpt lat="43.10225" lon="1.25636">
        <ele>366.79998779297</ele>
        <time>2019-07-14T08:38:32.000Z</time>
      </trkpt>
      <trkpt lat="43.10222" lon="1.25636">
        <ele>367.20001220703</ele>
        <time>2019-07-14T08:38:33.000Z</time>
      </trkpt>
      <trkpt lat="43.1022" lon="1.25636">
        <ele>367.20001220703</ele>
        <time>2019-07-14T08:38:34.000Z</time>
      </trkpt>
      <trkpt lat="43.10218" lon="1.25636">
        <ele>367.60000610352</ele>
        <time>2019-07-14T08:38:35.000Z</time>
      </trkpt>
      <trkpt lat="43.10215" lon="1.25635">
        <ele>368</ele>
        <time>2019-07-14T08:38:36.000Z</time>
      </trkpt>
      <trkpt lat="43.10213" lon="1.25634">
        <ele>368.39999389648</ele>
        <time>2019-07-14T08:38:37.000Z</time>
      </trkpt>
      <trkpt lat="43.10212" lon="1.25634">
        <ele>369</ele>
        <time>2019-07-14T08:38:38.000Z</time>
      </trkpt>
      <trkpt lat="43.1021" lon="1.25633">
        <ele>369.39999389648</ele>
        <time>2019-07-14T08:38:39.000Z</time>
      </trkpt>
      <trkpt lat="43.10209" lon="1.25631">
        <ele>369.79998779297</ele>
        <time>2019-07-14T08:38:40.000Z</time>
      </trkpt>
      <trkpt lat="43.10207" lon="1.2563">
        <ele>370.20001220703</ele>
        <time>2019-07-14T08:38:41.000Z</time>
      </trkpt>
      <trkpt lat="43.10206" lon="1.25628">
        <ele>370.60000610352</ele>
        <time>2019-07-14T08:38:42.000Z</time>
      </trkpt>
      <trkpt lat="43.10204" lon="1.25627">
        <ele>371</ele>
        <time>2019-07-14T08:38:43.000Z</time>
      </trkpt>
      <trkpt lat="43.10202" lon="1.25624">
        <ele>371.39999389648</ele>
        <time>2019-07-14T08:38:44.000Z</time>
      </trkpt>
      <trkpt lat="43.10199" lon="1.2562">
        <ele>371.39999389648</ele>
        <time>2019-07-14T08:38:46.000Z</time>
      </trkpt>
      <trkpt lat="43.10196" lon="1.25615">
        <ele>371.39999389648</ele>
        <time>2019-07-14T08:38:48.000Z</time>
      </trkpt>
      <trkpt lat="43.10194" lon="1.25612">
        <ele>371.79998779297</ele>
        <time>2019-07-14T08:38:49.000Z</time>
      </trkpt>
      <trkpt lat="43.10192" lon="1.25609">
        <ele>372.20001220703</ele>
        <time>2019-07-14T08:38:50.000Z</time>
      </trkpt>
      <trkpt lat="43.10191" lon="1.25606">
        <ele>372.60000610352</ele>
        <time>2019-07-14T08:38:51.000Z</time>
      </trkpt>
      <trkpt lat="43.1019" lon="1.25602">
        <ele>373.39999389648</ele>
        <time>2019-07-14T08:38:52.000Z</time>
      </trkpt>
      <trkpt lat="43.10188" lon="1.25595">
        <ele>373.39999389648</ele>
        <time>2019-07-14T08:38:54.000Z</time>
      </trkpt>
      <trkpt lat="43.10186" lon="1.25579">
        <ele>373.39999389648</ele>
        <time>2019-07-14T08:38:59.000Z</time>
      </trkpt>
      <trkpt lat="43.10181" lon="1.25566">
        <ele>373.39999389648</ele>
        <time>2019-07-14T08:39:03.000Z</time>
      </trkpt>
      <trkpt lat="43.10178" lon="1.25556">
        <ele>374</ele>
        <time>2019-07-14T08:39:06.000Z</time>
      </trkpt>
      <trkpt lat="43.10177" lon="1.25554">
        <ele>374.39999389648</ele>
        <time>2019-07-14T08:39:07.000Z</time>
      </trkpt>
      <trkpt lat="43.10176" lon="1.2555">
        <ele>374.79998779297</ele>
        <time>2019-07-14T08:39:08.000Z</time>
      </trkpt>
      <trkpt lat="43.10175" lon="1.25547">
        <ele>375.20001220703</ele>
        <time>2019-07-14T08:39:09.000Z</time>
      </trkpt>
      <trkpt lat="43.10175" lon="1.25544">
        <ele>375.79998779297</ele>
        <time>2019-07-14T08:39:10.000Z</time>
      </trkpt>
      <trkpt lat="43.10173" lon="1.25541">
        <ele>375.79998779297</ele>
        <time>2019-07-14T08:39:11.000Z</time>
      </trkpt>
      <trkpt lat="43.10167" lon="1.25527">
        <ele>375.79998779297</ele>
        <time>2019-07-14T08:39:15.000Z</time>
      </trkpt>
      <trkpt lat="43.10166" lon="1.25524">
        <ele>376.20001220703</ele>
        <time>2019-07-14T08:39:16.000Z</time>
      </trkpt>
      <trkpt lat="43.10164" lon="1.25522">
        <ele>377</ele>
        <time>2019-07-14T08:39:17.000Z</time>
      </trkpt>
      <trkpt lat="43.10163" lon="1.25519">
        <ele>377.39999389648</ele>
        <time>2019-07-14T08:39:18.000Z</time>
      </trkpt>
      <trkpt lat="43.10162" lon="1.25517">
        <ele>377.79998779297</ele>
        <time>2019-07-14T08:39:19.000Z</time>
      </trkpt>
      <trkpt lat="43.1016" lon="1.25515">
        <ele>377.79998779297</ele>
        <time>2019-07-14T08:39:20.000Z</time>
      </trkpt>
      <trkpt lat="43.10156" lon="1.25509">
        <ele>377.79998779297</ele>
        <time>2019-07-14T08:39:23.000Z</time>
      </trkpt>
      <trkpt lat="43.10154" lon="1.25507">
        <ele>377.79998779297</ele>
        <time>2019-07-14T08:39:24.000Z</time>
      </trkpt>
      <trkpt lat="43.10147" lon="1.25499">
        <ele>377.79998779297</ele>
        <time>2019-07-14T08:39:28.000Z</time>
      </trkpt>
      <trkpt lat="43.1014" lon="1.25493">
        <ele>378.39999389648</ele>
        <time>2019-07-14T08:39:32.000Z</time>
      </trkpt>
      <trkpt lat="43.10137" lon="1.2549">
        <ele>378.79998779297</ele>
        <time>2019-07-14T08:39:33.000Z</time>
      </trkpt>
      <trkpt lat="43.10134" lon="1.25487">
        <ele>379.20001220703</ele>
        <time>2019-07-14T08:39:34.000Z</time>
      </trkpt>
      <trkpt lat="43.10132" lon="1.25485">
        <ele>379.60000610352</ele>
        <time>2019-07-14T08:39:35.000Z</time>
      </trkpt>
      <trkpt lat="43.10129" lon="1.25484">
        <ele>380</ele>
        <time>2019-07-14T08:39:36.000Z</time>
      </trkpt>
      <trkpt lat="43.10125" lon="1.25481">
        <ele>380</ele>
        <time>2019-07-14T08:39:38.000Z</time>
      </trkpt>
      <trkpt lat="43.10122" lon="1.2548">
        <ele>380.39999389648</ele>
        <time>2019-07-14T08:39:39.000Z</time>
      </trkpt>
      <trkpt lat="43.1012" lon="1.25479">
        <ele>380.79998779297</ele>
        <time>2019-07-14T08:39:40.000Z</time>
      </trkpt>
      <trkpt lat="43.10119" lon="1.25479">
        <ele>381.39999389648</ele>
        <time>2019-07-14T08:39:41.000Z</time>
      </trkpt>
      <trkpt lat="43.10117" lon="1.25479">
        <ele>382.20001220703</ele>
        <time>2019-07-14T08:39:42.000Z</time>
      </trkpt>
      <trkpt lat="43.10115" lon="1.25479">
        <ele>382.60000610352</ele>
        <time>2019-07-14T08:39:43.000Z</time>
      </trkpt>
      <trkpt lat="43.10113" lon="1.25479">
        <ele>383</ele>
        <time>2019-07-14T08:39:44.000Z</time>
      </trkpt>
      <trkpt lat="43.10112" lon="1.2548">
        <ele>383.39999389648</ele>
        <time>2019-07-14T08:39:45.000Z</time>
      </trkpt>
      <trkpt lat="43.10109" lon="1.25481">
        <ele>384</ele>
        <time>2019-07-14T08:39:46.000Z</time>
      </trkpt>
      <trkpt lat="43.10105" lon="1.25483">
        <ele>384.39999389648</ele>
        <time>2019-07-14T08:39:47.000Z</time>
      </trkpt>
      <trkpt lat="43.10102" lon="1.25486">
        <ele>384.39999389648</ele>
        <time>2019-07-14T08:39:48.000Z</time>
      </trkpt>
      <trkpt lat="43.10093" lon="1.25499">
        <ele>384.39999389648</ele>
        <time>2019-07-14T08:39:52.000Z</time>
      </trkpt>
      <trkpt lat="43.10089" lon="1.25506">
        <ele>384</ele>
        <time>2019-07-14T08:39:54.000Z</time>
      </trkpt>
      <trkpt lat="43.10087" lon="1.25511">
        <ele>383.60000610352</ele>
        <time>2019-07-14T08:39:55.000Z</time>
      </trkpt>
      <trkpt lat="43.10085" lon="1.25516">
        <ele>383.20001220703</ele>
        <time>2019-07-14T08:39:56.000Z</time>
      </trkpt>
      <trkpt lat="43.10082" lon="1.25521">
        <ele>382.79998779297</ele>
        <time>2019-07-14T08:39:57.000Z</time>
      </trkpt>
      <trkpt lat="43.10081" lon="1.25527">
        <ele>382.20001220703</ele>
        <time>2019-07-14T08:39:58.000Z</time>
      </trkpt>
      <trkpt lat="43.10076" lon="1.25543">
        <ele>382.20001220703</ele>
        <time>2019-07-14T08:40:01.000Z</time>
      </trkpt>
      <trkpt lat="43.10072" lon="1.25553">
        <ele>382.20001220703</ele>
        <time>2019-07-14T08:40:03.000Z</time>
      </trkpt>
      <trkpt lat="43.10067" lon="1.25569">
        <ele>382.20001220703</ele>
        <time>2019-07-14T08:40:06.000Z</time>
      </trkpt>
      <trkpt lat="43.10063" lon="1.25578">
        <ele>381.79998779297</ele>
        <time>2019-07-14T08:40:08.000Z</time>
      </trkpt>
      <trkpt lat="43.1006" lon="1.25583">
        <ele>381.39999389648</ele>
        <time>2019-07-14T08:40:09.000Z</time>
      </trkpt>
      <trkpt lat="43.10058" lon="1.25587">
        <ele>381</ele>
        <time>2019-07-14T08:40:10.000Z</time>
      </trkpt>
      <trkpt lat="43.10055" lon="1.25592">
        <ele>380.60000610352</ele>
        <time>2019-07-14T08:40:11.000Z</time>
      </trkpt>
      <trkpt lat="43.10053" lon="1.25596">
        <ele>380.20001220703</ele>
        <time>2019-07-14T08:40:12.000Z</time>
      </trkpt>
      <trkpt lat="43.10044" lon="1.25606">
        <ele>380.20001220703</ele>
        <time>2019-07-14T08:40:15.000Z</time>
      </trkpt>
      <trkpt lat="43.1003" lon="1.25617">
        <ele>380.20001220703</ele>
        <time>2019-07-14T08:40:19.000Z</time>
      </trkpt>
      <trkpt lat="43.10019" lon="1.25623">
        <ele>380.20001220703</ele>
        <time>2019-07-14T08:40:21.000Z</time>
      </trkpt>
      <trkpt lat="43.10006" lon="1.25633">
        <ele>380.20001220703</ele>
        <time>2019-07-14T08:40:24.000Z</time>
      </trkpt>
      <trkpt lat="43.09996" lon="1.25638">
        <ele>380.20001220703</ele>
        <time>2019-07-14T08:40:27.000Z</time>
      </trkpt>
      <trkpt lat="43.09992" lon="1.25637">
        <ele>380.20001220703</ele>
        <time>2019-07-14T08:40:28.000Z</time>
      </trkpt>
      <trkpt lat="43.09983" lon="1.25625">
        <ele>380.20001220703</ele>
        <time>2019-07-14T08:40:32.000Z</time>
      </trkpt>
      <trkpt lat="43.09981" lon="1.25622">
        <ele>380.20001220703</ele>
        <time>2019-07-14T08:40:33.000Z</time>
      </trkpt>
      <trkpt lat="43.09975" lon="1.25614">
        <ele>380.20001220703</ele>
        <time>2019-07-14T08:40:36.000Z</time>
      </trkpt>
      <trkpt lat="43.09971" lon="1.25607">
        <ele>380.20001220703</ele>
        <time>2019-07-14T08:40:38.000Z</time>
      </trkpt>
      <trkpt lat="43.09967" lon="1.25597">
        <ele>380.20001220703</ele>
        <time>2019-07-14T08:40:41.000Z</time>
      </trkpt>
      <trkpt lat="43.09968" lon="1.25588">
        <ele>380.20001220703</ele>
        <time>2019-07-14T08:40:46.000Z</time>
      </trkpt>
      <trkpt lat="43.09969" lon="1.25585">
        <ele>380.60000610352</ele>
        <time>2019-07-14T08:40:48.000Z</time>
      </trkpt>
      <trkpt lat="43.09966" lon="1.25577">
        <ele>381</ele>
        <time>2019-07-14T08:40:49.000Z</time>
      </trkpt>
      <trkpt lat="43.09963" lon="1.25571">
        <ele>381.39999389648</ele>
        <time>2019-07-14T08:40:50.000Z</time>
      </trkpt>
      <trkpt lat="43.09961" lon="1.25567">
        <ele>381.79998779297</ele>
        <time>2019-07-14T08:40:51.000Z</time>
      </trkpt>
      <trkpt lat="43.09959" lon="1.25566">
        <ele>382.39999389648</ele>
        <time>2019-07-14T08:40:52.000Z</time>
      </trkpt>
      <trkpt lat="43.09955" lon="1.25571">
        <ele>382.39999389648</ele>
        <time>2019-07-14T08:40:55.000Z</time>
      </trkpt>
      <trkpt lat="43.09954" lon="1.25573">
        <ele>383.20001220703</ele>
        <time>2019-07-14T08:40:56.000Z</time>
      </trkpt>
      <trkpt lat="43.09953" lon="1.25576">
        <ele>383.60000610352</ele>
        <time>2019-07-14T08:40:57.000Z</time>
      </trkpt>
      <trkpt lat="43.09952" lon="1.25578">
        <ele>384</ele>
        <time>2019-07-14T08:40:58.000Z</time>
      </trkpt>
      <trkpt lat="43.09951" lon="1.25581">
        <ele>384.39999389648</ele>
        <time>2019-07-14T08:40:59.000Z</time>
      </trkpt>
      <trkpt lat="43.09949" lon="1.25585">
        <ele>384.39999389648</ele>
        <time>2019-07-14T08:41:01.000Z</time>
      </trkpt>
      <trkpt lat="43.09947" lon="1.2559">
        <ele>384.79998779297</ele>
        <time>2019-07-14T08:41:04.000Z</time>
      </trkpt>
      <trkpt lat="43.09946" lon="1.25592">
        <ele>385.39999389648</ele>
        <time>2019-07-14T08:41:05.000Z</time>
      </trkpt>
      <trkpt lat="43.09945" lon="1.25595">
        <ele>385.79998779297</ele>
        <time>2019-07-14T08:41:06.000Z</time>
      </trkpt>
      <trkpt lat="43.09943" lon="1.25596">
        <ele>386.20001220703</ele>
        <time>2019-07-14T08:41:07.000Z</time>
      </trkpt>
      <trkpt lat="43.09941" lon="1.25598">
        <ele>386.60000610352</ele>
        <time>2019-07-14T08:41:08.000Z</time>
      </trkpt>
      <trkpt lat="43.09939" lon="1.25599">
        <ele>387</ele>
        <time>2019-07-14T08:41:09.000Z</time>
      </trkpt>
      <trkpt lat="43.09936" lon="1.25601">
        <ele>387.60000610352</ele>
        <time>2019-07-14T08:41:10.000Z</time>
      </trkpt>
      <trkpt lat="43.09934" lon="1.25604">
        <ele>388</ele>
        <time>2019-07-14T08:41:11.000Z</time>
      </trkpt>
      <trkpt lat="43.09931" lon="1.25606">
        <ele>388.39999389648</ele>
        <time>2019-07-14T08:41:12.000Z</time>
      </trkpt>
      <trkpt lat="43.09928" lon="1.25608">
        <ele>388.79998779297</ele>
        <time>2019-07-14T08:41:13.000Z</time>
      </trkpt>
      <trkpt lat="43.09925" lon="1.25611">
        <ele>388.79998779297</ele>
        <time>2019-07-14T08:41:14.000Z</time>
      </trkpt>
      <trkpt lat="43.09908" lon="1.25626">
        <ele>388.79998779297</ele>
        <time>2019-07-14T08:41:20.000Z</time>
      </trkpt>
      <trkpt lat="43.09903" lon="1.25638">
        <ele>388.79998779297</ele>
        <time>2019-07-14T08:41:23.000Z</time>
      </trkpt>
      <trkpt lat="43.09905" lon="1.25656">
        <ele>388.79998779297</ele>
        <time>2019-07-14T08:41:28.000Z</time>
      </trkpt>
      <trkpt lat="43.09908" lon="1.25663">
        <ele>388.79998779297</ele>
        <time>2019-07-14T08:41:31.000Z</time>
      </trkpt>
      <trkpt lat="43.09906" lon="1.25668">
        <ele>389.20001220703</ele>
        <time>2019-07-14T08:41:33.000Z</time>
      </trkpt>
      <trkpt lat="43.09904" lon="1.25671">
        <ele>389.79998779297</ele>
        <time>2019-07-14T08:41:34.000Z</time>
      </trkpt>
      <trkpt lat="43.09902" lon="1.25674">
        <ele>390.20001220703</ele>
        <time>2019-07-14T08:41:35.000Z</time>
      </trkpt>
      <trkpt lat="43.099" lon="1.25677">
        <ele>390.60000610352</ele>
        <time>2019-07-14T08:41:36.000Z</time>
      </trkpt>
      <trkpt lat="43.09897" lon="1.25681">
        <ele>391</ele>
        <time>2019-07-14T08:41:37.000Z</time>
      </trkpt>
      <trkpt lat="43.09892" lon="1.25689">
        <ele>391</ele>
        <time>2019-07-14T08:41:39.000Z</time>
      </trkpt>
      <trkpt lat="43.09875" lon="1.2571">
        <ele>391</ele>
        <time>2019-07-14T08:41:44.000Z</time>
      </trkpt>
      <trkpt lat="43.09871" lon="1.25714">
        <ele>391</ele>
        <time>2019-07-14T08:41:45.000Z</time>
      </trkpt>
      <trkpt lat="43.09867" lon="1.25719">
        <ele>390.20001220703</ele>
        <time>2019-07-14T08:41:46.000Z</time>
      </trkpt>
      <trkpt lat="43.09863" lon="1.25723">
        <ele>389.79998779297</ele>
        <time>2019-07-14T08:41:47.000Z</time>
      </trkpt>
      <trkpt lat="43.09859" lon="1.25727">
        <ele>389.39999389648</ele>
        <time>2019-07-14T08:41:48.000Z</time>
      </trkpt>
      <trkpt lat="43.09856" lon="1.25729">
        <ele>389</ele>
        <time>2019-07-14T08:41:49.000Z</time>
      </trkpt>
      <trkpt lat="43.09848" lon="1.25729">
        <ele>389</ele>
        <time>2019-07-14T08:41:51.000Z</time>
      </trkpt>
      <trkpt lat="43.0984" lon="1.25726">
        <ele>389</ele>
        <time>2019-07-14T08:41:53.000Z</time>
      </trkpt>
      <trkpt lat="43.09835" lon="1.25725">
        <ele>388.39999389648</ele>
        <time>2019-07-14T08:41:54.000Z</time>
      </trkpt>
      <trkpt lat="43.09829" lon="1.25726">
        <ele>388</ele>
        <time>2019-07-14T08:41:55.000Z</time>
      </trkpt>
      <trkpt lat="43.09823" lon="1.25729">
        <ele>387.60000610352</ele>
        <time>2019-07-14T08:41:56.000Z</time>
      </trkpt>
      <trkpt lat="43.09817" lon="1.25735">
        <ele>387</ele>
        <time>2019-07-14T08:41:57.000Z</time>
      </trkpt>
      <trkpt lat="43.09811" lon="1.25743">
        <ele>386.60000610352</ele>
        <time>2019-07-14T08:41:58.000Z</time>
      </trkpt>
      <trkpt lat="43.09805" lon="1.25751">
        <ele>386</ele>
        <time>2019-07-14T08:41:59.000Z</time>
      </trkpt>
      <trkpt lat="43.09798" lon="1.2576">
        <ele>385.39999389648</ele>
        <time>2019-07-14T08:42:00.000Z</time>
      </trkpt>
      <trkpt lat="43.09791" lon="1.25769">
        <ele>384.60000610352</ele>
        <time>2019-07-14T08:42:01.000Z</time>
      </trkpt>
      <trkpt lat="43.09784" lon="1.25778">
        <ele>383.79998779297</ele>
        <time>2019-07-14T08:42:02.000Z</time>
      </trkpt>
      <trkpt lat="43.09776" lon="1.25787">
        <ele>382.79998779297</ele>
        <time>2019-07-14T08:42:03.000Z</time>
      </trkpt>
      <trkpt lat="43.09769" lon="1.25795">
        <ele>381.79998779297</ele>
        <time>2019-07-14T08:42:04.000Z</time>
      </trkpt>
      <trkpt lat="43.09762" lon="1.25803">
        <ele>380.79998779297</ele>
        <time>2019-07-14T08:42:05.000Z</time>
      </trkpt>
      <trkpt lat="43.09755" lon="1.25811">
        <ele>380</ele>
        <time>2019-07-14T08:42:06.000Z</time>
      </trkpt>
      <trkpt lat="43.09748" lon="1.2582">
        <ele>379</ele>
        <time>2019-07-14T08:42:07.000Z</time>
      </trkpt>
      <trkpt lat="43.09742" lon="1.2583">
        <ele>378.20001220703</ele>
        <time>2019-07-14T08:42:08.000Z</time>
      </trkpt>
      <trkpt lat="43.09737" lon="1.25838">
        <ele>377.39999389648</ele>
        <time>2019-07-14T08:42:09.000Z</time>
      </trkpt>
      <trkpt lat="43.09731" lon="1.25846">
        <ele>376.39999389648</ele>
        <time>2019-07-14T08:42:10.000Z</time>
      </trkpt>
      <trkpt lat="43.09705" lon="1.25878">
        <ele>376.39999389648</ele>
        <time>2019-07-14T08:42:15.000Z</time>
      </trkpt>
      <trkpt lat="43.09698" lon="1.25892">
        <ele>376.39999389648</ele>
        <time>2019-07-14T08:42:18.000Z</time>
      </trkpt>
      <trkpt lat="43.09689" lon="1.25909">
        <ele>376.39999389648</ele>
        <time>2019-07-14T08:42:21.000Z</time>
      </trkpt>
      <trkpt lat="43.09688" lon="1.25915">
        <ele>376.39999389648</ele>
        <time>2019-07-14T08:42:22.000Z</time>
      </trkpt>
      <trkpt lat="43.09687" lon="1.25922">
        <ele>376.39999389648</ele>
        <time>2019-07-14T08:42:24.000Z</time>
      </trkpt>
      <trkpt lat="43.09686" lon="1.25925">
        <ele>376.39999389648</ele>
        <time>2019-07-14T08:42:25.000Z</time>
      </trkpt>
      <trkpt lat="43.09683" lon="1.25941">
        <ele>376.39999389648</ele>
        <time>2019-07-14T08:42:29.000Z</time>
      </trkpt>
      <trkpt lat="43.09675" lon="1.25965">
        <ele>376.39999389648</ele>
        <time>2019-07-14T08:42:34.000Z</time>
      </trkpt>
      <trkpt lat="43.09668" lon="1.25973">
        <ele>376.39999389648</ele>
        <time>2019-07-14T08:42:37.000Z</time>
      </trkpt>
      <trkpt lat="43.09666" lon="1.25975">
        <ele>377</ele>
        <time>2019-07-14T08:42:39.000Z</time>
      </trkpt>
      <trkpt lat="43.09664" lon="1.25976">
        <ele>377.39999389648</ele>
        <time>2019-07-14T08:42:40.000Z</time>
      </trkpt>
      <trkpt lat="43.09662" lon="1.25977">
        <ele>377.79998779297</ele>
        <time>2019-07-14T08:42:41.000Z</time>
      </trkpt>
      <trkpt lat="43.0966" lon="1.25978">
        <ele>378.39999389648</ele>
        <time>2019-07-14T08:42:42.000Z</time>
      </trkpt>
      <trkpt lat="43.09658" lon="1.25979">
        <ele>378.79998779297</ele>
        <time>2019-07-14T08:42:43.000Z</time>
      </trkpt>
      <trkpt lat="43.09653" lon="1.25986">
        <ele>378.79998779297</ele>
        <time>2019-07-14T08:42:46.000Z</time>
      </trkpt>
      <trkpt lat="43.09652" lon="1.25987">
        <ele>379.20001220703</ele>
        <time>2019-07-14T08:42:47.000Z</time>
      </trkpt>
      <trkpt lat="43.0965" lon="1.25989">
        <ele>379.60000610352</ele>
        <time>2019-07-14T08:42:48.000Z</time>
      </trkpt>
      <trkpt lat="43.09648" lon="1.25993">
        <ele>380</ele>
        <time>2019-07-14T08:42:49.000Z</time>
      </trkpt>
      <trkpt lat="43.09645" lon="1.25995">
        <ele>380.39999389648</ele>
        <time>2019-07-14T08:42:50.000Z</time>
      </trkpt>
      <trkpt lat="43.09643" lon="1.25997">
        <ele>380.79998779297</ele>
        <time>2019-07-14T08:42:51.000Z</time>
      </trkpt>
      <trkpt lat="43.0964" lon="1.25998">
        <ele>380.79998779297</ele>
        <time>2019-07-14T08:42:52.000Z</time>
      </trkpt>
      <trkpt lat="43.09628" lon="1.26002">
        <ele>381.20001220703</ele>
        <time>2019-07-14T08:42:57.000Z</time>
      </trkpt>
      <trkpt lat="43.09626" lon="1.26004">
        <ele>381.60000610352</ele>
        <time>2019-07-14T08:42:58.000Z</time>
      </trkpt>
      <trkpt lat="43.09624" lon="1.26005">
        <ele>382</ele>
        <time>2019-07-14T08:42:59.000Z</time>
      </trkpt>
      <trkpt lat="43.09622" lon="1.26007">
        <ele>382.79998779297</ele>
        <time>2019-07-14T08:43:00.000Z</time>
      </trkpt>
      <trkpt lat="43.09615" lon="1.26011">
        <ele>382.79998779297</ele>
        <time>2019-07-14T08:43:04.000Z</time>
      </trkpt>
      <trkpt lat="43.09609" lon="1.26017">
        <ele>383.20001220703</ele>
        <time>2019-07-14T08:43:07.000Z</time>
      </trkpt>
      <trkpt lat="43.09608" lon="1.26019">
        <ele>383.60000610352</ele>
        <time>2019-07-14T08:43:08.000Z</time>
      </trkpt>
      <trkpt lat="43.09606" lon="1.26021">
        <ele>384</ele>
        <time>2019-07-14T08:43:09.000Z</time>
      </trkpt>
      <trkpt lat="43.09605" lon="1.26024">
        <ele>384.39999389648</ele>
        <time>2019-07-14T08:43:10.000Z</time>
      </trkpt>
      <trkpt lat="43.09603" lon="1.26026">
        <ele>385</ele>
        <time>2019-07-14T08:43:11.000Z</time>
      </trkpt>
      <trkpt lat="43.09598" lon="1.26032">
        <ele>385</ele>
        <time>2019-07-14T08:43:14.000Z</time>
      </trkpt>
      <trkpt lat="43.09588" lon="1.26046">
        <ele>385</ele>
        <time>2019-07-14T08:43:20.000Z</time>
      </trkpt>
      <trkpt lat="43.09571" lon="1.26059">
        <ele>385</ele>
        <time>2019-07-14T08:43:27.000Z</time>
      </trkpt>
      <trkpt lat="43.09557" lon="1.26067">
        <ele>385</ele>
        <time>2019-07-14T08:43:32.000Z</time>
      </trkpt>
      <trkpt lat="43.09543" lon="1.26074">
        <ele>385</ele>
        <time>2019-07-14T08:43:36.000Z</time>
      </trkpt>
      <trkpt lat="43.09539" lon="1.26076">
        <ele>385</ele>
        <time>2019-07-14T08:43:37.000Z</time>
      </trkpt>
      <trkpt lat="43.09518" lon="1.26089">
        <ele>385</ele>
        <time>2019-07-14T08:43:43.000Z</time>
      </trkpt>
      <trkpt lat="43.095" lon="1.26101">
        <ele>385</ele>
        <time>2019-07-14T08:43:49.000Z</time>
      </trkpt>
      <trkpt lat="43.09497" lon="1.26103">
        <ele>385.39999389648</ele>
        <time>2019-07-14T08:43:50.000Z</time>
      </trkpt>
      <trkpt lat="43.09495" lon="1.26105">
        <ele>385.79998779297</ele>
        <time>2019-07-14T08:43:51.000Z</time>
      </trkpt>
      <trkpt lat="43.09493" lon="1.26108">
        <ele>386.20001220703</ele>
        <time>2019-07-14T08:43:52.000Z</time>
      </trkpt>
      <trkpt lat="43.09492" lon="1.26112">
        <ele>386.79998779297</ele>
        <time>2019-07-14T08:43:53.000Z</time>
      </trkpt>
      <trkpt lat="43.09492" lon="1.26116">
        <ele>387.20001220703</ele>
        <time>2019-07-14T08:43:54.000Z</time>
      </trkpt>
      <trkpt lat="43.09496" lon="1.26131">
        <ele>387.20001220703</ele>
        <time>2019-07-14T08:43:57.000Z</time>
      </trkpt>
      <trkpt lat="43.09504" lon="1.26157">
        <ele>387.20001220703</ele>
        <time>2019-07-14T08:44:03.000Z</time>
      </trkpt>
      <trkpt lat="43.09509" lon="1.26179">
        <ele>387.20001220703</ele>
        <time>2019-07-14T08:44:08.000Z</time>
      </trkpt>
      <trkpt lat="43.09511" lon="1.26184">
        <ele>387.60000610352</ele>
        <time>2019-07-14T08:44:09.000Z</time>
      </trkpt>
      <trkpt lat="43.09512" lon="1.26188">
        <ele>388</ele>
        <time>2019-07-14T08:44:10.000Z</time>
      </trkpt>
      <trkpt lat="43.09512" lon="1.26192">
        <ele>388.39999389648</ele>
        <time>2019-07-14T08:44:11.000Z</time>
      </trkpt>
      <trkpt lat="43.09513" lon="1.26197">
        <ele>388.79998779297</ele>
        <time>2019-07-14T08:44:12.000Z</time>
      </trkpt>
      <trkpt lat="43.09514" lon="1.26201">
        <ele>389.20001220703</ele>
        <time>2019-07-14T08:44:13.000Z</time>
      </trkpt>
      <trkpt lat="43.09515" lon="1.26219">
        <ele>389.20001220703</ele>
        <time>2019-07-14T08:44:17.000Z</time>
      </trkpt>
      <trkpt lat="43.09516" lon="1.26223">
        <ele>389.60000610352</ele>
        <time>2019-07-14T08:44:18.000Z</time>
      </trkpt>
      <trkpt lat="43.09517" lon="1.26227">
        <ele>390</ele>
        <time>2019-07-14T08:44:19.000Z</time>
      </trkpt>
      <trkpt lat="43.09518" lon="1.26231">
        <ele>390.39999389648</ele>
        <time>2019-07-14T08:44:20.000Z</time>
      </trkpt>
      <trkpt lat="43.09518" lon="1.26235">
        <ele>390.79998779297</ele>
        <time>2019-07-14T08:44:21.000Z</time>
      </trkpt>
      <trkpt lat="43.09519" lon="1.2624">
        <ele>391.20001220703</ele>
        <time>2019-07-14T08:44:22.000Z</time>
      </trkpt>
      <trkpt lat="43.0952" lon="1.26244">
        <ele>391.20001220703</ele>
        <time>2019-07-14T08:44:23.000Z</time>
      </trkpt>
      <trkpt lat="43.09526" lon="1.26273">
        <ele>391.60000610352</ele>
        <time>2019-07-14T08:44:30.000Z</time>
      </trkpt>
      <trkpt lat="43.09528" lon="1.26277">
        <ele>392</ele>
        <time>2019-07-14T08:44:31.000Z</time>
      </trkpt>
      <trkpt lat="43.09529" lon="1.2628">
        <ele>392.60000610352</ele>
        <time>2019-07-14T08:44:32.000Z</time>
      </trkpt>
      <trkpt lat="43.0953" lon="1.26283">
        <ele>393</ele>
        <time>2019-07-14T08:44:33.000Z</time>
      </trkpt>
      <trkpt lat="43.09531" lon="1.26286">
        <ele>393.39999389648</ele>
        <time>2019-07-14T08:44:34.000Z</time>
      </trkpt>
      <trkpt lat="43.09533" lon="1.2629">
        <ele>393.39999389648</ele>
        <time>2019-07-14T08:44:35.000Z</time>
      </trkpt>
      <trkpt lat="43.09538" lon="1.263">
        <ele>393.79998779297</ele>
        <time>2019-07-14T08:44:38.000Z</time>
      </trkpt>
      <trkpt lat="43.09539" lon="1.26303">
        <ele>394.20001220703</ele>
        <time>2019-07-14T08:44:39.000Z</time>
      </trkpt>
      <trkpt lat="43.09541" lon="1.26307">
        <ele>394.79998779297</ele>
        <time>2019-07-14T08:44:40.000Z</time>
      </trkpt>
      <trkpt lat="43.09542" lon="1.26311">
        <ele>395.20001220703</ele>
        <time>2019-07-14T08:44:41.000Z</time>
      </trkpt>
      <trkpt lat="43.09544" lon="1.26315">
        <ele>395.60000610352</ele>
        <time>2019-07-14T08:44:42.000Z</time>
      </trkpt>
      <trkpt lat="43.09551" lon="1.26335">
        <ele>395.60000610352</ele>
        <time>2019-07-14T08:44:47.000Z</time>
      </trkpt>
      <trkpt lat="43.09559" lon="1.26355">
        <ele>396</ele>
        <time>2019-07-14T08:44:53.000Z</time>
      </trkpt>
      <trkpt lat="43.0956" lon="1.26358">
        <ele>396.60000610352</ele>
        <time>2019-07-14T08:44:54.000Z</time>
      </trkpt>
      <trkpt lat="43.09562" lon="1.26362">
        <ele>397</ele>
        <time>2019-07-14T08:44:55.000Z</time>
      </trkpt>
      <trkpt lat="43.09563" lon="1.26366">
        <ele>397.39999389648</ele>
        <time>2019-07-14T08:44:56.000Z</time>
      </trkpt>
      <trkpt lat="43.09565" lon="1.2637">
        <ele>397.79998779297</ele>
        <time>2019-07-14T08:44:57.000Z</time>
      </trkpt>
      <trkpt lat="43.09568" lon="1.2638">
        <ele>397.79998779297</ele>
        <time>2019-07-14T08:44:59.000Z</time>
      </trkpt>
      <trkpt lat="43.0957" lon="1.26386">
        <ele>397.79998779297</ele>
        <time>2019-07-14T08:45:00.000Z</time>
      </trkpt>
      <trkpt lat="43.09572" lon="1.26408">
        <ele>397.20001220703</ele>
        <time>2019-07-14T08:45:03.000Z</time>
      </trkpt>
      <trkpt lat="43.09573" lon="1.26417">
        <ele>396.79998779297</ele>
        <time>2019-07-14T08:45:04.000Z</time>
      </trkpt>
      <trkpt lat="43.09573" lon="1.26426">
        <ele>396.39999389648</ele>
        <time>2019-07-14T08:45:05.000Z</time>
      </trkpt>
      <trkpt lat="43.09573" lon="1.26435">
        <ele>395.79998779297</ele>
        <time>2019-07-14T08:45:06.000Z</time>
      </trkpt>
      <trkpt lat="43.09574" lon="1.26444">
        <ele>395.39999389648</ele>
        <time>2019-07-14T08:45:07.000Z</time>
      </trkpt>
      <trkpt lat="43.09576" lon="1.26452">
        <ele>394.79998779297</ele>
        <time>2019-07-14T08:45:08.000Z</time>
      </trkpt>
      <trkpt lat="43.09579" lon="1.2646">
        <ele>394.39999389648</ele>
        <time>2019-07-14T08:45:09.000Z</time>
      </trkpt>
      <trkpt lat="43.09582" lon="1.26467">
        <ele>393.79998779297</ele>
        <time>2019-07-14T08:45:10.000Z</time>
      </trkpt>
      <trkpt lat="43.09586" lon="1.26474">
        <ele>393.39999389648</ele>
        <time>2019-07-14T08:45:11.000Z</time>
      </trkpt>
      <trkpt lat="43.0959" lon="1.26482">
        <ele>393.39999389648</ele>
        <time>2019-07-14T08:45:12.000Z</time>
      </trkpt>
      <trkpt lat="43.09595" lon="1.26495">
        <ele>393.39999389648</ele>
        <time>2019-07-14T08:45:14.000Z</time>
      </trkpt>
      <trkpt lat="43.09598" lon="1.26506">
        <ele>393.39999389648</ele>
        <time>2019-07-14T08:45:16.000Z</time>
      </trkpt>
      <trkpt lat="43.09602" lon="1.26534">
        <ele>393.39999389648</ele>
        <time>2019-07-14T08:45:22.000Z</time>
      </trkpt>
      <trkpt lat="43.09604" lon="1.26557">
        <ele>393.39999389648</ele>
        <time>2019-07-14T08:45:28.000Z</time>
      </trkpt>
      <trkpt lat="43.09604" lon="1.26561">
        <ele>393.79998779297</ele>
        <time>2019-07-14T08:45:29.000Z</time>
      </trkpt>
      <trkpt lat="43.09605" lon="1.26565">
        <ele>394.20001220703</ele>
        <time>2019-07-14T08:45:30.000Z</time>
      </trkpt>
      <trkpt lat="43.09605" lon="1.26569">
        <ele>394.60000610352</ele>
        <time>2019-07-14T08:45:31.000Z</time>
      </trkpt>
      <trkpt lat="43.09606" lon="1.26573">
        <ele>395</ele>
        <time>2019-07-14T08:45:32.000Z</time>
      </trkpt>
      <trkpt lat="43.09606" lon="1.26577">
        <ele>395.39999389648</ele>
        <time>2019-07-14T08:45:33.000Z</time>
      </trkpt>
      <trkpt lat="43.09607" lon="1.26586">
        <ele>395.39999389648</ele>
        <time>2019-07-14T08:45:35.000Z</time>
      </trkpt>
      <trkpt lat="43.09607" lon="1.26617">
        <ele>395.39999389648</ele>
        <time>2019-07-14T08:45:42.000Z</time>
      </trkpt>
      <trkpt lat="43.09608" lon="1.26638">
        <ele>395.39999389648</ele>
        <time>2019-07-14T08:45:47.000Z</time>
      </trkpt>
      <trkpt lat="43.09605" lon="1.26675">
        <ele>395.39999389648</ele>
        <time>2019-07-14T08:45:54.000Z</time>
      </trkpt>
      <trkpt lat="43.09607" lon="1.26698">
        <ele>395.39999389648</ele>
        <time>2019-07-14T08:45:58.000Z</time>
      </trkpt>
      <trkpt lat="43.09608" lon="1.26704">
        <ele>395.39999389648</ele>
        <time>2019-07-14T08:45:59.000Z</time>
      </trkpt>
      <trkpt lat="43.09619" lon="1.26731">
        <ele>395.39999389648</ele>
        <time>2019-07-14T08:46:03.000Z</time>
      </trkpt>
      <trkpt lat="43.09623" lon="1.26746">
        <ele>395</ele>
        <time>2019-07-14T08:46:05.000Z</time>
      </trkpt>
      <trkpt lat="43.09624" lon="1.26753">
        <ele>394.60000610352</ele>
        <time>2019-07-14T08:46:06.000Z</time>
      </trkpt>
      <trkpt lat="43.09624" lon="1.2676">
        <ele>394.20001220703</ele>
        <time>2019-07-14T08:46:07.000Z</time>
      </trkpt>
      <trkpt lat="43.09625" lon="1.26766">
        <ele>393.79998779297</ele>
        <time>2019-07-14T08:46:08.000Z</time>
      </trkpt>
      <trkpt lat="43.09625" lon="1.26773">
        <ele>393.39999389648</ele>
        <time>2019-07-14T08:46:09.000Z</time>
      </trkpt>
      <trkpt lat="43.09623" lon="1.26801">
        <ele>393.39999389648</ele>
        <time>2019-07-14T08:46:13.000Z</time>
      </trkpt>
      <trkpt lat="43.09623" lon="1.26808">
        <ele>393.39999389648</ele>
        <time>2019-07-14T08:46:14.000Z</time>
      </trkpt>
      <trkpt lat="43.09626" lon="1.26831">
        <ele>393.39999389648</ele>
        <time>2019-07-14T08:46:17.000Z</time>
      </trkpt>
      <trkpt lat="43.09628" lon="1.26839">
        <ele>392.79998779297</ele>
        <time>2019-07-14T08:46:18.000Z</time>
      </trkpt>
      <trkpt lat="43.09629" lon="1.26849">
        <ele>392.20001220703</ele>
        <time>2019-07-14T08:46:19.000Z</time>
      </trkpt>
      <trkpt lat="43.09629" lon="1.26859">
        <ele>391.60000610352</ele>
        <time>2019-07-14T08:46:20.000Z</time>
      </trkpt>
      <trkpt lat="43.09629" lon="1.26867">
        <ele>391.20001220703</ele>
        <time>2019-07-14T08:46:21.000Z</time>
      </trkpt>
      <trkpt lat="43.09628" lon="1.26873">
        <ele>390.60000610352</ele>
        <time>2019-07-14T08:46:22.000Z</time>
      </trkpt>
      <trkpt lat="43.09627" lon="1.2688">
        <ele>390.60000610352</ele>
        <time>2019-07-14T08:46:23.000Z</time>
      </trkpt>
      <trkpt lat="43.09626" lon="1.26893">
        <ele>390.60000610352</ele>
        <time>2019-07-14T08:46:25.000Z</time>
      </trkpt>
      <trkpt lat="43.09622" lon="1.2691">
        <ele>390.60000610352</ele>
        <time>2019-07-14T08:46:28.000Z</time>
      </trkpt>
      <trkpt lat="43.09613" lon="1.2694">
        <ele>390.60000610352</ele>
        <time>2019-07-14T08:46:34.000Z</time>
      </trkpt>
      <trkpt lat="43.09612" lon="1.26953">
        <ele>390.60000610352</ele>
        <time>2019-07-14T08:46:37.000Z</time>
      </trkpt>
      <trkpt lat="43.09613" lon="1.26955">
        <ele>390.60000610352</ele>
        <time>2019-07-14T08:46:39.000Z</time>
      </trkpt>
      <trkpt lat="43.09613" lon="1.26956">
        <ele>388.39999389648</ele>
        <time>2019-07-14T08:51:04.000Z</time>
      </trkpt>
      <trkpt lat="43.09616" lon="1.26962">
        <ele>388.39999389648</ele>
        <time>2019-07-14T08:51:06.000Z</time>
      </trkpt>
      <trkpt lat="43.0962" lon="1.26967">
        <ele>388.39999389648</ele>
        <time>2019-07-14T08:51:08.000Z</time>
      </trkpt>
      <trkpt lat="43.09625" lon="1.26971">
        <ele>388.39999389648</ele>
        <time>2019-07-14T08:51:10.000Z</time>
      </trkpt>
      <trkpt lat="43.0963" lon="1.26975">
        <ele>388.39999389648</ele>
        <time>2019-07-14T08:51:12.000Z</time>
      </trkpt>
      <trkpt lat="43.09637" lon="1.26984">
        <ele>388.39999389648</ele>
        <time>2019-07-14T08:51:15.000Z</time>
      </trkpt>
      <trkpt lat="43.09641" lon="1.26998">
        <ele>388.39999389648</ele>
        <time>2019-07-14T08:51:19.000Z</time>
      </trkpt>
      <trkpt lat="43.09646" lon="1.27024">
        <ele>388.39999389648</ele>
        <time>2019-07-14T08:51:25.000Z</time>
      </trkpt>
      <trkpt lat="43.09647" lon="1.2706">
        <ele>388.39999389648</ele>
        <time>2019-07-14T08:51:32.000Z</time>
      </trkpt>
      <trkpt lat="43.09647" lon="1.2707">
        <ele>388</ele>
        <time>2019-07-14T08:51:34.000Z</time>
      </trkpt>
      <trkpt lat="43.09646" lon="1.27074">
        <ele>387.60000610352</ele>
        <time>2019-07-14T08:51:35.000Z</time>
      </trkpt>
      <trkpt lat="43.09645" lon="1.27077">
        <ele>387.20001220703</ele>
        <time>2019-07-14T08:51:36.000Z</time>
      </trkpt>
      <trkpt lat="43.09643" lon="1.27079">
        <ele>386.79998779297</ele>
        <time>2019-07-14T08:51:37.000Z</time>
      </trkpt>
      <trkpt lat="43.09642" lon="1.27081">
        <ele>386.39999389648</ele>
        <time>2019-07-14T08:51:38.000Z</time>
      </trkpt>
      <trkpt lat="43.0964" lon="1.27081">
        <ele>386.39999389648</ele>
        <time>2019-07-14T08:51:39.000Z</time>
      </trkpt>
      <trkpt lat="43.09639" lon="1.27079">
        <ele>386.39999389648</ele>
        <time>2019-07-14T08:51:41.000Z</time>
      </trkpt>
      <trkpt lat="43.09633" lon="1.27079">
        <ele>386.39999389648</ele>
        <time>2019-07-14T08:51:45.000Z</time>
      </trkpt>
      <trkpt lat="43.09628" lon="1.27079">
        <ele>386.39999389648</ele>
        <time>2019-07-14T08:51:48.000Z</time>
      </trkpt>
      <trkpt lat="43.09624" lon="1.27081">
        <ele>386.39999389648</ele>
        <time>2019-07-14T08:51:51.000Z</time>
      </trkpt>
      <trkpt lat="43.09622" lon="1.27081">
        <ele>386.79998779297</ele>
        <time>2019-07-14T08:51:52.000Z</time>
      </trkpt>
      <trkpt lat="43.09621" lon="1.27082">
        <ele>387.20001220703</ele>
        <time>2019-07-14T08:51:53.000Z</time>
      </trkpt>
      <trkpt lat="43.09619" lon="1.27082">
        <ele>387.60000610352</ele>
        <time>2019-07-14T08:51:54.000Z</time>
      </trkpt>
      <trkpt lat="43.09618" lon="1.27083">
        <ele>388.20001220703</ele>
        <time>2019-07-14T08:51:55.000Z</time>
      </trkpt>
      <trkpt lat="43.09616" lon="1.27084">
        <ele>388.60000610352</ele>
        <time>2019-07-14T08:51:56.000Z</time>
      </trkpt>
      <trkpt lat="43.09615" lon="1.27084">
        <ele>388.60000610352</ele>
        <time>2019-07-14T08:51:57.000Z</time>
      </trkpt>
      <trkpt lat="43.09611" lon="1.27085">
        <ele>389</ele>
        <time>2019-07-14T08:51:59.000Z</time>
      </trkpt>
      <trkpt lat="43.0961" lon="1.27086">
        <ele>389.39999389648</ele>
        <time>2019-07-14T08:52:00.000Z</time>
      </trkpt>
      <trkpt lat="43.09608" lon="1.27086">
        <ele>389.79998779297</ele>
        <time>2019-07-14T08:52:01.000Z</time>
      </trkpt>
      <trkpt lat="43.09607" lon="1.27087">
        <ele>390.20001220703</ele>
        <time>2019-07-14T08:52:02.000Z</time>
      </trkpt>
      <trkpt lat="43.09605" lon="1.27087">
        <ele>390.60000610352</ele>
        <time>2019-07-14T08:52:03.000Z</time>
      </trkpt>
      <trkpt lat="43.09604" lon="1.27087">
        <ele>390.60000610352</ele>
        <time>2019-07-14T08:52:04.000Z</time>
      </trkpt>
      <trkpt lat="43.09594" lon="1.27091">
        <ele>391</ele>
        <time>2019-07-14T08:52:10.000Z</time>
      </trkpt>
      <trkpt lat="43.09592" lon="1.27091">
        <ele>391.39999389648</ele>
        <time>2019-07-14T08:52:11.000Z</time>
      </trkpt>
      <trkpt lat="43.09591" lon="1.27092">
        <ele>391.79998779297</ele>
        <time>2019-07-14T08:52:12.000Z</time>
      </trkpt>
      <trkpt lat="43.09589" lon="1.27092">
        <ele>392.20001220703</ele>
        <time>2019-07-14T08:52:13.000Z</time>
      </trkpt>
      <trkpt lat="43.09588" lon="1.27093">
        <ele>392.60000610352</ele>
        <time>2019-07-14T08:52:14.000Z</time>
      </trkpt>
      <trkpt lat="43.09585" lon="1.27093">
        <ele>392.60000610352</ele>
        <time>2019-07-14T08:52:16.000Z</time>
      </trkpt>
      <trkpt lat="43.09581" lon="1.27095">
        <ele>393.20001220703</ele>
        <time>2019-07-14T08:52:19.000Z</time>
      </trkpt>
      <trkpt lat="43.0958" lon="1.27094">
        <ele>393.60000610352</ele>
        <time>2019-07-14T08:52:20.000Z</time>
      </trkpt>
      <trkpt lat="43.09579" lon="1.27094">
        <ele>394</ele>
        <time>2019-07-14T08:52:21.000Z</time>
      </trkpt>
      <trkpt lat="43.09577" lon="1.27095">
        <ele>394.79998779297</ele>
        <time>2019-07-14T08:52:22.000Z</time>
      </trkpt>
      <trkpt lat="43.09575" lon="1.27093">
        <ele>394.79998779297</ele>
        <time>2019-07-14T08:52:23.000Z</time>
      </trkpt>
      <trkpt lat="43.09572" lon="1.27087">
        <ele>394.79998779297</ele>
        <time>2019-07-14T08:52:26.000Z</time>
      </trkpt>
      <trkpt lat="43.09571" lon="1.27086">
        <ele>395.20001220703</ele>
        <time>2019-07-14T08:52:27.000Z</time>
      </trkpt>
      <trkpt lat="43.09569" lon="1.27084">
        <ele>395.60000610352</ele>
        <time>2019-07-14T08:52:28.000Z</time>
      </trkpt>
      <trkpt lat="43.09568" lon="1.27083">
        <ele>396.20001220703</ele>
        <time>2019-07-14T08:52:29.000Z</time>
      </trkpt>
      <trkpt lat="43.09567" lon="1.27082">
        <ele>396.60000610352</ele>
        <time>2019-07-14T08:52:30.000Z</time>
      </trkpt>
      <trkpt lat="43.09565" lon="1.27081">
        <ele>397</ele>
        <time>2019-07-14T08:52:31.000Z</time>
      </trkpt>
      <trkpt lat="43.09564" lon="1.2708">
        <ele>397</ele>
        <time>2019-07-14T08:52:32.000Z</time>
      </trkpt>
      <trkpt lat="43.09558" lon="1.27074">
        <ele>397.39999389648</ele>
        <time>2019-07-14T08:52:36.000Z</time>
      </trkpt>
      <trkpt lat="43.09557" lon="1.27072">
        <ele>397.79998779297</ele>
        <time>2019-07-14T08:52:37.000Z</time>
      </trkpt>
      <trkpt lat="43.09556" lon="1.2707">
        <ele>398.39999389648</ele>
        <time>2019-07-14T08:52:38.000Z</time>
      </trkpt>
      <trkpt lat="43.09555" lon="1.27068">
        <ele>398.79998779297</ele>
        <time>2019-07-14T08:52:39.000Z</time>
      </trkpt>
      <trkpt lat="43.09554" lon="1.27065">
        <ele>399.20001220703</ele>
        <time>2019-07-14T08:52:40.000Z</time>
      </trkpt>
      <trkpt lat="43.0955" lon="1.27058">
        <ele>399.60000610352</ele>
        <time>2019-07-14T08:52:44.000Z</time>
      </trkpt>
      <trkpt lat="43.09549" lon="1.27056">
        <ele>400</ele>
        <time>2019-07-14T08:52:45.000Z</time>
      </trkpt>
      <trkpt lat="43.09548" lon="1.27054">
        <ele>400.79998779297</ele>
        <time>2019-07-14T08:52:46.000Z</time>
      </trkpt>
      <trkpt lat="43.09547" lon="1.27051">
        <ele>401.20001220703</ele>
        <time>2019-07-14T08:52:47.000Z</time>
      </trkpt>
      <trkpt lat="43.09546" lon="1.27045">
        <ele>401.20001220703</ele>
        <time>2019-07-14T08:52:50.000Z</time>
      </trkpt>
      <trkpt lat="43.09543" lon="1.27031">
        <ele>401.20001220703</ele>
        <time>2019-07-14T08:52:57.000Z</time>
      </trkpt>
      <trkpt lat="43.09543" lon="1.27029">
        <ele>401.20001220703</ele>
        <time>2019-07-14T08:52:58.000Z</time>
      </trkpt>
      <trkpt lat="43.09541" lon="1.27022">
        <ele>401.60000610352</ele>
        <time>2019-07-14T08:53:01.000Z</time>
      </trkpt>
      <trkpt lat="43.09541" lon="1.2702">
        <ele>402.20001220703</ele>
        <time>2019-07-14T08:53:02.000Z</time>
      </trkpt>
      <trkpt lat="43.0954" lon="1.27017">
        <ele>402.60000610352</ele>
        <time>2019-07-14T08:53:03.000Z</time>
      </trkpt>
      <trkpt lat="43.0954" lon="1.27015">
        <ele>403.20001220703</ele>
        <time>2019-07-14T08:53:04.000Z</time>
      </trkpt>
      <trkpt lat="43.09539" lon="1.27014">
        <ele>403.60000610352</ele>
        <time>2019-07-14T08:53:05.000Z</time>
      </trkpt>
      <trkpt lat="43.09539" lon="1.27011">
        <ele>403.60000610352</ele>
        <time>2019-07-14T08:53:06.000Z</time>
      </trkpt>
      <trkpt lat="43.0954" lon="1.27007">
        <ele>403.60000610352</ele>
        <time>2019-07-14T08:53:08.000Z</time>
      </trkpt>
      <trkpt lat="43.09539" lon="1.27005">
        <ele>403.60000610352</ele>
        <time>2019-07-14T08:53:09.000Z</time>
      </trkpt>
      <trkpt lat="43.09539" lon="1.27002">
        <ele>404</ele>
        <time>2019-07-14T08:53:10.000Z</time>
      </trkpt>
      <trkpt lat="43.09539" lon="1.27">
        <ele>404.79998779297</ele>
        <time>2019-07-14T08:53:11.000Z</time>
      </trkpt>
      <trkpt lat="43.09539" lon="1.26999">
        <ele>405.39999389648</ele>
        <time>2019-07-14T08:53:12.000Z</time>
      </trkpt>
      <trkpt lat="43.09539" lon="1.26997">
        <ele>405.79998779297</ele>
        <time>2019-07-14T08:53:13.000Z</time>
      </trkpt>
      <trkpt lat="43.09539" lon="1.26992">
        <ele>405.79998779297</ele>
        <time>2019-07-14T08:53:15.000Z</time>
      </trkpt>
      <trkpt lat="43.09539" lon="1.26981">
        <ele>405.79998779297</ele>
        <time>2019-07-14T08:53:19.000Z</time>
      </trkpt>
      <trkpt lat="43.09539" lon="1.26977">
        <ele>405.79998779297</ele>
        <time>2019-07-14T08:53:21.000Z</time>
      </trkpt>
      <trkpt lat="43.0954" lon="1.2697">
        <ele>405.79998779297</ele>
        <time>2019-07-14T08:53:24.000Z</time>
      </trkpt>
      <trkpt lat="43.0954" lon="1.26966">
        <ele>405.79998779297</ele>
        <time>2019-07-14T08:53:26.000Z</time>
      </trkpt>
      <trkpt lat="43.0954" lon="1.26964">
        <ele>406.20001220703</ele>
        <time>2019-07-14T08:53:27.000Z</time>
      </trkpt>
      <trkpt lat="43.0954" lon="1.26962">
        <ele>406.60000610352</ele>
        <time>2019-07-14T08:53:28.000Z</time>
      </trkpt>
      <trkpt lat="43.09539" lon="1.26959">
        <ele>407</ele>
        <time>2019-07-14T08:53:29.000Z</time>
      </trkpt>
      <trkpt lat="43.09539" lon="1.26957">
        <ele>407.39999389648</ele>
        <time>2019-07-14T08:53:30.000Z</time>
      </trkpt>
      <trkpt lat="43.09539" lon="1.26955">
        <ele>407.79998779297</ele>
        <time>2019-07-14T08:53:31.000Z</time>
      </trkpt>
      <trkpt lat="43.09538" lon="1.26945">
        <ele>408.20001220703</ele>
        <time>2019-07-14T08:53:36.000Z</time>
      </trkpt>
      <trkpt lat="43.09538" lon="1.26943">
        <ele>408.79998779297</ele>
        <time>2019-07-14T08:53:37.000Z</time>
      </trkpt>
      <trkpt lat="43.09539" lon="1.2694">
        <ele>409.20001220703</ele>
        <time>2019-07-14T08:53:38.000Z</time>
      </trkpt>
      <trkpt lat="43.09539" lon="1.26938">
        <ele>409.60000610352</ele>
        <time>2019-07-14T08:53:39.000Z</time>
      </trkpt>
      <trkpt lat="43.09538" lon="1.26934">
        <ele>410</ele>
        <time>2019-07-14T08:53:40.000Z</time>
      </trkpt>
      <trkpt lat="43.09539" lon="1.26928">
        <ele>410</ele>
        <time>2019-07-14T08:53:43.000Z</time>
      </trkpt>
      <trkpt lat="43.09538" lon="1.26926">
        <ele>410.39999389648</ele>
        <time>2019-07-14T08:53:44.000Z</time>
      </trkpt>
      <trkpt lat="43.09538" lon="1.26924">
        <ele>411</ele>
        <time>2019-07-14T08:53:45.000Z</time>
      </trkpt>
      <trkpt lat="43.09537" lon="1.26921">
        <ele>411.39999389648</ele>
        <time>2019-07-14T08:53:46.000Z</time>
      </trkpt>
      <trkpt lat="43.09537" lon="1.26919">
        <ele>411.79998779297</ele>
        <time>2019-07-14T08:53:47.000Z</time>
      </trkpt>
      <trkpt lat="43.09537" lon="1.26917">
        <ele>412.20001220703</ele>
        <time>2019-07-14T08:53:48.000Z</time>
      </trkpt>
      <trkpt lat="43.09537" lon="1.26915">
        <ele>412.20001220703</ele>
        <time>2019-07-14T08:53:50.000Z</time>
      </trkpt>
      <trkpt lat="43.09534" lon="1.26902">
        <ele>412.20001220703</ele>
        <time>2019-07-14T08:53:56.000Z</time>
      </trkpt>
      <trkpt lat="43.09533" lon="1.26897">
        <ele>412.20001220703</ele>
        <time>2019-07-14T08:53:58.000Z</time>
      </trkpt>
      <trkpt lat="43.09533" lon="1.26893">
        <ele>412.60000610352</ele>
        <time>2019-07-14T08:54:00.000Z</time>
      </trkpt>
      <trkpt lat="43.09533" lon="1.26892">
        <ele>413.39999389648</ele>
        <time>2019-07-14T08:54:01.000Z</time>
      </trkpt>
      <trkpt lat="43.09532" lon="1.26891">
        <ele>414</ele>
        <time>2019-07-14T08:54:02.000Z</time>
      </trkpt>
      <trkpt lat="43.09529" lon="1.26882">
        <ele>414.39999389648</ele>
        <time>2019-07-14T08:54:23.000Z</time>
      </trkpt>
      <trkpt lat="43.09528" lon="1.26881">
        <ele>414.79998779297</ele>
        <time>2019-07-14T08:54:25.000Z</time>
      </trkpt>
      <trkpt lat="43.09526" lon="1.26879">
        <ele>415.20001220703</ele>
        <time>2019-07-14T08:54:26.000Z</time>
      </trkpt>
      <trkpt lat="43.09525" lon="1.26878">
        <ele>415.60000610352</ele>
        <time>2019-07-14T08:54:27.000Z</time>
      </trkpt>
      <trkpt lat="43.09524" lon="1.26877">
        <ele>416</ele>
        <time>2019-07-14T08:54:28.000Z</time>
      </trkpt>
      <trkpt lat="43.09524" lon="1.26876">
        <ele>416.39999389648</ele>
        <time>2019-07-14T08:54:29.000Z</time>
      </trkpt>
      <trkpt lat="43.09524" lon="1.26874">
        <ele>416.39999389648</ele>
        <time>2019-07-14T08:54:30.000Z</time>
      </trkpt>
      <trkpt lat="43.09526" lon="1.26872">
        <ele>416.39999389648</ele>
        <time>2019-07-14T08:55:22.000Z</time>
      </trkpt>
      <trkpt lat="43.09526" lon="1.26869">
        <ele>416.39999389648</ele>
        <time>2019-07-14T08:55:24.000Z</time>
      </trkpt>
      <trkpt lat="43.09518" lon="1.26853">
        <ele>419.20001220703</ele>
        <time>2019-07-14T09:00:35.000Z</time>
      </trkpt>
      <trkpt lat="43.09518" lon="1.26853">
        <ele>420</ele>
        <time>2019-07-14T09:00:36.000Z</time>
      </trkpt>
      <trkpt lat="43.09517" lon="1.26851">
        <ele>420.39999389648</ele>
        <time>2019-07-14T09:00:38.000Z</time>
      </trkpt>
      <trkpt lat="43.09517" lon="1.2685">
        <ele>420.39999389648</ele>
        <time>2019-07-14T09:00:39.000Z</time>
      </trkpt>
      <trkpt lat="43.09514" lon="1.26845">
        <ele>420.39999389648</ele>
        <time>2019-07-14T09:00:44.000Z</time>
      </trkpt>
      <trkpt lat="43.09511" lon="1.26826">
        <ele>422.60000610352</ele>
        <time>2019-07-14T09:01:14.000Z</time>
      </trkpt>
      <trkpt lat="43.0951" lon="1.26817">
        <ele>422.60000610352</ele>
        <time>2019-07-14T09:01:18.000Z</time>
      </trkpt>
      <trkpt lat="43.09509" lon="1.26811">
        <ele>422.60000610352</ele>
        <time>2019-07-14T09:01:20.000Z</time>
      </trkpt>
      <trkpt lat="43.09508" lon="1.26807">
        <ele>422.60000610352</ele>
        <time>2019-07-14T09:01:24.000Z</time>
      </trkpt>
      <trkpt lat="43.09508" lon="1.26805">
        <ele>423</ele>
        <time>2019-07-14T09:01:25.000Z</time>
      </trkpt>
      <trkpt lat="43.09508" lon="1.26803">
        <ele>423.39999389648</ele>
        <time>2019-07-14T09:01:26.000Z</time>
      </trkpt>
      <trkpt lat="43.09509" lon="1.26802">
        <ele>423.79998779297</ele>
        <time>2019-07-14T09:01:27.000Z</time>
      </trkpt>
      <trkpt lat="43.09509" lon="1.268">
        <ele>424.20001220703</ele>
        <time>2019-07-14T09:01:28.000Z</time>
      </trkpt>
      <trkpt lat="43.09508" lon="1.268">
        <ele>424.60000610352</ele>
        <time>2019-07-14T09:01:29.000Z</time>
      </trkpt>
      <trkpt lat="43.09509" lon="1.26738">
        <ele>431</ele>
        <time>2019-07-14T09:23:12.000Z</time>
      </trkpt>
      <trkpt lat="43.09507" lon="1.26735">
        <ele>431</ele>
        <time>2019-07-14T09:23:14.000Z</time>
      </trkpt>
      <trkpt lat="43.09508" lon="1.26731">
        <ele>431</ele>
        <time>2019-07-14T09:23:16.000Z</time>
      </trkpt>
      <trkpt lat="43.09506" lon="1.26724">
        <ele>431</ele>
        <time>2019-07-14T09:23:19.000Z</time>
      </trkpt>
      <trkpt lat="43.09502" lon="1.26714">
        <ele>431.39999389648</ele>
        <time>2019-07-14T09:23:23.000Z</time>
      </trkpt>
      <trkpt lat="43.09501" lon="1.26711">
        <ele>431.79998779297</ele>
        <time>2019-07-14T09:23:24.000Z</time>
      </trkpt>
      <trkpt lat="43.095" lon="1.26708">
        <ele>432.20001220703</ele>
        <time>2019-07-14T09:23:25.000Z</time>
      </trkpt>
      <trkpt lat="43.09499" lon="1.26706">
        <ele>432.60000610352</ele>
        <time>2019-07-14T09:23:26.000Z</time>
      </trkpt>
      <trkpt lat="43.09498" lon="1.26703">
        <ele>433.20001220703</ele>
        <time>2019-07-14T09:23:27.000Z</time>
      </trkpt>
      <trkpt lat="43.09498" lon="1.267">
        <ele>433.20001220703</ele>
        <time>2019-07-14T09:23:28.000Z</time>
      </trkpt>
      <trkpt lat="43.09495" lon="1.26696">
        <ele>433.60000610352</ele>
        <time>2019-07-14T09:23:30.000Z</time>
      </trkpt>
      <trkpt lat="43.09494" lon="1.26694">
        <ele>434</ele>
        <time>2019-07-14T09:23:31.000Z</time>
      </trkpt>
      <trkpt lat="43.09493" lon="1.2669">
        <ele>434.39999389648</ele>
        <time>2019-07-14T09:23:32.000Z</time>
      </trkpt>
      <trkpt lat="43.09491" lon="1.26687">
        <ele>434.79998779297</ele>
        <time>2019-07-14T09:23:33.000Z</time>
      </trkpt>
      <trkpt lat="43.0949" lon="1.26683">
        <ele>435.20001220703</ele>
        <time>2019-07-14T09:23:34.000Z</time>
      </trkpt>
      <trkpt lat="43.09489" lon="1.2668">
        <ele>435.20001220703</ele>
        <time>2019-07-14T09:23:35.000Z</time>
      </trkpt>
      <trkpt lat="43.09488" lon="1.26678">
        <ele>435.20001220703</ele>
        <time>2019-07-14T09:23:36.000Z</time>
      </trkpt>
      <trkpt lat="43.09487" lon="1.26676">
        <ele>435.20001220703</ele>
        <time>2019-07-14T09:23:37.000Z</time>
      </trkpt>
      <trkpt lat="43.0948" lon="1.26659">
        <ele>435.20001220703</ele>
        <time>2019-07-14T09:23:42.000Z</time>
      </trkpt>
      <trkpt lat="43.09472" lon="1.26645">
        <ele>435.20001220703</ele>
        <time>2019-07-14T09:23:46.000Z</time>
      </trkpt>
      <trkpt lat="43.09468" lon="1.26638">
        <ele>435.60000610352</ele>
        <time>2019-07-14T09:23:48.000Z</time>
      </trkpt>
      <trkpt lat="43.09467" lon="1.26636">
        <ele>436</ele>
        <time>2019-07-14T09:23:49.000Z</time>
      </trkpt>
      <trkpt lat="43.09466" lon="1.26633">
        <ele>436.39999389648</ele>
        <time>2019-07-14T09:23:50.000Z</time>
      </trkpt>
      <trkpt lat="43.09465" lon="1.2663">
        <ele>436.79998779297</ele>
        <time>2019-07-14T09:23:51.000Z</time>
      </trkpt>
      <trkpt lat="43.09464" lon="1.26628">
        <ele>437.20001220703</ele>
        <time>2019-07-14T09:23:52.000Z</time>
      </trkpt>
      <trkpt lat="43.09463" lon="1.26626">
        <ele>437.20001220703</ele>
        <time>2019-07-14T09:23:53.000Z</time>
      </trkpt>
      <trkpt lat="43.09458" lon="1.26624">
        <ele>437.20001220703</ele>
        <time>2019-07-14T09:23:55.000Z</time>
      </trkpt>
      <trkpt lat="43.09454" lon="1.26622">
        <ele>437.20001220703</ele>
        <time>2019-07-14T09:23:57.000Z</time>
      </trkpt>
      <trkpt lat="43.09451" lon="1.26619">
        <ele>437.60000610352</ele>
        <time>2019-07-14T09:24:00.000Z</time>
      </trkpt>
      <trkpt lat="43.0945" lon="1.26618">
        <ele>438</ele>
        <time>2019-07-14T09:24:01.000Z</time>
      </trkpt>
      <trkpt lat="43.09449" lon="1.26616">
        <ele>438.60000610352</ele>
        <time>2019-07-14T09:24:02.000Z</time>
      </trkpt>
      <trkpt lat="43.09448" lon="1.26613">
        <ele>439</ele>
        <time>2019-07-14T09:24:03.000Z</time>
      </trkpt>
      <trkpt lat="43.09447" lon="1.26611">
        <ele>439.39999389648</ele>
        <time>2019-07-14T09:24:04.000Z</time>
      </trkpt>
      <trkpt lat="43.09445" lon="1.26607">
        <ele>439.79998779297</ele>
        <time>2019-07-14T09:24:06.000Z</time>
      </trkpt>
      <trkpt lat="43.09444" lon="1.26605">
        <ele>440.20001220703</ele>
        <time>2019-07-14T09:24:07.000Z</time>
      </trkpt>
      <trkpt lat="43.09443" lon="1.26604">
        <ele>440.60000610352</ele>
        <time>2019-07-14T09:24:08.000Z</time>
      </trkpt>
      <trkpt lat="43.09443" lon="1.26602">
        <ele>441.20001220703</ele>
        <time>2019-07-14T09:24:09.000Z</time>
      </trkpt>
      <trkpt lat="43.09442" lon="1.266">
        <ele>441.60000610352</ele>
        <time>2019-07-14T09:24:10.000Z</time>
      </trkpt>
      <trkpt lat="43.09441" lon="1.26598">
        <ele>441.60000610352</ele>
        <time>2019-07-14T09:24:11.000Z</time>
      </trkpt>
      <trkpt lat="43.09437" lon="1.2659">
        <ele>441.60000610352</ele>
        <time>2019-07-14T09:24:15.000Z</time>
      </trkpt>
      <trkpt lat="43.09436" lon="1.26589">
        <ele>442</ele>
        <time>2019-07-14T09:24:16.000Z</time>
      </trkpt>
      <trkpt lat="43.09436" lon="1.26587">
        <ele>442.39999389648</ele>
        <time>2019-07-14T09:24:17.000Z</time>
      </trkpt>
      <trkpt lat="43.09435" lon="1.26585">
        <ele>442.79998779297</ele>
        <time>2019-07-14T09:24:18.000Z</time>
      </trkpt>
      <trkpt lat="43.09435" lon="1.26585">
        <ele>443.20001220703</ele>
        <time>2019-07-14T09:24:19.000Z</time>
      </trkpt>
      <trkpt lat="43.09434" lon="1.26583">
        <ele>443.60000610352</ele>
        <time>2019-07-14T09:24:20.000Z</time>
      </trkpt>
      <trkpt lat="43.09434" lon="1.26582">
        <ele>443.60000610352</ele>
        <time>2019-07-14T09:24:21.000Z</time>
      </trkpt>
      <trkpt lat="43.09428" lon="1.26574">
        <ele>443.60000610352</ele>
        <time>2019-07-14T09:24:27.000Z</time>
      </trkpt>
      <trkpt lat="43.09427" lon="1.26573">
        <ele>444</ele>
        <time>2019-07-14T09:24:28.000Z</time>
      </trkpt>
      <trkpt lat="43.09425" lon="1.26572">
        <ele>444.60000610352</ele>
        <time>2019-07-14T09:24:29.000Z</time>
      </trkpt>
      <trkpt lat="43.09424" lon="1.26572">
        <ele>445.39999389648</ele>
        <time>2019-07-14T09:24:30.000Z</time>
      </trkpt>
      <trkpt lat="43.09424" lon="1.26571">
        <ele>445.79998779297</ele>
        <time>2019-07-14T09:24:31.000Z</time>
      </trkpt>
      <trkpt lat="43.09421" lon="1.26568">
        <ele>445.79998779297</ele>
        <time>2019-07-14T09:24:33.000Z</time>
      </trkpt>
      <trkpt lat="43.09417" lon="1.26565">
        <ele>446.20001220703</ele>
        <time>2019-07-14T09:24:37.000Z</time>
      </trkpt>
      <trkpt lat="43.09416" lon="1.26564">
        <ele>446.60000610352</ele>
        <time>2019-07-14T09:24:38.000Z</time>
      </trkpt>
      <trkpt lat="43.09415" lon="1.26563">
        <ele>447</ele>
        <time>2019-07-14T09:24:39.000Z</time>
      </trkpt>
      <trkpt lat="43.09414" lon="1.26562">
        <ele>447.39999389648</ele>
        <time>2019-07-14T09:24:40.000Z</time>
      </trkpt>
      <trkpt lat="43.09413" lon="1.26562">
        <ele>447.79998779297</ele>
        <time>2019-07-14T09:24:41.000Z</time>
      </trkpt>
      <trkpt lat="43.09411" lon="1.26559">
        <ele>447.79998779297</ele>
        <time>2019-07-14T09:24:43.000Z</time>
      </trkpt>
      <trkpt lat="43.09406" lon="1.26555">
        <ele>447.79998779297</ele>
        <time>2019-07-14T09:24:49.000Z</time>
      </trkpt>
      <trkpt lat="43.09402" lon="1.26552">
        <ele>450</ele>
        <time>2019-07-14T09:24:54.000Z</time>
      </trkpt>
      <trkpt lat="43.09397" lon="1.2655">
        <ele>450</ele>
        <time>2019-07-14T09:24:57.000Z</time>
      </trkpt>
      <trkpt lat="43.09388" lon="1.26543">
        <ele>450</ele>
        <time>2019-07-14T09:25:03.000Z</time>
      </trkpt>
      <trkpt lat="43.09386" lon="1.26541">
        <ele>450.39999389648</ele>
        <time>2019-07-14T09:25:05.000Z</time>
      </trkpt>
      <trkpt lat="43.09385" lon="1.2654">
        <ele>450.79998779297</ele>
        <time>2019-07-14T09:25:06.000Z</time>
      </trkpt>
      <trkpt lat="43.09384" lon="1.26538">
        <ele>451.20001220703</ele>
        <time>2019-07-14T09:25:07.000Z</time>
      </trkpt>
      <trkpt lat="43.09383" lon="1.26536">
        <ele>451.60000610352</ele>
        <time>2019-07-14T09:25:08.000Z</time>
      </trkpt>
      <trkpt lat="43.09382" lon="1.26534">
        <ele>452</ele>
        <time>2019-07-14T09:25:09.000Z</time>
      </trkpt>
      <trkpt lat="43.09381" lon="1.26532">
        <ele>452</ele>
        <time>2019-07-14T09:25:10.000Z</time>
      </trkpt>
      <trkpt lat="43.0938" lon="1.26529">
        <ele>452</ele>
        <time>2019-07-14T09:25:12.000Z</time>
      </trkpt>
      <trkpt lat="43.09377" lon="1.26516">
        <ele>452</ele>
        <time>2019-07-14T09:25:18.000Z</time>
      </trkpt>
      <trkpt lat="43.09374" lon="1.26508">
        <ele>452</ele>
        <time>2019-07-14T09:25:22.000Z</time>
      </trkpt>
      <trkpt lat="43.09371" lon="1.26503">
        <ele>452.39999389648</ele>
        <time>2019-07-14T09:25:24.000Z</time>
      </trkpt>
      <trkpt lat="43.0937" lon="1.26503">
        <ele>452.79998779297</ele>
        <time>2019-07-14T09:25:25.000Z</time>
      </trkpt>
      <trkpt lat="43.09368" lon="1.26499">
        <ele>454</ele>
        <time>2019-07-14T09:25:35.000Z</time>
      </trkpt>
      <trkpt lat="43.09367" lon="1.26497">
        <ele>454.39999389648</ele>
        <time>2019-07-14T09:25:36.000Z</time>
      </trkpt>
      <trkpt lat="43.09365" lon="1.26495">
        <ele>454.79998779297</ele>
        <time>2019-07-14T09:25:37.000Z</time>
      </trkpt>
      <trkpt lat="43.09363" lon="1.26492">
        <ele>455.20001220703</ele>
        <time>2019-07-14T09:25:38.000Z</time>
      </trkpt>
      <trkpt lat="43.09362" lon="1.2649">
        <ele>455.60000610352</ele>
        <time>2019-07-14T09:25:39.000Z</time>
      </trkpt>
      <trkpt lat="43.09361" lon="1.26488">
        <ele>456</ele>
        <time>2019-07-14T09:25:40.000Z</time>
      </trkpt>
      <trkpt lat="43.09354" lon="1.26476">
        <ele>456</ele>
        <time>2019-07-14T09:25:43.000Z</time>
      </trkpt>
      <trkpt lat="43.09351" lon="1.26471">
        <ele>456.39999389648</ele>
        <time>2019-07-14T09:25:46.000Z</time>
      </trkpt>
      <trkpt lat="43.09346" lon="1.26462">
        <ele>458</ele>
        <time>2019-07-14T09:25:55.000Z</time>
      </trkpt>
      <trkpt lat="43.09345" lon="1.26461">
        <ele>458.39999389648</ele>
        <time>2019-07-14T09:25:56.000Z</time>
      </trkpt>
      <trkpt lat="43.09344" lon="1.26459">
        <ele>459</ele>
        <time>2019-07-14T09:25:57.000Z</time>
      </trkpt>
      <trkpt lat="43.09343" lon="1.26457">
        <ele>459.39999389648</ele>
        <time>2019-07-14T09:25:58.000Z</time>
      </trkpt>
      <trkpt lat="43.09342" lon="1.26456">
        <ele>459.79998779297</ele>
        <time>2019-07-14T09:25:59.000Z</time>
      </trkpt>
      <trkpt lat="43.09342" lon="1.26455">
        <ele>460.20001220703</ele>
        <time>2019-07-14T09:26:00.000Z</time>
      </trkpt>
      <trkpt lat="43.09338" lon="1.26449">
        <ele>460.20001220703</ele>
        <time>2019-07-14T09:26:02.000Z</time>
      </trkpt>
      <trkpt lat="43.09333" lon="1.2644">
        <ele>460.60000610352</ele>
        <time>2019-07-14T09:26:08.000Z</time>
      </trkpt>
      <trkpt lat="43.09332" lon="1.26438">
        <ele>461.39999389648</ele>
        <time>2019-07-14T09:26:09.000Z</time>
      </trkpt>
      <trkpt lat="43.09331" lon="1.26436">
        <ele>461.79998779297</ele>
        <time>2019-07-14T09:26:10.000Z</time>
      </trkpt>
      <trkpt lat="43.0933" lon="1.26435">
        <ele>462.39999389648</ele>
        <time>2019-07-14T09:26:11.000Z</time>
      </trkpt>
      <trkpt lat="43.09328" lon="1.26432">
        <ele>462.39999389648</ele>
        <time>2019-07-14T09:26:13.000Z</time>
      </trkpt>
      <trkpt lat="43.09327" lon="1.2643">
        <ele>462.79998779297</ele>
        <time>2019-07-14T09:26:14.000Z</time>
      </trkpt>
      <trkpt lat="43.09326" lon="1.26426">
        <ele>463.20001220703</ele>
        <time>2019-07-14T09:26:15.000Z</time>
      </trkpt>
      <trkpt lat="43.09325" lon="1.26425">
        <ele>463.60000610352</ele>
        <time>2019-07-14T09:26:16.000Z</time>
      </trkpt>
      <trkpt lat="43.09323" lon="1.26423">
        <ele>464</ele>
        <time>2019-07-14T09:26:17.000Z</time>
      </trkpt>
      <trkpt lat="43.09319" lon="1.26416">
        <ele>464.39999389648</ele>
        <time>2019-07-14T09:26:18.000Z</time>
      </trkpt>
      <trkpt lat="43.09312" lon="1.26404">
        <ele>464.79998779297</ele>
        <time>2019-07-14T09:26:22.000Z</time>
      </trkpt>
      <trkpt lat="43.09311" lon="1.26402">
        <ele>465.20001220703</ele>
        <time>2019-07-14T09:26:23.000Z</time>
      </trkpt>
      <trkpt lat="43.0931" lon="1.26401">
        <ele>465.60000610352</ele>
        <time>2019-07-14T09:26:24.000Z</time>
      </trkpt>
      <trkpt lat="43.0931" lon="1.264">
        <ele>466</ele>
        <time>2019-07-14T09:26:25.000Z</time>
      </trkpt>
      <trkpt lat="43.09309" lon="1.26398">
        <ele>466.60000610352</ele>
        <time>2019-07-14T09:26:26.000Z</time>
      </trkpt>
      <trkpt lat="43.09307" lon="1.26395">
        <ele>466.60000610352</ele>
        <time>2019-07-14T09:26:28.000Z</time>
      </trkpt>
      <trkpt lat="43.09307" lon="1.26394">
        <ele>467</ele>
        <time>2019-07-14T09:26:29.000Z</time>
      </trkpt>
      <trkpt lat="43.093" lon="1.26382">
        <ele>468.60000610352</ele>
        <time>2019-07-14T09:26:38.000Z</time>
      </trkpt>
      <trkpt lat="43.093" lon="1.26381">
        <ele>469</ele>
        <time>2019-07-14T09:26:39.000Z</time>
      </trkpt>
      <trkpt lat="43.09287" lon="1.26356">
        <ele>471.60000610352</ele>
        <time>2019-07-14T09:26:58.000Z</time>
      </trkpt>
      <trkpt lat="43.09287" lon="1.26355">
        <ele>472</ele>
        <time>2019-07-14T09:26:59.000Z</time>
      </trkpt>
      <trkpt lat="43.09286" lon="1.26352">
        <ele>472.39999389648</ele>
        <time>2019-07-14T09:27:00.000Z</time>
      </trkpt>
      <trkpt lat="43.09285" lon="1.26351">
        <ele>472.79998779297</ele>
        <time>2019-07-14T09:27:01.000Z</time>
      </trkpt>
      <trkpt lat="43.09285" lon="1.26349">
        <ele>472.79998779297</ele>
        <time>2019-07-14T09:27:02.000Z</time>
      </trkpt>
      <trkpt lat="43.09276" lon="1.26336">
        <ele>474.79998779297</ele>
        <time>2019-07-14T09:27:18.000Z</time>
      </trkpt>
      <trkpt lat="43.09275" lon="1.26334">
        <ele>474.79998779297</ele>
        <time>2019-07-14T09:27:20.000Z</time>
      </trkpt>
      <trkpt lat="43.09259" lon="1.26302">
        <ele>479</ele>
        <time>2019-07-14T09:27:53.000Z</time>
      </trkpt>
      <trkpt lat="43.09258" lon="1.26299">
        <ele>479</ele>
        <time>2019-07-14T09:27:55.000Z</time>
      </trkpt>
      <trkpt lat="43.09256" lon="1.26296">
        <ele>479</ele>
        <time>2019-07-14T09:27:56.000Z</time>
      </trkpt>
      <trkpt lat="43.09253" lon="1.26291">
        <ele>479.39999389648</ele>
        <time>2019-07-14T09:27:59.000Z</time>
      </trkpt>
      <trkpt lat="43.09253" lon="1.26289">
        <ele>479.79998779297</ele>
        <time>2019-07-14T09:28:00.000Z</time>
      </trkpt>
      <trkpt lat="43.09253" lon="1.26288">
        <ele>480.20001220703</ele>
        <time>2019-07-14T09:28:01.000Z</time>
      </trkpt>
      <trkpt lat="43.09247" lon="1.26272">
        <ele>481.20001220703</ele>
        <time>2019-07-14T09:28:20.000Z</time>
      </trkpt>
      <trkpt lat="43.09247" lon="1.26269">
        <ele>481.20001220703</ele>
        <time>2019-07-14T09:28:22.000Z</time>
      </trkpt>
      <trkpt lat="43.09246" lon="1.26267">
        <ele>481.60000610352</ele>
        <time>2019-07-14T09:28:23.000Z</time>
      </trkpt>
      <trkpt lat="43.09245" lon="1.26266">
        <ele>482</ele>
        <time>2019-07-14T09:28:24.000Z</time>
      </trkpt>
      <trkpt lat="43.09244" lon="1.26263">
        <ele>482.39999389648</ele>
        <time>2019-07-14T09:28:25.000Z</time>
      </trkpt>
      <trkpt lat="43.09244" lon="1.26262">
        <ele>482.79998779297</ele>
        <time>2019-07-14T09:28:26.000Z</time>
      </trkpt>
      <trkpt lat="43.09244" lon="1.26261">
        <ele>483.20001220703</ele>
        <time>2019-07-14T09:28:27.000Z</time>
      </trkpt>
      <trkpt lat="43.09245" lon="1.26261">
        <ele>483.20001220703</ele>
        <time>2019-07-14T09:28:28.000Z</time>
      </trkpt>
      <trkpt lat="43.09244" lon="1.2626">
        <ele>483.20001220703</ele>
        <time>2019-07-14T09:28:29.000Z</time>
      </trkpt>
      <trkpt lat="43.09243" lon="1.26257">
        <ele>483.20001220703</ele>
        <time>2019-07-14T09:28:30.000Z</time>
      </trkpt>
      <trkpt lat="43.09242" lon="1.26256">
        <ele>483.20001220703</ele>
        <time>2019-07-14T09:28:31.000Z</time>
      </trkpt>
      <trkpt lat="43.09242" lon="1.26252">
        <ele>483.60000610352</ele>
        <time>2019-07-14T09:28:33.000Z</time>
      </trkpt>
      <trkpt lat="43.09241" lon="1.26248">
        <ele>484</ele>
        <time>2019-07-14T09:28:34.000Z</time>
      </trkpt>
      <trkpt lat="43.09239" lon="1.26245">
        <ele>484.39999389648</ele>
        <time>2019-07-14T09:28:35.000Z</time>
      </trkpt>
      <trkpt lat="43.09238" lon="1.26242">
        <ele>484.79998779297</ele>
        <time>2019-07-14T09:28:36.000Z</time>
      </trkpt>
      <trkpt lat="43.09238" lon="1.2624">
        <ele>485.39999389648</ele>
        <time>2019-07-14T09:28:37.000Z</time>
      </trkpt>
      <trkpt lat="43.09238" lon="1.26238">
        <ele>485.39999389648</ele>
        <time>2019-07-14T09:28:38.000Z</time>
      </trkpt>
      <trkpt lat="43.09237" lon="1.26231">
        <ele>485.39999389648</ele>
        <time>2019-07-14T09:28:40.000Z</time>
      </trkpt>
      <trkpt lat="43.09234" lon="1.26222">
        <ele>485.79998779297</ele>
        <time>2019-07-14T09:28:43.000Z</time>
      </trkpt>
      <trkpt lat="43.09233" lon="1.26219">
        <ele>486.20001220703</ele>
        <time>2019-07-14T09:28:44.000Z</time>
      </trkpt>
      <trkpt lat="43.09232" lon="1.26214">
        <ele>486.60000610352</ele>
        <time>2019-07-14T09:28:45.000Z</time>
      </trkpt>
      <trkpt lat="43.09232" lon="1.26212">
        <ele>487</ele>
        <time>2019-07-14T09:28:46.000Z</time>
      </trkpt>
      <trkpt lat="43.09231" lon="1.26209">
        <ele>487.39999389648</ele>
        <time>2019-07-14T09:28:47.000Z</time>
      </trkpt>
      <trkpt lat="43.09226" lon="1.262">
        <ele>487.39999389648</ele>
        <time>2019-07-14T09:28:50.000Z</time>
      </trkpt>
      <trkpt lat="43.09216" lon="1.26181">
        <ele>487.39999389648</ele>
        <time>2019-07-14T09:28:56.000Z</time>
      </trkpt>
      <trkpt lat="43.09215" lon="1.26177">
        <ele>487.39999389648</ele>
        <time>2019-07-14T09:28:57.000Z</time>
      </trkpt>
      <trkpt lat="43.09207" lon="1.26164">
        <ele>487.39999389648</ele>
        <time>2019-07-14T09:29:01.000Z</time>
      </trkpt>
      <trkpt lat="43.09204" lon="1.26162">
        <ele>488.20001220703</ele>
        <time>2019-07-14T09:29:02.000Z</time>
      </trkpt>
      <trkpt lat="43.09203" lon="1.2616">
        <ele>488.60000610352</ele>
        <time>2019-07-14T09:29:03.000Z</time>
      </trkpt>
      <trkpt lat="43.09202" lon="1.26158">
        <ele>489</ele>
        <time>2019-07-14T09:29:04.000Z</time>
      </trkpt>
      <trkpt lat="43.09201" lon="1.26156">
        <ele>489.39999389648</ele>
        <time>2019-07-14T09:29:05.000Z</time>
      </trkpt>
      <trkpt lat="43.09196" lon="1.26148">
        <ele>489.39999389648</ele>
        <time>2019-07-14T09:29:10.000Z</time>
      </trkpt>
      <trkpt lat="43.09195" lon="1.26146">
        <ele>489.39999389648</ele>
        <time>2019-07-14T09:29:11.000Z</time>
      </trkpt>
      <trkpt lat="43.09192" lon="1.26139">
        <ele>489.79998779297</ele>
        <time>2019-07-14T09:29:15.000Z</time>
      </trkpt>
      <trkpt lat="43.09191" lon="1.26138">
        <ele>490.20001220703</ele>
        <time>2019-07-14T09:29:16.000Z</time>
      </trkpt>
      <trkpt lat="43.0919" lon="1.26137">
        <ele>490.60000610352</ele>
        <time>2019-07-14T09:29:17.000Z</time>
      </trkpt>
      <trkpt lat="43.09188" lon="1.26135">
        <ele>491</ele>
        <time>2019-07-14T09:29:18.000Z</time>
      </trkpt>
      <trkpt lat="43.09187" lon="1.26133">
        <ele>491.39999389648</ele>
        <time>2019-07-14T09:29:19.000Z</time>
      </trkpt>
      <trkpt lat="43.09183" lon="1.26127">
        <ele>491.39999389648</ele>
        <time>2019-07-14T09:29:22.000Z</time>
      </trkpt>
      <trkpt lat="43.09176" lon="1.2612">
        <ele>491.39999389648</ele>
        <time>2019-07-14T09:29:27.000Z</time>
      </trkpt>
      <trkpt lat="43.09167" lon="1.2611">
        <ele>491.79998779297</ele>
        <time>2019-07-14T09:29:33.000Z</time>
      </trkpt>
      <trkpt lat="43.09166" lon="1.26108">
        <ele>492.20001220703</ele>
        <time>2019-07-14T09:29:34.000Z</time>
      </trkpt>
      <trkpt lat="43.09163" lon="1.26106">
        <ele>492.60000610352</ele>
        <time>2019-07-14T09:29:35.000Z</time>
      </trkpt>
      <trkpt lat="43.09161" lon="1.26104">
        <ele>493</ele>
        <time>2019-07-14T09:29:36.000Z</time>
      </trkpt>
      <trkpt lat="43.0916" lon="1.26103">
        <ele>493.39999389648</ele>
        <time>2019-07-14T09:29:37.000Z</time>
      </trkpt>
      <trkpt lat="43.09156" lon="1.26099">
        <ele>493.39999389648</ele>
        <time>2019-07-14T09:29:39.000Z</time>
      </trkpt>
      <trkpt lat="43.09142" lon="1.26086">
        <ele>493.39999389648</ele>
        <time>2019-07-14T09:29:45.000Z</time>
      </trkpt>
      <trkpt lat="43.09136" lon="1.26077">
        <ele>493.39999389648</ele>
        <time>2019-07-14T09:29:48.000Z</time>
      </trkpt>
      <trkpt lat="43.09137" lon="1.26073">
        <ele>493.39999389648</ele>
        <time>2019-07-14T09:29:49.000Z</time>
      </trkpt>
      <trkpt lat="43.09133" lon="1.26057">
        <ele>493.39999389648</ele>
        <time>2019-07-14T09:29:53.000Z</time>
      </trkpt>
      <trkpt lat="43.09132" lon="1.26045">
        <ele>493.39999389648</ele>
        <time>2019-07-14T09:29:55.000Z</time>
      </trkpt>
      <trkpt lat="43.0913" lon="1.26034">
        <ele>493.39999389648</ele>
        <time>2019-07-14T09:29:57.000Z</time>
      </trkpt>
      <trkpt lat="43.09128" lon="1.26028">
        <ele>493.39999389648</ele>
        <time>2019-07-14T09:29:58.000Z</time>
      </trkpt>
      <trkpt lat="43.09128" lon="1.2601">
        <ele>493.39999389648</ele>
        <time>2019-07-14T09:30:01.000Z</time>
      </trkpt>
      <trkpt lat="43.09128" lon="1.25997">
        <ele>493.39999389648</ele>
        <time>2019-07-14T09:30:04.000Z</time>
      </trkpt>
      <trkpt lat="43.09127" lon="1.25992">
        <ele>493.39999389648</ele>
        <time>2019-07-14T09:30:05.000Z</time>
      </trkpt>
      <trkpt lat="43.09123" lon="1.25968">
        <ele>493.39999389648</ele>
        <time>2019-07-14T09:30:10.000Z</time>
      </trkpt>
      <trkpt lat="43.09117" lon="1.25944">
        <ele>493.39999389648</ele>
        <time>2019-07-14T09:30:15.000Z</time>
      </trkpt>
      <trkpt lat="43.09114" lon="1.25938">
        <ele>493</ele>
        <time>2019-07-14T09:30:16.000Z</time>
      </trkpt>
      <trkpt lat="43.09112" lon="1.25932">
        <ele>492.60000610352</ele>
        <time>2019-07-14T09:30:17.000Z</time>
      </trkpt>
      <trkpt lat="43.09111" lon="1.25928">
        <ele>492.20001220703</ele>
        <time>2019-07-14T09:30:18.000Z</time>
      </trkpt>
      <trkpt lat="43.09111" lon="1.25922">
        <ele>491.79998779297</ele>
        <time>2019-07-14T09:30:19.000Z</time>
      </trkpt>
      <trkpt lat="43.0911" lon="1.25916">
        <ele>491.39999389648</ele>
        <time>2019-07-14T09:30:20.000Z</time>
      </trkpt>
      <trkpt lat="43.09108" lon="1.2591">
        <ele>491.39999389648</ele>
        <time>2019-07-14T09:30:21.000Z</time>
      </trkpt>
      <trkpt lat="43.09102" lon="1.25897">
        <ele>491.39999389648</ele>
        <time>2019-07-14T09:30:23.000Z</time>
      </trkpt>
      <trkpt lat="43.09095" lon="1.25882">
        <ele>491.39999389648</ele>
        <time>2019-07-14T09:30:26.000Z</time>
      </trkpt>
      <trkpt lat="43.09093" lon="1.25878">
        <ele>491.39999389648</ele>
        <time>2019-07-14T09:30:27.000Z</time>
      </trkpt>
      <trkpt lat="43.09084" lon="1.25859">
        <ele>491.39999389648</ele>
        <time>2019-07-14T09:30:31.000Z</time>
      </trkpt>
      <trkpt lat="43.09082" lon="1.25853">
        <ele>491.39999389648</ele>
        <time>2019-07-14T09:30:32.000Z</time>
      </trkpt>
      <trkpt lat="43.09079" lon="1.25836">
        <ele>491.39999389648</ele>
        <time>2019-07-14T09:30:35.000Z</time>
      </trkpt>
      <trkpt lat="43.09077" lon="1.2583">
        <ele>491.39999389648</ele>
        <time>2019-07-14T09:30:36.000Z</time>
      </trkpt>
      <trkpt lat="43.09073" lon="1.25812">
        <ele>491.39999389648</ele>
        <time>2019-07-14T09:30:39.000Z</time>
      </trkpt>
      <trkpt lat="43.09069" lon="1.25784">
        <ele>491.39999389648</ele>
        <time>2019-07-14T09:30:44.000Z</time>
      </trkpt>
      <trkpt lat="43.09068" lon="1.25779">
        <ele>491.39999389648</ele>
        <time>2019-07-14T09:30:45.000Z</time>
      </trkpt>
      <trkpt lat="43.09066" lon="1.25756">
        <ele>491.39999389648</ele>
        <time>2019-07-14T09:30:49.000Z</time>
      </trkpt>
      <trkpt lat="43.09064" lon="1.25744">
        <ele>491.39999389648</ele>
        <time>2019-07-14T09:30:51.000Z</time>
      </trkpt>
      <trkpt lat="43.09063" lon="1.25736">
        <ele>491.39999389648</ele>
        <time>2019-07-14T09:30:53.000Z</time>
      </trkpt>
      <trkpt lat="43.09062" lon="1.25729">
        <ele>491.39999389648</ele>
        <time>2019-07-14T09:30:54.000Z</time>
      </trkpt>
      <trkpt lat="43.09058" lon="1.25716">
        <ele>491.39999389648</ele>
        <time>2019-07-14T09:30:56.000Z</time>
      </trkpt>
      <trkpt lat="43.09058" lon="1.2571">
        <ele>491.39999389648</ele>
        <time>2019-07-14T09:30:57.000Z</time>
      </trkpt>
      <trkpt lat="43.09062" lon="1.25697">
        <ele>491.39999389648</ele>
        <time>2019-07-14T09:30:59.000Z</time>
      </trkpt>
      <trkpt lat="43.09058" lon="1.25675">
        <ele>491</ele>
        <time>2019-07-14T09:31:02.000Z</time>
      </trkpt>
      <trkpt lat="43.09057" lon="1.25668">
        <ele>490.60000610352</ele>
        <time>2019-07-14T09:31:03.000Z</time>
      </trkpt>
      <trkpt lat="43.09057" lon="1.25661">
        <ele>490.20001220703</ele>
        <time>2019-07-14T09:31:04.000Z</time>
      </trkpt>
      <trkpt lat="43.09056" lon="1.25653">
        <ele>489.39999389648</ele>
        <time>2019-07-14T09:31:05.000Z</time>
      </trkpt>
      <trkpt lat="43.09056" lon="1.25632">
        <ele>489.39999389648</ele>
        <time>2019-07-14T09:31:08.000Z</time>
      </trkpt>
      <trkpt lat="43.09054" lon="1.25606">
        <ele>489.39999389648</ele>
        <time>2019-07-14T09:31:12.000Z</time>
      </trkpt>
      <trkpt lat="43.09048" lon="1.25588">
        <ele>489.39999389648</ele>
        <time>2019-07-14T09:31:15.000Z</time>
      </trkpt>
      <trkpt lat="43.09044" lon="1.25574">
        <ele>489.39999389648</ele>
        <time>2019-07-14T09:31:17.000Z</time>
      </trkpt>
      <trkpt lat="43.0904" lon="1.2556">
        <ele>489.39999389648</ele>
        <time>2019-07-14T09:31:19.000Z</time>
      </trkpt>
      <trkpt lat="43.09036" lon="1.25555">
        <ele>489.39999389648</ele>
        <time>2019-07-14T09:31:20.000Z</time>
      </trkpt>
      <trkpt lat="43.09027" lon="1.25549">
        <ele>489.39999389648</ele>
        <time>2019-07-14T09:31:23.000Z</time>
      </trkpt>
      <trkpt lat="43.09024" lon="1.25548">
        <ele>489.39999389648</ele>
        <time>2019-07-14T09:31:26.000Z</time>
      </trkpt>
      <trkpt lat="43.09022" lon="1.25547">
        <ele>489.39999389648</ele>
        <time>2019-07-14T09:31:28.000Z</time>
      </trkpt>
      <trkpt lat="43.09011" lon="1.25543">
        <ele>489.39999389648</ele>
        <time>2019-07-14T09:31:33.000Z</time>
      </trkpt>
      <trkpt lat="43.09008" lon="1.25541">
        <ele>488.79998779297</ele>
        <time>2019-07-14T09:31:34.000Z</time>
      </trkpt>
      <trkpt lat="43.09006" lon="1.25539">
        <ele>488.39999389648</ele>
        <time>2019-07-14T09:31:35.000Z</time>
      </trkpt>
      <trkpt lat="43.09002" lon="1.25533">
        <ele>487.60000610352</ele>
        <time>2019-07-14T09:31:36.000Z</time>
      </trkpt>
      <trkpt lat="43.08999" lon="1.25526">
        <ele>486.79998779297</ele>
        <time>2019-07-14T09:31:37.000Z</time>
      </trkpt>
      <trkpt lat="43.08995" lon="1.25518">
        <ele>486</ele>
        <time>2019-07-14T09:31:38.000Z</time>
      </trkpt>
      <trkpt lat="43.08991" lon="1.25511">
        <ele>485.39999389648</ele>
        <time>2019-07-14T09:31:39.000Z</time>
      </trkpt>
      <trkpt lat="43.08988" lon="1.25504">
        <ele>484.60000610352</ele>
        <time>2019-07-14T09:31:40.000Z</time>
      </trkpt>
      <trkpt lat="43.08984" lon="1.25495">
        <ele>483.79998779297</ele>
        <time>2019-07-14T09:31:41.000Z</time>
      </trkpt>
      <trkpt lat="43.08981" lon="1.25487">
        <ele>483</ele>
        <time>2019-07-14T09:31:42.000Z</time>
      </trkpt>
      <trkpt lat="43.08977" lon="1.25479">
        <ele>482.20001220703</ele>
        <time>2019-07-14T09:31:43.000Z</time>
      </trkpt>
      <trkpt lat="43.08968" lon="1.25463">
        <ele>481.79998779297</ele>
        <time>2019-07-14T09:31:45.000Z</time>
      </trkpt>
      <trkpt lat="43.08964" lon="1.25455">
        <ele>481.39999389648</ele>
        <time>2019-07-14T09:31:46.000Z</time>
      </trkpt>
      <trkpt lat="43.08959" lon="1.25447">
        <ele>481</ele>
        <time>2019-07-14T09:31:47.000Z</time>
      </trkpt>
      <trkpt lat="43.08954" lon="1.2544">
        <ele>480.60000610352</ele>
        <time>2019-07-14T09:31:48.000Z</time>
      </trkpt>
      <trkpt lat="43.0895" lon="1.25432">
        <ele>480.20001220703</ele>
        <time>2019-07-14T09:31:49.000Z</time>
      </trkpt>
      <trkpt lat="43.08941" lon="1.25417">
        <ele>480.20001220703</ele>
        <time>2019-07-14T09:31:51.000Z</time>
      </trkpt>
      <trkpt lat="43.08928" lon="1.25394">
        <ele>479.79998779297</ele>
        <time>2019-07-14T09:31:54.000Z</time>
      </trkpt>
      <trkpt lat="43.08924" lon="1.25386">
        <ele>479</ele>
        <time>2019-07-14T09:31:55.000Z</time>
      </trkpt>
      <trkpt lat="43.0892" lon="1.25378">
        <ele>478.60000610352</ele>
        <time>2019-07-14T09:31:56.000Z</time>
      </trkpt>
      <trkpt lat="43.08916" lon="1.2537">
        <ele>478.20001220703</ele>
        <time>2019-07-14T09:31:57.000Z</time>
      </trkpt>
      <trkpt lat="43.08899" lon="1.25344">
        <ele>478.20001220703</ele>
        <time>2019-07-14T09:32:01.000Z</time>
      </trkpt>
      <trkpt lat="43.08895" lon="1.25337">
        <ele>478.20001220703</ele>
        <time>2019-07-14T09:32:02.000Z</time>
      </trkpt>
      <trkpt lat="43.08894" lon="1.25332">
        <ele>478.20001220703</ele>
        <time>2019-07-14T09:32:03.000Z</time>
      </trkpt>
      <trkpt lat="43.08889" lon="1.2532">
        <ele>478.20001220703</ele>
        <time>2019-07-14T09:32:05.000Z</time>
      </trkpt>
      <trkpt lat="43.08877" lon="1.253">
        <ele>478.20001220703</ele>
        <time>2019-07-14T09:32:08.000Z</time>
      </trkpt>
      <trkpt lat="43.08873" lon="1.25293">
        <ele>478.20001220703</ele>
        <time>2019-07-14T09:32:09.000Z</time>
      </trkpt>
      <trkpt lat="43.08864" lon="1.25279">
        <ele>477.79998779297</ele>
        <time>2019-07-14T09:32:11.000Z</time>
      </trkpt>
      <trkpt lat="43.08859" lon="1.25275">
        <ele>477.20001220703</ele>
        <time>2019-07-14T09:32:12.000Z</time>
      </trkpt>
      <trkpt lat="43.08852" lon="1.25268">
        <ele>476.79998779297</ele>
        <time>2019-07-14T09:32:13.000Z</time>
      </trkpt>
      <trkpt lat="43.08847" lon="1.25259">
        <ele>476.20001220703</ele>
        <time>2019-07-14T09:32:14.000Z</time>
      </trkpt>
      <trkpt lat="43.08843" lon="1.25249">
        <ele>475.60000610352</ele>
        <time>2019-07-14T09:32:15.000Z</time>
      </trkpt>
      <trkpt lat="43.0884" lon="1.25239">
        <ele>475.20001220703</ele>
        <time>2019-07-14T09:32:16.000Z</time>
      </trkpt>
      <trkpt lat="43.08836" lon="1.25231">
        <ele>474.60000610352</ele>
        <time>2019-07-14T09:32:17.000Z</time>
      </trkpt>
      <trkpt lat="43.08834" lon="1.25226">
        <ele>474</ele>
        <time>2019-07-14T09:32:18.000Z</time>
      </trkpt>
      <trkpt lat="43.08831" lon="1.25222">
        <ele>474</ele>
        <time>2019-07-14T09:32:19.000Z</time>
      </trkpt>
      <trkpt lat="43.08821" lon="1.25221">
        <ele>474</ele>
        <time>2019-07-14T09:32:22.000Z</time>
      </trkpt>
      <trkpt lat="43.08818" lon="1.25221">
        <ele>473.60000610352</ele>
        <time>2019-07-14T09:32:23.000Z</time>
      </trkpt>
      <trkpt lat="43.08816" lon="1.25221">
        <ele>473</ele>
        <time>2019-07-14T09:32:24.000Z</time>
      </trkpt>
      <trkpt lat="43.08814" lon="1.2522">
        <ele>472.60000610352</ele>
        <time>2019-07-14T09:32:25.000Z</time>
      </trkpt>
      <trkpt lat="43.08812" lon="1.25218">
        <ele>472.20001220703</ele>
        <time>2019-07-14T09:32:26.000Z</time>
      </trkpt>
      <trkpt lat="43.0881" lon="1.25216">
        <ele>471.79998779297</ele>
        <time>2019-07-14T09:32:27.000Z</time>
      </trkpt>
      <trkpt lat="43.08808" lon="1.25215">
        <ele>471.79998779297</ele>
        <time>2019-07-14T09:32:30.000Z</time>
      </trkpt>
      <trkpt lat="43.08807" lon="1.25213">
        <ele>469.79998779297</ele>
        <time>2019-07-14T09:43:11.000Z</time>
      </trkpt>
      <trkpt lat="43.08807" lon="1.25218">
        <ele>469.79998779297</ele>
        <time>2019-07-14T09:43:14.000Z</time>
      </trkpt>
      <trkpt lat="43.08805" lon="1.25219">
        <ele>469.79998779297</ele>
        <time>2019-07-14T09:43:16.000Z</time>
      </trkpt>
      <trkpt lat="43.08795" lon="1.25226">
        <ele>469.79998779297</ele>
        <time>2019-07-14T09:43:20.000Z</time>
      </trkpt>
      <trkpt lat="43.08791" lon="1.25228">
        <ele>469.79998779297</ele>
        <time>2019-07-14T09:43:21.000Z</time>
      </trkpt>
      <trkpt lat="43.08787" lon="1.25231">
        <ele>469.39999389648</ele>
        <time>2019-07-14T09:43:22.000Z</time>
      </trkpt>
      <trkpt lat="43.08782" lon="1.25233">
        <ele>469</ele>
        <time>2019-07-14T09:43:23.000Z</time>
      </trkpt>
      <trkpt lat="43.08777" lon="1.25236">
        <ele>468.39999389648</ele>
        <time>2019-07-14T09:43:24.000Z</time>
      </trkpt>
      <trkpt lat="43.08773" lon="1.25239">
        <ele>468</ele>
        <time>2019-07-14T09:43:25.000Z</time>
      </trkpt>
      <trkpt lat="43.08768" lon="1.25241">
        <ele>467.60000610352</ele>
        <time>2019-07-14T09:43:26.000Z</time>
      </trkpt>
      <trkpt lat="43.08758" lon="1.25243">
        <ele>467.60000610352</ele>
        <time>2019-07-14T09:43:28.000Z</time>
      </trkpt>
      <trkpt lat="43.08752" lon="1.25242">
        <ele>467.60000610352</ele>
        <time>2019-07-14T09:43:29.000Z</time>
      </trkpt>
      <trkpt lat="43.08737" lon="1.25234">
        <ele>467.60000610352</ele>
        <time>2019-07-14T09:43:32.000Z</time>
      </trkpt>
      <trkpt lat="43.08734" lon="1.2523">
        <ele>467.60000610352</ele>
        <time>2019-07-14T09:43:33.000Z</time>
      </trkpt>
      <trkpt lat="43.08724" lon="1.25222">
        <ele>467.60000610352</ele>
        <time>2019-07-14T09:43:37.000Z</time>
      </trkpt>
      <trkpt lat="43.08713" lon="1.25214">
        <ele>467.60000610352</ele>
        <time>2019-07-14T09:43:43.000Z</time>
      </trkpt>
      <trkpt lat="43.08699" lon="1.25206">
        <ele>467.60000610352</ele>
        <time>2019-07-14T09:43:48.000Z</time>
      </trkpt>
      <trkpt lat="43.08681" lon="1.25194">
        <ele>467.60000610352</ele>
        <time>2019-07-14T09:43:54.000Z</time>
      </trkpt>
      <trkpt lat="43.08658" lon="1.25177">
        <ele>467.60000610352</ele>
        <time>2019-07-14T09:44:01.000Z</time>
      </trkpt>
      <trkpt lat="43.08643" lon="1.25171">
        <ele>467.60000610352</ele>
        <time>2019-07-14T09:44:06.000Z</time>
      </trkpt>
      <trkpt lat="43.08631" lon="1.25168">
        <ele>468</ele>
        <time>2019-07-14T09:44:10.000Z</time>
      </trkpt>
      <trkpt lat="43.08628" lon="1.25167">
        <ele>468.39999389648</ele>
        <time>2019-07-14T09:44:11.000Z</time>
      </trkpt>
      <trkpt lat="43.08625" lon="1.25166">
        <ele>468.79998779297</ele>
        <time>2019-07-14T09:44:12.000Z</time>
      </trkpt>
      <trkpt lat="43.08622" lon="1.25165">
        <ele>469.20001220703</ele>
        <time>2019-07-14T09:44:13.000Z</time>
      </trkpt>
      <trkpt lat="43.08618" lon="1.25165">
        <ele>469.60000610352</ele>
        <time>2019-07-14T09:44:14.000Z</time>
      </trkpt>
      <trkpt lat="43.086" lon="1.25162">
        <ele>469.60000610352</ele>
        <time>2019-07-14T09:44:19.000Z</time>
      </trkpt>
      <trkpt lat="43.08579" lon="1.25157">
        <ele>469.60000610352</ele>
        <time>2019-07-14T09:44:25.000Z</time>
      </trkpt>
      <trkpt lat="43.08559" lon="1.25154">
        <ele>469.60000610352</ele>
        <time>2019-07-14T09:44:31.000Z</time>
      </trkpt>
      <trkpt lat="43.08523" lon="1.25145">
        <ele>469.60000610352</ele>
        <time>2019-07-14T09:44:41.000Z</time>
      </trkpt>
      <trkpt lat="43.08491" lon="1.25136">
        <ele>469.60000610352</ele>
        <time>2019-07-14T09:44:50.000Z</time>
      </trkpt>
      <trkpt lat="43.08473" lon="1.25131">
        <ele>470.20001220703</ele>
        <time>2019-07-14T09:44:56.000Z</time>
      </trkpt>
      <trkpt lat="43.0847" lon="1.2513">
        <ele>470.60000610352</ele>
        <time>2019-07-14T09:44:57.000Z</time>
      </trkpt>
      <trkpt lat="43.08467" lon="1.2513">
        <ele>471</ele>
        <time>2019-07-14T09:44:58.000Z</time>
      </trkpt>
      <trkpt lat="43.08464" lon="1.25129">
        <ele>471.39999389648</ele>
        <time>2019-07-14T09:44:59.000Z</time>
      </trkpt>
      <trkpt lat="43.08461" lon="1.25128">
        <ele>471.79998779297</ele>
        <time>2019-07-14T09:45:00.000Z</time>
      </trkpt>
      <trkpt lat="43.08445" lon="1.25124">
        <ele>472.20001220703</ele>
        <time>2019-07-14T09:45:05.000Z</time>
      </trkpt>
      <trkpt lat="43.08442" lon="1.25123">
        <ele>472.60000610352</ele>
        <time>2019-07-14T09:45:06.000Z</time>
      </trkpt>
      <trkpt lat="43.08439" lon="1.25122">
        <ele>473</ele>
        <time>2019-07-14T09:45:07.000Z</time>
      </trkpt>
      <trkpt lat="43.08436" lon="1.25122">
        <ele>473.39999389648</ele>
        <time>2019-07-14T09:45:08.000Z</time>
      </trkpt>
      <trkpt lat="43.08432" lon="1.25121">
        <ele>473.79998779297</ele>
        <time>2019-07-14T09:45:09.000Z</time>
      </trkpt>
      <trkpt lat="43.08414" lon="1.25116">
        <ele>473.79998779297</ele>
        <time>2019-07-14T09:45:15.000Z</time>
      </trkpt>
      <trkpt lat="43.08392" lon="1.2511">
        <ele>473.79998779297</ele>
        <time>2019-07-14T09:45:22.000Z</time>
      </trkpt>
      <trkpt lat="43.08374" lon="1.25103">
        <ele>473.79998779297</ele>
        <time>2019-07-14T09:45:28.000Z</time>
      </trkpt>
      <trkpt lat="43.08364" lon="1.251">
        <ele>474.39999389648</ele>
        <time>2019-07-14T09:45:31.000Z</time>
      </trkpt>
      <trkpt lat="43.08361" lon="1.25099">
        <ele>474.79998779297</ele>
        <time>2019-07-14T09:45:32.000Z</time>
      </trkpt>
      <trkpt lat="43.08358" lon="1.25098">
        <ele>475.20001220703</ele>
        <time>2019-07-14T09:45:33.000Z</time>
      </trkpt>
      <trkpt lat="43.08355" lon="1.25097">
        <ele>475.60000610352</ele>
        <time>2019-07-14T09:45:34.000Z</time>
      </trkpt>
      <trkpt lat="43.08352" lon="1.25095">
        <ele>476</ele>
        <time>2019-07-14T09:45:35.000Z</time>
      </trkpt>
      <trkpt lat="43.08348" lon="1.25094">
        <ele>476</ele>
        <time>2019-07-14T09:45:36.000Z</time>
      </trkpt>
      <trkpt lat="43.08328" lon="1.25087">
        <ele>476.39999389648</ele>
        <time>2019-07-14T09:45:43.000Z</time>
      </trkpt>
      <trkpt lat="43.08325" lon="1.25085">
        <ele>477</ele>
        <time>2019-07-14T09:45:44.000Z</time>
      </trkpt>
      <trkpt lat="43.08322" lon="1.25084">
        <ele>477.39999389648</ele>
        <time>2019-07-14T09:45:45.000Z</time>
      </trkpt>
      <trkpt lat="43.08319" lon="1.25082">
        <ele>477.79998779297</ele>
        <time>2019-07-14T09:45:46.000Z</time>
      </trkpt>
      <trkpt lat="43.08316" lon="1.2508">
        <ele>478.20001220703</ele>
        <time>2019-07-14T09:45:47.000Z</time>
      </trkpt>
      <trkpt lat="43.08306" lon="1.25074">
        <ele>478.20001220703</ele>
        <time>2019-07-14T09:45:50.000Z</time>
      </trkpt>
      <trkpt lat="43.0828" lon="1.25053">
        <ele>478.20001220703</ele>
        <time>2019-07-14T09:45:56.000Z</time>
      </trkpt>
      <trkpt lat="43.08252" lon="1.25032">
        <ele>478.20001220703</ele>
        <time>2019-07-14T09:46:02.000Z</time>
      </trkpt>
      <trkpt lat="43.08227" lon="1.25011">
        <ele>478.20001220703</ele>
        <time>2019-07-14T09:46:08.000Z</time>
      </trkpt>
      <trkpt lat="43.08212" lon="1.24996">
        <ele>478.20001220703</ele>
        <time>2019-07-14T09:46:13.000Z</time>
      </trkpt>
      <trkpt lat="43.08196" lon="1.2498">
        <ele>479.20001220703</ele>
        <time>2019-07-14T09:46:19.000Z</time>
      </trkpt>
      <trkpt lat="43.08193" lon="1.24977">
        <ele>479.60000610352</ele>
        <time>2019-07-14T09:46:20.000Z</time>
      </trkpt>
      <trkpt lat="43.0819" lon="1.24973">
        <ele>480</ele>
        <time>2019-07-14T09:46:21.000Z</time>
      </trkpt>
      <trkpt lat="43.08186" lon="1.2497">
        <ele>480.39999389648</ele>
        <time>2019-07-14T09:46:22.000Z</time>
      </trkpt>
      <trkpt lat="43.08174" lon="1.24961">
        <ele>480.39999389648</ele>
        <time>2019-07-14T09:46:25.000Z</time>
      </trkpt>
      <trkpt lat="43.08154" lon="1.24945">
        <ele>480</ele>
        <time>2019-07-14T09:46:29.000Z</time>
      </trkpt>
      <trkpt lat="43.08149" lon="1.2494">
        <ele>479.60000610352</ele>
        <time>2019-07-14T09:46:30.000Z</time>
      </trkpt>
      <trkpt lat="43.08144" lon="1.24935">
        <ele>479.20001220703</ele>
        <time>2019-07-14T09:46:31.000Z</time>
      </trkpt>
      <trkpt lat="43.08139" lon="1.24929">
        <ele>478.79998779297</ele>
        <time>2019-07-14T09:46:32.000Z</time>
      </trkpt>
      <trkpt lat="43.08135" lon="1.24924">
        <ele>478.39999389648</ele>
        <time>2019-07-14T09:46:33.000Z</time>
      </trkpt>
      <trkpt lat="43.08113" lon="1.24899">
        <ele>478.39999389648</ele>
        <time>2019-07-14T09:46:38.000Z</time>
      </trkpt>
      <trkpt lat="43.08103" lon="1.24892">
        <ele>478.39999389648</ele>
        <time>2019-07-14T09:46:40.000Z</time>
      </trkpt>
      <trkpt lat="43.08088" lon="1.24883">
        <ele>478.39999389648</ele>
        <time>2019-07-14T09:46:43.000Z</time>
      </trkpt>
      <trkpt lat="43.08077" lon="1.24877">
        <ele>477.79998779297</ele>
        <time>2019-07-14T09:46:45.000Z</time>
      </trkpt>
      <trkpt lat="43.08072" lon="1.24874">
        <ele>477.39999389648</ele>
        <time>2019-07-14T09:46:46.000Z</time>
      </trkpt>
      <trkpt lat="43.08067" lon="1.24871">
        <ele>477</ele>
        <time>2019-07-14T09:46:47.000Z</time>
      </trkpt>
      <trkpt lat="43.08062" lon="1.24868">
        <ele>476.60000610352</ele>
        <time>2019-07-14T09:46:48.000Z</time>
      </trkpt>
      <trkpt lat="43.08058" lon="1.24866">
        <ele>476</ele>
        <time>2019-07-14T09:46:49.000Z</time>
      </trkpt>
      <trkpt lat="43.08039" lon="1.24857">
        <ele>476</ele>
        <time>2019-07-14T09:46:53.000Z</time>
      </trkpt>
      <trkpt lat="43.08035" lon="1.24857">
        <ele>476</ele>
        <time>2019-07-14T09:46:54.000Z</time>
      </trkpt>
      <trkpt lat="43.08016" lon="1.24858">
        <ele>476</ele>
        <time>2019-07-14T09:46:59.000Z</time>
      </trkpt>
      <trkpt lat="43.08011" lon="1.24859">
        <ele>476.39999389648</ele>
        <time>2019-07-14T09:47:00.000Z</time>
      </trkpt>
      <trkpt lat="43.08007" lon="1.24861">
        <ele>476.79998779297</ele>
        <time>2019-07-14T09:47:01.000Z</time>
      </trkpt>
      <trkpt lat="43.08002" lon="1.24862">
        <ele>477.39999389648</ele>
        <time>2019-07-14T09:47:02.000Z</time>
      </trkpt>
      <trkpt lat="43.07998" lon="1.24865">
        <ele>477.79998779297</ele>
        <time>2019-07-14T09:47:03.000Z</time>
      </trkpt>
      <trkpt lat="43.07993" lon="1.24867">
        <ele>478.20001220703</ele>
        <time>2019-07-14T09:47:04.000Z</time>
      </trkpt>
      <trkpt lat="43.0798" lon="1.24876">
        <ele>478.20001220703</ele>
        <time>2019-07-14T09:47:07.000Z</time>
      </trkpt>
      <trkpt lat="43.07961" lon="1.24879">
        <ele>478.20001220703</ele>
        <time>2019-07-14T09:47:11.000Z</time>
      </trkpt>
      <trkpt lat="43.07956" lon="1.2488">
        <ele>478.20001220703</ele>
        <time>2019-07-14T09:47:12.000Z</time>
      </trkpt>
      <trkpt lat="43.07932" lon="1.24878">
        <ele>478.20001220703</ele>
        <time>2019-07-14T09:47:17.000Z</time>
      </trkpt>
      <trkpt lat="43.07928" lon="1.24876">
        <ele>478.20001220703</ele>
        <time>2019-07-14T09:47:18.000Z</time>
      </trkpt>
      <trkpt lat="43.0791" lon="1.2487">
        <ele>478.20001220703</ele>
        <time>2019-07-14T09:47:22.000Z</time>
      </trkpt>
      <trkpt lat="43.07903" lon="1.2487">
        <ele>478.20001220703</ele>
        <time>2019-07-14T09:47:24.000Z</time>
      </trkpt>
      <trkpt lat="43.07888" lon="1.24877">
        <ele>478.20001220703</ele>
        <time>2019-07-14T09:47:28.000Z</time>
      </trkpt>
      <trkpt lat="43.07871" lon="1.24895">
        <ele>478.20001220703</ele>
        <time>2019-07-14T09:47:33.000Z</time>
      </trkpt>
      <trkpt lat="43.07869" lon="1.24898">
        <ele>478.60000610352</ele>
        <time>2019-07-14T09:47:34.000Z</time>
      </trkpt>
      <trkpt lat="43.07866" lon="1.249">
        <ele>479</ele>
        <time>2019-07-14T09:47:35.000Z</time>
      </trkpt>
      <trkpt lat="43.07863" lon="1.24902">
        <ele>479.39999389648</ele>
        <time>2019-07-14T09:47:36.000Z</time>
      </trkpt>
      <trkpt lat="43.07861" lon="1.24904">
        <ele>479.79998779297</ele>
        <time>2019-07-14T09:47:37.000Z</time>
      </trkpt>
      <trkpt lat="43.07859" lon="1.24905">
        <ele>480.20001220703</ele>
        <time>2019-07-14T09:47:38.000Z</time>
      </trkpt>
      <trkpt lat="43.07852" lon="1.24907">
        <ele>480.60000610352</ele>
        <time>2019-07-14T09:47:41.000Z</time>
      </trkpt>
      <trkpt lat="43.0785" lon="1.24907">
        <ele>481.20001220703</ele>
        <time>2019-07-14T09:47:42.000Z</time>
      </trkpt>
      <trkpt lat="43.07848" lon="1.24908">
        <ele>481.60000610352</ele>
        <time>2019-07-14T09:47:43.000Z</time>
      </trkpt>
      <trkpt lat="43.07847" lon="1.24908">
        <ele>482</ele>
        <time>2019-07-14T09:47:44.000Z</time>
      </trkpt>
      <trkpt lat="43.07846" lon="1.24909">
        <ele>482.39999389648</ele>
        <time>2019-07-14T09:47:45.000Z</time>
      </trkpt>
      <trkpt lat="43.0784" lon="1.24911">
        <ele>482.79998779297</ele>
        <time>2019-07-14T09:47:49.000Z</time>
      </trkpt>
      <trkpt lat="43.07839" lon="1.24912">
        <ele>483.20001220703</ele>
        <time>2019-07-14T09:47:50.000Z</time>
      </trkpt>
      <trkpt lat="43.07837" lon="1.24912">
        <ele>483.60000610352</ele>
        <time>2019-07-14T09:47:51.000Z</time>
      </trkpt>
      <trkpt lat="43.07836" lon="1.24912">
        <ele>484.20001220703</ele>
        <time>2019-07-14T09:47:52.000Z</time>
      </trkpt>
      <trkpt lat="43.07835" lon="1.24912">
        <ele>484.60000610352</ele>
        <time>2019-07-14T09:47:53.000Z</time>
      </trkpt>
      <trkpt lat="43.07833" lon="1.24912">
        <ele>484.60000610352</ele>
        <time>2019-07-14T09:47:54.000Z</time>
      </trkpt>
      <trkpt lat="43.07828" lon="1.24914">
        <ele>485.39999389648</ele>
        <time>2019-07-14T09:47:58.000Z</time>
      </trkpt>
      <trkpt lat="43.07826" lon="1.24915">
        <ele>485.79998779297</ele>
        <time>2019-07-14T09:47:59.000Z</time>
      </trkpt>
      <trkpt lat="43.07824" lon="1.24916">
        <ele>486.20001220703</ele>
        <time>2019-07-14T09:48:00.000Z</time>
      </trkpt>
      <trkpt lat="43.07823" lon="1.24916">
        <ele>486.60000610352</ele>
        <time>2019-07-14T09:48:01.000Z</time>
      </trkpt>
      <trkpt lat="43.07815" lon="1.24918">
        <ele>487</ele>
        <time>2019-07-14T09:48:07.000Z</time>
      </trkpt>
      <trkpt lat="43.07814" lon="1.24919">
        <ele>487.39999389648</ele>
        <time>2019-07-14T09:48:08.000Z</time>
      </trkpt>
      <trkpt lat="43.07812" lon="1.2492">
        <ele>487.79998779297</ele>
        <time>2019-07-14T09:48:09.000Z</time>
      </trkpt>
      <trkpt lat="43.07811" lon="1.2492">
        <ele>488.20001220703</ele>
        <time>2019-07-14T09:48:10.000Z</time>
      </trkpt>
      <trkpt lat="43.07809" lon="1.2492">
        <ele>488.60000610352</ele>
        <time>2019-07-14T09:48:11.000Z</time>
      </trkpt>
      <trkpt lat="43.07807" lon="1.2492">
        <ele>488.60000610352</ele>
        <time>2019-07-14T09:48:13.000Z</time>
      </trkpt>
      <trkpt lat="43.07801" lon="1.2492">
        <ele>489</ele>
        <time>2019-07-14T09:48:18.000Z</time>
      </trkpt>
      <trkpt lat="43.078" lon="1.24921">
        <ele>489.39999389648</ele>
        <time>2019-07-14T09:48:19.000Z</time>
      </trkpt>
      <trkpt lat="43.07799" lon="1.24921">
        <ele>489.79998779297</ele>
        <time>2019-07-14T09:48:20.000Z</time>
      </trkpt>
      <trkpt lat="43.07798" lon="1.24922">
        <ele>490.20001220703</ele>
        <time>2019-07-14T09:48:21.000Z</time>
      </trkpt>
      <trkpt lat="43.07796" lon="1.24922">
        <ele>490.79998779297</ele>
        <time>2019-07-14T09:48:22.000Z</time>
      </trkpt>
      <trkpt lat="43.07793" lon="1.24921">
        <ele>490.79998779297</ele>
        <time>2019-07-14T09:48:24.000Z</time>
      </trkpt>
      <trkpt lat="43.07789" lon="1.24921">
        <ele>490.79998779297</ele>
        <time>2019-07-14T09:48:28.000Z</time>
      </trkpt>
      <trkpt lat="43.07786" lon="1.24921">
        <ele>491.20001220703</ele>
        <time>2019-07-14T09:48:30.000Z</time>
      </trkpt>
      <trkpt lat="43.07784" lon="1.2492">
        <ele>491.60000610352</ele>
        <time>2019-07-14T09:48:31.000Z</time>
      </trkpt>
      <trkpt lat="43.07783" lon="1.2492">
        <ele>492</ele>
        <time>2019-07-14T09:48:32.000Z</time>
      </trkpt>
      <trkpt lat="43.07781" lon="1.2492">
        <ele>492.39999389648</ele>
        <time>2019-07-14T09:48:33.000Z</time>
      </trkpt>
      <trkpt lat="43.07779" lon="1.2492">
        <ele>492.79998779297</ele>
        <time>2019-07-14T09:48:34.000Z</time>
      </trkpt>
      <trkpt lat="43.07773" lon="1.24921">
        <ele>492.79998779297</ele>
        <time>2019-07-14T09:48:39.000Z</time>
      </trkpt>
      <trkpt lat="43.07771" lon="1.24921">
        <ele>492.79998779297</ele>
        <time>2019-07-14T09:48:41.000Z</time>
      </trkpt>
      <trkpt lat="43.07768" lon="1.24922">
        <ele>493.20001220703</ele>
        <time>2019-07-14T09:48:43.000Z</time>
      </trkpt>
      <trkpt lat="43.07767" lon="1.24922">
        <ele>493.79998779297</ele>
        <time>2019-07-14T09:48:44.000Z</time>
      </trkpt>
      <trkpt lat="43.07765" lon="1.24922">
        <ele>494.20001220703</ele>
        <time>2019-07-14T09:48:45.000Z</time>
      </trkpt>
      <trkpt lat="43.07764" lon="1.24922">
        <ele>494.60000610352</ele>
        <time>2019-07-14T09:48:46.000Z</time>
      </trkpt>
      <trkpt lat="43.07763" lon="1.24923">
        <ele>495</ele>
        <time>2019-07-14T09:48:47.000Z</time>
      </trkpt>
      <trkpt lat="43.07761" lon="1.24922">
        <ele>495</ele>
        <time>2019-07-14T09:48:48.000Z</time>
      </trkpt>
      <trkpt lat="43.0776" lon="1.24922">
        <ele>495</ele>
        <time>2019-07-14T09:48:49.000Z</time>
      </trkpt>
      <trkpt lat="43.07755" lon="1.24923">
        <ele>495</ele>
        <time>2019-07-14T09:48:53.000Z</time>
      </trkpt>
      <trkpt lat="43.07752" lon="1.24924">
        <ele>495.39999389648</ele>
        <time>2019-07-14T09:48:55.000Z</time>
      </trkpt>
      <trkpt lat="43.07751" lon="1.24924">
        <ele>495.79998779297</ele>
        <time>2019-07-14T09:48:56.000Z</time>
      </trkpt>
      <trkpt lat="43.0775" lon="1.24924">
        <ele>496.20001220703</ele>
        <time>2019-07-14T09:48:57.000Z</time>
      </trkpt>
      <trkpt lat="43.07748" lon="1.24924">
        <ele>496.60000610352</ele>
        <time>2019-07-14T09:48:58.000Z</time>
      </trkpt>
      <trkpt lat="43.07747" lon="1.24924">
        <ele>497.20001220703</ele>
        <time>2019-07-14T09:48:59.000Z</time>
      </trkpt>
      <trkpt lat="43.07739" lon="1.24926">
        <ele>497.20001220703</ele>
        <time>2019-07-14T09:49:05.000Z</time>
      </trkpt>
      <trkpt lat="43.07738" lon="1.24926">
        <ele>497.60000610352</ele>
        <time>2019-07-14T09:49:06.000Z</time>
      </trkpt>
      <trkpt lat="43.07737" lon="1.24926">
        <ele>498</ele>
        <time>2019-07-14T09:49:07.000Z</time>
      </trkpt>
      <trkpt lat="43.07736" lon="1.24927">
        <ele>498.39999389648</ele>
        <time>2019-07-14T09:49:08.000Z</time>
      </trkpt>
      <trkpt lat="43.07734" lon="1.24927">
        <ele>498.79998779297</ele>
        <time>2019-07-14T09:49:09.000Z</time>
      </trkpt>
      <trkpt lat="43.07734" lon="1.24928">
        <ele>499.20001220703</ele>
        <time>2019-07-14T09:49:10.000Z</time>
      </trkpt>
      <trkpt lat="43.07732" lon="1.2493">
        <ele>499.20001220703</ele>
        <time>2019-07-14T09:49:12.000Z</time>
      </trkpt>
      <trkpt lat="43.0773" lon="1.24931">
        <ele>499.60000610352</ele>
        <time>2019-07-14T09:49:16.000Z</time>
      </trkpt>
      <trkpt lat="43.07729" lon="1.24932">
        <ele>500</ele>
        <time>2019-07-14T09:49:17.000Z</time>
      </trkpt>
      <trkpt lat="43.07728" lon="1.24932">
        <ele>500.39999389648</ele>
        <time>2019-07-14T09:49:18.000Z</time>
      </trkpt>
      <trkpt lat="43.07727" lon="1.24933">
        <ele>500.79998779297</ele>
        <time>2019-07-14T09:49:19.000Z</time>
      </trkpt>
      <trkpt lat="43.07725" lon="1.24934">
        <ele>501.39999389648</ele>
        <time>2019-07-14T09:49:20.000Z</time>
      </trkpt>
      <trkpt lat="43.0772" lon="1.24936">
        <ele>501.39999389648</ele>
        <time>2019-07-14T09:49:25.000Z</time>
      </trkpt>
      <trkpt lat="43.07716" lon="1.24935">
        <ele>501.79998779297</ele>
        <time>2019-07-14T09:49:28.000Z</time>
      </trkpt>
      <trkpt lat="43.07714" lon="1.24935">
        <ele>502.20001220703</ele>
        <time>2019-07-14T09:49:29.000Z</time>
      </trkpt>
      <trkpt lat="43.07713" lon="1.24935">
        <ele>502.60000610352</ele>
        <time>2019-07-14T09:49:30.000Z</time>
      </trkpt>
      <trkpt lat="43.07712" lon="1.24935">
        <ele>503</ele>
        <time>2019-07-14T09:49:31.000Z</time>
      </trkpt>
      <trkpt lat="43.07711" lon="1.24935">
        <ele>503.39999389648</ele>
        <time>2019-07-14T09:49:32.000Z</time>
      </trkpt>
      <trkpt lat="43.07705" lon="1.24938">
        <ele>503.79998779297</ele>
        <time>2019-07-14T09:49:38.000Z</time>
      </trkpt>
      <trkpt lat="43.07705" lon="1.24939">
        <ele>504.20001220703</ele>
        <time>2019-07-14T09:49:39.000Z</time>
      </trkpt>
      <trkpt lat="43.07704" lon="1.2494">
        <ele>504.60000610352</ele>
        <time>2019-07-14T09:49:40.000Z</time>
      </trkpt>
      <trkpt lat="43.07704" lon="1.2494">
        <ele>505.20001220703</ele>
        <time>2019-07-14T09:49:41.000Z</time>
      </trkpt>
      <trkpt lat="43.07702" lon="1.24941">
        <ele>505.60000610352</ele>
        <time>2019-07-14T09:49:42.000Z</time>
      </trkpt>
      <trkpt lat="43.077" lon="1.24942">
        <ele>505.60000610352</ele>
        <time>2019-07-14T09:49:44.000Z</time>
      </trkpt>
      <trkpt lat="43.07693" lon="1.24946">
        <ele>506</ele>
        <time>2019-07-14T09:49:51.000Z</time>
      </trkpt>
      <trkpt lat="43.07691" lon="1.24947">
        <ele>506.39999389648</ele>
        <time>2019-07-14T09:49:52.000Z</time>
      </trkpt>
      <trkpt lat="43.0769" lon="1.24948">
        <ele>506.79998779297</ele>
        <time>2019-07-14T09:49:53.000Z</time>
      </trkpt>
      <trkpt lat="43.07689" lon="1.24949">
        <ele>507.20001220703</ele>
        <time>2019-07-14T09:49:54.000Z</time>
      </trkpt>
      <trkpt lat="43.07689" lon="1.2495">
        <ele>507.60000610352</ele>
        <time>2019-07-14T09:49:55.000Z</time>
      </trkpt>
      <trkpt lat="43.07684" lon="1.24953">
        <ele>507.60000610352</ele>
        <time>2019-07-14T09:49:58.000Z</time>
      </trkpt>
      <trkpt lat="43.07683" lon="1.24953">
        <ele>507.60000610352</ele>
        <time>2019-07-14T09:49:59.000Z</time>
      </trkpt>
      <trkpt lat="43.0768" lon="1.24955">
        <ele>507.60000610352</ele>
        <time>2019-07-14T09:50:01.000Z</time>
      </trkpt>
      <trkpt lat="43.07679" lon="1.24959">
        <ele>508</ele>
        <time>2019-07-14T09:50:03.000Z</time>
      </trkpt>
      <trkpt lat="43.07678" lon="1.2496">
        <ele>508.39999389648</ele>
        <time>2019-07-14T09:50:04.000Z</time>
      </trkpt>
      <trkpt lat="43.07676" lon="1.24961">
        <ele>508.79998779297</ele>
        <time>2019-07-14T09:50:05.000Z</time>
      </trkpt>
      <trkpt lat="43.07675" lon="1.24962">
        <ele>509.39999389648</ele>
        <time>2019-07-14T09:50:06.000Z</time>
      </trkpt>
      <trkpt lat="43.07674" lon="1.24963">
        <ele>509.79998779297</ele>
        <time>2019-07-14T09:50:07.000Z</time>
      </trkpt>
      <trkpt lat="43.07671" lon="1.24967">
        <ele>509.79998779297</ele>
        <time>2019-07-14T09:50:10.000Z</time>
      </trkpt>
      <trkpt lat="43.07664" lon="1.24973">
        <ele>509.79998779297</ele>
        <time>2019-07-14T09:50:16.000Z</time>
      </trkpt>
      <trkpt lat="43.07662" lon="1.24976">
        <ele>510.20001220703</ele>
        <time>2019-07-14T09:50:18.000Z</time>
      </trkpt>
      <trkpt lat="43.07662" lon="1.24977">
        <ele>510.60000610352</ele>
        <time>2019-07-14T09:50:19.000Z</time>
      </trkpt>
      <trkpt lat="43.0766" lon="1.24978">
        <ele>511</ele>
        <time>2019-07-14T09:50:20.000Z</time>
      </trkpt>
      <trkpt lat="43.07659" lon="1.24979">
        <ele>511.39999389648</ele>
        <time>2019-07-14T09:50:21.000Z</time>
      </trkpt>
      <trkpt lat="43.07658" lon="1.2498">
        <ele>511.79998779297</ele>
        <time>2019-07-14T09:50:22.000Z</time>
      </trkpt>
      <trkpt lat="43.07652" lon="1.24988">
        <ele>511.79998779297</ele>
        <time>2019-07-14T09:50:28.000Z</time>
      </trkpt>
      <trkpt lat="43.0765" lon="1.24991">
        <ele>511.79998779297</ele>
        <time>2019-07-14T09:50:30.000Z</time>
      </trkpt>
      <trkpt lat="43.07649" lon="1.24992">
        <ele>512.20001220703</ele>
        <time>2019-07-14T09:50:31.000Z</time>
      </trkpt>
      <trkpt lat="43.07648" lon="1.24992">
        <ele>512.59997558594</ele>
        <time>2019-07-14T09:50:32.000Z</time>
      </trkpt>
      <trkpt lat="43.07647" lon="1.24994">
        <ele>513</ele>
        <time>2019-07-14T09:50:33.000Z</time>
      </trkpt>
      <trkpt lat="43.07646" lon="1.24995">
        <ele>513.40002441406</ele>
        <time>2019-07-14T09:50:34.000Z</time>
      </trkpt>
      <trkpt lat="43.07645" lon="1.24996">
        <ele>514</ele>
        <time>2019-07-14T09:50:35.000Z</time>
      </trkpt>
      <trkpt lat="43.07643" lon="1.24999">
        <ele>514</ele>
        <time>2019-07-14T09:50:37.000Z</time>
      </trkpt>
      <trkpt lat="43.07641" lon="1.25001">
        <ele>514</ele>
        <time>2019-07-14T09:50:39.000Z</time>
      </trkpt>
      <trkpt lat="43.07633" lon="1.2501">
        <ele>514</ele>
        <time>2019-07-14T09:50:46.000Z</time>
      </trkpt>
      <trkpt lat="43.07632" lon="1.25011">
        <ele>514.40002441406</ele>
        <time>2019-07-14T09:50:47.000Z</time>
      </trkpt>
      <trkpt lat="43.0763" lon="1.25013">
        <ele>514.79998779297</ele>
        <time>2019-07-14T09:50:48.000Z</time>
      </trkpt>
      <trkpt lat="43.07629" lon="1.25014">
        <ele>515.20001220703</ele>
        <time>2019-07-14T09:50:49.000Z</time>
      </trkpt>
      <trkpt lat="43.07627" lon="1.25015">
        <ele>515.59997558594</ele>
        <time>2019-07-14T09:50:50.000Z</time>
      </trkpt>
      <trkpt lat="43.07626" lon="1.25015">
        <ele>516.20001220703</ele>
        <time>2019-07-14T09:50:51.000Z</time>
      </trkpt>
      <trkpt lat="43.07625" lon="1.25016">
        <ele>516.20001220703</ele>
        <time>2019-07-14T09:50:52.000Z</time>
      </trkpt>
      <trkpt lat="43.0762" lon="1.25021">
        <ele>516.20001220703</ele>
        <time>2019-07-14T09:50:57.000Z</time>
      </trkpt>
      <trkpt lat="43.07618" lon="1.25023">
        <ele>516.59997558594</ele>
        <time>2019-07-14T09:50:58.000Z</time>
      </trkpt>
      <trkpt lat="43.07617" lon="1.25025">
        <ele>517</ele>
        <time>2019-07-14T09:50:59.000Z</time>
      </trkpt>
      <trkpt lat="43.07616" lon="1.25027">
        <ele>517.40002441406</ele>
        <time>2019-07-14T09:51:00.000Z</time>
      </trkpt>
      <trkpt lat="43.07615" lon="1.25028">
        <ele>517.79998779297</ele>
        <time>2019-07-14T09:51:01.000Z</time>
      </trkpt>
      <trkpt lat="43.07613" lon="1.2503">
        <ele>518.20001220703</ele>
        <time>2019-07-14T09:51:02.000Z</time>
      </trkpt>
      <trkpt lat="43.07608" lon="1.25034">
        <ele>518.20001220703</ele>
        <time>2019-07-14T09:51:05.000Z</time>
      </trkpt>
      <trkpt lat="43.07602" lon="1.25038">
        <ele>518.20001220703</ele>
        <time>2019-07-14T09:51:08.000Z</time>
      </trkpt>
      <trkpt lat="43.07598" lon="1.25042">
        <ele>518.20001220703</ele>
        <time>2019-07-14T09:51:10.000Z</time>
      </trkpt>
      <trkpt lat="43.07593" lon="1.25045">
        <ele>518.20001220703</ele>
        <time>2019-07-14T09:51:12.000Z</time>
      </trkpt>
      <trkpt lat="43.07581" lon="1.25052">
        <ele>518.20001220703</ele>
        <time>2019-07-14T09:51:17.000Z</time>
      </trkpt>
      <trkpt lat="43.07569" lon="1.25058">
        <ele>518.20001220703</ele>
        <time>2019-07-14T09:51:21.000Z</time>
      </trkpt>
      <trkpt lat="43.0756" lon="1.25059">
        <ele>518.20001220703</ele>
        <time>2019-07-14T09:51:25.000Z</time>
      </trkpt>
      <trkpt lat="43.07553" lon="1.25061">
        <ele>518.20001220703</ele>
        <time>2019-07-14T09:51:30.000Z</time>
      </trkpt>
      <trkpt lat="43.07551" lon="1.25058">
        <ele>518.20001220703</ele>
        <time>2019-07-14T09:51:32.000Z</time>
      </trkpt>
      <trkpt lat="43.0755" lon="1.25056">
        <ele>518.59997558594</ele>
        <time>2019-07-14T09:51:33.000Z</time>
      </trkpt>
      <trkpt lat="43.07549" lon="1.25053">
        <ele>519</ele>
        <time>2019-07-14T09:51:34.000Z</time>
      </trkpt>
      <trkpt lat="43.07547" lon="1.25048">
        <ele>519.40002441406</ele>
        <time>2019-07-14T09:51:35.000Z</time>
      </trkpt>
      <trkpt lat="43.07545" lon="1.25044">
        <ele>519.79998779297</ele>
        <time>2019-07-14T09:51:36.000Z</time>
      </trkpt>
      <trkpt lat="43.07545" lon="1.25042">
        <ele>520.20001220703</ele>
        <time>2019-07-14T09:51:37.000Z</time>
      </trkpt>
      <trkpt lat="43.0754" lon="1.25033">
        <ele>520.20001220703</ele>
        <time>2019-07-14T09:51:41.000Z</time>
      </trkpt>
      <trkpt lat="43.07536" lon="1.25026">
        <ele>520.59997558594</ele>
        <time>2019-07-14T09:51:44.000Z</time>
      </trkpt>
      <trkpt lat="43.07535" lon="1.25025">
        <ele>521</ele>
        <time>2019-07-14T09:51:45.000Z</time>
      </trkpt>
      <trkpt lat="43.07534" lon="1.25023">
        <ele>521.40002441406</ele>
        <time>2019-07-14T09:51:46.000Z</time>
      </trkpt>
      <trkpt lat="43.07533" lon="1.25022">
        <ele>521.79998779297</ele>
        <time>2019-07-14T09:51:47.000Z</time>
      </trkpt>
      <trkpt lat="43.07532" lon="1.2502">
        <ele>522.20001220703</ele>
        <time>2019-07-14T09:51:48.000Z</time>
      </trkpt>
      <trkpt lat="43.07529" lon="1.25015">
        <ele>522.20001220703</ele>
        <time>2019-07-14T09:51:50.000Z</time>
      </trkpt>
      <trkpt lat="43.07527" lon="1.25012">
        <ele>522.20001220703</ele>
        <time>2019-07-14T09:51:51.000Z</time>
      </trkpt>
      <trkpt lat="43.07525" lon="1.25012">
        <ele>522.20001220703</ele>
        <time>2019-07-14T09:51:52.000Z</time>
      </trkpt>
      <trkpt lat="43.07518" lon="1.25007">
        <ele>522.59997558594</ele>
        <time>2019-07-14T09:51:56.000Z</time>
      </trkpt>
      <trkpt lat="43.07518" lon="1.25007">
        <ele>523.20001220703</ele>
        <time>2019-07-14T09:51:57.000Z</time>
      </trkpt>
      <trkpt lat="43.07516" lon="1.25004">
        <ele>523.59997558594</ele>
        <time>2019-07-14T09:51:58.000Z</time>
      </trkpt>
      <trkpt lat="43.07514" lon="1.25002">
        <ele>524</ele>
        <time>2019-07-14T09:51:59.000Z</time>
      </trkpt>
      <trkpt lat="43.07513" lon="1.25002">
        <ele>524.40002441406</ele>
        <time>2019-07-14T09:52:00.000Z</time>
      </trkpt>
      <trkpt lat="43.07511" lon="1.25">
        <ele>524.40002441406</ele>
        <time>2019-07-14T09:52:02.000Z</time>
      </trkpt>
      <trkpt lat="43.07508" lon="1.24994">
        <ele>524.79998779297</ele>
        <time>2019-07-14T09:52:05.000Z</time>
      </trkpt>
      <trkpt lat="43.07506" lon="1.24994">
        <ele>525.20001220703</ele>
        <time>2019-07-14T09:52:06.000Z</time>
      </trkpt>
      <trkpt lat="43.07505" lon="1.24993">
        <ele>525.59997558594</ele>
        <time>2019-07-14T09:52:07.000Z</time>
      </trkpt>
      <trkpt lat="43.07503" lon="1.24992">
        <ele>526.20001220703</ele>
        <time>2019-07-14T09:52:08.000Z</time>
      </trkpt>
      <trkpt lat="43.07502" lon="1.24991">
        <ele>526.59997558594</ele>
        <time>2019-07-14T09:52:09.000Z</time>
      </trkpt>
      <trkpt lat="43.07497" lon="1.2499">
        <ele>527</ele>
        <time>2019-07-14T09:52:13.000Z</time>
      </trkpt>
      <trkpt lat="43.07496" lon="1.24989">
        <ele>527.40002441406</ele>
        <time>2019-07-14T09:52:14.000Z</time>
      </trkpt>
      <trkpt lat="43.07495" lon="1.24989">
        <ele>527.79998779297</ele>
        <time>2019-07-14T09:52:15.000Z</time>
      </trkpt>
      <trkpt lat="43.07494" lon="1.24988">
        <ele>528.20001220703</ele>
        <time>2019-07-14T09:52:16.000Z</time>
      </trkpt>
      <trkpt lat="43.07492" lon="1.24987">
        <ele>528.59997558594</ele>
        <time>2019-07-14T09:52:17.000Z</time>
      </trkpt>
      <trkpt lat="43.07488" lon="1.24985">
        <ele>528.59997558594</ele>
        <time>2019-07-14T09:52:20.000Z</time>
      </trkpt>
      <trkpt lat="43.07487" lon="1.24984">
        <ele>529</ele>
        <time>2019-07-14T09:52:21.000Z</time>
      </trkpt>
      <trkpt lat="43.07486" lon="1.24984">
        <ele>529.59997558594</ele>
        <time>2019-07-14T09:52:22.000Z</time>
      </trkpt>
      <trkpt lat="43.0747" lon="1.24986">
        <ele>533</ele>
        <time>2019-07-14T09:52:34.000Z</time>
      </trkpt>
      <trkpt lat="43.07468" lon="1.24989">
        <ele>533</ele>
        <time>2019-07-14T09:52:36.000Z</time>
      </trkpt>
      <trkpt lat="43.07467" lon="1.2499">
        <ele>533.40002441406</ele>
        <time>2019-07-14T09:52:37.000Z</time>
      </trkpt>
      <trkpt lat="43.07466" lon="1.24991">
        <ele>533.79998779297</ele>
        <time>2019-07-14T09:52:38.000Z</time>
      </trkpt>
      <trkpt lat="43.07465" lon="1.24992">
        <ele>534.20001220703</ele>
        <time>2019-07-14T09:52:39.000Z</time>
      </trkpt>
      <trkpt lat="43.07464" lon="1.24993">
        <ele>534.59997558594</ele>
        <time>2019-07-14T09:52:40.000Z</time>
      </trkpt>
      <trkpt lat="43.07463" lon="1.24994">
        <ele>535</ele>
        <time>2019-07-14T09:52:41.000Z</time>
      </trkpt>
      <trkpt lat="43.07461" lon="1.24994">
        <ele>535</ele>
        <time>2019-07-14T09:52:43.000Z</time>
      </trkpt>
      <trkpt lat="43.07436" lon="1.25026">
        <ele>541.20001220703</ele>
        <time>2019-07-14T09:53:28.000Z</time>
      </trkpt>
      <trkpt lat="43.07434" lon="1.25032">
        <ele>541.59997558594</ele>
        <time>2019-07-14T09:53:32.000Z</time>
      </trkpt>
      <trkpt lat="43.07434" lon="1.25033">
        <ele>542</ele>
        <time>2019-07-14T09:53:33.000Z</time>
      </trkpt>
      <trkpt lat="43.07433" lon="1.25035">
        <ele>542.40002441406</ele>
        <time>2019-07-14T09:53:34.000Z</time>
      </trkpt>
      <trkpt lat="43.07432" lon="1.25037">
        <ele>542.79998779297</ele>
        <time>2019-07-14T09:53:35.000Z</time>
      </trkpt>
      <trkpt lat="43.07432" lon="1.25039">
        <ele>543.20001220703</ele>
        <time>2019-07-14T09:53:36.000Z</time>
      </trkpt>
      <trkpt lat="43.07431" lon="1.25042">
        <ele>543.20001220703</ele>
        <time>2019-07-14T09:53:38.000Z</time>
      </trkpt>
      <trkpt lat="43.07431" lon="1.25047">
        <ele>543.59997558594</ele>
        <time>2019-07-14T09:53:41.000Z</time>
      </trkpt>
      <trkpt lat="43.0743" lon="1.25048">
        <ele>544</ele>
        <time>2019-07-14T09:53:42.000Z</time>
      </trkpt>
      <trkpt lat="43.0743" lon="1.2505">
        <ele>544.79998779297</ele>
        <time>2019-07-14T09:53:43.000Z</time>
      </trkpt>
      <trkpt lat="43.07429" lon="1.25053">
        <ele>545.20001220703</ele>
        <time>2019-07-14T09:53:44.000Z</time>
      </trkpt>
      <trkpt lat="43.07426" lon="1.25069">
        <ele>545.20001220703</ele>
        <time>2019-07-14T09:53:51.000Z</time>
      </trkpt>
      <trkpt lat="43.07423" lon="1.25071">
        <ele>545.59997558594</ele>
        <time>2019-07-14T09:53:53.000Z</time>
      </trkpt>
      <trkpt lat="43.07422" lon="1.25073">
        <ele>546</ele>
        <time>2019-07-14T09:53:54.000Z</time>
      </trkpt>
      <trkpt lat="43.07422" lon="1.25073">
        <ele>546.59997558594</ele>
        <time>2019-07-14T09:53:55.000Z</time>
      </trkpt>
      <trkpt lat="43.07416" lon="1.25078">
        <ele>547.40002441406</ele>
        <time>2019-07-14T09:54:03.000Z</time>
      </trkpt>
      <trkpt lat="43.07413" lon="1.25081">
        <ele>547.79998779297</ele>
        <time>2019-07-14T09:54:06.000Z</time>
      </trkpt>
      <trkpt lat="43.07412" lon="1.25083">
        <ele>548.20001220703</ele>
        <time>2019-07-14T09:54:07.000Z</time>
      </trkpt>
      <trkpt lat="43.07412" lon="1.25084">
        <ele>549</ele>
        <time>2019-07-14T09:54:08.000Z</time>
      </trkpt>
      <trkpt lat="43.07412" lon="1.25087">
        <ele>549.40002441406</ele>
        <time>2019-07-14T09:54:09.000Z</time>
      </trkpt>
      <trkpt lat="43.07411" lon="1.25089">
        <ele>549.40002441406</ele>
        <time>2019-07-14T09:54:10.000Z</time>
      </trkpt>
      <trkpt lat="43.07408" lon="1.25101">
        <ele>549.40002441406</ele>
        <time>2019-07-14T09:54:16.000Z</time>
      </trkpt>
      <trkpt lat="43.07408" lon="1.25107">
        <ele>550</ele>
        <time>2019-07-14T09:54:19.000Z</time>
      </trkpt>
      <trkpt lat="43.07407" lon="1.25108">
        <ele>550.40002441406</ele>
        <time>2019-07-14T09:54:20.000Z</time>
      </trkpt>
      <trkpt lat="43.07407" lon="1.25109">
        <ele>550.79998779297</ele>
        <time>2019-07-14T09:54:21.000Z</time>
      </trkpt>
      <trkpt lat="43.07406" lon="1.25111">
        <ele>551.20001220703</ele>
        <time>2019-07-14T09:54:22.000Z</time>
      </trkpt>
      <trkpt lat="43.07406" lon="1.25113">
        <ele>551.59997558594</ele>
        <time>2019-07-14T09:54:23.000Z</time>
      </trkpt>
      <trkpt lat="43.07403" lon="1.25117">
        <ele>551.59997558594</ele>
        <time>2019-07-14T09:54:26.000Z</time>
      </trkpt>
      <trkpt lat="43.07402" lon="1.2512">
        <ele>551.59997558594</ele>
        <time>2019-07-14T09:54:28.000Z</time>
      </trkpt>
      <trkpt lat="43.074" lon="1.25124">
        <ele>551.59997558594</ele>
        <time>2019-07-14T09:54:31.000Z</time>
      </trkpt>
      <trkpt lat="43.07399" lon="1.25126">
        <ele>552</ele>
        <time>2019-07-14T09:54:33.000Z</time>
      </trkpt>
      <trkpt lat="43.07398" lon="1.25128">
        <ele>552.40002441406</ele>
        <time>2019-07-14T09:54:34.000Z</time>
      </trkpt>
      <trkpt lat="43.07398" lon="1.25129">
        <ele>553</ele>
        <time>2019-07-14T09:54:35.000Z</time>
      </trkpt>
      <trkpt lat="43.07397" lon="1.25131">
        <ele>553.40002441406</ele>
        <time>2019-07-14T09:54:36.000Z</time>
      </trkpt>
      <trkpt lat="43.07397" lon="1.25132">
        <ele>553.79998779297</ele>
        <time>2019-07-14T09:54:37.000Z</time>
      </trkpt>
      <trkpt lat="43.07396" lon="1.25134">
        <ele>553.79998779297</ele>
        <time>2019-07-14T09:54:38.000Z</time>
      </trkpt>
      <trkpt lat="43.07393" lon="1.25142">
        <ele>553.79998779297</ele>
        <time>2019-07-14T09:54:43.000Z</time>
      </trkpt>
      <trkpt lat="43.07392" lon="1.25145">
        <ele>553.79998779297</ele>
        <time>2019-07-14T09:54:49.000Z</time>
      </trkpt>
      <trkpt lat="43.07385" lon="1.25158">
        <ele>553.79998779297</ele>
        <time>2019-07-14T09:54:54.000Z</time>
      </trkpt>
      <trkpt lat="43.07384" lon="1.2516">
        <ele>554.20001220703</ele>
        <time>2019-07-14T09:54:55.000Z</time>
      </trkpt>
      <trkpt lat="43.07382" lon="1.25162">
        <ele>554.59997558594</ele>
        <time>2019-07-14T09:54:56.000Z</time>
      </trkpt>
      <trkpt lat="43.07381" lon="1.25163">
        <ele>555.59997558594</ele>
        <time>2019-07-14T09:54:57.000Z</time>
      </trkpt>
      <trkpt lat="43.0738" lon="1.25164">
        <ele>556</ele>
        <time>2019-07-14T09:54:58.000Z</time>
      </trkpt>
      <trkpt lat="43.07379" lon="1.25165">
        <ele>556</ele>
        <time>2019-07-14T09:54:59.000Z</time>
      </trkpt>
      <trkpt lat="43.07372" lon="1.25164">
        <ele>556</ele>
        <time>2019-07-14T09:55:04.000Z</time>
      </trkpt>
      <trkpt lat="43.07359" lon="1.25157">
        <ele>556.40002441406</ele>
        <time>2019-07-14T09:55:10.000Z</time>
      </trkpt>
      <trkpt lat="43.07358" lon="1.25156">
        <ele>556.79998779297</ele>
        <time>2019-07-14T09:55:11.000Z</time>
      </trkpt>
      <trkpt lat="43.07357" lon="1.25156">
        <ele>557.20001220703</ele>
        <time>2019-07-14T09:55:12.000Z</time>
      </trkpt>
      <trkpt lat="43.07357" lon="1.25155">
        <ele>557.59997558594</ele>
        <time>2019-07-14T09:55:13.000Z</time>
      </trkpt>
      <trkpt lat="43.07356" lon="1.25155">
        <ele>558</ele>
        <time>2019-07-14T09:55:14.000Z</time>
      </trkpt>
      <trkpt lat="43.07354" lon="1.25153">
        <ele>558</ele>
        <time>2019-07-14T09:55:16.000Z</time>
      </trkpt>
      <trkpt lat="43.07348" lon="1.25152">
        <ele>558</ele>
        <time>2019-07-14T09:55:21.000Z</time>
      </trkpt>
      <trkpt lat="43.07345" lon="1.25152">
        <ele>558.40002441406</ele>
        <time>2019-07-14T09:55:23.000Z</time>
      </trkpt>
      <trkpt lat="43.07345" lon="1.25152">
        <ele>558.79998779297</ele>
        <time>2019-07-14T09:55:24.000Z</time>
      </trkpt>
      <trkpt lat="43.07344" lon="1.25152">
        <ele>559.20001220703</ele>
        <time>2019-07-14T09:55:25.000Z</time>
      </trkpt>
      <trkpt lat="43.07343" lon="1.25152">
        <ele>559.59997558594</ele>
        <time>2019-07-14T09:55:26.000Z</time>
      </trkpt>
      <trkpt lat="43.07343" lon="1.25152">
        <ele>560</ele>
        <time>2019-07-14T09:55:27.000Z</time>
      </trkpt>
      <trkpt lat="43.07327" lon="1.25159">
        <ele>562.20001220703</ele>
        <time>2019-07-14T09:55:42.000Z</time>
      </trkpt>
      <trkpt lat="43.0732" lon="1.2516">
        <ele>562.20001220703</ele>
        <time>2019-07-14T09:55:45.000Z</time>
      </trkpt>
      <trkpt lat="43.07317" lon="1.2516">
        <ele>563</ele>
        <time>2019-07-14T09:55:46.000Z</time>
      </trkpt>
      <trkpt lat="43.07315" lon="1.25161">
        <ele>563.40002441406</ele>
        <time>2019-07-14T09:55:47.000Z</time>
      </trkpt>
      <trkpt lat="43.07313" lon="1.25162">
        <ele>563.79998779297</ele>
        <time>2019-07-14T09:55:48.000Z</time>
      </trkpt>
      <trkpt lat="43.07312" lon="1.25162">
        <ele>564.20001220703</ele>
        <time>2019-07-14T09:55:49.000Z</time>
      </trkpt>
      <trkpt lat="43.07309" lon="1.25163">
        <ele>564.20001220703</ele>
        <time>2019-07-14T09:55:51.000Z</time>
      </trkpt>
      <trkpt lat="43.07303" lon="1.25167">
        <ele>564.20001220703</ele>
        <time>2019-07-14T09:55:56.000Z</time>
      </trkpt>
      <trkpt lat="43.07303" lon="1.25167">
        <ele>564.59997558594</ele>
        <time>2019-07-14T09:55:57.000Z</time>
      </trkpt>
      <trkpt lat="43.07302" lon="1.25169">
        <ele>565</ele>
        <time>2019-07-14T09:55:58.000Z</time>
      </trkpt>
      <trkpt lat="43.07301" lon="1.2517">
        <ele>565.40002441406</ele>
        <time>2019-07-14T09:55:59.000Z</time>
      </trkpt>
      <trkpt lat="43.07301" lon="1.25172">
        <ele>565.79998779297</ele>
        <time>2019-07-14T09:56:00.000Z</time>
      </trkpt>
      <trkpt lat="43.073" lon="1.25173">
        <ele>566.40002441406</ele>
        <time>2019-07-14T09:56:01.000Z</time>
      </trkpt>
      <trkpt lat="43.073" lon="1.25174">
        <ele>566.40002441406</ele>
        <time>2019-07-14T09:56:02.000Z</time>
      </trkpt>
      <trkpt lat="43.07299" lon="1.25174">
        <ele>566.40002441406</ele>
        <time>2019-07-14T09:56:03.000Z</time>
      </trkpt>
      <trkpt lat="43.07298" lon="1.25177">
        <ele>566.40002441406</ele>
        <time>2019-07-14T09:56:05.000Z</time>
      </trkpt>
      <trkpt lat="43.07296" lon="1.2518">
        <ele>566.40002441406</ele>
        <time>2019-07-14T09:56:08.000Z</time>
      </trkpt>
      <trkpt lat="43.07295" lon="1.25184">
        <ele>566.79998779297</ele>
        <time>2019-07-14T09:56:10.000Z</time>
      </trkpt>
      <trkpt lat="43.07294" lon="1.25186">
        <ele>567.59997558594</ele>
        <time>2019-07-14T09:56:11.000Z</time>
      </trkpt>
      <trkpt lat="43.07294" lon="1.25187">
        <ele>568</ele>
        <time>2019-07-14T09:56:12.000Z</time>
      </trkpt>
      <trkpt lat="43.07294" lon="1.25189">
        <ele>568.40002441406</ele>
        <time>2019-07-14T09:56:13.000Z</time>
      </trkpt>
      <trkpt lat="43.07293" lon="1.25192">
        <ele>568.40002441406</ele>
        <time>2019-07-14T09:56:15.000Z</time>
      </trkpt>
      <trkpt lat="43.07289" lon="1.252">
        <ele>568.79998779297</ele>
        <time>2019-07-14T09:56:21.000Z</time>
      </trkpt>
      <trkpt lat="43.07289" lon="1.25202">
        <ele>569.20001220703</ele>
        <time>2019-07-14T09:56:22.000Z</time>
      </trkpt>
      <trkpt lat="43.07289" lon="1.25203">
        <ele>569.59997558594</ele>
        <time>2019-07-14T09:56:23.000Z</time>
      </trkpt>
      <trkpt lat="43.07289" lon="1.25205">
        <ele>570</ele>
        <time>2019-07-14T09:56:24.000Z</time>
      </trkpt>
      <trkpt lat="43.07289" lon="1.25206">
        <ele>570.40002441406</ele>
        <time>2019-07-14T09:56:25.000Z</time>
      </trkpt>
      <trkpt lat="43.07289" lon="1.25208">
        <ele>570.40002441406</ele>
        <time>2019-07-14T09:56:27.000Z</time>
      </trkpt>
      <trkpt lat="43.07289" lon="1.25213">
        <ele>570.40002441406</ele>
        <time>2019-07-14T09:56:29.000Z</time>
      </trkpt>
      <trkpt lat="43.0729" lon="1.25218">
        <ele>570.40002441406</ele>
        <time>2019-07-14T09:56:32.000Z</time>
      </trkpt>
      <trkpt lat="43.0729" lon="1.25223">
        <ele>570.79998779297</ele>
        <time>2019-07-14T09:56:35.000Z</time>
      </trkpt>
      <trkpt lat="43.0729" lon="1.25225">
        <ele>571.79998779297</ele>
        <time>2019-07-14T09:56:36.000Z</time>
      </trkpt>
      <trkpt lat="43.0729" lon="1.25226">
        <ele>572.20001220703</ele>
        <time>2019-07-14T09:56:37.000Z</time>
      </trkpt>
      <trkpt lat="43.0729" lon="1.25228">
        <ele>572.59997558594</ele>
        <time>2019-07-14T09:56:38.000Z</time>
      </trkpt>
      <trkpt lat="43.07291" lon="1.25239">
        <ele>572.59997558594</ele>
        <time>2019-07-14T09:56:44.000Z</time>
      </trkpt>
      <trkpt lat="43.07291" lon="1.2524">
        <ele>572.59997558594</ele>
        <time>2019-07-14T09:56:45.000Z</time>
      </trkpt>
      <trkpt lat="43.07291" lon="1.25244">
        <ele>573</ele>
        <time>2019-07-14T09:56:48.000Z</time>
      </trkpt>
      <trkpt lat="43.07291" lon="1.25246">
        <ele>573.40002441406</ele>
        <time>2019-07-14T09:56:49.000Z</time>
      </trkpt>
      <trkpt lat="43.07291" lon="1.25248">
        <ele>573.79998779297</ele>
        <time>2019-07-14T09:56:50.000Z</time>
      </trkpt>
      <trkpt lat="43.07291" lon="1.25251">
        <ele>574.20001220703</ele>
        <time>2019-07-14T09:56:51.000Z</time>
      </trkpt>
      <trkpt lat="43.07291" lon="1.25253">
        <ele>574.59997558594</ele>
        <time>2019-07-14T09:56:52.000Z</time>
      </trkpt>
      <trkpt lat="43.07292" lon="1.25258">
        <ele>574.59997558594</ele>
        <time>2019-07-14T09:56:55.000Z</time>
      </trkpt>
      <trkpt lat="43.0729" lon="1.25266">
        <ele>574.59997558594</ele>
        <time>2019-07-14T09:56:59.000Z</time>
      </trkpt>
      <trkpt lat="43.07289" lon="1.25267">
        <ele>574.59997558594</ele>
        <time>2019-07-14T09:57:00.000Z</time>
      </trkpt>
      <trkpt lat="43.07289" lon="1.25271">
        <ele>574.59997558594</ele>
        <time>2019-07-14T09:57:02.000Z</time>
      </trkpt>
      <trkpt lat="43.07289" lon="1.25274">
        <ele>574.59997558594</ele>
        <time>2019-07-14T09:57:04.000Z</time>
      </trkpt>
      <trkpt lat="43.07289" lon="1.25274">
        <ele>574.59997558594</ele>
        <time>2019-07-14T09:57:05.000Z</time>
      </trkpt>
      <trkpt lat="43.07285" lon="1.25282">
        <ele>574.59997558594</ele>
        <time>2019-07-14T09:57:08.000Z</time>
      </trkpt>
      <trkpt lat="43.07272" lon="1.25288">
        <ele>574.59997558594</ele>
        <time>2019-07-14T09:57:13.000Z</time>
      </trkpt>
      <trkpt lat="43.07269" lon="1.25291">
        <ele>574.59997558594</ele>
        <time>2019-07-14T09:57:14.000Z</time>
      </trkpt>
      <trkpt lat="43.07264" lon="1.25303">
        <ele>574.59997558594</ele>
        <time>2019-07-14T09:57:17.000Z</time>
      </trkpt>
      <trkpt lat="43.07262" lon="1.25307">
        <ele>574.20001220703</ele>
        <time>2019-07-14T09:57:18.000Z</time>
      </trkpt>
      <trkpt lat="43.0726" lon="1.25312">
        <ele>573.79998779297</ele>
        <time>2019-07-14T09:57:19.000Z</time>
      </trkpt>
      <trkpt lat="43.07259" lon="1.25318">
        <ele>573.40002441406</ele>
        <time>2019-07-14T09:57:20.000Z</time>
      </trkpt>
      <trkpt lat="43.07257" lon="1.25325">
        <ele>572.79998779297</ele>
        <time>2019-07-14T09:57:21.000Z</time>
      </trkpt>
      <trkpt lat="43.07256" lon="1.25331">
        <ele>572.40002441406</ele>
        <time>2019-07-14T09:57:22.000Z</time>
      </trkpt>
      <trkpt lat="43.07253" lon="1.25338">
        <ele>572</ele>
        <time>2019-07-14T09:57:23.000Z</time>
      </trkpt>
      <trkpt lat="43.07251" lon="1.25344">
        <ele>571.59997558594</ele>
        <time>2019-07-14T09:57:24.000Z</time>
      </trkpt>
      <trkpt lat="43.07248" lon="1.25349">
        <ele>570.79998779297</ele>
        <time>2019-07-14T09:57:25.000Z</time>
      </trkpt>
      <trkpt lat="43.07245" lon="1.25353">
        <ele>570.40002441406</ele>
        <time>2019-07-14T09:57:26.000Z</time>
      </trkpt>
      <trkpt lat="43.07229" lon="1.2538">
        <ele>570.40002441406</ele>
        <time>2019-07-14T09:57:31.000Z</time>
      </trkpt>
      <trkpt lat="43.07216" lon="1.25403">
        <ele>570.40002441406</ele>
        <time>2019-07-14T09:57:36.000Z</time>
      </trkpt>
      <trkpt lat="43.07204" lon="1.25423">
        <ele>570.40002441406</ele>
        <time>2019-07-14T09:57:40.000Z</time>
      </trkpt>
      <trkpt lat="43.07189" lon="1.25447">
        <ele>570.40002441406</ele>
        <time>2019-07-14T09:57:46.000Z</time>
      </trkpt>
      <trkpt lat="43.07177" lon="1.25466">
        <ele>570.40002441406</ele>
        <time>2019-07-14T09:57:51.000Z</time>
      </trkpt>
      <trkpt lat="43.07167" lon="1.2548">
        <ele>570.79998779297</ele>
        <time>2019-07-14T09:57:56.000Z</time>
      </trkpt>
      <trkpt lat="43.07165" lon="1.25483">
        <ele>571.20001220703</ele>
        <time>2019-07-14T09:57:57.000Z</time>
      </trkpt>
      <trkpt lat="43.07162" lon="1.25486">
        <ele>571.59997558594</ele>
        <time>2019-07-14T09:57:58.000Z</time>
      </trkpt>
      <trkpt lat="43.0716" lon="1.2549">
        <ele>572</ele>
        <time>2019-07-14T09:57:59.000Z</time>
      </trkpt>
      <trkpt lat="43.07158" lon="1.25493">
        <ele>572.59997558594</ele>
        <time>2019-07-14T09:58:00.000Z</time>
      </trkpt>
      <trkpt lat="43.07154" lon="1.25501">
        <ele>572.59997558594</ele>
        <time>2019-07-14T09:58:03.000Z</time>
      </trkpt>
      <trkpt lat="43.0715" lon="1.25507">
        <ele>573</ele>
        <time>2019-07-14T09:58:06.000Z</time>
      </trkpt>
      <trkpt lat="43.0715" lon="1.2551">
        <ele>573.40002441406</ele>
        <time>2019-07-14T09:58:07.000Z</time>
      </trkpt>
      <trkpt lat="43.07148" lon="1.25511">
        <ele>573.79998779297</ele>
        <time>2019-07-14T09:58:08.000Z</time>
      </trkpt>
      <trkpt lat="43.07148" lon="1.25513">
        <ele>574.20001220703</ele>
        <time>2019-07-14T09:58:09.000Z</time>
      </trkpt>
      <trkpt lat="43.07147" lon="1.25516">
        <ele>574.59997558594</ele>
        <time>2019-07-14T09:58:10.000Z</time>
      </trkpt>
      <trkpt lat="43.07144" lon="1.25525">
        <ele>574.59997558594</ele>
        <time>2019-07-14T09:58:14.000Z</time>
      </trkpt>
      <trkpt lat="43.07142" lon="1.25532">
        <ele>575</ele>
        <time>2019-07-14T09:58:18.000Z</time>
      </trkpt>
      <trkpt lat="43.07141" lon="1.25534">
        <ele>575.40002441406</ele>
        <time>2019-07-14T09:58:19.000Z</time>
      </trkpt>
      <trkpt lat="43.07141" lon="1.25535">
        <ele>575.79998779297</ele>
        <time>2019-07-14T09:58:20.000Z</time>
      </trkpt>
      <trkpt lat="43.0714" lon="1.25537">
        <ele>576.20001220703</ele>
        <time>2019-07-14T09:58:21.000Z</time>
      </trkpt>
      <trkpt lat="43.07139" lon="1.25539">
        <ele>576.59997558594</ele>
        <time>2019-07-14T09:58:22.000Z</time>
      </trkpt>
      <trkpt lat="43.07138" lon="1.25545">
        <ele>576.59997558594</ele>
        <time>2019-07-14T09:58:25.000Z</time>
      </trkpt>
      <trkpt lat="43.07137" lon="1.25555">
        <ele>577</ele>
        <time>2019-07-14T09:58:30.000Z</time>
      </trkpt>
      <trkpt lat="43.07137" lon="1.25557">
        <ele>577.40002441406</ele>
        <time>2019-07-14T09:58:31.000Z</time>
      </trkpt>
      <trkpt lat="43.07137" lon="1.25561">
        <ele>577.79998779297</ele>
        <time>2019-07-14T09:58:32.000Z</time>
      </trkpt>
      <trkpt lat="43.07138" lon="1.25564">
        <ele>578.20001220703</ele>
        <time>2019-07-14T09:58:33.000Z</time>
      </trkpt>
      <trkpt lat="43.07138" lon="1.25567">
        <ele>578.79998779297</ele>
        <time>2019-07-14T09:58:34.000Z</time>
      </trkpt>
      <trkpt lat="43.07139" lon="1.25574">
        <ele>578.79998779297</ele>
        <time>2019-07-14T09:58:36.000Z</time>
      </trkpt>
      <trkpt lat="43.07139" lon="1.25585">
        <ele>579.20001220703</ele>
        <time>2019-07-14T09:58:40.000Z</time>
      </trkpt>
      <trkpt lat="43.07139" lon="1.25588">
        <ele>579.59997558594</ele>
        <time>2019-07-14T09:58:41.000Z</time>
      </trkpt>
      <trkpt lat="43.07139" lon="1.2559">
        <ele>580</ele>
        <time>2019-07-14T09:58:42.000Z</time>
      </trkpt>
      <trkpt lat="43.07139" lon="1.25592">
        <ele>580.40002441406</ele>
        <time>2019-07-14T09:58:43.000Z</time>
      </trkpt>
      <trkpt lat="43.07138" lon="1.25594">
        <ele>580.79998779297</ele>
        <time>2019-07-14T09:58:44.000Z</time>
      </trkpt>
      <trkpt lat="43.07138" lon="1.256">
        <ele>580.79998779297</ele>
        <time>2019-07-14T09:58:46.000Z</time>
      </trkpt>
      <trkpt lat="43.07139" lon="1.25615">
        <ele>581.20001220703</ele>
        <time>2019-07-14T09:58:52.000Z</time>
      </trkpt>
      <trkpt lat="43.07139" lon="1.25617">
        <ele>581.79998779297</ele>
        <time>2019-07-14T09:58:53.000Z</time>
      </trkpt>
      <trkpt lat="43.0714" lon="1.25619">
        <ele>582.20001220703</ele>
        <time>2019-07-14T09:58:54.000Z</time>
      </trkpt>
      <trkpt lat="43.07139" lon="1.25621">
        <ele>582.59997558594</ele>
        <time>2019-07-14T09:58:55.000Z</time>
      </trkpt>
      <trkpt lat="43.07139" lon="1.25622">
        <ele>583</ele>
        <time>2019-07-14T09:58:56.000Z</time>
      </trkpt>
      <trkpt lat="43.07139" lon="1.25624">
        <ele>583</ele>
        <time>2019-07-14T09:58:57.000Z</time>
      </trkpt>
      <trkpt lat="43.0714" lon="1.25627">
        <ele>583</ele>
        <time>2019-07-14T09:58:58.000Z</time>
      </trkpt>
      <trkpt lat="43.07143" lon="1.25664">
        <ele>585</ele>
        <time>2019-07-14T09:59:14.000Z</time>
      </trkpt>
      <trkpt lat="43.07144" lon="1.25667">
        <ele>585</ele>
        <time>2019-07-14T09:59:17.000Z</time>
      </trkpt>
      <trkpt lat="43.07144" lon="1.25671">
        <ele>585</ele>
        <time>2019-07-14T09:59:18.000Z</time>
      </trkpt>
      <trkpt lat="43.07145" lon="1.25673">
        <ele>585.40002441406</ele>
        <time>2019-07-14T09:59:19.000Z</time>
      </trkpt>
      <trkpt lat="43.07146" lon="1.25676">
        <ele>586</ele>
        <time>2019-07-14T09:59:20.000Z</time>
      </trkpt>
      <trkpt lat="43.07146" lon="1.25679">
        <ele>586.40002441406</ele>
        <time>2019-07-14T09:59:21.000Z</time>
      </trkpt>
      <trkpt lat="43.07147" lon="1.25682">
        <ele>586.79998779297</ele>
        <time>2019-07-14T09:59:22.000Z</time>
      </trkpt>
      <trkpt lat="43.07147" lon="1.25685">
        <ele>587.20001220703</ele>
        <time>2019-07-14T09:59:23.000Z</time>
      </trkpt>
      <trkpt lat="43.07151" lon="1.25697">
        <ele>587.20001220703</ele>
        <time>2019-07-14T09:59:28.000Z</time>
      </trkpt>
      <trkpt lat="43.07152" lon="1.25699">
        <ele>587.20001220703</ele>
        <time>2019-07-14T09:59:29.000Z</time>
      </trkpt>
      <trkpt lat="43.07157" lon="1.25707">
        <ele>589.20001220703</ele>
        <time>2019-07-14T09:59:41.000Z</time>
      </trkpt>
      <trkpt lat="43.07159" lon="1.25707">
        <ele>589.20001220703</ele>
        <time>2019-07-14T09:59:43.000Z</time>
      </trkpt>
      <trkpt lat="43.0716" lon="1.25707">
        <ele>589.59997558594</ele>
        <time>2019-07-14T09:59:44.000Z</time>
      </trkpt>
      <trkpt lat="43.07161" lon="1.25707">
        <ele>590.20001220703</ele>
        <time>2019-07-14T09:59:45.000Z</time>
      </trkpt>
      <trkpt lat="43.07162" lon="1.25706">
        <ele>590.59997558594</ele>
        <time>2019-07-14T09:59:46.000Z</time>
      </trkpt>
      <trkpt lat="43.07164" lon="1.25706">
        <ele>591</ele>
        <time>2019-07-14T09:59:47.000Z</time>
      </trkpt>
      <trkpt lat="43.07165" lon="1.25706">
        <ele>591.40002441406</ele>
        <time>2019-07-14T09:59:48.000Z</time>
      </trkpt>
      <trkpt lat="43.07177" lon="1.2571">
        <ele>591.40002441406</ele>
        <time>2019-07-14T09:59:54.000Z</time>
      </trkpt>
      <trkpt lat="43.0718" lon="1.25711">
        <ele>592</ele>
        <time>2019-07-14T09:59:56.000Z</time>
      </trkpt>
      <trkpt lat="43.07183" lon="1.25712">
        <ele>592.40002441406</ele>
        <time>2019-07-14T09:59:57.000Z</time>
      </trkpt>
      <trkpt lat="43.07185" lon="1.25713">
        <ele>592.79998779297</ele>
        <time>2019-07-14T09:59:58.000Z</time>
      </trkpt>
      <trkpt lat="43.07187" lon="1.25713">
        <ele>593.20001220703</ele>
        <time>2019-07-14T09:59:59.000Z</time>
      </trkpt>
      <trkpt lat="43.07189" lon="1.25714">
        <ele>593.79998779297</ele>
        <time>2019-07-14T10:00:00.000Z</time>
      </trkpt>
      <trkpt lat="43.07199" lon="1.25723">
        <ele>593.79998779297</ele>
        <time>2019-07-14T10:00:03.000Z</time>
      </trkpt>
      <trkpt lat="43.07207" lon="1.25729">
        <ele>593.79998779297</ele>
        <time>2019-07-14T10:00:05.000Z</time>
      </trkpt>
      <trkpt lat="43.07216" lon="1.25732">
        <ele>594.20001220703</ele>
        <time>2019-07-14T10:00:08.000Z</time>
      </trkpt>
      <trkpt lat="43.07218" lon="1.25732">
        <ele>594.59997558594</ele>
        <time>2019-07-14T10:00:09.000Z</time>
      </trkpt>
      <trkpt lat="43.0722" lon="1.25732">
        <ele>595</ele>
        <time>2019-07-14T10:00:10.000Z</time>
      </trkpt>
      <trkpt lat="43.07222" lon="1.25733">
        <ele>595.40002441406</ele>
        <time>2019-07-14T10:00:11.000Z</time>
      </trkpt>
      <trkpt lat="43.07224" lon="1.25733">
        <ele>595.79998779297</ele>
        <time>2019-07-14T10:00:12.000Z</time>
      </trkpt>
      <trkpt lat="43.07232" lon="1.2573">
        <ele>595.79998779297</ele>
        <time>2019-07-14T10:00:17.000Z</time>
      </trkpt>
      <trkpt lat="43.07238" lon="1.2573">
        <ele>596.20001220703</ele>
        <time>2019-07-14T10:00:20.000Z</time>
      </trkpt>
      <trkpt lat="43.07239" lon="1.2573">
        <ele>596.59997558594</ele>
        <time>2019-07-14T10:00:21.000Z</time>
      </trkpt>
      <trkpt lat="43.07241" lon="1.25729">
        <ele>597</ele>
        <time>2019-07-14T10:00:22.000Z</time>
      </trkpt>
      <trkpt lat="43.07243" lon="1.25728">
        <ele>597.40002441406</ele>
        <time>2019-07-14T10:00:23.000Z</time>
      </trkpt>
      <trkpt lat="43.07245" lon="1.25728">
        <ele>598</ele>
        <time>2019-07-14T10:00:24.000Z</time>
      </trkpt>
      <trkpt lat="43.07254" lon="1.25726">
        <ele>598</ele>
        <time>2019-07-14T10:00:28.000Z</time>
      </trkpt>
      <trkpt lat="43.07262" lon="1.25723">
        <ele>598.40002441406</ele>
        <time>2019-07-14T10:00:32.000Z</time>
      </trkpt>
      <trkpt lat="43.07264" lon="1.25722">
        <ele>598.79998779297</ele>
        <time>2019-07-14T10:00:33.000Z</time>
      </trkpt>
      <trkpt lat="43.07265" lon="1.25722">
        <ele>599.20001220703</ele>
        <time>2019-07-14T10:00:34.000Z</time>
      </trkpt>
      <trkpt lat="43.07267" lon="1.25721">
        <ele>599.59997558594</ele>
        <time>2019-07-14T10:00:35.000Z</time>
      </trkpt>
      <trkpt lat="43.07269" lon="1.2572">
        <ele>600</ele>
        <time>2019-07-14T10:00:36.000Z</time>
      </trkpt>
      <trkpt lat="43.07274" lon="1.25717">
        <ele>600</ele>
        <time>2019-07-14T10:00:40.000Z</time>
      </trkpt>
      <trkpt lat="43.07276" lon="1.25716">
        <ele>600</ele>
        <time>2019-07-14T10:00:41.000Z</time>
      </trkpt>
      <trkpt lat="43.07282" lon="1.25716">
        <ele>600</ele>
        <time>2019-07-14T10:00:45.000Z</time>
      </trkpt>
      <trkpt lat="43.07287" lon="1.25714">
        <ele>600.40002441406</ele>
        <time>2019-07-14T10:00:47.000Z</time>
      </trkpt>
      <trkpt lat="43.07289" lon="1.25714">
        <ele>600.79998779297</ele>
        <time>2019-07-14T10:00:48.000Z</time>
      </trkpt>
      <trkpt lat="43.07292" lon="1.25714">
        <ele>601.20001220703</ele>
        <time>2019-07-14T10:00:49.000Z</time>
      </trkpt>
      <trkpt lat="43.07293" lon="1.25713">
        <ele>601.59997558594</ele>
        <time>2019-07-14T10:00:50.000Z</time>
      </trkpt>
      <trkpt lat="43.07295" lon="1.25712">
        <ele>602</ele>
        <time>2019-07-14T10:00:51.000Z</time>
      </trkpt>
      <trkpt lat="43.07303" lon="1.2571">
        <ele>602</ele>
        <time>2019-07-14T10:00:56.000Z</time>
      </trkpt>
      <trkpt lat="43.07309" lon="1.25709">
        <ele>602.40002441406</ele>
        <time>2019-07-14T10:01:00.000Z</time>
      </trkpt>
      <trkpt lat="43.0731" lon="1.25709">
        <ele>602.79998779297</ele>
        <time>2019-07-14T10:01:01.000Z</time>
      </trkpt>
      <trkpt lat="43.07312" lon="1.25708">
        <ele>603.40002441406</ele>
        <time>2019-07-14T10:01:02.000Z</time>
      </trkpt>
      <trkpt lat="43.07314" lon="1.25708">
        <ele>603.79998779297</ele>
        <time>2019-07-14T10:01:03.000Z</time>
      </trkpt>
      <trkpt lat="43.07316" lon="1.25708">
        <ele>604.20001220703</ele>
        <time>2019-07-14T10:01:04.000Z</time>
      </trkpt>
      <trkpt lat="43.07327" lon="1.25711">
        <ele>604.20001220703</ele>
        <time>2019-07-14T10:01:09.000Z</time>
      </trkpt>
      <trkpt lat="43.07335" lon="1.25716">
        <ele>604.59997558594</ele>
        <time>2019-07-14T10:01:13.000Z</time>
      </trkpt>
      <trkpt lat="43.07337" lon="1.25718">
        <ele>605</ele>
        <time>2019-07-14T10:01:14.000Z</time>
      </trkpt>
      <trkpt lat="43.07339" lon="1.25718">
        <ele>605.40002441406</ele>
        <time>2019-07-14T10:01:15.000Z</time>
      </trkpt>
      <trkpt lat="43.07341" lon="1.2572">
        <ele>605.79998779297</ele>
        <time>2019-07-14T10:01:16.000Z</time>
      </trkpt>
      <trkpt lat="43.07344" lon="1.25722">
        <ele>606.20001220703</ele>
        <time>2019-07-14T10:01:17.000Z</time>
      </trkpt>
      <trkpt lat="43.07348" lon="1.25724">
        <ele>606.20001220703</ele>
        <time>2019-07-14T10:01:19.000Z</time>
      </trkpt>
      <trkpt lat="43.07359" lon="1.25737">
        <ele>606.20001220703</ele>
        <time>2019-07-14T10:01:24.000Z</time>
      </trkpt>
      <trkpt lat="43.07369" lon="1.25754">
        <ele>606.20001220703</ele>
        <time>2019-07-14T10:01:30.000Z</time>
      </trkpt>
      <trkpt lat="43.07372" lon="1.2576">
        <ele>606.59997558594</ele>
        <time>2019-07-14T10:01:32.000Z</time>
      </trkpt>
      <trkpt lat="43.07373" lon="1.25762">
        <ele>607</ele>
        <time>2019-07-14T10:01:33.000Z</time>
      </trkpt>
      <trkpt lat="43.07374" lon="1.25765">
        <ele>607.79998779297</ele>
        <time>2019-07-14T10:01:34.000Z</time>
      </trkpt>
      <trkpt lat="43.07375" lon="1.25769">
        <ele>608.20001220703</ele>
        <time>2019-07-14T10:01:35.000Z</time>
      </trkpt>
      <trkpt lat="43.07377" lon="1.25779">
        <ele>608.20001220703</ele>
        <time>2019-07-14T10:01:39.000Z</time>
      </trkpt>
      <trkpt lat="43.07381" lon="1.25798">
        <ele>608.20001220703</ele>
        <time>2019-07-14T10:01:46.000Z</time>
      </trkpt>
      <trkpt lat="43.07382" lon="1.25801">
        <ele>608.59997558594</ele>
        <time>2019-07-14T10:01:47.000Z</time>
      </trkpt>
      <trkpt lat="43.07382" lon="1.25805">
        <ele>609.20001220703</ele>
        <time>2019-07-14T10:01:48.000Z</time>
      </trkpt>
      <trkpt lat="43.07382" lon="1.25807">
        <ele>609.59997558594</ele>
        <time>2019-07-14T10:01:49.000Z</time>
      </trkpt>
      <trkpt lat="43.07382" lon="1.2581">
        <ele>610</ele>
        <time>2019-07-14T10:01:50.000Z</time>
      </trkpt>
      <trkpt lat="43.07382" lon="1.25813">
        <ele>610.40002441406</ele>
        <time>2019-07-14T10:01:51.000Z</time>
      </trkpt>
      <trkpt lat="43.07383" lon="1.25822">
        <ele>610.40002441406</ele>
        <time>2019-07-14T10:01:54.000Z</time>
      </trkpt>
      <trkpt lat="43.07382" lon="1.25828">
        <ele>610.40002441406</ele>
        <time>2019-07-14T10:01:57.000Z</time>
      </trkpt>
      <trkpt lat="43.07378" lon="1.25839">
        <ele>610.40002441406</ele>
        <time>2019-07-14T10:02:03.000Z</time>
      </trkpt>
      <trkpt lat="43.07377" lon="1.25841">
        <ele>610.79998779297</ele>
        <time>2019-07-14T10:02:04.000Z</time>
      </trkpt>
      <trkpt lat="43.07377" lon="1.25845">
        <ele>611.40002441406</ele>
        <time>2019-07-14T10:02:05.000Z</time>
      </trkpt>
      <trkpt lat="43.07377" lon="1.25848">
        <ele>611.79998779297</ele>
        <time>2019-07-14T10:02:06.000Z</time>
      </trkpt>
      <trkpt lat="43.07377" lon="1.25852">
        <ele>612.20001220703</ele>
        <time>2019-07-14T10:02:07.000Z</time>
      </trkpt>
      <trkpt lat="43.07376" lon="1.25855">
        <ele>612.59997558594</ele>
        <time>2019-07-14T10:02:08.000Z</time>
      </trkpt>
      <trkpt lat="43.07377" lon="1.25864">
        <ele>612.59997558594</ele>
        <time>2019-07-14T10:02:10.000Z</time>
      </trkpt>
      <trkpt lat="43.07377" lon="1.25883">
        <ele>612.59997558594</ele>
        <time>2019-07-14T10:02:16.000Z</time>
      </trkpt>
      <trkpt lat="43.07377" lon="1.25895">
        <ele>613</ele>
        <time>2019-07-14T10:02:21.000Z</time>
      </trkpt>
      <trkpt lat="43.07377" lon="1.25898">
        <ele>613.40002441406</ele>
        <time>2019-07-14T10:02:22.000Z</time>
      </trkpt>
      <trkpt lat="43.07377" lon="1.25901">
        <ele>614.40002441406</ele>
        <time>2019-07-14T10:02:23.000Z</time>
      </trkpt>
      <trkpt lat="43.07377" lon="1.25904">
        <ele>614.79998779297</ele>
        <time>2019-07-14T10:02:24.000Z</time>
      </trkpt>
      <trkpt lat="43.07377" lon="1.2591">
        <ele>614.79998779297</ele>
        <time>2019-07-14T10:02:27.000Z</time>
      </trkpt>
      <trkpt lat="43.07381" lon="1.2592">
        <ele>614.79998779297</ele>
        <time>2019-07-14T10:02:29.000Z</time>
      </trkpt>
      <trkpt lat="43.07386" lon="1.25932">
        <ele>614.79998779297</ele>
        <time>2019-07-14T10:02:31.000Z</time>
      </trkpt>
      <trkpt lat="43.07395" lon="1.25951">
        <ele>614.79998779297</ele>
        <time>2019-07-14T10:02:35.000Z</time>
      </trkpt>
      <trkpt lat="43.07398" lon="1.25955">
        <ele>615.20001220703</ele>
        <time>2019-07-14T10:02:36.000Z</time>
      </trkpt>
      <trkpt lat="43.074" lon="1.25959">
        <ele>615.59997558594</ele>
        <time>2019-07-14T10:02:37.000Z</time>
      </trkpt>
      <trkpt lat="43.07402" lon="1.25963">
        <ele>616</ele>
        <time>2019-07-14T10:02:38.000Z</time>
      </trkpt>
      <trkpt lat="43.07404" lon="1.25966">
        <ele>616.40002441406</ele>
        <time>2019-07-14T10:02:39.000Z</time>
      </trkpt>
      <trkpt lat="43.07406" lon="1.25969">
        <ele>616.79998779297</ele>
        <time>2019-07-14T10:02:40.000Z</time>
      </trkpt>
      <trkpt lat="43.07407" lon="1.25971">
        <ele>616.79998779297</ele>
        <time>2019-07-14T10:02:42.000Z</time>
      </trkpt>
      <trkpt lat="43.07415" lon="1.25987">
        <ele>616.79998779297</ele>
        <time>2019-07-14T10:02:48.000Z</time>
      </trkpt>
      <trkpt lat="43.0742" lon="1.25997">
        <ele>617.20001220703</ele>
        <time>2019-07-14T10:02:52.000Z</time>
      </trkpt>
      <trkpt lat="43.0742" lon="1.26">
        <ele>617.59997558594</ele>
        <time>2019-07-14T10:02:53.000Z</time>
      </trkpt>
      <trkpt lat="43.07421" lon="1.26003">
        <ele>618</ele>
        <time>2019-07-14T10:02:54.000Z</time>
      </trkpt>
      <trkpt lat="43.07422" lon="1.26005">
        <ele>618.40002441406</ele>
        <time>2019-07-14T10:02:55.000Z</time>
      </trkpt>
      <trkpt lat="43.07422" lon="1.26008">
        <ele>618.79998779297</ele>
        <time>2019-07-14T10:02:56.000Z</time>
      </trkpt>
      <trkpt lat="43.07422" lon="1.26018">
        <ele>618.79998779297</ele>
        <time>2019-07-14T10:02:59.000Z</time>
      </trkpt>
      <trkpt lat="43.07422" lon="1.26023">
        <ele>618.79998779297</ele>
        <time>2019-07-14T10:03:01.000Z</time>
      </trkpt>
      <trkpt lat="43.07422" lon="1.26039">
        <ele>618.79998779297</ele>
        <time>2019-07-14T10:03:06.000Z</time>
      </trkpt>
      <trkpt lat="43.07421" lon="1.26047">
        <ele>619.20001220703</ele>
        <time>2019-07-14T10:03:09.000Z</time>
      </trkpt>
      <trkpt lat="43.0742" lon="1.26049">
        <ele>619.79998779297</ele>
        <time>2019-07-14T10:03:10.000Z</time>
      </trkpt>
      <trkpt lat="43.07421" lon="1.26054">
        <ele>620.20001220703</ele>
        <time>2019-07-14T10:03:11.000Z</time>
      </trkpt>
      <trkpt lat="43.07422" lon="1.26057">
        <ele>621</ele>
        <time>2019-07-14T10:03:12.000Z</time>
      </trkpt>
      <trkpt lat="43.07426" lon="1.26073">
        <ele>621</ele>
        <time>2019-07-14T10:03:17.000Z</time>
      </trkpt>
      <trkpt lat="43.0743" lon="1.2608">
        <ele>621</ele>
        <time>2019-07-14T10:03:19.000Z</time>
      </trkpt>
      <trkpt lat="43.07437" lon="1.26089">
        <ele>621</ele>
        <time>2019-07-14T10:03:25.000Z</time>
      </trkpt>
      <trkpt lat="43.0744" lon="1.26085">
        <ele>623</ele>
        <time>2019-07-14T10:05:46.000Z</time>
      </trkpt>
      <trkpt lat="43.0744" lon="1.26081">
        <ele>623</ele>
        <time>2019-07-14T10:05:48.000Z</time>
      </trkpt>
      <trkpt lat="43.07439" lon="1.26075">
        <ele>623.40002441406</ele>
        <time>2019-07-14T10:05:52.000Z</time>
      </trkpt>
      <trkpt lat="43.0744" lon="1.26073">
        <ele>623.79998779297</ele>
        <time>2019-07-14T10:05:53.000Z</time>
      </trkpt>
      <trkpt lat="43.07441" lon="1.26071">
        <ele>624.20001220703</ele>
        <time>2019-07-14T10:05:54.000Z</time>
      </trkpt>
      <trkpt lat="43.07442" lon="1.26069">
        <ele>624.59997558594</ele>
        <time>2019-07-14T10:05:55.000Z</time>
      </trkpt>
      <trkpt lat="43.07442" lon="1.26067">
        <ele>625</ele>
        <time>2019-07-14T10:05:56.000Z</time>
      </trkpt>
      <trkpt lat="43.07443" lon="1.26062">
        <ele>625.59997558594</ele>
        <time>2019-07-14T10:05:59.000Z</time>
      </trkpt>
      <trkpt lat="43.07444" lon="1.2606">
        <ele>626</ele>
        <time>2019-07-14T10:06:00.000Z</time>
      </trkpt>
      <trkpt lat="43.07445" lon="1.26058">
        <ele>626.40002441406</ele>
        <time>2019-07-14T10:06:01.000Z</time>
      </trkpt>
      <trkpt lat="43.07445" lon="1.26056">
        <ele>626.79998779297</ele>
        <time>2019-07-14T10:06:02.000Z</time>
      </trkpt>
      <trkpt lat="43.07446" lon="1.26054">
        <ele>627.20001220703</ele>
        <time>2019-07-14T10:06:03.000Z</time>
      </trkpt>
      <trkpt lat="43.07449" lon="1.26048">
        <ele>627.59997558594</ele>
        <time>2019-07-14T10:06:06.000Z</time>
      </trkpt>
      <trkpt lat="43.0745" lon="1.26045">
        <ele>628</ele>
        <time>2019-07-14T10:06:07.000Z</time>
      </trkpt>
      <trkpt lat="43.07451" lon="1.26043">
        <ele>628.40002441406</ele>
        <time>2019-07-14T10:06:08.000Z</time>
      </trkpt>
      <trkpt lat="43.07452" lon="1.26041">
        <ele>629</ele>
        <time>2019-07-14T10:06:09.000Z</time>
      </trkpt>
      <trkpt lat="43.07452" lon="1.26039">
        <ele>629.40002441406</ele>
        <time>2019-07-14T10:06:10.000Z</time>
      </trkpt>
      <trkpt lat="43.07454" lon="1.26032">
        <ele>629.40002441406</ele>
        <time>2019-07-14T10:06:13.000Z</time>
      </trkpt>
      <trkpt lat="43.07456" lon="1.26029">
        <ele>629.40002441406</ele>
        <time>2019-07-14T10:06:15.000Z</time>
      </trkpt>
      <trkpt lat="43.07458" lon="1.26025">
        <ele>629.79998779297</ele>
        <time>2019-07-14T10:06:17.000Z</time>
      </trkpt>
      <trkpt lat="43.07459" lon="1.26023">
        <ele>630.20001220703</ele>
        <time>2019-07-14T10:06:18.000Z</time>
      </trkpt>
      <trkpt lat="43.07459" lon="1.26021">
        <ele>630.59997558594</ele>
        <time>2019-07-14T10:06:19.000Z</time>
      </trkpt>
      <trkpt lat="43.0746" lon="1.26019">
        <ele>631.20001220703</ele>
        <time>2019-07-14T10:06:20.000Z</time>
      </trkpt>
      <trkpt lat="43.07461" lon="1.26017">
        <ele>631.59997558594</ele>
        <time>2019-07-14T10:06:21.000Z</time>
      </trkpt>
      <trkpt lat="43.07465" lon="1.26009">
        <ele>631.59997558594</ele>
        <time>2019-07-14T10:06:26.000Z</time>
      </trkpt>
      <trkpt lat="43.07466" lon="1.26008">
        <ele>632</ele>
        <time>2019-07-14T10:06:27.000Z</time>
      </trkpt>
      <trkpt lat="43.07467" lon="1.26006">
        <ele>632.59997558594</ele>
        <time>2019-07-14T10:06:28.000Z</time>
      </trkpt>
      <trkpt lat="43.07468" lon="1.26005">
        <ele>633</ele>
        <time>2019-07-14T10:06:29.000Z</time>
      </trkpt>
      <trkpt lat="43.07469" lon="1.26003">
        <ele>633.40002441406</ele>
        <time>2019-07-14T10:06:30.000Z</time>
      </trkpt>
      <trkpt lat="43.0747" lon="1.26001">
        <ele>634</ele>
        <time>2019-07-14T10:06:31.000Z</time>
      </trkpt>
      <trkpt lat="43.07472" lon="1.25997">
        <ele>634</ele>
        <time>2019-07-14T10:06:34.000Z</time>
      </trkpt>
      <trkpt lat="43.07473" lon="1.25995">
        <ele>634.40002441406</ele>
        <time>2019-07-14T10:06:35.000Z</time>
      </trkpt>
      <trkpt lat="43.07474" lon="1.25994">
        <ele>634.79998779297</ele>
        <time>2019-07-14T10:06:36.000Z</time>
      </trkpt>
      <trkpt lat="43.07475" lon="1.25993">
        <ele>635.20001220703</ele>
        <time>2019-07-14T10:06:37.000Z</time>
      </trkpt>
      <trkpt lat="43.07477" lon="1.25991">
        <ele>635.59997558594</ele>
        <time>2019-07-14T10:06:38.000Z</time>
      </trkpt>
      <trkpt lat="43.07478" lon="1.25989">
        <ele>636</ele>
        <time>2019-07-14T10:06:39.000Z</time>
      </trkpt>
      <trkpt lat="43.07479" lon="1.25988">
        <ele>636</ele>
        <time>2019-07-14T10:06:40.000Z</time>
      </trkpt>
      <trkpt lat="43.07487" lon="1.2598">
        <ele>636</ele>
        <time>2019-07-14T10:06:46.000Z</time>
      </trkpt>
      <trkpt lat="43.07488" lon="1.25979">
        <ele>636.40002441406</ele>
        <time>2019-07-14T10:06:47.000Z</time>
      </trkpt>
      <trkpt lat="43.07489" lon="1.25978">
        <ele>636.79998779297</ele>
        <time>2019-07-14T10:06:48.000Z</time>
      </trkpt>
      <trkpt lat="43.07491" lon="1.25976">
        <ele>637.20001220703</ele>
        <time>2019-07-14T10:06:49.000Z</time>
      </trkpt>
      <trkpt lat="43.07493" lon="1.25975">
        <ele>637.59997558594</ele>
        <time>2019-07-14T10:06:50.000Z</time>
      </trkpt>
      <trkpt lat="43.07494" lon="1.25973">
        <ele>638</ele>
        <time>2019-07-14T10:06:51.000Z</time>
      </trkpt>
      <trkpt lat="43.07503" lon="1.25959">
        <ele>638</ele>
        <time>2019-07-14T10:06:57.000Z</time>
      </trkpt>
      <trkpt lat="43.07515" lon="1.25944">
        <ele>638</ele>
        <time>2019-07-14T10:07:02.000Z</time>
      </trkpt>
      <trkpt lat="43.07522" lon="1.25935">
        <ele>637.59997558594</ele>
        <time>2019-07-14T10:07:04.000Z</time>
      </trkpt>
      <trkpt lat="43.07525" lon="1.25931">
        <ele>637</ele>
        <time>2019-07-14T10:07:05.000Z</time>
      </trkpt>
      <trkpt lat="43.07529" lon="1.25928">
        <ele>636.59997558594</ele>
        <time>2019-07-14T10:07:06.000Z</time>
      </trkpt>
      <trkpt lat="43.07534" lon="1.25926">
        <ele>636</ele>
        <time>2019-07-14T10:07:07.000Z</time>
      </trkpt>
      <trkpt lat="43.07539" lon="1.25925">
        <ele>635.59997558594</ele>
        <time>2019-07-14T10:07:08.000Z</time>
      </trkpt>
      <trkpt lat="43.07543" lon="1.25923">
        <ele>635</ele>
        <time>2019-07-14T10:07:09.000Z</time>
      </trkpt>
      <trkpt lat="43.07546" lon="1.25925">
        <ele>634.59997558594</ele>
        <time>2019-07-14T10:07:10.000Z</time>
      </trkpt>
      <trkpt lat="43.07549" lon="1.25926">
        <ele>634</ele>
        <time>2019-07-14T10:07:11.000Z</time>
      </trkpt>
      <trkpt lat="43.07553" lon="1.25928">
        <ele>633.40002441406</ele>
        <time>2019-07-14T10:07:12.000Z</time>
      </trkpt>
      <trkpt lat="43.07556" lon="1.2593">
        <ele>633.40002441406</ele>
        <time>2019-07-14T10:07:13.000Z</time>
      </trkpt>
      <trkpt lat="43.07575" lon="1.25946">
        <ele>633.40002441406</ele>
        <time>2019-07-14T10:07:19.000Z</time>
      </trkpt>
      <trkpt lat="43.07599" lon="1.25961">
        <ele>633.40002441406</ele>
        <time>2019-07-14T10:07:25.000Z</time>
      </trkpt>
      <trkpt lat="43.0762" lon="1.25982">
        <ele>633.40002441406</ele>
        <time>2019-07-14T10:07:30.000Z</time>
      </trkpt>
      <trkpt lat="43.07629" lon="1.25995">
        <ele>633</ele>
        <time>2019-07-14T10:07:33.000Z</time>
      </trkpt>
      <trkpt lat="43.07632" lon="1.26">
        <ele>632.40002441406</ele>
        <time>2019-07-14T10:07:34.000Z</time>
      </trkpt>
      <trkpt lat="43.07635" lon="1.26003">
        <ele>631.59997558594</ele>
        <time>2019-07-14T10:07:35.000Z</time>
      </trkpt>
      <trkpt lat="43.07639" lon="1.26006">
        <ele>630.79998779297</ele>
        <time>2019-07-14T10:07:36.000Z</time>
      </trkpt>
      <trkpt lat="43.07642" lon="1.2601">
        <ele>629.79998779297</ele>
        <time>2019-07-14T10:07:37.000Z</time>
      </trkpt>
      <trkpt lat="43.07645" lon="1.26014">
        <ele>629</ele>
        <time>2019-07-14T10:07:38.000Z</time>
      </trkpt>
      <trkpt lat="43.07649" lon="1.2602">
        <ele>628.20001220703</ele>
        <time>2019-07-14T10:07:39.000Z</time>
      </trkpt>
      <trkpt lat="43.0766" lon="1.26033">
        <ele>628.20001220703</ele>
        <time>2019-07-14T10:07:42.000Z</time>
      </trkpt>
      <trkpt lat="43.0767" lon="1.26043">
        <ele>628.20001220703</ele>
        <time>2019-07-14T10:07:44.000Z</time>
      </trkpt>
      <trkpt lat="43.07688" lon="1.26061">
        <ele>628.20001220703</ele>
        <time>2019-07-14T10:07:48.000Z</time>
      </trkpt>
      <trkpt lat="43.07689" lon="1.26065">
        <ele>628.20001220703</ele>
        <time>2019-07-14T10:07:49.000Z</time>
      </trkpt>
      <trkpt lat="43.07697" lon="1.26082">
        <ele>628.59997558594</ele>
        <time>2019-07-14T10:07:51.000Z</time>
      </trkpt>
      <trkpt lat="43.07704" lon="1.26091">
        <ele>629.20001220703</ele>
        <time>2019-07-14T10:07:52.000Z</time>
      </trkpt>
      <trkpt lat="43.07707" lon="1.26098">
        <ele>629.59997558594</ele>
        <time>2019-07-14T10:07:53.000Z</time>
      </trkpt>
      <trkpt lat="43.07707" lon="1.26101">
        <ele>630.20001220703</ele>
        <time>2019-07-14T10:07:54.000Z</time>
      </trkpt>
      <trkpt lat="43.07707" lon="1.26104">
        <ele>630.79998779297</ele>
        <time>2019-07-14T10:07:55.000Z</time>
      </trkpt>
      <trkpt lat="43.07706" lon="1.26106">
        <ele>631.40002441406</ele>
        <time>2019-07-14T10:07:56.000Z</time>
      </trkpt>
      <trkpt lat="43.07705" lon="1.26109">
        <ele>631.79998779297</ele>
        <time>2019-07-14T10:07:57.000Z</time>
      </trkpt>
      <trkpt lat="43.07704" lon="1.26111">
        <ele>632.59997558594</ele>
        <time>2019-07-14T10:07:58.000Z</time>
      </trkpt>
      <trkpt lat="43.07703" lon="1.26113">
        <ele>633.20001220703</ele>
        <time>2019-07-14T10:07:59.000Z</time>
      </trkpt>
      <trkpt lat="43.07702" lon="1.26116">
        <ele>633.79998779297</ele>
        <time>2019-07-14T10:08:00.000Z</time>
      </trkpt>
      <trkpt lat="43.07701" lon="1.26118">
        <ele>634.40002441406</ele>
        <time>2019-07-14T10:08:01.000Z</time>
      </trkpt>
      <trkpt lat="43.07701" lon="1.26121">
        <ele>635</ele>
        <time>2019-07-14T10:08:02.000Z</time>
      </trkpt>
      <trkpt lat="43.077" lon="1.26123">
        <ele>635.79998779297</ele>
        <time>2019-07-14T10:08:03.000Z</time>
      </trkpt>
      <trkpt lat="43.07699" lon="1.26126">
        <ele>636.40002441406</ele>
        <time>2019-07-14T10:08:04.000Z</time>
      </trkpt>
      <trkpt lat="43.07698" lon="1.26128">
        <ele>637</ele>
        <time>2019-07-14T10:08:05.000Z</time>
      </trkpt>
      <trkpt lat="43.07697" lon="1.2613">
        <ele>637.59997558594</ele>
        <time>2019-07-14T10:08:06.000Z</time>
      </trkpt>
      <trkpt lat="43.07696" lon="1.26132">
        <ele>638.20001220703</ele>
        <time>2019-07-14T10:08:07.000Z</time>
      </trkpt>
      <trkpt lat="43.07695" lon="1.26134">
        <ele>638.79998779297</ele>
        <time>2019-07-14T10:08:08.000Z</time>
      </trkpt>
      <trkpt lat="43.07693" lon="1.26136">
        <ele>639.40002441406</ele>
        <time>2019-07-14T10:08:09.000Z</time>
      </trkpt>
      <trkpt lat="43.07692" lon="1.26137">
        <ele>640.59997558594</ele>
        <time>2019-07-14T10:08:10.000Z</time>
      </trkpt>
      <trkpt lat="43.07691" lon="1.26139">
        <ele>641.20001220703</ele>
        <time>2019-07-14T10:08:11.000Z</time>
      </trkpt>
      <trkpt lat="43.0769" lon="1.26141">
        <ele>641.79998779297</ele>
        <time>2019-07-14T10:08:12.000Z</time>
      </trkpt>
      <trkpt lat="43.0769" lon="1.26144">
        <ele>642.40002441406</ele>
        <time>2019-07-14T10:08:13.000Z</time>
      </trkpt>
      <trkpt lat="43.07689" lon="1.26147">
        <ele>642.79998779297</ele>
        <time>2019-07-14T10:08:14.000Z</time>
      </trkpt>
      <trkpt lat="43.07688" lon="1.26148">
        <ele>643.40002441406</ele>
        <time>2019-07-14T10:08:15.000Z</time>
      </trkpt>
      <trkpt lat="43.07687" lon="1.2615">
        <ele>643.79998779297</ele>
        <time>2019-07-14T10:08:16.000Z</time>
      </trkpt>
      <trkpt lat="43.07685" lon="1.26152">
        <ele>644.40002441406</ele>
        <time>2019-07-14T10:08:17.000Z</time>
      </trkpt>
      <trkpt lat="43.07684" lon="1.26154">
        <ele>644.79998779297</ele>
        <time>2019-07-14T10:08:18.000Z</time>
      </trkpt>
      <trkpt lat="43.07684" lon="1.26156">
        <ele>645.40002441406</ele>
        <time>2019-07-14T10:08:19.000Z</time>
      </trkpt>
      <trkpt lat="43.07683" lon="1.26158">
        <ele>645.79998779297</ele>
        <time>2019-07-14T10:08:20.000Z</time>
      </trkpt>
      <trkpt lat="43.07682" lon="1.2616">
        <ele>646.40002441406</ele>
        <time>2019-07-14T10:08:21.000Z</time>
      </trkpt>
      <trkpt lat="43.07679" lon="1.26164">
        <ele>646.79998779297</ele>
        <time>2019-07-14T10:08:23.000Z</time>
      </trkpt>
      <trkpt lat="43.07678" lon="1.26166">
        <ele>647.40002441406</ele>
        <time>2019-07-14T10:08:24.000Z</time>
      </trkpt>
      <trkpt lat="43.07677" lon="1.26167">
        <ele>647.79998779297</ele>
        <time>2019-07-14T10:08:25.000Z</time>
      </trkpt>
      <trkpt lat="43.07676" lon="1.26169">
        <ele>648.20001220703</ele>
        <time>2019-07-14T10:08:26.000Z</time>
      </trkpt>
      <trkpt lat="43.07675" lon="1.2617">
        <ele>648.79998779297</ele>
        <time>2019-07-14T10:08:27.000Z</time>
      </trkpt>
      <trkpt lat="43.07672" lon="1.26171">
        <ele>649.20001220703</ele>
        <time>2019-07-14T10:08:28.000Z</time>
      </trkpt>
      <trkpt lat="43.07671" lon="1.26172">
        <ele>649.59997558594</ele>
        <time>2019-07-14T10:08:29.000Z</time>
      </trkpt>
      <trkpt lat="43.0767" lon="1.26173">
        <ele>650</ele>
        <time>2019-07-14T10:08:30.000Z</time>
      </trkpt>
      <trkpt lat="43.07668" lon="1.26175">
        <ele>650.40002441406</ele>
        <time>2019-07-14T10:08:31.000Z</time>
      </trkpt>
      <trkpt lat="43.07666" lon="1.26175">
        <ele>650.79998779297</ele>
        <time>2019-07-14T10:08:32.000Z</time>
      </trkpt>
      <trkpt lat="43.07661" lon="1.26176">
        <ele>650.79998779297</ele>
        <time>2019-07-14T10:08:34.000Z</time>
      </trkpt>
      <trkpt lat="43.07655" lon="1.26176">
        <ele>650.79998779297</ele>
        <time>2019-07-14T10:08:36.000Z</time>
      </trkpt>
      <trkpt lat="43.07641" lon="1.26173">
        <ele>650.79998779297</ele>
        <time>2019-07-14T10:08:41.000Z</time>
      </trkpt>
      <trkpt lat="43.07625" lon="1.2617">
        <ele>650.79998779297</ele>
        <time>2019-07-14T10:08:47.000Z</time>
      </trkpt>
      <trkpt lat="43.07611" lon="1.26169">
        <ele>650.79998779297</ele>
        <time>2019-07-14T10:08:52.000Z</time>
      </trkpt>
      <trkpt lat="43.07598" lon="1.26165">
        <ele>650.79998779297</ele>
        <time>2019-07-14T10:08:58.000Z</time>
      </trkpt>
      <trkpt lat="43.07596" lon="1.26163">
        <ele>650.79998779297</ele>
        <time>2019-07-14T10:09:00.000Z</time>
      </trkpt>
      <trkpt lat="43.07594" lon="1.26169">
        <ele>650.79998779297</ele>
        <time>2019-07-14T10:09:02.000Z</time>
      </trkpt>
      <trkpt lat="43.07594" lon="1.26171">
        <ele>650.79998779297</ele>
        <time>2019-07-14T10:09:03.000Z</time>
      </trkpt>
      <trkpt lat="43.07594" lon="1.26173">
        <ele>651.20001220703</ele>
        <time>2019-07-14T10:09:04.000Z</time>
      </trkpt>
      <trkpt lat="43.07594" lon="1.26177">
        <ele>651.59997558594</ele>
        <time>2019-07-14T10:09:05.000Z</time>
      </trkpt>
      <trkpt lat="43.07594" lon="1.26179">
        <ele>652</ele>
        <time>2019-07-14T10:09:06.000Z</time>
      </trkpt>
      <trkpt lat="43.07593" lon="1.26182">
        <ele>652.59997558594</ele>
        <time>2019-07-14T10:09:07.000Z</time>
      </trkpt>
      <trkpt lat="43.07594" lon="1.26185">
        <ele>653</ele>
        <time>2019-07-14T10:09:08.000Z</time>
      </trkpt>
      <trkpt lat="43.07594" lon="1.26194">
        <ele>653.40002441406</ele>
        <time>2019-07-14T10:09:12.000Z</time>
      </trkpt>
      <trkpt lat="43.07594" lon="1.26196">
        <ele>653.79998779297</ele>
        <time>2019-07-14T10:09:13.000Z</time>
      </trkpt>
      <trkpt lat="43.07594" lon="1.26198">
        <ele>654.20001220703</ele>
        <time>2019-07-14T10:09:14.000Z</time>
      </trkpt>
      <trkpt lat="43.07594" lon="1.262">
        <ele>654.59997558594</ele>
        <time>2019-07-14T10:09:15.000Z</time>
      </trkpt>
      <trkpt lat="43.07595" lon="1.26201">
        <ele>655</ele>
        <time>2019-07-14T10:09:16.000Z</time>
      </trkpt>
      <trkpt lat="43.07597" lon="1.26205">
        <ele>655</ele>
        <time>2019-07-14T10:09:19.000Z</time>
      </trkpt>
      <trkpt lat="43.07602" lon="1.26214">
        <ele>655.40002441406</ele>
        <time>2019-07-14T10:09:23.000Z</time>
      </trkpt>
      <trkpt lat="43.07603" lon="1.26216">
        <ele>656.20001220703</ele>
        <time>2019-07-14T10:09:24.000Z</time>
      </trkpt>
      <trkpt lat="43.07605" lon="1.2622">
        <ele>656.59997558594</ele>
        <time>2019-07-14T10:09:25.000Z</time>
      </trkpt>
      <trkpt lat="43.07606" lon="1.26223">
        <ele>657</ele>
        <time>2019-07-14T10:09:26.000Z</time>
      </trkpt>
      <trkpt lat="43.07615" lon="1.26238">
        <ele>657</ele>
        <time>2019-07-14T10:09:30.000Z</time>
      </trkpt>
      <trkpt lat="43.07618" lon="1.26244">
        <ele>657</ele>
        <time>2019-07-14T10:09:32.000Z</time>
      </trkpt>
      <trkpt lat="43.07621" lon="1.26252">
        <ele>657.40002441406</ele>
        <time>2019-07-14T10:09:34.000Z</time>
      </trkpt>
      <trkpt lat="43.07622" lon="1.26255">
        <ele>657.79998779297</ele>
        <time>2019-07-14T10:09:35.000Z</time>
      </trkpt>
      <trkpt lat="43.07623" lon="1.26258">
        <ele>658.20001220703</ele>
        <time>2019-07-14T10:09:36.000Z</time>
      </trkpt>
      <trkpt lat="43.07624" lon="1.26259">
        <ele>658.59997558594</ele>
        <time>2019-07-14T10:09:37.000Z</time>
      </trkpt>
      <trkpt lat="43.07627" lon="1.26262">
        <ele>659</ele>
        <time>2019-07-14T10:09:38.000Z</time>
      </trkpt>
      <trkpt lat="43.07628" lon="1.26264">
        <ele>659</ele>
        <time>2019-07-14T10:09:39.000Z</time>
      </trkpt>
      <trkpt lat="43.07629" lon="1.26267">
        <ele>659</ele>
        <time>2019-07-14T10:09:41.000Z</time>
      </trkpt>
      <trkpt lat="43.07631" lon="1.2627">
        <ele>659</ele>
        <time>2019-07-14T10:09:42.000Z</time>
      </trkpt>
      <trkpt lat="43.07634" lon="1.26275">
        <ele>659</ele>
        <time>2019-07-14T10:09:44.000Z</time>
      </trkpt>
      <trkpt lat="43.07635" lon="1.26276">
        <ele>659.59997558594</ele>
        <time>2019-07-14T10:09:45.000Z</time>
      </trkpt>
      <trkpt lat="43.07637" lon="1.26278">
        <ele>660</ele>
        <time>2019-07-14T10:09:46.000Z</time>
      </trkpt>
      <trkpt lat="43.07638" lon="1.2628">
        <ele>660.40002441406</ele>
        <time>2019-07-14T10:09:47.000Z</time>
      </trkpt>
      <trkpt lat="43.07639" lon="1.26281">
        <ele>660.79998779297</ele>
        <time>2019-07-14T10:09:48.000Z</time>
      </trkpt>
      <trkpt lat="43.0764" lon="1.26282">
        <ele>661.20001220703</ele>
        <time>2019-07-14T10:09:49.000Z</time>
      </trkpt>
      <trkpt lat="43.07641" lon="1.26284">
        <ele>661.20001220703</ele>
        <time>2019-07-14T10:09:50.000Z</time>
      </trkpt>
      <trkpt lat="43.07649" lon="1.26297">
        <ele>661.59997558594</ele>
        <time>2019-07-14T10:09:56.000Z</time>
      </trkpt>
      <trkpt lat="43.0765" lon="1.26299">
        <ele>662</ele>
        <time>2019-07-14T10:09:57.000Z</time>
      </trkpt>
      <trkpt lat="43.07652" lon="1.26301">
        <ele>662.40002441406</ele>
        <time>2019-07-14T10:09:58.000Z</time>
      </trkpt>
      <trkpt lat="43.07654" lon="1.26304">
        <ele>662.79998779297</ele>
        <time>2019-07-14T10:09:59.000Z</time>
      </trkpt>
      <trkpt lat="43.07655" lon="1.26306">
        <ele>663.20001220703</ele>
        <time>2019-07-14T10:10:00.000Z</time>
      </trkpt>
      <trkpt lat="43.07659" lon="1.26311">
        <ele>663.20001220703</ele>
        <time>2019-07-14T10:10:03.000Z</time>
      </trkpt>
      <trkpt lat="43.07664" lon="1.26322">
        <ele>663.20001220703</ele>
        <time>2019-07-14T10:10:09.000Z</time>
      </trkpt>
      <trkpt lat="43.07667" lon="1.26328">
        <ele>663.59997558594</ele>
        <time>2019-07-14T10:10:12.000Z</time>
      </trkpt>
      <trkpt lat="43.07668" lon="1.2633">
        <ele>664.59997558594</ele>
        <time>2019-07-14T10:10:13.000Z</time>
      </trkpt>
      <trkpt lat="43.07669" lon="1.26331">
        <ele>665</ele>
        <time>2019-07-14T10:10:14.000Z</time>
      </trkpt>
      <trkpt lat="43.07671" lon="1.26334">
        <ele>665.40002441406</ele>
        <time>2019-07-14T10:10:15.000Z</time>
      </trkpt>
      <trkpt lat="43.07674" lon="1.26341">
        <ele>665.40002441406</ele>
        <time>2019-07-14T10:10:18.000Z</time>
      </trkpt>
      <trkpt lat="43.07678" lon="1.26347">
        <ele>665.40002441406</ele>
        <time>2019-07-14T10:10:21.000Z</time>
      </trkpt>
      <trkpt lat="43.07685" lon="1.26357">
        <ele>665.40002441406</ele>
        <time>2019-07-14T10:10:27.000Z</time>
      </trkpt>
      <trkpt lat="43.07688" lon="1.26363">
        <ele>665.79998779297</ele>
        <time>2019-07-14T10:10:29.000Z</time>
      </trkpt>
      <trkpt lat="43.0769" lon="1.26366">
        <ele>666.20001220703</ele>
        <time>2019-07-14T10:10:30.000Z</time>
      </trkpt>
      <trkpt lat="43.07691" lon="1.26367">
        <ele>666.59997558594</ele>
        <time>2019-07-14T10:10:31.000Z</time>
      </trkpt>
      <trkpt lat="43.07693" lon="1.2637">
        <ele>667</ele>
        <time>2019-07-14T10:10:32.000Z</time>
      </trkpt>
      <trkpt lat="43.07694" lon="1.26372">
        <ele>667.40002441406</ele>
        <time>2019-07-14T10:10:33.000Z</time>
      </trkpt>
      <trkpt lat="43.077" lon="1.26384">
        <ele>667.40002441406</ele>
        <time>2019-07-14T10:10:39.000Z</time>
      </trkpt>
      <trkpt lat="43.07702" lon="1.26392">
        <ele>667.79998779297</ele>
        <time>2019-07-14T10:10:43.000Z</time>
      </trkpt>
      <trkpt lat="43.07704" lon="1.26394">
        <ele>668.20001220703</ele>
        <time>2019-07-14T10:10:44.000Z</time>
      </trkpt>
      <trkpt lat="43.07705" lon="1.26397">
        <ele>668.79998779297</ele>
        <time>2019-07-14T10:10:45.000Z</time>
      </trkpt>
      <trkpt lat="43.07706" lon="1.264">
        <ele>669.20001220703</ele>
        <time>2019-07-14T10:10:46.000Z</time>
      </trkpt>
      <trkpt lat="43.07707" lon="1.26402">
        <ele>669.59997558594</ele>
        <time>2019-07-14T10:10:47.000Z</time>
      </trkpt>
      <trkpt lat="43.0771" lon="1.2641">
        <ele>669.59997558594</ele>
        <time>2019-07-14T10:10:53.000Z</time>
      </trkpt>
      <trkpt lat="43.07711" lon="1.26415">
        <ele>670</ele>
        <time>2019-07-14T10:10:58.000Z</time>
      </trkpt>
      <trkpt lat="43.07712" lon="1.26417">
        <ele>670.40002441406</ele>
        <time>2019-07-14T10:10:59.000Z</time>
      </trkpt>
      <trkpt lat="43.07712" lon="1.26418">
        <ele>670.79998779297</ele>
        <time>2019-07-14T10:11:00.000Z</time>
      </trkpt>
      <trkpt lat="43.07713" lon="1.2642">
        <ele>671.20001220703</ele>
        <time>2019-07-14T10:11:01.000Z</time>
      </trkpt>
      <trkpt lat="43.07714" lon="1.26421">
        <ele>671.59997558594</ele>
        <time>2019-07-14T10:11:02.000Z</time>
      </trkpt>
      <trkpt lat="43.07722" lon="1.26434">
        <ele>671.59997558594</ele>
        <time>2019-07-14T10:11:07.000Z</time>
      </trkpt>
      <trkpt lat="43.07732" lon="1.26449">
        <ele>672</ele>
        <time>2019-07-14T10:11:13.000Z</time>
      </trkpt>
      <trkpt lat="43.07733" lon="1.26451">
        <ele>672.40002441406</ele>
        <time>2019-07-14T10:11:14.000Z</time>
      </trkpt>
      <trkpt lat="43.07735" lon="1.26453">
        <ele>672.79998779297</ele>
        <time>2019-07-14T10:11:15.000Z</time>
      </trkpt>
      <trkpt lat="43.07736" lon="1.26456">
        <ele>673.20001220703</ele>
        <time>2019-07-14T10:11:16.000Z</time>
      </trkpt>
      <trkpt lat="43.07738" lon="1.26457">
        <ele>673.59997558594</ele>
        <time>2019-07-14T10:11:17.000Z</time>
      </trkpt>
      <trkpt lat="43.07744" lon="1.26468">
        <ele>673.59997558594</ele>
        <time>2019-07-14T10:11:20.000Z</time>
      </trkpt>
      <trkpt lat="43.07756" lon="1.26485">
        <ele>674.40002441406</ele>
        <time>2019-07-14T10:11:27.000Z</time>
      </trkpt>
      <trkpt lat="43.07757" lon="1.26486">
        <ele>674.79998779297</ele>
        <time>2019-07-14T10:11:28.000Z</time>
      </trkpt>
      <trkpt lat="43.07759" lon="1.26488">
        <ele>675.20001220703</ele>
        <time>2019-07-14T10:11:29.000Z</time>
      </trkpt>
      <trkpt lat="43.0776" lon="1.2649">
        <ele>675.59997558594</ele>
        <time>2019-07-14T10:11:30.000Z</time>
      </trkpt>
      <trkpt lat="43.0777" lon="1.26504">
        <ele>675.59997558594</ele>
        <time>2019-07-14T10:11:36.000Z</time>
      </trkpt>
      <trkpt lat="43.07774" lon="1.2651">
        <ele>676</ele>
        <time>2019-07-14T10:11:39.000Z</time>
      </trkpt>
      <trkpt lat="43.07792" lon="1.26533">
        <ele>676.40002441406</ele>
        <time>2019-07-14T10:11:40.000Z</time>
      </trkpt>
      <trkpt lat="43.07794" lon="1.26535">
        <ele>676.79998779297</ele>
        <time>2019-07-14T10:11:41.000Z</time>
      </trkpt>
      <trkpt lat="43.07795" lon="1.26538">
        <ele>677.20001220703</ele>
        <time>2019-07-14T10:11:42.000Z</time>
      </trkpt>
      <trkpt lat="43.07795" lon="1.2654">
        <ele>677.59997558594</ele>
        <time>2019-07-14T10:11:43.000Z</time>
      </trkpt>
      <trkpt lat="43.078" lon="1.26549">
        <ele>677.59997558594</ele>
        <time>2019-07-14T10:11:48.000Z</time>
      </trkpt>
      <trkpt lat="43.07805" lon="1.26563">
        <ele>677.59997558594</ele>
        <time>2019-07-14T10:11:54.000Z</time>
      </trkpt>
      <trkpt lat="43.07806" lon="1.26566">
        <ele>678.20001220703</ele>
        <time>2019-07-14T10:11:55.000Z</time>
      </trkpt>
      <trkpt lat="43.07806" lon="1.26568">
        <ele>678.59997558594</ele>
        <time>2019-07-14T10:11:56.000Z</time>
      </trkpt>
      <trkpt lat="43.07807" lon="1.2657">
        <ele>679</ele>
        <time>2019-07-14T10:11:57.000Z</time>
      </trkpt>
      <trkpt lat="43.07809" lon="1.26572">
        <ele>679.40002441406</ele>
        <time>2019-07-14T10:11:58.000Z</time>
      </trkpt>
      <trkpt lat="43.0781" lon="1.26573">
        <ele>679.79998779297</ele>
        <time>2019-07-14T10:11:59.000Z</time>
      </trkpt>
      <trkpt lat="43.07811" lon="1.26575">
        <ele>679.79998779297</ele>
        <time>2019-07-14T10:12:01.000Z</time>
      </trkpt>
      <trkpt lat="43.07815" lon="1.26575">
        <ele>679.79998779297</ele>
        <time>2019-07-14T10:12:04.000Z</time>
      </trkpt>
      <trkpt lat="43.07819" lon="1.2657">
        <ele>680.20001220703</ele>
        <time>2019-07-14T10:12:07.000Z</time>
      </trkpt>
      <trkpt lat="43.07821" lon="1.26569">
        <ele>680.59997558594</ele>
        <time>2019-07-14T10:12:08.000Z</time>
      </trkpt>
      <trkpt lat="43.07822" lon="1.26568">
        <ele>681</ele>
        <time>2019-07-14T10:12:09.000Z</time>
      </trkpt>
      <trkpt lat="43.07823" lon="1.26566">
        <ele>681.40002441406</ele>
        <time>2019-07-14T10:12:10.000Z</time>
      </trkpt>
      <trkpt lat="43.07824" lon="1.26565">
        <ele>681.79998779297</ele>
        <time>2019-07-14T10:12:11.000Z</time>
      </trkpt>
      <trkpt lat="43.07827" lon="1.26561">
        <ele>681.79998779297</ele>
        <time>2019-07-14T10:12:14.000Z</time>
      </trkpt>
      <trkpt lat="43.07835" lon="1.26548">
        <ele>681.79998779297</ele>
        <time>2019-07-14T10:12:20.000Z</time>
      </trkpt>
      <trkpt lat="43.07841" lon="1.26536">
        <ele>681.79998779297</ele>
        <time>2019-07-14T10:12:26.000Z</time>
      </trkpt>
      <trkpt lat="43.07851" lon="1.26528">
        <ele>681.79998779297</ele>
        <time>2019-07-14T10:12:31.000Z</time>
      </trkpt>
      <trkpt lat="43.07854" lon="1.26528">
        <ele>682.20001220703</ele>
        <time>2019-07-14T10:12:32.000Z</time>
      </trkpt>
      <trkpt lat="43.07856" lon="1.26527">
        <ele>682.79998779297</ele>
        <time>2019-07-14T10:12:33.000Z</time>
      </trkpt>
      <trkpt lat="43.07858" lon="1.26528">
        <ele>683.20001220703</ele>
        <time>2019-07-14T10:12:34.000Z</time>
      </trkpt>
      <trkpt lat="43.07859" lon="1.26527">
        <ele>683.59997558594</ele>
        <time>2019-07-14T10:12:35.000Z</time>
      </trkpt>
      <trkpt lat="43.07861" lon="1.26526">
        <ele>684</ele>
        <time>2019-07-14T10:12:36.000Z</time>
      </trkpt>
      <trkpt lat="43.07862" lon="1.26525">
        <ele>684</ele>
        <time>2019-07-14T10:12:37.000Z</time>
      </trkpt>
      <trkpt lat="43.07876" lon="1.26518">
        <ele>684</ele>
        <time>2019-07-14T10:12:43.000Z</time>
      </trkpt>
      <trkpt lat="43.07887" lon="1.26505">
        <ele>683.59997558594</ele>
        <time>2019-07-14T10:12:47.000Z</time>
      </trkpt>
      <trkpt lat="43.07891" lon="1.26502">
        <ele>683</ele>
        <time>2019-07-14T10:12:48.000Z</time>
      </trkpt>
      <trkpt lat="43.07895" lon="1.26498">
        <ele>682.59997558594</ele>
        <time>2019-07-14T10:12:49.000Z</time>
      </trkpt>
      <trkpt lat="43.07899" lon="1.26495">
        <ele>682</ele>
        <time>2019-07-14T10:12:50.000Z</time>
      </trkpt>
      <trkpt lat="43.07904" lon="1.26493">
        <ele>681.40002441406</ele>
        <time>2019-07-14T10:12:51.000Z</time>
      </trkpt>
      <trkpt lat="43.07907" lon="1.26493">
        <ele>680.79998779297</ele>
        <time>2019-07-14T10:12:52.000Z</time>
      </trkpt>
      <trkpt lat="43.0791" lon="1.26494">
        <ele>680</ele>
        <time>2019-07-14T10:12:53.000Z</time>
      </trkpt>
      <trkpt lat="43.07913" lon="1.26497">
        <ele>679.40002441406</ele>
        <time>2019-07-14T10:12:54.000Z</time>
      </trkpt>
      <trkpt lat="43.07915" lon="1.26501">
        <ele>678.79998779297</ele>
        <time>2019-07-14T10:12:55.000Z</time>
      </trkpt>
      <trkpt lat="43.07916" lon="1.26505">
        <ele>678.20001220703</ele>
        <time>2019-07-14T10:12:56.000Z</time>
      </trkpt>
      <trkpt lat="43.07917" lon="1.2651">
        <ele>677.40002441406</ele>
        <time>2019-07-14T10:12:57.000Z</time>
      </trkpt>
      <trkpt lat="43.07918" lon="1.26517">
        <ele>677.40002441406</ele>
        <time>2019-07-14T10:12:59.000Z</time>
      </trkpt>
      <trkpt lat="43.07918" lon="1.26519">
        <ele>677.40002441406</ele>
        <time>2019-07-14T10:13:00.000Z</time>
      </trkpt>
      <trkpt lat="43.07917" lon="1.26522">
        <ele>677.40002441406</ele>
        <time>2019-07-14T10:13:01.000Z</time>
      </trkpt>
      <trkpt lat="43.07917" lon="1.26531">
        <ele>677.40002441406</ele>
        <time>2019-07-14T10:13:04.000Z</time>
      </trkpt>
      <trkpt lat="43.07915" lon="1.26538">
        <ele>677.40002441406</ele>
        <time>2019-07-14T10:13:06.000Z</time>
      </trkpt>
      <trkpt lat="43.07915" lon="1.26551">
        <ele>677.79998779297</ele>
        <time>2019-07-14T10:13:10.000Z</time>
      </trkpt>
      <trkpt lat="43.07916" lon="1.26553">
        <ele>678.20001220703</ele>
        <time>2019-07-14T10:13:11.000Z</time>
      </trkpt>
      <trkpt lat="43.07917" lon="1.26558">
        <ele>678.79998779297</ele>
        <time>2019-07-14T10:13:12.000Z</time>
      </trkpt>
      <trkpt lat="43.07917" lon="1.26561">
        <ele>679.20001220703</ele>
        <time>2019-07-14T10:13:13.000Z</time>
      </trkpt>
      <trkpt lat="43.07917" lon="1.26563">
        <ele>679.59997558594</ele>
        <time>2019-07-14T10:13:14.000Z</time>
      </trkpt>
      <trkpt lat="43.07917" lon="1.26567">
        <ele>679.59997558594</ele>
        <time>2019-07-14T10:13:15.000Z</time>
      </trkpt>
      <trkpt lat="43.07918" lon="1.26592">
        <ele>679.59997558594</ele>
        <time>2019-07-14T10:13:22.000Z</time>
      </trkpt>
      <trkpt lat="43.07917" lon="1.26606">
        <ele>679.59997558594</ele>
        <time>2019-07-14T10:13:26.000Z</time>
      </trkpt>
      <trkpt lat="43.07915" lon="1.26625">
        <ele>680</ele>
        <time>2019-07-14T10:13:31.000Z</time>
      </trkpt>
      <trkpt lat="43.07915" lon="1.26628">
        <ele>680.40002441406</ele>
        <time>2019-07-14T10:13:32.000Z</time>
      </trkpt>
      <trkpt lat="43.07914" lon="1.26632">
        <ele>681</ele>
        <time>2019-07-14T10:13:33.000Z</time>
      </trkpt>
      <trkpt lat="43.07914" lon="1.26634">
        <ele>681.40002441406</ele>
        <time>2019-07-14T10:13:34.000Z</time>
      </trkpt>
      <trkpt lat="43.07913" lon="1.26635">
        <ele>681.79998779297</ele>
        <time>2019-07-14T10:13:35.000Z</time>
      </trkpt>
      <trkpt lat="43.07913" lon="1.26643">
        <ele>681.79998779297</ele>
        <time>2019-07-14T10:13:37.000Z</time>
      </trkpt>
      <trkpt lat="43.07908" lon="1.26658">
        <ele>681.79998779297</ele>
        <time>2019-07-14T10:13:42.000Z</time>
      </trkpt>
      <trkpt lat="43.07905" lon="1.26675">
        <ele>681.79998779297</ele>
        <time>2019-07-14T10:13:47.000Z</time>
      </trkpt>
      <trkpt lat="43.07904" lon="1.26694">
        <ele>682.20001220703</ele>
        <time>2019-07-14T10:13:52.000Z</time>
      </trkpt>
      <trkpt lat="43.07903" lon="1.26697">
        <ele>682.59997558594</ele>
        <time>2019-07-14T10:13:53.000Z</time>
      </trkpt>
      <trkpt lat="43.07904" lon="1.26701">
        <ele>683</ele>
        <time>2019-07-14T10:13:54.000Z</time>
      </trkpt>
      <trkpt lat="43.07903" lon="1.26704">
        <ele>683.40002441406</ele>
        <time>2019-07-14T10:13:55.000Z</time>
      </trkpt>
      <trkpt lat="43.07904" lon="1.26708">
        <ele>683.79998779297</ele>
        <time>2019-07-14T10:13:56.000Z</time>
      </trkpt>
      <trkpt lat="43.07903" lon="1.26712">
        <ele>683.79998779297</ele>
        <time>2019-07-14T10:13:58.000Z</time>
      </trkpt>
      <trkpt lat="43.07902" lon="1.26728">
        <ele>683.79998779297</ele>
        <time>2019-07-14T10:14:03.000Z</time>
      </trkpt>
      <trkpt lat="43.07901" lon="1.2675">
        <ele>683.79998779297</ele>
        <time>2019-07-14T10:14:09.000Z</time>
      </trkpt>
      <trkpt lat="43.07903" lon="1.26767">
        <ele>683.79998779297</ele>
        <time>2019-07-14T10:14:14.000Z</time>
      </trkpt>
      <trkpt lat="43.07903" lon="1.26787">
        <ele>683.79998779297</ele>
        <time>2019-07-14T10:14:19.000Z</time>
      </trkpt>
      <trkpt lat="43.07903" lon="1.26795">
        <ele>684.20001220703</ele>
        <time>2019-07-14T10:14:21.000Z</time>
      </trkpt>
      <trkpt lat="43.07902" lon="1.26798">
        <ele>684.59997558594</ele>
        <time>2019-07-14T10:14:22.000Z</time>
      </trkpt>
      <trkpt lat="43.07901" lon="1.26801">
        <ele>685</ele>
        <time>2019-07-14T10:14:23.000Z</time>
      </trkpt>
      <trkpt lat="43.07901" lon="1.26804">
        <ele>685.40002441406</ele>
        <time>2019-07-14T10:14:24.000Z</time>
      </trkpt>
      <trkpt lat="43.079" lon="1.26806">
        <ele>685.79998779297</ele>
        <time>2019-07-14T10:14:25.000Z</time>
      </trkpt>
      <trkpt lat="43.07898" lon="1.26826">
        <ele>685.79998779297</ele>
        <time>2019-07-14T10:14:31.000Z</time>
      </trkpt>
      <trkpt lat="43.07906" lon="1.26841">
        <ele>685.79998779297</ele>
        <time>2019-07-14T10:14:36.000Z</time>
      </trkpt>
      <trkpt lat="43.07908" lon="1.26844">
        <ele>685.79998779297</ele>
        <time>2019-07-14T10:14:37.000Z</time>
      </trkpt>
      <trkpt lat="43.07909" lon="1.26851">
        <ele>685.79998779297</ele>
        <time>2019-07-14T10:14:39.000Z</time>
      </trkpt>
      <trkpt lat="43.0791" lon="1.26854">
        <ele>686.40002441406</ele>
        <time>2019-07-14T10:14:40.000Z</time>
      </trkpt>
      <trkpt lat="43.0791" lon="1.26857">
        <ele>686.79998779297</ele>
        <time>2019-07-14T10:14:41.000Z</time>
      </trkpt>
      <trkpt lat="43.07913" lon="1.26862">
        <ele>687.20001220703</ele>
        <time>2019-07-14T10:14:42.000Z</time>
      </trkpt>
      <trkpt lat="43.07914" lon="1.26866">
        <ele>687.59997558594</ele>
        <time>2019-07-14T10:14:43.000Z</time>
      </trkpt>
      <trkpt lat="43.07916" lon="1.26869">
        <ele>688</ele>
        <time>2019-07-14T10:14:44.000Z</time>
      </trkpt>
      <trkpt lat="43.07919" lon="1.26877">
        <ele>688</ele>
        <time>2019-07-14T10:14:46.000Z</time>
      </trkpt>
      <trkpt lat="43.07921" lon="1.2688">
        <ele>688</ele>
        <time>2019-07-14T10:14:47.000Z</time>
      </trkpt>
      <trkpt lat="43.07926" lon="1.26888">
        <ele>688</ele>
        <time>2019-07-14T10:14:50.000Z</time>
      </trkpt>
      <trkpt lat="43.07927" lon="1.2689">
        <ele>688</ele>
        <time>2019-07-14T10:14:51.000Z</time>
      </trkpt>
      <trkpt lat="43.07929" lon="1.26897">
        <ele>688.40002441406</ele>
        <time>2019-07-14T10:14:54.000Z</time>
      </trkpt>
      <trkpt lat="43.0793" lon="1.26899">
        <ele>688.79998779297</ele>
        <time>2019-07-14T10:14:55.000Z</time>
      </trkpt>
      <trkpt lat="43.0793" lon="1.26901">
        <ele>689.20001220703</ele>
        <time>2019-07-14T10:14:56.000Z</time>
      </trkpt>
      <trkpt lat="43.0793" lon="1.26902">
        <ele>689.59997558594</ele>
        <time>2019-07-14T10:14:57.000Z</time>
      </trkpt>
      <trkpt lat="43.07931" lon="1.26905">
        <ele>690.20001220703</ele>
        <time>2019-07-14T10:14:58.000Z</time>
      </trkpt>
      <trkpt lat="43.07933" lon="1.26914">
        <ele>690.20001220703</ele>
        <time>2019-07-14T10:15:02.000Z</time>
      </trkpt>
      <trkpt lat="43.07934" lon="1.26925">
        <ele>690.59997558594</ele>
        <time>2019-07-14T10:15:07.000Z</time>
      </trkpt>
      <trkpt lat="43.07934" lon="1.26927">
        <ele>691</ele>
        <time>2019-07-14T10:15:08.000Z</time>
      </trkpt>
      <trkpt lat="43.07934" lon="1.2693">
        <ele>691.40002441406</ele>
        <time>2019-07-14T10:15:09.000Z</time>
      </trkpt>
      <trkpt lat="43.07935" lon="1.26932">
        <ele>692.20001220703</ele>
        <time>2019-07-14T10:15:10.000Z</time>
      </trkpt>
      <trkpt lat="43.07935" lon="1.26934">
        <ele>692.20001220703</ele>
        <time>2019-07-14T10:15:11.000Z</time>
      </trkpt>
      <trkpt lat="43.07937" lon="1.26938">
        <ele>692.20001220703</ele>
        <time>2019-07-14T10:15:13.000Z</time>
      </trkpt>
      <trkpt lat="43.07939" lon="1.26947">
        <ele>692.59997558594</ele>
        <time>2019-07-14T10:15:18.000Z</time>
      </trkpt>
      <trkpt lat="43.0794" lon="1.26949">
        <ele>693</ele>
        <time>2019-07-14T10:15:19.000Z</time>
      </trkpt>
      <trkpt lat="43.07941" lon="1.26952">
        <ele>693.59997558594</ele>
        <time>2019-07-14T10:15:20.000Z</time>
      </trkpt>
      <trkpt lat="43.07942" lon="1.26954">
        <ele>694</ele>
        <time>2019-07-14T10:15:21.000Z</time>
      </trkpt>
      <trkpt lat="43.07943" lon="1.26957">
        <ele>694.40002441406</ele>
        <time>2019-07-14T10:15:22.000Z</time>
      </trkpt>
      <trkpt lat="43.07945" lon="1.26961">
        <ele>694.40002441406</ele>
        <time>2019-07-14T10:15:25.000Z</time>
      </trkpt>
      <trkpt lat="43.07948" lon="1.26968">
        <ele>694.79998779297</ele>
        <time>2019-07-14T10:15:29.000Z</time>
      </trkpt>
      <trkpt lat="43.07949" lon="1.26971">
        <ele>695.20001220703</ele>
        <time>2019-07-14T10:15:30.000Z</time>
      </trkpt>
      <trkpt lat="43.07952" lon="1.26973">
        <ele>695.59997558594</ele>
        <time>2019-07-14T10:15:31.000Z</time>
      </trkpt>
      <trkpt lat="43.07954" lon="1.26976">
        <ele>696</ele>
        <time>2019-07-14T10:15:32.000Z</time>
      </trkpt>
      <trkpt lat="43.07956" lon="1.26978">
        <ele>696.40002441406</ele>
        <time>2019-07-14T10:15:33.000Z</time>
      </trkpt>
      <trkpt lat="43.07961" lon="1.26987">
        <ele>696.79998779297</ele>
        <time>2019-07-14T10:15:38.000Z</time>
      </trkpt>
      <trkpt lat="43.07961" lon="1.26988">
        <ele>697.20001220703</ele>
        <time>2019-07-14T10:15:39.000Z</time>
      </trkpt>
      <trkpt lat="43.07962" lon="1.2699">
        <ele>697.59997558594</ele>
        <time>2019-07-14T10:15:40.000Z</time>
      </trkpt>
      <trkpt lat="43.07963" lon="1.26992">
        <ele>698</ele>
        <time>2019-07-14T10:15:41.000Z</time>
      </trkpt>
      <trkpt lat="43.07963" lon="1.26993">
        <ele>698.59997558594</ele>
        <time>2019-07-14T10:15:42.000Z</time>
      </trkpt>
      <trkpt lat="43.07967" lon="1.27001">
        <ele>698.59997558594</ele>
        <time>2019-07-14T10:15:47.000Z</time>
      </trkpt>
      <trkpt lat="43.07969" lon="1.27006">
        <ele>699</ele>
        <time>2019-07-14T10:15:50.000Z</time>
      </trkpt>
      <trkpt lat="43.0797" lon="1.27008">
        <ele>699.40002441406</ele>
        <time>2019-07-14T10:15:51.000Z</time>
      </trkpt>
      <trkpt lat="43.07971" lon="1.2701">
        <ele>699.79998779297</ele>
        <time>2019-07-14T10:15:52.000Z</time>
      </trkpt>
      <trkpt lat="43.07972" lon="1.27011">
        <ele>700.20001220703</ele>
        <time>2019-07-14T10:15:53.000Z</time>
      </trkpt>
      <trkpt lat="43.07973" lon="1.27014">
        <ele>700.59997558594</ele>
        <time>2019-07-14T10:15:54.000Z</time>
      </trkpt>
      <trkpt lat="43.07974" lon="1.27014">
        <ele>700.59997558594</ele>
        <time>2019-07-14T10:15:55.000Z</time>
      </trkpt>
      <trkpt lat="43.07977" lon="1.27017">
        <ele>700.59997558594</ele>
        <time>2019-07-14T10:15:58.000Z</time>
      </trkpt>
      <trkpt lat="43.07979" lon="1.27021">
        <ele>701</ele>
        <time>2019-07-14T10:16:01.000Z</time>
      </trkpt>
      <trkpt lat="43.0798" lon="1.27021">
        <ele>701.40002441406</ele>
        <time>2019-07-14T10:16:02.000Z</time>
      </trkpt>
      <trkpt lat="43.0798" lon="1.27023">
        <ele>701.79998779297</ele>
        <time>2019-07-14T10:16:03.000Z</time>
      </trkpt>
      <trkpt lat="43.07981" lon="1.27023">
        <ele>702.20001220703</ele>
        <time>2019-07-14T10:16:04.000Z</time>
      </trkpt>
      <trkpt lat="43.07982" lon="1.27024">
        <ele>702.59997558594</ele>
        <time>2019-07-14T10:16:05.000Z</time>
      </trkpt>
      <trkpt lat="43.07986" lon="1.27032">
        <ele>702.59997558594</ele>
        <time>2019-07-14T10:16:12.000Z</time>
      </trkpt>
      <trkpt lat="43.07989" lon="1.27037">
        <ele>703</ele>
        <time>2019-07-14T10:16:16.000Z</time>
      </trkpt>
      <trkpt lat="43.0799" lon="1.27039">
        <ele>703.40002441406</ele>
        <time>2019-07-14T10:16:17.000Z</time>
      </trkpt>
      <trkpt lat="43.0799" lon="1.27039">
        <ele>703.79998779297</ele>
        <time>2019-07-14T10:16:18.000Z</time>
      </trkpt>
      <trkpt lat="43.07991" lon="1.2704">
        <ele>704.20001220703</ele>
        <time>2019-07-14T10:16:19.000Z</time>
      </trkpt>
      <trkpt lat="43.07992" lon="1.27041">
        <ele>704.59997558594</ele>
        <time>2019-07-14T10:16:20.000Z</time>
      </trkpt>
      <trkpt lat="43.07996" lon="1.27048">
        <ele>704.59997558594</ele>
        <time>2019-07-14T10:16:26.000Z</time>
      </trkpt>
      <trkpt lat="43.07997" lon="1.2705">
        <ele>705</ele>
        <time>2019-07-14T10:16:28.000Z</time>
      </trkpt>
      <trkpt lat="43.07997" lon="1.27051">
        <ele>705.40002441406</ele>
        <time>2019-07-14T10:16:29.000Z</time>
      </trkpt>
      <trkpt lat="43.07998" lon="1.27052">
        <ele>706</ele>
        <time>2019-07-14T10:16:30.000Z</time>
      </trkpt>
      <trkpt lat="43.07999" lon="1.27053">
        <ele>706.40002441406</ele>
        <time>2019-07-14T10:16:31.000Z</time>
      </trkpt>
      <trkpt lat="43.07999" lon="1.27054">
        <ele>706.79998779297</ele>
        <time>2019-07-14T10:16:32.000Z</time>
      </trkpt>
      <trkpt lat="43.08" lon="1.27056">
        <ele>706.79998779297</ele>
        <time>2019-07-14T10:16:33.000Z</time>
      </trkpt>
      <trkpt lat="43.08005" lon="1.27062">
        <ele>707.20001220703</ele>
        <time>2019-07-14T10:16:38.000Z</time>
      </trkpt>
      <trkpt lat="43.08005" lon="1.27064">
        <ele>707.59997558594</ele>
        <time>2019-07-14T10:16:39.000Z</time>
      </trkpt>
      <trkpt lat="43.08006" lon="1.27066">
        <ele>708</ele>
        <time>2019-07-14T10:16:40.000Z</time>
      </trkpt>
      <trkpt lat="43.08006" lon="1.27068">
        <ele>708.40002441406</ele>
        <time>2019-07-14T10:16:41.000Z</time>
      </trkpt>
      <trkpt lat="43.08006" lon="1.27069">
        <ele>708.79998779297</ele>
        <time>2019-07-14T10:16:42.000Z</time>
      </trkpt>
      <trkpt lat="43.08009" lon="1.27076">
        <ele>708.79998779297</ele>
        <time>2019-07-14T10:16:46.000Z</time>
      </trkpt>
      <trkpt lat="43.0801" lon="1.2708">
        <ele>709.59997558594</ele>
        <time>2019-07-14T10:16:49.000Z</time>
      </trkpt>
      <trkpt lat="43.08011" lon="1.27081">
        <ele>710</ele>
        <time>2019-07-14T10:16:50.000Z</time>
      </trkpt>
      <trkpt lat="43.08012" lon="1.27082">
        <ele>710.40002441406</ele>
        <time>2019-07-14T10:16:51.000Z</time>
      </trkpt>
      <trkpt lat="43.08013" lon="1.27084">
        <ele>710.79998779297</ele>
        <time>2019-07-14T10:16:52.000Z</time>
      </trkpt>
      <trkpt lat="43.08013" lon="1.27085">
        <ele>710.79998779297</ele>
        <time>2019-07-14T10:16:53.000Z</time>
      </trkpt>
      <trkpt lat="43.08018" lon="1.27092">
        <ele>710.79998779297</ele>
        <time>2019-07-14T10:16:58.000Z</time>
      </trkpt>
      <trkpt lat="43.08019" lon="1.27093">
        <ele>711.20001220703</ele>
        <time>2019-07-14T10:16:59.000Z</time>
      </trkpt>
      <trkpt lat="43.0802" lon="1.27094">
        <ele>711.59997558594</ele>
        <time>2019-07-14T10:17:00.000Z</time>
      </trkpt>
      <trkpt lat="43.0802" lon="1.27095">
        <ele>712</ele>
        <time>2019-07-14T10:17:01.000Z</time>
      </trkpt>
      <trkpt lat="43.08021" lon="1.27097">
        <ele>712.40002441406</ele>
        <time>2019-07-14T10:17:02.000Z</time>
      </trkpt>
      <trkpt lat="43.08022" lon="1.27098">
        <ele>712.79998779297</ele>
        <time>2019-07-14T10:17:03.000Z</time>
      </trkpt>
      <trkpt lat="43.08024" lon="1.27103">
        <ele>712.79998779297</ele>
        <time>2019-07-14T10:17:06.000Z</time>
      </trkpt>
      <trkpt lat="43.08025" lon="1.27104">
        <ele>712.79998779297</ele>
        <time>2019-07-14T10:17:07.000Z</time>
      </trkpt>
      <trkpt lat="43.08029" lon="1.27109">
        <ele>713.20001220703</ele>
        <time>2019-07-14T10:17:12.000Z</time>
      </trkpt>
      <trkpt lat="43.08031" lon="1.27111">
        <ele>714.20001220703</ele>
        <time>2019-07-14T10:17:13.000Z</time>
      </trkpt>
      <trkpt lat="43.08032" lon="1.27113">
        <ele>714.59997558594</ele>
        <time>2019-07-14T10:17:14.000Z</time>
      </trkpt>
      <trkpt lat="43.08033" lon="1.27114">
        <ele>715</ele>
        <time>2019-07-14T10:17:15.000Z</time>
      </trkpt>
      <trkpt lat="43.08039" lon="1.27124">
        <ele>715</ele>
        <time>2019-07-14T10:17:21.000Z</time>
      </trkpt>
      <trkpt lat="43.08041" lon="1.27128">
        <ele>715.40002441406</ele>
        <time>2019-07-14T10:17:23.000Z</time>
      </trkpt>
      <trkpt lat="43.08042" lon="1.27129">
        <ele>715.79998779297</ele>
        <time>2019-07-14T10:17:24.000Z</time>
      </trkpt>
      <trkpt lat="43.08042" lon="1.27131">
        <ele>716.20001220703</ele>
        <time>2019-07-14T10:17:25.000Z</time>
      </trkpt>
      <trkpt lat="43.08043" lon="1.27133">
        <ele>716.59997558594</ele>
        <time>2019-07-14T10:17:26.000Z</time>
      </trkpt>
      <trkpt lat="43.08044" lon="1.27135">
        <ele>717</ele>
        <time>2019-07-14T10:17:27.000Z</time>
      </trkpt>
      <trkpt lat="43.08044" lon="1.27137">
        <ele>717</ele>
        <time>2019-07-14T10:17:28.000Z</time>
      </trkpt>
      <trkpt lat="43.08045" lon="1.27139">
        <ele>717</ele>
        <time>2019-07-14T10:17:29.000Z</time>
      </trkpt>
      <trkpt lat="43.08046" lon="1.27143">
        <ele>717</ele>
        <time>2019-07-14T10:17:31.000Z</time>
      </trkpt>
      <trkpt lat="43.08046" lon="1.27148">
        <ele>717</ele>
        <time>2019-07-14T10:17:33.000Z</time>
      </trkpt>
      <trkpt lat="43.08047" lon="1.27155">
        <ele>717</ele>
        <time>2019-07-14T10:17:36.000Z</time>
      </trkpt>
      <trkpt lat="43.08052" lon="1.27158">
        <ele>717</ele>
        <time>2019-07-14T10:17:40.000Z</time>
      </trkpt>
      <trkpt lat="43.08056" lon="1.27157">
        <ele>717</ele>
        <time>2019-07-14T10:17:42.000Z</time>
      </trkpt>
      <trkpt lat="43.08066" lon="1.27149">
        <ele>717</ele>
        <time>2019-07-14T10:17:47.000Z</time>
      </trkpt>
      <trkpt lat="43.08083" lon="1.2714">
        <ele>717</ele>
        <time>2019-07-14T10:17:52.000Z</time>
      </trkpt>
      <trkpt lat="43.081" lon="1.27133">
        <ele>716.40002441406</ele>
        <time>2019-07-14T10:17:55.000Z</time>
      </trkpt>
      <trkpt lat="43.08108" lon="1.27132">
        <ele>716</ele>
        <time>2019-07-14T10:17:56.000Z</time>
      </trkpt>
      <trkpt lat="43.08117" lon="1.27131">
        <ele>715.20001220703</ele>
        <time>2019-07-14T10:17:57.000Z</time>
      </trkpt>
      <trkpt lat="43.08127" lon="1.27131">
        <ele>714.59997558594</ele>
        <time>2019-07-14T10:17:58.000Z</time>
      </trkpt>
      <trkpt lat="43.08135" lon="1.27131">
        <ele>713.40002441406</ele>
        <time>2019-07-14T10:17:59.000Z</time>
      </trkpt>
      <trkpt lat="43.08144" lon="1.2713">
        <ele>712.40002441406</ele>
        <time>2019-07-14T10:18:00.000Z</time>
      </trkpt>
      <trkpt lat="43.08154" lon="1.27131">
        <ele>711.20001220703</ele>
        <time>2019-07-14T10:18:01.000Z</time>
      </trkpt>
      <trkpt lat="43.08164" lon="1.27133">
        <ele>709.79998779297</ele>
        <time>2019-07-14T10:18:02.000Z</time>
      </trkpt>
      <trkpt lat="43.08174" lon="1.27135">
        <ele>707</ele>
        <time>2019-07-14T10:18:03.000Z</time>
      </trkpt>
      <trkpt lat="43.08183" lon="1.27136">
        <ele>705.59997558594</ele>
        <time>2019-07-14T10:18:04.000Z</time>
      </trkpt>
      <trkpt lat="43.08191" lon="1.27141">
        <ele>704.20001220703</ele>
        <time>2019-07-14T10:18:05.000Z</time>
      </trkpt>
      <trkpt lat="43.08199" lon="1.27146">
        <ele>702.79998779297</ele>
        <time>2019-07-14T10:18:06.000Z</time>
      </trkpt>
      <trkpt lat="43.08205" lon="1.27153">
        <ele>701.40002441406</ele>
        <time>2019-07-14T10:18:07.000Z</time>
      </trkpt>
      <trkpt lat="43.08212" lon="1.27161">
        <ele>700</ele>
        <time>2019-07-14T10:18:08.000Z</time>
      </trkpt>
      <trkpt lat="43.08224" lon="1.27179">
        <ele>699.59997558594</ele>
        <time>2019-07-14T10:18:10.000Z</time>
      </trkpt>
      <trkpt lat="43.0823" lon="1.27188">
        <ele>699.20001220703</ele>
        <time>2019-07-14T10:18:11.000Z</time>
      </trkpt>
      <trkpt lat="43.08237" lon="1.27196">
        <ele>698.59997558594</ele>
        <time>2019-07-14T10:18:12.000Z</time>
      </trkpt>
      <trkpt lat="43.08246" lon="1.27201">
        <ele>698</ele>
        <time>2019-07-14T10:18:13.000Z</time>
      </trkpt>
      <trkpt lat="43.08254" lon="1.27207">
        <ele>697.20001220703</ele>
        <time>2019-07-14T10:18:14.000Z</time>
      </trkpt>
      <trkpt lat="43.08259" lon="1.27215">
        <ele>696.59997558594</ele>
        <time>2019-07-14T10:18:15.000Z</time>
      </trkpt>
      <trkpt lat="43.08263" lon="1.27226">
        <ele>695.79998779297</ele>
        <time>2019-07-14T10:18:16.000Z</time>
      </trkpt>
      <trkpt lat="43.08269" lon="1.27236">
        <ele>695</ele>
        <time>2019-07-14T10:18:17.000Z</time>
      </trkpt>
      <trkpt lat="43.08275" lon="1.27244">
        <ele>694.20001220703</ele>
        <time>2019-07-14T10:18:18.000Z</time>
      </trkpt>
      <trkpt lat="43.0828" lon="1.27253">
        <ele>693.20001220703</ele>
        <time>2019-07-14T10:18:19.000Z</time>
      </trkpt>
      <trkpt lat="43.08283" lon="1.27264">
        <ele>692</ele>
        <time>2019-07-14T10:18:20.000Z</time>
      </trkpt>
      <trkpt lat="43.08286" lon="1.27273">
        <ele>691</ele>
        <time>2019-07-14T10:18:21.000Z</time>
      </trkpt>
      <trkpt lat="43.08289" lon="1.27283">
        <ele>689.79998779297</ele>
        <time>2019-07-14T10:18:22.000Z</time>
      </trkpt>
      <trkpt lat="43.08294" lon="1.27291">
        <ele>688.40002441406</ele>
        <time>2019-07-14T10:18:23.000Z</time>
      </trkpt>
      <trkpt lat="43.08299" lon="1.27298">
        <ele>687</ele>
        <time>2019-07-14T10:18:24.000Z</time>
      </trkpt>
      <trkpt lat="43.08304" lon="1.27305">
        <ele>685.59997558594</ele>
        <time>2019-07-14T10:18:25.000Z</time>
      </trkpt>
      <trkpt lat="43.08313" lon="1.27317">
        <ele>684.20001220703</ele>
        <time>2019-07-14T10:18:26.000Z</time>
      </trkpt>
      <trkpt lat="43.08321" lon="1.27328">
        <ele>682.59997558594</ele>
        <time>2019-07-14T10:18:27.000Z</time>
      </trkpt>
      <trkpt lat="43.08327" lon="1.27336">
        <ele>679.20001220703</ele>
        <time>2019-07-14T10:18:28.000Z</time>
      </trkpt>
      <trkpt lat="43.08334" lon="1.27342">
        <ele>677.59997558594</ele>
        <time>2019-07-14T10:18:29.000Z</time>
      </trkpt>
      <trkpt lat="43.08342" lon="1.27348">
        <ele>676.20001220703</ele>
        <time>2019-07-14T10:18:30.000Z</time>
      </trkpt>
      <trkpt lat="43.08349" lon="1.27356">
        <ele>674.79998779297</ele>
        <time>2019-07-14T10:18:31.000Z</time>
      </trkpt>
      <trkpt lat="43.08356" lon="1.27364">
        <ele>673.40002441406</ele>
        <time>2019-07-14T10:18:32.000Z</time>
      </trkpt>
      <trkpt lat="43.08363" lon="1.27372">
        <ele>671.79998779297</ele>
        <time>2019-07-14T10:18:33.000Z</time>
      </trkpt>
      <trkpt lat="43.08369" lon="1.27379">
        <ele>670.40002441406</ele>
        <time>2019-07-14T10:18:34.000Z</time>
      </trkpt>
      <trkpt lat="43.08375" lon="1.27384">
        <ele>669</ele>
        <time>2019-07-14T10:18:35.000Z</time>
      </trkpt>
      <trkpt lat="43.08382" lon="1.27383">
        <ele>667.40002441406</ele>
        <time>2019-07-14T10:18:36.000Z</time>
      </trkpt>
      <trkpt lat="43.08389" lon="1.27382">
        <ele>666.20001220703</ele>
        <time>2019-07-14T10:18:37.000Z</time>
      </trkpt>
      <trkpt lat="43.08396" lon="1.27378">
        <ele>664.79998779297</ele>
        <time>2019-07-14T10:18:38.000Z</time>
      </trkpt>
      <trkpt lat="43.08402" lon="1.27372">
        <ele>663.59997558594</ele>
        <time>2019-07-14T10:18:39.000Z</time>
      </trkpt>
      <trkpt lat="43.08407" lon="1.27367">
        <ele>662.59997558594</ele>
        <time>2019-07-14T10:18:40.000Z</time>
      </trkpt>
      <trkpt lat="43.08412" lon="1.27361">
        <ele>661.59997558594</ele>
        <time>2019-07-14T10:18:41.000Z</time>
      </trkpt>
      <trkpt lat="43.08416" lon="1.27355">
        <ele>660.59997558594</ele>
        <time>2019-07-14T10:18:42.000Z</time>
      </trkpt>
      <trkpt lat="43.0842" lon="1.27349">
        <ele>659.59997558594</ele>
        <time>2019-07-14T10:18:43.000Z</time>
      </trkpt>
      <trkpt lat="43.08426" lon="1.27343">
        <ele>658.59997558594</ele>
        <time>2019-07-14T10:18:44.000Z</time>
      </trkpt>
      <trkpt lat="43.08429" lon="1.27338">
        <ele>657.59997558594</ele>
        <time>2019-07-14T10:18:45.000Z</time>
      </trkpt>
      <trkpt lat="43.08434" lon="1.27338">
        <ele>656.59997558594</ele>
        <time>2019-07-14T10:18:46.000Z</time>
      </trkpt>
      <trkpt lat="43.08437" lon="1.27337">
        <ele>655.59997558594</ele>
        <time>2019-07-14T10:18:47.000Z</time>
      </trkpt>
      <trkpt lat="43.0844" lon="1.27334">
        <ele>654.59997558594</ele>
        <time>2019-07-14T10:18:48.000Z</time>
      </trkpt>
      <trkpt lat="43.08442" lon="1.27332">
        <ele>653.59997558594</ele>
        <time>2019-07-14T10:18:49.000Z</time>
      </trkpt>
      <trkpt lat="43.08447" lon="1.2733">
        <ele>652.59997558594</ele>
        <time>2019-07-14T10:18:50.000Z</time>
      </trkpt>
      <trkpt lat="43.0845" lon="1.2733">
        <ele>651.79998779297</ele>
        <time>2019-07-14T10:18:51.000Z</time>
      </trkpt>
      <trkpt lat="43.08456" lon="1.2733">
        <ele>650</ele>
        <time>2019-07-14T10:18:52.000Z</time>
      </trkpt>
      <trkpt lat="43.08463" lon="1.2733">
        <ele>649</ele>
        <time>2019-07-14T10:18:53.000Z</time>
      </trkpt>
      <trkpt lat="43.08471" lon="1.2733">
        <ele>647.79998779297</ele>
        <time>2019-07-14T10:18:54.000Z</time>
      </trkpt>
      <trkpt lat="43.08478" lon="1.27329">
        <ele>646.59997558594</ele>
        <time>2019-07-14T10:18:55.000Z</time>
      </trkpt>
      <trkpt lat="43.08483" lon="1.27328">
        <ele>645.40002441406</ele>
        <time>2019-07-14T10:18:56.000Z</time>
      </trkpt>
      <trkpt lat="43.08493" lon="1.27327">
        <ele>643.79998779297</ele>
        <time>2019-07-14T10:18:57.000Z</time>
      </trkpt>
      <trkpt lat="43.08502" lon="1.27328">
        <ele>642.40002441406</ele>
        <time>2019-07-14T10:18:58.000Z</time>
      </trkpt>
      <trkpt lat="43.08512" lon="1.2733">
        <ele>640.79998779297</ele>
        <time>2019-07-14T10:18:59.000Z</time>
      </trkpt>
      <trkpt lat="43.08523" lon="1.27334">
        <ele>639.40002441406</ele>
        <time>2019-07-14T10:19:00.000Z</time>
      </trkpt>
      <trkpt lat="43.08533" lon="1.27337">
        <ele>638</ele>
        <time>2019-07-14T10:19:01.000Z</time>
      </trkpt>
      <trkpt lat="43.08543" lon="1.2734">
        <ele>636.59997558594</ele>
        <time>2019-07-14T10:19:02.000Z</time>
      </trkpt>
      <trkpt lat="43.08553" lon="1.27344">
        <ele>635</ele>
        <time>2019-07-14T10:19:03.000Z</time>
      </trkpt>
      <trkpt lat="43.08561" lon="1.27346">
        <ele>633.40002441406</ele>
        <time>2019-07-14T10:19:04.000Z</time>
      </trkpt>
      <trkpt lat="43.08569" lon="1.27349">
        <ele>632</ele>
        <time>2019-07-14T10:19:05.000Z</time>
      </trkpt>
      <trkpt lat="43.08576" lon="1.27351">
        <ele>630.59997558594</ele>
        <time>2019-07-14T10:19:06.000Z</time>
      </trkpt>
      <trkpt lat="43.08583" lon="1.27353">
        <ele>629.20001220703</ele>
        <time>2019-07-14T10:19:07.000Z</time>
      </trkpt>
      <trkpt lat="43.08589" lon="1.27355">
        <ele>628</ele>
        <time>2019-07-14T10:19:08.000Z</time>
      </trkpt>
      <trkpt lat="43.08596" lon="1.27357">
        <ele>626.59997558594</ele>
        <time>2019-07-14T10:19:09.000Z</time>
      </trkpt>
      <trkpt lat="43.08602" lon="1.27359">
        <ele>625.40002441406</ele>
        <time>2019-07-14T10:19:10.000Z</time>
      </trkpt>
      <trkpt lat="43.08608" lon="1.27361">
        <ele>624.20001220703</ele>
        <time>2019-07-14T10:19:11.000Z</time>
      </trkpt>
      <trkpt lat="43.08615" lon="1.27365">
        <ele>623</ele>
        <time>2019-07-14T10:19:12.000Z</time>
      </trkpt>
      <trkpt lat="43.08622" lon="1.2737">
        <ele>621.79998779297</ele>
        <time>2019-07-14T10:19:13.000Z</time>
      </trkpt>
      <trkpt lat="43.0863" lon="1.27374">
        <ele>620.59997558594</ele>
        <time>2019-07-14T10:19:14.000Z</time>
      </trkpt>
      <trkpt lat="43.08639" lon="1.27376">
        <ele>619.20001220703</ele>
        <time>2019-07-14T10:19:15.000Z</time>
      </trkpt>
      <trkpt lat="43.08647" lon="1.27378">
        <ele>617.79998779297</ele>
        <time>2019-07-14T10:19:16.000Z</time>
      </trkpt>
      <trkpt lat="43.08655" lon="1.27381">
        <ele>614.79998779297</ele>
        <time>2019-07-14T10:19:17.000Z</time>
      </trkpt>
      <trkpt lat="43.08663" lon="1.27384">
        <ele>613.40002441406</ele>
        <time>2019-07-14T10:19:18.000Z</time>
      </trkpt>
      <trkpt lat="43.0867" lon="1.27387">
        <ele>612.20001220703</ele>
        <time>2019-07-14T10:19:19.000Z</time>
      </trkpt>
      <trkpt lat="43.08676" lon="1.2739">
        <ele>610.79998779297</ele>
        <time>2019-07-14T10:19:20.000Z</time>
      </trkpt>
      <trkpt lat="43.08682" lon="1.27392">
        <ele>609.59997558594</ele>
        <time>2019-07-14T10:19:21.000Z</time>
      </trkpt>
      <trkpt lat="43.0869" lon="1.27397">
        <ele>608.40002441406</ele>
        <time>2019-07-14T10:19:22.000Z</time>
      </trkpt>
      <trkpt lat="43.08699" lon="1.27398">
        <ele>607.20001220703</ele>
        <time>2019-07-14T10:19:23.000Z</time>
      </trkpt>
      <trkpt lat="43.08707" lon="1.27396">
        <ele>605.79998779297</ele>
        <time>2019-07-14T10:19:24.000Z</time>
      </trkpt>
      <trkpt lat="43.08714" lon="1.27392">
        <ele>604.59997558594</ele>
        <time>2019-07-14T10:19:25.000Z</time>
      </trkpt>
      <trkpt lat="43.0872" lon="1.27387">
        <ele>603.40002441406</ele>
        <time>2019-07-14T10:19:26.000Z</time>
      </trkpt>
      <trkpt lat="43.08725" lon="1.27382">
        <ele>602.20001220703</ele>
        <time>2019-07-14T10:19:27.000Z</time>
      </trkpt>
      <trkpt lat="43.08729" lon="1.27377">
        <ele>601.59997558594</ele>
        <time>2019-07-14T10:19:28.000Z</time>
      </trkpt>
      <trkpt lat="43.08734" lon="1.27376">
        <ele>600.79998779297</ele>
        <time>2019-07-14T10:19:29.000Z</time>
      </trkpt>
      <trkpt lat="43.08739" lon="1.2738">
        <ele>600.20001220703</ele>
        <time>2019-07-14T10:19:30.000Z</time>
      </trkpt>
      <trkpt lat="43.08744" lon="1.27383">
        <ele>599.59997558594</ele>
        <time>2019-07-14T10:19:31.000Z</time>
      </trkpt>
      <trkpt lat="43.08748" lon="1.27388">
        <ele>599</ele>
        <time>2019-07-14T10:19:32.000Z</time>
      </trkpt>
      <trkpt lat="43.08749" lon="1.27394">
        <ele>598.40002441406</ele>
        <time>2019-07-14T10:19:33.000Z</time>
      </trkpt>
      <trkpt lat="43.08751" lon="1.274">
        <ele>598</ele>
        <time>2019-07-14T10:19:34.000Z</time>
      </trkpt>
      <trkpt lat="43.08752" lon="1.27405">
        <ele>597.40002441406</ele>
        <time>2019-07-14T10:19:35.000Z</time>
      </trkpt>
      <trkpt lat="43.08756" lon="1.27408">
        <ele>596.79998779297</ele>
        <time>2019-07-14T10:19:36.000Z</time>
      </trkpt>
      <trkpt lat="43.08758" lon="1.2741">
        <ele>596.40002441406</ele>
        <time>2019-07-14T10:19:37.000Z</time>
      </trkpt>
      <trkpt lat="43.08759" lon="1.27416">
        <ele>595.79998779297</ele>
        <time>2019-07-14T10:19:38.000Z</time>
      </trkpt>
      <trkpt lat="43.08764" lon="1.27424">
        <ele>595.20001220703</ele>
        <time>2019-07-14T10:19:39.000Z</time>
      </trkpt>
      <trkpt lat="43.08767" lon="1.27427">
        <ele>594.59997558594</ele>
        <time>2019-07-14T10:19:40.000Z</time>
      </trkpt>
      <trkpt lat="43.0877" lon="1.2743">
        <ele>593.20001220703</ele>
        <time>2019-07-14T10:19:41.000Z</time>
      </trkpt>
      <trkpt lat="43.08772" lon="1.27432">
        <ele>592.59997558594</ele>
        <time>2019-07-14T10:19:42.000Z</time>
      </trkpt>
      <trkpt lat="43.08773" lon="1.27433">
        <ele>592</ele>
        <time>2019-07-14T10:19:43.000Z</time>
      </trkpt>
      <trkpt lat="43.08774" lon="1.27434">
        <ele>591.59997558594</ele>
        <time>2019-07-14T10:19:44.000Z</time>
      </trkpt>
      <trkpt lat="43.08774" lon="1.27436">
        <ele>591.20001220703</ele>
        <time>2019-07-14T10:19:45.000Z</time>
      </trkpt>
      <trkpt lat="43.08774" lon="1.27438">
        <ele>590.79998779297</ele>
        <time>2019-07-14T10:19:46.000Z</time>
      </trkpt>
      <trkpt lat="43.08775" lon="1.2744">
        <ele>590.20001220703</ele>
        <time>2019-07-14T10:19:47.000Z</time>
      </trkpt>
      <trkpt lat="43.08775" lon="1.27443">
        <ele>589.79998779297</ele>
        <time>2019-07-14T10:19:48.000Z</time>
      </trkpt>
      <trkpt lat="43.08775" lon="1.27461">
        <ele>589.79998779297</ele>
        <time>2019-07-14T10:19:55.000Z</time>
      </trkpt>
      <trkpt lat="43.08776" lon="1.27475">
        <ele>589.79998779297</ele>
        <time>2019-07-14T10:19:59.000Z</time>
      </trkpt>
      <trkpt lat="43.08777" lon="1.27478">
        <ele>589.79998779297</ele>
        <time>2019-07-14T10:20:00.000Z</time>
      </trkpt>
      <trkpt lat="43.08779" lon="1.27503">
        <ele>589.79998779297</ele>
        <time>2019-07-14T10:20:06.000Z</time>
      </trkpt>
      <trkpt lat="43.0878" lon="1.27526">
        <ele>589.79998779297</ele>
        <time>2019-07-14T10:20:10.000Z</time>
      </trkpt>
      <trkpt lat="43.08781" lon="1.27545">
        <ele>589.79998779297</ele>
        <time>2019-07-14T10:20:13.000Z</time>
      </trkpt>
      <trkpt lat="43.08779" lon="1.27556">
        <ele>589.79998779297</ele>
        <time>2019-07-14T10:20:15.000Z</time>
      </trkpt>
      <trkpt lat="43.08777" lon="1.27566">
        <ele>589.79998779297</ele>
        <time>2019-07-14T10:20:17.000Z</time>
      </trkpt>
      <trkpt lat="43.08774" lon="1.27579">
        <ele>589.79998779297</ele>
        <time>2019-07-14T10:20:20.000Z</time>
      </trkpt>
      <trkpt lat="43.08771" lon="1.27583">
        <ele>589.79998779297</ele>
        <time>2019-07-14T10:20:22.000Z</time>
      </trkpt>
      <trkpt lat="43.08765" lon="1.27581">
        <ele>589.79998779297</ele>
        <time>2019-07-14T10:20:26.000Z</time>
      </trkpt>
      <trkpt lat="43.08754" lon="1.27583">
        <ele>589.79998779297</ele>
        <time>2019-07-14T10:20:28.000Z</time>
      </trkpt>
      <trkpt lat="43.08745" lon="1.27584">
        <ele>589.20001220703</ele>
        <time>2019-07-14T10:20:29.000Z</time>
      </trkpt>
      <trkpt lat="43.08736" lon="1.27586">
        <ele>588.79998779297</ele>
        <time>2019-07-14T10:20:30.000Z</time>
      </trkpt>
      <trkpt lat="43.08728" lon="1.27589">
        <ele>587.59997558594</ele>
        <time>2019-07-14T10:20:31.000Z</time>
      </trkpt>
      <trkpt lat="43.08719" lon="1.27591">
        <ele>587</ele>
        <time>2019-07-14T10:20:32.000Z</time>
      </trkpt>
      <trkpt lat="43.08712" lon="1.27594">
        <ele>586.59997558594</ele>
        <time>2019-07-14T10:20:33.000Z</time>
      </trkpt>
      <trkpt lat="43.08705" lon="1.27597">
        <ele>586.20001220703</ele>
        <time>2019-07-14T10:20:34.000Z</time>
      </trkpt>
      <trkpt lat="43.08698" lon="1.276">
        <ele>585.79998779297</ele>
        <time>2019-07-14T10:20:35.000Z</time>
      </trkpt>
      <trkpt lat="43.08692" lon="1.27602">
        <ele>585.40002441406</ele>
        <time>2019-07-14T10:20:36.000Z</time>
      </trkpt>
      <trkpt lat="43.08685" lon="1.27605">
        <ele>585</ele>
        <time>2019-07-14T10:20:37.000Z</time>
      </trkpt>
      <trkpt lat="43.08678" lon="1.27608">
        <ele>585</ele>
        <time>2019-07-14T10:20:38.000Z</time>
      </trkpt>
      <trkpt lat="43.0867" lon="1.27611">
        <ele>584.59997558594</ele>
        <time>2019-07-14T10:20:39.000Z</time>
      </trkpt>
      <trkpt lat="43.08663" lon="1.27615">
        <ele>584</ele>
        <time>2019-07-14T10:20:40.000Z</time>
      </trkpt>
      <trkpt lat="43.08657" lon="1.27619">
        <ele>583.59997558594</ele>
        <time>2019-07-14T10:20:41.000Z</time>
      </trkpt>
      <trkpt lat="43.08653" lon="1.27626">
        <ele>583</ele>
        <time>2019-07-14T10:20:42.000Z</time>
      </trkpt>
      <trkpt lat="43.08649" lon="1.27633">
        <ele>582.40002441406</ele>
        <time>2019-07-14T10:20:43.000Z</time>
      </trkpt>
      <trkpt lat="43.08646" lon="1.27642">
        <ele>581.79998779297</ele>
        <time>2019-07-14T10:20:44.000Z</time>
      </trkpt>
      <trkpt lat="43.08643" lon="1.2765">
        <ele>581.20001220703</ele>
        <time>2019-07-14T10:20:45.000Z</time>
      </trkpt>
      <trkpt lat="43.0864" lon="1.27659">
        <ele>580.79998779297</ele>
        <time>2019-07-14T10:20:46.000Z</time>
      </trkpt>
      <trkpt lat="43.08639" lon="1.27667">
        <ele>580.20001220703</ele>
        <time>2019-07-14T10:20:47.000Z</time>
      </trkpt>
      <trkpt lat="43.08638" lon="1.27673">
        <ele>579.79998779297</ele>
        <time>2019-07-14T10:20:48.000Z</time>
      </trkpt>
      <trkpt lat="43.08638" lon="1.27679">
        <ele>579.40002441406</ele>
        <time>2019-07-14T10:20:49.000Z</time>
      </trkpt>
      <trkpt lat="43.08639" lon="1.27685">
        <ele>579</ele>
        <time>2019-07-14T10:20:50.000Z</time>
      </trkpt>
      <trkpt lat="43.08639" lon="1.27692">
        <ele>578.59997558594</ele>
        <time>2019-07-14T10:20:51.000Z</time>
      </trkpt>
      <trkpt lat="43.0864" lon="1.27698">
        <ele>578.20001220703</ele>
        <time>2019-07-14T10:20:52.000Z</time>
      </trkpt>
      <trkpt lat="43.08641" lon="1.27705">
        <ele>577.59997558594</ele>
        <time>2019-07-14T10:20:53.000Z</time>
      </trkpt>
      <trkpt lat="43.08642" lon="1.27713">
        <ele>577.20001220703</ele>
        <time>2019-07-14T10:20:54.000Z</time>
      </trkpt>
      <trkpt lat="43.08642" lon="1.27724">
        <ele>576.40002441406</ele>
        <time>2019-07-14T10:20:55.000Z</time>
      </trkpt>
      <trkpt lat="43.08642" lon="1.27737">
        <ele>574.79998779297</ele>
        <time>2019-07-14T10:20:56.000Z</time>
      </trkpt>
      <trkpt lat="43.08643" lon="1.2775">
        <ele>574</ele>
        <time>2019-07-14T10:20:57.000Z</time>
      </trkpt>
      <trkpt lat="43.08643" lon="1.27764">
        <ele>573</ele>
        <time>2019-07-14T10:20:58.000Z</time>
      </trkpt>
      <trkpt lat="43.08644" lon="1.27776">
        <ele>572</ele>
        <time>2019-07-14T10:20:59.000Z</time>
      </trkpt>
      <trkpt lat="43.08644" lon="1.2779">
        <ele>571</ele>
        <time>2019-07-14T10:21:00.000Z</time>
      </trkpt>
      <trkpt lat="43.08644" lon="1.27805">
        <ele>569.79998779297</ele>
        <time>2019-07-14T10:21:01.000Z</time>
      </trkpt>
      <trkpt lat="43.08644" lon="1.27819">
        <ele>568.79998779297</ele>
        <time>2019-07-14T10:21:02.000Z</time>
      </trkpt>
      <trkpt lat="43.08645" lon="1.27834">
        <ele>567.59997558594</ele>
        <time>2019-07-14T10:21:03.000Z</time>
      </trkpt>
      <trkpt lat="43.08647" lon="1.27848">
        <ele>566.40002441406</ele>
        <time>2019-07-14T10:21:04.000Z</time>
      </trkpt>
      <trkpt lat="43.08649" lon="1.2786">
        <ele>565.20001220703</ele>
        <time>2019-07-14T10:21:05.000Z</time>
      </trkpt>
      <trkpt lat="43.08653" lon="1.27871">
        <ele>564</ele>
        <time>2019-07-14T10:21:06.000Z</time>
      </trkpt>
      <trkpt lat="43.08658" lon="1.2788">
        <ele>562.59997558594</ele>
        <time>2019-07-14T10:21:07.000Z</time>
      </trkpt>
      <trkpt lat="43.08665" lon="1.27885">
        <ele>561.40002441406</ele>
        <time>2019-07-14T10:21:08.000Z</time>
      </trkpt>
      <trkpt lat="43.08671" lon="1.27892">
        <ele>560.20001220703</ele>
        <time>2019-07-14T10:21:09.000Z</time>
      </trkpt>
      <trkpt lat="43.08677" lon="1.279">
        <ele>559</ele>
        <time>2019-07-14T10:21:10.000Z</time>
      </trkpt>
      <trkpt lat="43.08681" lon="1.2791">
        <ele>557.59997558594</ele>
        <time>2019-07-14T10:21:11.000Z</time>
      </trkpt>
      <trkpt lat="43.08685" lon="1.27919">
        <ele>556.20001220703</ele>
        <time>2019-07-14T10:21:12.000Z</time>
      </trkpt>
      <trkpt lat="43.08688" lon="1.27927">
        <ele>554.79998779297</ele>
        <time>2019-07-14T10:21:13.000Z</time>
      </trkpt>
      <trkpt lat="43.08688" lon="1.27935">
        <ele>553.59997558594</ele>
        <time>2019-07-14T10:21:14.000Z</time>
      </trkpt>
      <trkpt lat="43.08688" lon="1.27943">
        <ele>552.40002441406</ele>
        <time>2019-07-14T10:21:15.000Z</time>
      </trkpt>
      <trkpt lat="43.08686" lon="1.27951">
        <ele>551.20001220703</ele>
        <time>2019-07-14T10:21:16.000Z</time>
      </trkpt>
      <trkpt lat="43.08683" lon="1.27958">
        <ele>550</ele>
        <time>2019-07-14T10:21:17.000Z</time>
      </trkpt>
      <trkpt lat="43.0868" lon="1.27966">
        <ele>548.79998779297</ele>
        <time>2019-07-14T10:21:18.000Z</time>
      </trkpt>
      <trkpt lat="43.08668" lon="1.27999">
        <ele>548.79998779297</ele>
        <time>2019-07-14T10:21:22.000Z</time>
      </trkpt>
      <trkpt lat="43.08667" lon="1.28019">
        <ele>548.79998779297</ele>
        <time>2019-07-14T10:21:25.000Z</time>
      </trkpt>
      <trkpt lat="43.08665" lon="1.28022">
        <ele>548.40002441406</ele>
        <time>2019-07-14T10:21:26.000Z</time>
      </trkpt>
      <trkpt lat="43.08663" lon="1.28022">
        <ele>548</ele>
        <time>2019-07-14T10:21:27.000Z</time>
      </trkpt>
      <trkpt lat="43.08661" lon="1.2802">
        <ele>547.59997558594</ele>
        <time>2019-07-14T10:21:28.000Z</time>
      </trkpt>
      <trkpt lat="43.08659" lon="1.28016">
        <ele>547</ele>
        <time>2019-07-14T10:21:29.000Z</time>
      </trkpt>
      <trkpt lat="43.08656" lon="1.28013">
        <ele>546.59997558594</ele>
        <time>2019-07-14T10:21:30.000Z</time>
      </trkpt>
      <trkpt lat="43.08643" lon="1.28012">
        <ele>546.59997558594</ele>
        <time>2019-07-14T10:21:33.000Z</time>
      </trkpt>
      <trkpt lat="43.08639" lon="1.28012">
        <ele>546.59997558594</ele>
        <time>2019-07-14T10:21:34.000Z</time>
      </trkpt>
      <trkpt lat="43.08633" lon="1.28013">
        <ele>546.59997558594</ele>
        <time>2019-07-14T10:21:35.000Z</time>
      </trkpt>
      <trkpt lat="43.08623" lon="1.28015">
        <ele>546.20001220703</ele>
        <time>2019-07-14T10:21:37.000Z</time>
      </trkpt>
      <trkpt lat="43.08618" lon="1.28014">
        <ele>545.79998779297</ele>
        <time>2019-07-14T10:21:38.000Z</time>
      </trkpt>
      <trkpt lat="43.08612" lon="1.28015">
        <ele>545.40002441406</ele>
        <time>2019-07-14T10:21:39.000Z</time>
      </trkpt>
      <trkpt lat="43.08606" lon="1.28016">
        <ele>545</ele>
        <time>2019-07-14T10:21:40.000Z</time>
      </trkpt>
      <trkpt lat="43.08601" lon="1.28018">
        <ele>544.40002441406</ele>
        <time>2019-07-14T10:21:41.000Z</time>
      </trkpt>
      <trkpt lat="43.08595" lon="1.2802">
        <ele>544</ele>
        <time>2019-07-14T10:21:42.000Z</time>
      </trkpt>
      <trkpt lat="43.08588" lon="1.28022">
        <ele>543.59997558594</ele>
        <time>2019-07-14T10:21:43.000Z</time>
      </trkpt>
      <trkpt lat="43.0858" lon="1.28023">
        <ele>542.79998779297</ele>
        <time>2019-07-14T10:21:44.000Z</time>
      </trkpt>
      <trkpt lat="43.08572" lon="1.28022">
        <ele>541.40002441406</ele>
        <time>2019-07-14T10:21:45.000Z</time>
      </trkpt>
      <trkpt lat="43.08563" lon="1.28021">
        <ele>540.59997558594</ele>
        <time>2019-07-14T10:21:46.000Z</time>
      </trkpt>
      <trkpt lat="43.08555" lon="1.28019">
        <ele>539.79998779297</ele>
        <time>2019-07-14T10:21:47.000Z</time>
      </trkpt>
      <trkpt lat="43.08546" lon="1.28016">
        <ele>538.79998779297</ele>
        <time>2019-07-14T10:21:48.000Z</time>
      </trkpt>
      <trkpt lat="43.08536" lon="1.28012">
        <ele>537.59997558594</ele>
        <time>2019-07-14T10:21:49.000Z</time>
      </trkpt>
      <trkpt lat="43.08527" lon="1.28011">
        <ele>536.40002441406</ele>
        <time>2019-07-14T10:21:50.000Z</time>
      </trkpt>
      <trkpt lat="43.08519" lon="1.2801">
        <ele>535</ele>
        <time>2019-07-14T10:21:51.000Z</time>
      </trkpt>
      <trkpt lat="43.08512" lon="1.28011">
        <ele>533.59997558594</ele>
        <time>2019-07-14T10:21:52.000Z</time>
      </trkpt>
      <trkpt lat="43.08505" lon="1.28012">
        <ele>532.20001220703</ele>
        <time>2019-07-14T10:21:53.000Z</time>
      </trkpt>
      <trkpt lat="43.08498" lon="1.28012">
        <ele>531</ele>
        <time>2019-07-14T10:21:54.000Z</time>
      </trkpt>
      <trkpt lat="43.08492" lon="1.2801">
        <ele>529.59997558594</ele>
        <time>2019-07-14T10:21:55.000Z</time>
      </trkpt>
      <trkpt lat="43.08486" lon="1.28007">
        <ele>528.40002441406</ele>
        <time>2019-07-14T10:21:56.000Z</time>
      </trkpt>
      <trkpt lat="43.08479" lon="1.28003">
        <ele>527.20001220703</ele>
        <time>2019-07-14T10:21:57.000Z</time>
      </trkpt>
      <trkpt lat="43.08473" lon="1.27997">
        <ele>526.20001220703</ele>
        <time>2019-07-14T10:21:58.000Z</time>
      </trkpt>
      <trkpt lat="43.08466" lon="1.27989">
        <ele>525.20001220703</ele>
        <time>2019-07-14T10:21:59.000Z</time>
      </trkpt>
      <trkpt lat="43.08459" lon="1.27982">
        <ele>524</ele>
        <time>2019-07-14T10:22:00.000Z</time>
      </trkpt>
      <trkpt lat="43.08453" lon="1.27974">
        <ele>523</ele>
        <time>2019-07-14T10:22:01.000Z</time>
      </trkpt>
      <trkpt lat="43.08446" lon="1.27968">
        <ele>523</ele>
        <time>2019-07-14T10:22:02.000Z</time>
      </trkpt>
      <trkpt lat="43.08433" lon="1.27966">
        <ele>523</ele>
        <time>2019-07-14T10:22:04.000Z</time>
      </trkpt>
      <trkpt lat="43.08428" lon="1.27966">
        <ele>522.59997558594</ele>
        <time>2019-07-14T10:22:05.000Z</time>
      </trkpt>
      <trkpt lat="43.08424" lon="1.27966">
        <ele>522</ele>
        <time>2019-07-14T10:22:06.000Z</time>
      </trkpt>
      <trkpt lat="43.08422" lon="1.27966">
        <ele>521.59997558594</ele>
        <time>2019-07-14T10:22:07.000Z</time>
      </trkpt>
      <trkpt lat="43.08423" lon="1.27967">
        <ele>521.20001220703</ele>
        <time>2019-07-14T10:22:08.000Z</time>
      </trkpt>
      <trkpt lat="43.08424" lon="1.2797">
        <ele>520.79998779297</ele>
        <time>2019-07-14T10:22:09.000Z</time>
      </trkpt>
      <trkpt lat="43.08425" lon="1.27973">
        <ele>520.79998779297</ele>
        <time>2019-07-14T10:22:10.000Z</time>
      </trkpt>
      <trkpt lat="43.08437" lon="1.27997">
        <ele>521.20001220703</ele>
        <time>2019-07-14T10:22:16.000Z</time>
      </trkpt>
      <trkpt lat="43.08439" lon="1.28001">
        <ele>521.79998779297</ele>
        <time>2019-07-14T10:22:17.000Z</time>
      </trkpt>
      <trkpt lat="43.0844" lon="1.28004">
        <ele>522.20001220703</ele>
        <time>2019-07-14T10:22:18.000Z</time>
      </trkpt>
      <trkpt lat="43.08441" lon="1.28008">
        <ele>522.59997558594</ele>
        <time>2019-07-14T10:22:19.000Z</time>
      </trkpt>
      <trkpt lat="43.08443" lon="1.28013">
        <ele>523</ele>
        <time>2019-07-14T10:22:20.000Z</time>
      </trkpt>
      <trkpt lat="43.08444" lon="1.28017">
        <ele>523.40002441406</ele>
        <time>2019-07-14T10:22:21.000Z</time>
      </trkpt>
      <trkpt lat="43.08445" lon="1.2802">
        <ele>523.79998779297</ele>
        <time>2019-07-14T10:22:22.000Z</time>
      </trkpt>
      <trkpt lat="43.08447" lon="1.28023">
        <ele>524.40002441406</ele>
        <time>2019-07-14T10:22:23.000Z</time>
      </trkpt>
      <trkpt lat="43.08449" lon="1.2803">
        <ele>525.20001220703</ele>
        <time>2019-07-14T10:22:24.000Z</time>
      </trkpt>
      <trkpt lat="43.08452" lon="1.28042">
        <ele>525.20001220703</ele>
        <time>2019-07-14T10:22:28.000Z</time>
      </trkpt>
      <trkpt lat="43.08456" lon="1.28048">
        <ele>525.20001220703</ele>
        <time>2019-07-14T10:22:29.000Z</time>
      </trkpt>
      <trkpt lat="43.08466" lon="1.28068">
        <ele>525.20001220703</ele>
        <time>2019-07-14T10:22:32.000Z</time>
      </trkpt>
      <trkpt lat="43.08471" lon="1.28082">
        <ele>525.20001220703</ele>
        <time>2019-07-14T10:22:34.000Z</time>
      </trkpt>
      <trkpt lat="43.08476" lon="1.28103">
        <ele>525.20001220703</ele>
        <time>2019-07-14T10:22:37.000Z</time>
      </trkpt>
      <trkpt lat="43.08477" lon="1.2811">
        <ele>525.20001220703</ele>
        <time>2019-07-14T10:22:38.000Z</time>
      </trkpt>
      <trkpt lat="43.08481" lon="1.28137">
        <ele>525.20001220703</ele>
        <time>2019-07-14T10:22:42.000Z</time>
      </trkpt>
      <trkpt lat="43.08487" lon="1.28152">
        <ele>525.20001220703</ele>
        <time>2019-07-14T10:22:44.000Z</time>
      </trkpt>
      <trkpt lat="43.08491" lon="1.28167">
        <ele>525.20001220703</ele>
        <time>2019-07-14T10:22:46.000Z</time>
      </trkpt>
      <trkpt lat="43.08495" lon="1.28179">
        <ele>524.59997558594</ele>
        <time>2019-07-14T10:22:48.000Z</time>
      </trkpt>
      <trkpt lat="43.08497" lon="1.28186">
        <ele>524.20001220703</ele>
        <time>2019-07-14T10:22:49.000Z</time>
      </trkpt>
      <trkpt lat="43.085" lon="1.28194">
        <ele>523.59997558594</ele>
        <time>2019-07-14T10:22:50.000Z</time>
      </trkpt>
      <trkpt lat="43.08504" lon="1.28203">
        <ele>523.20001220703</ele>
        <time>2019-07-14T10:22:51.000Z</time>
      </trkpt>
      <trkpt lat="43.08509" lon="1.28213">
        <ele>522.59997558594</ele>
        <time>2019-07-14T10:22:52.000Z</time>
      </trkpt>
      <trkpt lat="43.08515" lon="1.28226">
        <ele>522</ele>
        <time>2019-07-14T10:22:53.000Z</time>
      </trkpt>
      <trkpt lat="43.08521" lon="1.28239">
        <ele>521.59997558594</ele>
        <time>2019-07-14T10:22:54.000Z</time>
      </trkpt>
      <trkpt lat="43.08526" lon="1.28253">
        <ele>520.79998779297</ele>
        <time>2019-07-14T10:22:55.000Z</time>
      </trkpt>
      <trkpt lat="43.0853" lon="1.28267">
        <ele>520.20001220703</ele>
        <time>2019-07-14T10:22:56.000Z</time>
      </trkpt>
      <trkpt lat="43.08534" lon="1.2828">
        <ele>519.40002441406</ele>
        <time>2019-07-14T10:22:57.000Z</time>
      </trkpt>
      <trkpt lat="43.08537" lon="1.28293">
        <ele>517.79998779297</ele>
        <time>2019-07-14T10:22:58.000Z</time>
      </trkpt>
      <trkpt lat="43.0854" lon="1.28306">
        <ele>517</ele>
        <time>2019-07-14T10:22:59.000Z</time>
      </trkpt>
      <trkpt lat="43.08542" lon="1.28319">
        <ele>516.40002441406</ele>
        <time>2019-07-14T10:23:00.000Z</time>
      </trkpt>
      <trkpt lat="43.08543" lon="1.28331">
        <ele>515.59997558594</ele>
        <time>2019-07-14T10:23:01.000Z</time>
      </trkpt>
      <trkpt lat="43.08543" lon="1.28344">
        <ele>514.79998779297</ele>
        <time>2019-07-14T10:23:02.000Z</time>
      </trkpt>
      <trkpt lat="43.08543" lon="1.28358">
        <ele>514.20001220703</ele>
        <time>2019-07-14T10:23:03.000Z</time>
      </trkpt>
      <trkpt lat="43.08545" lon="1.28372">
        <ele>513.40002441406</ele>
        <time>2019-07-14T10:23:04.000Z</time>
      </trkpt>
      <trkpt lat="43.08546" lon="1.28385">
        <ele>512.79998779297</ele>
        <time>2019-07-14T10:23:05.000Z</time>
      </trkpt>
      <trkpt lat="43.08547" lon="1.28398">
        <ele>512</ele>
        <time>2019-07-14T10:23:06.000Z</time>
      </trkpt>
      <trkpt lat="43.08549" lon="1.28412">
        <ele>511.20001220703</ele>
        <time>2019-07-14T10:23:07.000Z</time>
      </trkpt>
      <trkpt lat="43.08551" lon="1.28426">
        <ele>510.20001220703</ele>
        <time>2019-07-14T10:23:08.000Z</time>
      </trkpt>
      <trkpt lat="43.08553" lon="1.28441">
        <ele>509.20001220703</ele>
        <time>2019-07-14T10:23:09.000Z</time>
      </trkpt>
      <trkpt lat="43.08555" lon="1.28457">
        <ele>508</ele>
        <time>2019-07-14T10:23:10.000Z</time>
      </trkpt>
      <trkpt lat="43.08557" lon="1.28471">
        <ele>506.79998779297</ele>
        <time>2019-07-14T10:23:11.000Z</time>
      </trkpt>
      <trkpt lat="43.08559" lon="1.28486">
        <ele>505.20001220703</ele>
        <time>2019-07-14T10:23:12.000Z</time>
      </trkpt>
      <trkpt lat="43.0856" lon="1.285">
        <ele>503.79998779297</ele>
        <time>2019-07-14T10:23:13.000Z</time>
      </trkpt>
      <trkpt lat="43.08561" lon="1.28514">
        <ele>502.39999389648</ele>
        <time>2019-07-14T10:23:14.000Z</time>
      </trkpt>
      <trkpt lat="43.0856" lon="1.28527">
        <ele>501.20001220703</ele>
        <time>2019-07-14T10:23:15.000Z</time>
      </trkpt>
      <trkpt lat="43.08562" lon="1.28541">
        <ele>499.79998779297</ele>
        <time>2019-07-14T10:23:16.000Z</time>
      </trkpt>
      <trkpt lat="43.08565" lon="1.28554">
        <ele>498.79998779297</ele>
        <time>2019-07-14T10:23:17.000Z</time>
      </trkpt>
      <trkpt lat="43.08569" lon="1.28564">
        <ele>498</ele>
        <time>2019-07-14T10:23:18.000Z</time>
      </trkpt>
      <trkpt lat="43.08571" lon="1.28574">
        <ele>497</ele>
        <time>2019-07-14T10:23:19.000Z</time>
      </trkpt>
      <trkpt lat="43.08571" lon="1.28579">
        <ele>496.20001220703</ele>
        <time>2019-07-14T10:23:20.000Z</time>
      </trkpt>
      <trkpt lat="43.08573" lon="1.28582">
        <ele>495.39999389648</ele>
        <time>2019-07-14T10:23:21.000Z</time>
      </trkpt>
      <trkpt lat="43.08574" lon="1.28585">
        <ele>494.60000610352</ele>
        <time>2019-07-14T10:23:22.000Z</time>
      </trkpt>
      <trkpt lat="43.08578" lon="1.28588">
        <ele>493</ele>
        <time>2019-07-14T10:23:23.000Z</time>
      </trkpt>
      <trkpt lat="43.08582" lon="1.28589">
        <ele>492.39999389648</ele>
        <time>2019-07-14T10:23:24.000Z</time>
      </trkpt>
      <trkpt lat="43.08585" lon="1.28587">
        <ele>491.20001220703</ele>
        <time>2019-07-14T10:23:25.000Z</time>
      </trkpt>
      <trkpt lat="43.08589" lon="1.28583">
        <ele>490</ele>
        <time>2019-07-14T10:23:26.000Z</time>
      </trkpt>
      <trkpt lat="43.08594" lon="1.2858">
        <ele>489</ele>
        <time>2019-07-14T10:23:27.000Z</time>
      </trkpt>
      <trkpt lat="43.08599" lon="1.28576">
        <ele>487.79998779297</ele>
        <time>2019-07-14T10:23:28.000Z</time>
      </trkpt>
      <trkpt lat="43.08595" lon="1.28565">
        <ele>486.79998779297</ele>
        <time>2019-07-14T10:23:29.000Z</time>
      </trkpt>
      <trkpt lat="43.08598" lon="1.28554">
        <ele>485.79998779297</ele>
        <time>2019-07-14T10:23:30.000Z</time>
      </trkpt>
      <trkpt lat="43.08601" lon="1.2854">
        <ele>484.60000610352</ele>
        <time>2019-07-14T10:23:31.000Z</time>
      </trkpt>
      <trkpt lat="43.08603" lon="1.28528">
        <ele>483.60000610352</ele>
        <time>2019-07-14T10:23:32.000Z</time>
      </trkpt>
      <trkpt lat="43.08605" lon="1.28515">
        <ele>482.79998779297</ele>
        <time>2019-07-14T10:23:33.000Z</time>
      </trkpt>
      <trkpt lat="43.08607" lon="1.28503">
        <ele>482.20001220703</ele>
        <time>2019-07-14T10:23:34.000Z</time>
      </trkpt>
      <trkpt lat="43.08609" lon="1.2849">
        <ele>481.39999389648</ele>
        <time>2019-07-14T10:23:35.000Z</time>
      </trkpt>
      <trkpt lat="43.0861" lon="1.28477">
        <ele>480.79998779297</ele>
        <time>2019-07-14T10:23:36.000Z</time>
      </trkpt>
      <trkpt lat="43.08611" lon="1.28464">
        <ele>480</ele>
        <time>2019-07-14T10:23:37.000Z</time>
      </trkpt>
      <trkpt lat="43.08613" lon="1.28451">
        <ele>479.39999389648</ele>
        <time>2019-07-14T10:23:38.000Z</time>
      </trkpt>
      <trkpt lat="43.08615" lon="1.2844">
        <ele>478.79998779297</ele>
        <time>2019-07-14T10:23:39.000Z</time>
      </trkpt>
      <trkpt lat="43.08617" lon="1.2843">
        <ele>478.20001220703</ele>
        <time>2019-07-14T10:23:40.000Z</time>
      </trkpt>
      <trkpt lat="43.0862" lon="1.28421">
        <ele>477.60000610352</ele>
        <time>2019-07-14T10:23:41.000Z</time>
      </trkpt>
      <trkpt lat="43.08623" lon="1.28413">
        <ele>476.79998779297</ele>
        <time>2019-07-14T10:23:42.000Z</time>
      </trkpt>
      <trkpt lat="43.08626" lon="1.28409">
        <ele>476.20001220703</ele>
        <time>2019-07-14T10:23:43.000Z</time>
      </trkpt>
      <trkpt lat="43.08628" lon="1.28407">
        <ele>475.60000610352</ele>
        <time>2019-07-14T10:23:44.000Z</time>
      </trkpt>
      <trkpt lat="43.08628" lon="1.28407">
        <ele>475.20001220703</ele>
        <time>2019-07-14T10:23:45.000Z</time>
      </trkpt>
      <trkpt lat="43.08629" lon="1.28407">
        <ele>474.60000610352</ele>
        <time>2019-07-14T10:23:46.000Z</time>
      </trkpt>
      <trkpt lat="43.08628" lon="1.2841">
        <ele>473.79998779297</ele>
        <time>2019-07-14T10:23:47.000Z</time>
      </trkpt>
      <trkpt lat="43.08627" lon="1.28419">
        <ele>472.20001220703</ele>
        <time>2019-07-14T10:23:48.000Z</time>
      </trkpt>
      <trkpt lat="43.08629" lon="1.2843">
        <ele>471.39999389648</ele>
        <time>2019-07-14T10:23:49.000Z</time>
      </trkpt>
      <trkpt lat="43.08634" lon="1.28444">
        <ele>470.60000610352</ele>
        <time>2019-07-14T10:23:50.000Z</time>
      </trkpt>
      <trkpt lat="43.08639" lon="1.28459">
        <ele>469.60000610352</ele>
        <time>2019-07-14T10:23:51.000Z</time>
      </trkpt>
      <trkpt lat="43.08644" lon="1.28473">
        <ele>468.60000610352</ele>
        <time>2019-07-14T10:23:52.000Z</time>
      </trkpt>
      <trkpt lat="43.08647" lon="1.28487">
        <ele>467.60000610352</ele>
        <time>2019-07-14T10:23:53.000Z</time>
      </trkpt>
      <trkpt lat="43.08655" lon="1.28506">
        <ele>466.60000610352</ele>
        <time>2019-07-14T10:23:54.000Z</time>
      </trkpt>
      <trkpt lat="43.08663" lon="1.28525">
        <ele>465.39999389648</ele>
        <time>2019-07-14T10:23:55.000Z</time>
      </trkpt>
      <trkpt lat="43.08671" lon="1.28544">
        <ele>464.20001220703</ele>
        <time>2019-07-14T10:23:56.000Z</time>
      </trkpt>
      <trkpt lat="43.08677" lon="1.28562">
        <ele>462.79998779297</ele>
        <time>2019-07-14T10:23:57.000Z</time>
      </trkpt>
      <trkpt lat="43.08682" lon="1.2858">
        <ele>461.60000610352</ele>
        <time>2019-07-14T10:23:58.000Z</time>
      </trkpt>
      <trkpt lat="43.08686" lon="1.28597">
        <ele>460.60000610352</ele>
        <time>2019-07-14T10:23:59.000Z</time>
      </trkpt>
      <trkpt lat="43.08689" lon="1.28615">
        <ele>459.39999389648</ele>
        <time>2019-07-14T10:24:00.000Z</time>
      </trkpt>
      <trkpt lat="43.08692" lon="1.28633">
        <ele>458.39999389648</ele>
        <time>2019-07-14T10:24:01.000Z</time>
      </trkpt>
      <trkpt lat="43.08696" lon="1.28651">
        <ele>457.39999389648</ele>
        <time>2019-07-14T10:24:02.000Z</time>
      </trkpt>
      <trkpt lat="43.08701" lon="1.28669">
        <ele>456.39999389648</ele>
        <time>2019-07-14T10:24:03.000Z</time>
      </trkpt>
      <trkpt lat="43.08706" lon="1.28685">
        <ele>455.39999389648</ele>
        <time>2019-07-14T10:24:04.000Z</time>
      </trkpt>
      <trkpt lat="43.08711" lon="1.287">
        <ele>454.39999389648</ele>
        <time>2019-07-14T10:24:05.000Z</time>
      </trkpt>
      <trkpt lat="43.0872" lon="1.28722">
        <ele>453.60000610352</ele>
        <time>2019-07-14T10:24:06.000Z</time>
      </trkpt>
      <trkpt lat="43.08725" lon="1.2874">
        <ele>452.60000610352</ele>
        <time>2019-07-14T10:24:07.000Z</time>
      </trkpt>
      <trkpt lat="43.08726" lon="1.28756">
        <ele>451.79998779297</ele>
        <time>2019-07-14T10:24:08.000Z</time>
      </trkpt>
      <trkpt lat="43.08724" lon="1.28771">
        <ele>450.79998779297</ele>
        <time>2019-07-14T10:24:09.000Z</time>
      </trkpt>
      <trkpt lat="43.08727" lon="1.28834">
        <ele>450.79998779297</ele>
        <time>2019-07-14T10:24:14.000Z</time>
      </trkpt>
      <trkpt lat="43.08731" lon="1.28852">
        <ele>450.79998779297</ele>
        <time>2019-07-14T10:24:16.000Z</time>
      </trkpt>
      <trkpt lat="43.08733" lon="1.2886">
        <ele>450.79998779297</ele>
        <time>2019-07-14T10:24:17.000Z</time>
      </trkpt>
      <trkpt lat="43.08733" lon="1.2889">
        <ele>450.79998779297</ele>
        <time>2019-07-14T10:24:20.000Z</time>
      </trkpt>
      <trkpt lat="43.08732" lon="1.28903">
        <ele>450.20001220703</ele>
        <time>2019-07-14T10:24:21.000Z</time>
      </trkpt>
      <trkpt lat="43.08728" lon="1.28914">
        <ele>449.79998779297</ele>
        <time>2019-07-14T10:24:22.000Z</time>
      </trkpt>
      <trkpt lat="43.08724" lon="1.28926">
        <ele>448.79998779297</ele>
        <time>2019-07-14T10:24:23.000Z</time>
      </trkpt>
      <trkpt lat="43.0872" lon="1.28939">
        <ele>448</ele>
        <time>2019-07-14T10:24:24.000Z</time>
      </trkpt>
      <trkpt lat="43.08716" lon="1.28951">
        <ele>447.20001220703</ele>
        <time>2019-07-14T10:24:25.000Z</time>
      </trkpt>
      <trkpt lat="43.08712" lon="1.28962">
        <ele>446.39999389648</ele>
        <time>2019-07-14T10:24:26.000Z</time>
      </trkpt>
      <trkpt lat="43.08707" lon="1.28973">
        <ele>445.39999389648</ele>
        <time>2019-07-14T10:24:27.000Z</time>
      </trkpt>
      <trkpt lat="43.08704" lon="1.28983">
        <ele>444.60000610352</ele>
        <time>2019-07-14T10:24:28.000Z</time>
      </trkpt>
      <trkpt lat="43.087" lon="1.28993">
        <ele>443.79998779297</ele>
        <time>2019-07-14T10:24:29.000Z</time>
      </trkpt>
      <trkpt lat="43.08698" lon="1.29001">
        <ele>442.79998779297</ele>
        <time>2019-07-14T10:24:30.000Z</time>
      </trkpt>
      <trkpt lat="43.08689" lon="1.29031">
        <ele>442.79998779297</ele>
        <time>2019-07-14T10:24:34.000Z</time>
      </trkpt>
      <trkpt lat="43.08688" lon="1.29038">
        <ele>442.79998779297</ele>
        <time>2019-07-14T10:24:35.000Z</time>
      </trkpt>
      <trkpt lat="43.08684" lon="1.2905">
        <ele>442.79998779297</ele>
        <time>2019-07-14T10:24:37.000Z</time>
      </trkpt>
      <trkpt lat="43.08682" lon="1.29058">
        <ele>442.79998779297</ele>
        <time>2019-07-14T10:24:38.000Z</time>
      </trkpt>
      <trkpt lat="43.08677" lon="1.29082">
        <ele>442.79998779297</ele>
        <time>2019-07-14T10:24:41.000Z</time>
      </trkpt>
      <trkpt lat="43.08675" lon="1.29089">
        <ele>442.79998779297</ele>
        <time>2019-07-14T10:24:42.000Z</time>
      </trkpt>
      <trkpt lat="43.08668" lon="1.2912">
        <ele>442.79998779297</ele>
        <time>2019-07-14T10:24:46.000Z</time>
      </trkpt>
      <trkpt lat="43.08666" lon="1.29129">
        <ele>442.79998779297</ele>
        <time>2019-07-14T10:24:47.000Z</time>
      </trkpt>
      <trkpt lat="43.08661" lon="1.29155">
        <ele>442.39999389648</ele>
        <time>2019-07-14T10:24:50.000Z</time>
      </trkpt>
      <trkpt lat="43.08659" lon="1.29162">
        <ele>441.79998779297</ele>
        <time>2019-07-14T10:24:51.000Z</time>
      </trkpt>
      <trkpt lat="43.08658" lon="1.29168">
        <ele>441.39999389648</ele>
        <time>2019-07-14T10:24:52.000Z</time>
      </trkpt>
      <trkpt lat="43.08655" lon="1.29175">
        <ele>440.79998779297</ele>
        <time>2019-07-14T10:24:53.000Z</time>
      </trkpt>
      <trkpt lat="43.08653" lon="1.29182">
        <ele>440.20001220703</ele>
        <time>2019-07-14T10:24:54.000Z</time>
      </trkpt>
      <trkpt lat="43.0865" lon="1.29189">
        <ele>439.79998779297</ele>
        <time>2019-07-14T10:24:55.000Z</time>
      </trkpt>
      <trkpt lat="43.08648" lon="1.29196">
        <ele>439.39999389648</ele>
        <time>2019-07-14T10:24:56.000Z</time>
      </trkpt>
      <trkpt lat="43.08646" lon="1.29202">
        <ele>438.79998779297</ele>
        <time>2019-07-14T10:24:57.000Z</time>
      </trkpt>
      <trkpt lat="43.08642" lon="1.29209">
        <ele>438.39999389648</ele>
        <time>2019-07-14T10:24:58.000Z</time>
      </trkpt>
      <trkpt lat="43.08639" lon="1.29217">
        <ele>437.60000610352</ele>
        <time>2019-07-14T10:24:59.000Z</time>
      </trkpt>
      <trkpt lat="43.08635" lon="1.29225">
        <ele>437</ele>
        <time>2019-07-14T10:25:00.000Z</time>
      </trkpt>
      <trkpt lat="43.0863" lon="1.29234">
        <ele>436.20001220703</ele>
        <time>2019-07-14T10:25:01.000Z</time>
      </trkpt>
      <trkpt lat="43.08624" lon="1.29245">
        <ele>434.39999389648</ele>
        <time>2019-07-14T10:25:02.000Z</time>
      </trkpt>
      <trkpt lat="43.0862" lon="1.29255">
        <ele>433.39999389648</ele>
        <time>2019-07-14T10:25:03.000Z</time>
      </trkpt>
      <trkpt lat="43.08616" lon="1.29263">
        <ele>432.39999389648</ele>
        <time>2019-07-14T10:25:04.000Z</time>
      </trkpt>
      <trkpt lat="43.08612" lon="1.2927">
        <ele>431.60000610352</ele>
        <time>2019-07-14T10:25:05.000Z</time>
      </trkpt>
      <trkpt lat="43.08609" lon="1.29276">
        <ele>430.60000610352</ele>
        <time>2019-07-14T10:25:06.000Z</time>
      </trkpt>
      <trkpt lat="43.08604" lon="1.29282">
        <ele>429.60000610352</ele>
        <time>2019-07-14T10:25:07.000Z</time>
      </trkpt>
      <trkpt lat="43.086" lon="1.29287">
        <ele>428.60000610352</ele>
        <time>2019-07-14T10:25:08.000Z</time>
      </trkpt>
      <trkpt lat="43.08596" lon="1.29292">
        <ele>427.79998779297</ele>
        <time>2019-07-14T10:25:09.000Z</time>
      </trkpt>
      <trkpt lat="43.08592" lon="1.29298">
        <ele>426.79998779297</ele>
        <time>2019-07-14T10:25:10.000Z</time>
      </trkpt>
      <trkpt lat="43.08589" lon="1.29303">
        <ele>426</ele>
        <time>2019-07-14T10:25:11.000Z</time>
      </trkpt>
      <trkpt lat="43.08586" lon="1.29309">
        <ele>425.39999389648</ele>
        <time>2019-07-14T10:25:12.000Z</time>
      </trkpt>
      <trkpt lat="43.08582" lon="1.29315">
        <ele>424.60000610352</ele>
        <time>2019-07-14T10:25:13.000Z</time>
      </trkpt>
      <trkpt lat="43.08578" lon="1.29319">
        <ele>424</ele>
        <time>2019-07-14T10:25:14.000Z</time>
      </trkpt>
      <trkpt lat="43.08576" lon="1.29322">
        <ele>423.39999389648</ele>
        <time>2019-07-14T10:25:15.000Z</time>
      </trkpt>
      <trkpt lat="43.08574" lon="1.29323">
        <ele>422.60000610352</ele>
        <time>2019-07-14T10:25:16.000Z</time>
      </trkpt>
      <trkpt lat="43.08573" lon="1.29324">
        <ele>422</ele>
        <time>2019-07-14T10:25:17.000Z</time>
      </trkpt>
      <trkpt lat="43.08572" lon="1.29324">
        <ele>421.39999389648</ele>
        <time>2019-07-14T10:25:18.000Z</time>
      </trkpt>
      <trkpt lat="43.08571" lon="1.29324">
        <ele>420.60000610352</ele>
        <time>2019-07-14T10:25:19.000Z</time>
      </trkpt>
      <trkpt lat="43.08569" lon="1.29329">
        <ele>420.20001220703</ele>
        <time>2019-07-14T10:25:23.000Z</time>
      </trkpt>
      <trkpt lat="43.08567" lon="1.2933">
        <ele>419.79998779297</ele>
        <time>2019-07-14T10:25:24.000Z</time>
      </trkpt>
      <trkpt lat="43.08565" lon="1.29331">
        <ele>419.39999389648</ele>
        <time>2019-07-14T10:25:25.000Z</time>
      </trkpt>
      <trkpt lat="43.08563" lon="1.29332">
        <ele>419</ele>
        <time>2019-07-14T10:25:26.000Z</time>
      </trkpt>
      <trkpt lat="43.08562" lon="1.29333">
        <ele>418.60000610352</ele>
        <time>2019-07-14T10:25:27.000Z</time>
      </trkpt>
      <trkpt lat="43.08561" lon="1.29334">
        <ele>418.60000610352</ele>
        <time>2019-07-14T10:25:28.000Z</time>
      </trkpt>
      <trkpt lat="43.08561" lon="1.29339">
        <ele>418.60000610352</ele>
        <time>2019-07-14T10:25:33.000Z</time>
      </trkpt>
      <trkpt lat="43.0856" lon="1.29339">
        <ele>418.60000610352</ele>
        <time>2019-07-14T10:25:34.000Z</time>
      </trkpt>
      <trkpt lat="43.08559" lon="1.29341">
        <ele>418.60000610352</ele>
        <time>2019-07-14T10:25:37.000Z</time>
      </trkpt>
      <trkpt lat="43.08559" lon="1.29343">
        <ele>418.60000610352</ele>
        <time>2019-07-14T10:25:38.000Z</time>
      </trkpt>
      <trkpt lat="43.08559" lon="1.29345">
        <ele>418.60000610352</ele>
        <time>2019-07-14T10:25:39.000Z</time>
      </trkpt>
      <trkpt lat="43.08556" lon="1.29358">
        <ele>418.60000610352</ele>
        <time>2019-07-14T10:25:43.000Z</time>
      </trkpt>
      <trkpt lat="43.08554" lon="1.29364">
        <ele>419</ele>
        <time>2019-07-14T10:25:45.000Z</time>
      </trkpt>
      <trkpt lat="43.08553" lon="1.29368">
        <ele>419.39999389648</ele>
        <time>2019-07-14T10:25:46.000Z</time>
      </trkpt>
      <trkpt lat="43.08552" lon="1.29371">
        <ele>419.79998779297</ele>
        <time>2019-07-14T10:25:47.000Z</time>
      </trkpt>
      <trkpt lat="43.08552" lon="1.29374">
        <ele>420.20001220703</ele>
        <time>2019-07-14T10:25:48.000Z</time>
      </trkpt>
      <trkpt lat="43.08551" lon="1.29378">
        <ele>420.60000610352</ele>
        <time>2019-07-14T10:25:49.000Z</time>
      </trkpt>
      <trkpt lat="43.08546" lon="1.29394">
        <ele>420.60000610352</ele>
        <time>2019-07-14T10:25:53.000Z</time>
      </trkpt>
      <trkpt lat="43.08542" lon="1.29408">
        <ele>421.20001220703</ele>
        <time>2019-07-14T10:25:56.000Z</time>
      </trkpt>
      <trkpt lat="43.08541" lon="1.29413">
        <ele>421.60000610352</ele>
        <time>2019-07-14T10:25:57.000Z</time>
      </trkpt>
      <trkpt lat="43.08539" lon="1.29418">
        <ele>422</ele>
        <time>2019-07-14T10:25:58.000Z</time>
      </trkpt>
      <trkpt lat="43.08537" lon="1.29422">
        <ele>422.39999389648</ele>
        <time>2019-07-14T10:25:59.000Z</time>
      </trkpt>
      <trkpt lat="43.08536" lon="1.29428">
        <ele>422.79998779297</ele>
        <time>2019-07-14T10:26:00.000Z</time>
      </trkpt>
      <trkpt lat="43.08534" lon="1.29433">
        <ele>422.79998779297</ele>
        <time>2019-07-14T10:26:01.000Z</time>
      </trkpt>
      <trkpt lat="43.08532" lon="1.29438">
        <ele>422.79998779297</ele>
        <time>2019-07-14T10:26:02.000Z</time>
      </trkpt>
      <trkpt lat="43.08521" lon="1.29466">
        <ele>422.79998779297</ele>
        <time>2019-07-14T10:26:07.000Z</time>
      </trkpt>
      <trkpt lat="43.08508" lon="1.29501">
        <ele>422.39999389648</ele>
        <time>2019-07-14T10:26:12.000Z</time>
      </trkpt>
      <trkpt lat="43.08505" lon="1.29509">
        <ele>422</ele>
        <time>2019-07-14T10:26:13.000Z</time>
      </trkpt>
      <trkpt lat="43.08502" lon="1.29516">
        <ele>421.39999389648</ele>
        <time>2019-07-14T10:26:14.000Z</time>
      </trkpt>
      <trkpt lat="43.08499" lon="1.29524">
        <ele>421</ele>
        <time>2019-07-14T10:26:15.000Z</time>
      </trkpt>
      <trkpt lat="43.08497" lon="1.29532">
        <ele>420.60000610352</ele>
        <time>2019-07-14T10:26:16.000Z</time>
      </trkpt>
      <trkpt lat="43.08491" lon="1.29548">
        <ele>420</ele>
        <time>2019-07-14T10:26:18.000Z</time>
      </trkpt>
      <trkpt lat="43.08488" lon="1.29557">
        <ele>419.60000610352</ele>
        <time>2019-07-14T10:26:19.000Z</time>
      </trkpt>
      <trkpt lat="43.08484" lon="1.29566">
        <ele>419</ele>
        <time>2019-07-14T10:26:20.000Z</time>
      </trkpt>
      <trkpt lat="43.0848" lon="1.29577">
        <ele>418.60000610352</ele>
        <time>2019-07-14T10:26:21.000Z</time>
      </trkpt>
      <trkpt lat="43.08477" lon="1.29588">
        <ele>418</ele>
        <time>2019-07-14T10:26:22.000Z</time>
      </trkpt>
      <trkpt lat="43.08473" lon="1.29598">
        <ele>417.20001220703</ele>
        <time>2019-07-14T10:26:23.000Z</time>
      </trkpt>
      <trkpt lat="43.0847" lon="1.29609">
        <ele>416.60000610352</ele>
        <time>2019-07-14T10:26:24.000Z</time>
      </trkpt>
      <trkpt lat="43.08466" lon="1.29621">
        <ele>415.79998779297</ele>
        <time>2019-07-14T10:26:25.000Z</time>
      </trkpt>
      <trkpt lat="43.08461" lon="1.29632">
        <ele>415</ele>
        <time>2019-07-14T10:26:26.000Z</time>
      </trkpt>
      <trkpt lat="43.08457" lon="1.29644">
        <ele>414.20001220703</ele>
        <time>2019-07-14T10:26:27.000Z</time>
      </trkpt>
      <trkpt lat="43.08452" lon="1.29655">
        <ele>413.39999389648</ele>
        <time>2019-07-14T10:26:28.000Z</time>
      </trkpt>
      <trkpt lat="43.08448" lon="1.29666">
        <ele>412.79998779297</ele>
        <time>2019-07-14T10:26:29.000Z</time>
      </trkpt>
      <trkpt lat="43.08442" lon="1.29676">
        <ele>412.20001220703</ele>
        <time>2019-07-14T10:26:30.000Z</time>
      </trkpt>
      <trkpt lat="43.08436" lon="1.29687">
        <ele>411.60000610352</ele>
        <time>2019-07-14T10:26:31.000Z</time>
      </trkpt>
      <trkpt lat="43.0843" lon="1.29697">
        <ele>411</ele>
        <time>2019-07-14T10:26:32.000Z</time>
      </trkpt>
      <trkpt lat="43.08426" lon="1.29706">
        <ele>410.39999389648</ele>
        <time>2019-07-14T10:26:33.000Z</time>
      </trkpt>
      <trkpt lat="43.08418" lon="1.29723">
        <ele>410.39999389648</ele>
        <time>2019-07-14T10:26:35.000Z</time>
      </trkpt>
      <trkpt lat="43.08414" lon="1.29731">
        <ele>410.39999389648</ele>
        <time>2019-07-14T10:26:36.000Z</time>
      </trkpt>
      <trkpt lat="43.08399" lon="1.29762">
        <ele>410.39999389648</ele>
        <time>2019-07-14T10:26:40.000Z</time>
      </trkpt>
      <trkpt lat="43.08385" lon="1.29791">
        <ele>410.39999389648</ele>
        <time>2019-07-14T10:26:44.000Z</time>
      </trkpt>
      <trkpt lat="43.08379" lon="1.29806">
        <ele>410.39999389648</ele>
        <time>2019-07-14T10:26:46.000Z</time>
      </trkpt>
      <trkpt lat="43.08364" lon="1.29839">
        <ele>410.39999389648</ele>
        <time>2019-07-14T10:26:51.000Z</time>
      </trkpt>
      <trkpt lat="43.08359" lon="1.29849">
        <ele>410.39999389648</ele>
        <time>2019-07-14T10:26:53.000Z</time>
      </trkpt>
      <trkpt lat="43.08355" lon="1.2986">
        <ele>410.39999389648</ele>
        <time>2019-07-14T10:26:55.000Z</time>
      </trkpt>
      <trkpt lat="43.08348" lon="1.29875">
        <ele>410.79998779297</ele>
        <time>2019-07-14T10:26:58.000Z</time>
      </trkpt>
      <trkpt lat="43.08345" lon="1.2988">
        <ele>411.20001220703</ele>
        <time>2019-07-14T10:26:59.000Z</time>
      </trkpt>
      <trkpt lat="43.08343" lon="1.29885">
        <ele>411.79998779297</ele>
        <time>2019-07-14T10:27:00.000Z</time>
      </trkpt>
      <trkpt lat="43.08341" lon="1.29891">
        <ele>412.20001220703</ele>
        <time>2019-07-14T10:27:01.000Z</time>
      </trkpt>
      <trkpt lat="43.08339" lon="1.29896">
        <ele>412.60000610352</ele>
        <time>2019-07-14T10:27:02.000Z</time>
      </trkpt>
      <trkpt lat="43.08323" lon="1.29935">
        <ele>412.60000610352</ele>
        <time>2019-07-14T10:27:08.000Z</time>
      </trkpt>
      <trkpt lat="43.0831" lon="1.2997">
        <ele>412.60000610352</ele>
        <time>2019-07-14T10:27:13.000Z</time>
      </trkpt>
      <trkpt lat="43.08306" lon="1.29977">
        <ele>412.60000610352</ele>
        <time>2019-07-14T10:27:14.000Z</time>
      </trkpt>
      <trkpt lat="43.08287" lon="1.30012">
        <ele>412.60000610352</ele>
        <time>2019-07-14T10:27:19.000Z</time>
      </trkpt>
      <trkpt lat="43.08266" lon="1.30058">
        <ele>412.20001220703</ele>
        <time>2019-07-14T10:27:25.000Z</time>
      </trkpt>
      <trkpt lat="43.08263" lon="1.30066">
        <ele>411.60000610352</ele>
        <time>2019-07-14T10:27:26.000Z</time>
      </trkpt>
      <trkpt lat="43.08261" lon="1.30075">
        <ele>411.20001220703</ele>
        <time>2019-07-14T10:27:27.000Z</time>
      </trkpt>
      <trkpt lat="43.08258" lon="1.30083">
        <ele>410.79998779297</ele>
        <time>2019-07-14T10:27:28.000Z</time>
      </trkpt>
      <trkpt lat="43.08255" lon="1.30093">
        <ele>410.39999389648</ele>
        <time>2019-07-14T10:27:29.000Z</time>
      </trkpt>
      <trkpt lat="43.08253" lon="1.30102">
        <ele>410.39999389648</ele>
        <time>2019-07-14T10:27:30.000Z</time>
      </trkpt>
      <trkpt lat="43.08251" lon="1.30111">
        <ele>410</ele>
        <time>2019-07-14T10:27:31.000Z</time>
      </trkpt>
      <trkpt lat="43.08249" lon="1.3012">
        <ele>409.60000610352</ele>
        <time>2019-07-14T10:27:32.000Z</time>
      </trkpt>
      <trkpt lat="43.08246" lon="1.3013">
        <ele>409</ele>
        <time>2019-07-14T10:27:33.000Z</time>
      </trkpt>
      <trkpt lat="43.08244" lon="1.30139">
        <ele>408.60000610352</ele>
        <time>2019-07-14T10:27:34.000Z</time>
      </trkpt>
      <trkpt lat="43.08241" lon="1.3015">
        <ele>408.20001220703</ele>
        <time>2019-07-14T10:27:35.000Z</time>
      </trkpt>
      <trkpt lat="43.08236" lon="1.30182">
        <ele>407.79998779297</ele>
        <time>2019-07-14T10:27:38.000Z</time>
      </trkpt>
      <trkpt lat="43.08235" lon="1.30194">
        <ele>407.39999389648</ele>
        <time>2019-07-14T10:27:39.000Z</time>
      </trkpt>
      <trkpt lat="43.08233" lon="1.30205">
        <ele>406.79998779297</ele>
        <time>2019-07-14T10:27:40.000Z</time>
      </trkpt>
      <trkpt lat="43.08231" lon="1.30217">
        <ele>406.20001220703</ele>
        <time>2019-07-14T10:27:41.000Z</time>
      </trkpt>
      <trkpt lat="43.08227" lon="1.30228">
        <ele>405.60000610352</ele>
        <time>2019-07-14T10:27:42.000Z</time>
      </trkpt>
      <trkpt lat="43.08222" lon="1.3024">
        <ele>405</ele>
        <time>2019-07-14T10:27:43.000Z</time>
      </trkpt>
      <trkpt lat="43.08218" lon="1.30252">
        <ele>404.20001220703</ele>
        <time>2019-07-14T10:27:44.000Z</time>
      </trkpt>
      <trkpt lat="43.08214" lon="1.30264">
        <ele>403.39999389648</ele>
        <time>2019-07-14T10:27:45.000Z</time>
      </trkpt>
      <trkpt lat="43.0821" lon="1.30277">
        <ele>402.60000610352</ele>
        <time>2019-07-14T10:27:46.000Z</time>
      </trkpt>
      <trkpt lat="43.08206" lon="1.3029">
        <ele>401.79998779297</ele>
        <time>2019-07-14T10:27:47.000Z</time>
      </trkpt>
      <trkpt lat="43.08203" lon="1.30303">
        <ele>400.79998779297</ele>
        <time>2019-07-14T10:27:48.000Z</time>
      </trkpt>
      <trkpt lat="43.082" lon="1.30317">
        <ele>399.79998779297</ele>
        <time>2019-07-14T10:27:49.000Z</time>
      </trkpt>
      <trkpt lat="43.08197" lon="1.3033">
        <ele>398.79998779297</ele>
        <time>2019-07-14T10:27:50.000Z</time>
      </trkpt>
      <trkpt lat="43.08194" lon="1.30344">
        <ele>398</ele>
        <time>2019-07-14T10:27:51.000Z</time>
      </trkpt>
      <trkpt lat="43.08192" lon="1.30357">
        <ele>397.20001220703</ele>
        <time>2019-07-14T10:27:52.000Z</time>
      </trkpt>
      <trkpt lat="43.0819" lon="1.30368">
        <ele>396.39999389648</ele>
        <time>2019-07-14T10:27:53.000Z</time>
      </trkpt>
      <trkpt lat="43.08189" lon="1.30378">
        <ele>395.60000610352</ele>
        <time>2019-07-14T10:27:54.000Z</time>
      </trkpt>
      <trkpt lat="43.08187" lon="1.30388">
        <ele>394.20001220703</ele>
        <time>2019-07-14T10:27:55.000Z</time>
      </trkpt>
      <trkpt lat="43.08185" lon="1.30396">
        <ele>393.39999389648</ele>
        <time>2019-07-14T10:27:56.000Z</time>
      </trkpt>
      <trkpt lat="43.08185" lon="1.30403">
        <ele>392.60000610352</ele>
        <time>2019-07-14T10:27:57.000Z</time>
      </trkpt>
      <trkpt lat="43.08185" lon="1.30409">
        <ele>391.79998779297</ele>
        <time>2019-07-14T10:27:58.000Z</time>
      </trkpt>
      <trkpt lat="43.08185" lon="1.30416">
        <ele>391</ele>
        <time>2019-07-14T10:27:59.000Z</time>
      </trkpt>
      <trkpt lat="43.08185" lon="1.30423">
        <ele>390.39999389648</ele>
        <time>2019-07-14T10:28:00.000Z</time>
      </trkpt>
      <trkpt lat="43.08185" lon="1.3043">
        <ele>389.60000610352</ele>
        <time>2019-07-14T10:28:01.000Z</time>
      </trkpt>
      <trkpt lat="43.08186" lon="1.30445">
        <ele>389.60000610352</ele>
        <time>2019-07-14T10:28:03.000Z</time>
      </trkpt>
      <trkpt lat="43.08187" lon="1.30491">
        <ele>389.20001220703</ele>
        <time>2019-07-14T10:28:09.000Z</time>
      </trkpt>
      <trkpt lat="43.08187" lon="1.30499">
        <ele>388.79998779297</ele>
        <time>2019-07-14T10:28:10.000Z</time>
      </trkpt>
      <trkpt lat="43.08188" lon="1.30506">
        <ele>388.20001220703</ele>
        <time>2019-07-14T10:28:11.000Z</time>
      </trkpt>
      <trkpt lat="43.08188" lon="1.30513">
        <ele>387.79998779297</ele>
        <time>2019-07-14T10:28:12.000Z</time>
      </trkpt>
      <trkpt lat="43.08188" lon="1.3052">
        <ele>387.39999389648</ele>
        <time>2019-07-14T10:28:13.000Z</time>
      </trkpt>
      <trkpt lat="43.08191" lon="1.30533">
        <ele>387.39999389648</ele>
        <time>2019-07-14T10:28:15.000Z</time>
      </trkpt>
      <trkpt lat="43.08197" lon="1.30575">
        <ele>387.39999389648</ele>
        <time>2019-07-14T10:28:22.000Z</time>
      </trkpt>
      <trkpt lat="43.08195" lon="1.30606">
        <ele>387.39999389648</ele>
        <time>2019-07-14T10:28:28.000Z</time>
      </trkpt>
      <trkpt lat="43.08195" lon="1.30603">
        <ele>383.20001220703</ele>
        <time>2019-07-14T06:41:42.000Z</time>
      </trkpt>
      <trkpt lat="43.08193" lon="1.30597">
        <ele>383.20001220703</ele>
        <time>2019-07-14T06:41:44.000Z</time>
      </trkpt>
      <trkpt lat="43.08189" lon="1.30594">
        <ele>383.20001220703</ele>
        <time>2019-07-14T06:41:46.000Z</time>
      </trkpt>
      <trkpt lat="43.08186" lon="1.30595">
        <ele>383.20001220703</ele>
        <time>2019-07-14T06:41:47.000Z</time>
      </trkpt>
      <trkpt lat="43.08177" lon="1.30596">
        <ele>383.20001220703</ele>
        <time>2019-07-14T06:41:50.000Z</time>
      </trkpt>
      <trkpt lat="43.08163" lon="1.306">
        <ele>383.20001220703</ele>
        <time>2019-07-14T06:41:54.000Z</time>
      </trkpt>
      <trkpt lat="43.08159" lon="1.306">
        <ele>383.20001220703</ele>
        <time>2019-07-14T06:41:55.000Z</time>
      </trkpt>
      <trkpt lat="43.08133" lon="1.30601">
        <ele>383.20001220703</ele>
        <time>2019-07-14T06:42:02.000Z</time>
      </trkpt>
      <trkpt lat="43.08112" lon="1.30601">
        <ele>383.20001220703</ele>
        <time>2019-07-14T06:42:07.000Z</time>
      </trkpt>
      <trkpt lat="43.08097" lon="1.306">
        <ele>383.20001220703</ele>
        <time>2019-07-14T06:42:10.000Z</time>
      </trkpt>
      <trkpt lat="43.08087" lon="1.306">
        <ele>383.20001220703</ele>
        <time>2019-07-14T06:42:12.000Z</time>
      </trkpt>
      <trkpt lat="43.08076" lon="1.30599">
        <ele>382.79998779297</ele>
        <time>2019-07-14T06:42:14.000Z</time>
      </trkpt>
      <trkpt lat="43.0807" lon="1.30598">
        <ele>382.39999389648</ele>
        <time>2019-07-14T06:42:15.000Z</time>
      </trkpt>
      <trkpt lat="43.08064" lon="1.30596">
        <ele>382</ele>
        <time>2019-07-14T06:42:16.000Z</time>
      </trkpt>
      <trkpt lat="43.08058" lon="1.30592">
        <ele>381.60000610352</ele>
        <time>2019-07-14T06:42:17.000Z</time>
      </trkpt>
      <trkpt lat="43.08053" lon="1.30586">
        <ele>381</ele>
        <time>2019-07-14T06:42:18.000Z</time>
      </trkpt>
      <trkpt lat="43.0805" lon="1.30578">
        <ele>380.39999389648</ele>
        <time>2019-07-14T06:42:19.000Z</time>
      </trkpt>
      <trkpt lat="43.08049" lon="1.30571">
        <ele>379.79998779297</ele>
        <time>2019-07-14T06:42:20.000Z</time>
      </trkpt>
      <trkpt lat="43.08048" lon="1.30563">
        <ele>379.39999389648</ele>
        <time>2019-07-14T06:42:21.000Z</time>
      </trkpt>
      <trkpt lat="43.08046" lon="1.30556">
        <ele>378.79998779297</ele>
        <time>2019-07-14T06:42:22.000Z</time>
      </trkpt>
      <trkpt lat="43.08044" lon="1.3055">
        <ele>378.20001220703</ele>
        <time>2019-07-14T06:42:23.000Z</time>
      </trkpt>
      <trkpt lat="43.08042" lon="1.30542">
        <ele>377.79998779297</ele>
        <time>2019-07-14T06:42:24.000Z</time>
      </trkpt>
      <trkpt lat="43.08041" lon="1.30534">
        <ele>377.20001220703</ele>
        <time>2019-07-14T06:42:25.000Z</time>
      </trkpt>
      <trkpt lat="43.08041" lon="1.30526">
        <ele>376.79998779297</ele>
        <time>2019-07-14T06:42:26.000Z</time>
      </trkpt>
      <trkpt lat="43.08041" lon="1.30519">
        <ele>376.79998779297</ele>
        <time>2019-07-14T06:42:27.000Z</time>
      </trkpt>
      <trkpt lat="43.08042" lon="1.30502">
        <ele>376.79998779297</ele>
        <time>2019-07-14T06:42:30.000Z</time>
      </trkpt>
      <trkpt lat="43.08043" lon="1.30495">
        <ele>376.79998779297</ele>
        <time>2019-07-14T06:42:31.000Z</time>
      </trkpt>
      <trkpt lat="43.08044" lon="1.30489">
        <ele>376.79998779297</ele>
        <time>2019-07-14T06:42:32.000Z</time>
      </trkpt>
      <trkpt lat="43.08047" lon="1.3047">
        <ele>376.79998779297</ele>
        <time>2019-07-14T06:42:35.000Z</time>
      </trkpt>
      <trkpt lat="43.08045" lon="1.30464">
        <ele>376.79998779297</ele>
        <time>2019-07-14T06:42:36.000Z</time>
      </trkpt>
      <trkpt lat="43.08035" lon="1.3045">
        <ele>376.79998779297</ele>
        <time>2019-07-14T06:42:39.000Z</time>
      </trkpt>
      <trkpt lat="43.08029" lon="1.30447">
        <ele>376.39999389648</ele>
        <time>2019-07-14T06:42:40.000Z</time>
      </trkpt>
      <trkpt lat="43.08022" lon="1.30442">
        <ele>375.79998779297</ele>
        <time>2019-07-14T06:42:41.000Z</time>
      </trkpt>
      <trkpt lat="43.08015" lon="1.30438">
        <ele>375.39999389648</ele>
        <time>2019-07-14T06:42:42.000Z</time>
      </trkpt>
      <trkpt lat="43.08009" lon="1.30434">
        <ele>375</ele>
        <time>2019-07-14T06:42:43.000Z</time>
      </trkpt>
      <trkpt lat="43.08001" lon="1.3043">
        <ele>374.39999389648</ele>
        <time>2019-07-14T06:42:44.000Z</time>
      </trkpt>
      <trkpt lat="43.07995" lon="1.30427">
        <ele>374</ele>
        <time>2019-07-14T06:42:45.000Z</time>
      </trkpt>
      <trkpt lat="43.07989" lon="1.30424">
        <ele>373.39999389648</ele>
        <time>2019-07-14T06:42:46.000Z</time>
      </trkpt>
      <trkpt lat="43.07983" lon="1.3042">
        <ele>372.79998779297</ele>
        <time>2019-07-14T06:42:47.000Z</time>
      </trkpt>
      <trkpt lat="43.07977" lon="1.30417">
        <ele>372.39999389648</ele>
        <time>2019-07-14T06:42:48.000Z</time>
      </trkpt>
      <trkpt lat="43.07957" lon="1.30412">
        <ele>372</ele>
        <time>2019-07-14T06:42:51.000Z</time>
      </trkpt>
      <trkpt lat="43.0795" lon="1.3041">
        <ele>371.60000610352</ele>
        <time>2019-07-14T06:42:52.000Z</time>
      </trkpt>
      <trkpt lat="43.07944" lon="1.30407">
        <ele>371</ele>
        <time>2019-07-14T06:42:53.000Z</time>
      </trkpt>
      <trkpt lat="43.07939" lon="1.30404">
        <ele>370.60000610352</ele>
        <time>2019-07-14T06:42:54.000Z</time>
      </trkpt>
      <trkpt lat="43.07936" lon="1.30399">
        <ele>370.20001220703</ele>
        <time>2019-07-14T06:42:55.000Z</time>
      </trkpt>
      <trkpt lat="43.07931" lon="1.30395">
        <ele>369.79998779297</ele>
        <time>2019-07-14T06:42:57.000Z</time>
      </trkpt>
      <trkpt lat="43.07927" lon="1.30393">
        <ele>369.39999389648</ele>
        <time>2019-07-14T06:42:58.000Z</time>
      </trkpt>
      <trkpt lat="43.07923" lon="1.30394">
        <ele>369</ele>
        <time>2019-07-14T06:42:59.000Z</time>
      </trkpt>
      <trkpt lat="43.07921" lon="1.30395">
        <ele>368.60000610352</ele>
        <time>2019-07-14T06:43:00.000Z</time>
      </trkpt>
      <trkpt lat="43.07919" lon="1.30397">
        <ele>368.20001220703</ele>
        <time>2019-07-14T06:43:01.000Z</time>
      </trkpt>
      <trkpt lat="43.07913" lon="1.30403">
        <ele>368.20001220703</ele>
        <time>2019-07-14T06:43:03.000Z</time>
      </trkpt>
      <trkpt lat="43.07911" lon="1.30406">
        <ele>368.60000610352</ele>
        <time>2019-07-14T06:43:04.000Z</time>
      </trkpt>
      <trkpt lat="43.07909" lon="1.30409">
        <ele>369.20001220703</ele>
        <time>2019-07-14T06:43:05.000Z</time>
      </trkpt>
      <trkpt lat="43.07907" lon="1.30411">
        <ele>369.60000610352</ele>
        <time>2019-07-14T06:43:06.000Z</time>
      </trkpt>
      <trkpt lat="43.07905" lon="1.30414">
        <ele>370</ele>
        <time>2019-07-14T06:43:07.000Z</time>
      </trkpt>
      <trkpt lat="43.07904" lon="1.30418">
        <ele>370.39999389648</ele>
        <time>2019-07-14T06:43:08.000Z</time>
      </trkpt>
      <trkpt lat="43.07904" lon="1.30427">
        <ele>370.39999389648</ele>
        <time>2019-07-14T06:43:10.000Z</time>
      </trkpt>
      <trkpt lat="43.07903" lon="1.30436">
        <ele>370.79998779297</ele>
        <time>2019-07-14T06:43:12.000Z</time>
      </trkpt>
      <trkpt lat="43.07901" lon="1.3044">
        <ele>371.39999389648</ele>
        <time>2019-07-14T06:43:13.000Z</time>
      </trkpt>
      <trkpt lat="43.07901" lon="1.30443">
        <ele>371.79998779297</ele>
        <time>2019-07-14T06:43:14.000Z</time>
      </trkpt>
      <trkpt lat="43.07901" lon="1.30447">
        <ele>372.20001220703</ele>
        <time>2019-07-14T06:43:15.000Z</time>
      </trkpt>
      <trkpt lat="43.07901" lon="1.30451">
        <ele>372.79998779297</ele>
        <time>2019-07-14T06:43:16.000Z</time>
      </trkpt>
      <trkpt lat="43.07901" lon="1.30465">
        <ele>373.20001220703</ele>
        <time>2019-07-14T06:43:19.000Z</time>
      </trkpt>
      <trkpt lat="43.07901" lon="1.30468">
        <ele>373.60000610352</ele>
        <time>2019-07-14T06:43:20.000Z</time>
      </trkpt>
      <trkpt lat="43.07901" lon="1.30472">
        <ele>374</ele>
        <time>2019-07-14T06:43:21.000Z</time>
      </trkpt>
      <trkpt lat="43.07901" lon="1.30476">
        <ele>374.39999389648</ele>
        <time>2019-07-14T06:43:22.000Z</time>
      </trkpt>
      <trkpt lat="43.079" lon="1.30479">
        <ele>374.79998779297</ele>
        <time>2019-07-14T06:43:23.000Z</time>
      </trkpt>
      <trkpt lat="43.079" lon="1.30491">
        <ele>374.79998779297</ele>
        <time>2019-07-14T06:43:26.000Z</time>
      </trkpt>
      <trkpt lat="43.079" lon="1.30497">
        <ele>375.20001220703</ele>
        <time>2019-07-14T06:43:28.000Z</time>
      </trkpt>
      <trkpt lat="43.07899" lon="1.30501">
        <ele>375.60000610352</ele>
        <time>2019-07-14T06:43:29.000Z</time>
      </trkpt>
      <trkpt lat="43.07898" lon="1.30505">
        <ele>376.20001220703</ele>
        <time>2019-07-14T06:43:30.000Z</time>
      </trkpt>
      <trkpt lat="43.07897" lon="1.3051">
        <ele>376.60000610352</ele>
        <time>2019-07-14T06:43:31.000Z</time>
      </trkpt>
      <trkpt lat="43.07897" lon="1.30515">
        <ele>377</ele>
        <time>2019-07-14T06:43:32.000Z</time>
      </trkpt>
      <trkpt lat="43.07897" lon="1.30532">
        <ele>377</ele>
        <time>2019-07-14T06:43:36.000Z</time>
      </trkpt>
      <trkpt lat="43.07899" lon="1.30547">
        <ele>377</ele>
        <time>2019-07-14T06:43:41.000Z</time>
      </trkpt>
      <trkpt lat="43.079" lon="1.30552">
        <ele>377.39999389648</ele>
        <time>2019-07-14T06:43:43.000Z</time>
      </trkpt>
      <trkpt lat="43.07901" lon="1.30555">
        <ele>377.79998779297</ele>
        <time>2019-07-14T06:43:44.000Z</time>
      </trkpt>
      <trkpt lat="43.07901" lon="1.30556">
        <ele>378.20001220703</ele>
        <time>2019-07-14T06:43:45.000Z</time>
      </trkpt>
      <trkpt lat="43.079" lon="1.30558">
        <ele>378.60000610352</ele>
        <time>2019-07-14T06:43:46.000Z</time>
      </trkpt>
      <trkpt lat="43.079" lon="1.30559">
        <ele>379</ele>
        <time>2019-07-14T06:43:47.000Z</time>
      </trkpt>
      <trkpt lat="43.07902" lon="1.30569">
        <ele>379</ele>
        <time>2019-07-14T06:43:51.000Z</time>
      </trkpt>
      <trkpt lat="43.07907" lon="1.3059">
        <ele>379</ele>
        <time>2019-07-14T06:43:55.000Z</time>
      </trkpt>
      <trkpt lat="43.07912" lon="1.3061">
        <ele>379</ele>
        <time>2019-07-14T06:43:59.000Z</time>
      </trkpt>
      <trkpt lat="43.07923" lon="1.30634">
        <ele>379</ele>
        <time>2019-07-14T06:44:04.000Z</time>
      </trkpt>
      <trkpt lat="43.07933" lon="1.30649">
        <ele>379.60000610352</ele>
        <time>2019-07-14T06:44:08.000Z</time>
      </trkpt>
      <trkpt lat="43.07935" lon="1.30652">
        <ele>380</ele>
        <time>2019-07-14T06:44:09.000Z</time>
      </trkpt>
      <trkpt lat="43.07937" lon="1.30654">
        <ele>380.39999389648</ele>
        <time>2019-07-14T06:44:10.000Z</time>
      </trkpt>
      <trkpt lat="43.0794" lon="1.30657">
        <ele>380.79998779297</ele>
        <time>2019-07-14T06:44:11.000Z</time>
      </trkpt>
      <trkpt lat="43.07942" lon="1.30658">
        <ele>381.20001220703</ele>
        <time>2019-07-14T06:44:12.000Z</time>
      </trkpt>
      <trkpt lat="43.07944" lon="1.3066">
        <ele>381.60000610352</ele>
        <time>2019-07-14T06:44:13.000Z</time>
      </trkpt>
      <trkpt lat="43.07947" lon="1.30662">
        <ele>382.20001220703</ele>
        <time>2019-07-14T06:44:14.000Z</time>
      </trkpt>
      <trkpt lat="43.0795" lon="1.30664">
        <ele>383</ele>
        <time>2019-07-14T06:44:15.000Z</time>
      </trkpt>
      <trkpt lat="43.07954" lon="1.30668">
        <ele>383.39999389648</ele>
        <time>2019-07-14T06:44:16.000Z</time>
      </trkpt>
      <trkpt lat="43.07959" lon="1.30675">
        <ele>383.39999389648</ele>
        <time>2019-07-14T06:44:18.000Z</time>
      </trkpt>
      <trkpt lat="43.07962" lon="1.3068">
        <ele>383.39999389648</ele>
        <time>2019-07-14T06:44:19.000Z</time>
      </trkpt>
      <trkpt lat="43.07969" lon="1.30698">
        <ele>383</ele>
        <time>2019-07-14T06:44:21.000Z</time>
      </trkpt>
      <trkpt lat="43.07972" lon="1.30706">
        <ele>382.60000610352</ele>
        <time>2019-07-14T06:44:22.000Z</time>
      </trkpt>
      <trkpt lat="43.07974" lon="1.30715">
        <ele>382.20001220703</ele>
        <time>2019-07-14T06:44:23.000Z</time>
      </trkpt>
      <trkpt lat="43.07975" lon="1.30724">
        <ele>381.60000610352</ele>
        <time>2019-07-14T06:44:24.000Z</time>
      </trkpt>
      <trkpt lat="43.07974" lon="1.30732">
        <ele>381.20001220703</ele>
        <time>2019-07-14T06:44:25.000Z</time>
      </trkpt>
      <trkpt lat="43.07974" lon="1.30749">
        <ele>381.20001220703</ele>
        <time>2019-07-14T06:44:27.000Z</time>
      </trkpt>
      <trkpt lat="43.07976" lon="1.30765">
        <ele>380.79998779297</ele>
        <time>2019-07-14T06:44:29.000Z</time>
      </trkpt>
      <trkpt lat="43.07976" lon="1.30772">
        <ele>380.39999389648</ele>
        <time>2019-07-14T06:44:30.000Z</time>
      </trkpt>
      <trkpt lat="43.07976" lon="1.30779">
        <ele>380</ele>
        <time>2019-07-14T06:44:31.000Z</time>
      </trkpt>
      <trkpt lat="43.07977" lon="1.30785">
        <ele>379.60000610352</ele>
        <time>2019-07-14T06:44:32.000Z</time>
      </trkpt>
      <trkpt lat="43.07977" lon="1.30791">
        <ele>379.20001220703</ele>
        <time>2019-07-14T06:44:33.000Z</time>
      </trkpt>
      <trkpt lat="43.07978" lon="1.3081">
        <ele>379.20001220703</ele>
        <time>2019-07-14T06:44:36.000Z</time>
      </trkpt>
      <trkpt lat="43.07979" lon="1.30828">
        <ele>379.20001220703</ele>
        <time>2019-07-14T06:44:39.000Z</time>
      </trkpt>
      <trkpt lat="43.07982" lon="1.30833">
        <ele>379.20001220703</ele>
        <time>2019-07-14T06:44:40.000Z</time>
      </trkpt>
      <trkpt lat="43.07987" lon="1.30857">
        <ele>379.20001220703</ele>
        <time>2019-07-14T06:44:44.000Z</time>
      </trkpt>
      <trkpt lat="43.07987" lon="1.30862">
        <ele>379.20001220703</ele>
        <time>2019-07-14T06:44:45.000Z</time>
      </trkpt>
      <trkpt lat="43.07988" lon="1.30886">
        <ele>379.20001220703</ele>
        <time>2019-07-14T06:44:50.000Z</time>
      </trkpt>
      <trkpt lat="43.07983" lon="1.30916">
        <ele>379.20001220703</ele>
        <time>2019-07-14T06:44:56.000Z</time>
      </trkpt>
      <trkpt lat="43.07981" lon="1.30931">
        <ele>379.79998779297</ele>
        <time>2019-07-14T06:44:59.000Z</time>
      </trkpt>
      <trkpt lat="43.07981" lon="1.30935">
        <ele>380.20001220703</ele>
        <time>2019-07-14T06:45:00.000Z</time>
      </trkpt>
      <trkpt lat="43.07981" lon="1.3094">
        <ele>380.60000610352</ele>
        <time>2019-07-14T06:45:01.000Z</time>
      </trkpt>
      <trkpt lat="43.07979" lon="1.30944">
        <ele>381</ele>
        <time>2019-07-14T06:45:02.000Z</time>
      </trkpt>
      <trkpt lat="43.07979" lon="1.30948">
        <ele>381.39999389648</ele>
        <time>2019-07-14T06:45:03.000Z</time>
      </trkpt>
      <trkpt lat="43.07977" lon="1.30957">
        <ele>381.39999389648</ele>
        <time>2019-07-14T06:45:05.000Z</time>
      </trkpt>
      <trkpt lat="43.07975" lon="1.30967">
        <ele>381.39999389648</ele>
        <time>2019-07-14T06:45:07.000Z</time>
      </trkpt>
      <trkpt lat="43.07972" lon="1.30976">
        <ele>381.39999389648</ele>
        <time>2019-07-14T06:45:10.000Z</time>
      </trkpt>
      <trkpt lat="43.07962" lon="1.30986">
        <ele>381.39999389648</ele>
        <time>2019-07-14T06:45:13.000Z</time>
      </trkpt>
      <trkpt lat="43.07945" lon="1.31005">
        <ele>381.39999389648</ele>
        <time>2019-07-14T06:45:19.000Z</time>
      </trkpt>
      <trkpt lat="43.07937" lon="1.31027">
        <ele>381.39999389648</ele>
        <time>2019-07-14T06:45:24.000Z</time>
      </trkpt>
      <trkpt lat="43.07932" lon="1.31046">
        <ele>381.39999389648</ele>
        <time>2019-07-14T06:45:28.000Z</time>
      </trkpt>
      <trkpt lat="43.07927" lon="1.31062">
        <ele>381.39999389648</ele>
        <time>2019-07-14T06:45:31.000Z</time>
      </trkpt>
      <trkpt lat="43.07925" lon="1.31067">
        <ele>381.39999389648</ele>
        <time>2019-07-14T06:45:32.000Z</time>
      </trkpt>
      <trkpt lat="43.07922" lon="1.31079">
        <ele>381.39999389648</ele>
        <time>2019-07-14T06:45:34.000Z</time>
      </trkpt>
      <trkpt lat="43.07921" lon="1.31087">
        <ele>382</ele>
        <time>2019-07-14T06:45:36.000Z</time>
      </trkpt>
      <trkpt lat="43.0792" lon="1.3109">
        <ele>382.39999389648</ele>
        <time>2019-07-14T06:45:37.000Z</time>
      </trkpt>
      <trkpt lat="43.07918" lon="1.31097">
        <ele>382.79998779297</ele>
        <time>2019-07-14T06:45:38.000Z</time>
      </trkpt>
      <trkpt lat="43.07919" lon="1.31103">
        <ele>383.20001220703</ele>
        <time>2019-07-14T06:45:39.000Z</time>
      </trkpt>
      <trkpt lat="43.07918" lon="1.31109">
        <ele>383.60000610352</ele>
        <time>2019-07-14T06:45:40.000Z</time>
      </trkpt>
      <trkpt lat="43.07908" lon="1.3112">
        <ele>383.60000610352</ele>
        <time>2019-07-14T06:45:43.000Z</time>
      </trkpt>
      <trkpt lat="43.07898" lon="1.31123">
        <ele>383.60000610352</ele>
        <time>2019-07-14T06:45:46.000Z</time>
      </trkpt>
      <trkpt lat="43.07874" lon="1.3113">
        <ele>383.60000610352</ele>
        <time>2019-07-14T06:45:52.000Z</time>
      </trkpt>
      <trkpt lat="43.0787" lon="1.31133">
        <ele>383.60000610352</ele>
        <time>2019-07-14T06:45:53.000Z</time>
      </trkpt>
      <trkpt lat="43.07867" lon="1.31136">
        <ele>384</ele>
        <time>2019-07-14T06:45:54.000Z</time>
      </trkpt>
      <trkpt lat="43.07862" lon="1.31141">
        <ele>384.39999389648</ele>
        <time>2019-07-14T06:45:55.000Z</time>
      </trkpt>
      <trkpt lat="43.07858" lon="1.31146">
        <ele>384.79998779297</ele>
        <time>2019-07-14T06:45:56.000Z</time>
      </trkpt>
      <trkpt lat="43.07855" lon="1.31149">
        <ele>385.20001220703</ele>
        <time>2019-07-14T06:45:57.000Z</time>
      </trkpt>
      <trkpt lat="43.07852" lon="1.31154">
        <ele>385.60000610352</ele>
        <time>2019-07-14T06:45:58.000Z</time>
      </trkpt>
      <trkpt lat="43.07834" lon="1.31177">
        <ele>385.60000610352</ele>
        <time>2019-07-14T06:46:04.000Z</time>
      </trkpt>
      <trkpt lat="43.07832" lon="1.31186">
        <ele>385.60000610352</ele>
        <time>2019-07-14T06:46:06.000Z</time>
      </trkpt>
      <trkpt lat="43.07832" lon="1.3119">
        <ele>386</ele>
        <time>2019-07-14T06:46:07.000Z</time>
      </trkpt>
      <trkpt lat="43.07831" lon="1.31194">
        <ele>386.39999389648</ele>
        <time>2019-07-14T06:46:08.000Z</time>
      </trkpt>
      <trkpt lat="43.07831" lon="1.312">
        <ele>386.79998779297</ele>
        <time>2019-07-14T06:46:09.000Z</time>
      </trkpt>
      <trkpt lat="43.07832" lon="1.31204">
        <ele>387.20001220703</ele>
        <time>2019-07-14T06:46:10.000Z</time>
      </trkpt>
      <trkpt lat="43.07831" lon="1.31209">
        <ele>387.79998779297</ele>
        <time>2019-07-14T06:46:11.000Z</time>
      </trkpt>
      <trkpt lat="43.07826" lon="1.31227">
        <ele>387.79998779297</ele>
        <time>2019-07-14T06:46:15.000Z</time>
      </trkpt>
      <trkpt lat="43.07816" lon="1.31242">
        <ele>387.79998779297</ele>
        <time>2019-07-14T06:46:19.000Z</time>
      </trkpt>
      <trkpt lat="43.07813" lon="1.31246">
        <ele>387.79998779297</ele>
        <time>2019-07-14T06:46:20.000Z</time>
      </trkpt>
      <trkpt lat="43.07801" lon="1.31251">
        <ele>387.79998779297</ele>
        <time>2019-07-14T06:46:23.000Z</time>
      </trkpt>
      <trkpt lat="43.07798" lon="1.31254">
        <ele>387.79998779297</ele>
        <time>2019-07-14T06:46:24.000Z</time>
      </trkpt>
      <trkpt lat="43.0778" lon="1.31264">
        <ele>387.79998779297</ele>
        <time>2019-07-14T06:46:28.000Z</time>
      </trkpt>
      <trkpt lat="43.07756" lon="1.31278">
        <ele>387.79998779297</ele>
        <time>2019-07-14T06:46:34.000Z</time>
      </trkpt>
      <trkpt lat="43.07737" lon="1.31299">
        <ele>387.79998779297</ele>
        <time>2019-07-14T06:46:39.000Z</time>
      </trkpt>
      <trkpt lat="43.07715" lon="1.31322">
        <ele>387.79998779297</ele>
        <time>2019-07-14T06:46:44.000Z</time>
      </trkpt>
      <trkpt lat="43.07683" lon="1.31347">
        <ele>387.79998779297</ele>
        <time>2019-07-14T06:46:50.000Z</time>
      </trkpt>
      <trkpt lat="43.07676" lon="1.31351">
        <ele>387.20001220703</ele>
        <time>2019-07-14T06:46:51.000Z</time>
      </trkpt>
      <trkpt lat="43.07669" lon="1.31355">
        <ele>386.79998779297</ele>
        <time>2019-07-14T06:46:52.000Z</time>
      </trkpt>
      <trkpt lat="43.07661" lon="1.31357">
        <ele>386.39999389648</ele>
        <time>2019-07-14T06:46:53.000Z</time>
      </trkpt>
      <trkpt lat="43.07653" lon="1.31358">
        <ele>386</ele>
        <time>2019-07-14T06:46:54.000Z</time>
      </trkpt>
      <trkpt lat="43.07643" lon="1.31358">
        <ele>385.60000610352</ele>
        <time>2019-07-14T06:46:55.000Z</time>
      </trkpt>
      <trkpt lat="43.07634" lon="1.3136">
        <ele>385</ele>
        <time>2019-07-14T06:46:56.000Z</time>
      </trkpt>
      <trkpt lat="43.07625" lon="1.31364">
        <ele>384.60000610352</ele>
        <time>2019-07-14T06:46:57.000Z</time>
      </trkpt>
      <trkpt lat="43.07616" lon="1.31368">
        <ele>383.79998779297</ele>
        <time>2019-07-14T06:46:58.000Z</time>
      </trkpt>
      <trkpt lat="43.07606" lon="1.31373">
        <ele>383.20001220703</ele>
        <time>2019-07-14T06:46:59.000Z</time>
      </trkpt>
      <trkpt lat="43.07596" lon="1.31379">
        <ele>382.20001220703</ele>
        <time>2019-07-14T06:47:00.000Z</time>
      </trkpt>
      <trkpt lat="43.07586" lon="1.31387">
        <ele>381.39999389648</ele>
        <time>2019-07-14T06:47:01.000Z</time>
      </trkpt>
      <trkpt lat="43.07576" lon="1.31394">
        <ele>380.39999389648</ele>
        <time>2019-07-14T06:47:02.000Z</time>
      </trkpt>
      <trkpt lat="43.07565" lon="1.31404">
        <ele>379.20001220703</ele>
        <time>2019-07-14T06:47:03.000Z</time>
      </trkpt>
      <trkpt lat="43.07555" lon="1.31412">
        <ele>377.79998779297</ele>
        <time>2019-07-14T06:47:04.000Z</time>
      </trkpt>
      <trkpt lat="43.07546" lon="1.31421">
        <ele>376.60000610352</ele>
        <time>2019-07-14T06:47:05.000Z</time>
      </trkpt>
      <trkpt lat="43.07539" lon="1.31428">
        <ele>375.20001220703</ele>
        <time>2019-07-14T06:47:06.000Z</time>
      </trkpt>
      <trkpt lat="43.07532" lon="1.31435">
        <ele>374</ele>
        <time>2019-07-14T06:47:07.000Z</time>
      </trkpt>
      <trkpt lat="43.07526" lon="1.31442">
        <ele>371.39999389648</ele>
        <time>2019-07-14T06:47:08.000Z</time>
      </trkpt>
      <trkpt lat="43.07507" lon="1.31465">
        <ele>371.39999389648</ele>
        <time>2019-07-14T06:47:11.000Z</time>
      </trkpt>
      <trkpt lat="43.07485" lon="1.31487">
        <ele>370.79998779297</ele>
        <time>2019-07-14T06:47:14.000Z</time>
      </trkpt>
      <trkpt lat="43.07478" lon="1.31494">
        <ele>370.39999389648</ele>
        <time>2019-07-14T06:47:15.000Z</time>
      </trkpt>
      <trkpt lat="43.07471" lon="1.315">
        <ele>369.79998779297</ele>
        <time>2019-07-14T06:47:16.000Z</time>
      </trkpt>
      <trkpt lat="43.07463" lon="1.31507">
        <ele>369.20001220703</ele>
        <time>2019-07-14T06:47:17.000Z</time>
      </trkpt>
      <trkpt lat="43.07456" lon="1.31513">
        <ele>368.79998779297</ele>
        <time>2019-07-14T06:47:18.000Z</time>
      </trkpt>
      <trkpt lat="43.07449" lon="1.3152">
        <ele>368.39999389648</ele>
        <time>2019-07-14T06:47:19.000Z</time>
      </trkpt>
      <trkpt lat="43.07442" lon="1.31527">
        <ele>367.79998779297</ele>
        <time>2019-07-14T06:47:20.000Z</time>
      </trkpt>
      <trkpt lat="43.07435" lon="1.31532">
        <ele>367.39999389648</ele>
        <time>2019-07-14T06:47:21.000Z</time>
      </trkpt>
      <trkpt lat="43.07429" lon="1.31536">
        <ele>367</ele>
        <time>2019-07-14T06:47:22.000Z</time>
      </trkpt>
      <trkpt lat="43.07421" lon="1.31538">
        <ele>366.39999389648</ele>
        <time>2019-07-14T06:47:23.000Z</time>
      </trkpt>
      <trkpt lat="43.07414" lon="1.31542">
        <ele>365.79998779297</ele>
        <time>2019-07-14T06:47:24.000Z</time>
      </trkpt>
      <trkpt lat="43.07407" lon="1.31549">
        <ele>365.20001220703</ele>
        <time>2019-07-14T06:47:25.000Z</time>
      </trkpt>
      <trkpt lat="43.07401" lon="1.31557">
        <ele>364.79998779297</ele>
        <time>2019-07-14T06:47:26.000Z</time>
      </trkpt>
      <trkpt lat="43.07396" lon="1.31566">
        <ele>364.20001220703</ele>
        <time>2019-07-14T06:47:27.000Z</time>
      </trkpt>
      <trkpt lat="43.07391" lon="1.31575">
        <ele>363.60000610352</ele>
        <time>2019-07-14T06:47:28.000Z</time>
      </trkpt>
      <trkpt lat="43.07386" lon="1.31584">
        <ele>363.20001220703</ele>
        <time>2019-07-14T06:47:29.000Z</time>
      </trkpt>
      <trkpt lat="43.07381" lon="1.31593">
        <ele>362.60000610352</ele>
        <time>2019-07-14T06:47:30.000Z</time>
      </trkpt>
      <trkpt lat="43.07376" lon="1.31601">
        <ele>362.20001220703</ele>
        <time>2019-07-14T06:47:31.000Z</time>
      </trkpt>
      <trkpt lat="43.07366" lon="1.31619">
        <ele>361.79998779297</ele>
        <time>2019-07-14T06:47:33.000Z</time>
      </trkpt>
      <trkpt lat="43.07361" lon="1.31628">
        <ele>361.39999389648</ele>
        <time>2019-07-14T06:47:34.000Z</time>
      </trkpt>
      <trkpt lat="43.07357" lon="1.31636">
        <ele>361</ele>
        <time>2019-07-14T06:47:35.000Z</time>
      </trkpt>
      <trkpt lat="43.07352" lon="1.31645">
        <ele>360.60000610352</ele>
        <time>2019-07-14T06:47:36.000Z</time>
      </trkpt>
      <trkpt lat="43.07347" lon="1.31653">
        <ele>360.20001220703</ele>
        <time>2019-07-14T06:47:37.000Z</time>
      </trkpt>
      <trkpt lat="43.07316" lon="1.31706">
        <ele>360.20001220703</ele>
        <time>2019-07-14T06:47:43.000Z</time>
      </trkpt>
      <trkpt lat="43.073" lon="1.31734">
        <ele>359.60000610352</ele>
        <time>2019-07-14T06:47:46.000Z</time>
      </trkpt>
      <trkpt lat="43.07295" lon="1.31742">
        <ele>359.20001220703</ele>
        <time>2019-07-14T06:47:47.000Z</time>
      </trkpt>
      <trkpt lat="43.07292" lon="1.31752">
        <ele>358.60000610352</ele>
        <time>2019-07-14T06:47:48.000Z</time>
      </trkpt>
      <trkpt lat="43.07292" lon="1.31761">
        <ele>358.20001220703</ele>
        <time>2019-07-14T06:47:49.000Z</time>
      </trkpt>
      <trkpt lat="43.07295" lon="1.31769">
        <ele>357.60000610352</ele>
        <time>2019-07-14T06:47:50.000Z</time>
      </trkpt>
      <trkpt lat="43.07309" lon="1.31776">
        <ele>357.20001220703</ele>
        <time>2019-07-14T06:47:52.000Z</time>
      </trkpt>
      <trkpt lat="43.07317" lon="1.31779">
        <ele>356.79998779297</ele>
        <time>2019-07-14T06:47:53.000Z</time>
      </trkpt>
      <trkpt lat="43.07325" lon="1.31784">
        <ele>356.39999389648</ele>
        <time>2019-07-14T06:47:54.000Z</time>
      </trkpt>
      <trkpt lat="43.07334" lon="1.3179">
        <ele>355.79998779297</ele>
        <time>2019-07-14T06:47:55.000Z</time>
      </trkpt>
      <trkpt lat="43.07342" lon="1.31797">
        <ele>355.20001220703</ele>
        <time>2019-07-14T06:47:56.000Z</time>
      </trkpt>
      <trkpt lat="43.0735" lon="1.31804">
        <ele>354.60000610352</ele>
        <time>2019-07-14T06:47:57.000Z</time>
      </trkpt>
      <trkpt lat="43.07358" lon="1.31811">
        <ele>353.39999389648</ele>
        <time>2019-07-14T06:47:58.000Z</time>
      </trkpt>
      <trkpt lat="43.07366" lon="1.31819">
        <ele>352.79998779297</ele>
        <time>2019-07-14T06:47:59.000Z</time>
      </trkpt>
      <trkpt lat="43.07372" lon="1.3183">
        <ele>352.39999389648</ele>
        <time>2019-07-14T06:48:00.000Z</time>
      </trkpt>
      <trkpt lat="43.07377" lon="1.31842">
        <ele>351.60000610352</ele>
        <time>2019-07-14T06:48:01.000Z</time>
      </trkpt>
      <trkpt lat="43.07379" lon="1.31856">
        <ele>351</ele>
        <time>2019-07-14T06:48:02.000Z</time>
      </trkpt>
      <trkpt lat="43.0738" lon="1.31871">
        <ele>350.39999389648</ele>
        <time>2019-07-14T06:48:03.000Z</time>
      </trkpt>
      <trkpt lat="43.0738" lon="1.31885">
        <ele>349.60000610352</ele>
        <time>2019-07-14T06:48:04.000Z</time>
      </trkpt>
      <trkpt lat="43.0738" lon="1.31901">
        <ele>349</ele>
        <time>2019-07-14T06:48:05.000Z</time>
      </trkpt>
      <trkpt lat="43.0738" lon="1.31916">
        <ele>348.20001220703</ele>
        <time>2019-07-14T06:48:06.000Z</time>
      </trkpt>
      <trkpt lat="43.0738" lon="1.31931">
        <ele>347.60000610352</ele>
        <time>2019-07-14T06:48:07.000Z</time>
      </trkpt>
      <trkpt lat="43.0738" lon="1.31947">
        <ele>347</ele>
        <time>2019-07-14T06:48:08.000Z</time>
      </trkpt>
      <trkpt lat="43.07379" lon="1.31962">
        <ele>346.39999389648</ele>
        <time>2019-07-14T06:48:09.000Z</time>
      </trkpt>
      <trkpt lat="43.07377" lon="1.31977">
        <ele>345.79998779297</ele>
        <time>2019-07-14T06:48:10.000Z</time>
      </trkpt>
      <trkpt lat="43.07376" lon="1.31992">
        <ele>345.20001220703</ele>
        <time>2019-07-14T06:48:11.000Z</time>
      </trkpt>
      <trkpt lat="43.07374" lon="1.32007">
        <ele>344.79998779297</ele>
        <time>2019-07-14T06:48:12.000Z</time>
      </trkpt>
      <trkpt lat="43.0737" lon="1.32045">
        <ele>344.79998779297</ele>
        <time>2019-07-14T06:48:15.000Z</time>
      </trkpt>
      <trkpt lat="43.0737" lon="1.32054">
        <ele>344.79998779297</ele>
        <time>2019-07-14T06:48:16.000Z</time>
      </trkpt>
      <trkpt lat="43.07371" lon="1.32061">
        <ele>344.20001220703</ele>
        <time>2019-07-14T06:48:17.000Z</time>
      </trkpt>
      <trkpt lat="43.07373" lon="1.32068">
        <ele>343.79998779297</ele>
        <time>2019-07-14T06:48:18.000Z</time>
      </trkpt>
      <trkpt lat="43.07377" lon="1.32073">
        <ele>343.39999389648</ele>
        <time>2019-07-14T06:48:19.000Z</time>
      </trkpt>
      <trkpt lat="43.07382" lon="1.32077">
        <ele>343</ele>
        <time>2019-07-14T06:48:20.000Z</time>
      </trkpt>
      <trkpt lat="43.07386" lon="1.32081">
        <ele>342.60000610352</ele>
        <time>2019-07-14T06:48:21.000Z</time>
      </trkpt>
      <trkpt lat="43.07393" lon="1.32099">
        <ele>342.60000610352</ele>
        <time>2019-07-14T06:48:24.000Z</time>
      </trkpt>
      <trkpt lat="43.07395" lon="1.32105">
        <ele>342.60000610352</ele>
        <time>2019-07-14T06:48:25.000Z</time>
      </trkpt>
      <trkpt lat="43.07397" lon="1.32118">
        <ele>343</ele>
        <time>2019-07-14T06:48:27.000Z</time>
      </trkpt>
      <trkpt lat="43.07398" lon="1.32125">
        <ele>343.39999389648</ele>
        <time>2019-07-14T06:48:28.000Z</time>
      </trkpt>
      <trkpt lat="43.07399" lon="1.32132">
        <ele>343.79998779297</ele>
        <time>2019-07-14T06:48:29.000Z</time>
      </trkpt>
      <trkpt lat="43.07399" lon="1.32138">
        <ele>344.39999389648</ele>
        <time>2019-07-14T06:48:30.000Z</time>
      </trkpt>
      <trkpt lat="43.074" lon="1.32144">
        <ele>344.79998779297</ele>
        <time>2019-07-14T06:48:31.000Z</time>
      </trkpt>
      <trkpt lat="43.074" lon="1.32163">
        <ele>344.79998779297</ele>
        <time>2019-07-14T06:48:34.000Z</time>
      </trkpt>
      <trkpt lat="43.07402" lon="1.32169">
        <ele>345.20001220703</ele>
        <time>2019-07-14T06:48:35.000Z</time>
      </trkpt>
      <trkpt lat="43.07405" lon="1.32175">
        <ele>345.60000610352</ele>
        <time>2019-07-14T06:48:36.000Z</time>
      </trkpt>
      <trkpt lat="43.0741" lon="1.32179">
        <ele>346</ele>
        <time>2019-07-14T06:48:37.000Z</time>
      </trkpt>
      <trkpt lat="43.07415" lon="1.32183">
        <ele>346.39999389648</ele>
        <time>2019-07-14T06:48:38.000Z</time>
      </trkpt>
      <trkpt lat="43.0742" lon="1.32183">
        <ele>346.79998779297</ele>
        <time>2019-07-14T06:48:39.000Z</time>
      </trkpt>
      <trkpt lat="43.07425" lon="1.32182">
        <ele>346.79998779297</ele>
        <time>2019-07-14T06:48:40.000Z</time>
      </trkpt>
      <trkpt lat="43.07438" lon="1.32173">
        <ele>347.39999389648</ele>
        <time>2019-07-14T06:48:43.000Z</time>
      </trkpt>
      <trkpt lat="43.07442" lon="1.3217">
        <ele>347.79998779297</ele>
        <time>2019-07-14T06:48:44.000Z</time>
      </trkpt>
      <trkpt lat="43.07447" lon="1.32167">
        <ele>348.20001220703</ele>
        <time>2019-07-14T06:48:45.000Z</time>
      </trkpt>
      <trkpt lat="43.07452" lon="1.32164">
        <ele>348.60000610352</ele>
        <time>2019-07-14T06:48:46.000Z</time>
      </trkpt>
      <trkpt lat="43.07457" lon="1.32161">
        <ele>349</ele>
        <time>2019-07-14T06:48:47.000Z</time>
      </trkpt>
      <trkpt lat="43.07465" lon="1.32153">
        <ele>349</ele>
        <time>2019-07-14T06:48:49.000Z</time>
      </trkpt>
      <trkpt lat="43.07485" lon="1.32137">
        <ele>349</ele>
        <time>2019-07-14T06:48:53.000Z</time>
      </trkpt>
      <trkpt lat="43.07507" lon="1.3212">
        <ele>349</ele>
        <time>2019-07-14T06:48:57.000Z</time>
      </trkpt>
      <trkpt lat="43.07537" lon="1.32095">
        <ele>349</ele>
        <time>2019-07-14T06:49:03.000Z</time>
      </trkpt>
      <trkpt lat="43.07554" lon="1.3208">
        <ele>349</ele>
        <time>2019-07-14T06:49:07.000Z</time>
      </trkpt>
      <trkpt lat="43.07558" lon="1.32079">
        <ele>349</ele>
        <time>2019-07-14T06:49:08.000Z</time>
      </trkpt>
      <trkpt lat="43.07569" lon="1.32075">
        <ele>349</ele>
        <time>2019-07-14T06:49:10.000Z</time>
      </trkpt>
      <trkpt lat="43.07581" lon="1.3207">
        <ele>349</ele>
        <time>2019-07-14T06:49:12.000Z</time>
      </trkpt>
      <trkpt lat="43.07603" lon="1.32064">
        <ele>349</ele>
        <time>2019-07-14T06:49:15.000Z</time>
      </trkpt>
      <trkpt lat="43.0761" lon="1.32063">
        <ele>348.60000610352</ele>
        <time>2019-07-14T06:49:16.000Z</time>
      </trkpt>
      <trkpt lat="43.07618" lon="1.32062">
        <ele>348.20001220703</ele>
        <time>2019-07-14T06:49:17.000Z</time>
      </trkpt>
      <trkpt lat="43.07626" lon="1.3206">
        <ele>347.79998779297</ele>
        <time>2019-07-14T06:49:18.000Z</time>
      </trkpt>
      <trkpt lat="43.07634" lon="1.32059">
        <ele>347.39999389648</ele>
        <time>2019-07-14T06:49:19.000Z</time>
      </trkpt>
      <trkpt lat="43.07642" lon="1.32057">
        <ele>347</ele>
        <time>2019-07-14T06:49:20.000Z</time>
      </trkpt>
      <trkpt lat="43.0765" lon="1.32055">
        <ele>346.60000610352</ele>
        <time>2019-07-14T06:49:21.000Z</time>
      </trkpt>
      <trkpt lat="43.07658" lon="1.32053">
        <ele>346.20001220703</ele>
        <time>2019-07-14T06:49:22.000Z</time>
      </trkpt>
      <trkpt lat="43.07666" lon="1.32051">
        <ele>345.79998779297</ele>
        <time>2019-07-14T06:49:23.000Z</time>
      </trkpt>
      <trkpt lat="43.07674" lon="1.3205">
        <ele>345.20001220703</ele>
        <time>2019-07-14T06:49:24.000Z</time>
      </trkpt>
      <trkpt lat="43.07682" lon="1.32048">
        <ele>344.79998779297</ele>
        <time>2019-07-14T06:49:25.000Z</time>
      </trkpt>
      <trkpt lat="43.07703" lon="1.32044">
        <ele>344.79998779297</ele>
        <time>2019-07-14T06:49:28.000Z</time>
      </trkpt>
      <trkpt lat="43.0771" lon="1.32045">
        <ele>344.39999389648</ele>
        <time>2019-07-14T06:49:29.000Z</time>
      </trkpt>
      <trkpt lat="43.07717" lon="1.32049">
        <ele>343.79998779297</ele>
        <time>2019-07-14T06:49:30.000Z</time>
      </trkpt>
      <trkpt lat="43.07723" lon="1.32056">
        <ele>343.20001220703</ele>
        <time>2019-07-14T06:49:31.000Z</time>
      </trkpt>
      <trkpt lat="43.07727" lon="1.32065">
        <ele>342.79998779297</ele>
        <time>2019-07-14T06:49:32.000Z</time>
      </trkpt>
      <trkpt lat="43.07731" lon="1.32074">
        <ele>342.20001220703</ele>
        <time>2019-07-14T06:49:33.000Z</time>
      </trkpt>
      <trkpt lat="43.07734" lon="1.32083">
        <ele>342.20001220703</ele>
        <time>2019-07-14T06:49:34.000Z</time>
      </trkpt>
      <trkpt lat="43.07746" lon="1.32105">
        <ele>341.20001220703</ele>
        <time>2019-07-14T06:49:37.000Z</time>
      </trkpt>
      <trkpt lat="43.0775" lon="1.32112">
        <ele>340.79998779297</ele>
        <time>2019-07-14T06:49:38.000Z</time>
      </trkpt>
      <trkpt lat="43.07754" lon="1.32118">
        <ele>340.20001220703</ele>
        <time>2019-07-14T06:49:39.000Z</time>
      </trkpt>
      <trkpt lat="43.07759" lon="1.32123">
        <ele>339.60000610352</ele>
        <time>2019-07-14T06:49:40.000Z</time>
      </trkpt>
      <trkpt lat="43.07763" lon="1.32128">
        <ele>339</ele>
        <time>2019-07-14T06:49:41.000Z</time>
      </trkpt>
      <trkpt lat="43.07767" lon="1.32133">
        <ele>338.39999389648</ele>
        <time>2019-07-14T06:49:42.000Z</time>
      </trkpt>
      <trkpt lat="43.0777" lon="1.32138">
        <ele>337.79998779297</ele>
        <time>2019-07-14T06:49:43.000Z</time>
      </trkpt>
      <trkpt lat="43.07773" lon="1.32143">
        <ele>337.20001220703</ele>
        <time>2019-07-14T06:49:44.000Z</time>
      </trkpt>
      <trkpt lat="43.07777" lon="1.32153">
        <ele>337.20001220703</ele>
        <time>2019-07-14T06:49:46.000Z</time>
      </trkpt>
      <trkpt lat="43.07787" lon="1.32172">
        <ele>337.20001220703</ele>
        <time>2019-07-14T06:49:50.000Z</time>
      </trkpt>
      <trkpt lat="43.0779" lon="1.32174">
        <ele>337.20001220703</ele>
        <time>2019-07-14T06:49:51.000Z</time>
      </trkpt>
      <trkpt lat="43.07802" lon="1.32169">
        <ele>337.20001220703</ele>
        <time>2019-07-14T06:49:54.000Z</time>
      </trkpt>
      <trkpt lat="43.07814" lon="1.32159">
        <ele>337.60000610352</ele>
        <time>2019-07-14T06:49:57.000Z</time>
      </trkpt>
      <trkpt lat="43.07818" lon="1.32156">
        <ele>338.20001220703</ele>
        <time>2019-07-14T06:49:58.000Z</time>
      </trkpt>
      <trkpt lat="43.07823" lon="1.32153">
        <ele>338.60000610352</ele>
        <time>2019-07-14T06:49:59.000Z</time>
      </trkpt>
      <trkpt lat="43.07827" lon="1.3215">
        <ele>339</ele>
        <time>2019-07-14T06:50:00.000Z</time>
      </trkpt>
      <trkpt lat="43.07831" lon="1.32147">
        <ele>339.39999389648</ele>
        <time>2019-07-14T06:50:01.000Z</time>
      </trkpt>
      <trkpt lat="43.07861" lon="1.32123">
        <ele>339.39999389648</ele>
        <time>2019-07-14T06:50:08.000Z</time>
      </trkpt>
      <trkpt lat="43.07892" lon="1.32099">
        <ele>339.39999389648</ele>
        <time>2019-07-14T06:50:15.000Z</time>
      </trkpt>
      <trkpt lat="43.07916" lon="1.32075">
        <ele>339.39999389648</ele>
        <time>2019-07-14T06:50:21.000Z</time>
      </trkpt>
      <trkpt lat="43.07924" lon="1.32066">
        <ele>339.79998779297</ele>
        <time>2019-07-14T06:50:23.000Z</time>
      </trkpt>
      <trkpt lat="43.07928" lon="1.32061">
        <ele>340.20001220703</ele>
        <time>2019-07-14T06:50:24.000Z</time>
      </trkpt>
      <trkpt lat="43.07932" lon="1.32057">
        <ele>340.60000610352</ele>
        <time>2019-07-14T06:50:25.000Z</time>
      </trkpt>
      <trkpt lat="43.07936" lon="1.32052">
        <ele>341.39999389648</ele>
        <time>2019-07-14T06:50:26.000Z</time>
      </trkpt>
      <trkpt lat="43.07958" lon="1.32023">
        <ele>341.39999389648</ele>
        <time>2019-07-14T06:50:32.000Z</time>
      </trkpt>
      <trkpt lat="43.07987" lon="1.31986">
        <ele>341.39999389648</ele>
        <time>2019-07-14T06:50:40.000Z</time>
      </trkpt>
      <trkpt lat="43.08" lon="1.31968">
        <ele>341.79998779297</ele>
        <time>2019-07-14T06:50:44.000Z</time>
      </trkpt>
      <trkpt lat="43.08004" lon="1.31964">
        <ele>342.20001220703</ele>
        <time>2019-07-14T06:50:45.000Z</time>
      </trkpt>
      <trkpt lat="43.08007" lon="1.3196">
        <ele>342.60000610352</ele>
        <time>2019-07-14T06:50:46.000Z</time>
      </trkpt>
      <trkpt lat="43.08011" lon="1.31956">
        <ele>343</ele>
        <time>2019-07-14T06:50:47.000Z</time>
      </trkpt>
      <trkpt lat="43.08014" lon="1.31951">
        <ele>343.39999389648</ele>
        <time>2019-07-14T06:50:48.000Z</time>
      </trkpt>
      <trkpt lat="43.08041" lon="1.31915">
        <ele>343.39999389648</ele>
        <time>2019-07-14T06:50:56.000Z</time>
      </trkpt>
      <trkpt lat="43.0806" lon="1.31883">
        <ele>343.79998779297</ele>
        <time>2019-07-14T06:51:03.000Z</time>
      </trkpt>
      <trkpt lat="43.08064" lon="1.31883">
        <ele>344.20001220703</ele>
        <time>2019-07-14T06:51:04.000Z</time>
      </trkpt>
      <trkpt lat="43.08068" lon="1.31886">
        <ele>344.60000610352</ele>
        <time>2019-07-14T06:51:05.000Z</time>
      </trkpt>
      <trkpt lat="43.08071" lon="1.31891">
        <ele>345</ele>
        <time>2019-07-14T06:51:06.000Z</time>
      </trkpt>
      <trkpt lat="43.08072" lon="1.31896">
        <ele>345.39999389648</ele>
        <time>2019-07-14T06:51:07.000Z</time>
      </trkpt>
      <trkpt lat="43.08074" lon="1.31902">
        <ele>345.39999389648</ele>
        <time>2019-07-14T06:51:08.000Z</time>
      </trkpt>
      <trkpt lat="43.08076" lon="1.31912">
        <ele>345.39999389648</ele>
        <time>2019-07-14T06:51:10.000Z</time>
      </trkpt>
      <trkpt lat="43.08082" lon="1.31932">
        <ele>345.39999389648</ele>
        <time>2019-07-14T06:51:14.000Z</time>
      </trkpt>
      <trkpt lat="43.08084" lon="1.31942">
        <ele>346</ele>
        <time>2019-07-14T06:51:16.000Z</time>
      </trkpt>
      <trkpt lat="43.08084" lon="1.31946">
        <ele>346.39999389648</ele>
        <time>2019-07-14T06:51:17.000Z</time>
      </trkpt>
      <trkpt lat="43.08085" lon="1.3195">
        <ele>346.79998779297</ele>
        <time>2019-07-14T06:51:18.000Z</time>
      </trkpt>
      <trkpt lat="43.08085" lon="1.31954">
        <ele>347.39999389648</ele>
        <time>2019-07-14T06:51:19.000Z</time>
      </trkpt>
      <trkpt lat="43.08085" lon="1.31958">
        <ele>347.79998779297</ele>
        <time>2019-07-14T06:51:20.000Z</time>
      </trkpt>
      <trkpt lat="43.08084" lon="1.31965">
        <ele>348.20001220703</ele>
        <time>2019-07-14T06:51:22.000Z</time>
      </trkpt>
      <trkpt lat="43.08083" lon="1.31968">
        <ele>348.79998779297</ele>
        <time>2019-07-14T06:51:23.000Z</time>
      </trkpt>
      <trkpt lat="43.08083" lon="1.31971">
        <ele>349.20001220703</ele>
        <time>2019-07-14T06:51:24.000Z</time>
      </trkpt>
      <trkpt lat="43.08082" lon="1.31974">
        <ele>349.60000610352</ele>
        <time>2019-07-14T06:51:25.000Z</time>
      </trkpt>
      <trkpt lat="43.08081" lon="1.31977">
        <ele>350</ele>
        <time>2019-07-14T06:51:26.000Z</time>
      </trkpt>
      <trkpt lat="43.08079" lon="1.31984">
        <ele>350.60000610352</ele>
        <time>2019-07-14T06:51:28.000Z</time>
      </trkpt>
      <trkpt lat="43.08078" lon="1.31987">
        <ele>351</ele>
        <time>2019-07-14T06:51:29.000Z</time>
      </trkpt>
      <trkpt lat="43.08076" lon="1.31991">
        <ele>351.39999389648</ele>
        <time>2019-07-14T06:51:30.000Z</time>
      </trkpt>
      <trkpt lat="43.08075" lon="1.31995">
        <ele>351.79998779297</ele>
        <time>2019-07-14T06:51:31.000Z</time>
      </trkpt>
      <trkpt lat="43.08075" lon="1.31999">
        <ele>352.20001220703</ele>
        <time>2019-07-14T06:51:32.000Z</time>
      </trkpt>
      <trkpt lat="43.08072" lon="1.32012">
        <ele>352.60000610352</ele>
        <time>2019-07-14T06:51:36.000Z</time>
      </trkpt>
      <trkpt lat="43.08071" lon="1.32016">
        <ele>353</ele>
        <time>2019-07-14T06:51:37.000Z</time>
      </trkpt>
      <trkpt lat="43.08071" lon="1.32019">
        <ele>353.39999389648</ele>
        <time>2019-07-14T06:51:38.000Z</time>
      </trkpt>
      <trkpt lat="43.08071" lon="1.32022">
        <ele>353.79998779297</ele>
        <time>2019-07-14T06:51:39.000Z</time>
      </trkpt>
      <trkpt lat="43.08071" lon="1.32025">
        <ele>354.20001220703</ele>
        <time>2019-07-14T06:51:40.000Z</time>
      </trkpt>
      <trkpt lat="43.0807" lon="1.32036">
        <ele>354.60000610352</ele>
        <time>2019-07-14T06:51:44.000Z</time>
      </trkpt>
      <trkpt lat="43.08069" lon="1.32039">
        <ele>355</ele>
        <time>2019-07-14T06:51:45.000Z</time>
      </trkpt>
      <trkpt lat="43.08069" lon="1.32042">
        <ele>355.39999389648</ele>
        <time>2019-07-14T06:51:46.000Z</time>
      </trkpt>
      <trkpt lat="43.08069" lon="1.32045">
        <ele>355.79998779297</ele>
        <time>2019-07-14T06:51:47.000Z</time>
      </trkpt>
      <trkpt lat="43.08069" lon="1.32047">
        <ele>356.20001220703</ele>
        <time>2019-07-14T06:51:48.000Z</time>
      </trkpt>
      <trkpt lat="43.0807" lon="1.32055">
        <ele>356.20001220703</ele>
        <time>2019-07-14T06:51:51.000Z</time>
      </trkpt>
      <trkpt lat="43.08068" lon="1.32061">
        <ele>356.79998779297</ele>
        <time>2019-07-14T06:51:53.000Z</time>
      </trkpt>
      <trkpt lat="43.08068" lon="1.32064">
        <ele>357.20001220703</ele>
        <time>2019-07-14T06:51:54.000Z</time>
      </trkpt>
      <trkpt lat="43.08067" lon="1.32066">
        <ele>357.60000610352</ele>
        <time>2019-07-14T06:51:55.000Z</time>
      </trkpt>
      <trkpt lat="43.08067" lon="1.32069">
        <ele>358.20001220703</ele>
        <time>2019-07-14T06:51:56.000Z</time>
      </trkpt>
      <trkpt lat="43.08067" lon="1.32072">
        <ele>358.60000610352</ele>
        <time>2019-07-14T06:51:57.000Z</time>
      </trkpt>
      <trkpt lat="43.08064" lon="1.32083">
        <ele>358.60000610352</ele>
        <time>2019-07-14T06:52:02.000Z</time>
      </trkpt>
      <trkpt lat="43.08064" lon="1.32086">
        <ele>359</ele>
        <time>2019-07-14T06:52:03.000Z</time>
      </trkpt>
      <trkpt lat="43.08064" lon="1.32089">
        <ele>359.39999389648</ele>
        <time>2019-07-14T06:52:04.000Z</time>
      </trkpt>
      <trkpt lat="43.08064" lon="1.32092">
        <ele>360.20001220703</ele>
        <time>2019-07-14T06:52:05.000Z</time>
      </trkpt>
      <trkpt lat="43.08064" lon="1.32094">
        <ele>360.79998779297</ele>
        <time>2019-07-14T06:52:06.000Z</time>
      </trkpt>
      <trkpt lat="43.08063" lon="1.32103">
        <ele>360.79998779297</ele>
        <time>2019-07-14T06:52:09.000Z</time>
      </trkpt>
      <trkpt lat="43.08063" lon="1.32113">
        <ele>361.20001220703</ele>
        <time>2019-07-14T06:52:12.000Z</time>
      </trkpt>
      <trkpt lat="43.08062" lon="1.32116">
        <ele>361.60000610352</ele>
        <time>2019-07-14T06:52:13.000Z</time>
      </trkpt>
      <trkpt lat="43.08061" lon="1.32119">
        <ele>362</ele>
        <time>2019-07-14T06:52:14.000Z</time>
      </trkpt>
      <trkpt lat="43.08061" lon="1.32122">
        <ele>362.39999389648</ele>
        <time>2019-07-14T06:52:15.000Z</time>
      </trkpt>
      <trkpt lat="43.0806" lon="1.32124">
        <ele>362.79998779297</ele>
        <time>2019-07-14T06:52:16.000Z</time>
      </trkpt>
      <trkpt lat="43.08057" lon="1.32139">
        <ele>362.79998779297</ele>
        <time>2019-07-14T06:52:22.000Z</time>
      </trkpt>
      <trkpt lat="43.08054" lon="1.32155">
        <ele>362.79998779297</ele>
        <time>2019-07-14T06:52:28.000Z</time>
      </trkpt>
      <trkpt lat="43.08051" lon="1.32172">
        <ele>362.79998779297</ele>
        <time>2019-07-14T06:52:34.000Z</time>
      </trkpt>
      <trkpt lat="43.0805" lon="1.32179">
        <ele>363.20001220703</ele>
        <time>2019-07-14T06:52:36.000Z</time>
      </trkpt>
      <trkpt lat="43.0805" lon="1.32182">
        <ele>363.60000610352</ele>
        <time>2019-07-14T06:52:37.000Z</time>
      </trkpt>
      <trkpt lat="43.08049" lon="1.32185">
        <ele>364</ele>
        <time>2019-07-14T06:52:38.000Z</time>
      </trkpt>
      <trkpt lat="43.08049" lon="1.32188">
        <ele>364.39999389648</ele>
        <time>2019-07-14T06:52:39.000Z</time>
      </trkpt>
      <trkpt lat="43.08049" lon="1.32191">
        <ele>364.79998779297</ele>
        <time>2019-07-14T06:52:40.000Z</time>
      </trkpt>
      <trkpt lat="43.08048" lon="1.32204">
        <ele>364.79998779297</ele>
        <time>2019-07-14T06:52:44.000Z</time>
      </trkpt>
      <trkpt lat="43.08046" lon="1.32221">
        <ele>364.79998779297</ele>
        <time>2019-07-14T06:52:48.000Z</time>
      </trkpt>
      <trkpt lat="43.08041" lon="1.32233">
        <ele>364.79998779297</ele>
        <time>2019-07-14T06:52:50.000Z</time>
      </trkpt>
      <trkpt lat="43.08037" lon="1.32238">
        <ele>364.39999389648</ele>
        <time>2019-07-14T06:52:51.000Z</time>
      </trkpt>
      <trkpt lat="43.08035" lon="1.32243">
        <ele>364</ele>
        <time>2019-07-14T06:52:52.000Z</time>
      </trkpt>
      <trkpt lat="43.08032" lon="1.32248">
        <ele>363.60000610352</ele>
        <time>2019-07-14T06:52:53.000Z</time>
      </trkpt>
      <trkpt lat="43.0803" lon="1.32253">
        <ele>363.20001220703</ele>
        <time>2019-07-14T06:52:54.000Z</time>
      </trkpt>
      <trkpt lat="43.08028" lon="1.32258">
        <ele>362.79998779297</ele>
        <time>2019-07-14T06:52:55.000Z</time>
      </trkpt>
      <trkpt lat="43.08027" lon="1.32262">
        <ele>362.79998779297</ele>
        <time>2019-07-14T06:52:56.000Z</time>
      </trkpt>
      <trkpt lat="43.08023" lon="1.32282">
        <ele>363.20001220703</ele>
        <time>2019-07-14T06:53:01.000Z</time>
      </trkpt>
      <trkpt lat="43.08022" lon="1.32285">
        <ele>363.60000610352</ele>
        <time>2019-07-14T06:53:02.000Z</time>
      </trkpt>
      <trkpt lat="43.08021" lon="1.32288">
        <ele>364</ele>
        <time>2019-07-14T06:53:03.000Z</time>
      </trkpt>
      <trkpt lat="43.0802" lon="1.3229">
        <ele>364.39999389648</ele>
        <time>2019-07-14T06:53:04.000Z</time>
      </trkpt>
      <trkpt lat="43.08019" lon="1.32293">
        <ele>364.79998779297</ele>
        <time>2019-07-14T06:53:05.000Z</time>
      </trkpt>
      <trkpt lat="43.08018" lon="1.32295">
        <ele>364.79998779297</ele>
        <time>2019-07-14T06:53:06.000Z</time>
      </trkpt>
      <trkpt lat="43.08006" lon="1.32316">
        <ele>364.79998779297</ele>
        <time>2019-07-14T06:53:13.000Z</time>
      </trkpt>
      <trkpt lat="43.07994" lon="1.32335">
        <ele>364.79998779297</ele>
        <time>2019-07-14T06:53:18.000Z</time>
      </trkpt>
      <trkpt lat="43.07987" lon="1.32348">
        <ele>364.79998779297</ele>
        <time>2019-07-14T06:53:22.000Z</time>
      </trkpt>
      <trkpt lat="43.07974" lon="1.32367">
        <ele>364.79998779297</ele>
        <time>2019-07-14T06:53:28.000Z</time>
      </trkpt>
      <trkpt lat="43.07962" lon="1.32386">
        <ele>364.79998779297</ele>
        <time>2019-07-14T06:53:34.000Z</time>
      </trkpt>
      <trkpt lat="43.07953" lon="1.32404">
        <ele>364.79998779297</ele>
        <time>2019-07-14T06:53:39.000Z</time>
      </trkpt>
      <trkpt lat="43.07939" lon="1.32422">
        <ele>364.79998779297</ele>
        <time>2019-07-14T06:53:44.000Z</time>
      </trkpt>
      <trkpt lat="43.0792" lon="1.32434">
        <ele>365.20001220703</ele>
        <time>2019-07-14T06:53:50.000Z</time>
      </trkpt>
      <trkpt lat="43.07917" lon="1.32436">
        <ele>365.60000610352</ele>
        <time>2019-07-14T06:53:51.000Z</time>
      </trkpt>
      <trkpt lat="43.07914" lon="1.32438">
        <ele>366</ele>
        <time>2019-07-14T06:53:52.000Z</time>
      </trkpt>
      <trkpt lat="43.07912" lon="1.32441">
        <ele>366.39999389648</ele>
        <time>2019-07-14T06:53:53.000Z</time>
      </trkpt>
      <trkpt lat="43.0791" lon="1.32445">
        <ele>366.79998779297</ele>
        <time>2019-07-14T06:53:54.000Z</time>
      </trkpt>
      <trkpt lat="43.07901" lon="1.3246">
        <ele>367.20001220703</ele>
        <time>2019-07-14T06:53:58.000Z</time>
      </trkpt>
      <trkpt lat="43.07899" lon="1.32463">
        <ele>367.60000610352</ele>
        <time>2019-07-14T06:53:59.000Z</time>
      </trkpt>
      <trkpt lat="43.07897" lon="1.32467">
        <ele>368.20001220703</ele>
        <time>2019-07-14T06:54:00.000Z</time>
      </trkpt>
      <trkpt lat="43.07895" lon="1.3247">
        <ele>368.60000610352</ele>
        <time>2019-07-14T06:54:01.000Z</time>
      </trkpt>
      <trkpt lat="43.07894" lon="1.32474">
        <ele>369</ele>
        <time>2019-07-14T06:54:02.000Z</time>
      </trkpt>
      <trkpt lat="43.07886" lon="1.32489">
        <ele>369</ele>
        <time>2019-07-14T06:54:07.000Z</time>
      </trkpt>
      <trkpt lat="43.07883" lon="1.32495">
        <ele>369.39999389648</ele>
        <time>2019-07-14T06:54:09.000Z</time>
      </trkpt>
      <trkpt lat="43.07881" lon="1.32498">
        <ele>369.79998779297</ele>
        <time>2019-07-14T06:54:10.000Z</time>
      </trkpt>
      <trkpt lat="43.0788" lon="1.32501">
        <ele>370.20001220703</ele>
        <time>2019-07-14T06:54:11.000Z</time>
      </trkpt>
      <trkpt lat="43.07878" lon="1.32503">
        <ele>370.60000610352</ele>
        <time>2019-07-14T06:54:12.000Z</time>
      </trkpt>
      <trkpt lat="43.07876" lon="1.32506">
        <ele>371</ele>
        <time>2019-07-14T06:54:13.000Z</time>
      </trkpt>
      <trkpt lat="43.07873" lon="1.32512">
        <ele>371</ele>
        <time>2019-07-14T06:54:15.000Z</time>
      </trkpt>
      <trkpt lat="43.07866" lon="1.32526">
        <ele>371.39999389648</ele>
        <time>2019-07-14T06:54:20.000Z</time>
      </trkpt>
      <trkpt lat="43.07865" lon="1.32528">
        <ele>371.79998779297</ele>
        <time>2019-07-14T06:54:21.000Z</time>
      </trkpt>
      <trkpt lat="43.07864" lon="1.32531">
        <ele>372.20001220703</ele>
        <time>2019-07-14T06:54:22.000Z</time>
      </trkpt>
      <trkpt lat="43.07862" lon="1.32534">
        <ele>372.79998779297</ele>
        <time>2019-07-14T06:54:23.000Z</time>
      </trkpt>
      <trkpt lat="43.07861" lon="1.32537">
        <ele>373.20001220703</ele>
        <time>2019-07-14T06:54:24.000Z</time>
      </trkpt>
      <trkpt lat="43.07857" lon="1.32551">
        <ele>373.20001220703</ele>
        <time>2019-07-14T06:54:28.000Z</time>
      </trkpt>
      <trkpt lat="43.07849" lon="1.32571">
        <ele>373.20001220703</ele>
        <time>2019-07-14T06:54:34.000Z</time>
      </trkpt>
      <trkpt lat="43.07845" lon="1.32582">
        <ele>373.60000610352</ele>
        <time>2019-07-14T06:54:38.000Z</time>
      </trkpt>
      <trkpt lat="43.07843" lon="1.32585">
        <ele>374</ele>
        <time>2019-07-14T06:54:39.000Z</time>
      </trkpt>
      <trkpt lat="43.07842" lon="1.32587">
        <ele>374.39999389648</ele>
        <time>2019-07-14T06:54:40.000Z</time>
      </trkpt>
      <trkpt lat="43.07841" lon="1.3259">
        <ele>375</ele>
        <time>2019-07-14T06:54:41.000Z</time>
      </trkpt>
      <trkpt lat="43.07839" lon="1.32593">
        <ele>375.39999389648</ele>
        <time>2019-07-14T06:54:42.000Z</time>
      </trkpt>
      <trkpt lat="43.07833" lon="1.32614">
        <ele>375.39999389648</ele>
        <time>2019-07-14T06:54:49.000Z</time>
      </trkpt>
      <trkpt lat="43.07827" lon="1.32633">
        <ele>375.79998779297</ele>
        <time>2019-07-14T06:54:55.000Z</time>
      </trkpt>
      <trkpt lat="43.07826" lon="1.32636">
        <ele>376.20001220703</ele>
        <time>2019-07-14T06:54:56.000Z</time>
      </trkpt>
      <trkpt lat="43.07826" lon="1.32639">
        <ele>376.60000610352</ele>
        <time>2019-07-14T06:54:57.000Z</time>
      </trkpt>
      <trkpt lat="43.07826" lon="1.32642">
        <ele>377.39999389648</ele>
        <time>2019-07-14T06:54:58.000Z</time>
      </trkpt>
      <trkpt lat="43.07825" lon="1.32646">
        <ele>377.39999389648</ele>
        <time>2019-07-14T06:55:00.000Z</time>
      </trkpt>
      <trkpt lat="43.07823" lon="1.32655">
        <ele>377.79998779297</ele>
        <time>2019-07-14T06:55:04.000Z</time>
      </trkpt>
      <trkpt lat="43.07822" lon="1.32658">
        <ele>378.20001220703</ele>
        <time>2019-07-14T06:55:05.000Z</time>
      </trkpt>
      <trkpt lat="43.07822" lon="1.3266">
        <ele>378.79998779297</ele>
        <time>2019-07-14T06:55:06.000Z</time>
      </trkpt>
      <trkpt lat="43.07822" lon="1.32662">
        <ele>379.20001220703</ele>
        <time>2019-07-14T06:55:07.000Z</time>
      </trkpt>
      <trkpt lat="43.07821" lon="1.32664">
        <ele>379.60000610352</ele>
        <time>2019-07-14T06:55:08.000Z</time>
      </trkpt>
      <trkpt lat="43.07818" lon="1.32682">
        <ele>379.60000610352</ele>
        <time>2019-07-14T06:55:15.000Z</time>
      </trkpt>
      <trkpt lat="43.07818" lon="1.32685">
        <ele>380</ele>
        <time>2019-07-14T06:55:16.000Z</time>
      </trkpt>
      <trkpt lat="43.07818" lon="1.32687">
        <ele>380.39999389648</ele>
        <time>2019-07-14T06:55:17.000Z</time>
      </trkpt>
      <trkpt lat="43.07818" lon="1.32689">
        <ele>380.79998779297</ele>
        <time>2019-07-14T06:55:18.000Z</time>
      </trkpt>
      <trkpt lat="43.07818" lon="1.32692">
        <ele>381.39999389648</ele>
        <time>2019-07-14T06:55:19.000Z</time>
      </trkpt>
      <trkpt lat="43.07818" lon="1.32694">
        <ele>381.79998779297</ele>
        <time>2019-07-14T06:55:20.000Z</time>
      </trkpt>
      <trkpt lat="43.07819" lon="1.32696">
        <ele>381.79998779297</ele>
        <time>2019-07-14T06:55:21.000Z</time>
      </trkpt>
      <trkpt lat="43.0782" lon="1.32704">
        <ele>382.20001220703</ele>
        <time>2019-07-14T06:55:24.000Z</time>
      </trkpt>
      <trkpt lat="43.07821" lon="1.32706">
        <ele>382.60000610352</ele>
        <time>2019-07-14T06:55:25.000Z</time>
      </trkpt>
      <trkpt lat="43.07821" lon="1.32709">
        <ele>383</ele>
        <time>2019-07-14T06:55:26.000Z</time>
      </trkpt>
      <trkpt lat="43.07822" lon="1.32711">
        <ele>383.39999389648</ele>
        <time>2019-07-14T06:55:27.000Z</time>
      </trkpt>
      <trkpt lat="43.07822" lon="1.32714">
        <ele>383.79998779297</ele>
        <time>2019-07-14T06:55:28.000Z</time>
      </trkpt>
      <trkpt lat="43.07823" lon="1.3272">
        <ele>383.79998779297</ele>
        <time>2019-07-14T06:55:30.000Z</time>
      </trkpt>
      <trkpt lat="43.07824" lon="1.32722">
        <ele>383.79998779297</ele>
        <time>2019-07-14T06:55:31.000Z</time>
      </trkpt>
      <trkpt lat="43.07826" lon="1.32738">
        <ele>384.20001220703</ele>
        <time>2019-07-14T06:55:37.000Z</time>
      </trkpt>
      <trkpt lat="43.07826" lon="1.32741">
        <ele>384.60000610352</ele>
        <time>2019-07-14T06:55:38.000Z</time>
      </trkpt>
      <trkpt lat="43.07826" lon="1.32744">
        <ele>385</ele>
        <time>2019-07-14T06:55:39.000Z</time>
      </trkpt>
      <trkpt lat="43.07826" lon="1.32746">
        <ele>385.39999389648</ele>
        <time>2019-07-14T06:55:40.000Z</time>
      </trkpt>
      <trkpt lat="43.07826" lon="1.32749">
        <ele>385.79998779297</ele>
        <time>2019-07-14T06:55:41.000Z</time>
      </trkpt>
      <trkpt lat="43.07826" lon="1.3276">
        <ele>385.79998779297</ele>
        <time>2019-07-14T06:55:45.000Z</time>
      </trkpt>
      <trkpt lat="43.07826" lon="1.32762">
        <ele>386.20001220703</ele>
        <time>2019-07-14T06:55:46.000Z</time>
      </trkpt>
      <trkpt lat="43.07826" lon="1.32765">
        <ele>387.20001220703</ele>
        <time>2019-07-14T06:55:47.000Z</time>
      </trkpt>
      <trkpt lat="43.07826" lon="1.32768">
        <ele>387.60000610352</ele>
        <time>2019-07-14T06:55:48.000Z</time>
      </trkpt>
      <trkpt lat="43.07827" lon="1.3277">
        <ele>388</ele>
        <time>2019-07-14T06:55:49.000Z</time>
      </trkpt>
      <trkpt lat="43.07827" lon="1.32778">
        <ele>388</ele>
        <time>2019-07-14T06:55:52.000Z</time>
      </trkpt>
      <trkpt lat="43.07829" lon="1.32795">
        <ele>388.39999389648</ele>
        <time>2019-07-14T06:55:58.000Z</time>
      </trkpt>
      <trkpt lat="43.07829" lon="1.32798">
        <ele>388.79998779297</ele>
        <time>2019-07-14T06:55:59.000Z</time>
      </trkpt>
      <trkpt lat="43.0783" lon="1.32801">
        <ele>389.20001220703</ele>
        <time>2019-07-14T06:56:00.000Z</time>
      </trkpt>
      <trkpt lat="43.07831" lon="1.32803">
        <ele>389.60000610352</ele>
        <time>2019-07-14T06:56:01.000Z</time>
      </trkpt>
      <trkpt lat="43.07831" lon="1.32806">
        <ele>390</ele>
        <time>2019-07-14T06:56:02.000Z</time>
      </trkpt>
      <trkpt lat="43.07836" lon="1.32821">
        <ele>390</ele>
        <time>2019-07-14T06:56:08.000Z</time>
      </trkpt>
      <trkpt lat="43.07838" lon="1.32826">
        <ele>390.39999389648</ele>
        <time>2019-07-14T06:56:10.000Z</time>
      </trkpt>
      <trkpt lat="43.07839" lon="1.32828">
        <ele>390.79998779297</ele>
        <time>2019-07-14T06:56:11.000Z</time>
      </trkpt>
      <trkpt lat="43.0784" lon="1.3283">
        <ele>391.60000610352</ele>
        <time>2019-07-14T06:56:12.000Z</time>
      </trkpt>
      <trkpt lat="43.07841" lon="1.32833">
        <ele>392</ele>
        <time>2019-07-14T06:56:13.000Z</time>
      </trkpt>
      <trkpt lat="43.07842" lon="1.32838">
        <ele>392</ele>
        <time>2019-07-14T06:56:15.000Z</time>
      </trkpt>
      <trkpt lat="43.07847" lon="1.32852">
        <ele>392.39999389648</ele>
        <time>2019-07-14T06:56:21.000Z</time>
      </trkpt>
      <trkpt lat="43.07848" lon="1.32855">
        <ele>393</ele>
        <time>2019-07-14T06:56:22.000Z</time>
      </trkpt>
      <trkpt lat="43.07848" lon="1.32858">
        <ele>393.39999389648</ele>
        <time>2019-07-14T06:56:23.000Z</time>
      </trkpt>
      <trkpt lat="43.07849" lon="1.3286">
        <ele>393.79998779297</ele>
        <time>2019-07-14T06:56:24.000Z</time>
      </trkpt>
      <trkpt lat="43.0785" lon="1.32862">
        <ele>394.20001220703</ele>
        <time>2019-07-14T06:56:25.000Z</time>
      </trkpt>
      <trkpt lat="43.07854" lon="1.32874">
        <ele>394.20001220703</ele>
        <time>2019-07-14T06:56:30.000Z</time>
      </trkpt>
      <trkpt lat="43.07856" lon="1.32881">
        <ele>394.60000610352</ele>
        <time>2019-07-14T06:56:33.000Z</time>
      </trkpt>
      <trkpt lat="43.07857" lon="1.32884">
        <ele>395</ele>
        <time>2019-07-14T06:56:34.000Z</time>
      </trkpt>
      <trkpt lat="43.07858" lon="1.32886">
        <ele>395.39999389648</ele>
        <time>2019-07-14T06:56:35.000Z</time>
      </trkpt>
      <trkpt lat="43.07858" lon="1.32889">
        <ele>396</ele>
        <time>2019-07-14T06:56:36.000Z</time>
      </trkpt>
      <trkpt lat="43.07859" lon="1.32891">
        <ele>396.39999389648</ele>
        <time>2019-07-14T06:56:37.000Z</time>
      </trkpt>
      <trkpt lat="43.07866" lon="1.32907">
        <ele>396.39999389648</ele>
        <time>2019-07-14T06:56:44.000Z</time>
      </trkpt>
      <trkpt lat="43.07866" lon="1.3291">
        <ele>396.79998779297</ele>
        <time>2019-07-14T06:56:46.000Z</time>
      </trkpt>
      <trkpt lat="43.07866" lon="1.32912">
        <ele>397.20001220703</ele>
        <time>2019-07-14T06:56:47.000Z</time>
      </trkpt>
      <trkpt lat="43.07867" lon="1.32915">
        <ele>397.60000610352</ele>
        <time>2019-07-14T06:56:48.000Z</time>
      </trkpt>
      <trkpt lat="43.07867" lon="1.32918">
        <ele>398</ele>
        <time>2019-07-14T06:56:49.000Z</time>
      </trkpt>
      <trkpt lat="43.07868" lon="1.32921">
        <ele>398.39999389648</ele>
        <time>2019-07-14T06:56:50.000Z</time>
      </trkpt>
      <trkpt lat="43.0787" lon="1.32931">
        <ele>398.39999389648</ele>
        <time>2019-07-14T06:56:54.000Z</time>
      </trkpt>
      <trkpt lat="43.07874" lon="1.32941">
        <ele>398.79998779297</ele>
        <time>2019-07-14T06:56:59.000Z</time>
      </trkpt>
      <trkpt lat="43.07875" lon="1.32944">
        <ele>399.20001220703</ele>
        <time>2019-07-14T06:57:00.000Z</time>
      </trkpt>
      <trkpt lat="43.07876" lon="1.32946">
        <ele>400</ele>
        <time>2019-07-14T06:57:01.000Z</time>
      </trkpt>
      <trkpt lat="43.07877" lon="1.32948">
        <ele>400.39999389648</ele>
        <time>2019-07-14T06:57:02.000Z</time>
      </trkpt>
      <trkpt lat="43.07883" lon="1.32958">
        <ele>400.39999389648</ele>
        <time>2019-07-14T06:57:07.000Z</time>
      </trkpt>
      <trkpt lat="43.07889" lon="1.32968">
        <ele>401</ele>
        <time>2019-07-14T06:57:13.000Z</time>
      </trkpt>
      <trkpt lat="43.0789" lon="1.3297">
        <ele>401.39999389648</ele>
        <time>2019-07-14T06:57:14.000Z</time>
      </trkpt>
      <trkpt lat="43.07891" lon="1.32972">
        <ele>401.79998779297</ele>
        <time>2019-07-14T06:57:15.000Z</time>
      </trkpt>
      <trkpt lat="43.07893" lon="1.32974">
        <ele>402.20001220703</ele>
        <time>2019-07-14T06:57:16.000Z</time>
      </trkpt>
      <trkpt lat="43.07894" lon="1.32976">
        <ele>402.60000610352</ele>
        <time>2019-07-14T06:57:17.000Z</time>
      </trkpt>
      <trkpt lat="43.07897" lon="1.32986">
        <ele>402.60000610352</ele>
        <time>2019-07-14T06:57:21.000Z</time>
      </trkpt>
      <trkpt lat="43.07896" lon="1.32988">
        <ele>402.60000610352</ele>
        <time>2019-07-14T06:57:22.000Z</time>
      </trkpt>
      <trkpt lat="43.07892" lon="1.32998">
        <ele>402.60000610352</ele>
        <time>2019-07-14T06:57:27.000Z</time>
      </trkpt>
      <trkpt lat="43.07891" lon="1.32999">
        <ele>402.60000610352</ele>
        <time>2019-07-14T06:57:28.000Z</time>
      </trkpt>
      <trkpt lat="43.07886" lon="1.33009">
        <ele>402.60000610352</ele>
        <time>2019-07-14T06:57:31.000Z</time>
      </trkpt>
      <trkpt lat="43.07881" lon="1.33019">
        <ele>402.60000610352</ele>
        <time>2019-07-14T06:57:33.000Z</time>
      </trkpt>
      <trkpt lat="43.07877" lon="1.33028">
        <ele>402.60000610352</ele>
        <time>2019-07-14T06:57:35.000Z</time>
      </trkpt>
      <trkpt lat="43.07869" lon="1.33045">
        <ele>402.60000610352</ele>
        <time>2019-07-14T06:57:40.000Z</time>
      </trkpt>
      <trkpt lat="43.07865" lon="1.33042">
        <ele>402.20001220703</ele>
        <time>2019-07-14T06:57:42.000Z</time>
      </trkpt>
      <trkpt lat="43.07864" lon="1.33041">
        <ele>401.79998779297</ele>
        <time>2019-07-14T06:57:43.000Z</time>
      </trkpt>
      <trkpt lat="43.07862" lon="1.33041">
        <ele>401.20001220703</ele>
        <time>2019-07-14T06:57:44.000Z</time>
      </trkpt>
      <trkpt lat="43.07861" lon="1.33043">
        <ele>400.79998779297</ele>
        <time>2019-07-14T06:57:45.000Z</time>
      </trkpt>
      <trkpt lat="43.0786" lon="1.33045">
        <ele>400.39999389648</ele>
        <time>2019-07-14T06:57:46.000Z</time>
      </trkpt>
      <trkpt lat="43.07859" lon="1.33049">
        <ele>400.39999389648</ele>
        <time>2019-07-14T06:57:47.000Z</time>
      </trkpt>
      <trkpt lat="43.07857" lon="1.33054">
        <ele>400.39999389648</ele>
        <time>2019-07-14T06:57:49.000Z</time>
      </trkpt>
      <trkpt lat="43.07858" lon="1.33058">
        <ele>400.39999389648</ele>
        <time>2019-07-14T06:57:51.000Z</time>
      </trkpt>
      <trkpt lat="43.07859" lon="1.33065">
        <ele>400.39999389648</ele>
        <time>2019-07-14T06:57:54.000Z</time>
      </trkpt>
      <trkpt lat="43.07858" lon="1.33071">
        <ele>400.39999389648</ele>
        <time>2019-07-14T06:57:57.000Z</time>
      </trkpt>
      <trkpt lat="43.07857" lon="1.33075">
        <ele>400.39999389648</ele>
        <time>2019-07-14T06:57:59.000Z</time>
      </trkpt>
      <trkpt lat="43.07855" lon="1.3308">
        <ele>400.79998779297</ele>
        <time>2019-07-14T06:58:01.000Z</time>
      </trkpt>
      <trkpt lat="43.07854" lon="1.33082">
        <ele>401.20001220703</ele>
        <time>2019-07-14T06:58:02.000Z</time>
      </trkpt>
      <trkpt lat="43.07853" lon="1.33084">
        <ele>401.60000610352</ele>
        <time>2019-07-14T06:58:03.000Z</time>
      </trkpt>
      <trkpt lat="43.07852" lon="1.33086">
        <ele>402</ele>
        <time>2019-07-14T06:58:04.000Z</time>
      </trkpt>
      <trkpt lat="43.07851" lon="1.33089">
        <ele>402.39999389648</ele>
        <time>2019-07-14T06:58:05.000Z</time>
      </trkpt>
      <trkpt lat="43.07845" lon="1.33098">
        <ele>402.39999389648</ele>
        <time>2019-07-14T06:58:09.000Z</time>
      </trkpt>
      <trkpt lat="43.07837" lon="1.33115">
        <ele>402.79998779297</ele>
        <time>2019-07-14T06:58:16.000Z</time>
      </trkpt>
      <trkpt lat="43.07836" lon="1.33117">
        <ele>403.39999389648</ele>
        <time>2019-07-14T06:58:17.000Z</time>
      </trkpt>
      <trkpt lat="43.07835" lon="1.33119">
        <ele>403.79998779297</ele>
        <time>2019-07-14T06:58:18.000Z</time>
      </trkpt>
      <trkpt lat="43.07834" lon="1.33122">
        <ele>404.20001220703</ele>
        <time>2019-07-14T06:58:19.000Z</time>
      </trkpt>
      <trkpt lat="43.07832" lon="1.33124">
        <ele>404.60000610352</ele>
        <time>2019-07-14T06:58:20.000Z</time>
      </trkpt>
      <trkpt lat="43.07826" lon="1.33131">
        <ele>404.60000610352</ele>
        <time>2019-07-14T06:58:24.000Z</time>
      </trkpt>
      <trkpt lat="43.07818" lon="1.33145">
        <ele>404.60000610352</ele>
        <time>2019-07-14T06:58:30.000Z</time>
      </trkpt>
      <trkpt lat="43.07813" lon="1.33154">
        <ele>405</ele>
        <time>2019-07-14T06:58:34.000Z</time>
      </trkpt>
      <trkpt lat="43.07812" lon="1.33157">
        <ele>405.39999389648</ele>
        <time>2019-07-14T06:58:35.000Z</time>
      </trkpt>
      <trkpt lat="43.07811" lon="1.33159">
        <ele>405.79998779297</ele>
        <time>2019-07-14T06:58:36.000Z</time>
      </trkpt>
      <trkpt lat="43.0781" lon="1.33162">
        <ele>406.39999389648</ele>
        <time>2019-07-14T06:58:37.000Z</time>
      </trkpt>
      <trkpt lat="43.07809" lon="1.33164">
        <ele>406.79998779297</ele>
        <time>2019-07-14T06:58:38.000Z</time>
      </trkpt>
      <trkpt lat="43.07807" lon="1.33169">
        <ele>406.79998779297</ele>
        <time>2019-07-14T06:58:40.000Z</time>
      </trkpt>
      <trkpt lat="43.07803" lon="1.33177">
        <ele>406.79998779297</ele>
        <time>2019-07-14T06:58:44.000Z</time>
      </trkpt>
      <trkpt lat="43.07802" lon="1.33182">
        <ele>407.20001220703</ele>
        <time>2019-07-14T06:58:46.000Z</time>
      </trkpt>
      <trkpt lat="43.07801" lon="1.33185">
        <ele>407.60000610352</ele>
        <time>2019-07-14T06:58:47.000Z</time>
      </trkpt>
      <trkpt lat="43.078" lon="1.33188">
        <ele>408</ele>
        <time>2019-07-14T06:58:48.000Z</time>
      </trkpt>
      <trkpt lat="43.07799" lon="1.33191">
        <ele>408.39999389648</ele>
        <time>2019-07-14T06:58:49.000Z</time>
      </trkpt>
      <trkpt lat="43.07798" lon="1.33194">
        <ele>408.79998779297</ele>
        <time>2019-07-14T06:58:50.000Z</time>
      </trkpt>
      <trkpt lat="43.07798" lon="1.33198">
        <ele>408.79998779297</ele>
        <time>2019-07-14T06:58:51.000Z</time>
      </trkpt>
      <trkpt lat="43.07792" lon="1.33218">
        <ele>408.79998779297</ele>
        <time>2019-07-14T06:58:58.000Z</time>
      </trkpt>
      <trkpt lat="43.07784" lon="1.33229">
        <ele>408.79998779297</ele>
        <time>2019-07-14T06:59:03.000Z</time>
      </trkpt>
      <trkpt lat="43.07768" lon="1.33248">
        <ele>408.79998779297</ele>
        <time>2019-07-14T06:59:10.000Z</time>
      </trkpt>
      <trkpt lat="43.07756" lon="1.33266">
        <ele>408.79998779297</ele>
        <time>2019-07-14T06:59:16.000Z</time>
      </trkpt>
      <trkpt lat="43.07754" lon="1.33269">
        <ele>409.20001220703</ele>
        <time>2019-07-14T06:59:17.000Z</time>
      </trkpt>
      <trkpt lat="43.07752" lon="1.33271">
        <ele>409.60000610352</ele>
        <time>2019-07-14T06:59:18.000Z</time>
      </trkpt>
      <trkpt lat="43.07749" lon="1.33274">
        <ele>410</ele>
        <time>2019-07-14T06:59:19.000Z</time>
      </trkpt>
      <trkpt lat="43.07747" lon="1.33277">
        <ele>410.60000610352</ele>
        <time>2019-07-14T06:59:20.000Z</time>
      </trkpt>
      <trkpt lat="43.07745" lon="1.3328">
        <ele>411</ele>
        <time>2019-07-14T06:59:21.000Z</time>
      </trkpt>
      <trkpt lat="43.07733" lon="1.333">
        <ele>411</ele>
        <time>2019-07-14T06:59:27.000Z</time>
      </trkpt>
      <trkpt lat="43.07732" lon="1.33304">
        <ele>411.39999389648</ele>
        <time>2019-07-14T06:59:28.000Z</time>
      </trkpt>
      <trkpt lat="43.0773" lon="1.33308">
        <ele>411.79998779297</ele>
        <time>2019-07-14T06:59:29.000Z</time>
      </trkpt>
      <trkpt lat="43.07729" lon="1.33311">
        <ele>412.60000610352</ele>
        <time>2019-07-14T06:59:30.000Z</time>
      </trkpt>
      <trkpt lat="43.07727" lon="1.33315">
        <ele>413</ele>
        <time>2019-07-14T06:59:31.000Z</time>
      </trkpt>
      <trkpt lat="43.07722" lon="1.33326">
        <ele>413</ele>
        <time>2019-07-14T06:59:34.000Z</time>
      </trkpt>
      <trkpt lat="43.07713" lon="1.33358">
        <ele>413</ele>
        <time>2019-07-14T06:59:41.000Z</time>
      </trkpt>
      <trkpt lat="43.07713" lon="1.33365">
        <ele>413</ele>
        <time>2019-07-14T06:59:42.000Z</time>
      </trkpt>
      <trkpt lat="43.07717" lon="1.33376">
        <ele>413</ele>
        <time>2019-07-14T06:59:44.000Z</time>
      </trkpt>
      <trkpt lat="43.07728" lon="1.33381">
        <ele>413</ele>
        <time>2019-07-14T06:59:47.000Z</time>
      </trkpt>
      <trkpt lat="43.07737" lon="1.33385">
        <ele>413.39999389648</ele>
        <time>2019-07-14T06:59:50.000Z</time>
      </trkpt>
      <trkpt lat="43.07739" lon="1.33387">
        <ele>413.79998779297</ele>
        <time>2019-07-14T06:59:51.000Z</time>
      </trkpt>
      <trkpt lat="43.07742" lon="1.33388">
        <ele>414.20001220703</ele>
        <time>2019-07-14T06:59:52.000Z</time>
      </trkpt>
      <trkpt lat="43.07744" lon="1.33389">
        <ele>414.60000610352</ele>
        <time>2019-07-14T06:59:53.000Z</time>
      </trkpt>
      <trkpt lat="43.07746" lon="1.33391">
        <ele>415</ele>
        <time>2019-07-14T06:59:54.000Z</time>
      </trkpt>
      <trkpt lat="43.07753" lon="1.33395">
        <ele>415.39999389648</ele>
        <time>2019-07-14T06:59:57.000Z</time>
      </trkpt>
      <trkpt lat="43.07756" lon="1.33397">
        <ele>415.79998779297</ele>
        <time>2019-07-14T06:59:58.000Z</time>
      </trkpt>
      <trkpt lat="43.07758" lon="1.33399">
        <ele>416.39999389648</ele>
        <time>2019-07-14T06:59:59.000Z</time>
      </trkpt>
      <trkpt lat="43.0776" lon="1.33401">
        <ele>416.79998779297</ele>
        <time>2019-07-14T07:00:00.000Z</time>
      </trkpt>
      <trkpt lat="43.07761" lon="1.33404">
        <ele>417.20001220703</ele>
        <time>2019-07-14T07:00:01.000Z</time>
      </trkpt>
      <trkpt lat="43.07769" lon="1.33414">
        <ele>417.20001220703</ele>
        <time>2019-07-14T07:00:05.000Z</time>
      </trkpt>
      <trkpt lat="43.07772" lon="1.33415">
        <ele>417.20001220703</ele>
        <time>2019-07-14T07:00:06.000Z</time>
      </trkpt>
      <trkpt lat="43.07776" lon="1.33412">
        <ele>417.20001220703</ele>
        <time>2019-07-14T07:00:08.000Z</time>
      </trkpt>
      <trkpt lat="43.07789" lon="1.33408">
        <ele>417.20001220703</ele>
        <time>2019-07-14T07:00:12.000Z</time>
      </trkpt>
      <trkpt lat="43.07794" lon="1.33412">
        <ele>417.20001220703</ele>
        <time>2019-07-14T07:00:13.000Z</time>
      </trkpt>
      <trkpt lat="43.07801" lon="1.33432">
        <ele>417.20001220703</ele>
        <time>2019-07-14T07:00:16.000Z</time>
      </trkpt>
      <trkpt lat="43.07804" lon="1.33439">
        <ele>417.20001220703</ele>
        <time>2019-07-14T07:00:17.000Z</time>
      </trkpt>
      <trkpt lat="43.07814" lon="1.33452">
        <ele>417.20001220703</ele>
        <time>2019-07-14T07:00:20.000Z</time>
      </trkpt>
      <trkpt lat="43.07822" lon="1.33457">
        <ele>417.20001220703</ele>
        <time>2019-07-14T07:00:22.000Z</time>
      </trkpt>
      <trkpt lat="43.07825" lon="1.3346">
        <ele>417.20001220703</ele>
        <time>2019-07-14T07:00:23.000Z</time>
      </trkpt>
      <trkpt lat="43.07831" lon="1.33468">
        <ele>417.20001220703</ele>
        <time>2019-07-14T07:00:25.000Z</time>
      </trkpt>
      <trkpt lat="43.07844" lon="1.33481">
        <ele>417.20001220703</ele>
        <time>2019-07-14T07:00:29.000Z</time>
      </trkpt>
      <trkpt lat="43.07848" lon="1.33481">
        <ele>417.20001220703</ele>
        <time>2019-07-14T07:00:30.000Z</time>
      </trkpt>
      <trkpt lat="43.07861" lon="1.33476">
        <ele>417.20001220703</ele>
        <time>2019-07-14T07:00:34.000Z</time>
      </trkpt>
      <trkpt lat="43.07867" lon="1.33481">
        <ele>417.20001220703</ele>
        <time>2019-07-14T07:00:36.000Z</time>
      </trkpt>
      <trkpt lat="43.07867" lon="1.33485">
        <ele>417.20001220703</ele>
        <time>2019-07-14T07:00:37.000Z</time>
      </trkpt>
      <trkpt lat="43.07866" lon="1.33494">
        <ele>417.60000610352</ele>
        <time>2019-07-14T07:00:39.000Z</time>
      </trkpt>
      <trkpt lat="43.07865" lon="1.33498">
        <ele>418</ele>
        <time>2019-07-14T07:00:40.000Z</time>
      </trkpt>
      <trkpt lat="43.07864" lon="1.33502">
        <ele>418.39999389648</ele>
        <time>2019-07-14T07:00:41.000Z</time>
      </trkpt>
      <trkpt lat="43.07863" lon="1.33506">
        <ele>419</ele>
        <time>2019-07-14T07:00:42.000Z</time>
      </trkpt>
      <trkpt lat="43.07863" lon="1.33511">
        <ele>419.39999389648</ele>
        <time>2019-07-14T07:00:43.000Z</time>
      </trkpt>
      <trkpt lat="43.07861" lon="1.33527">
        <ele>419.79998779297</ele>
        <time>2019-07-14T07:00:47.000Z</time>
      </trkpt>
      <trkpt lat="43.07861" lon="1.33531">
        <ele>420.20001220703</ele>
        <time>2019-07-14T07:00:48.000Z</time>
      </trkpt>
      <trkpt lat="43.07862" lon="1.33535">
        <ele>420.60000610352</ele>
        <time>2019-07-14T07:00:49.000Z</time>
      </trkpt>
      <trkpt lat="43.07862" lon="1.3354">
        <ele>421</ele>
        <time>2019-07-14T07:00:50.000Z</time>
      </trkpt>
      <trkpt lat="43.07862" lon="1.33545">
        <ele>421.60000610352</ele>
        <time>2019-07-14T07:00:51.000Z</time>
      </trkpt>
      <trkpt lat="43.07862" lon="1.33556">
        <ele>421.60000610352</ele>
        <time>2019-07-14T07:00:53.000Z</time>
      </trkpt>
      <trkpt lat="43.07863" lon="1.33577">
        <ele>421.60000610352</ele>
        <time>2019-07-14T07:00:56.000Z</time>
      </trkpt>
      <trkpt lat="43.07863" lon="1.3359">
        <ele>421.60000610352</ele>
        <time>2019-07-14T07:00:58.000Z</time>
      </trkpt>
      <trkpt lat="43.07865" lon="1.33636">
        <ele>421.60000610352</ele>
        <time>2019-07-14T07:01:05.000Z</time>
      </trkpt>
      <trkpt lat="43.07866" lon="1.33659">
        <ele>422</ele>
        <time>2019-07-14T07:01:10.000Z</time>
      </trkpt>
      <trkpt lat="43.07866" lon="1.33663">
        <ele>422.39999389648</ele>
        <time>2019-07-14T07:01:11.000Z</time>
      </trkpt>
      <trkpt lat="43.07867" lon="1.33667">
        <ele>422.79998779297</ele>
        <time>2019-07-14T07:01:12.000Z</time>
      </trkpt>
      <trkpt lat="43.07867" lon="1.3367">
        <ele>423.20001220703</ele>
        <time>2019-07-14T07:01:13.000Z</time>
      </trkpt>
      <trkpt lat="43.07867" lon="1.33673">
        <ele>423.60000610352</ele>
        <time>2019-07-14T07:01:14.000Z</time>
      </trkpt>
      <trkpt lat="43.07868" lon="1.33677">
        <ele>423.60000610352</ele>
        <time>2019-07-14T07:01:16.000Z</time>
      </trkpt>
      <trkpt lat="43.07869" lon="1.33681">
        <ele>424</ele>
        <time>2019-07-14T07:01:18.000Z</time>
      </trkpt>
      <trkpt lat="43.07869" lon="1.33683">
        <ele>424.39999389648</ele>
        <time>2019-07-14T07:01:19.000Z</time>
      </trkpt>
      <trkpt lat="43.0787" lon="1.33685">
        <ele>424.79998779297</ele>
        <time>2019-07-14T07:01:20.000Z</time>
      </trkpt>
      <trkpt lat="43.0787" lon="1.33687">
        <ele>425.20001220703</ele>
        <time>2019-07-14T07:01:21.000Z</time>
      </trkpt>
      <trkpt lat="43.07871" lon="1.33689">
        <ele>425.79998779297</ele>
        <time>2019-07-14T07:01:22.000Z</time>
      </trkpt>
      <trkpt lat="43.07873" lon="1.33694">
        <ele>425.79998779297</ele>
        <time>2019-07-14T07:01:24.000Z</time>
      </trkpt>
      <trkpt lat="43.07874" lon="1.33702">
        <ele>425.79998779297</ele>
        <time>2019-07-14T07:01:28.000Z</time>
      </trkpt>
      <trkpt lat="43.07874" lon="1.33703">
        <ele>426.20001220703</ele>
        <time>2019-07-14T07:01:29.000Z</time>
      </trkpt>
      <trkpt lat="43.07874" lon="1.33705">
        <ele>426.60000610352</ele>
        <time>2019-07-14T07:01:30.000Z</time>
      </trkpt>
      <trkpt lat="43.07874" lon="1.33706">
        <ele>427</ele>
        <time>2019-07-14T07:01:31.000Z</time>
      </trkpt>
      <trkpt lat="43.07874" lon="1.33708">
        <ele>428</ele>
        <time>2019-07-14T07:01:32.000Z</time>
      </trkpt>
      <trkpt lat="43.07874" lon="1.33713">
        <ele>428</ele>
        <time>2019-07-14T07:01:35.000Z</time>
      </trkpt>
      <trkpt lat="43.07874" lon="1.33714">
        <ele>428</ele>
        <time>2019-07-14T07:01:36.000Z</time>
      </trkpt>
      <trkpt lat="43.07873" lon="1.33722">
        <ele>428.39999389648</ele>
        <time>2019-07-14T07:01:40.000Z</time>
      </trkpt>
      <trkpt lat="43.07873" lon="1.33725">
        <ele>428.79998779297</ele>
        <time>2019-07-14T07:01:41.000Z</time>
      </trkpt>
      <trkpt lat="43.07873" lon="1.33727">
        <ele>429.20001220703</ele>
        <time>2019-07-14T07:01:42.000Z</time>
      </trkpt>
      <trkpt lat="43.07873" lon="1.33729">
        <ele>429.60000610352</ele>
        <time>2019-07-14T07:01:43.000Z</time>
      </trkpt>
      <trkpt lat="43.07872" lon="1.33732">
        <ele>430</ele>
        <time>2019-07-14T07:01:44.000Z</time>
      </trkpt>
      <trkpt lat="43.07872" lon="1.33744">
        <ele>430</ele>
        <time>2019-07-14T07:01:49.000Z</time>
      </trkpt>
      <trkpt lat="43.07872" lon="1.33746">
        <ele>430.39999389648</ele>
        <time>2019-07-14T07:01:50.000Z</time>
      </trkpt>
      <trkpt lat="43.07872" lon="1.33748">
        <ele>431</ele>
        <time>2019-07-14T07:01:51.000Z</time>
      </trkpt>
      <trkpt lat="43.07873" lon="1.3375">
        <ele>431.39999389648</ele>
        <time>2019-07-14T07:01:52.000Z</time>
      </trkpt>
      <trkpt lat="43.07874" lon="1.33752">
        <ele>431.79998779297</ele>
        <time>2019-07-14T07:01:53.000Z</time>
      </trkpt>
      <trkpt lat="43.07874" lon="1.33755">
        <ele>432.20001220703</ele>
        <time>2019-07-14T07:01:54.000Z</time>
      </trkpt>
      <trkpt lat="43.07875" lon="1.33758">
        <ele>432.20001220703</ele>
        <time>2019-07-14T07:01:55.000Z</time>
      </trkpt>
      <trkpt lat="43.07877" lon="1.33765">
        <ele>432.60000610352</ele>
        <time>2019-07-14T07:01:58.000Z</time>
      </trkpt>
      <trkpt lat="43.07877" lon="1.33767">
        <ele>433</ele>
        <time>2019-07-14T07:01:59.000Z</time>
      </trkpt>
      <trkpt lat="43.07878" lon="1.3377">
        <ele>433.39999389648</ele>
        <time>2019-07-14T07:02:00.000Z</time>
      </trkpt>
      <trkpt lat="43.07878" lon="1.33772">
        <ele>434</ele>
        <time>2019-07-14T07:02:01.000Z</time>
      </trkpt>
      <trkpt lat="43.07879" lon="1.33775">
        <ele>434.39999389648</ele>
        <time>2019-07-14T07:02:02.000Z</time>
      </trkpt>
      <trkpt lat="43.07882" lon="1.33791">
        <ele>434.39999389648</ele>
        <time>2019-07-14T07:02:07.000Z</time>
      </trkpt>
      <trkpt lat="43.07886" lon="1.33812">
        <ele>434.79998779297</ele>
        <time>2019-07-14T07:02:14.000Z</time>
      </trkpt>
      <trkpt lat="43.07887" lon="1.33815">
        <ele>435.20001220703</ele>
        <time>2019-07-14T07:02:15.000Z</time>
      </trkpt>
      <trkpt lat="43.07887" lon="1.33818">
        <ele>435.60000610352</ele>
        <time>2019-07-14T07:02:16.000Z</time>
      </trkpt>
      <trkpt lat="43.07888" lon="1.33821">
        <ele>436</ele>
        <time>2019-07-14T07:02:17.000Z</time>
      </trkpt>
      <trkpt lat="43.07888" lon="1.33824">
        <ele>436.39999389648</ele>
        <time>2019-07-14T07:02:18.000Z</time>
      </trkpt>
      <trkpt lat="43.07889" lon="1.33832">
        <ele>436.39999389648</ele>
        <time>2019-07-14T07:02:21.000Z</time>
      </trkpt>
      <trkpt lat="43.07889" lon="1.3384">
        <ele>436.79998779297</ele>
        <time>2019-07-14T07:02:24.000Z</time>
      </trkpt>
      <trkpt lat="43.0789" lon="1.33843">
        <ele>437.20001220703</ele>
        <time>2019-07-14T07:02:25.000Z</time>
      </trkpt>
      <trkpt lat="43.0789" lon="1.33846">
        <ele>437.60000610352</ele>
        <time>2019-07-14T07:02:26.000Z</time>
      </trkpt>
      <trkpt lat="43.07891" lon="1.33849">
        <ele>438</ele>
        <time>2019-07-14T07:02:27.000Z</time>
      </trkpt>
      <trkpt lat="43.07891" lon="1.33852">
        <ele>438.60000610352</ele>
        <time>2019-07-14T07:02:28.000Z</time>
      </trkpt>
      <trkpt lat="43.07893" lon="1.33875">
        <ele>438.60000610352</ele>
        <time>2019-07-14T07:02:35.000Z</time>
      </trkpt>
      <trkpt lat="43.07895" lon="1.33885">
        <ele>439</ele>
        <time>2019-07-14T07:02:38.000Z</time>
      </trkpt>
      <trkpt lat="43.07896" lon="1.33888">
        <ele>439.39999389648</ele>
        <time>2019-07-14T07:02:39.000Z</time>
      </trkpt>
      <trkpt lat="43.07896" lon="1.33892">
        <ele>439.79998779297</ele>
        <time>2019-07-14T07:02:40.000Z</time>
      </trkpt>
      <trkpt lat="43.07897" lon="1.33895">
        <ele>440.20001220703</ele>
        <time>2019-07-14T07:02:41.000Z</time>
      </trkpt>
      <trkpt lat="43.07897" lon="1.33898">
        <ele>440.60000610352</ele>
        <time>2019-07-14T07:02:42.000Z</time>
      </trkpt>
      <trkpt lat="43.07899" lon="1.3392">
        <ele>441</ele>
        <time>2019-07-14T07:02:49.000Z</time>
      </trkpt>
      <trkpt lat="43.079" lon="1.33923">
        <ele>441.39999389648</ele>
        <time>2019-07-14T07:02:50.000Z</time>
      </trkpt>
      <trkpt lat="43.079" lon="1.33927">
        <ele>441.79998779297</ele>
        <time>2019-07-14T07:02:51.000Z</time>
      </trkpt>
      <trkpt lat="43.07899" lon="1.33931">
        <ele>442.20001220703</ele>
        <time>2019-07-14T07:02:52.000Z</time>
      </trkpt>
      <trkpt lat="43.07899" lon="1.33935">
        <ele>442.60000610352</ele>
        <time>2019-07-14T07:02:53.000Z</time>
      </trkpt>
      <trkpt lat="43.07898" lon="1.33943">
        <ele>442.60000610352</ele>
        <time>2019-07-14T07:02:55.000Z</time>
      </trkpt>
      <trkpt lat="43.07893" lon="1.33969">
        <ele>442.60000610352</ele>
        <time>2019-07-14T07:03:02.000Z</time>
      </trkpt>
      <trkpt lat="43.07886" lon="1.33988">
        <ele>442.60000610352</ele>
        <time>2019-07-14T07:03:07.000Z</time>
      </trkpt>
      <trkpt lat="43.0788" lon="1.3401">
        <ele>442.60000610352</ele>
        <time>2019-07-14T07:03:12.000Z</time>
      </trkpt>
      <trkpt lat="43.0787" lon="1.34036">
        <ele>442.60000610352</ele>
        <time>2019-07-14T07:03:18.000Z</time>
      </trkpt>
      <trkpt lat="43.07866" lon="1.34049">
        <ele>443</ele>
        <time>2019-07-14T07:03:21.000Z</time>
      </trkpt>
      <trkpt lat="43.07864" lon="1.34054">
        <ele>443.39999389648</ele>
        <time>2019-07-14T07:03:22.000Z</time>
      </trkpt>
      <trkpt lat="43.07863" lon="1.34058">
        <ele>443.79998779297</ele>
        <time>2019-07-14T07:03:23.000Z</time>
      </trkpt>
      <trkpt lat="43.07861" lon="1.34063">
        <ele>444.20001220703</ele>
        <time>2019-07-14T07:03:24.000Z</time>
      </trkpt>
      <trkpt lat="43.0786" lon="1.34068">
        <ele>444.60000610352</ele>
        <time>2019-07-14T07:03:25.000Z</time>
      </trkpt>
      <trkpt lat="43.07851" lon="1.34089">
        <ele>444.60000610352</ele>
        <time>2019-07-14T07:03:30.000Z</time>
      </trkpt>
      <trkpt lat="43.0785" lon="1.34095">
        <ele>444.60000610352</ele>
        <time>2019-07-14T07:03:31.000Z</time>
      </trkpt>
      <trkpt lat="43.07853" lon="1.34113">
        <ele>444.60000610352</ele>
        <time>2019-07-14T07:03:34.000Z</time>
      </trkpt>
      <trkpt lat="43.07863" lon="1.34116">
        <ele>444.20001220703</ele>
        <time>2019-07-14T07:03:36.000Z</time>
      </trkpt>
      <trkpt lat="43.07868" lon="1.34117">
        <ele>443.79998779297</ele>
        <time>2019-07-14T07:03:37.000Z</time>
      </trkpt>
      <trkpt lat="43.07873" lon="1.34118">
        <ele>443.39999389648</ele>
        <time>2019-07-14T07:03:38.000Z</time>
      </trkpt>
      <trkpt lat="43.07878" lon="1.3412">
        <ele>443</ele>
        <time>2019-07-14T07:03:39.000Z</time>
      </trkpt>
      <trkpt lat="43.07882" lon="1.34122">
        <ele>442.39999389648</ele>
        <time>2019-07-14T07:03:40.000Z</time>
      </trkpt>
      <trkpt lat="43.07886" lon="1.34125">
        <ele>442.39999389648</ele>
        <time>2019-07-14T07:03:41.000Z</time>
      </trkpt>
      <trkpt lat="43.07899" lon="1.34145">
        <ele>442.39999389648</ele>
        <time>2019-07-14T07:03:45.000Z</time>
      </trkpt>
      <trkpt lat="43.07914" lon="1.34172">
        <ele>442.39999389648</ele>
        <time>2019-07-14T07:03:50.000Z</time>
      </trkpt>
      <trkpt lat="43.07916" lon="1.34178">
        <ele>442.39999389648</ele>
        <time>2019-07-14T07:03:51.000Z</time>
      </trkpt>
      <trkpt lat="43.07926" lon="1.34201">
        <ele>442.39999389648</ele>
        <time>2019-07-14T07:03:55.000Z</time>
      </trkpt>
      <trkpt lat="43.07931" lon="1.34212">
        <ele>442.39999389648</ele>
        <time>2019-07-14T07:03:57.000Z</time>
      </trkpt>
      <trkpt lat="43.07936" lon="1.34222">
        <ele>442.39999389648</ele>
        <time>2019-07-14T07:03:59.000Z</time>
      </trkpt>
      <trkpt lat="43.07944" lon="1.34245">
        <ele>442.39999389648</ele>
        <time>2019-07-14T07:04:03.000Z</time>
      </trkpt>
      <trkpt lat="43.07948" lon="1.34256">
        <ele>442.39999389648</ele>
        <time>2019-07-14T07:04:05.000Z</time>
      </trkpt>
      <trkpt lat="43.07951" lon="1.34267">
        <ele>442.39999389648</ele>
        <time>2019-07-14T07:04:07.000Z</time>
      </trkpt>
      <trkpt lat="43.07956" lon="1.34276">
        <ele>442.39999389648</ele>
        <time>2019-07-14T07:04:09.000Z</time>
      </trkpt>
      <trkpt lat="43.07962" lon="1.34285">
        <ele>442.39999389648</ele>
        <time>2019-07-14T07:04:11.000Z</time>
      </trkpt>
      <trkpt lat="43.07964" lon="1.3429">
        <ele>442.39999389648</ele>
        <time>2019-07-14T07:04:12.000Z</time>
      </trkpt>
      <trkpt lat="43.07972" lon="1.34313">
        <ele>442.39999389648</ele>
        <time>2019-07-14T07:04:16.000Z</time>
      </trkpt>
      <trkpt lat="43.07991" lon="1.34356">
        <ele>442.39999389648</ele>
        <time>2019-07-14T07:04:23.000Z</time>
      </trkpt>
      <trkpt lat="43.08012" lon="1.34391">
        <ele>442.39999389648</ele>
        <time>2019-07-14T07:04:30.000Z</time>
      </trkpt>
      <trkpt lat="43.08028" lon="1.34402">
        <ele>442.39999389648</ele>
        <time>2019-07-14T07:04:34.000Z</time>
      </trkpt>
      <trkpt lat="43.08038" lon="1.34421">
        <ele>442.39999389648</ele>
        <time>2019-07-14T07:04:38.000Z</time>
      </trkpt>
      <trkpt lat="43.0804" lon="1.34428">
        <ele>442</ele>
        <time>2019-07-14T07:04:39.000Z</time>
      </trkpt>
      <trkpt lat="43.0804" lon="1.34436">
        <ele>441.60000610352</ele>
        <time>2019-07-14T07:04:40.000Z</time>
      </trkpt>
      <trkpt lat="43.08038" lon="1.34443">
        <ele>441.20001220703</ele>
        <time>2019-07-14T07:04:41.000Z</time>
      </trkpt>
      <trkpt lat="43.08035" lon="1.3445">
        <ele>440.79998779297</ele>
        <time>2019-07-14T07:04:42.000Z</time>
      </trkpt>
      <trkpt lat="43.08033" lon="1.34458">
        <ele>440.39999389648</ele>
        <time>2019-07-14T07:04:43.000Z</time>
      </trkpt>
      <trkpt lat="43.08031" lon="1.34467">
        <ele>439.79998779297</ele>
        <time>2019-07-14T07:04:44.000Z</time>
      </trkpt>
      <trkpt lat="43.0803" lon="1.34476">
        <ele>439.20001220703</ele>
        <time>2019-07-14T07:04:45.000Z</time>
      </trkpt>
      <trkpt lat="43.08029" lon="1.34486">
        <ele>438.60000610352</ele>
        <time>2019-07-14T07:04:46.000Z</time>
      </trkpt>
      <trkpt lat="43.08028" lon="1.34496">
        <ele>438</ele>
        <time>2019-07-14T07:04:47.000Z</time>
      </trkpt>
      <trkpt lat="43.08026" lon="1.34508">
        <ele>437.39999389648</ele>
        <time>2019-07-14T07:04:48.000Z</time>
      </trkpt>
      <trkpt lat="43.08025" lon="1.34519">
        <ele>437</ele>
        <time>2019-07-14T07:04:49.000Z</time>
      </trkpt>
      <trkpt lat="43.08024" lon="1.3453">
        <ele>436.39999389648</ele>
        <time>2019-07-14T07:04:50.000Z</time>
      </trkpt>
      <trkpt lat="43.08023" lon="1.34542">
        <ele>434.79998779297</ele>
        <time>2019-07-14T07:04:51.000Z</time>
      </trkpt>
      <trkpt lat="43.08021" lon="1.34554">
        <ele>434</ele>
        <time>2019-07-14T07:04:52.000Z</time>
      </trkpt>
      <trkpt lat="43.08019" lon="1.34566">
        <ele>433</ele>
        <time>2019-07-14T07:04:53.000Z</time>
      </trkpt>
      <trkpt lat="43.08016" lon="1.34577">
        <ele>432</ele>
        <time>2019-07-14T07:04:54.000Z</time>
      </trkpt>
      <trkpt lat="43.08014" lon="1.34588">
        <ele>431</ele>
        <time>2019-07-14T07:04:55.000Z</time>
      </trkpt>
      <trkpt lat="43.08012" lon="1.34597">
        <ele>429.79998779297</ele>
        <time>2019-07-14T07:04:56.000Z</time>
      </trkpt>
      <trkpt lat="43.0801" lon="1.34607">
        <ele>428.79998779297</ele>
        <time>2019-07-14T07:04:57.000Z</time>
      </trkpt>
      <trkpt lat="43.0801" lon="1.34618">
        <ele>427.60000610352</ele>
        <time>2019-07-14T07:04:58.000Z</time>
      </trkpt>
      <trkpt lat="43.08011" lon="1.34628">
        <ele>426.39999389648</ele>
        <time>2019-07-14T07:04:59.000Z</time>
      </trkpt>
      <trkpt lat="43.08013" lon="1.34636">
        <ele>425.39999389648</ele>
        <time>2019-07-14T07:05:00.000Z</time>
      </trkpt>
      <trkpt lat="43.08016" lon="1.34644">
        <ele>424.39999389648</ele>
        <time>2019-07-14T07:05:01.000Z</time>
      </trkpt>
      <trkpt lat="43.08018" lon="1.34653">
        <ele>423.60000610352</ele>
        <time>2019-07-14T07:05:02.000Z</time>
      </trkpt>
      <trkpt lat="43.0802" lon="1.34662">
        <ele>422.60000610352</ele>
        <time>2019-07-14T07:05:03.000Z</time>
      </trkpt>
      <trkpt lat="43.0802" lon="1.34672">
        <ele>421.79998779297</ele>
        <time>2019-07-14T07:05:04.000Z</time>
      </trkpt>
      <trkpt lat="43.0802" lon="1.34682">
        <ele>420.79998779297</ele>
        <time>2019-07-14T07:05:05.000Z</time>
      </trkpt>
      <trkpt lat="43.0802" lon="1.34693">
        <ele>420.39999389648</ele>
        <time>2019-07-14T07:05:06.000Z</time>
      </trkpt>
      <trkpt lat="43.08019" lon="1.34702">
        <ele>419.79998779297</ele>
        <time>2019-07-14T07:05:07.000Z</time>
      </trkpt>
      <trkpt lat="43.08018" lon="1.34711">
        <ele>419.20001220703</ele>
        <time>2019-07-14T07:05:08.000Z</time>
      </trkpt>
      <trkpt lat="43.08018" lon="1.34719">
        <ele>418.79998779297</ele>
        <time>2019-07-14T07:05:09.000Z</time>
      </trkpt>
      <trkpt lat="43.08018" lon="1.34725">
        <ele>418</ele>
        <time>2019-07-14T07:05:10.000Z</time>
      </trkpt>
      <trkpt lat="43.08017" lon="1.34732">
        <ele>417.39999389648</ele>
        <time>2019-07-14T07:05:11.000Z</time>
      </trkpt>
      <trkpt lat="43.08018" lon="1.34738">
        <ele>416.79998779297</ele>
        <time>2019-07-14T07:05:12.000Z</time>
      </trkpt>
      <trkpt lat="43.08017" lon="1.34745">
        <ele>416.20001220703</ele>
        <time>2019-07-14T07:05:13.000Z</time>
      </trkpt>
      <trkpt lat="43.08018" lon="1.34752">
        <ele>415.60000610352</ele>
        <time>2019-07-14T07:05:14.000Z</time>
      </trkpt>
      <trkpt lat="43.08023" lon="1.3476">
        <ele>415.60000610352</ele>
        <time>2019-07-14T07:05:16.000Z</time>
      </trkpt>
      <trkpt lat="43.08038" lon="1.34767">
        <ele>415.60000610352</ele>
        <time>2019-07-14T07:05:19.000Z</time>
      </trkpt>
      <trkpt lat="43.08043" lon="1.34768">
        <ele>415.60000610352</ele>
        <time>2019-07-14T07:05:20.000Z</time>
      </trkpt>
      <trkpt lat="43.08065" lon="1.34766">
        <ele>415.20001220703</ele>
        <time>2019-07-14T07:05:25.000Z</time>
      </trkpt>
      <trkpt lat="43.0807" lon="1.34766">
        <ele>414.79998779297</ele>
        <time>2019-07-14T07:05:26.000Z</time>
      </trkpt>
      <trkpt lat="43.08075" lon="1.34767">
        <ele>414.39999389648</ele>
        <time>2019-07-14T07:05:27.000Z</time>
      </trkpt>
      <trkpt lat="43.08081" lon="1.34767">
        <ele>414</ele>
        <time>2019-07-14T07:05:28.000Z</time>
      </trkpt>
      <trkpt lat="43.08087" lon="1.34766">
        <ele>413.60000610352</ele>
        <time>2019-07-14T07:05:29.000Z</time>
      </trkpt>
      <trkpt lat="43.08092" lon="1.34765">
        <ele>413.60000610352</ele>
        <time>2019-07-14T07:05:30.000Z</time>
      </trkpt>
      <trkpt lat="43.08097" lon="1.34765">
        <ele>413.60000610352</ele>
        <time>2019-07-14T07:05:31.000Z</time>
      </trkpt>
      <trkpt lat="43.081" lon="1.34765">
        <ele>413.60000610352</ele>
        <time>2019-07-14T07:05:32.000Z</time>
      </trkpt>
      <trkpt lat="43.08103" lon="1.34764">
        <ele>413.60000610352</ele>
        <time>2019-07-14T07:05:35.000Z</time>
      </trkpt>
      <trkpt lat="43.08109" lon="1.34763">
        <ele>413.60000610352</ele>
        <time>2019-07-14T07:05:58.000Z</time>
      </trkpt>
      <trkpt lat="43.08112" lon="1.34762">
        <ele>413.60000610352</ele>
        <time>2019-07-14T07:06:01.000Z</time>
      </trkpt>
      <trkpt lat="43.08113" lon="1.34764">
        <ele>413.60000610352</ele>
        <time>2019-07-14T07:06:02.000Z</time>
      </trkpt>
      <trkpt lat="43.08118" lon="1.34769">
        <ele>413.60000610352</ele>
        <time>2019-07-14T07:06:05.000Z</time>
      </trkpt>
      <trkpt lat="43.08122" lon="1.34774">
        <ele>414</ele>
        <time>2019-07-14T07:06:07.000Z</time>
      </trkpt>
      <trkpt lat="43.08124" lon="1.34775">
        <ele>414.39999389648</ele>
        <time>2019-07-14T07:06:08.000Z</time>
      </trkpt>
      <trkpt lat="43.08126" lon="1.34777">
        <ele>414.79998779297</ele>
        <time>2019-07-14T07:06:09.000Z</time>
      </trkpt>
      <trkpt lat="43.08128" lon="1.34777">
        <ele>415.20001220703</ele>
        <time>2019-07-14T07:06:10.000Z</time>
      </trkpt>
      <trkpt lat="43.08129" lon="1.34778">
        <ele>415.60000610352</ele>
        <time>2019-07-14T07:06:11.000Z</time>
      </trkpt>
      <trkpt lat="43.08134" lon="1.34779">
        <ele>415.60000610352</ele>
        <time>2019-07-14T07:06:14.000Z</time>
      </trkpt>
      <trkpt lat="43.08136" lon="1.3478">
        <ele>415.60000610352</ele>
        <time>2019-07-14T07:06:15.000Z</time>
      </trkpt>
      <trkpt lat="43.08139" lon="1.3478">
        <ele>415.60000610352</ele>
        <time>2019-07-14T07:06:16.000Z</time>
      </trkpt>
      <trkpt lat="43.0814" lon="1.3478">
        <ele>416</ele>
        <time>2019-07-14T07:06:17.000Z</time>
      </trkpt>
      <trkpt lat="43.08143" lon="1.3478">
        <ele>416.39999389648</ele>
        <time>2019-07-14T07:06:18.000Z</time>
      </trkpt>
      <trkpt lat="43.08145" lon="1.34781">
        <ele>416.79998779297</ele>
        <time>2019-07-14T07:06:19.000Z</time>
      </trkpt>
      <trkpt lat="43.08148" lon="1.34782">
        <ele>417.20001220703</ele>
        <time>2019-07-14T07:06:20.000Z</time>
      </trkpt>
      <trkpt lat="43.0815" lon="1.34783">
        <ele>417.60000610352</ele>
        <time>2019-07-14T07:06:21.000Z</time>
      </trkpt>
      <trkpt lat="43.08163" lon="1.34785">
        <ele>417.60000610352</ele>
        <time>2019-07-14T07:06:27.000Z</time>
      </trkpt>
      <trkpt lat="43.08174" lon="1.34789">
        <ele>418</ele>
        <time>2019-07-14T07:06:32.000Z</time>
      </trkpt>
      <trkpt lat="43.08176" lon="1.3479">
        <ele>418.39999389648</ele>
        <time>2019-07-14T07:06:33.000Z</time>
      </trkpt>
      <trkpt lat="43.08178" lon="1.34791">
        <ele>418.79998779297</ele>
        <time>2019-07-14T07:06:34.000Z</time>
      </trkpt>
      <trkpt lat="43.0818" lon="1.34791">
        <ele>419.20001220703</ele>
        <time>2019-07-14T07:06:35.000Z</time>
      </trkpt>
      <trkpt lat="43.08182" lon="1.34792">
        <ele>419.60000610352</ele>
        <time>2019-07-14T07:06:36.000Z</time>
      </trkpt>
      <trkpt lat="43.08183" lon="1.34793">
        <ele>419.60000610352</ele>
        <time>2019-07-14T07:06:37.000Z</time>
      </trkpt>
      <trkpt lat="43.08193" lon="1.34795">
        <ele>419.60000610352</ele>
        <time>2019-07-14T07:06:42.000Z</time>
      </trkpt>
      <trkpt lat="43.08194" lon="1.34795">
        <ele>419.60000610352</ele>
        <time>2019-07-14T07:06:43.000Z</time>
      </trkpt>
      <trkpt lat="43.08196" lon="1.34796">
        <ele>419.60000610352</ele>
        <time>2019-07-14T07:06:44.000Z</time>
      </trkpt>
      <trkpt lat="43.08199" lon="1.34797">
        <ele>419.60000610352</ele>
        <time>2019-07-14T07:06:46.000Z</time>
      </trkpt>
      <trkpt lat="43.08201" lon="1.34798">
        <ele>420</ele>
        <time>2019-07-14T07:06:48.000Z</time>
      </trkpt>
      <trkpt lat="43.08204" lon="1.34798">
        <ele>420.39999389648</ele>
        <time>2019-07-14T07:06:49.000Z</time>
      </trkpt>
      <trkpt lat="43.08206" lon="1.34799">
        <ele>420.79998779297</ele>
        <time>2019-07-14T07:06:50.000Z</time>
      </trkpt>
      <trkpt lat="43.08208" lon="1.34799">
        <ele>421.20001220703</ele>
        <time>2019-07-14T07:06:51.000Z</time>
      </trkpt>
      <trkpt lat="43.0821" lon="1.348">
        <ele>421.60000610352</ele>
        <time>2019-07-14T07:06:52.000Z</time>
      </trkpt>
      <trkpt lat="43.0822" lon="1.34802">
        <ele>421.60000610352</ele>
        <time>2019-07-14T07:06:57.000Z</time>
      </trkpt>
      <trkpt lat="43.0823" lon="1.34808">
        <ele>421.60000610352</ele>
        <time>2019-07-14T07:07:02.000Z</time>
      </trkpt>
      <trkpt lat="43.08235" lon="1.3481">
        <ele>421.60000610352</ele>
        <time>2019-07-14T07:07:06.000Z</time>
      </trkpt>
      <trkpt lat="43.08237" lon="1.34809">
        <ele>421.60000610352</ele>
        <time>2019-07-14T07:07:07.000Z</time>
      </trkpt>
      <trkpt lat="43.08247" lon="1.34809">
        <ele>421.60000610352</ele>
        <time>2019-07-14T07:07:11.000Z</time>
      </trkpt>
      <trkpt lat="43.08254" lon="1.34808">
        <ele>421.60000610352</ele>
        <time>2019-07-14T07:07:15.000Z</time>
      </trkpt>
      <trkpt lat="43.08255" lon="1.34808">
        <ele>421.60000610352</ele>
        <time>2019-07-14T07:07:17.000Z</time>
      </trkpt>
      <trkpt lat="43.08258" lon="1.34809">
        <ele>421.60000610352</ele>
        <time>2019-07-14T07:07:24.000Z</time>
      </trkpt>
      <trkpt lat="43.08261" lon="1.3481">
        <ele>421.60000610352</ele>
        <time>2019-07-14T07:07:25.000Z</time>
      </trkpt>
      <trkpt lat="43.08273" lon="1.34813">
        <ele>421.60000610352</ele>
        <time>2019-07-14T07:07:29.000Z</time>
      </trkpt>
      <trkpt lat="43.08281" lon="1.34815">
        <ele>421.60000610352</ele>
        <time>2019-07-14T07:07:33.000Z</time>
      </trkpt>
      <trkpt lat="43.08287" lon="1.34815">
        <ele>421.60000610352</ele>
        <time>2019-07-14T07:07:35.000Z</time>
      </trkpt>
      <trkpt lat="43.08293" lon="1.34813">
        <ele>421.20001220703</ele>
        <time>2019-07-14T07:07:37.000Z</time>
      </trkpt>
      <trkpt lat="43.08297" lon="1.34811">
        <ele>420.79998779297</ele>
        <time>2019-07-14T07:07:38.000Z</time>
      </trkpt>
      <trkpt lat="43.08299" lon="1.3481">
        <ele>420.39999389648</ele>
        <time>2019-07-14T07:07:39.000Z</time>
      </trkpt>
      <trkpt lat="43.08302" lon="1.3481">
        <ele>420</ele>
        <time>2019-07-14T07:07:40.000Z</time>
      </trkpt>
      <trkpt lat="43.08304" lon="1.34809">
        <ele>419.60000610352</ele>
        <time>2019-07-14T07:07:41.000Z</time>
      </trkpt>
      <trkpt lat="43.08305" lon="1.34809">
        <ele>419.60000610352</ele>
        <time>2019-07-14T07:07:42.000Z</time>
      </trkpt>
      <trkpt lat="43.0831" lon="1.34808">
        <ele>419.60000610352</ele>
        <time>2019-07-14T07:07:52.000Z</time>
      </trkpt>
      <trkpt lat="43.08313" lon="1.34811">
        <ele>419.60000610352</ele>
        <time>2019-07-14T07:07:53.000Z</time>
      </trkpt>
      <trkpt lat="43.08318" lon="1.34814">
        <ele>419.60000610352</ele>
        <time>2019-07-14T07:07:55.000Z</time>
      </trkpt>
      <trkpt lat="43.08334" lon="1.34818">
        <ele>419.60000610352</ele>
        <time>2019-07-14T07:08:00.000Z</time>
      </trkpt>
      <trkpt lat="43.08343" lon="1.34826">
        <ele>419.60000610352</ele>
        <time>2019-07-14T07:08:05.000Z</time>
      </trkpt>
      <trkpt lat="43.08357" lon="1.3483">
        <ele>419.60000610352</ele>
        <time>2019-07-14T07:08:10.000Z</time>
      </trkpt>
      <trkpt lat="43.0836" lon="1.34832">
        <ele>419.20001220703</ele>
        <time>2019-07-14T07:08:11.000Z</time>
      </trkpt>
      <trkpt lat="43.08364" lon="1.34833">
        <ele>418.79998779297</ele>
        <time>2019-07-14T07:08:12.000Z</time>
      </trkpt>
      <trkpt lat="43.08368" lon="1.34833">
        <ele>418.39999389648</ele>
        <time>2019-07-14T07:08:13.000Z</time>
      </trkpt>
      <trkpt lat="43.08371" lon="1.34834">
        <ele>418</ele>
        <time>2019-07-14T07:08:14.000Z</time>
      </trkpt>
      <trkpt lat="43.08375" lon="1.34834">
        <ele>417.60000610352</ele>
        <time>2019-07-14T07:08:15.000Z</time>
      </trkpt>
      <trkpt lat="43.08382" lon="1.34835">
        <ele>417.60000610352</ele>
        <time>2019-07-14T07:08:17.000Z</time>
      </trkpt>
      <trkpt lat="43.08403" lon="1.34845">
        <ele>417.60000610352</ele>
        <time>2019-07-14T07:08:22.000Z</time>
      </trkpt>
      <trkpt lat="43.08418" lon="1.34847">
        <ele>417.60000610352</ele>
        <time>2019-07-14T07:08:24.000Z</time>
      </trkpt>
      <trkpt lat="43.08424" lon="1.34848">
        <ele>417.60000610352</ele>
        <time>2019-07-14T07:08:25.000Z</time>
      </trkpt>
      <trkpt lat="43.08466" lon="1.34852">
        <ele>417.60000610352</ele>
        <time>2019-07-14T07:08:31.000Z</time>
      </trkpt>
      <trkpt lat="43.08472" lon="1.34853">
        <ele>417.60000610352</ele>
        <time>2019-07-14T07:08:32.000Z</time>
      </trkpt>
      <trkpt lat="43.08498" lon="1.34854">
        <ele>417.60000610352</ele>
        <time>2019-07-14T07:08:37.000Z</time>
      </trkpt>
      <trkpt lat="43.0853" lon="1.34853">
        <ele>417.60000610352</ele>
        <time>2019-07-14T07:08:43.000Z</time>
      </trkpt>
      <trkpt lat="43.08542" lon="1.34855">
        <ele>418</ele>
        <time>2019-07-14T07:08:46.000Z</time>
      </trkpt>
      <trkpt lat="43.08546" lon="1.34856">
        <ele>418.39999389648</ele>
        <time>2019-07-14T07:08:47.000Z</time>
      </trkpt>
      <trkpt lat="43.0855" lon="1.34856">
        <ele>418.79998779297</ele>
        <time>2019-07-14T07:08:48.000Z</time>
      </trkpt>
      <trkpt lat="43.08554" lon="1.34856">
        <ele>419.20001220703</ele>
        <time>2019-07-14T07:08:49.000Z</time>
      </trkpt>
      <trkpt lat="43.08558" lon="1.34856">
        <ele>419.60000610352</ele>
        <time>2019-07-14T07:08:50.000Z</time>
      </trkpt>
      <trkpt lat="43.08576" lon="1.34856">
        <ele>419.60000610352</ele>
        <time>2019-07-14T07:08:55.000Z</time>
      </trkpt>
      <trkpt lat="43.08597" lon="1.34854">
        <ele>419.60000610352</ele>
        <time>2019-07-14T07:09:02.000Z</time>
      </trkpt>
      <trkpt lat="43.08608" lon="1.34852">
        <ele>420</ele>
        <time>2019-07-14T07:09:06.000Z</time>
      </trkpt>
      <trkpt lat="43.0861" lon="1.34852">
        <ele>420.39999389648</ele>
        <time>2019-07-14T07:09:07.000Z</time>
      </trkpt>
      <trkpt lat="43.08613" lon="1.34852">
        <ele>420.79998779297</ele>
        <time>2019-07-14T07:09:08.000Z</time>
      </trkpt>
      <trkpt lat="43.08616" lon="1.34853">
        <ele>421.20001220703</ele>
        <time>2019-07-14T07:09:09.000Z</time>
      </trkpt>
      <trkpt lat="43.08618" lon="1.34853">
        <ele>421.60000610352</ele>
        <time>2019-07-14T07:09:10.000Z</time>
      </trkpt>
      <trkpt lat="43.0863" lon="1.34851">
        <ele>421.60000610352</ele>
        <time>2019-07-14T07:09:15.000Z</time>
      </trkpt>
      <trkpt lat="43.08642" lon="1.3485">
        <ele>422</ele>
        <time>2019-07-14T07:09:20.000Z</time>
      </trkpt>
      <trkpt lat="43.08644" lon="1.3485">
        <ele>422.39999389648</ele>
        <time>2019-07-14T07:09:21.000Z</time>
      </trkpt>
      <trkpt lat="43.08647" lon="1.34851">
        <ele>423</ele>
        <time>2019-07-14T07:09:22.000Z</time>
      </trkpt>
      <trkpt lat="43.08649" lon="1.34851">
        <ele>423.79998779297</ele>
        <time>2019-07-14T07:09:23.000Z</time>
      </trkpt>
      <trkpt lat="43.0866" lon="1.34853">
        <ele>423.79998779297</ele>
        <time>2019-07-14T07:09:29.000Z</time>
      </trkpt>
      <trkpt lat="43.08672" lon="1.34862">
        <ele>423.79998779297</ele>
        <time>2019-07-14T07:09:34.000Z</time>
      </trkpt>
      <trkpt lat="43.08682" lon="1.34867">
        <ele>423.39999389648</ele>
        <time>2019-07-14T07:09:37.000Z</time>
      </trkpt>
      <trkpt lat="43.08685" lon="1.34868">
        <ele>422.79998779297</ele>
        <time>2019-07-14T07:09:38.000Z</time>
      </trkpt>
      <trkpt lat="43.08689" lon="1.34869">
        <ele>422.39999389648</ele>
        <time>2019-07-14T07:09:39.000Z</time>
      </trkpt>
      <trkpt lat="43.08694" lon="1.3487">
        <ele>421.79998779297</ele>
        <time>2019-07-14T07:09:40.000Z</time>
      </trkpt>
      <trkpt lat="43.08698" lon="1.34872">
        <ele>421.39999389648</ele>
        <time>2019-07-14T07:09:41.000Z</time>
      </trkpt>
      <trkpt lat="43.08705" lon="1.34886">
        <ele>421.39999389648</ele>
        <time>2019-07-14T07:09:43.000Z</time>
      </trkpt>
      <trkpt lat="43.0871" lon="1.34915">
        <ele>421</ele>
        <time>2019-07-14T07:09:46.000Z</time>
      </trkpt>
      <trkpt lat="43.08714" lon="1.34924">
        <ele>420.60000610352</ele>
        <time>2019-07-14T07:09:47.000Z</time>
      </trkpt>
      <trkpt lat="43.08715" lon="1.34933">
        <ele>419.79998779297</ele>
        <time>2019-07-14T07:09:48.000Z</time>
      </trkpt>
      <trkpt lat="43.08715" lon="1.34942">
        <ele>419.39999389648</ele>
        <time>2019-07-14T07:09:49.000Z</time>
      </trkpt>
      <trkpt lat="43.08715" lon="1.3495">
        <ele>418.79998779297</ele>
        <time>2019-07-14T07:09:50.000Z</time>
      </trkpt>
      <trkpt lat="43.08716" lon="1.34958">
        <ele>418.39999389648</ele>
        <time>2019-07-14T07:09:51.000Z</time>
      </trkpt>
      <trkpt lat="43.08715" lon="1.34966">
        <ele>418</ele>
        <time>2019-07-14T07:09:52.000Z</time>
      </trkpt>
      <trkpt lat="43.08713" lon="1.34973">
        <ele>417.39999389648</ele>
        <time>2019-07-14T07:09:53.000Z</time>
      </trkpt>
      <trkpt lat="43.0871" lon="1.3498">
        <ele>417</ele>
        <time>2019-07-14T07:09:54.000Z</time>
      </trkpt>
      <trkpt lat="43.08708" lon="1.34985">
        <ele>417</ele>
        <time>2019-07-14T07:09:55.000Z</time>
      </trkpt>
      <trkpt lat="43.08703" lon="1.34989">
        <ele>417</ele>
        <time>2019-07-14T07:09:56.000Z</time>
      </trkpt>
      <trkpt lat="43.08693" lon="1.34995">
        <ele>416.60000610352</ele>
        <time>2019-07-14T07:09:58.000Z</time>
      </trkpt>
      <trkpt lat="43.08688" lon="1.35">
        <ele>416</ele>
        <time>2019-07-14T07:09:59.000Z</time>
      </trkpt>
      <trkpt lat="43.08683" lon="1.35003">
        <ele>415.60000610352</ele>
        <time>2019-07-14T07:10:00.000Z</time>
      </trkpt>
      <trkpt lat="43.08678" lon="1.35006">
        <ele>415.20001220703</ele>
        <time>2019-07-14T07:10:01.000Z</time>
      </trkpt>
      <trkpt lat="43.08673" lon="1.35009">
        <ele>414.60000610352</ele>
        <time>2019-07-14T07:10:02.000Z</time>
      </trkpt>
      <trkpt lat="43.08668" lon="1.35012">
        <ele>414</ele>
        <time>2019-07-14T07:10:03.000Z</time>
      </trkpt>
      <trkpt lat="43.08663" lon="1.35018">
        <ele>413.39999389648</ele>
        <time>2019-07-14T07:10:04.000Z</time>
      </trkpt>
      <trkpt lat="43.08661" lon="1.35024">
        <ele>413</ele>
        <time>2019-07-14T07:10:05.000Z</time>
      </trkpt>
      <trkpt lat="43.08659" lon="1.3503">
        <ele>412.39999389648</ele>
        <time>2019-07-14T07:10:06.000Z</time>
      </trkpt>
      <trkpt lat="43.08658" lon="1.35047">
        <ele>412.39999389648</ele>
        <time>2019-07-14T07:10:09.000Z</time>
      </trkpt>
      <trkpt lat="43.08667" lon="1.35051">
        <ele>412.39999389648</ele>
        <time>2019-07-14T07:10:12.000Z</time>
      </trkpt>
      <trkpt lat="43.08673" lon="1.3505">
        <ele>412.39999389648</ele>
        <time>2019-07-14T07:10:14.000Z</time>
      </trkpt>
      <trkpt lat="43.08682" lon="1.35051">
        <ele>412.39999389648</ele>
        <time>2019-07-14T07:10:17.000Z</time>
      </trkpt>
      <trkpt lat="43.08697" lon="1.3506">
        <ele>412.39999389648</ele>
        <time>2019-07-14T07:10:23.000Z</time>
      </trkpt>
      <trkpt lat="43.08709" lon="1.35067">
        <ele>412.79998779297</ele>
        <time>2019-07-14T07:10:28.000Z</time>
      </trkpt>
      <trkpt lat="43.08711" lon="1.35068">
        <ele>413.20001220703</ele>
        <time>2019-07-14T07:10:29.000Z</time>
      </trkpt>
      <trkpt lat="43.08713" lon="1.35068">
        <ele>413.60000610352</ele>
        <time>2019-07-14T07:10:30.000Z</time>
      </trkpt>
      <trkpt lat="43.08715" lon="1.35069">
        <ele>414</ele>
        <time>2019-07-14T07:10:31.000Z</time>
      </trkpt>
      <trkpt lat="43.08717" lon="1.35068">
        <ele>414.39999389648</ele>
        <time>2019-07-14T07:10:32.000Z</time>
      </trkpt>
      <trkpt lat="43.0872" lon="1.35067">
        <ele>414.39999389648</ele>
        <time>2019-07-14T07:10:33.000Z</time>
      </trkpt>
      <trkpt lat="43.08726" lon="1.35068">
        <ele>415.20001220703</ele>
        <time>2019-07-14T07:10:37.000Z</time>
      </trkpt>
      <trkpt lat="43.08728" lon="1.35069">
        <ele>415.79998779297</ele>
        <time>2019-07-14T07:10:38.000Z</time>
      </trkpt>
      <trkpt lat="43.08729" lon="1.35069">
        <ele>416.20001220703</ele>
        <time>2019-07-14T07:10:39.000Z</time>
      </trkpt>
      <trkpt lat="43.08731" lon="1.35069">
        <ele>416.60000610352</ele>
        <time>2019-07-14T07:10:40.000Z</time>
      </trkpt>
      <trkpt lat="43.08739" lon="1.35069">
        <ele>417</ele>
        <time>2019-07-14T07:10:45.000Z</time>
      </trkpt>
      <trkpt lat="43.0874" lon="1.35069">
        <ele>417.39999389648</ele>
        <time>2019-07-14T07:10:46.000Z</time>
      </trkpt>
      <trkpt lat="43.08741" lon="1.35069">
        <ele>417.79998779297</ele>
        <time>2019-07-14T07:10:47.000Z</time>
      </trkpt>
      <trkpt lat="43.08743" lon="1.3507">
        <ele>418.20001220703</ele>
        <time>2019-07-14T07:10:48.000Z</time>
      </trkpt>
      <trkpt lat="43.08744" lon="1.35069">
        <ele>418.60000610352</ele>
        <time>2019-07-14T07:10:49.000Z</time>
      </trkpt>
      <trkpt lat="43.08748" lon="1.35062">
        <ele>418.60000610352</ele>
        <time>2019-07-14T07:10:53.000Z</time>
      </trkpt>
      <trkpt lat="43.08748" lon="1.35059">
        <ele>419</ele>
        <time>2019-07-14T07:10:54.000Z</time>
      </trkpt>
      <trkpt lat="43.08747" lon="1.35056">
        <ele>419.39999389648</ele>
        <time>2019-07-14T07:10:55.000Z</time>
      </trkpt>
      <trkpt lat="43.08747" lon="1.35053">
        <ele>420</ele>
        <time>2019-07-14T07:10:56.000Z</time>
      </trkpt>
      <trkpt lat="43.08747" lon="1.3505">
        <ele>420.39999389648</ele>
        <time>2019-07-14T07:10:57.000Z</time>
      </trkpt>
      <trkpt lat="43.08747" lon="1.35047">
        <ele>420.79998779297</ele>
        <time>2019-07-14T07:10:58.000Z</time>
      </trkpt>
      <trkpt lat="43.08747" lon="1.35045">
        <ele>420.79998779297</ele>
        <time>2019-07-14T07:10:59.000Z</time>
      </trkpt>
      <trkpt lat="43.0875" lon="1.35028">
        <ele>420.79998779297</ele>
        <time>2019-07-14T07:11:05.000Z</time>
      </trkpt>
      <trkpt lat="43.08751" lon="1.35026">
        <ele>421.20001220703</ele>
        <time>2019-07-14T07:11:06.000Z</time>
      </trkpt>
      <trkpt lat="43.08752" lon="1.35023">
        <ele>421.60000610352</ele>
        <time>2019-07-14T07:11:07.000Z</time>
      </trkpt>
      <trkpt lat="43.08753" lon="1.35021">
        <ele>422.20001220703</ele>
        <time>2019-07-14T07:11:08.000Z</time>
      </trkpt>
      <trkpt lat="43.08753" lon="1.35018">
        <ele>422.60000610352</ele>
        <time>2019-07-14T07:11:09.000Z</time>
      </trkpt>
      <trkpt lat="43.08754" lon="1.35016">
        <ele>423</ele>
        <time>2019-07-14T07:11:10.000Z</time>
      </trkpt>
      <trkpt lat="43.08758" lon="1.3501">
        <ele>423</ele>
        <time>2019-07-14T07:11:13.000Z</time>
      </trkpt>
      <trkpt lat="43.08762" lon="1.35001">
        <ele>423.39999389648</ele>
        <time>2019-07-14T07:11:17.000Z</time>
      </trkpt>
      <trkpt lat="43.08763" lon="1.34998">
        <ele>423.79998779297</ele>
        <time>2019-07-14T07:11:18.000Z</time>
      </trkpt>
      <trkpt lat="43.08763" lon="1.34996">
        <ele>424.20001220703</ele>
        <time>2019-07-14T07:11:19.000Z</time>
      </trkpt>
      <trkpt lat="43.08764" lon="1.34994">
        <ele>424.60000610352</ele>
        <time>2019-07-14T07:11:20.000Z</time>
      </trkpt>
      <trkpt lat="43.08765" lon="1.34992">
        <ele>425.20001220703</ele>
        <time>2019-07-14T07:11:21.000Z</time>
      </trkpt>
      <trkpt lat="43.08771" lon="1.34981">
        <ele>425.20001220703</ele>
        <time>2019-07-14T07:11:26.000Z</time>
      </trkpt>
      <trkpt lat="43.08775" lon="1.34972">
        <ele>425.60000610352</ele>
        <time>2019-07-14T07:11:30.000Z</time>
      </trkpt>
      <trkpt lat="43.08776" lon="1.3497">
        <ele>426</ele>
        <time>2019-07-14T07:11:31.000Z</time>
      </trkpt>
      <trkpt lat="43.08777" lon="1.34967">
        <ele>426.39999389648</ele>
        <time>2019-07-14T07:11:32.000Z</time>
      </trkpt>
      <trkpt lat="43.08778" lon="1.34964">
        <ele>426.79998779297</ele>
        <time>2019-07-14T07:11:33.000Z</time>
      </trkpt>
      <trkpt lat="43.0878" lon="1.34962">
        <ele>427.20001220703</ele>
        <time>2019-07-14T07:11:34.000Z</time>
      </trkpt>
      <trkpt lat="43.08783" lon="1.34952">
        <ele>427.20001220703</ele>
        <time>2019-07-14T07:11:38.000Z</time>
      </trkpt>
      <trkpt lat="43.08787" lon="1.34942">
        <ele>427.60000610352</ele>
        <time>2019-07-14T07:11:42.000Z</time>
      </trkpt>
      <trkpt lat="43.08787" lon="1.3494">
        <ele>428</ele>
        <time>2019-07-14T07:11:43.000Z</time>
      </trkpt>
      <trkpt lat="43.08788" lon="1.34937">
        <ele>428.39999389648</ele>
        <time>2019-07-14T07:11:44.000Z</time>
      </trkpt>
      <trkpt lat="43.08789" lon="1.34934">
        <ele>428.79998779297</ele>
        <time>2019-07-14T07:11:45.000Z</time>
      </trkpt>
      <trkpt lat="43.0879" lon="1.34932">
        <ele>429.20001220703</ele>
        <time>2019-07-14T07:11:46.000Z</time>
      </trkpt>
      <trkpt lat="43.08793" lon="1.34916">
        <ele>429.60000610352</ele>
        <time>2019-07-14T07:11:52.000Z</time>
      </trkpt>
      <trkpt lat="43.08794" lon="1.34913">
        <ele>430</ele>
        <time>2019-07-14T07:11:53.000Z</time>
      </trkpt>
      <trkpt lat="43.08794" lon="1.3491">
        <ele>430.39999389648</ele>
        <time>2019-07-14T07:11:54.000Z</time>
      </trkpt>
      <trkpt lat="43.08795" lon="1.34907">
        <ele>430.79998779297</ele>
        <time>2019-07-14T07:11:55.000Z</time>
      </trkpt>
      <trkpt lat="43.08796" lon="1.34905">
        <ele>431.20001220703</ele>
        <time>2019-07-14T07:11:56.000Z</time>
      </trkpt>
      <trkpt lat="43.08801" lon="1.34895">
        <ele>431.20001220703</ele>
        <time>2019-07-14T07:12:00.000Z</time>
      </trkpt>
      <trkpt lat="43.08804" lon="1.34886">
        <ele>431.60000610352</ele>
        <time>2019-07-14T07:12:04.000Z</time>
      </trkpt>
      <trkpt lat="43.08805" lon="1.34883">
        <ele>432</ele>
        <time>2019-07-14T07:12:05.000Z</time>
      </trkpt>
      <trkpt lat="43.08806" lon="1.34881">
        <ele>432.39999389648</ele>
        <time>2019-07-14T07:12:06.000Z</time>
      </trkpt>
      <trkpt lat="43.08807" lon="1.34879">
        <ele>432.79998779297</ele>
        <time>2019-07-14T07:12:07.000Z</time>
      </trkpt>
      <trkpt lat="43.08808" lon="1.34876">
        <ele>433.20001220703</ele>
        <time>2019-07-14T07:12:08.000Z</time>
      </trkpt>
      <trkpt lat="43.08812" lon="1.34866">
        <ele>433.79998779297</ele>
        <time>2019-07-14T07:12:12.000Z</time>
      </trkpt>
      <trkpt lat="43.08813" lon="1.34864">
        <ele>434.20001220703</ele>
        <time>2019-07-14T07:12:13.000Z</time>
      </trkpt>
      <trkpt lat="43.08814" lon="1.34861">
        <ele>434.60000610352</ele>
        <time>2019-07-14T07:12:14.000Z</time>
      </trkpt>
      <trkpt lat="43.08814" lon="1.34859">
        <ele>435</ele>
        <time>2019-07-14T07:12:15.000Z</time>
      </trkpt>
      <trkpt lat="43.08815" lon="1.34856">
        <ele>435.39999389648</ele>
        <time>2019-07-14T07:12:16.000Z</time>
      </trkpt>
      <trkpt lat="43.08816" lon="1.34839">
        <ele>435.39999389648</ele>
        <time>2019-07-14T07:12:22.000Z</time>
      </trkpt>
      <trkpt lat="43.08816" lon="1.34831">
        <ele>435.79998779297</ele>
        <time>2019-07-14T07:12:25.000Z</time>
      </trkpt>
      <trkpt lat="43.08816" lon="1.34829">
        <ele>436.39999389648</ele>
        <time>2019-07-14T07:12:26.000Z</time>
      </trkpt>
      <trkpt lat="43.08816" lon="1.34826">
        <ele>436.79998779297</ele>
        <time>2019-07-14T07:12:27.000Z</time>
      </trkpt>
      <trkpt lat="43.08816" lon="1.34825">
        <ele>437.20001220703</ele>
        <time>2019-07-14T07:12:28.000Z</time>
      </trkpt>
      <trkpt lat="43.08816" lon="1.34822">
        <ele>437.79998779297</ele>
        <time>2019-07-14T07:12:29.000Z</time>
      </trkpt>
      <trkpt lat="43.08817" lon="1.34817">
        <ele>437.79998779297</ele>
        <time>2019-07-14T07:12:32.000Z</time>
      </trkpt>
      <trkpt lat="43.08819" lon="1.34812">
        <ele>438.20001220703</ele>
        <time>2019-07-14T07:12:35.000Z</time>
      </trkpt>
      <trkpt lat="43.0882" lon="1.34811">
        <ele>438.60000610352</ele>
        <time>2019-07-14T07:12:36.000Z</time>
      </trkpt>
      <trkpt lat="43.08822" lon="1.3481">
        <ele>439</ele>
        <time>2019-07-14T07:12:37.000Z</time>
      </trkpt>
      <trkpt lat="43.08823" lon="1.34808">
        <ele>439.39999389648</ele>
        <time>2019-07-14T07:12:38.000Z</time>
      </trkpt>
      <trkpt lat="43.08824" lon="1.34807">
        <ele>439.79998779297</ele>
        <time>2019-07-14T07:12:39.000Z</time>
      </trkpt>
      <trkpt lat="43.08832" lon="1.34804">
        <ele>439.79998779297</ele>
        <time>2019-07-14T07:12:44.000Z</time>
      </trkpt>
      <trkpt lat="43.08834" lon="1.34804">
        <ele>440.20001220703</ele>
        <time>2019-07-14T07:12:45.000Z</time>
      </trkpt>
      <trkpt lat="43.08836" lon="1.34805">
        <ele>440.60000610352</ele>
        <time>2019-07-14T07:12:46.000Z</time>
      </trkpt>
      <trkpt lat="43.08838" lon="1.34805">
        <ele>441</ele>
        <time>2019-07-14T07:12:47.000Z</time>
      </trkpt>
      <trkpt lat="43.08839" lon="1.34806">
        <ele>441.39999389648</ele>
        <time>2019-07-14T07:12:48.000Z</time>
      </trkpt>
      <trkpt lat="43.0884" lon="1.34808">
        <ele>441.79998779297</ele>
        <time>2019-07-14T07:12:49.000Z</time>
      </trkpt>
      <trkpt lat="43.08843" lon="1.3481">
        <ele>441.79998779297</ele>
        <time>2019-07-14T07:12:51.000Z</time>
      </trkpt>
      <trkpt lat="43.08846" lon="1.34814">
        <ele>441.79998779297</ele>
        <time>2019-07-14T07:12:53.000Z</time>
      </trkpt>
      <trkpt lat="43.08849" lon="1.34823">
        <ele>442.20001220703</ele>
        <time>2019-07-14T07:12:57.000Z</time>
      </trkpt>
      <trkpt lat="43.08849" lon="1.34825">
        <ele>442.79998779297</ele>
        <time>2019-07-14T07:12:58.000Z</time>
      </trkpt>
      <trkpt lat="43.08849" lon="1.34828">
        <ele>443.20001220703</ele>
        <time>2019-07-14T07:12:59.000Z</time>
      </trkpt>
      <trkpt lat="43.08849" lon="1.34831">
        <ele>443.60000610352</ele>
        <time>2019-07-14T07:13:00.000Z</time>
      </trkpt>
      <trkpt lat="43.08848" lon="1.34833">
        <ele>444</ele>
        <time>2019-07-14T07:13:01.000Z</time>
      </trkpt>
      <trkpt lat="43.08847" lon="1.34843">
        <ele>444</ele>
        <time>2019-07-14T07:13:05.000Z</time>
      </trkpt>
      <trkpt lat="43.08847" lon="1.34853">
        <ele>444.39999389648</ele>
        <time>2019-07-14T07:13:09.000Z</time>
      </trkpt>
      <trkpt lat="43.08846" lon="1.34856">
        <ele>444.79998779297</ele>
        <time>2019-07-14T07:13:10.000Z</time>
      </trkpt>
      <trkpt lat="43.08847" lon="1.3486">
        <ele>445.39999389648</ele>
        <time>2019-07-14T07:13:11.000Z</time>
      </trkpt>
      <trkpt lat="43.08847" lon="1.34863">
        <ele>445.79998779297</ele>
        <time>2019-07-14T07:13:12.000Z</time>
      </trkpt>
      <trkpt lat="43.08847" lon="1.34865">
        <ele>446.20001220703</ele>
        <time>2019-07-14T07:13:13.000Z</time>
      </trkpt>
      <trkpt lat="43.08851" lon="1.34878">
        <ele>446.20001220703</ele>
        <time>2019-07-14T07:13:18.000Z</time>
      </trkpt>
      <trkpt lat="43.08854" lon="1.34891">
        <ele>446.60000610352</ele>
        <time>2019-07-14T07:13:23.000Z</time>
      </trkpt>
      <trkpt lat="43.08855" lon="1.34893">
        <ele>447</ele>
        <time>2019-07-14T07:13:24.000Z</time>
      </trkpt>
      <trkpt lat="43.08856" lon="1.34896">
        <ele>447.60000610352</ele>
        <time>2019-07-14T07:13:25.000Z</time>
      </trkpt>
      <trkpt lat="43.08857" lon="1.34899">
        <ele>448</ele>
        <time>2019-07-14T07:13:26.000Z</time>
      </trkpt>
      <trkpt lat="43.08857" lon="1.34901">
        <ele>448.39999389648</ele>
        <time>2019-07-14T07:13:27.000Z</time>
      </trkpt>
      <trkpt lat="43.08865" lon="1.34915">
        <ele>448.39999389648</ele>
        <time>2019-07-14T07:13:33.000Z</time>
      </trkpt>
      <trkpt lat="43.08866" lon="1.34917">
        <ele>448.79998779297</ele>
        <time>2019-07-14T07:13:34.000Z</time>
      </trkpt>
      <trkpt lat="43.08867" lon="1.34918">
        <ele>449.39999389648</ele>
        <time>2019-07-14T07:13:35.000Z</time>
      </trkpt>
      <trkpt lat="43.08868" lon="1.3492">
        <ele>449.79998779297</ele>
        <time>2019-07-14T07:13:36.000Z</time>
      </trkpt>
      <trkpt lat="43.0887" lon="1.34921">
        <ele>450.20001220703</ele>
        <time>2019-07-14T07:13:37.000Z</time>
      </trkpt>
      <trkpt lat="43.08871" lon="1.34923">
        <ele>450.60000610352</ele>
        <time>2019-07-14T07:13:38.000Z</time>
      </trkpt>
      <trkpt lat="43.08875" lon="1.34925">
        <ele>450.60000610352</ele>
        <time>2019-07-14T07:13:40.000Z</time>
      </trkpt>
      <trkpt lat="43.08885" lon="1.34927">
        <ele>451</ele>
        <time>2019-07-14T07:13:46.000Z</time>
      </trkpt>
      <trkpt lat="43.08887" lon="1.34928">
        <ele>451.39999389648</ele>
        <time>2019-07-14T07:13:47.000Z</time>
      </trkpt>
      <trkpt lat="43.08889" lon="1.34928">
        <ele>451.79998779297</ele>
        <time>2019-07-14T07:13:48.000Z</time>
      </trkpt>
      <trkpt lat="43.08891" lon="1.34928">
        <ele>452.20001220703</ele>
        <time>2019-07-14T07:13:49.000Z</time>
      </trkpt>
      <trkpt lat="43.08893" lon="1.34928">
        <ele>452.60000610352</ele>
        <time>2019-07-14T07:13:50.000Z</time>
      </trkpt>
      <trkpt lat="43.08905" lon="1.34928">
        <ele>453.20001220703</ele>
        <time>2019-07-14T07:13:56.000Z</time>
      </trkpt>
      <trkpt lat="43.08907" lon="1.34928">
        <ele>453.60000610352</ele>
        <time>2019-07-14T07:13:57.000Z</time>
      </trkpt>
      <trkpt lat="43.08909" lon="1.34927">
        <ele>454</ele>
        <time>2019-07-14T07:13:58.000Z</time>
      </trkpt>
      <trkpt lat="43.08911" lon="1.34926">
        <ele>454.39999389648</ele>
        <time>2019-07-14T07:13:59.000Z</time>
      </trkpt>
      <trkpt lat="43.08913" lon="1.34925">
        <ele>454.79998779297</ele>
        <time>2019-07-14T07:14:00.000Z</time>
      </trkpt>
      <trkpt lat="43.08917" lon="1.34923">
        <ele>454.79998779297</ele>
        <time>2019-07-14T07:14:02.000Z</time>
      </trkpt>
      <trkpt lat="43.08925" lon="1.34914">
        <ele>455.20001220703</ele>
        <time>2019-07-14T07:14:07.000Z</time>
      </trkpt>
      <trkpt lat="43.08927" lon="1.34912">
        <ele>455.60000610352</ele>
        <time>2019-07-14T07:14:08.000Z</time>
      </trkpt>
      <trkpt lat="43.08929" lon="1.3491">
        <ele>456</ele>
        <time>2019-07-14T07:14:09.000Z</time>
      </trkpt>
      <trkpt lat="43.08931" lon="1.34908">
        <ele>456.60000610352</ele>
        <time>2019-07-14T07:14:10.000Z</time>
      </trkpt>
      <trkpt lat="43.08932" lon="1.34907">
        <ele>457</ele>
        <time>2019-07-14T07:14:11.000Z</time>
      </trkpt>
      <trkpt lat="43.08941" lon="1.34901">
        <ele>457</ele>
        <time>2019-07-14T07:14:15.000Z</time>
      </trkpt>
      <trkpt lat="43.08949" lon="1.34896">
        <ele>457.79998779297</ele>
        <time>2019-07-14T07:14:19.000Z</time>
      </trkpt>
      <trkpt lat="43.08951" lon="1.34895">
        <ele>458.39999389648</ele>
        <time>2019-07-14T07:14:20.000Z</time>
      </trkpt>
      <trkpt lat="43.08953" lon="1.34895">
        <ele>458.79998779297</ele>
        <time>2019-07-14T07:14:21.000Z</time>
      </trkpt>
      <trkpt lat="43.08955" lon="1.34893">
        <ele>459.20001220703</ele>
        <time>2019-07-14T07:14:22.000Z</time>
      </trkpt>
      <trkpt lat="43.08969" lon="1.34888">
        <ele>459.60000610352</ele>
        <time>2019-07-14T07:14:29.000Z</time>
      </trkpt>
      <trkpt lat="43.08971" lon="1.34887">
        <ele>460</ele>
        <time>2019-07-14T07:14:30.000Z</time>
      </trkpt>
      <trkpt lat="43.08973" lon="1.34887">
        <ele>460.39999389648</ele>
        <time>2019-07-14T07:14:31.000Z</time>
      </trkpt>
      <trkpt lat="43.08975" lon="1.34885">
        <ele>460.79998779297</ele>
        <time>2019-07-14T07:14:32.000Z</time>
      </trkpt>
      <trkpt lat="43.08977" lon="1.34885">
        <ele>461.20001220703</ele>
        <time>2019-07-14T07:14:33.000Z</time>
      </trkpt>
      <trkpt lat="43.08984" lon="1.34879">
        <ele>461.20001220703</ele>
        <time>2019-07-14T07:14:37.000Z</time>
      </trkpt>
      <trkpt lat="43.08993" lon="1.34872">
        <ele>461.60000610352</ele>
        <time>2019-07-14T07:14:42.000Z</time>
      </trkpt>
      <trkpt lat="43.08994" lon="1.34871">
        <ele>462</ele>
        <time>2019-07-14T07:14:43.000Z</time>
      </trkpt>
      <trkpt lat="43.08995" lon="1.34869">
        <ele>463</ele>
        <time>2019-07-14T07:14:44.000Z</time>
      </trkpt>
      <trkpt lat="43.08997" lon="1.34868">
        <ele>463.39999389648</ele>
        <time>2019-07-14T07:14:45.000Z</time>
      </trkpt>
      <trkpt lat="43.09009" lon="1.34857">
        <ele>463.39999389648</ele>
        <time>2019-07-14T07:14:52.000Z</time>
      </trkpt>
      <trkpt lat="43.09011" lon="1.34856">
        <ele>463.79998779297</ele>
        <time>2019-07-14T07:14:53.000Z</time>
      </trkpt>
      <trkpt lat="43.09013" lon="1.34854">
        <ele>464.20001220703</ele>
        <time>2019-07-14T07:14:54.000Z</time>
      </trkpt>
      <trkpt lat="43.09015" lon="1.34853">
        <ele>464.60000610352</ele>
        <time>2019-07-14T07:14:55.000Z</time>
      </trkpt>
      <trkpt lat="43.09016" lon="1.34852">
        <ele>465.20001220703</ele>
        <time>2019-07-14T07:14:56.000Z</time>
      </trkpt>
      <trkpt lat="43.09018" lon="1.3485">
        <ele>465.60000610352</ele>
        <time>2019-07-14T07:14:57.000Z</time>
      </trkpt>
      <trkpt lat="43.09022" lon="1.34848">
        <ele>465.60000610352</ele>
        <time>2019-07-14T07:14:59.000Z</time>
      </trkpt>
      <trkpt lat="43.09032" lon="1.34841">
        <ele>466</ele>
        <time>2019-07-14T07:15:05.000Z</time>
      </trkpt>
      <trkpt lat="43.09034" lon="1.3484">
        <ele>466.39999389648</ele>
        <time>2019-07-14T07:15:06.000Z</time>
      </trkpt>
      <trkpt lat="43.09036" lon="1.34839">
        <ele>466.79998779297</ele>
        <time>2019-07-14T07:15:07.000Z</time>
      </trkpt>
      <trkpt lat="43.09038" lon="1.34838">
        <ele>467.20001220703</ele>
        <time>2019-07-14T07:15:08.000Z</time>
      </trkpt>
      <trkpt lat="43.0904" lon="1.34837">
        <ele>467.60000610352</ele>
        <time>2019-07-14T07:15:09.000Z</time>
      </trkpt>
      <trkpt lat="43.09049" lon="1.34832">
        <ele>467.60000610352</ele>
        <time>2019-07-14T07:15:14.000Z</time>
      </trkpt>
      <trkpt lat="43.09059" lon="1.34828">
        <ele>468</ele>
        <time>2019-07-14T07:15:19.000Z</time>
      </trkpt>
      <trkpt lat="43.09061" lon="1.34827">
        <ele>468.39999389648</ele>
        <time>2019-07-14T07:15:20.000Z</time>
      </trkpt>
      <trkpt lat="43.09063" lon="1.34826">
        <ele>468.79998779297</ele>
        <time>2019-07-14T07:15:21.000Z</time>
      </trkpt>
      <trkpt lat="43.09065" lon="1.34825">
        <ele>469.20001220703</ele>
        <time>2019-07-14T07:15:22.000Z</time>
      </trkpt>
      <trkpt lat="43.09067" lon="1.34825">
        <ele>469.60000610352</ele>
        <time>2019-07-14T07:15:23.000Z</time>
      </trkpt>
      <trkpt lat="43.0908" lon="1.34821">
        <ele>469.60000610352</ele>
        <time>2019-07-14T07:15:29.000Z</time>
      </trkpt>
      <trkpt lat="43.09091" lon="1.34819">
        <ele>470.39999389648</ele>
        <time>2019-07-14T07:15:34.000Z</time>
      </trkpt>
      <trkpt lat="43.09094" lon="1.34819">
        <ele>470.79998779297</ele>
        <time>2019-07-14T07:15:35.000Z</time>
      </trkpt>
      <trkpt lat="43.09096" lon="1.34819">
        <ele>471.20001220703</ele>
        <time>2019-07-14T07:15:36.000Z</time>
      </trkpt>
      <trkpt lat="43.09098" lon="1.34819">
        <ele>471.60000610352</ele>
        <time>2019-07-14T07:15:37.000Z</time>
      </trkpt>
      <trkpt lat="43.09111" lon="1.34813">
        <ele>471.60000610352</ele>
        <time>2019-07-14T07:15:43.000Z</time>
      </trkpt>
      <trkpt lat="43.09123" lon="1.34801">
        <ele>472</ele>
        <time>2019-07-14T07:15:49.000Z</time>
      </trkpt>
      <trkpt lat="43.09125" lon="1.34799">
        <ele>472.39999389648</ele>
        <time>2019-07-14T07:15:50.000Z</time>
      </trkpt>
      <trkpt lat="43.09127" lon="1.34797">
        <ele>473</ele>
        <time>2019-07-14T07:15:51.000Z</time>
      </trkpt>
      <trkpt lat="43.09129" lon="1.34795">
        <ele>473.39999389648</ele>
        <time>2019-07-14T07:15:52.000Z</time>
      </trkpt>
      <trkpt lat="43.09132" lon="1.34794">
        <ele>473.79998779297</ele>
        <time>2019-07-14T07:15:53.000Z</time>
      </trkpt>
      <trkpt lat="43.09141" lon="1.34794">
        <ele>473.79998779297</ele>
        <time>2019-07-14T07:15:56.000Z</time>
      </trkpt>
      <trkpt lat="43.09157" lon="1.34807">
        <ele>473.79998779297</ele>
        <time>2019-07-14T07:16:02.000Z</time>
      </trkpt>
      <trkpt lat="43.0917" lon="1.34833">
        <ele>473.79998779297</ele>
        <time>2019-07-14T07:16:10.000Z</time>
      </trkpt>
      <trkpt lat="43.0918" lon="1.34859">
        <ele>473.79998779297</ele>
        <time>2019-07-14T07:16:17.000Z</time>
      </trkpt>
      <trkpt lat="43.09181" lon="1.34862">
        <ele>474.20001220703</ele>
        <time>2019-07-14T07:16:18.000Z</time>
      </trkpt>
      <trkpt lat="43.09183" lon="1.34865">
        <ele>474.79998779297</ele>
        <time>2019-07-14T07:16:19.000Z</time>
      </trkpt>
      <trkpt lat="43.09185" lon="1.34867">
        <ele>475.20001220703</ele>
        <time>2019-07-14T07:16:20.000Z</time>
      </trkpt>
      <trkpt lat="43.09186" lon="1.3487">
        <ele>475.60000610352</ele>
        <time>2019-07-14T07:16:21.000Z</time>
      </trkpt>
      <trkpt lat="43.09188" lon="1.34873">
        <ele>476.20001220703</ele>
        <time>2019-07-14T07:16:22.000Z</time>
      </trkpt>
      <trkpt lat="43.0919" lon="1.34874">
        <ele>476.20001220703</ele>
        <time>2019-07-14T07:16:23.000Z</time>
      </trkpt>
      <trkpt lat="43.09198" lon="1.34876">
        <ele>476.20001220703</ele>
        <time>2019-07-14T07:16:25.000Z</time>
      </trkpt>
      <trkpt lat="43.09207" lon="1.34874">
        <ele>476.20001220703</ele>
        <time>2019-07-14T07:16:27.000Z</time>
      </trkpt>
      <trkpt lat="43.09218" lon="1.3486">
        <ele>476.20001220703</ele>
        <time>2019-07-14T07:16:30.000Z</time>
      </trkpt>
      <trkpt lat="43.09228" lon="1.34842">
        <ele>476.20001220703</ele>
        <time>2019-07-14T07:16:33.000Z</time>
      </trkpt>
      <trkpt lat="43.09235" lon="1.34828">
        <ele>476.20001220703</ele>
        <time>2019-07-14T07:16:35.000Z</time>
      </trkpt>
      <trkpt lat="43.09242" lon="1.34813">
        <ele>475.60000610352</ele>
        <time>2019-07-14T07:16:37.000Z</time>
      </trkpt>
      <trkpt lat="43.09246" lon="1.34805">
        <ele>475.20001220703</ele>
        <time>2019-07-14T07:16:38.000Z</time>
      </trkpt>
      <trkpt lat="43.09251" lon="1.34797">
        <ele>474.79998779297</ele>
        <time>2019-07-14T07:16:39.000Z</time>
      </trkpt>
      <trkpt lat="43.09255" lon="1.34789">
        <ele>474.20001220703</ele>
        <time>2019-07-14T07:16:40.000Z</time>
      </trkpt>
      <trkpt lat="43.09259" lon="1.34781">
        <ele>473.39999389648</ele>
        <time>2019-07-14T07:16:41.000Z</time>
      </trkpt>
      <trkpt lat="43.09264" lon="1.34773">
        <ele>472.79998779297</ele>
        <time>2019-07-14T07:16:42.000Z</time>
      </trkpt>
      <trkpt lat="43.09268" lon="1.34765">
        <ele>472.20001220703</ele>
        <time>2019-07-14T07:16:43.000Z</time>
      </trkpt>
      <trkpt lat="43.09272" lon="1.34758">
        <ele>471.60000610352</ele>
        <time>2019-07-14T07:16:44.000Z</time>
      </trkpt>
      <trkpt lat="43.09286" lon="1.34729">
        <ele>471.60000610352</ele>
        <time>2019-07-14T07:16:48.000Z</time>
      </trkpt>
      <trkpt lat="43.09315" lon="1.34675">
        <ele>471.60000610352</ele>
        <time>2019-07-14T07:16:56.000Z</time>
      </trkpt>
      <trkpt lat="43.09333" lon="1.34632">
        <ele>471.60000610352</ele>
        <time>2019-07-14T07:17:03.000Z</time>
      </trkpt>
      <trkpt lat="43.09346" lon="1.34609">
        <ele>471</ele>
        <time>2019-07-14T07:17:07.000Z</time>
      </trkpt>
      <trkpt lat="43.09353" lon="1.34609">
        <ele>470.39999389648</ele>
        <time>2019-07-14T07:17:08.000Z</time>
      </trkpt>
      <trkpt lat="43.09358" lon="1.34612">
        <ele>469.79998779297</ele>
        <time>2019-07-14T07:17:09.000Z</time>
      </trkpt>
      <trkpt lat="43.09363" lon="1.34618">
        <ele>469.39999389648</ele>
        <time>2019-07-14T07:17:10.000Z</time>
      </trkpt>
      <trkpt lat="43.09367" lon="1.34623">
        <ele>468.79998779297</ele>
        <time>2019-07-14T07:17:11.000Z</time>
      </trkpt>
      <trkpt lat="43.09372" lon="1.34629">
        <ele>468.79998779297</ele>
        <time>2019-07-14T07:17:12.000Z</time>
      </trkpt>
      <trkpt lat="43.09389" lon="1.34651">
        <ele>468.79998779297</ele>
        <time>2019-07-14T07:17:16.000Z</time>
      </trkpt>
      <trkpt lat="43.09422" lon="1.34702">
        <ele>468.79998779297</ele>
        <time>2019-07-14T07:17:25.000Z</time>
      </trkpt>
      <trkpt lat="43.09448" lon="1.3474">
        <ele>468.79998779297</ele>
        <time>2019-07-14T07:17:33.000Z</time>
      </trkpt>
      <trkpt lat="43.09476" lon="1.34773">
        <ele>468.79998779297</ele>
        <time>2019-07-14T07:17:41.000Z</time>
      </trkpt>
      <trkpt lat="43.09483" lon="1.34781">
        <ele>468.79998779297</ele>
        <time>2019-07-14T07:17:43.000Z</time>
      </trkpt>
      <trkpt lat="43.09493" lon="1.34779">
        <ele>468.79998779297</ele>
        <time>2019-07-14T07:17:45.000Z</time>
      </trkpt>
      <trkpt lat="43.09496" lon="1.34774">
        <ele>469.20001220703</ele>
        <time>2019-07-14T07:17:46.000Z</time>
      </trkpt>
      <trkpt lat="43.09499" lon="1.34769">
        <ele>469.60000610352</ele>
        <time>2019-07-14T07:17:47.000Z</time>
      </trkpt>
      <trkpt lat="43.09502" lon="1.34765">
        <ele>470</ele>
        <time>2019-07-14T07:17:48.000Z</time>
      </trkpt>
      <trkpt lat="43.09506" lon="1.3476">
        <ele>470.39999389648</ele>
        <time>2019-07-14T07:17:49.000Z</time>
      </trkpt>
      <trkpt lat="43.09507" lon="1.34755">
        <ele>470.79998779297</ele>
        <time>2019-07-14T07:17:50.000Z</time>
      </trkpt>
      <trkpt lat="43.0951" lon="1.34744">
        <ele>470.79998779297</ele>
        <time>2019-07-14T07:17:52.000Z</time>
      </trkpt>
      <trkpt lat="43.09519" lon="1.34707">
        <ele>470.79998779297</ele>
        <time>2019-07-14T07:17:59.000Z</time>
      </trkpt>
      <trkpt lat="43.09524" lon="1.34693">
        <ele>471.79998779297</ele>
        <time>2019-07-14T07:18:02.000Z</time>
      </trkpt>
      <trkpt lat="43.09526" lon="1.34688">
        <ele>472.20001220703</ele>
        <time>2019-07-14T07:18:03.000Z</time>
      </trkpt>
      <trkpt lat="43.09528" lon="1.34684">
        <ele>472.60000610352</ele>
        <time>2019-07-14T07:18:04.000Z</time>
      </trkpt>
      <trkpt lat="43.0953" lon="1.34679">
        <ele>473</ele>
        <time>2019-07-14T07:18:05.000Z</time>
      </trkpt>
      <trkpt lat="43.09549" lon="1.3464">
        <ele>473</ele>
        <time>2019-07-14T07:18:12.000Z</time>
      </trkpt>
      <trkpt lat="43.09577" lon="1.34588">
        <ele>473</ele>
        <time>2019-07-14T07:18:21.000Z</time>
      </trkpt>
      <trkpt lat="43.09597" lon="1.3455">
        <ele>472.60000610352</ele>
        <time>2019-07-14T07:18:27.000Z</time>
      </trkpt>
      <trkpt lat="43.096" lon="1.34543">
        <ele>472.20001220703</ele>
        <time>2019-07-14T07:18:28.000Z</time>
      </trkpt>
      <trkpt lat="43.09603" lon="1.34536">
        <ele>471.79998779297</ele>
        <time>2019-07-14T07:18:29.000Z</time>
      </trkpt>
      <trkpt lat="43.09606" lon="1.34529">
        <ele>471.39999389648</ele>
        <time>2019-07-14T07:18:30.000Z</time>
      </trkpt>
      <trkpt lat="43.09609" lon="1.34523">
        <ele>471</ele>
        <time>2019-07-14T07:18:31.000Z</time>
      </trkpt>
      <trkpt lat="43.09626" lon="1.34492">
        <ele>471</ele>
        <time>2019-07-14T07:18:36.000Z</time>
      </trkpt>
      <trkpt lat="43.09646" lon="1.34458">
        <ele>471</ele>
        <time>2019-07-14T07:18:42.000Z</time>
      </trkpt>
      <trkpt lat="43.09669" lon="1.34419">
        <ele>471</ele>
        <time>2019-07-14T07:18:48.000Z</time>
      </trkpt>
      <trkpt lat="43.09672" lon="1.34412">
        <ele>470.60000610352</ele>
        <time>2019-07-14T07:18:49.000Z</time>
      </trkpt>
      <trkpt lat="43.09676" lon="1.34405">
        <ele>470.20001220703</ele>
        <time>2019-07-14T07:18:50.000Z</time>
      </trkpt>
      <trkpt lat="43.09679" lon="1.34398">
        <ele>469.20001220703</ele>
        <time>2019-07-14T07:18:51.000Z</time>
      </trkpt>
      <trkpt lat="43.09682" lon="1.34392">
        <ele>468.79998779297</ele>
        <time>2019-07-14T07:18:52.000Z</time>
      </trkpt>
      <trkpt lat="43.09688" lon="1.34377">
        <ele>468.79998779297</ele>
        <time>2019-07-14T07:18:54.000Z</time>
      </trkpt>
      <trkpt lat="43.09692" lon="1.34362">
        <ele>468.79998779297</ele>
        <time>2019-07-14T07:18:56.000Z</time>
      </trkpt>
      <trkpt lat="43.097" lon="1.3433">
        <ele>468.79998779297</ele>
        <time>2019-07-14T07:19:00.000Z</time>
      </trkpt>
      <trkpt lat="43.09707" lon="1.34309">
        <ele>468.79998779297</ele>
        <time>2019-07-14T07:19:03.000Z</time>
      </trkpt>
      <trkpt lat="43.09717" lon="1.34289">
        <ele>468.79998779297</ele>
        <time>2019-07-14T07:19:06.000Z</time>
      </trkpt>
      <trkpt lat="43.09728" lon="1.34268">
        <ele>468.39999389648</ele>
        <time>2019-07-14T07:19:09.000Z</time>
      </trkpt>
      <trkpt lat="43.09731" lon="1.34261">
        <ele>468</ele>
        <time>2019-07-14T07:19:10.000Z</time>
      </trkpt>
      <trkpt lat="43.09733" lon="1.34253">
        <ele>467.39999389648</ele>
        <time>2019-07-14T07:19:11.000Z</time>
      </trkpt>
      <trkpt lat="43.09736" lon="1.34244">
        <ele>467</ele>
        <time>2019-07-14T07:19:12.000Z</time>
      </trkpt>
      <trkpt lat="43.09739" lon="1.34236">
        <ele>466.60000610352</ele>
        <time>2019-07-14T07:19:13.000Z</time>
      </trkpt>
      <trkpt lat="43.09752" lon="1.34206">
        <ele>466.60000610352</ele>
        <time>2019-07-14T07:19:17.000Z</time>
      </trkpt>
      <trkpt lat="43.0976" lon="1.34189">
        <ele>466.20001220703</ele>
        <time>2019-07-14T07:19:19.000Z</time>
      </trkpt>
      <trkpt lat="43.09765" lon="1.3418">
        <ele>465.60000610352</ele>
        <time>2019-07-14T07:19:20.000Z</time>
      </trkpt>
      <trkpt lat="43.0977" lon="1.34171">
        <ele>465.20001220703</ele>
        <time>2019-07-14T07:19:21.000Z</time>
      </trkpt>
      <trkpt lat="43.09775" lon="1.34163">
        <ele>464.79998779297</ele>
        <time>2019-07-14T07:19:22.000Z</time>
      </trkpt>
      <trkpt lat="43.0978" lon="1.34154">
        <ele>464.39999389648</ele>
        <time>2019-07-14T07:19:23.000Z</time>
      </trkpt>
      <trkpt lat="43.09784" lon="1.34144">
        <ele>463.79998779297</ele>
        <time>2019-07-14T07:19:24.000Z</time>
      </trkpt>
      <trkpt lat="43.09788" lon="1.34134">
        <ele>463.20001220703</ele>
        <time>2019-07-14T07:19:25.000Z</time>
      </trkpt>
      <trkpt lat="43.09791" lon="1.34125">
        <ele>462.60000610352</ele>
        <time>2019-07-14T07:19:26.000Z</time>
      </trkpt>
      <trkpt lat="43.09794" lon="1.34115">
        <ele>462</ele>
        <time>2019-07-14T07:19:27.000Z</time>
      </trkpt>
      <trkpt lat="43.09798" lon="1.34105">
        <ele>461.39999389648</ele>
        <time>2019-07-14T07:19:28.000Z</time>
      </trkpt>
      <trkpt lat="43.09802" lon="1.34096">
        <ele>461</ele>
        <time>2019-07-14T07:19:29.000Z</time>
      </trkpt>
      <trkpt lat="43.09806" lon="1.34087">
        <ele>460.60000610352</ele>
        <time>2019-07-14T07:19:30.000Z</time>
      </trkpt>
      <trkpt lat="43.09812" lon="1.34078">
        <ele>460.20001220703</ele>
        <time>2019-07-14T07:19:31.000Z</time>
      </trkpt>
      <trkpt lat="43.09817" lon="1.34069">
        <ele>459.79998779297</ele>
        <time>2019-07-14T07:19:32.000Z</time>
      </trkpt>
      <trkpt lat="43.09824" lon="1.34062">
        <ele>459.20001220703</ele>
        <time>2019-07-14T07:19:33.000Z</time>
      </trkpt>
      <trkpt lat="43.09829" lon="1.34054">
        <ele>458.60000610352</ele>
        <time>2019-07-14T07:19:34.000Z</time>
      </trkpt>
      <trkpt lat="43.09835" lon="1.34044">
        <ele>458.20001220703</ele>
        <time>2019-07-14T07:19:35.000Z</time>
      </trkpt>
      <trkpt lat="43.0984" lon="1.34035">
        <ele>457.60000610352</ele>
        <time>2019-07-14T07:19:36.000Z</time>
      </trkpt>
      <trkpt lat="43.09845" lon="1.34025">
        <ele>457</ele>
        <time>2019-07-14T07:19:37.000Z</time>
      </trkpt>
      <trkpt lat="43.0985" lon="1.34015">
        <ele>456.39999389648</ele>
        <time>2019-07-14T07:19:38.000Z</time>
      </trkpt>
      <trkpt lat="43.09854" lon="1.34004">
        <ele>455.79998779297</ele>
        <time>2019-07-14T07:19:39.000Z</time>
      </trkpt>
      <trkpt lat="43.09858" lon="1.33994">
        <ele>455</ele>
        <time>2019-07-14T07:19:40.000Z</time>
      </trkpt>
      <trkpt lat="43.09863" lon="1.33983">
        <ele>453.39999389648</ele>
        <time>2019-07-14T07:19:41.000Z</time>
      </trkpt>
      <trkpt lat="43.09868" lon="1.33973">
        <ele>452.60000610352</ele>
        <time>2019-07-14T07:19:42.000Z</time>
      </trkpt>
      <trkpt lat="43.09874" lon="1.33963">
        <ele>451.79998779297</ele>
        <time>2019-07-14T07:19:43.000Z</time>
      </trkpt>
      <trkpt lat="43.09881" lon="1.33954">
        <ele>451.20001220703</ele>
        <time>2019-07-14T07:19:44.000Z</time>
      </trkpt>
      <trkpt lat="43.09888" lon="1.33945">
        <ele>450.39999389648</ele>
        <time>2019-07-14T07:19:45.000Z</time>
      </trkpt>
      <trkpt lat="43.09895" lon="1.33938">
        <ele>449.60000610352</ele>
        <time>2019-07-14T07:19:46.000Z</time>
      </trkpt>
      <trkpt lat="43.09903" lon="1.33934">
        <ele>449</ele>
        <time>2019-07-14T07:19:47.000Z</time>
      </trkpt>
      <trkpt lat="43.0991" lon="1.3393">
        <ele>448.20001220703</ele>
        <time>2019-07-14T07:19:48.000Z</time>
      </trkpt>
      <trkpt lat="43.09917" lon="1.33927">
        <ele>447.60000610352</ele>
        <time>2019-07-14T07:19:49.000Z</time>
      </trkpt>
      <trkpt lat="43.09924" lon="1.33925">
        <ele>447</ele>
        <time>2019-07-14T07:19:50.000Z</time>
      </trkpt>
      <trkpt lat="43.09929" lon="1.33923">
        <ele>446.39999389648</ele>
        <time>2019-07-14T07:19:51.000Z</time>
      </trkpt>
      <trkpt lat="43.09936" lon="1.3392">
        <ele>446</ele>
        <time>2019-07-14T07:19:52.000Z</time>
      </trkpt>
      <trkpt lat="43.09943" lon="1.33919">
        <ele>445.60000610352</ele>
        <time>2019-07-14T07:19:53.000Z</time>
      </trkpt>
      <trkpt lat="43.0995" lon="1.33921">
        <ele>445</ele>
        <time>2019-07-14T07:19:54.000Z</time>
      </trkpt>
      <trkpt lat="43.09957" lon="1.33923">
        <ele>444.39999389648</ele>
        <time>2019-07-14T07:19:55.000Z</time>
      </trkpt>
      <trkpt lat="43.09963" lon="1.33926">
        <ele>443.60000610352</ele>
        <time>2019-07-14T07:19:56.000Z</time>
      </trkpt>
      <trkpt lat="43.09969" lon="1.33929">
        <ele>442.79998779297</ele>
        <time>2019-07-14T07:19:57.000Z</time>
      </trkpt>
      <trkpt lat="43.09974" lon="1.33931">
        <ele>442</ele>
        <time>2019-07-14T07:19:58.000Z</time>
      </trkpt>
      <trkpt lat="43.0998" lon="1.33931">
        <ele>441</ele>
        <time>2019-07-14T07:19:59.000Z</time>
      </trkpt>
      <trkpt lat="43.09986" lon="1.33927">
        <ele>440.20001220703</ele>
        <time>2019-07-14T07:20:00.000Z</time>
      </trkpt>
      <trkpt lat="43.09992" lon="1.33921">
        <ele>439.39999389648</ele>
        <time>2019-07-14T07:20:01.000Z</time>
      </trkpt>
      <trkpt lat="43.09998" lon="1.33915">
        <ele>438.39999389648</ele>
        <time>2019-07-14T07:20:02.000Z</time>
      </trkpt>
      <trkpt lat="43.10004" lon="1.3391">
        <ele>437.60000610352</ele>
        <time>2019-07-14T07:20:03.000Z</time>
      </trkpt>
      <trkpt lat="43.10015" lon="1.33895">
        <ele>436.60000610352</ele>
        <time>2019-07-14T07:20:05.000Z</time>
      </trkpt>
      <trkpt lat="43.1002" lon="1.33887">
        <ele>435.79998779297</ele>
        <time>2019-07-14T07:20:06.000Z</time>
      </trkpt>
      <trkpt lat="43.10025" lon="1.3388">
        <ele>435</ele>
        <time>2019-07-14T07:20:07.000Z</time>
      </trkpt>
      <trkpt lat="43.1003" lon="1.33877">
        <ele>434.20001220703</ele>
        <time>2019-07-14T07:20:08.000Z</time>
      </trkpt>
      <trkpt lat="43.10036" lon="1.33879">
        <ele>433.39999389648</ele>
        <time>2019-07-14T07:20:09.000Z</time>
      </trkpt>
      <trkpt lat="43.10041" lon="1.33884">
        <ele>432.79998779297</ele>
        <time>2019-07-14T07:20:10.000Z</time>
      </trkpt>
      <trkpt lat="43.10046" lon="1.3389">
        <ele>432.79998779297</ele>
        <time>2019-07-14T07:20:11.000Z</time>
      </trkpt>
      <trkpt lat="43.10055" lon="1.33902">
        <ele>432.79998779297</ele>
        <time>2019-07-14T07:20:13.000Z</time>
      </trkpt>
      <trkpt lat="43.10073" lon="1.33921">
        <ele>432.79998779297</ele>
        <time>2019-07-14T07:20:17.000Z</time>
      </trkpt>
      <trkpt lat="43.10103" lon="1.33952">
        <ele>432.79998779297</ele>
        <time>2019-07-14T07:20:24.000Z</time>
      </trkpt>
      <trkpt lat="43.10135" lon="1.33987">
        <ele>432.79998779297</ele>
        <time>2019-07-14T07:20:31.000Z</time>
      </trkpt>
      <trkpt lat="43.10144" lon="1.33996">
        <ele>432.79998779297</ele>
        <time>2019-07-14T07:20:33.000Z</time>
      </trkpt>
      <trkpt lat="43.10181" lon="1.34037">
        <ele>432.39999389648</ele>
        <time>2019-07-14T07:20:41.000Z</time>
      </trkpt>
      <trkpt lat="43.10186" lon="1.34043">
        <ele>431.79998779297</ele>
        <time>2019-07-14T07:20:42.000Z</time>
      </trkpt>
      <trkpt lat="43.10191" lon="1.34049">
        <ele>431.39999389648</ele>
        <time>2019-07-14T07:20:43.000Z</time>
      </trkpt>
      <trkpt lat="43.10196" lon="1.34055">
        <ele>431</ele>
        <time>2019-07-14T07:20:44.000Z</time>
      </trkpt>
      <trkpt lat="43.102" lon="1.34059">
        <ele>430.60000610352</ele>
        <time>2019-07-14T07:20:45.000Z</time>
      </trkpt>
      <trkpt lat="43.10207" lon="1.34063">
        <ele>430.60000610352</ele>
        <time>2019-07-14T07:20:46.000Z</time>
      </trkpt>
      <trkpt lat="43.10212" lon="1.34066">
        <ele>430.60000610352</ele>
        <time>2019-07-14T07:20:47.000Z</time>
      </trkpt>
      <trkpt lat="43.10221" lon="1.34072">
        <ele>430.60000610352</ele>
        <time>2019-07-14T07:20:49.000Z</time>
      </trkpt>
      <trkpt lat="43.1023" lon="1.34084">
        <ele>430.60000610352</ele>
        <time>2019-07-14T07:20:51.000Z</time>
      </trkpt>
      <trkpt lat="43.10233" lon="1.3409">
        <ele>430.60000610352</ele>
        <time>2019-07-14T07:20:52.000Z</time>
      </trkpt>
      <trkpt lat="43.10239" lon="1.34105">
        <ele>430.20001220703</ele>
        <time>2019-07-14T07:20:54.000Z</time>
      </trkpt>
      <trkpt lat="43.10242" lon="1.34114">
        <ele>429.39999389648</ele>
        <time>2019-07-14T07:20:55.000Z</time>
      </trkpt>
      <trkpt lat="43.10245" lon="1.34123">
        <ele>429</ele>
        <time>2019-07-14T07:20:56.000Z</time>
      </trkpt>
      <trkpt lat="43.10249" lon="1.3413">
        <ele>428.60000610352</ele>
        <time>2019-07-14T07:20:57.000Z</time>
      </trkpt>
      <trkpt lat="43.10258" lon="1.34141">
        <ele>428.60000610352</ele>
        <time>2019-07-14T07:20:59.000Z</time>
      </trkpt>
      <trkpt lat="43.10264" lon="1.34146">
        <ele>428.60000610352</ele>
        <time>2019-07-14T07:21:00.000Z</time>
      </trkpt>
      <trkpt lat="43.10269" lon="1.34158">
        <ele>428.60000610352</ele>
        <time>2019-07-14T07:21:02.000Z</time>
      </trkpt>
      <trkpt lat="43.1027" lon="1.34163">
        <ele>428.60000610352</ele>
        <time>2019-07-14T07:21:03.000Z</time>
      </trkpt>
      <trkpt lat="43.10275" lon="1.34169">
        <ele>429</ele>
        <time>2019-07-14T07:21:05.000Z</time>
      </trkpt>
      <trkpt lat="43.10279" lon="1.34169">
        <ele>429.39999389648</ele>
        <time>2019-07-14T07:21:06.000Z</time>
      </trkpt>
      <trkpt lat="43.10282" lon="1.34171">
        <ele>429.79998779297</ele>
        <time>2019-07-14T07:21:07.000Z</time>
      </trkpt>
      <trkpt lat="43.10285" lon="1.34174">
        <ele>430.20001220703</ele>
        <time>2019-07-14T07:21:08.000Z</time>
      </trkpt>
      <trkpt lat="43.10288" lon="1.34176">
        <ele>430.79998779297</ele>
        <time>2019-07-14T07:21:09.000Z</time>
      </trkpt>
      <trkpt lat="43.10291" lon="1.34178">
        <ele>430.79998779297</ele>
        <time>2019-07-14T07:21:10.000Z</time>
      </trkpt>
      <trkpt lat="43.10297" lon="1.34181">
        <ele>430.79998779297</ele>
        <time>2019-07-14T07:21:12.000Z</time>
      </trkpt>
      <trkpt lat="43.103" lon="1.34181">
        <ele>431.20001220703</ele>
        <time>2019-07-14T07:21:13.000Z</time>
      </trkpt>
      <trkpt lat="43.10304" lon="1.34181">
        <ele>431.60000610352</ele>
        <time>2019-07-14T07:21:14.000Z</time>
      </trkpt>
      <trkpt lat="43.10307" lon="1.34181">
        <ele>432</ele>
        <time>2019-07-14T07:21:15.000Z</time>
      </trkpt>
      <trkpt lat="43.1031" lon="1.3418">
        <ele>432.39999389648</ele>
        <time>2019-07-14T07:21:16.000Z</time>
      </trkpt>
      <trkpt lat="43.10313" lon="1.3418">
        <ele>432.79998779297</ele>
        <time>2019-07-14T07:21:17.000Z</time>
      </trkpt>
      <trkpt lat="43.10328" lon="1.34176">
        <ele>433.39999389648</ele>
        <time>2019-07-14T07:21:22.000Z</time>
      </trkpt>
      <trkpt lat="43.10331" lon="1.34175">
        <ele>433.79998779297</ele>
        <time>2019-07-14T07:21:23.000Z</time>
      </trkpt>
      <trkpt lat="43.10334" lon="1.34175">
        <ele>434.20001220703</ele>
        <time>2019-07-14T07:21:24.000Z</time>
      </trkpt>
      <trkpt lat="43.10335" lon="1.34173">
        <ele>434.60000610352</ele>
        <time>2019-07-14T07:21:25.000Z</time>
      </trkpt>
      <trkpt lat="43.10337" lon="1.34173">
        <ele>435</ele>
        <time>2019-07-14T07:21:26.000Z</time>
      </trkpt>
      <trkpt lat="43.10341" lon="1.34172">
        <ele>435</ele>
        <time>2019-07-14T07:21:28.000Z</time>
      </trkpt>
      <trkpt lat="43.10343" lon="1.34171">
        <ele>435.39999389648</ele>
        <time>2019-07-14T07:21:30.000Z</time>
      </trkpt>
      <trkpt lat="43.10345" lon="1.3417">
        <ele>435.79998779297</ele>
        <time>2019-07-14T07:21:31.000Z</time>
      </trkpt>
      <trkpt lat="43.10346" lon="1.3417">
        <ele>436.20001220703</ele>
        <time>2019-07-14T07:21:32.000Z</time>
      </trkpt>
      <trkpt lat="43.10347" lon="1.3417">
        <ele>436.60000610352</ele>
        <time>2019-07-14T07:21:33.000Z</time>
      </trkpt>
      <trkpt lat="43.10349" lon="1.34169">
        <ele>437</ele>
        <time>2019-07-14T07:21:34.000Z</time>
      </trkpt>
      <trkpt lat="43.1035" lon="1.34169">
        <ele>437</ele>
        <time>2019-07-14T07:21:35.000Z</time>
      </trkpt>
      <trkpt lat="43.10357" lon="1.3417">
        <ele>437.39999389648</ele>
        <time>2019-07-14T07:21:39.000Z</time>
      </trkpt>
      <trkpt lat="43.10358" lon="1.34171">
        <ele>437.79998779297</ele>
        <time>2019-07-14T07:21:40.000Z</time>
      </trkpt>
      <trkpt lat="43.1036" lon="1.34172">
        <ele>438.20001220703</ele>
        <time>2019-07-14T07:21:41.000Z</time>
      </trkpt>
      <trkpt lat="43.10361" lon="1.34172">
        <ele>438.60000610352</ele>
        <time>2019-07-14T07:21:42.000Z</time>
      </trkpt>
      <trkpt lat="43.10362" lon="1.34173">
        <ele>439.20001220703</ele>
        <time>2019-07-14T07:21:43.000Z</time>
      </trkpt>
      <trkpt lat="43.10368" lon="1.34175">
        <ele>439.20001220703</ele>
        <time>2019-07-14T07:21:46.000Z</time>
      </trkpt>
      <trkpt lat="43.1037" lon="1.34176">
        <ele>439.60000610352</ele>
        <time>2019-07-14T07:21:47.000Z</time>
      </trkpt>
      <trkpt lat="43.10372" lon="1.34177">
        <ele>440</ele>
        <time>2019-07-14T07:21:48.000Z</time>
      </trkpt>
      <trkpt lat="43.10374" lon="1.34178">
        <ele>440.39999389648</ele>
        <time>2019-07-14T07:21:49.000Z</time>
      </trkpt>
      <trkpt lat="43.10375" lon="1.34179">
        <ele>440.79998779297</ele>
        <time>2019-07-14T07:21:50.000Z</time>
      </trkpt>
      <trkpt lat="43.10377" lon="1.3418">
        <ele>441.20001220703</ele>
        <time>2019-07-14T07:21:51.000Z</time>
      </trkpt>
      <trkpt lat="43.10379" lon="1.34181">
        <ele>441.20001220703</ele>
        <time>2019-07-14T07:21:52.000Z</time>
      </trkpt>
      <trkpt lat="43.1039" lon="1.34187">
        <ele>441.20001220703</ele>
        <time>2019-07-14T07:21:59.000Z</time>
      </trkpt>
      <trkpt lat="43.10392" lon="1.34186">
        <ele>441.20001220703</ele>
        <time>2019-07-14T07:22:00.000Z</time>
      </trkpt>
      <trkpt lat="43.10401" lon="1.34184">
        <ele>441.20001220703</ele>
        <time>2019-07-14T07:22:04.000Z</time>
      </trkpt>
      <trkpt lat="43.10416" lon="1.34177">
        <ele>440.60000610352</ele>
        <time>2019-07-14T07:22:08.000Z</time>
      </trkpt>
      <trkpt lat="43.1042" lon="1.34176">
        <ele>439.60000610352</ele>
        <time>2019-07-14T07:22:09.000Z</time>
      </trkpt>
      <trkpt lat="43.10423" lon="1.34174">
        <ele>438.79998779297</ele>
        <time>2019-07-14T07:22:10.000Z</time>
      </trkpt>
      <trkpt lat="43.10426" lon="1.34172">
        <ele>438</ele>
        <time>2019-07-14T07:22:11.000Z</time>
      </trkpt>
      <trkpt lat="43.1043" lon="1.3417">
        <ele>437.39999389648</ele>
        <time>2019-07-14T07:22:12.000Z</time>
      </trkpt>
      <trkpt lat="43.10434" lon="1.34166">
        <ele>436.39999389648</ele>
        <time>2019-07-14T07:22:13.000Z</time>
      </trkpt>
      <trkpt lat="43.10437" lon="1.34162">
        <ele>435.60000610352</ele>
        <time>2019-07-14T07:22:14.000Z</time>
      </trkpt>
      <trkpt lat="43.1044" lon="1.34157">
        <ele>434.79998779297</ele>
        <time>2019-07-14T07:22:15.000Z</time>
      </trkpt>
      <trkpt lat="43.10443" lon="1.34153">
        <ele>434</ele>
        <time>2019-07-14T07:22:16.000Z</time>
      </trkpt>
      <trkpt lat="43.10447" lon="1.34149">
        <ele>433</ele>
        <time>2019-07-14T07:22:17.000Z</time>
      </trkpt>
      <trkpt lat="43.10452" lon="1.34145">
        <ele>432</ele>
        <time>2019-07-14T07:22:18.000Z</time>
      </trkpt>
      <trkpt lat="43.10456" lon="1.3414">
        <ele>431</ele>
        <time>2019-07-14T07:22:19.000Z</time>
      </trkpt>
      <trkpt lat="43.10461" lon="1.34135">
        <ele>429.79998779297</ele>
        <time>2019-07-14T07:22:20.000Z</time>
      </trkpt>
      <trkpt lat="43.10466" lon="1.34131">
        <ele>428.60000610352</ele>
        <time>2019-07-14T07:22:21.000Z</time>
      </trkpt>
      <trkpt lat="43.10471" lon="1.34126">
        <ele>427.39999389648</ele>
        <time>2019-07-14T07:22:22.000Z</time>
      </trkpt>
      <trkpt lat="43.10475" lon="1.34122">
        <ele>426.20001220703</ele>
        <time>2019-07-14T07:22:23.000Z</time>
      </trkpt>
      <trkpt lat="43.1048" lon="1.34117">
        <ele>425</ele>
        <time>2019-07-14T07:22:24.000Z</time>
      </trkpt>
      <trkpt lat="43.10484" lon="1.34113">
        <ele>424</ele>
        <time>2019-07-14T07:22:25.000Z</time>
      </trkpt>
      <trkpt lat="43.10487" lon="1.34109">
        <ele>423.20001220703</ele>
        <time>2019-07-14T07:22:26.000Z</time>
      </trkpt>
      <trkpt lat="43.10491" lon="1.34107">
        <ele>422.20001220703</ele>
        <time>2019-07-14T07:22:27.000Z</time>
      </trkpt>
      <trkpt lat="43.10494" lon="1.34108">
        <ele>421.39999389648</ele>
        <time>2019-07-14T07:22:28.000Z</time>
      </trkpt>
      <trkpt lat="43.10496" lon="1.34112">
        <ele>420.39999389648</ele>
        <time>2019-07-14T07:22:29.000Z</time>
      </trkpt>
      <trkpt lat="43.10496" lon="1.34115">
        <ele>420</ele>
        <time>2019-07-14T07:22:30.000Z</time>
      </trkpt>
      <trkpt lat="43.10496" lon="1.34117">
        <ele>419.60000610352</ele>
        <time>2019-07-14T07:22:31.000Z</time>
      </trkpt>
      <trkpt lat="43.10495" lon="1.3412">
        <ele>419</ele>
        <time>2019-07-14T07:22:32.000Z</time>
      </trkpt>
      <trkpt lat="43.10495" lon="1.34123">
        <ele>418.60000610352</ele>
        <time>2019-07-14T07:22:33.000Z</time>
      </trkpt>
      <trkpt lat="43.10495" lon="1.34127">
        <ele>417.60000610352</ele>
        <time>2019-07-14T07:22:34.000Z</time>
      </trkpt>
      <trkpt lat="43.10495" lon="1.34132">
        <ele>417.20001220703</ele>
        <time>2019-07-14T07:22:35.000Z</time>
      </trkpt>
      <trkpt lat="43.10493" lon="1.34135">
        <ele>416.79998779297</ele>
        <time>2019-07-14T07:22:36.000Z</time>
      </trkpt>
      <trkpt lat="43.10491" lon="1.3414">
        <ele>416.39999389648</ele>
        <time>2019-07-14T07:22:37.000Z</time>
      </trkpt>
      <trkpt lat="43.10493" lon="1.34144">
        <ele>416</ele>
        <time>2019-07-14T07:22:38.000Z</time>
      </trkpt>
      <trkpt lat="43.10495" lon="1.34146">
        <ele>416</ele>
        <time>2019-07-14T07:22:39.000Z</time>
      </trkpt>
      <trkpt lat="43.10498" lon="1.34147">
        <ele>415.39999389648</ele>
        <time>2019-07-14T07:22:40.000Z</time>
      </trkpt>
      <trkpt lat="43.10501" lon="1.34146">
        <ele>415</ele>
        <time>2019-07-14T07:22:41.000Z</time>
      </trkpt>
      <trkpt lat="43.10504" lon="1.34145">
        <ele>414.39999389648</ele>
        <time>2019-07-14T07:22:42.000Z</time>
      </trkpt>
      <trkpt lat="43.10508" lon="1.34143">
        <ele>413.79998779297</ele>
        <time>2019-07-14T07:22:43.000Z</time>
      </trkpt>
      <trkpt lat="43.10512" lon="1.34138">
        <ele>413.20001220703</ele>
        <time>2019-07-14T07:22:44.000Z</time>
      </trkpt>
      <trkpt lat="43.10515" lon="1.34136">
        <ele>412.79998779297</ele>
        <time>2019-07-14T07:22:45.000Z</time>
      </trkpt>
      <trkpt lat="43.1052" lon="1.34133">
        <ele>412.20001220703</ele>
        <time>2019-07-14T07:22:46.000Z</time>
      </trkpt>
      <trkpt lat="43.10525" lon="1.34131">
        <ele>411.60000610352</ele>
        <time>2019-07-14T07:22:47.000Z</time>
      </trkpt>
      <trkpt lat="43.1053" lon="1.34129">
        <ele>411</ele>
        <time>2019-07-14T07:22:48.000Z</time>
      </trkpt>
      <trkpt lat="43.10536" lon="1.34129">
        <ele>410.39999389648</ele>
        <time>2019-07-14T07:22:49.000Z</time>
      </trkpt>
      <trkpt lat="43.10541" lon="1.3413">
        <ele>410</ele>
        <time>2019-07-14T07:22:50.000Z</time>
      </trkpt>
      <trkpt lat="43.10545" lon="1.3413">
        <ele>409.39999389648</ele>
        <time>2019-07-14T07:22:51.000Z</time>
      </trkpt>
      <trkpt lat="43.10549" lon="1.3413">
        <ele>408.79998779297</ele>
        <time>2019-07-14T07:22:52.000Z</time>
      </trkpt>
      <trkpt lat="43.10553" lon="1.34134">
        <ele>408.79998779297</ele>
        <time>2019-07-14T07:22:53.000Z</time>
      </trkpt>
      <trkpt lat="43.10557" lon="1.34138">
        <ele>408.79998779297</ele>
        <time>2019-07-14T07:22:54.000Z</time>
      </trkpt>
      <trkpt lat="43.10565" lon="1.34148">
        <ele>408.79998779297</ele>
        <time>2019-07-14T07:22:56.000Z</time>
      </trkpt>
      <trkpt lat="43.10571" lon="1.34152">
        <ele>408.39999389648</ele>
        <time>2019-07-14T07:22:57.000Z</time>
      </trkpt>
      <trkpt lat="43.10576" lon="1.34154">
        <ele>408</ele>
        <time>2019-07-14T07:22:58.000Z</time>
      </trkpt>
      <trkpt lat="43.10583" lon="1.34156">
        <ele>407</ele>
        <time>2019-07-14T07:22:59.000Z</time>
      </trkpt>
      <trkpt lat="43.10587" lon="1.34158">
        <ele>406.60000610352</ele>
        <time>2019-07-14T07:23:00.000Z</time>
      </trkpt>
      <trkpt lat="43.10595" lon="1.3416">
        <ele>406.60000610352</ele>
        <time>2019-07-14T07:23:02.000Z</time>
      </trkpt>
      <trkpt lat="43.10606" lon="1.34157">
        <ele>406.60000610352</ele>
        <time>2019-07-14T07:23:06.000Z</time>
      </trkpt>
      <trkpt lat="43.10617" lon="1.34143">
        <ele>406.60000610352</ele>
        <time>2019-07-14T07:23:12.000Z</time>
      </trkpt>
      <trkpt lat="43.10627" lon="1.34134">
        <ele>406.60000610352</ele>
        <time>2019-07-14T07:23:17.000Z</time>
      </trkpt>
      <trkpt lat="43.10631" lon="1.34126">
        <ele>406.60000610352</ele>
        <time>2019-07-14T07:23:21.000Z</time>
      </trkpt>
      <trkpt lat="43.10632" lon="1.34125">
        <ele>406.60000610352</ele>
        <time>2019-07-14T07:23:22.000Z</time>
      </trkpt>
      <trkpt lat="43.10635" lon="1.3412">
        <ele>406.60000610352</ele>
        <time>2019-07-14T07:23:26.000Z</time>
      </trkpt>
      <trkpt lat="43.10641" lon="1.3411">
        <ele>406.60000610352</ele>
        <time>2019-07-14T07:23:32.000Z</time>
      </trkpt>
      <trkpt lat="43.10645" lon="1.341">
        <ele>406.60000610352</ele>
        <time>2019-07-14T07:23:37.000Z</time>
      </trkpt>
      <trkpt lat="43.10649" lon="1.34088">
        <ele>406.60000610352</ele>
        <time>2019-07-14T07:23:41.000Z</time>
      </trkpt>
      <trkpt lat="43.10651" lon="1.34084">
        <ele>406.60000610352</ele>
        <time>2019-07-14T07:23:42.000Z</time>
      </trkpt>
      <trkpt lat="43.10658" lon="1.34067">
        <ele>406.60000610352</ele>
        <time>2019-07-14T07:23:46.000Z</time>
      </trkpt>
      <trkpt lat="43.10667" lon="1.34048">
        <ele>406.20001220703</ele>
        <time>2019-07-14T07:23:50.000Z</time>
      </trkpt>
      <trkpt lat="43.1067" lon="1.34042">
        <ele>405.79998779297</ele>
        <time>2019-07-14T07:23:51.000Z</time>
      </trkpt>
      <trkpt lat="43.10673" lon="1.34036">
        <ele>405.20001220703</ele>
        <time>2019-07-14T07:23:52.000Z</time>
      </trkpt>
      <trkpt lat="43.10676" lon="1.3403">
        <ele>404.79998779297</ele>
        <time>2019-07-14T07:23:53.000Z</time>
      </trkpt>
      <trkpt lat="43.10679" lon="1.34024">
        <ele>404.39999389648</ele>
        <time>2019-07-14T07:23:54.000Z</time>
      </trkpt>
      <trkpt lat="43.10681" lon="1.34017">
        <ele>403.79998779297</ele>
        <time>2019-07-14T07:23:55.000Z</time>
      </trkpt>
      <trkpt lat="43.10684" lon="1.3401">
        <ele>403.20001220703</ele>
        <time>2019-07-14T07:23:56.000Z</time>
      </trkpt>
      <trkpt lat="43.10687" lon="1.34004">
        <ele>402.60000610352</ele>
        <time>2019-07-14T07:23:57.000Z</time>
      </trkpt>
      <trkpt lat="43.1069" lon="1.33997">
        <ele>402</ele>
        <time>2019-07-14T07:23:58.000Z</time>
      </trkpt>
      <trkpt lat="43.10694" lon="1.3399">
        <ele>401.20001220703</ele>
        <time>2019-07-14T07:23:59.000Z</time>
      </trkpt>
      <trkpt lat="43.10697" lon="1.33984">
        <ele>400.60000610352</ele>
        <time>2019-07-14T07:24:00.000Z</time>
      </trkpt>
      <trkpt lat="43.10701" lon="1.33978">
        <ele>399.79998779297</ele>
        <time>2019-07-14T07:24:01.000Z</time>
      </trkpt>
      <trkpt lat="43.10704" lon="1.33973">
        <ele>399.20001220703</ele>
        <time>2019-07-14T07:24:02.000Z</time>
      </trkpt>
      <trkpt lat="43.10706" lon="1.3397">
        <ele>398.39999389648</ele>
        <time>2019-07-14T07:24:03.000Z</time>
      </trkpt>
      <trkpt lat="43.1071" lon="1.33968">
        <ele>397.79998779297</ele>
        <time>2019-07-14T07:24:04.000Z</time>
      </trkpt>
      <trkpt lat="43.10714" lon="1.33967">
        <ele>397</ele>
        <time>2019-07-14T07:24:05.000Z</time>
      </trkpt>
      <trkpt lat="43.10719" lon="1.33967">
        <ele>396.20001220703</ele>
        <time>2019-07-14T07:24:06.000Z</time>
      </trkpt>
      <trkpt lat="43.10724" lon="1.33968">
        <ele>395.60000610352</ele>
        <time>2019-07-14T07:24:07.000Z</time>
      </trkpt>
      <trkpt lat="43.10729" lon="1.33967">
        <ele>394.79998779297</ele>
        <time>2019-07-14T07:24:08.000Z</time>
      </trkpt>
      <trkpt lat="43.10733" lon="1.33963">
        <ele>394.20001220703</ele>
        <time>2019-07-14T07:24:09.000Z</time>
      </trkpt>
      <trkpt lat="43.10736" lon="1.33959">
        <ele>393.60000610352</ele>
        <time>2019-07-14T07:24:10.000Z</time>
      </trkpt>
      <trkpt lat="43.10739" lon="1.33955">
        <ele>392.79998779297</ele>
        <time>2019-07-14T07:24:11.000Z</time>
      </trkpt>
      <trkpt lat="43.10741" lon="1.33952">
        <ele>392.20001220703</ele>
        <time>2019-07-14T07:24:12.000Z</time>
      </trkpt>
      <trkpt lat="43.10744" lon="1.33947">
        <ele>391.39999389648</ele>
        <time>2019-07-14T07:24:13.000Z</time>
      </trkpt>
      <trkpt lat="43.10747" lon="1.33943">
        <ele>391</ele>
        <time>2019-07-14T07:24:14.000Z</time>
      </trkpt>
      <trkpt lat="43.1075" lon="1.33938">
        <ele>390.39999389648</ele>
        <time>2019-07-14T07:24:15.000Z</time>
      </trkpt>
      <trkpt lat="43.10754" lon="1.33933">
        <ele>389.79998779297</ele>
        <time>2019-07-14T07:24:16.000Z</time>
      </trkpt>
      <trkpt lat="43.10758" lon="1.33928">
        <ele>389.20001220703</ele>
        <time>2019-07-14T07:24:17.000Z</time>
      </trkpt>
      <trkpt lat="43.10762" lon="1.33923">
        <ele>388.60000610352</ele>
        <time>2019-07-14T07:24:18.000Z</time>
      </trkpt>
      <trkpt lat="43.10765" lon="1.33919">
        <ele>387.79998779297</ele>
        <time>2019-07-14T07:24:19.000Z</time>
      </trkpt>
      <trkpt lat="43.10769" lon="1.33915">
        <ele>387</ele>
        <time>2019-07-14T07:24:20.000Z</time>
      </trkpt>
      <trkpt lat="43.10773" lon="1.33911">
        <ele>386.20001220703</ele>
        <time>2019-07-14T07:24:21.000Z</time>
      </trkpt>
      <trkpt lat="43.10775" lon="1.33909">
        <ele>385.39999389648</ele>
        <time>2019-07-14T07:24:22.000Z</time>
      </trkpt>
      <trkpt lat="43.10777" lon="1.33909">
        <ele>384.60000610352</ele>
        <time>2019-07-14T07:24:23.000Z</time>
      </trkpt>
      <trkpt lat="43.10778" lon="1.33909">
        <ele>383.79998779297</ele>
        <time>2019-07-14T07:24:24.000Z</time>
      </trkpt>
      <trkpt lat="43.1078" lon="1.33909">
        <ele>383</ele>
        <time>2019-07-14T07:24:25.000Z</time>
      </trkpt>
      <trkpt lat="43.1078" lon="1.3391">
        <ele>382.20001220703</ele>
        <time>2019-07-14T07:24:26.000Z</time>
      </trkpt>
      <trkpt lat="43.10781" lon="1.33911">
        <ele>381.60000610352</ele>
        <time>2019-07-14T07:24:27.000Z</time>
      </trkpt>
      <trkpt lat="43.10782" lon="1.33913">
        <ele>381</ele>
        <time>2019-07-14T07:24:28.000Z</time>
      </trkpt>
      <trkpt lat="43.10782" lon="1.33917">
        <ele>380.39999389648</ele>
        <time>2019-07-14T07:24:29.000Z</time>
      </trkpt>
      <trkpt lat="43.10782" lon="1.3392">
        <ele>379.79998779297</ele>
        <time>2019-07-14T07:24:30.000Z</time>
      </trkpt>
      <trkpt lat="43.10782" lon="1.33925">
        <ele>379.39999389648</ele>
        <time>2019-07-14T07:24:31.000Z</time>
      </trkpt>
      <trkpt lat="43.10782" lon="1.3393">
        <ele>378.79998779297</ele>
        <time>2019-07-14T07:24:32.000Z</time>
      </trkpt>
      <trkpt lat="43.10783" lon="1.33934">
        <ele>378.20001220703</ele>
        <time>2019-07-14T07:24:33.000Z</time>
      </trkpt>
      <trkpt lat="43.10783" lon="1.33939">
        <ele>377.60000610352</ele>
        <time>2019-07-14T07:24:34.000Z</time>
      </trkpt>
      <trkpt lat="43.10783" lon="1.33943">
        <ele>376.79998779297</ele>
        <time>2019-07-14T07:24:35.000Z</time>
      </trkpt>
      <trkpt lat="43.10783" lon="1.33948">
        <ele>376.20001220703</ele>
        <time>2019-07-14T07:24:36.000Z</time>
      </trkpt>
      <trkpt lat="43.10783" lon="1.33953">
        <ele>375.60000610352</ele>
        <time>2019-07-14T07:24:37.000Z</time>
      </trkpt>
      <trkpt lat="43.10783" lon="1.33958">
        <ele>374.20001220703</ele>
        <time>2019-07-14T07:24:38.000Z</time>
      </trkpt>
      <trkpt lat="43.10782" lon="1.33963">
        <ele>373.60000610352</ele>
        <time>2019-07-14T07:24:39.000Z</time>
      </trkpt>
      <trkpt lat="43.10782" lon="1.33966">
        <ele>372.79998779297</ele>
        <time>2019-07-14T07:24:40.000Z</time>
      </trkpt>
      <trkpt lat="43.10783" lon="1.33967">
        <ele>372.20001220703</ele>
        <time>2019-07-14T07:24:41.000Z</time>
      </trkpt>
      <trkpt lat="43.10785" lon="1.33967">
        <ele>371.39999389648</ele>
        <time>2019-07-14T07:24:42.000Z</time>
      </trkpt>
      <trkpt lat="43.10787" lon="1.33965">
        <ele>370.60000610352</ele>
        <time>2019-07-14T07:24:43.000Z</time>
      </trkpt>
      <trkpt lat="43.10791" lon="1.33962">
        <ele>370</ele>
        <time>2019-07-14T07:24:44.000Z</time>
      </trkpt>
      <trkpt lat="43.10794" lon="1.33959">
        <ele>369.39999389648</ele>
        <time>2019-07-14T07:24:45.000Z</time>
      </trkpt>
      <trkpt lat="43.10798" lon="1.33956">
        <ele>368.60000610352</ele>
        <time>2019-07-14T07:24:46.000Z</time>
      </trkpt>
      <trkpt lat="43.10801" lon="1.33953">
        <ele>368</ele>
        <time>2019-07-14T07:24:47.000Z</time>
      </trkpt>
      <trkpt lat="43.10803" lon="1.3395">
        <ele>367.20001220703</ele>
        <time>2019-07-14T07:24:48.000Z</time>
      </trkpt>
      <trkpt lat="43.10806" lon="1.33948">
        <ele>366.39999389648</ele>
        <time>2019-07-14T07:24:49.000Z</time>
      </trkpt>
      <trkpt lat="43.10808" lon="1.33947">
        <ele>365.79998779297</ele>
        <time>2019-07-14T07:24:50.000Z</time>
      </trkpt>
      <trkpt lat="43.10811" lon="1.33945">
        <ele>365</ele>
        <time>2019-07-14T07:24:51.000Z</time>
      </trkpt>
      <trkpt lat="43.10814" lon="1.33942">
        <ele>364.39999389648</ele>
        <time>2019-07-14T07:24:52.000Z</time>
      </trkpt>
      <trkpt lat="43.10817" lon="1.33938">
        <ele>363.79998779297</ele>
        <time>2019-07-14T07:24:53.000Z</time>
      </trkpt>
      <trkpt lat="43.10819" lon="1.33934">
        <ele>363</ele>
        <time>2019-07-14T07:24:54.000Z</time>
      </trkpt>
      <trkpt lat="43.10822" lon="1.33929">
        <ele>362.20001220703</ele>
        <time>2019-07-14T07:24:55.000Z</time>
      </trkpt>
      <trkpt lat="43.10824" lon="1.33924">
        <ele>361.60000610352</ele>
        <time>2019-07-14T07:24:56.000Z</time>
      </trkpt>
      <trkpt lat="43.10826" lon="1.33921">
        <ele>360.79998779297</ele>
        <time>2019-07-14T07:24:57.000Z</time>
      </trkpt>
      <trkpt lat="43.10828" lon="1.33918">
        <ele>360.20001220703</ele>
        <time>2019-07-14T07:24:58.000Z</time>
      </trkpt>
      <trkpt lat="43.1083" lon="1.33914">
        <ele>359.60000610352</ele>
        <time>2019-07-14T07:24:59.000Z</time>
      </trkpt>
      <trkpt lat="43.10832" lon="1.33909">
        <ele>358.79998779297</ele>
        <time>2019-07-14T07:25:00.000Z</time>
      </trkpt>
      <trkpt lat="43.10834" lon="1.33906">
        <ele>357.60000610352</ele>
        <time>2019-07-14T07:25:01.000Z</time>
      </trkpt>
      <trkpt lat="43.10836" lon="1.33901">
        <ele>357.20001220703</ele>
        <time>2019-07-14T07:25:02.000Z</time>
      </trkpt>
      <trkpt lat="43.10838" lon="1.33896">
        <ele>356.79998779297</ele>
        <time>2019-07-14T07:25:03.000Z</time>
      </trkpt>
      <trkpt lat="43.1084" lon="1.33892">
        <ele>356.20001220703</ele>
        <time>2019-07-14T07:25:04.000Z</time>
      </trkpt>
      <trkpt lat="43.10844" lon="1.33888">
        <ele>355.79998779297</ele>
        <time>2019-07-14T07:25:05.000Z</time>
      </trkpt>
      <trkpt lat="43.10847" lon="1.33884">
        <ele>355.20001220703</ele>
        <time>2019-07-14T07:25:06.000Z</time>
      </trkpt>
      <trkpt lat="43.10851" lon="1.33881">
        <ele>354.60000610352</ele>
        <time>2019-07-14T07:25:07.000Z</time>
      </trkpt>
      <trkpt lat="43.10854" lon="1.33878">
        <ele>354</ele>
        <time>2019-07-14T07:25:08.000Z</time>
      </trkpt>
      <trkpt lat="43.10858" lon="1.33876">
        <ele>353.39999389648</ele>
        <time>2019-07-14T07:25:09.000Z</time>
      </trkpt>
      <trkpt lat="43.10861" lon="1.33873">
        <ele>352.79998779297</ele>
        <time>2019-07-14T07:25:10.000Z</time>
      </trkpt>
      <trkpt lat="43.10864" lon="1.3387">
        <ele>352</ele>
        <time>2019-07-14T07:25:11.000Z</time>
      </trkpt>
      <trkpt lat="43.10866" lon="1.33867">
        <ele>351.20001220703</ele>
        <time>2019-07-14T07:25:12.000Z</time>
      </trkpt>
      <trkpt lat="43.10868" lon="1.33863">
        <ele>350.60000610352</ele>
        <time>2019-07-14T07:25:13.000Z</time>
      </trkpt>
      <trkpt lat="43.10869" lon="1.33859">
        <ele>349.79998779297</ele>
        <time>2019-07-14T07:25:14.000Z</time>
      </trkpt>
      <trkpt lat="43.1087" lon="1.33855">
        <ele>349</ele>
        <time>2019-07-14T07:25:15.000Z</time>
      </trkpt>
      <trkpt lat="43.10871" lon="1.33852">
        <ele>348.20001220703</ele>
        <time>2019-07-14T07:25:16.000Z</time>
      </trkpt>
      <trkpt lat="43.10875" lon="1.33842">
        <ele>348.20001220703</ele>
        <time>2019-07-14T07:25:19.000Z</time>
      </trkpt>
      <trkpt lat="43.10884" lon="1.33829">
        <ele>347.79998779297</ele>
        <time>2019-07-14T07:25:23.000Z</time>
      </trkpt>
      <trkpt lat="43.10886" lon="1.33824">
        <ele>347.39999389648</ele>
        <time>2019-07-14T07:25:24.000Z</time>
      </trkpt>
      <trkpt lat="43.10889" lon="1.33819">
        <ele>347</ele>
        <time>2019-07-14T07:25:25.000Z</time>
      </trkpt>
      <trkpt lat="43.10891" lon="1.33813">
        <ele>346</ele>
        <time>2019-07-14T07:25:26.000Z</time>
      </trkpt>
      <trkpt lat="43.10895" lon="1.33805">
        <ele>346</ele>
        <time>2019-07-14T07:25:28.000Z</time>
      </trkpt>
      <trkpt lat="43.10896" lon="1.33801">
        <ele>345.60000610352</ele>
        <time>2019-07-14T07:25:29.000Z</time>
      </trkpt>
      <trkpt lat="43.10898" lon="1.33797">
        <ele>345.20001220703</ele>
        <time>2019-07-14T07:25:30.000Z</time>
      </trkpt>
      <trkpt lat="43.109" lon="1.33794">
        <ele>344.79998779297</ele>
        <time>2019-07-14T07:25:31.000Z</time>
      </trkpt>
      <trkpt lat="43.10901" lon="1.33791">
        <ele>344.39999389648</ele>
        <time>2019-07-14T07:25:32.000Z</time>
      </trkpt>
      <trkpt lat="43.10901" lon="1.3379">
        <ele>344</ele>
        <time>2019-07-14T07:25:33.000Z</time>
      </trkpt>
      <trkpt lat="43.10902" lon="1.33788">
        <ele>341.79998779297</ele>
        <time>2019-07-14T07:25:55.000Z</time>
      </trkpt>
      <trkpt lat="43.10904" lon="1.33782">
        <ele>341.79998779297</ele>
        <time>2019-07-14T07:25:57.000Z</time>
      </trkpt>
      <trkpt lat="43.10905" lon="1.33777">
        <ele>341.79998779297</ele>
        <time>2019-07-14T07:25:58.000Z</time>
      </trkpt>
      <trkpt lat="43.10906" lon="1.33765">
        <ele>341.39999389648</ele>
        <time>2019-07-14T07:26:00.000Z</time>
      </trkpt>
      <trkpt lat="43.10907" lon="1.3376">
        <ele>340.79998779297</ele>
        <time>2019-07-14T07:26:01.000Z</time>
      </trkpt>
      <trkpt lat="43.10907" lon="1.33755">
        <ele>340.39999389648</ele>
        <time>2019-07-14T07:26:02.000Z</time>
      </trkpt>
      <trkpt lat="43.10906" lon="1.3375">
        <ele>339.60000610352</ele>
        <time>2019-07-14T07:26:03.000Z</time>
      </trkpt>
      <trkpt lat="43.10905" lon="1.33744">
        <ele>338.79998779297</ele>
        <time>2019-07-14T07:26:04.000Z</time>
      </trkpt>
      <trkpt lat="43.10904" lon="1.33738">
        <ele>338</ele>
        <time>2019-07-14T07:26:05.000Z</time>
      </trkpt>
      <trkpt lat="43.10903" lon="1.33732">
        <ele>337.20001220703</ele>
        <time>2019-07-14T07:26:06.000Z</time>
      </trkpt>
      <trkpt lat="43.10904" lon="1.33726">
        <ele>336.20001220703</ele>
        <time>2019-07-14T07:26:07.000Z</time>
      </trkpt>
      <trkpt lat="43.10905" lon="1.33721">
        <ele>335.39999389648</ele>
        <time>2019-07-14T07:26:08.000Z</time>
      </trkpt>
      <trkpt lat="43.10905" lon="1.33719">
        <ele>334.39999389648</ele>
        <time>2019-07-14T07:26:09.000Z</time>
      </trkpt>
      <trkpt lat="43.10906" lon="1.33717">
        <ele>333.39999389648</ele>
        <time>2019-07-14T07:26:10.000Z</time>
      </trkpt>
      <trkpt lat="43.10907" lon="1.33716">
        <ele>332.39999389648</ele>
        <time>2019-07-14T07:26:11.000Z</time>
      </trkpt>
      <trkpt lat="43.10907" lon="1.33716">
        <ele>331.39999389648</ele>
        <time>2019-07-14T07:26:12.000Z</time>
      </trkpt>
      <trkpt lat="43.10907" lon="1.33717">
        <ele>330.60000610352</ele>
        <time>2019-07-14T07:26:13.000Z</time>
      </trkpt>
      <trkpt lat="43.10907" lon="1.33717">
        <ele>329.60000610352</ele>
        <time>2019-07-14T07:26:14.000Z</time>
      </trkpt>
      <trkpt lat="43.10908" lon="1.33718">
        <ele>327.79998779297</ele>
        <time>2019-07-14T07:26:15.000Z</time>
      </trkpt>
      <trkpt lat="43.10908" lon="1.33719">
        <ele>327.79998779297</ele>
        <time>2019-07-14T07:26:16.000Z</time>
      </trkpt>
      <trkpt lat="43.10908" lon="1.33724">
        <ele>327.79998779297</ele>
        <time>2019-07-14T07:26:24.000Z</time>
      </trkpt>
      <trkpt lat="43.10909" lon="1.33724">
        <ele>327.79998779297</ele>
        <time>2019-07-14T07:26:27.000Z</time>
      </trkpt>
      <trkpt lat="43.10911" lon="1.33725">
        <ele>327.79998779297</ele>
        <time>2019-07-14T07:26:28.000Z</time>
      </trkpt>
      <trkpt lat="43.10916" lon="1.33727">
        <ele>327.39999389648</ele>
        <time>2019-07-14T07:26:30.000Z</time>
      </trkpt>
      <trkpt lat="43.10919" lon="1.33728">
        <ele>327</ele>
        <time>2019-07-14T07:26:31.000Z</time>
      </trkpt>
      <trkpt lat="43.10922" lon="1.33729">
        <ele>326.39999389648</ele>
        <time>2019-07-14T07:26:32.000Z</time>
      </trkpt>
      <trkpt lat="43.10926" lon="1.33732">
        <ele>326</ele>
        <time>2019-07-14T07:26:33.000Z</time>
      </trkpt>
      <trkpt lat="43.1093" lon="1.33734">
        <ele>325.60000610352</ele>
        <time>2019-07-14T07:26:34.000Z</time>
      </trkpt>
      <trkpt lat="43.10934" lon="1.33738">
        <ele>325.60000610352</ele>
        <time>2019-07-14T07:26:35.000Z</time>
      </trkpt>
      <trkpt lat="43.10937" lon="1.33744">
        <ele>325.20001220703</ele>
        <time>2019-07-14T07:26:36.000Z</time>
      </trkpt>
      <trkpt lat="43.10941" lon="1.33749">
        <ele>324.79998779297</ele>
        <time>2019-07-14T07:26:37.000Z</time>
      </trkpt>
      <trkpt lat="43.10946" lon="1.33756">
        <ele>324</ele>
        <time>2019-07-14T07:26:38.000Z</time>
      </trkpt>
      <trkpt lat="43.1095" lon="1.33763">
        <ele>323.39999389648</ele>
        <time>2019-07-14T07:26:39.000Z</time>
      </trkpt>
      <trkpt lat="43.10954" lon="1.33769">
        <ele>321.60000610352</ele>
        <time>2019-07-14T07:26:40.000Z</time>
      </trkpt>
      <trkpt lat="43.10956" lon="1.33776">
        <ele>320.60000610352</ele>
        <time>2019-07-14T07:26:41.000Z</time>
      </trkpt>
      <trkpt lat="43.1096" lon="1.33781">
        <ele>319.79998779297</ele>
        <time>2019-07-14T07:26:42.000Z</time>
      </trkpt>
      <trkpt lat="43.10963" lon="1.33783">
        <ele>318.79998779297</ele>
        <time>2019-07-14T07:26:43.000Z</time>
      </trkpt>
      <trkpt lat="43.10966" lon="1.33783">
        <ele>317.79998779297</ele>
        <time>2019-07-14T07:26:44.000Z</time>
      </trkpt>
      <trkpt lat="43.10968" lon="1.33782">
        <ele>316.79998779297</ele>
        <time>2019-07-14T07:26:45.000Z</time>
      </trkpt>
      <trkpt lat="43.1097" lon="1.33778">
        <ele>316.39999389648</ele>
        <time>2019-07-14T07:26:46.000Z</time>
      </trkpt>
      <trkpt lat="43.10971" lon="1.33775">
        <ele>316</ele>
        <time>2019-07-14T07:26:47.000Z</time>
      </trkpt>
      <trkpt lat="43.10971" lon="1.33772">
        <ele>315.60000610352</ele>
        <time>2019-07-14T07:26:48.000Z</time>
      </trkpt>
      <trkpt lat="43.10973" lon="1.3377">
        <ele>314.79998779297</ele>
        <time>2019-07-14T07:26:55.000Z</time>
      </trkpt>
      <trkpt lat="43.1098" lon="1.3377">
        <ele>314.79998779297</ele>
        <time>2019-07-14T07:26:57.000Z</time>
      </trkpt>
      <trkpt lat="43.1099" lon="1.33772">
        <ele>314.79998779297</ele>
        <time>2019-07-14T07:26:59.000Z</time>
      </trkpt>
      <trkpt lat="43.10995" lon="1.33777">
        <ele>314.20001220703</ele>
        <time>2019-07-14T07:27:00.000Z</time>
      </trkpt>
      <trkpt lat="43.10999" lon="1.33784">
        <ele>313.79998779297</ele>
        <time>2019-07-14T07:27:01.000Z</time>
      </trkpt>
      <trkpt lat="43.11003" lon="1.33794">
        <ele>313</ele>
        <time>2019-07-14T07:27:02.000Z</time>
      </trkpt>
      <trkpt lat="43.11005" lon="1.33804">
        <ele>312.20001220703</ele>
        <time>2019-07-14T07:27:03.000Z</time>
      </trkpt>
      <trkpt lat="43.11006" lon="1.33816">
        <ele>309.60000610352</ele>
        <time>2019-07-14T07:27:04.000Z</time>
      </trkpt>
      <trkpt lat="43.11007" lon="1.3383">
        <ele>308.20001220703</ele>
        <time>2019-07-14T07:27:05.000Z</time>
      </trkpt>
      <trkpt lat="43.11009" lon="1.33843">
        <ele>306.79998779297</ele>
        <time>2019-07-14T07:27:06.000Z</time>
      </trkpt>
      <trkpt lat="43.11012" lon="1.33855">
        <ele>305.39999389648</ele>
        <time>2019-07-14T07:27:07.000Z</time>
      </trkpt>
      <trkpt lat="43.11015" lon="1.33867">
        <ele>304</ele>
        <time>2019-07-14T07:27:08.000Z</time>
      </trkpt>
      <trkpt lat="43.11019" lon="1.33879">
        <ele>302.60000610352</ele>
        <time>2019-07-14T07:27:09.000Z</time>
      </trkpt>
      <trkpt lat="43.11022" lon="1.33893">
        <ele>301.39999389648</ele>
        <time>2019-07-14T07:27:10.000Z</time>
      </trkpt>
      <trkpt lat="43.11025" lon="1.33906">
        <ele>299.79998779297</ele>
        <time>2019-07-14T07:27:11.000Z</time>
      </trkpt>
      <trkpt lat="43.11026" lon="1.33919">
        <ele>298.39999389648</ele>
        <time>2019-07-14T07:27:12.000Z</time>
      </trkpt>
      <trkpt lat="43.11028" lon="1.33931">
        <ele>297.20001220703</ele>
        <time>2019-07-14T07:27:13.000Z</time>
      </trkpt>
      <trkpt lat="43.11031" lon="1.33942">
        <ele>295.79998779297</ele>
        <time>2019-07-14T07:27:14.000Z</time>
      </trkpt>
      <trkpt lat="43.11037" lon="1.33951">
        <ele>294.39999389648</ele>
        <time>2019-07-14T07:27:15.000Z</time>
      </trkpt>
      <trkpt lat="43.11044" lon="1.33958">
        <ele>293.20001220703</ele>
        <time>2019-07-14T07:27:16.000Z</time>
      </trkpt>
      <trkpt lat="43.11053" lon="1.33965">
        <ele>292</ele>
        <time>2019-07-14T07:27:17.000Z</time>
      </trkpt>
      <trkpt lat="43.11063" lon="1.33971">
        <ele>290.60000610352</ele>
        <time>2019-07-14T07:27:18.000Z</time>
      </trkpt>
      <trkpt lat="43.11073" lon="1.33977">
        <ele>289.39999389648</ele>
        <time>2019-07-14T07:27:19.000Z</time>
      </trkpt>
      <trkpt lat="43.11083" lon="1.33984">
        <ele>288</ele>
        <time>2019-07-14T07:27:20.000Z</time>
      </trkpt>
      <trkpt lat="43.11093" lon="1.33991">
        <ele>286.79998779297</ele>
        <time>2019-07-14T07:27:21.000Z</time>
      </trkpt>
      <trkpt lat="43.11103" lon="1.33999">
        <ele>285.60000610352</ele>
        <time>2019-07-14T07:27:22.000Z</time>
      </trkpt>
      <trkpt lat="43.11113" lon="1.34007">
        <ele>284.39999389648</ele>
        <time>2019-07-14T07:27:23.000Z</time>
      </trkpt>
      <trkpt lat="43.11123" lon="1.34014">
        <ele>283.20001220703</ele>
        <time>2019-07-14T07:27:24.000Z</time>
      </trkpt>
      <trkpt lat="43.11132" lon="1.34022">
        <ele>282</ele>
        <time>2019-07-14T07:27:25.000Z</time>
      </trkpt>
      <trkpt lat="43.11141" lon="1.34029">
        <ele>280.60000610352</ele>
        <time>2019-07-14T07:27:26.000Z</time>
      </trkpt>
      <trkpt lat="43.11149" lon="1.34036">
        <ele>279.39999389648</ele>
        <time>2019-07-14T07:27:27.000Z</time>
      </trkpt>
      <trkpt lat="43.11157" lon="1.34042">
        <ele>278</ele>
        <time>2019-07-14T07:27:28.000Z</time>
      </trkpt>
      <trkpt lat="43.11165" lon="1.34047">
        <ele>275.20001220703</ele>
        <time>2019-07-14T07:27:29.000Z</time>
      </trkpt>
      <trkpt lat="43.11173" lon="1.34052">
        <ele>273.79998779297</ele>
        <time>2019-07-14T07:27:30.000Z</time>
      </trkpt>
      <trkpt lat="43.11183" lon="1.34057">
        <ele>272.20001220703</ele>
        <time>2019-07-14T07:27:31.000Z</time>
      </trkpt>
      <trkpt lat="43.11192" lon="1.34062">
        <ele>270.79998779297</ele>
        <time>2019-07-14T07:27:32.000Z</time>
      </trkpt>
      <trkpt lat="43.11201" lon="1.34067">
        <ele>269.39999389648</ele>
        <time>2019-07-14T07:27:33.000Z</time>
      </trkpt>
      <trkpt lat="43.11211" lon="1.34072">
        <ele>268</ele>
        <time>2019-07-14T07:27:34.000Z</time>
      </trkpt>
      <trkpt lat="43.11221" lon="1.34078">
        <ele>266.79998779297</ele>
        <time>2019-07-14T07:27:35.000Z</time>
      </trkpt>
      <trkpt lat="43.11231" lon="1.34083">
        <ele>265.39999389648</ele>
        <time>2019-07-14T07:27:36.000Z</time>
      </trkpt>
      <trkpt lat="43.11242" lon="1.34089">
        <ele>264.20001220703</ele>
        <time>2019-07-14T07:27:37.000Z</time>
      </trkpt>
      <trkpt lat="43.11252" lon="1.34094">
        <ele>262.79998779297</ele>
        <time>2019-07-14T07:27:38.000Z</time>
      </trkpt>
      <trkpt lat="43.11262" lon="1.34099">
        <ele>262.20001220703</ele>
        <time>2019-07-14T07:27:39.000Z</time>
      </trkpt>
      <trkpt lat="43.11272" lon="1.34104">
        <ele>261.39999389648</ele>
        <time>2019-07-14T07:27:40.000Z</time>
      </trkpt>
      <trkpt lat="43.11282" lon="1.3411">
        <ele>260.79998779297</ele>
        <time>2019-07-14T07:27:41.000Z</time>
      </trkpt>
      <trkpt lat="43.11292" lon="1.34114">
        <ele>260</ele>
        <time>2019-07-14T07:27:42.000Z</time>
      </trkpt>
      <trkpt lat="43.11302" lon="1.3412">
        <ele>259.39999389648</ele>
        <time>2019-07-14T07:27:43.000Z</time>
      </trkpt>
      <trkpt lat="43.11312" lon="1.34125">
        <ele>258.60000610352</ele>
        <time>2019-07-14T07:27:44.000Z</time>
      </trkpt>
      <trkpt lat="43.11322" lon="1.34131">
        <ele>257.79998779297</ele>
        <time>2019-07-14T07:27:45.000Z</time>
      </trkpt>
      <trkpt lat="43.11332" lon="1.34136">
        <ele>257</ele>
        <time>2019-07-14T07:27:46.000Z</time>
      </trkpt>
      <trkpt lat="43.11341" lon="1.34142">
        <ele>256.39999389648</ele>
        <time>2019-07-14T07:27:47.000Z</time>
      </trkpt>
      <trkpt lat="43.11351" lon="1.34149">
        <ele>255.60000610352</ele>
        <time>2019-07-14T07:27:48.000Z</time>
      </trkpt>
      <trkpt lat="43.11361" lon="1.34156">
        <ele>254.80000305176</ele>
        <time>2019-07-14T07:27:49.000Z</time>
      </trkpt>
      <trkpt lat="43.11371" lon="1.34163">
        <ele>254.19999694824</ele>
        <time>2019-07-14T07:27:50.000Z</time>
      </trkpt>
      <trkpt lat="43.1138" lon="1.3417">
        <ele>253.39999389648</ele>
        <time>2019-07-14T07:27:51.000Z</time>
      </trkpt>
      <trkpt lat="43.11388" lon="1.34177">
        <ele>252.60000610352</ele>
        <time>2019-07-14T07:27:52.000Z</time>
      </trkpt>
      <trkpt lat="43.11395" lon="1.34183">
        <ele>251</ele>
        <time>2019-07-14T07:27:53.000Z</time>
      </trkpt>
      <trkpt lat="43.11402" lon="1.34187">
        <ele>250.19999694824</ele>
        <time>2019-07-14T07:27:54.000Z</time>
      </trkpt>
      <trkpt lat="43.11407" lon="1.3419">
        <ele>249.39999389648</ele>
        <time>2019-07-14T07:27:55.000Z</time>
      </trkpt>
      <trkpt lat="43.11411" lon="1.34191">
        <ele>248.60000610352</ele>
        <time>2019-07-14T07:27:56.000Z</time>
      </trkpt>
      <trkpt lat="43.11415" lon="1.34189">
        <ele>247.60000610352</ele>
        <time>2019-07-14T07:27:57.000Z</time>
      </trkpt>
      <trkpt lat="43.11417" lon="1.34184">
        <ele>247.60000610352</ele>
        <time>2019-07-14T07:27:58.000Z</time>
      </trkpt>
      <trkpt lat="43.1142" lon="1.34173">
        <ele>247.60000610352</ele>
        <time>2019-07-14T07:28:00.000Z</time>
      </trkpt>
      <trkpt lat="43.11424" lon="1.34152">
        <ele>247.60000610352</ele>
        <time>2019-07-14T07:28:03.000Z</time>
      </trkpt>
      <trkpt lat="43.11425" lon="1.34145">
        <ele>247.19999694824</ele>
        <time>2019-07-14T07:28:04.000Z</time>
      </trkpt>
      <trkpt lat="43.11424" lon="1.34138">
        <ele>246.80000305176</ele>
        <time>2019-07-14T07:28:05.000Z</time>
      </trkpt>
      <trkpt lat="43.11423" lon="1.34131">
        <ele>246.39999389648</ele>
        <time>2019-07-14T07:28:06.000Z</time>
      </trkpt>
      <trkpt lat="43.11421" lon="1.34124">
        <ele>245.80000305176</ele>
        <time>2019-07-14T07:28:07.000Z</time>
      </trkpt>
      <trkpt lat="43.11418" lon="1.34117">
        <ele>245.39999389648</ele>
        <time>2019-07-14T07:28:08.000Z</time>
      </trkpt>
      <trkpt lat="43.11413" lon="1.34106">
        <ele>245.39999389648</ele>
        <time>2019-07-14T07:28:10.000Z</time>
      </trkpt>
      <trkpt lat="43.11407" lon="1.34094">
        <ele>245.39999389648</ele>
        <time>2019-07-14T07:28:12.000Z</time>
      </trkpt>
      <trkpt lat="43.11389" lon="1.34061">
        <ele>245.39999389648</ele>
        <time>2019-07-14T07:28:18.000Z</time>
      </trkpt>
      <trkpt lat="43.11384" lon="1.34049">
        <ele>245.39999389648</ele>
        <time>2019-07-14T07:28:20.000Z</time>
      </trkpt>
      <trkpt lat="43.11381" lon="1.34037">
        <ele>245.39999389648</ele>
        <time>2019-07-14T07:28:22.000Z</time>
      </trkpt>
      <trkpt lat="43.1138" lon="1.34018">
        <ele>245.39999389648</ele>
        <time>2019-07-14T07:28:25.000Z</time>
      </trkpt>
      <trkpt lat="43.1138" lon="1.34012">
        <ele>245.39999389648</ele>
        <time>2019-07-14T07:28:26.000Z</time>
      </trkpt>
      <trkpt lat="43.11384" lon="1.33981">
        <ele>245.39999389648</ele>
        <time>2019-07-14T07:28:31.000Z</time>
      </trkpt>
      <trkpt lat="43.1139" lon="1.33937">
        <ele>245.39999389648</ele>
        <time>2019-07-14T07:28:38.000Z</time>
      </trkpt>
      <trkpt lat="43.11393" lon="1.33912">
        <ele>245.80000305176</ele>
        <time>2019-07-14T07:28:42.000Z</time>
      </trkpt>
      <trkpt lat="43.11394" lon="1.33905">
        <ele>246.80000305176</ele>
        <time>2019-07-14T07:28:43.000Z</time>
      </trkpt>
      <trkpt lat="43.11394" lon="1.33898">
        <ele>247.19999694824</ele>
        <time>2019-07-14T07:28:44.000Z</time>
      </trkpt>
      <trkpt lat="43.11395" lon="1.33892">
        <ele>247.60000610352</ele>
        <time>2019-07-14T07:28:45.000Z</time>
      </trkpt>
      <trkpt lat="43.11397" lon="1.33879">
        <ele>247.60000610352</ele>
        <time>2019-07-14T07:28:47.000Z</time>
      </trkpt>
      <trkpt lat="43.11401" lon="1.33846">
        <ele>247.60000610352</ele>
        <time>2019-07-14T07:28:52.000Z</time>
      </trkpt>
      <trkpt lat="43.11403" lon="1.33833">
        <ele>247.60000610352</ele>
        <time>2019-07-14T07:28:54.000Z</time>
      </trkpt>
      <trkpt lat="43.11407" lon="1.33805">
        <ele>247.60000610352</ele>
        <time>2019-07-14T07:28:58.000Z</time>
      </trkpt>
      <trkpt lat="43.1141" lon="1.33785">
        <ele>247.60000610352</ele>
        <time>2019-07-14T07:29:01.000Z</time>
      </trkpt>
      <trkpt lat="43.11412" lon="1.33765">
        <ele>247.60000610352</ele>
        <time>2019-07-14T07:29:04.000Z</time>
      </trkpt>
      <trkpt lat="43.11415" lon="1.33745">
        <ele>247.60000610352</ele>
        <time>2019-07-14T07:29:07.000Z</time>
      </trkpt>
      <trkpt lat="43.11421" lon="1.33697">
        <ele>247.60000610352</ele>
        <time>2019-07-14T07:29:14.000Z</time>
      </trkpt>
      <trkpt lat="43.11426" lon="1.33654">
        <ele>247.60000610352</ele>
        <time>2019-07-14T07:29:21.000Z</time>
      </trkpt>
      <trkpt lat="43.11433" lon="1.336">
        <ele>247.60000610352</ele>
        <time>2019-07-14T07:29:30.000Z</time>
      </trkpt>
      <trkpt lat="43.11442" lon="1.33529">
        <ele>247.60000610352</ele>
        <time>2019-07-14T07:29:42.000Z</time>
      </trkpt>
      <trkpt lat="43.11443" lon="1.33524">
        <ele>248</ele>
        <time>2019-07-14T07:29:43.000Z</time>
      </trkpt>
      <trkpt lat="43.11444" lon="1.33518">
        <ele>248.39999389648</ele>
        <time>2019-07-14T07:29:44.000Z</time>
      </trkpt>
      <trkpt lat="43.11445" lon="1.33512">
        <ele>248.80000305176</ele>
        <time>2019-07-14T07:29:45.000Z</time>
      </trkpt>
      <trkpt lat="43.11446" lon="1.33507">
        <ele>249.19999694824</ele>
        <time>2019-07-14T07:29:46.000Z</time>
      </trkpt>
      <trkpt lat="43.11449" lon="1.33503">
        <ele>249.60000610352</ele>
        <time>2019-07-14T07:29:47.000Z</time>
      </trkpt>
      <trkpt lat="43.11453" lon="1.33499">
        <ele>249.60000610352</ele>
        <time>2019-07-14T07:29:48.000Z</time>
      </trkpt>
      <trkpt lat="43.11466" lon="1.33498">
        <ele>249.60000610352</ele>
        <time>2019-07-14T07:29:51.000Z</time>
      </trkpt>
      <trkpt lat="43.11485" lon="1.33508">
        <ele>249.60000610352</ele>
        <time>2019-07-14T07:29:55.000Z</time>
      </trkpt>
      <trkpt lat="43.11489" lon="1.3351">
        <ele>249.60000610352</ele>
        <time>2019-07-14T07:29:56.000Z</time>
      </trkpt>
      <trkpt lat="43.11521" lon="1.33527">
        <ele>249.60000610352</ele>
        <time>2019-07-14T07:30:03.000Z</time>
      </trkpt>
      <trkpt lat="43.11549" lon="1.3354">
        <ele>249.60000610352</ele>
        <time>2019-07-14T07:30:09.000Z</time>
      </trkpt>
      <trkpt lat="43.11581" lon="1.33557">
        <ele>249.60000610352</ele>
        <time>2019-07-14T07:30:16.000Z</time>
      </trkpt>
      <trkpt lat="43.11614" lon="1.33572">
        <ele>249.60000610352</ele>
        <time>2019-07-14T07:30:23.000Z</time>
      </trkpt>
      <trkpt lat="43.11649" lon="1.3358">
        <ele>249.60000610352</ele>
        <time>2019-07-14T07:30:30.000Z</time>
      </trkpt>
      <trkpt lat="43.11655" lon="1.33579">
        <ele>249.60000610352</ele>
        <time>2019-07-14T07:30:31.000Z</time>
      </trkpt>
      <trkpt lat="43.1168" lon="1.33574">
        <ele>249.60000610352</ele>
        <time>2019-07-14T07:30:35.000Z</time>
      </trkpt>
      <trkpt lat="43.11722" lon="1.33565">
        <ele>249.60000610352</ele>
        <time>2019-07-14T07:30:42.000Z</time>
      </trkpt>
      <trkpt lat="43.11744" lon="1.33564">
        <ele>249.60000610352</ele>
        <time>2019-07-14T07:30:46.000Z</time>
      </trkpt>
      <trkpt lat="43.11755" lon="1.33568">
        <ele>249.60000610352</ele>
        <time>2019-07-14T07:30:48.000Z</time>
      </trkpt>
      <trkpt lat="43.11769" lon="1.33575">
        <ele>249.60000610352</ele>
        <time>2019-07-14T07:30:51.000Z</time>
      </trkpt>
      <trkpt lat="43.11778" lon="1.33582">
        <ele>249.60000610352</ele>
        <time>2019-07-14T07:30:53.000Z</time>
      </trkpt>
      <trkpt lat="43.11782" lon="1.33586">
        <ele>250</ele>
        <time>2019-07-14T07:30:54.000Z</time>
      </trkpt>
      <trkpt lat="43.11786" lon="1.3359">
        <ele>250.39999389648</ele>
        <time>2019-07-14T07:30:55.000Z</time>
      </trkpt>
      <trkpt lat="43.1179" lon="1.33594">
        <ele>250.80000305176</ele>
        <time>2019-07-14T07:30:56.000Z</time>
      </trkpt>
      <trkpt lat="43.11794" lon="1.33598">
        <ele>251.39999389648</ele>
        <time>2019-07-14T07:30:57.000Z</time>
      </trkpt>
      <trkpt lat="43.11798" lon="1.33602">
        <ele>251.80000305176</ele>
        <time>2019-07-14T07:30:58.000Z</time>
      </trkpt>
      <trkpt lat="43.1181" lon="1.33615">
        <ele>251.80000305176</ele>
        <time>2019-07-14T07:31:01.000Z</time>
      </trkpt>
      <trkpt lat="43.11831" lon="1.33635">
        <ele>251.80000305176</ele>
        <time>2019-07-14T07:31:06.000Z</time>
      </trkpt>
      <trkpt lat="43.1184" lon="1.33643">
        <ele>251.80000305176</ele>
        <time>2019-07-14T07:31:08.000Z</time>
      </trkpt>
      <trkpt lat="43.11881" lon="1.3368">
        <ele>251.80000305176</ele>
        <time>2019-07-14T07:31:17.000Z</time>
      </trkpt>
      <trkpt lat="43.119" lon="1.33696">
        <ele>251.39999389648</ele>
        <time>2019-07-14T07:31:21.000Z</time>
      </trkpt>
      <trkpt lat="43.11905" lon="1.337">
        <ele>251</ele>
        <time>2019-07-14T07:31:22.000Z</time>
      </trkpt>
      <trkpt lat="43.1191" lon="1.33703">
        <ele>250.60000610352</ele>
        <time>2019-07-14T07:31:23.000Z</time>
      </trkpt>
      <trkpt lat="43.11915" lon="1.33706">
        <ele>250.19999694824</ele>
        <time>2019-07-14T07:31:24.000Z</time>
      </trkpt>
      <trkpt lat="43.11921" lon="1.33709">
        <ele>249.80000305176</ele>
        <time>2019-07-14T07:31:25.000Z</time>
      </trkpt>
      <trkpt lat="43.11942" lon="1.33713">
        <ele>249.80000305176</ele>
        <time>2019-07-14T07:31:29.000Z</time>
      </trkpt>
      <trkpt lat="43.11948" lon="1.33713">
        <ele>249.80000305176</ele>
        <time>2019-07-14T07:31:30.000Z</time>
      </trkpt>
      <trkpt lat="43.11982" lon="1.33723">
        <ele>249.80000305176</ele>
        <time>2019-07-14T07:31:36.000Z</time>
      </trkpt>
      <trkpt lat="43.11998" lon="1.33737">
        <ele>249.19999694824</ele>
        <time>2019-07-14T07:31:39.000Z</time>
      </trkpt>
      <trkpt lat="43.12003" lon="1.33743">
        <ele>248.80000305176</ele>
        <time>2019-07-14T07:31:40.000Z</time>
      </trkpt>
      <trkpt lat="43.12008" lon="1.3375">
        <ele>248.39999389648</ele>
        <time>2019-07-14T07:31:41.000Z</time>
      </trkpt>
      <trkpt lat="43.12012" lon="1.33757">
        <ele>247.80000305176</ele>
        <time>2019-07-14T07:31:42.000Z</time>
      </trkpt>
      <trkpt lat="43.12015" lon="1.33766">
        <ele>247.39999389648</ele>
        <time>2019-07-14T07:31:43.000Z</time>
      </trkpt>
      <trkpt lat="43.12018" lon="1.33775">
        <ele>247.39999389648</ele>
        <time>2019-07-14T07:31:44.000Z</time>
      </trkpt>
      <trkpt lat="43.12021" lon="1.33784">
        <ele>247</ele>
        <time>2019-07-14T07:31:45.000Z</time>
      </trkpt>
      <trkpt lat="43.12023" lon="1.33793">
        <ele>246.60000610352</ele>
        <time>2019-07-14T07:31:46.000Z</time>
      </trkpt>
      <trkpt lat="43.12027" lon="1.33802">
        <ele>246.19999694824</ele>
        <time>2019-07-14T07:31:47.000Z</time>
      </trkpt>
      <trkpt lat="43.12031" lon="1.33811">
        <ele>245.80000305176</ele>
        <time>2019-07-14T07:31:48.000Z</time>
      </trkpt>
      <trkpt lat="43.12037" lon="1.33817">
        <ele>245.19999694824</ele>
        <time>2019-07-14T07:31:49.000Z</time>
      </trkpt>
      <trkpt lat="43.12045" lon="1.33821">
        <ele>244.80000305176</ele>
        <time>2019-07-14T07:31:50.000Z</time>
      </trkpt>
      <trkpt lat="43.12053" lon="1.33824">
        <ele>244.19999694824</ele>
        <time>2019-07-14T07:31:51.000Z</time>
      </trkpt>
      <trkpt lat="43.12062" lon="1.33825">
        <ele>243.60000610352</ele>
        <time>2019-07-14T07:31:52.000Z</time>
      </trkpt>
      <trkpt lat="43.12071" lon="1.33826">
        <ele>243</ele>
        <time>2019-07-14T07:31:53.000Z</time>
      </trkpt>
      <trkpt lat="43.1208" lon="1.33825">
        <ele>242.39999389648</ele>
        <time>2019-07-14T07:31:54.000Z</time>
      </trkpt>
      <trkpt lat="43.12091" lon="1.33825">
        <ele>241.60000610352</ele>
        <time>2019-07-14T07:31:55.000Z</time>
      </trkpt>
      <trkpt lat="43.121" lon="1.33824">
        <ele>241</ele>
        <time>2019-07-14T07:31:56.000Z</time>
      </trkpt>
      <trkpt lat="43.1211" lon="1.33823">
        <ele>240.39999389648</ele>
        <time>2019-07-14T07:31:57.000Z</time>
      </trkpt>
      <trkpt lat="43.1212" lon="1.33821">
        <ele>239.80000305176</ele>
        <time>2019-07-14T07:31:58.000Z</time>
      </trkpt>
      <trkpt lat="43.1213" lon="1.33821">
        <ele>239</ele>
        <time>2019-07-14T07:31:59.000Z</time>
      </trkpt>
      <trkpt lat="43.1214" lon="1.3382">
        <ele>238.39999389648</ele>
        <time>2019-07-14T07:32:00.000Z</time>
      </trkpt>
      <trkpt lat="43.1215" lon="1.33819">
        <ele>237.19999694824</ele>
        <time>2019-07-14T07:32:01.000Z</time>
      </trkpt>
      <trkpt lat="43.1216" lon="1.33819">
        <ele>236.60000610352</ele>
        <time>2019-07-14T07:32:02.000Z</time>
      </trkpt>
      <trkpt lat="43.12171" lon="1.3382">
        <ele>236</ele>
        <time>2019-07-14T07:32:03.000Z</time>
      </trkpt>
      <trkpt lat="43.12181" lon="1.33821">
        <ele>235.19999694824</ele>
        <time>2019-07-14T07:32:04.000Z</time>
      </trkpt>
      <trkpt lat="43.1219" lon="1.33823">
        <ele>234.60000610352</ele>
        <time>2019-07-14T07:32:05.000Z</time>
      </trkpt>
      <trkpt lat="43.122" lon="1.33825">
        <ele>234</ele>
        <time>2019-07-14T07:32:06.000Z</time>
      </trkpt>
      <trkpt lat="43.12209" lon="1.33827">
        <ele>233.19999694824</ele>
        <time>2019-07-14T07:32:07.000Z</time>
      </trkpt>
      <trkpt lat="43.12235" lon="1.33832">
        <ele>233.19999694824</ele>
        <time>2019-07-14T07:32:10.000Z</time>
      </trkpt>
      <trkpt lat="43.1226" lon="1.33838">
        <ele>232.80000305176</ele>
        <time>2019-07-14T07:32:13.000Z</time>
      </trkpt>
      <trkpt lat="43.12268" lon="1.3384">
        <ele>232.39999389648</ele>
        <time>2019-07-14T07:32:14.000Z</time>
      </trkpt>
      <trkpt lat="43.12276" lon="1.33841">
        <ele>232</ele>
        <time>2019-07-14T07:32:15.000Z</time>
      </trkpt>
      <trkpt lat="43.12284" lon="1.33842">
        <ele>231.60000610352</ele>
        <time>2019-07-14T07:32:16.000Z</time>
      </trkpt>
      <trkpt lat="43.12292" lon="1.33844">
        <ele>231.19999694824</ele>
        <time>2019-07-14T07:32:17.000Z</time>
      </trkpt>
      <trkpt lat="43.12342" lon="1.33855">
        <ele>231.19999694824</ele>
        <time>2019-07-14T07:32:24.000Z</time>
      </trkpt>
      <trkpt lat="43.12395" lon="1.33867">
        <ele>231.19999694824</ele>
        <time>2019-07-14T07:32:32.000Z</time>
      </trkpt>
      <trkpt lat="43.1245" lon="1.33878">
        <ele>231.19999694824</ele>
        <time>2019-07-14T07:32:41.000Z</time>
      </trkpt>
      <trkpt lat="43.12456" lon="1.33879">
        <ele>231.19999694824</ele>
        <time>2019-07-14T07:32:42.000Z</time>
      </trkpt>
      <trkpt lat="43.12502" lon="1.33883">
        <ele>231.19999694824</ele>
        <time>2019-07-14T07:32:50.000Z</time>
      </trkpt>
      <trkpt lat="43.12536" lon="1.33877">
        <ele>231.19999694824</ele>
        <time>2019-07-14T07:32:56.000Z</time>
      </trkpt>
      <trkpt lat="43.12552" lon="1.33873">
        <ele>231.19999694824</ele>
        <time>2019-07-14T07:32:59.000Z</time>
      </trkpt>
      <trkpt lat="43.12557" lon="1.33869">
        <ele>231.19999694824</ele>
        <time>2019-07-14T07:33:00.000Z</time>
      </trkpt>
      <trkpt lat="43.12573" lon="1.33851">
        <ele>231.19999694824</ele>
        <time>2019-07-14T07:33:04.000Z</time>
      </trkpt>
      <trkpt lat="43.12576" lon="1.33848">
        <ele>231.19999694824</ele>
        <time>2019-07-14T07:33:05.000Z</time>
      </trkpt>
      <trkpt lat="43.12586" lon="1.33835">
        <ele>231.19999694824</ele>
        <time>2019-07-14T07:33:09.000Z</time>
      </trkpt>
      <trkpt lat="43.12592" lon="1.33825">
        <ele>231.19999694824</ele>
        <time>2019-07-14T07:33:11.000Z</time>
      </trkpt>
      <trkpt lat="43.12602" lon="1.33807">
        <ele>231.19999694824</ele>
        <time>2019-07-14T07:33:15.000Z</time>
      </trkpt>
      <trkpt lat="43.12618" lon="1.33775">
        <ele>231.19999694824</ele>
        <time>2019-07-14T07:33:21.000Z</time>
      </trkpt>
      <trkpt lat="43.1262" lon="1.33773">
        <ele>231.19999694824</ele>
        <time>2019-07-14T07:33:22.000Z</time>
      </trkpt>
      <trkpt lat="43.12622" lon="1.33773">
        <ele>231.19999694824</ele>
        <time>2019-07-14T07:33:23.000Z</time>
      </trkpt>
      <trkpt lat="43.12628" lon="1.33783">
        <ele>231.19999694824</ele>
        <time>2019-07-14T07:33:26.000Z</time>
      </trkpt>
      <trkpt lat="43.12631" lon="1.33787">
        <ele>231.19999694824</ele>
        <time>2019-07-14T07:33:27.000Z</time>
      </trkpt>
      <trkpt lat="43.12644" lon="1.33804">
        <ele>231.19999694824</ele>
        <time>2019-07-14T07:33:32.000Z</time>
      </trkpt>
      <trkpt lat="43.12652" lon="1.33811">
        <ele>231.19999694824</ele>
        <time>2019-07-14T07:33:34.000Z</time>
      </trkpt>
      <trkpt lat="43.12662" lon="1.33827">
        <ele>231.19999694824</ele>
        <time>2019-07-14T07:33:38.000Z</time>
      </trkpt>
      <trkpt lat="43.12668" lon="1.33831">
        <ele>231.19999694824</ele>
        <time>2019-07-14T07:33:40.000Z</time>
      </trkpt>
      <trkpt lat="43.1267" lon="1.33829">
        <ele>231.19999694824</ele>
        <time>2019-07-14T07:33:41.000Z</time>
      </trkpt>
      <trkpt lat="43.12682" lon="1.33814">
        <ele>231.19999694824</ele>
        <time>2019-07-14T07:33:45.000Z</time>
      </trkpt>
      <trkpt lat="43.12685" lon="1.3381">
        <ele>231.19999694824</ele>
        <time>2019-07-14T07:33:46.000Z</time>
      </trkpt>
      <trkpt lat="43.12703" lon="1.33789">
        <ele>231.19999694824</ele>
        <time>2019-07-14T07:33:52.000Z</time>
      </trkpt>
      <trkpt lat="43.12721" lon="1.33766">
        <ele>231.19999694824</ele>
        <time>2019-07-14T07:33:58.000Z</time>
      </trkpt>
      <trkpt lat="43.12725" lon="1.33764">
        <ele>231.19999694824</ele>
        <time>2019-07-14T07:33:59.000Z</time>
      </trkpt>
      <trkpt lat="43.12733" lon="1.33767">
        <ele>231.19999694824</ele>
        <time>2019-07-14T07:34:01.000Z</time>
      </trkpt>
      <trkpt lat="43.12739" lon="1.3377">
        <ele>231.19999694824</ele>
        <time>2019-07-14T07:34:03.000Z</time>
      </trkpt>
      <trkpt lat="43.12742" lon="1.33768">
        <ele>231.19999694824</ele>
        <time>2019-07-14T07:34:04.000Z</time>
      </trkpt>
      <trkpt lat="43.12747" lon="1.33756">
        <ele>231.19999694824</ele>
        <time>2019-07-14T07:34:08.000Z</time>
      </trkpt>
      <trkpt lat="43.12747" lon="1.33754">
        <ele>231.19999694824</ele>
        <time>2019-07-14T07:34:10.000Z</time>
      </trkpt>
      <trkpt lat="43.12745" lon="1.33752">
        <ele>231.19999694824</ele>
        <time>2019-07-14T07:34:13.000Z</time>
      </trkpt>
      <trkpt lat="43.12745" lon="1.33752">
        <ele>231.19999694824</ele>
        <time>2019-07-14T07:34:14.000Z</time>
      </trkpt>
      <trkpt lat="43.12741" lon="1.33745">
        <ele>230.39999389648</ele>
        <time>2019-07-14T07:40:28.000Z</time>
      </trkpt>
      <trkpt lat="43.12742" lon="1.33748">
        <ele>230.39999389648</ele>
        <time>2019-07-14T07:40:30.000Z</time>
      </trkpt>
      <trkpt lat="43.12746" lon="1.33749">
        <ele>230.39999389648</ele>
        <time>2019-07-14T07:40:34.000Z</time>
      </trkpt>
      <trkpt lat="43.12747" lon="1.33746">
        <ele>230.39999389648</ele>
        <time>2019-07-14T07:40:36.000Z</time>
      </trkpt>
      <trkpt lat="43.12749" lon="1.3374">
        <ele>230.39999389648</ele>
        <time>2019-07-14T07:40:38.000Z</time>
      </trkpt>
      <trkpt lat="43.12752" lon="1.33727">
        <ele>230.39999389648</ele>
        <time>2019-07-14T07:40:41.000Z</time>
      </trkpt>
      <trkpt lat="43.12757" lon="1.33712">
        <ele>230.39999389648</ele>
        <time>2019-07-14T07:40:44.000Z</time>
      </trkpt>
      <trkpt lat="43.12774" lon="1.3368">
        <ele>230.39999389648</ele>
        <time>2019-07-14T07:40:51.000Z</time>
      </trkpt>
      <trkpt lat="43.1279" lon="1.33652">
        <ele>230.39999389648</ele>
        <time>2019-07-14T07:40:57.000Z</time>
      </trkpt>
      <trkpt lat="43.12793" lon="1.33649">
        <ele>229.80000305176</ele>
        <time>2019-07-14T07:40:58.000Z</time>
      </trkpt>
      <trkpt lat="43.12796" lon="1.33647">
        <ele>229.39999389648</ele>
        <time>2019-07-14T07:40:59.000Z</time>
      </trkpt>
      <trkpt lat="43.12798" lon="1.33643">
        <ele>229</ele>
        <time>2019-07-14T07:41:00.000Z</time>
      </trkpt>
      <trkpt lat="43.128" lon="1.33639">
        <ele>229.19999694824</ele>
        <time>2019-07-14T07:41:01.000Z</time>
      </trkpt>
      <trkpt lat="43.12802" lon="1.33635">
        <ele>229.39999389648</ele>
        <time>2019-07-14T07:41:02.000Z</time>
      </trkpt>
      <trkpt lat="43.12804" lon="1.3363">
        <ele>229.80000305176</ele>
        <time>2019-07-14T07:41:03.000Z</time>
      </trkpt>
      <trkpt lat="43.12806" lon="1.33626">
        <ele>230</ele>
        <time>2019-07-14T07:41:04.000Z</time>
      </trkpt>
      <trkpt lat="43.12809" lon="1.33621">
        <ele>230.19999694824</ele>
        <time>2019-07-14T07:41:05.000Z</time>
      </trkpt>
      <trkpt lat="43.12812" lon="1.33617">
        <ele>230.19999694824</ele>
        <time>2019-07-14T07:41:06.000Z</time>
      </trkpt>
      <trkpt lat="43.12814" lon="1.33612">
        <ele>229.80000305176</ele>
        <time>2019-07-14T07:41:07.000Z</time>
      </trkpt>
      <trkpt lat="43.12816" lon="1.33607">
        <ele>229.19999694824</ele>
        <time>2019-07-14T07:41:08.000Z</time>
      </trkpt>
      <trkpt lat="43.12818" lon="1.33602">
        <ele>228.80000305176</ele>
        <time>2019-07-14T07:41:09.000Z</time>
      </trkpt>
      <trkpt lat="43.12821" lon="1.33597">
        <ele>228.19999694824</ele>
        <time>2019-07-14T07:41:10.000Z</time>
      </trkpt>
      <trkpt lat="43.12823" lon="1.33591">
        <ele>227.80000305176</ele>
        <time>2019-07-14T07:41:11.000Z</time>
      </trkpt>
      <trkpt lat="43.12832" lon="1.33573">
        <ele>227.80000305176</ele>
        <time>2019-07-14T07:41:15.000Z</time>
      </trkpt>
      <trkpt lat="43.12835" lon="1.33567">
        <ele>227.80000305176</ele>
        <time>2019-07-14T07:41:16.000Z</time>
      </trkpt>
      <trkpt lat="43.12842" lon="1.33547">
        <ele>227.80000305176</ele>
        <time>2019-07-14T07:41:19.000Z</time>
      </trkpt>
      <trkpt lat="43.12834" lon="1.3353">
        <ele>227.80000305176</ele>
        <time>2019-07-14T07:41:22.000Z</time>
      </trkpt>
      <trkpt lat="43.12823" lon="1.33525">
        <ele>227.80000305176</ele>
        <time>2019-07-14T07:41:24.000Z</time>
      </trkpt>
      <trkpt lat="43.12817" lon="1.33523">
        <ele>228.19999694824</ele>
        <time>2019-07-14T07:41:25.000Z</time>
      </trkpt>
      <trkpt lat="43.1281" lon="1.3352">
        <ele>228.60000610352</ele>
        <time>2019-07-14T07:41:26.000Z</time>
      </trkpt>
      <trkpt lat="43.12804" lon="1.33516">
        <ele>229</ele>
        <time>2019-07-14T07:41:27.000Z</time>
      </trkpt>
      <trkpt lat="43.12798" lon="1.33512">
        <ele>229.39999389648</ele>
        <time>2019-07-14T07:41:28.000Z</time>
      </trkpt>
      <trkpt lat="43.12793" lon="1.33509">
        <ele>229.80000305176</ele>
        <time>2019-07-14T07:41:29.000Z</time>
      </trkpt>
      <trkpt lat="43.12775" lon="1.33497">
        <ele>229.80000305176</ele>
        <time>2019-07-14T07:41:32.000Z</time>
      </trkpt>
      <trkpt lat="43.12739" lon="1.3347">
        <ele>229.80000305176</ele>
        <time>2019-07-14T07:41:39.000Z</time>
      </trkpt>
      <trkpt lat="43.12711" lon="1.33443">
        <ele>229.80000305176</ele>
        <time>2019-07-14T07:41:45.000Z</time>
      </trkpt>
      <trkpt lat="43.12693" lon="1.33411">
        <ele>229.80000305176</ele>
        <time>2019-07-14T07:41:50.000Z</time>
      </trkpt>
      <trkpt lat="43.12691" lon="1.33404">
        <ele>229.80000305176</ele>
        <time>2019-07-14T07:41:51.000Z</time>
      </trkpt>
      <trkpt lat="43.12692" lon="1.33378">
        <ele>229.80000305176</ele>
        <time>2019-07-14T07:41:54.000Z</time>
      </trkpt>
      <trkpt lat="43.12693" lon="1.3337">
        <ele>229.80000305176</ele>
        <time>2019-07-14T07:41:55.000Z</time>
      </trkpt>
      <trkpt lat="43.12693" lon="1.33362">
        <ele>229.80000305176</ele>
        <time>2019-07-14T07:41:56.000Z</time>
      </trkpt>
      <trkpt lat="43.12693" lon="1.33337">
        <ele>229.80000305176</ele>
        <time>2019-07-14T07:41:59.000Z</time>
      </trkpt>
      <trkpt lat="43.12691" lon="1.33329">
        <ele>229.80000305176</ele>
        <time>2019-07-14T07:42:00.000Z</time>
      </trkpt>
      <trkpt lat="43.12681" lon="1.33291">
        <ele>229.80000305176</ele>
        <time>2019-07-14T07:42:05.000Z</time>
      </trkpt>
      <trkpt lat="43.12668" lon="1.33253">
        <ele>229.80000305176</ele>
        <time>2019-07-14T07:42:11.000Z</time>
      </trkpt>
      <trkpt lat="43.12662" lon="1.33209">
        <ele>229.80000305176</ele>
        <time>2019-07-14T07:42:18.000Z</time>
      </trkpt>
      <trkpt lat="43.12663" lon="1.33203">
        <ele>229.80000305176</ele>
        <time>2019-07-14T07:42:19.000Z</time>
      </trkpt>
      <trkpt lat="43.12665" lon="1.33181">
        <ele>230.19999694824</ele>
        <time>2019-07-14T07:42:23.000Z</time>
      </trkpt>
      <trkpt lat="43.12666" lon="1.33176">
        <ele>230.60000610352</ele>
        <time>2019-07-14T07:42:24.000Z</time>
      </trkpt>
      <trkpt lat="43.12667" lon="1.3317">
        <ele>231</ele>
        <time>2019-07-14T07:42:25.000Z</time>
      </trkpt>
      <trkpt lat="43.12668" lon="1.33165">
        <ele>231.60000610352</ele>
        <time>2019-07-14T07:42:26.000Z</time>
      </trkpt>
      <trkpt lat="43.12669" lon="1.3316">
        <ele>232</ele>
        <time>2019-07-14T07:42:27.000Z</time>
      </trkpt>
      <trkpt lat="43.1267" lon="1.33151">
        <ele>232</ele>
        <time>2019-07-14T07:42:29.000Z</time>
      </trkpt>
      <trkpt lat="43.12671" lon="1.33143">
        <ele>232.39999389648</ele>
        <time>2019-07-14T07:42:31.000Z</time>
      </trkpt>
      <trkpt lat="43.1267" lon="1.3314">
        <ele>232.80000305176</ele>
        <time>2019-07-14T07:42:32.000Z</time>
      </trkpt>
      <trkpt lat="43.1267" lon="1.33136">
        <ele>233.19999694824</ele>
        <time>2019-07-14T07:42:33.000Z</time>
      </trkpt>
      <trkpt lat="43.12671" lon="1.33133">
        <ele>233.60000610352</ele>
        <time>2019-07-14T07:42:34.000Z</time>
      </trkpt>
      <trkpt lat="43.12672" lon="1.33131">
        <ele>234</ele>
        <time>2019-07-14T07:42:35.000Z</time>
      </trkpt>
      <trkpt lat="43.12674" lon="1.33126">
        <ele>234</ele>
        <time>2019-07-14T07:42:37.000Z</time>
      </trkpt>
      <trkpt lat="43.12676" lon="1.33123">
        <ele>234.39999389648</ele>
        <time>2019-07-14T07:42:38.000Z</time>
      </trkpt>
      <trkpt lat="43.12677" lon="1.33121">
        <ele>234.80000305176</ele>
        <time>2019-07-14T07:42:39.000Z</time>
      </trkpt>
      <trkpt lat="43.12678" lon="1.33118">
        <ele>235.19999694824</ele>
        <time>2019-07-14T07:42:40.000Z</time>
      </trkpt>
      <trkpt lat="43.12679" lon="1.33114">
        <ele>235.60000610352</ele>
        <time>2019-07-14T07:42:41.000Z</time>
      </trkpt>
      <trkpt lat="43.1268" lon="1.33112">
        <ele>236</ele>
        <time>2019-07-14T07:42:42.000Z</time>
      </trkpt>
      <trkpt lat="43.12682" lon="1.33102">
        <ele>236.39999389648</ele>
        <time>2019-07-14T07:42:45.000Z</time>
      </trkpt>
      <trkpt lat="43.12682" lon="1.33099">
        <ele>237.19999694824</ele>
        <time>2019-07-14T07:42:46.000Z</time>
      </trkpt>
      <trkpt lat="43.12682" lon="1.33096">
        <ele>237.60000610352</ele>
        <time>2019-07-14T07:42:47.000Z</time>
      </trkpt>
      <trkpt lat="43.12683" lon="1.33094">
        <ele>238</ele>
        <time>2019-07-14T07:42:48.000Z</time>
      </trkpt>
      <trkpt lat="43.12685" lon="1.33089">
        <ele>238</ele>
        <time>2019-07-14T07:42:50.000Z</time>
      </trkpt>
      <trkpt lat="43.12687" lon="1.33084">
        <ele>238.39999389648</ele>
        <time>2019-07-14T07:42:53.000Z</time>
      </trkpt>
      <trkpt lat="43.12688" lon="1.3308">
        <ele>238.80000305176</ele>
        <time>2019-07-14T07:42:54.000Z</time>
      </trkpt>
      <trkpt lat="43.12687" lon="1.33076">
        <ele>239.19999694824</ele>
        <time>2019-07-14T07:42:55.000Z</time>
      </trkpt>
      <trkpt lat="43.12688" lon="1.33073">
        <ele>239.60000610352</ele>
        <time>2019-07-14T07:42:56.000Z</time>
      </trkpt>
      <trkpt lat="43.12688" lon="1.3307">
        <ele>240</ele>
        <time>2019-07-14T07:42:57.000Z</time>
      </trkpt>
      <trkpt lat="43.12688" lon="1.33067">
        <ele>240</ele>
        <time>2019-07-14T07:42:58.000Z</time>
      </trkpt>
      <trkpt lat="43.1269" lon="1.33055">
        <ele>240.39999389648</ele>
        <time>2019-07-14T07:43:02.000Z</time>
      </trkpt>
      <trkpt lat="43.12691" lon="1.33052">
        <ele>240.80000305176</ele>
        <time>2019-07-14T07:43:03.000Z</time>
      </trkpt>
      <trkpt lat="43.12691" lon="1.33049">
        <ele>241.19999694824</ele>
        <time>2019-07-14T07:43:04.000Z</time>
      </trkpt>
      <trkpt lat="43.12692" lon="1.33046">
        <ele>241.60000610352</ele>
        <time>2019-07-14T07:43:05.000Z</time>
      </trkpt>
      <trkpt lat="43.12692" lon="1.33043">
        <ele>242</ele>
        <time>2019-07-14T07:43:06.000Z</time>
      </trkpt>
      <trkpt lat="43.12693" lon="1.33033">
        <ele>242</ele>
        <time>2019-07-14T07:43:09.000Z</time>
      </trkpt>
      <trkpt lat="43.12694" lon="1.33015">
        <ele>242</ele>
        <time>2019-07-14T07:43:14.000Z</time>
      </trkpt>
      <trkpt lat="43.12695" lon="1.33">
        <ele>242.39999389648</ele>
        <time>2019-07-14T07:43:17.000Z</time>
      </trkpt>
      <trkpt lat="43.12695" lon="1.32996">
        <ele>242.80000305176</ele>
        <time>2019-07-14T07:43:18.000Z</time>
      </trkpt>
      <trkpt lat="43.12694" lon="1.32992">
        <ele>243.39999389648</ele>
        <time>2019-07-14T07:43:19.000Z</time>
      </trkpt>
      <trkpt lat="43.12694" lon="1.32988">
        <ele>243.80000305176</ele>
        <time>2019-07-14T07:43:20.000Z</time>
      </trkpt>
      <trkpt lat="43.12691" lon="1.32965">
        <ele>281.39999389648</ele>
        <time>2020-10-12T15:15:41.000Z</time>
      </trkpt>
      <trkpt lat="43.12692" lon="1.32962">
        <ele>281</ele>
        <time>2020-10-12T15:15:42.000Z</time>
      </trkpt>
      <trkpt lat="43.12691" lon="1.32958">
        <ele>280.60000610352</ele>
        <time>2020-10-12T15:15:43.000Z</time>
      </trkpt>
      <trkpt lat="43.12689" lon="1.32954">
        <ele>280.20001220703</ele>
        <time>2020-10-12T15:15:44.000Z</time>
      </trkpt>
      <trkpt lat="43.12684" lon="1.32923">
        <ele>280.20001220703</ele>
        <time>2020-10-12T15:15:50.000Z</time>
      </trkpt>
      <trkpt lat="43.12684" lon="1.32886">
        <ele>280.20001220703</ele>
        <time>2020-10-12T15:15:56.000Z</time>
      </trkpt>
      <trkpt lat="43.12686" lon="1.32874">
        <ele>280.20001220703</ele>
        <time>2020-10-12T15:15:58.000Z</time>
      </trkpt>
      <trkpt lat="43.12692" lon="1.32857">
        <ele>280.20001220703</ele>
        <time>2020-10-12T15:16:01.000Z</time>
      </trkpt>
      <trkpt lat="43.12709" lon="1.3282">
        <ele>280.20001220703</ele>
        <time>2020-10-12T15:16:08.000Z</time>
      </trkpt>
      <trkpt lat="43.1273" lon="1.32783">
        <ele>280.20001220703</ele>
        <time>2020-10-12T15:16:16.000Z</time>
      </trkpt>
      <trkpt lat="43.1274" lon="1.32742">
        <ele>280.20001220703</ele>
        <time>2020-10-12T15:16:22.000Z</time>
      </trkpt>
      <trkpt lat="43.12742" lon="1.32734">
        <ele>280.20001220703</ele>
        <time>2020-10-12T15:16:23.000Z</time>
      </trkpt>
      <trkpt lat="43.12744" lon="1.32725">
        <ele>279.79998779297</ele>
        <time>2020-10-12T15:16:24.000Z</time>
      </trkpt>
      <trkpt lat="43.12746" lon="1.32716">
        <ele>279.20001220703</ele>
        <time>2020-10-12T15:16:25.000Z</time>
      </trkpt>
      <trkpt lat="43.12749" lon="1.32706">
        <ele>278.20001220703</ele>
        <time>2020-10-12T15:16:26.000Z</time>
      </trkpt>
      <trkpt lat="43.12752" lon="1.32696">
        <ele>277.60000610352</ele>
        <time>2020-10-12T15:16:27.000Z</time>
      </trkpt>
      <trkpt lat="43.12756" lon="1.32685">
        <ele>276.79998779297</ele>
        <time>2020-10-12T15:16:28.000Z</time>
      </trkpt>
      <trkpt lat="43.12759" lon="1.32674">
        <ele>276.20001220703</ele>
        <time>2020-10-12T15:16:29.000Z</time>
      </trkpt>
      <trkpt lat="43.12764" lon="1.32663">
        <ele>275.39999389648</ele>
        <time>2020-10-12T15:16:30.000Z</time>
      </trkpt>
      <trkpt lat="43.12768" lon="1.32652">
        <ele>274.60000610352</ele>
        <time>2020-10-12T15:16:31.000Z</time>
      </trkpt>
      <trkpt lat="43.12773" lon="1.32641">
        <ele>273.79998779297</ele>
        <time>2020-10-12T15:16:32.000Z</time>
      </trkpt>
      <trkpt lat="43.12778" lon="1.3263">
        <ele>273</ele>
        <time>2020-10-12T15:16:33.000Z</time>
      </trkpt>
      <trkpt lat="43.12782" lon="1.3262">
        <ele>272.39999389648</ele>
        <time>2020-10-12T15:16:34.000Z</time>
      </trkpt>
      <trkpt lat="43.12786" lon="1.32609">
        <ele>271.79998779297</ele>
        <time>2020-10-12T15:16:35.000Z</time>
      </trkpt>
      <trkpt lat="43.1279" lon="1.32599">
        <ele>271</ele>
        <time>2020-10-12T15:16:36.000Z</time>
      </trkpt>
      <trkpt lat="43.12793" lon="1.3259">
        <ele>270.20001220703</ele>
        <time>2020-10-12T15:16:37.000Z</time>
      </trkpt>
      <trkpt lat="43.12797" lon="1.3258">
        <ele>269.39999389648</ele>
        <time>2020-10-12T15:16:38.000Z</time>
      </trkpt>
      <trkpt lat="43.128" lon="1.32571">
        <ele>268.60000610352</ele>
        <time>2020-10-12T15:16:39.000Z</time>
      </trkpt>
      <trkpt lat="43.12803" lon="1.32563">
        <ele>267.79998779297</ele>
        <time>2020-10-12T15:16:40.000Z</time>
      </trkpt>
      <trkpt lat="43.12806" lon="1.32554">
        <ele>267.79998779297</ele>
        <time>2020-10-12T15:16:41.000Z</time>
      </trkpt>
      <trkpt lat="43.12808" lon="1.32546">
        <ele>267.79998779297</ele>
        <time>2020-10-12T15:16:42.000Z</time>
      </trkpt>
      <trkpt lat="43.12822" lon="1.32498">
        <ele>267.79998779297</ele>
        <time>2020-10-12T15:16:48.000Z</time>
      </trkpt>
      <trkpt lat="43.12838" lon="1.32448">
        <ele>267.79998779297</ele>
        <time>2020-10-12T15:16:55.000Z</time>
      </trkpt>
      <trkpt lat="43.12851" lon="1.32405">
        <ele>267.79998779297</ele>
        <time>2020-10-12T15:17:01.000Z</time>
      </trkpt>
      <trkpt lat="43.12865" lon="1.32356">
        <ele>267.39999389648</ele>
        <time>2020-10-12T15:17:08.000Z</time>
      </trkpt>
      <trkpt lat="43.12868" lon="1.32349">
        <ele>266.79998779297</ele>
        <time>2020-10-12T15:17:09.000Z</time>
      </trkpt>
      <trkpt lat="43.1287" lon="1.32342">
        <ele>266.39999389648</ele>
        <time>2020-10-12T15:17:10.000Z</time>
      </trkpt>
      <trkpt lat="43.12872" lon="1.32335">
        <ele>266</ele>
        <time>2020-10-12T15:17:11.000Z</time>
      </trkpt>
      <trkpt lat="43.12874" lon="1.32328">
        <ele>265.60000610352</ele>
        <time>2020-10-12T15:17:12.000Z</time>
      </trkpt>
      <trkpt lat="43.12884" lon="1.32293">
        <ele>265.60000610352</ele>
        <time>2020-10-12T15:17:17.000Z</time>
      </trkpt>
      <trkpt lat="43.12901" lon="1.32242">
        <ele>265.60000610352</ele>
        <time>2020-10-12T15:17:24.000Z</time>
      </trkpt>
      <trkpt lat="43.12912" lon="1.32197">
        <ele>265.60000610352</ele>
        <time>2020-10-12T15:17:30.000Z</time>
      </trkpt>
      <trkpt lat="43.12929" lon="1.32139">
        <ele>265.60000610352</ele>
        <time>2020-10-12T15:17:38.000Z</time>
      </trkpt>
      <trkpt lat="43.12947" lon="1.32081">
        <ele>265.60000610352</ele>
        <time>2020-10-12T15:17:46.000Z</time>
      </trkpt>
      <trkpt lat="43.1296" lon="1.32039">
        <ele>265.60000610352</ele>
        <time>2020-10-12T15:17:52.000Z</time>
      </trkpt>
      <trkpt lat="43.12972" lon="1.31996">
        <ele>265.60000610352</ele>
        <time>2020-10-12T15:17:58.000Z</time>
      </trkpt>
      <trkpt lat="43.12974" lon="1.31989">
        <ele>265.20001220703</ele>
        <time>2020-10-12T15:17:59.000Z</time>
      </trkpt>
      <trkpt lat="43.12975" lon="1.31984">
        <ele>264.79998779297</ele>
        <time>2020-10-12T15:18:00.000Z</time>
      </trkpt>
      <trkpt lat="43.12976" lon="1.31981">
        <ele>264.20001220703</ele>
        <time>2020-10-12T15:18:01.000Z</time>
      </trkpt>
      <trkpt lat="43.12978" lon="1.31978">
        <ele>263.79998779297</ele>
        <time>2020-10-12T15:18:02.000Z</time>
      </trkpt>
      <trkpt lat="43.1298" lon="1.31975">
        <ele>263.39999389648</ele>
        <time>2020-10-12T15:18:03.000Z</time>
      </trkpt>
      <trkpt lat="43.12983" lon="1.31965">
        <ele>263.39999389648</ele>
        <time>2020-10-12T15:18:06.000Z</time>
      </trkpt>
      <trkpt lat="43.12987" lon="1.31947">
        <ele>263.39999389648</ele>
        <time>2020-10-12T15:18:11.000Z</time>
      </trkpt>
      <trkpt lat="43.12996" lon="1.3192">
        <ele>263.39999389648</ele>
        <time>2020-10-12T15:18:16.000Z</time>
      </trkpt>
      <trkpt lat="43.13004" lon="1.31892">
        <ele>263.39999389648</ele>
        <time>2020-10-12T15:18:20.000Z</time>
      </trkpt>
      <trkpt lat="43.13008" lon="1.31878">
        <ele>263.39999389648</ele>
        <time>2020-10-12T15:18:22.000Z</time>
      </trkpt>
      <trkpt lat="43.1302" lon="1.31836">
        <ele>263.39999389648</ele>
        <time>2020-10-12T15:18:29.000Z</time>
      </trkpt>
      <trkpt lat="43.13033" lon="1.31791">
        <ele>263.79998779297</ele>
        <time>2020-10-12T15:18:37.000Z</time>
      </trkpt>
      <trkpt lat="43.13035" lon="1.31786">
        <ele>264.20001220703</ele>
        <time>2020-10-12T15:18:38.000Z</time>
      </trkpt>
      <trkpt lat="43.13037" lon="1.3178">
        <ele>264.60000610352</ele>
        <time>2020-10-12T15:18:39.000Z</time>
      </trkpt>
      <trkpt lat="43.13038" lon="1.31775">
        <ele>265</ele>
        <time>2020-10-12T15:18:40.000Z</time>
      </trkpt>
      <trkpt lat="43.1304" lon="1.31769">
        <ele>265.39999389648</ele>
        <time>2020-10-12T15:18:41.000Z</time>
      </trkpt>
      <trkpt lat="43.13049" lon="1.31736">
        <ele>265.39999389648</ele>
        <time>2020-10-12T15:18:47.000Z</time>
      </trkpt>
      <trkpt lat="43.13055" lon="1.31719">
        <ele>265.39999389648</ele>
        <time>2020-10-12T15:18:50.000Z</time>
      </trkpt>
      <trkpt lat="43.13059" lon="1.31701">
        <ele>265.39999389648</ele>
        <time>2020-10-12T15:18:53.000Z</time>
      </trkpt>
      <trkpt lat="43.13061" lon="1.3166">
        <ele>265.39999389648</ele>
        <time>2020-10-12T15:19:00.000Z</time>
      </trkpt>
      <trkpt lat="43.13061" lon="1.31654">
        <ele>265.39999389648</ele>
        <time>2020-10-12T15:19:01.000Z</time>
      </trkpt>
      <trkpt lat="43.13065" lon="1.31631">
        <ele>265.39999389648</ele>
        <time>2020-10-12T15:19:06.000Z</time>
      </trkpt>
      <trkpt lat="43.13067" lon="1.31622">
        <ele>266</ele>
        <time>2020-10-12T15:19:09.000Z</time>
      </trkpt>
      <trkpt lat="43.13068" lon="1.31619">
        <ele>266.39999389648</ele>
        <time>2020-10-12T15:19:10.000Z</time>
      </trkpt>
      <trkpt lat="43.13068" lon="1.31616">
        <ele>267</ele>
        <time>2020-10-12T15:19:11.000Z</time>
      </trkpt>
      <trkpt lat="43.13067" lon="1.31613">
        <ele>267.39999389648</ele>
        <time>2020-10-12T15:19:12.000Z</time>
      </trkpt>
      <trkpt lat="43.13067" lon="1.31609">
        <ele>268</ele>
        <time>2020-10-12T15:19:13.000Z</time>
      </trkpt>
      <trkpt lat="43.13067" lon="1.31606">
        <ele>268.60000610352</ele>
        <time>2020-10-12T15:19:14.000Z</time>
      </trkpt>
      <trkpt lat="43.13066" lon="1.31602">
        <ele>269.20001220703</ele>
        <time>2020-10-12T15:19:15.000Z</time>
      </trkpt>
      <trkpt lat="43.13066" lon="1.31599">
        <ele>269.60000610352</ele>
        <time>2020-10-12T15:19:16.000Z</time>
      </trkpt>
      <trkpt lat="43.13066" lon="1.31595">
        <ele>270.20001220703</ele>
        <time>2020-10-12T15:19:17.000Z</time>
      </trkpt>
      <trkpt lat="43.13066" lon="1.31592">
        <ele>270.79998779297</ele>
        <time>2020-10-12T15:19:18.000Z</time>
      </trkpt>
      <trkpt lat="43.13066" lon="1.31589">
        <ele>271.79998779297</ele>
        <time>2020-10-12T15:19:19.000Z</time>
      </trkpt>
      <trkpt lat="43.13067" lon="1.31585">
        <ele>272.20001220703</ele>
        <time>2020-10-12T15:19:20.000Z</time>
      </trkpt>
      <trkpt lat="43.13067" lon="1.31582">
        <ele>272.79998779297</ele>
        <time>2020-10-12T15:19:21.000Z</time>
      </trkpt>
      <trkpt lat="43.13067" lon="1.31579">
        <ele>273.39999389648</ele>
        <time>2020-10-12T15:19:22.000Z</time>
      </trkpt>
      <trkpt lat="43.13068" lon="1.31576">
        <ele>274</ele>
        <time>2020-10-12T15:19:23.000Z</time>
      </trkpt>
      <trkpt lat="43.13068" lon="1.31573">
        <ele>274.60000610352</ele>
        <time>2020-10-12T15:19:24.000Z</time>
      </trkpt>
      <trkpt lat="43.13068" lon="1.31569">
        <ele>275.20001220703</ele>
        <time>2020-10-12T15:19:25.000Z</time>
      </trkpt>
      <trkpt lat="43.13069" lon="1.31566">
        <ele>275.79998779297</ele>
        <time>2020-10-12T15:19:26.000Z</time>
      </trkpt>
      <trkpt lat="43.13069" lon="1.31563">
        <ele>276.39999389648</ele>
        <time>2020-10-12T15:19:27.000Z</time>
      </trkpt>
      <trkpt lat="43.13069" lon="1.3156">
        <ele>277</ele>
        <time>2020-10-12T15:19:28.000Z</time>
      </trkpt>
      <trkpt lat="43.13069" lon="1.31556">
        <ele>277.60000610352</ele>
        <time>2020-10-12T15:19:29.000Z</time>
      </trkpt>
      <trkpt lat="43.13068" lon="1.31552">
        <ele>278.20001220703</ele>
        <time>2020-10-12T15:19:30.000Z</time>
      </trkpt>
      <trkpt lat="43.13067" lon="1.31548">
        <ele>278.79998779297</ele>
        <time>2020-10-12T15:19:31.000Z</time>
      </trkpt>
      <trkpt lat="43.13066" lon="1.31545">
        <ele>279.39999389648</ele>
        <time>2020-10-12T15:19:32.000Z</time>
      </trkpt>
      <trkpt lat="43.13066" lon="1.31541">
        <ele>279.79998779297</ele>
        <time>2020-10-12T15:19:33.000Z</time>
      </trkpt>
      <trkpt lat="43.13065" lon="1.31537">
        <ele>280.20001220703</ele>
        <time>2020-10-12T15:19:34.000Z</time>
      </trkpt>
      <trkpt lat="43.13065" lon="1.31533">
        <ele>280.79998779297</ele>
        <time>2020-10-12T15:19:35.000Z</time>
      </trkpt>
      <trkpt lat="43.13065" lon="1.31529">
        <ele>281.20001220703</ele>
        <time>2020-10-12T15:19:36.000Z</time>
      </trkpt>
      <trkpt lat="43.13065" lon="1.31525">
        <ele>281.20001220703</ele>
        <time>2020-10-12T15:19:37.000Z</time>
      </trkpt>
      <trkpt lat="43.13066" lon="1.31521">
        <ele>281.60000610352</ele>
        <time>2020-10-12T15:19:38.000Z</time>
      </trkpt>
      <trkpt lat="43.13066" lon="1.31518">
        <ele>282.20001220703</ele>
        <time>2020-10-12T15:19:39.000Z</time>
      </trkpt>
      <trkpt lat="43.13067" lon="1.31516">
        <ele>282.60000610352</ele>
        <time>2020-10-12T15:19:40.000Z</time>
      </trkpt>
      <trkpt lat="43.13067" lon="1.31512">
        <ele>283</ele>
        <time>2020-10-12T15:19:41.000Z</time>
      </trkpt>
      <trkpt lat="43.13068" lon="1.31509">
        <ele>283.60000610352</ele>
        <time>2020-10-12T15:19:42.000Z</time>
      </trkpt>
      <trkpt lat="43.13069" lon="1.31506">
        <ele>284.20001220703</ele>
        <time>2020-10-12T15:19:43.000Z</time>
      </trkpt>
      <trkpt lat="43.13071" lon="1.31503">
        <ele>285.60000610352</ele>
        <time>2020-10-12T15:19:44.000Z</time>
      </trkpt>
      <trkpt lat="43.13072" lon="1.315">
        <ele>286</ele>
        <time>2020-10-12T15:19:45.000Z</time>
      </trkpt>
      <trkpt lat="43.13073" lon="1.31496">
        <ele>286.60000610352</ele>
        <time>2020-10-12T15:19:46.000Z</time>
      </trkpt>
      <trkpt lat="43.13073" lon="1.31492">
        <ele>287.20001220703</ele>
        <time>2020-10-12T15:19:47.000Z</time>
      </trkpt>
      <trkpt lat="43.13073" lon="1.31489">
        <ele>287.60000610352</ele>
        <time>2020-10-12T15:19:48.000Z</time>
      </trkpt>
      <trkpt lat="43.13072" lon="1.31485">
        <ele>288.20001220703</ele>
        <time>2020-10-12T15:19:49.000Z</time>
      </trkpt>
      <trkpt lat="43.1307" lon="1.31482">
        <ele>288.60000610352</ele>
        <time>2020-10-12T15:19:50.000Z</time>
      </trkpt>
      <trkpt lat="43.13069" lon="1.31479">
        <ele>289.20001220703</ele>
        <time>2020-10-12T15:19:51.000Z</time>
      </trkpt>
      <trkpt lat="43.13067" lon="1.31475">
        <ele>289.60000610352</ele>
        <time>2020-10-12T15:19:52.000Z</time>
      </trkpt>
      <trkpt lat="43.13066" lon="1.31472">
        <ele>290</ele>
        <time>2020-10-12T15:19:53.000Z</time>
      </trkpt>
      <trkpt lat="43.13066" lon="1.31468">
        <ele>290.60000610352</ele>
        <time>2020-10-12T15:19:54.000Z</time>
      </trkpt>
      <trkpt lat="43.13067" lon="1.31465">
        <ele>291</ele>
        <time>2020-10-12T15:19:55.000Z</time>
      </trkpt>
      <trkpt lat="43.13068" lon="1.31462">
        <ele>291.39999389648</ele>
        <time>2020-10-12T15:19:56.000Z</time>
      </trkpt>
      <trkpt lat="43.1307" lon="1.31459">
        <ele>291.79998779297</ele>
        <time>2020-10-12T15:19:57.000Z</time>
      </trkpt>
      <trkpt lat="43.13072" lon="1.31456">
        <ele>292.20001220703</ele>
        <time>2020-10-12T15:19:58.000Z</time>
      </trkpt>
      <trkpt lat="43.13074" lon="1.31455">
        <ele>292.79998779297</ele>
        <time>2020-10-12T15:19:59.000Z</time>
      </trkpt>
      <trkpt lat="43.13079" lon="1.31452">
        <ele>292.79998779297</ele>
        <time>2020-10-12T15:20:01.000Z</time>
      </trkpt>
      <trkpt lat="43.13083" lon="1.31449">
        <ele>292.79998779297</ele>
        <time>2020-10-12T15:20:05.000Z</time>
      </trkpt>
      <trkpt lat="43.13084" lon="1.31448">
        <ele>292.79998779297</ele>
        <time>2020-10-12T15:20:14.000Z</time>
      </trkpt>
      <trkpt lat="43.13084" lon="1.31447">
        <ele>292.79998779297</ele>
        <time>2020-10-12T15:20:15.000Z</time>
      </trkpt>
      <trkpt lat="43.13085" lon="1.31446">
        <ele>292.79998779297</ele>
        <time>2020-10-12T15:20:17.000Z</time>
      </trkpt>
      <trkpt lat="43.13084" lon="1.31446">
        <ele>292.79998779297</ele>
        <time>2020-10-12T15:20:43.000Z</time>
      </trkpt>
      <trkpt lat="43.13084" lon="1.31447">
        <ele>292.79998779297</ele>
        <time>2020-10-12T15:20:44.000Z</time>
      </trkpt>
      <trkpt lat="43.13084" lon="1.31447">
        <ele>292.79998779297</ele>
        <time>2020-10-12T15:22:37.000Z</time>
      </trkpt>
      <trkpt lat="43.13083" lon="1.31445">
        <ele>292.79998779297</ele>
        <time>2020-10-12T15:22:39.000Z</time>
      </trkpt>
      <trkpt lat="43.13079" lon="1.31444">
        <ele>292.79998779297</ele>
        <time>2020-10-12T15:22:42.000Z</time>
      </trkpt>
      <trkpt lat="43.13079" lon="1.31444">
        <ele>292.79998779297</ele>
        <time>2020-10-12T15:22:43.000Z</time>
      </trkpt>
      <trkpt lat="43.13078" lon="1.31444">
        <ele>292.79998779297</ele>
        <time>2020-10-12T15:22:44.000Z</time>
      </trkpt>
      <trkpt lat="43.13071" lon="1.31447">
        <ele>292.79998779297</ele>
        <time>2020-10-12T15:22:48.000Z</time>
      </trkpt>
      <trkpt lat="43.13067" lon="1.31451">
        <ele>292.79998779297</ele>
        <time>2020-10-12T15:22:50.000Z</time>
      </trkpt>
      <trkpt lat="43.13065" lon="1.31462">
        <ele>292.79998779297</ele>
        <time>2020-10-12T15:22:52.000Z</time>
      </trkpt>
      <trkpt lat="43.13069" lon="1.31477">
        <ele>292.20001220703</ele>
        <time>2020-10-12T15:22:55.000Z</time>
      </trkpt>
      <trkpt lat="43.1307" lon="1.31478">
        <ele>291.79998779297</ele>
        <time>2020-10-12T15:22:56.000Z</time>
      </trkpt>
      <trkpt lat="43.1307" lon="1.31479">
        <ele>291.39999389648</ele>
        <time>2020-10-12T15:22:57.000Z</time>
      </trkpt>
      <trkpt lat="43.1307" lon="1.31479">
        <ele>289.20001220703</ele>
        <time>2020-10-12T15:23:17.000Z</time>
      </trkpt>
      <trkpt lat="43.1307" lon="1.3148">
        <ele>288.79998779297</ele>
        <time>2020-10-12T15:23:18.000Z</time>
      </trkpt>
      <trkpt lat="43.1307" lon="1.31481">
        <ele>288.39999389648</ele>
        <time>2020-10-12T15:23:19.000Z</time>
      </trkpt>
      <trkpt lat="43.1307" lon="1.31482">
        <ele>288.39999389648</ele>
        <time>2020-10-12T15:23:20.000Z</time>
      </trkpt>
      <trkpt lat="43.13069" lon="1.31484">
        <ele>288.39999389648</ele>
        <time>2020-10-12T15:23:45.000Z</time>
      </trkpt>
      <trkpt lat="43.13069" lon="1.31484">
        <ele>288.39999389648</ele>
        <time>2020-10-12T15:23:46.000Z</time>
      </trkpt>
      <trkpt lat="43.13069" lon="1.31484">
        <ele>288.39999389648</ele>
        <time>2020-10-12T15:23:48.000Z</time>
      </trkpt>
      <trkpt lat="43.1307" lon="1.3148">
        <ele>288.39999389648</ele>
        <time>2020-10-12T15:23:54.000Z</time>
      </trkpt>
      <trkpt lat="43.1307" lon="1.31478">
        <ele>288.39999389648</ele>
        <time>2020-10-12T15:23:55.000Z</time>
      </trkpt>
      <trkpt lat="43.13063" lon="1.31466">
        <ele>288.39999389648</ele>
        <time>2020-10-12T15:23:59.000Z</time>
      </trkpt>
      <trkpt lat="43.13062" lon="1.31463">
        <ele>288.79998779297</ele>
        <time>2020-10-12T15:24:00.000Z</time>
      </trkpt>
      <trkpt lat="43.13061" lon="1.3146">
        <ele>289.20001220703</ele>
        <time>2020-10-12T15:24:01.000Z</time>
      </trkpt>
      <trkpt lat="43.13063" lon="1.31456">
        <ele>289.79998779297</ele>
        <time>2020-10-12T15:24:02.000Z</time>
      </trkpt>
      <trkpt lat="43.13065" lon="1.31453">
        <ele>290.20001220703</ele>
        <time>2020-10-12T15:24:03.000Z</time>
      </trkpt>
      <trkpt lat="43.13067" lon="1.31451">
        <ele>290.60000610352</ele>
        <time>2020-10-12T15:24:04.000Z</time>
      </trkpt>
      <trkpt lat="43.13071" lon="1.31449">
        <ele>291.20001220703</ele>
        <time>2020-10-12T15:24:05.000Z</time>
      </trkpt>
      <trkpt lat="43.13074" lon="1.31448">
        <ele>291.79998779297</ele>
        <time>2020-10-12T15:24:06.000Z</time>
      </trkpt>
      <trkpt lat="43.13077" lon="1.31447">
        <ele>292.20001220703</ele>
        <time>2020-10-12T15:24:07.000Z</time>
      </trkpt>
      <trkpt lat="43.1308" lon="1.31446">
        <ele>292.79998779297</ele>
        <time>2020-10-12T15:24:08.000Z</time>
      </trkpt>
      <trkpt lat="43.13083" lon="1.31445">
        <ele>292.79998779297</ele>
        <time>2020-10-12T15:24:11.000Z</time>
      </trkpt>
      <trkpt lat="43.13083" lon="1.31445">
        <ele>292.79998779297</ele>
        <time>2020-10-12T15:24:22.000Z</time>
      </trkpt>
      <trkpt lat="43.13083" lon="1.31445">
        <ele>292.79998779297</ele>
        <time>2020-10-12T15:24:23.000Z</time>
      </trkpt>
      <trkpt lat="43.13083" lon="1.31445">
        <ele>292.79998779297</ele>
        <time>2020-10-12T15:24:26.000Z</time>
      </trkpt>
      <trkpt lat="43.13086" lon="1.31443">
        <ele>292.79998779297</ele>
        <time>2020-10-12T15:24:28.000Z</time>
      </trkpt>
      <trkpt lat="43.13094" lon="1.31434">
        <ele>292.79998779297</ele>
        <time>2020-10-12T15:24:32.000Z</time>
      </trkpt>
      <trkpt lat="43.13095" lon="1.31433">
        <ele>292.79998779297</ele>
        <time>2020-10-12T15:24:33.000Z</time>
      </trkpt>
      <trkpt lat="43.13097" lon="1.31435">
        <ele>290.60000610352</ele>
        <time>2020-10-12T15:26:04.000Z</time>
      </trkpt>
      <trkpt lat="43.13097" lon="1.31433">
        <ele>290.60000610352</ele>
        <time>2020-10-12T15:26:05.000Z</time>
      </trkpt>
      <trkpt lat="43.13105" lon="1.31415">
        <ele>290.60000610352</ele>
        <time>2020-10-12T15:26:11.000Z</time>
      </trkpt>
      <trkpt lat="43.13105" lon="1.31414">
        <ele>290.20001220703</ele>
        <time>2020-10-12T15:26:12.000Z</time>
      </trkpt>
      <trkpt lat="43.13106" lon="1.31413">
        <ele>288.39999389648</ele>
        <time>2020-10-12T15:26:19.000Z</time>
      </trkpt>
      <trkpt lat="43.13106" lon="1.31413">
        <ele>288.39999389648</ele>
        <time>2020-10-12T15:26:26.000Z</time>
      </trkpt>
      <trkpt lat="43.13114" lon="1.31414">
        <ele>288.39999389648</ele>
        <time>2020-10-12T15:26:31.000Z</time>
      </trkpt>
      <trkpt lat="43.13131" lon="1.31415">
        <ele>288.39999389648</ele>
        <time>2020-10-12T15:26:36.000Z</time>
      </trkpt>
      <trkpt lat="43.13143" lon="1.31412">
        <ele>288</ele>
        <time>2020-10-12T15:26:39.000Z</time>
      </trkpt>
      <trkpt lat="43.13147" lon="1.3141">
        <ele>287.60000610352</ele>
        <time>2020-10-12T15:26:40.000Z</time>
      </trkpt>
      <trkpt lat="43.13152" lon="1.31408">
        <ele>287.20001220703</ele>
        <time>2020-10-12T15:26:41.000Z</time>
      </trkpt>
      <trkpt lat="43.13155" lon="1.31406">
        <ele>286.79998779297</ele>
        <time>2020-10-12T15:26:42.000Z</time>
      </trkpt>
      <trkpt lat="43.13159" lon="1.31404">
        <ele>286.39999389648</ele>
        <time>2020-10-12T15:26:43.000Z</time>
      </trkpt>
      <trkpt lat="43.13172" lon="1.31395">
        <ele>286</ele>
        <time>2020-10-12T15:26:46.000Z</time>
      </trkpt>
      <trkpt lat="43.13177" lon="1.31392">
        <ele>285.60000610352</ele>
        <time>2020-10-12T15:26:47.000Z</time>
      </trkpt>
      <trkpt lat="43.13182" lon="1.31388">
        <ele>285.20001220703</ele>
        <time>2020-10-12T15:26:48.000Z</time>
      </trkpt>
      <trkpt lat="43.13187" lon="1.31385">
        <ele>284.79998779297</ele>
        <time>2020-10-12T15:26:49.000Z</time>
      </trkpt>
      <trkpt lat="43.13192" lon="1.31382">
        <ele>284.39999389648</ele>
        <time>2020-10-12T15:26:50.000Z</time>
      </trkpt>
      <trkpt lat="43.13197" lon="1.31379">
        <ele>284.39999389648</ele>
        <time>2020-10-12T15:26:51.000Z</time>
      </trkpt>
      <trkpt lat="43.13202" lon="1.31375">
        <ele>284.39999389648</ele>
        <time>2020-10-12T15:26:52.000Z</time>
      </trkpt>
      <trkpt lat="43.13237" lon="1.31353">
        <ele>284.39999389648</ele>
        <time>2020-10-12T15:26:59.000Z</time>
      </trkpt>
      <trkpt lat="43.13266" lon="1.31332">
        <ele>284.39999389648</ele>
        <time>2020-10-12T15:27:05.000Z</time>
      </trkpt>
      <trkpt lat="43.13271" lon="1.31328">
        <ele>284.39999389648</ele>
        <time>2020-10-12T15:27:06.000Z</time>
      </trkpt>
      <trkpt lat="43.13285" lon="1.31319">
        <ele>284.39999389648</ele>
        <time>2020-10-12T15:27:09.000Z</time>
      </trkpt>
      <trkpt lat="43.13301" lon="1.31313">
        <ele>284.39999389648</ele>
        <time>2020-10-12T15:27:12.000Z</time>
      </trkpt>
      <trkpt lat="43.13312" lon="1.31312">
        <ele>284.39999389648</ele>
        <time>2020-10-12T15:27:14.000Z</time>
      </trkpt>
      <trkpt lat="43.13323" lon="1.31311">
        <ele>284.39999389648</ele>
        <time>2020-10-12T15:27:16.000Z</time>
      </trkpt>
      <trkpt lat="43.13339" lon="1.31313">
        <ele>284.39999389648</ele>
        <time>2020-10-12T15:27:19.000Z</time>
      </trkpt>
      <trkpt lat="43.13344" lon="1.31314">
        <ele>284</ele>
        <time>2020-10-12T15:27:20.000Z</time>
      </trkpt>
      <trkpt lat="43.13351" lon="1.31315">
        <ele>283.60000610352</ele>
        <time>2020-10-12T15:27:21.000Z</time>
      </trkpt>
      <trkpt lat="43.13356" lon="1.31315">
        <ele>283.20001220703</ele>
        <time>2020-10-12T15:27:22.000Z</time>
      </trkpt>
      <trkpt lat="43.13362" lon="1.31316">
        <ele>282.79998779297</ele>
        <time>2020-10-12T15:27:23.000Z</time>
      </trkpt>
      <trkpt lat="43.13368" lon="1.31317">
        <ele>282.39999389648</ele>
        <time>2020-10-12T15:27:24.000Z</time>
      </trkpt>
      <trkpt lat="43.13398" lon="1.31315">
        <ele>282.39999389648</ele>
        <time>2020-10-12T15:27:29.000Z</time>
      </trkpt>
      <trkpt lat="43.13409" lon="1.31314">
        <ele>282.39999389648</ele>
        <time>2020-10-12T15:27:31.000Z</time>
      </trkpt>
      <trkpt lat="43.13423" lon="1.31311">
        <ele>282.39999389648</ele>
        <time>2020-10-12T15:27:34.000Z</time>
      </trkpt>
      <trkpt lat="43.13428" lon="1.3131">
        <ele>282.39999389648</ele>
        <time>2020-10-12T15:27:35.000Z</time>
      </trkpt>
      <trkpt lat="43.13432" lon="1.31309">
        <ele>281.60000610352</ele>
        <time>2020-10-12T15:27:36.000Z</time>
      </trkpt>
      <trkpt lat="43.13436" lon="1.31307">
        <ele>281</ele>
        <time>2020-10-12T15:27:37.000Z</time>
      </trkpt>
      <trkpt lat="43.1344" lon="1.31306">
        <ele>280.60000610352</ele>
        <time>2020-10-12T15:27:38.000Z</time>
      </trkpt>
      <trkpt lat="43.13443" lon="1.31305">
        <ele>280.20001220703</ele>
        <time>2020-10-12T15:27:39.000Z</time>
      </trkpt>
      <trkpt lat="43.13449" lon="1.31304">
        <ele>280.20001220703</ele>
        <time>2020-10-12T15:27:41.000Z</time>
      </trkpt>
      <trkpt lat="43.13453" lon="1.31304">
        <ele>279.79998779297</ele>
        <time>2020-10-12T15:27:43.000Z</time>
      </trkpt>
      <trkpt lat="43.13453" lon="1.31304">
        <ele>279.39999389648</ele>
        <time>2020-10-12T15:27:44.000Z</time>
      </trkpt>
      <trkpt lat="43.13453" lon="1.31304">
        <ele>278</ele>
        <time>2020-10-12T15:27:50.000Z</time>
      </trkpt>
      <trkpt lat="43.13464" lon="1.31304">
        <ele>278</ele>
        <time>2020-10-12T15:27:53.000Z</time>
      </trkpt>
      <trkpt lat="43.1347" lon="1.31304">
        <ele>278</ele>
        <time>2020-10-12T15:27:54.000Z</time>
      </trkpt>
      <trkpt lat="43.13496" lon="1.31301">
        <ele>278</ele>
        <time>2020-10-12T15:27:58.000Z</time>
      </trkpt>
      <trkpt lat="43.13552" lon="1.31301">
        <ele>278</ele>
        <time>2020-10-12T15:28:06.000Z</time>
      </trkpt>
      <trkpt lat="43.13559" lon="1.31301">
        <ele>277.60000610352</ele>
        <time>2020-10-12T15:28:07.000Z</time>
      </trkpt>
      <trkpt lat="43.13566" lon="1.31302">
        <ele>277.20001220703</ele>
        <time>2020-10-12T15:28:08.000Z</time>
      </trkpt>
      <trkpt lat="43.13573" lon="1.31303">
        <ele>276.60000610352</ele>
        <time>2020-10-12T15:28:09.000Z</time>
      </trkpt>
      <trkpt lat="43.13579" lon="1.31303">
        <ele>276.20001220703</ele>
        <time>2020-10-12T15:28:10.000Z</time>
      </trkpt>
      <trkpt lat="43.13585" lon="1.31302">
        <ele>275.79998779297</ele>
        <time>2020-10-12T15:28:11.000Z</time>
      </trkpt>
      <trkpt lat="43.13591" lon="1.313">
        <ele>275.79998779297</ele>
        <time>2020-10-12T15:28:12.000Z</time>
      </trkpt>
      <trkpt lat="43.13607" lon="1.31291">
        <ele>275.20001220703</ele>
        <time>2020-10-12T15:28:15.000Z</time>
      </trkpt>
      <trkpt lat="43.13611" lon="1.31289">
        <ele>274.79998779297</ele>
        <time>2020-10-12T15:28:16.000Z</time>
      </trkpt>
      <trkpt lat="43.13615" lon="1.31288">
        <ele>274.39999389648</ele>
        <time>2020-10-12T15:28:17.000Z</time>
      </trkpt>
      <trkpt lat="43.13618" lon="1.31289">
        <ele>274</ele>
        <time>2020-10-12T15:28:18.000Z</time>
      </trkpt>
      <trkpt lat="43.13622" lon="1.31289">
        <ele>273.60000610352</ele>
        <time>2020-10-12T15:28:19.000Z</time>
      </trkpt>
      <trkpt lat="43.13624" lon="1.31289">
        <ele>273.60000610352</ele>
        <time>2020-10-12T15:28:20.000Z</time>
      </trkpt>
      <trkpt lat="43.13625" lon="1.31289">
        <ele>273.60000610352</ele>
        <time>2020-10-12T15:28:22.000Z</time>
      </trkpt>
      <trkpt lat="43.13625" lon="1.31288">
        <ele>273.60000610352</ele>
        <time>2020-10-12T15:28:35.000Z</time>
      </trkpt>
      <trkpt lat="43.13625" lon="1.31288">
        <ele>273.60000610352</ele>
        <time>2020-10-12T15:28:36.000Z</time>
      </trkpt>
      <trkpt lat="43.13625" lon="1.31287">
        <ele>273.60000610352</ele>
        <time>2020-10-12T15:28:44.000Z</time>
      </trkpt>
      <trkpt lat="43.13626" lon="1.31287">
        <ele>273.60000610352</ele>
        <time>2020-10-12T15:28:45.000Z</time>
      </trkpt>
      <trkpt lat="43.13629" lon="1.31284">
        <ele>273.60000610352</ele>
        <time>2020-10-12T15:28:51.000Z</time>
      </trkpt>
      <trkpt lat="43.13629" lon="1.31285">
        <ele>273.60000610352</ele>
        <time>2020-10-12T15:28:56.000Z</time>
      </trkpt>
      <trkpt lat="43.13629" lon="1.31285">
        <ele>273.60000610352</ele>
        <time>2020-10-12T15:28:57.000Z</time>
      </trkpt>
      <trkpt lat="43.13629" lon="1.31285">
        <ele>273.60000610352</ele>
        <time>2020-10-12T15:29:03.000Z</time>
      </trkpt>
      <trkpt lat="43.13632" lon="1.31288">
        <ele>273.60000610352</ele>
        <time>2020-10-12T15:29:06.000Z</time>
      </trkpt>
      <trkpt lat="43.13636" lon="1.3129">
        <ele>273.60000610352</ele>
        <time>2020-10-12T15:29:09.000Z</time>
      </trkpt>
      <trkpt lat="43.13639" lon="1.31291">
        <ele>273.60000610352</ele>
        <time>2020-10-12T15:29:10.000Z</time>
      </trkpt>
      <trkpt lat="43.13651" lon="1.31294">
        <ele>273.60000610352</ele>
        <time>2020-10-12T15:29:14.000Z</time>
      </trkpt>
      <trkpt lat="43.13656" lon="1.31295">
        <ele>272.79998779297</ele>
        <time>2020-10-12T15:29:15.000Z</time>
      </trkpt>
      <trkpt lat="43.1366" lon="1.31295">
        <ele>272.39999389648</ele>
        <time>2020-10-12T15:29:16.000Z</time>
      </trkpt>
      <trkpt lat="43.13665" lon="1.31295">
        <ele>272</ele>
        <time>2020-10-12T15:29:17.000Z</time>
      </trkpt>
      <trkpt lat="43.1367" lon="1.31295">
        <ele>271.39999389648</ele>
        <time>2020-10-12T15:29:18.000Z</time>
      </trkpt>
      <trkpt lat="43.13675" lon="1.31295">
        <ele>271.39999389648</ele>
        <time>2020-10-12T15:29:19.000Z</time>
      </trkpt>
      <trkpt lat="43.1368" lon="1.31294">
        <ele>271</ele>
        <time>2020-10-12T15:29:20.000Z</time>
      </trkpt>
      <trkpt lat="43.13686" lon="1.31293">
        <ele>270.60000610352</ele>
        <time>2020-10-12T15:29:21.000Z</time>
      </trkpt>
      <trkpt lat="43.13693" lon="1.31292">
        <ele>270.20001220703</ele>
        <time>2020-10-12T15:29:22.000Z</time>
      </trkpt>
      <trkpt lat="43.137" lon="1.31291">
        <ele>269.79998779297</ele>
        <time>2020-10-12T15:29:23.000Z</time>
      </trkpt>
      <trkpt lat="43.13707" lon="1.3129">
        <ele>269.39999389648</ele>
        <time>2020-10-12T15:29:24.000Z</time>
      </trkpt>
      <trkpt lat="43.13714" lon="1.31289">
        <ele>268.79998779297</ele>
        <time>2020-10-12T15:29:25.000Z</time>
      </trkpt>
      <trkpt lat="43.13721" lon="1.31289">
        <ele>268.39999389648</ele>
        <time>2020-10-12T15:29:26.000Z</time>
      </trkpt>
      <trkpt lat="43.13728" lon="1.31289">
        <ele>267.79998779297</ele>
        <time>2020-10-12T15:29:27.000Z</time>
      </trkpt>
      <trkpt lat="43.13735" lon="1.3129">
        <ele>267.39999389648</ele>
        <time>2020-10-12T15:29:28.000Z</time>
      </trkpt>
      <trkpt lat="43.13743" lon="1.31291">
        <ele>267</ele>
        <time>2020-10-12T15:29:29.000Z</time>
      </trkpt>
      <trkpt lat="43.1375" lon="1.31292">
        <ele>266.39999389648</ele>
        <time>2020-10-12T15:29:30.000Z</time>
      </trkpt>
      <trkpt lat="43.13758" lon="1.31293">
        <ele>266</ele>
        <time>2020-10-12T15:29:31.000Z</time>
      </trkpt>
      <trkpt lat="43.13765" lon="1.31294">
        <ele>265.60000610352</ele>
        <time>2020-10-12T15:29:32.000Z</time>
      </trkpt>
      <trkpt lat="43.13773" lon="1.31293">
        <ele>265.20001220703</ele>
        <time>2020-10-12T15:29:33.000Z</time>
      </trkpt>
      <trkpt lat="43.13781" lon="1.31291">
        <ele>264.79998779297</ele>
        <time>2020-10-12T15:29:34.000Z</time>
      </trkpt>
      <trkpt lat="43.13811" lon="1.31271">
        <ele>264.79998779297</ele>
        <time>2020-10-12T15:29:38.000Z</time>
      </trkpt>
      <trkpt lat="43.13824" lon="1.31259">
        <ele>264</ele>
        <time>2020-10-12T15:29:40.000Z</time>
      </trkpt>
      <trkpt lat="43.13831" lon="1.31253">
        <ele>263.60000610352</ele>
        <time>2020-10-12T15:29:41.000Z</time>
      </trkpt>
      <trkpt lat="43.13838" lon="1.31248">
        <ele>263</ele>
        <time>2020-10-12T15:29:42.000Z</time>
      </trkpt>
      <trkpt lat="43.13844" lon="1.31244">
        <ele>262.60000610352</ele>
        <time>2020-10-12T15:29:43.000Z</time>
      </trkpt>
      <trkpt lat="43.13871" lon="1.31227">
        <ele>262.60000610352</ele>
        <time>2020-10-12T15:29:47.000Z</time>
      </trkpt>
      <trkpt lat="43.13891" lon="1.31219">
        <ele>262.60000610352</ele>
        <time>2020-10-12T15:29:50.000Z</time>
      </trkpt>
      <trkpt lat="43.13897" lon="1.31217">
        <ele>262.20001220703</ele>
        <time>2020-10-12T15:29:51.000Z</time>
      </trkpt>
      <trkpt lat="43.13904" lon="1.31215">
        <ele>261.79998779297</ele>
        <time>2020-10-12T15:29:52.000Z</time>
      </trkpt>
      <trkpt lat="43.13912" lon="1.31213">
        <ele>261.39999389648</ele>
        <time>2020-10-12T15:29:53.000Z</time>
      </trkpt>
      <trkpt lat="43.13919" lon="1.31211">
        <ele>260.79998779297</ele>
        <time>2020-10-12T15:29:54.000Z</time>
      </trkpt>
      <trkpt lat="43.13926" lon="1.31209">
        <ele>260.39999389648</ele>
        <time>2020-10-12T15:29:55.000Z</time>
      </trkpt>
      <trkpt lat="43.13932" lon="1.31208">
        <ele>259.79998779297</ele>
        <time>2020-10-12T15:29:56.000Z</time>
      </trkpt>
      <trkpt lat="43.13939" lon="1.31206">
        <ele>259.39999389648</ele>
        <time>2020-10-12T15:29:57.000Z</time>
      </trkpt>
      <trkpt lat="43.13946" lon="1.31206">
        <ele>258.79998779297</ele>
        <time>2020-10-12T15:29:58.000Z</time>
      </trkpt>
      <trkpt lat="43.13953" lon="1.31205">
        <ele>258.20001220703</ele>
        <time>2020-10-12T15:29:59.000Z</time>
      </trkpt>
      <trkpt lat="43.1396" lon="1.31204">
        <ele>258.20001220703</ele>
        <time>2020-10-12T15:30:00.000Z</time>
      </trkpt>
      <trkpt lat="43.13999" lon="1.312">
        <ele>258.20001220703</ele>
        <time>2020-10-12T15:30:06.000Z</time>
      </trkpt>
      <trkpt lat="43.1404" lon="1.31204">
        <ele>258.20001220703</ele>
        <time>2020-10-12T15:30:13.000Z</time>
      </trkpt>
      <trkpt lat="43.14045" lon="1.31205">
        <ele>258.20001220703</ele>
        <time>2020-10-12T15:30:14.000Z</time>
      </trkpt>
      <trkpt lat="43.14055" lon="1.31207">
        <ele>258.20001220703</ele>
        <time>2020-10-12T15:30:16.000Z</time>
      </trkpt>
      <trkpt lat="43.14059" lon="1.31207">
        <ele>258.20001220703</ele>
        <time>2020-10-12T15:30:17.000Z</time>
      </trkpt>
      <trkpt lat="43.14073" lon="1.31193">
        <ele>258.20001220703</ele>
        <time>2020-10-12T15:30:21.000Z</time>
      </trkpt>
      <trkpt lat="43.14075" lon="1.31188">
        <ele>257.79998779297</ele>
        <time>2020-10-12T15:30:22.000Z</time>
      </trkpt>
      <trkpt lat="43.14077" lon="1.31182">
        <ele>257.39999389648</ele>
        <time>2020-10-12T15:30:23.000Z</time>
      </trkpt>
      <trkpt lat="43.1408" lon="1.31177">
        <ele>257</ele>
        <time>2020-10-12T15:30:24.000Z</time>
      </trkpt>
      <trkpt lat="43.14082" lon="1.31171">
        <ele>256.60000610352</ele>
        <time>2020-10-12T15:30:25.000Z</time>
      </trkpt>
      <trkpt lat="43.14085" lon="1.31164">
        <ele>256.20001220703</ele>
        <time>2020-10-12T15:30:26.000Z</time>
      </trkpt>
      <trkpt lat="43.14087" lon="1.31157">
        <ele>256.20001220703</ele>
        <time>2020-10-12T15:30:27.000Z</time>
      </trkpt>
      <trkpt lat="43.1409" lon="1.3115">
        <ele>256.20001220703</ele>
        <time>2020-10-12T15:30:28.000Z</time>
      </trkpt>
      <trkpt lat="43.141" lon="1.31112">
        <ele>256.20001220703</ele>
        <time>2020-10-12T15:30:33.000Z</time>
      </trkpt>
      <trkpt lat="43.14111" lon="1.31074">
        <ele>256.20001220703</ele>
        <time>2020-10-12T15:30:39.000Z</time>
      </trkpt>
      <trkpt lat="43.1413" lon="1.31029">
        <ele>256.20001220703</ele>
        <time>2020-10-12T15:30:46.000Z</time>
      </trkpt>
      <trkpt lat="43.14144" lon="1.30993">
        <ele>256.20001220703</ele>
        <time>2020-10-12T15:30:52.000Z</time>
      </trkpt>
      <trkpt lat="43.14157" lon="1.30961">
        <ele>256.20001220703</ele>
        <time>2020-10-12T15:30:59.000Z</time>
      </trkpt>
      <trkpt lat="43.14155" lon="1.30938">
        <ele>256.20001220703</ele>
        <time>2020-10-12T15:31:04.000Z</time>
      </trkpt>
      <trkpt lat="43.14148" lon="1.30931">
        <ele>256.20001220703</ele>
        <time>2020-10-12T15:31:06.000Z</time>
      </trkpt>
      <trkpt lat="43.1414" lon="1.30923">
        <ele>256.20001220703</ele>
        <time>2020-10-12T15:31:08.000Z</time>
      </trkpt>
      <trkpt lat="43.14114" lon="1.30896">
        <ele>256.20001220703</ele>
        <time>2020-10-12T15:31:15.000Z</time>
      </trkpt>
      <trkpt lat="43.14111" lon="1.30892">
        <ele>256.20001220703</ele>
        <time>2020-10-12T15:31:16.000Z</time>
      </trkpt>
      <trkpt lat="43.14103" lon="1.30882">
        <ele>256.20001220703</ele>
        <time>2020-10-12T15:31:19.000Z</time>
      </trkpt>
      <trkpt lat="43.14097" lon="1.30878">
        <ele>256.20001220703</ele>
        <time>2020-10-12T15:31:21.000Z</time>
      </trkpt>
      <trkpt lat="43.14081" lon="1.30865">
        <ele>256.60000610352</ele>
        <time>2020-10-12T15:31:28.000Z</time>
      </trkpt>
      <trkpt lat="43.14081" lon="1.30864">
        <ele>257</ele>
        <time>2020-10-12T15:31:29.000Z</time>
      </trkpt>
      <trkpt lat="43.14081" lon="1.30863">
        <ele>257.39999389648</ele>
        <time>2020-10-12T15:31:30.000Z</time>
      </trkpt>
      <trkpt lat="43.14082" lon="1.30862">
        <ele>257.79998779297</ele>
        <time>2020-10-12T15:31:31.000Z</time>
      </trkpt>
      <trkpt lat="43.14082" lon="1.30861">
        <ele>258.20001220703</ele>
        <time>2020-10-12T15:31:32.000Z</time>
      </trkpt>
      <trkpt lat="43.14082" lon="1.30862">
        <ele>258.20001220703</ele>
        <time>2020-10-12T15:31:38.000Z</time>
      </trkpt>
      <trkpt lat="43.14081" lon="1.30862">
        <ele>258.20001220703</ele>
        <time>2020-10-12T15:31:39.000Z</time>
      </trkpt>
      <trkpt lat="43.14081" lon="1.30861">
        <ele>258.20001220703</ele>
        <time>2020-10-12T15:31:41.000Z</time>
      </trkpt>
      <trkpt lat="43.1408" lon="1.30861">
        <ele>258.20001220703</ele>
        <time>2020-10-12T15:31:42.000Z</time>
      </trkpt>
      <trkpt lat="43.14079" lon="1.3086">
        <ele>258.20001220703</ele>
        <time>2020-10-12T15:31:43.000Z</time>
      </trkpt>
      <trkpt lat="43.14071" lon="1.30852">
        <ele>258.20001220703</ele>
        <time>2020-10-12T15:31:47.000Z</time>
      </trkpt>
      <trkpt lat="43.14057" lon="1.30842">
        <ele>258.20001220703</ele>
        <time>2020-10-12T15:31:52.000Z</time>
      </trkpt>
      <trkpt lat="43.14036" lon="1.30819">
        <ele>258.20001220703</ele>
        <time>2020-10-12T15:31:59.000Z</time>
      </trkpt>
      <trkpt lat="43.14019" lon="1.30803">
        <ele>258.20001220703</ele>
        <time>2020-10-12T15:32:04.000Z</time>
      </trkpt>
      <trkpt lat="43.14016" lon="1.30799">
        <ele>258.20001220703</ele>
        <time>2020-10-12T15:32:05.000Z</time>
      </trkpt>
      <trkpt lat="43.14002" lon="1.30788">
        <ele>258.20001220703</ele>
        <time>2020-10-12T15:32:09.000Z</time>
      </trkpt>
      <trkpt lat="43.1399" lon="1.30778">
        <ele>258.20001220703</ele>
        <time>2020-10-12T15:32:12.000Z</time>
      </trkpt>
      <trkpt lat="43.13979" lon="1.30767">
        <ele>258.20001220703</ele>
        <time>2020-10-12T15:32:15.000Z</time>
      </trkpt>
      <trkpt lat="43.13966" lon="1.30753">
        <ele>258.20001220703</ele>
        <time>2020-10-12T15:32:19.000Z</time>
      </trkpt>
      <trkpt lat="43.13962" lon="1.30749">
        <ele>258.20001220703</ele>
        <time>2020-10-12T15:32:20.000Z</time>
      </trkpt>
      <trkpt lat="43.13938" lon="1.30728">
        <ele>258.20001220703</ele>
        <time>2020-10-12T15:32:27.000Z</time>
      </trkpt>
      <trkpt lat="43.13915" lon="1.30705">
        <ele>258.20001220703</ele>
        <time>2020-10-12T15:32:34.000Z</time>
      </trkpt>
      <trkpt lat="43.13905" lon="1.30696">
        <ele>258.20001220703</ele>
        <time>2020-10-12T15:32:37.000Z</time>
      </trkpt>
      <trkpt lat="43.13895" lon="1.30688">
        <ele>258.20001220703</ele>
        <time>2020-10-12T15:32:40.000Z</time>
      </trkpt>
      <trkpt lat="43.13889" lon="1.3068">
        <ele>258.20001220703</ele>
        <time>2020-10-12T15:32:42.000Z</time>
      </trkpt>
      <trkpt lat="43.13878" lon="1.30662">
        <ele>258.20001220703</ele>
        <time>2020-10-12T15:32:46.000Z</time>
      </trkpt>
      <trkpt lat="43.13869" lon="1.30643">
        <ele>258.20001220703</ele>
        <time>2020-10-12T15:32:52.000Z</time>
      </trkpt>
      <trkpt lat="43.13868" lon="1.30633">
        <ele>258.20001220703</ele>
        <time>2020-10-12T15:32:57.000Z</time>
      </trkpt>
      <trkpt lat="43.13868" lon="1.30632">
        <ele>258.20001220703</ele>
        <time>2020-10-12T15:32:59.000Z</time>
      </trkpt>
      <trkpt lat="43.1387" lon="1.30632">
        <ele>258.20001220703</ele>
        <time>2020-10-12T15:34:17.000Z</time>
      </trkpt>
      <trkpt lat="43.13872" lon="1.3063">
        <ele>258.20001220703</ele>
        <time>2020-10-12T15:34:18.000Z</time>
      </trkpt>
      <trkpt lat="43.13881" lon="1.30618">
        <ele>258.20001220703</ele>
        <time>2020-10-12T15:34:22.000Z</time>
      </trkpt>
      <trkpt lat="43.13896" lon="1.30598">
        <ele>258.20001220703</ele>
        <time>2020-10-12T15:34:29.000Z</time>
      </trkpt>
      <trkpt lat="43.13904" lon="1.30585">
        <ele>258.20001220703</ele>
        <time>2020-10-12T15:34:34.000Z</time>
      </trkpt>
      <trkpt lat="43.13915" lon="1.30568">
        <ele>258.20001220703</ele>
        <time>2020-10-12T15:34:41.000Z</time>
      </trkpt>
      <trkpt lat="43.13916" lon="1.30566">
        <ele>257.79998779297</ele>
        <time>2020-10-12T15:34:42.000Z</time>
      </trkpt>
      <trkpt lat="43.13918" lon="1.30564">
        <ele>257.39999389648</ele>
        <time>2020-10-12T15:34:43.000Z</time>
      </trkpt>
      <trkpt lat="43.13919" lon="1.30562">
        <ele>256.79998779297</ele>
        <time>2020-10-12T15:34:44.000Z</time>
      </trkpt>
      <trkpt lat="43.1392" lon="1.30561">
        <ele>256.39999389648</ele>
        <time>2020-10-12T15:34:45.000Z</time>
      </trkpt>
      <trkpt lat="43.13921" lon="1.3056">
        <ele>255.80000305176</ele>
        <time>2020-10-12T15:34:46.000Z</time>
      </trkpt>
      <trkpt lat="43.13922" lon="1.3056">
        <ele>255.80000305176</ele>
        <time>2020-10-12T15:34:47.000Z</time>
      </trkpt>
      <trkpt lat="43.13927" lon="1.30557">
        <ele>255.39999389648</ele>
        <time>2020-10-12T15:34:51.000Z</time>
      </trkpt>
      <trkpt lat="43.13928" lon="1.30557">
        <ele>255</ele>
        <time>2020-10-12T15:34:52.000Z</time>
      </trkpt>
      <trkpt lat="43.13929" lon="1.30558">
        <ele>254.60000610352</ele>
        <time>2020-10-12T15:34:53.000Z</time>
      </trkpt>
      <trkpt lat="43.1393" lon="1.30558">
        <ele>254.19999694824</ele>
        <time>2020-10-12T15:34:54.000Z</time>
      </trkpt>
      <trkpt lat="43.13931" lon="1.30558">
        <ele>253.60000610352</ele>
        <time>2020-10-12T15:34:55.000Z</time>
      </trkpt>
      <trkpt lat="43.13933" lon="1.30558">
        <ele>253.60000610352</ele>
        <time>2020-10-12T15:34:57.000Z</time>
      </trkpt>
      <trkpt lat="43.13934" lon="1.30559">
        <ele>253.60000610352</ele>
        <time>2020-10-12T15:34:58.000Z</time>
      </trkpt>
      <trkpt lat="43.13938" lon="1.30558">
        <ele>253.60000610352</ele>
        <time>2020-10-12T15:35:00.000Z</time>
      </trkpt>
      <trkpt lat="43.13942" lon="1.30555">
        <ele>253.60000610352</ele>
        <time>2020-10-12T15:35:02.000Z</time>
      </trkpt>
      <trkpt lat="43.13951" lon="1.30547">
        <ele>254.19999694824</ele>
        <time>2020-10-12T15:35:07.000Z</time>
      </trkpt>
      <trkpt lat="43.13953" lon="1.30545">
        <ele>254.60000610352</ele>
        <time>2020-10-12T15:35:08.000Z</time>
      </trkpt>
      <trkpt lat="43.13955" lon="1.30543">
        <ele>255</ele>
        <time>2020-10-12T15:35:09.000Z</time>
      </trkpt>
      <trkpt lat="43.13958" lon="1.30541">
        <ele>255.39999389648</ele>
        <time>2020-10-12T15:35:10.000Z</time>
      </trkpt>
      <trkpt lat="43.13961" lon="1.3054">
        <ele>255.80000305176</ele>
        <time>2020-10-12T15:35:11.000Z</time>
      </trkpt>
      <trkpt lat="43.13972" lon="1.30531">
        <ele>255.80000305176</ele>
        <time>2020-10-12T15:35:16.000Z</time>
      </trkpt>
      <trkpt lat="43.1399" lon="1.3052">
        <ele>256.20001220703</ele>
        <time>2020-10-12T15:35:23.000Z</time>
      </trkpt>
      <trkpt lat="43.13992" lon="1.30519">
        <ele>256.79998779297</ele>
        <time>2020-10-12T15:35:24.000Z</time>
      </trkpt>
      <trkpt lat="43.13995" lon="1.30517">
        <ele>257.60000610352</ele>
        <time>2020-10-12T15:35:25.000Z</time>
      </trkpt>
      <trkpt lat="43.13997" lon="1.30516">
        <ele>258</ele>
        <time>2020-10-12T15:35:26.000Z</time>
      </trkpt>
      <trkpt lat="43.14009" lon="1.30509">
        <ele>258</ele>
        <time>2020-10-12T15:35:31.000Z</time>
      </trkpt>
      <trkpt lat="43.14015" lon="1.30503">
        <ele>258.39999389648</ele>
        <time>2020-10-12T15:35:34.000Z</time>
      </trkpt>
      <trkpt lat="43.14017" lon="1.30501">
        <ele>258.79998779297</ele>
        <time>2020-10-12T15:35:35.000Z</time>
      </trkpt>
      <trkpt lat="43.14019" lon="1.30498">
        <ele>259.20001220703</ele>
        <time>2020-10-12T15:35:36.000Z</time>
      </trkpt>
      <trkpt lat="43.14021" lon="1.30496">
        <ele>259.60000610352</ele>
        <time>2020-10-12T15:35:37.000Z</time>
      </trkpt>
      <trkpt lat="43.14023" lon="1.30493">
        <ele>260</ele>
        <time>2020-10-12T15:35:38.000Z</time>
      </trkpt>
      <trkpt lat="43.14042" lon="1.30474">
        <ele>260</ele>
        <time>2020-10-12T15:35:46.000Z</time>
      </trkpt>
      <trkpt lat="43.14044" lon="1.30472">
        <ele>260.39999389648</ele>
        <time>2020-10-12T15:35:47.000Z</time>
      </trkpt>
      <trkpt lat="43.14046" lon="1.30469">
        <ele>261</ele>
        <time>2020-10-12T15:35:48.000Z</time>
      </trkpt>
      <trkpt lat="43.14048" lon="1.30467">
        <ele>261.39999389648</ele>
        <time>2020-10-12T15:35:49.000Z</time>
      </trkpt>
      <trkpt lat="43.1405" lon="1.30464">
        <ele>262.20001220703</ele>
        <time>2020-10-12T15:35:50.000Z</time>
      </trkpt>
      <trkpt lat="43.14062" lon="1.30451">
        <ele>262.20001220703</ele>
        <time>2020-10-12T15:35:55.000Z</time>
      </trkpt>
      <trkpt lat="43.14074" lon="1.30432">
        <ele>262.20001220703</ele>
        <time>2020-10-12T15:36:01.000Z</time>
      </trkpt>
      <trkpt lat="43.14082" lon="1.30418">
        <ele>262.20001220703</ele>
        <time>2020-10-12T15:36:06.000Z</time>
      </trkpt>
      <trkpt lat="43.14096" lon="1.30414">
        <ele>262.20001220703</ele>
        <time>2020-10-12T15:36:11.000Z</time>
      </trkpt>
      <trkpt lat="43.14109" lon="1.30407">
        <ele>262.20001220703</ele>
        <time>2020-10-12T15:36:16.000Z</time>
      </trkpt>
      <trkpt lat="43.1411" lon="1.30405">
        <ele>262.20001220703</ele>
        <time>2020-10-12T15:36:17.000Z</time>
      </trkpt>
      <trkpt lat="43.14109" lon="1.30403">
        <ele>262.20001220703</ele>
        <time>2020-10-12T15:36:19.000Z</time>
      </trkpt>
      <trkpt lat="43.14109" lon="1.30403">
        <ele>262.20001220703</ele>
        <time>2020-10-12T15:36:28.000Z</time>
      </trkpt>
    </trkseg>
  </trk>
</gpx>